<?xml version="1.0" encoding="UTF-8"?>
<gpx xmlns="http://www.topografix.com/GPX/1/1" xmlns:gpsies="https://www.gpsies.com/GPX/1/0" creator="AllTrails https://www.alltrails.com/ - Ascoli_Piceno_san_Gregorio_course" version="1.1" xmlns:xsi="http://www.w3.org/2001/XMLSchema-instance" xsi:schemaLocation="http://www.topografix.com/GPX/1/1 http://www.topografix.com/GPX/1/1/gpx.xsd https://www.gpsies.com/GPX/1/0 https://www.gpsies.com/gpsies.xsd">
  <metadata>
    <name>Ascoli_Piceno_san_Gregorio_course</name>
    <link href="https://www.gpsies.com/">
      <text>Ascoli_Piceno_san_Gregorio_course on AllTrails</text>
    </link>
    <time>2024-05-17T07:55:30Z</time>
  </metadata>
  <trk>
    <name>Ascoli_Piceno_san_Gregorio_course on AllTrails</name>
    <trkseg>
      <trkpt lat="42.84495427" lon="13.64028953">
        <ele>105.00000</ele>
        <time>2024-02-16T11:57:34Z</time>
      </trkpt>
      <trkpt lat="42.84495536" lon="13.64020940">
        <ele>105.00000</ele>
        <time>2024-02-16T11:57:35Z</time>
      </trkpt>
      <trkpt lat="42.84495729" lon="13.64012936">
        <ele>105.00000</ele>
        <time>2024-02-16T11:57:36Z</time>
      </trkpt>
      <trkpt lat="42.84495896" lon="13.64004797">
        <ele>105.00000</ele>
        <time>2024-02-16T11:57:37Z</time>
      </trkpt>
      <trkpt lat="42.84496005" lon="13.63996591">
        <ele>105.00000</ele>
        <time>2024-02-16T11:57:38Z</time>
      </trkpt>
      <trkpt lat="42.84496433" lon="13.63988653">
        <ele>105.00000</ele>
        <time>2024-02-16T11:57:39Z</time>
      </trkpt>
      <trkpt lat="42.84497011" lon="13.63980221">
        <ele>105.00000</ele>
        <time>2024-02-16T11:57:40Z</time>
      </trkpt>
      <trkpt lat="42.84497564" lon="13.63971755">
        <ele>105.00000</ele>
        <time>2024-02-16T11:57:41Z</time>
      </trkpt>
      <trkpt lat="42.84498109" lon="13.63963122">
        <ele>105.00000</ele>
        <time>2024-02-16T11:57:42Z</time>
      </trkpt>
      <trkpt lat="42.84498712" lon="13.63954388">
        <ele>104.00000</ele>
        <time>2024-02-16T11:57:43Z</time>
      </trkpt>
      <trkpt lat="42.84499291" lon="13.63947222">
        <ele>104.00000</ele>
        <time>2024-02-16T11:57:44Z</time>
      </trkpt>
      <trkpt lat="42.84499676" lon="13.63936744">
        <ele>104.00000</ele>
        <time>2024-02-16T11:57:45Z</time>
      </trkpt>
      <trkpt lat="42.84499894" lon="13.63927985">
        <ele>104.00000</ele>
        <time>2024-02-16T11:57:46Z</time>
      </trkpt>
      <trkpt lat="42.84500313" lon="13.63918715">
        <ele>104.00000</ele>
        <time>2024-02-16T11:57:47Z</time>
      </trkpt>
      <trkpt lat="42.84501219" lon="13.63909302">
        <ele>104.00000</ele>
        <time>2024-02-16T11:57:48Z</time>
      </trkpt>
      <trkpt lat="42.84501780" lon="13.63900207">
        <ele>104.00000</ele>
        <time>2024-02-16T11:57:49Z</time>
      </trkpt>
      <trkpt lat="42.84502157" lon="13.63892714">
        <ele>104.00000</ele>
        <time>2024-02-16T11:57:50Z</time>
      </trkpt>
      <trkpt lat="42.84502677" lon="13.63881600">
        <ele>104.00000</ele>
        <time>2024-02-16T11:57:51Z</time>
      </trkpt>
      <trkpt lat="42.84503130" lon="13.63872279">
        <ele>104.00000</ele>
        <time>2024-02-16T11:57:52Z</time>
      </trkpt>
      <trkpt lat="42.84503616" lon="13.63863000">
        <ele>104.00000</ele>
        <time>2024-02-16T11:57:53Z</time>
      </trkpt>
      <trkpt lat="42.84504161" lon="13.63853378">
        <ele>104.00000</ele>
        <time>2024-02-16T11:57:54Z</time>
      </trkpt>
      <trkpt lat="42.84504831" lon="13.63843839">
        <ele>104.00000</ele>
        <time>2024-02-16T11:57:55Z</time>
      </trkpt>
      <trkpt lat="42.84505074" lon="13.63834485">
        <ele>104.00000</ele>
        <time>2024-02-16T11:57:56Z</time>
      </trkpt>
      <trkpt lat="42.84505426" lon="13.63825030">
        <ele>104.00000</ele>
        <time>2024-02-16T11:57:57Z</time>
      </trkpt>
      <trkpt lat="42.84505988" lon="13.63815492">
        <ele>104.00000</ele>
        <time>2024-02-16T11:57:58Z</time>
      </trkpt>
      <trkpt lat="42.84506734" lon="13.63805836">
        <ele>104.00000</ele>
        <time>2024-02-16T11:57:59Z</time>
      </trkpt>
      <trkpt lat="42.84507497" lon="13.63796104">
        <ele>104.00000</ele>
        <time>2024-02-16T11:58:00Z</time>
      </trkpt>
      <trkpt lat="42.84508042" lon="13.63786515">
        <ele>104.00000</ele>
        <time>2024-02-16T11:58:01Z</time>
      </trkpt>
      <trkpt lat="42.84509022" lon="13.63776918">
        <ele>104.00000</ele>
        <time>2024-02-16T11:58:02Z</time>
      </trkpt>
      <trkpt lat="42.84509383" lon="13.63767220">
        <ele>104.00000</ele>
        <time>2024-02-16T11:58:03Z</time>
      </trkpt>
      <trkpt lat="42.84509944" lon="13.63757455">
        <ele>104.00000</ele>
        <time>2024-02-16T11:58:04Z</time>
      </trkpt>
      <trkpt lat="42.84511009" lon="13.63747531">
        <ele>104.00000</ele>
        <time>2024-02-16T11:58:05Z</time>
      </trkpt>
      <trkpt lat="42.84511528" lon="13.63737833">
        <ele>104.00000</ele>
        <time>2024-02-16T11:58:06Z</time>
      </trkpt>
      <trkpt lat="42.84511889" lon="13.63727951">
        <ele>104.00000</ele>
        <time>2024-02-16T11:58:07Z</time>
      </trkpt>
      <trkpt lat="42.84512308" lon="13.63718010">
        <ele>104.00000</ele>
        <time>2024-02-16T11:58:08Z</time>
      </trkpt>
      <trkpt lat="42.84512769" lon="13.63708220">
        <ele>104.00000</ele>
        <time>2024-02-16T11:58:09Z</time>
      </trkpt>
      <trkpt lat="42.84513263" lon="13.63698405">
        <ele>104.00000</ele>
        <time>2024-02-16T11:58:10Z</time>
      </trkpt>
      <trkpt lat="42.84513674" lon="13.63688472">
        <ele>104.00000</ele>
        <time>2024-02-16T11:58:11Z</time>
      </trkpt>
      <trkpt lat="42.84514244" lon="13.63678858">
        <ele>104.00000</ele>
        <time>2024-02-16T11:58:12Z</time>
      </trkpt>
      <trkpt lat="42.84514806" lon="13.63669118">
        <ele>104.00000</ele>
        <time>2024-02-16T11:58:13Z</time>
      </trkpt>
      <trkpt lat="42.84515376" lon="13.63659362">
        <ele>105.00000</ele>
        <time>2024-02-16T11:58:14Z</time>
      </trkpt>
      <trkpt lat="42.84515820" lon="13.63649597">
        <ele>105.00000</ele>
        <time>2024-02-16T11:58:15Z</time>
      </trkpt>
      <trkpt lat="42.84516314" lon="13.63639773">
        <ele>105.00000</ele>
        <time>2024-02-16T11:58:16Z</time>
      </trkpt>
      <trkpt lat="42.84516868" lon="13.63629925">
        <ele>105.00000</ele>
        <time>2024-02-16T11:58:17Z</time>
      </trkpt>
      <trkpt lat="42.84517572" lon="13.63619891">
        <ele>106.00000</ele>
        <time>2024-02-16T11:58:18Z</time>
      </trkpt>
      <trkpt lat="42.84518133" lon="13.63610043">
        <ele>107.00000</ele>
        <time>2024-02-16T11:58:19Z</time>
      </trkpt>
      <trkpt lat="42.84518762" lon="13.63599959">
        <ele>107.00000</ele>
        <time>2024-02-16T11:58:20Z</time>
      </trkpt>
      <trkpt lat="42.84519324" lon="13.63589876">
        <ele>107.00000</ele>
        <time>2024-02-16T11:58:21Z</time>
      </trkpt>
      <trkpt lat="42.84520111" lon="13.63579818">
        <ele>107.00000</ele>
        <time>2024-02-16T11:58:22Z</time>
      </trkpt>
      <trkpt lat="42.84520589" lon="13.63569893">
        <ele>107.00000</ele>
        <time>2024-02-16T11:58:23Z</time>
      </trkpt>
      <trkpt lat="42.84520958" lon="13.63560137">
        <ele>107.00000</ele>
        <time>2024-02-16T11:58:24Z</time>
      </trkpt>
      <trkpt lat="42.84521327" lon="13.63552300">
        <ele>107.00000</ele>
        <time>2024-02-16T11:58:25Z</time>
      </trkpt>
      <trkpt lat="42.84521570" lon="13.63542476">
        <ele>106.00000</ele>
        <time>2024-02-16T11:58:26Z</time>
      </trkpt>
      <trkpt lat="42.84522115" lon="13.63532535">
        <ele>106.00000</ele>
        <time>2024-02-16T11:58:27Z</time>
      </trkpt>
      <trkpt lat="42.84522509" lon="13.63522594">
        <ele>106.00000</ele>
        <time>2024-02-16T11:58:28Z</time>
      </trkpt>
      <trkpt lat="42.84522819" lon="13.63512771">
        <ele>106.00000</ele>
        <time>2024-02-16T11:58:29Z</time>
      </trkpt>
      <trkpt lat="42.84522919" lon="13.63502989">
        <ele>106.00000</ele>
        <time>2024-02-16T11:58:30Z</time>
      </trkpt>
      <trkpt lat="42.84522970" lon="13.63493341">
        <ele>106.00000</ele>
        <time>2024-02-16T11:58:31Z</time>
      </trkpt>
      <trkpt lat="42.84522878" lon="13.63483744">
        <ele>106.00000</ele>
        <time>2024-02-16T11:58:32Z</time>
      </trkpt>
      <trkpt lat="42.84522903" lon="13.63473887">
        <ele>107.00000</ele>
        <time>2024-02-16T11:58:33Z</time>
      </trkpt>
      <trkpt lat="42.84522718" lon="13.63464055">
        <ele>107.00000</ele>
        <time>2024-02-16T11:58:34Z</time>
      </trkpt>
      <trkpt lat="42.84522232" lon="13.63454097">
        <ele>107.00000</ele>
        <time>2024-02-16T11:58:35Z</time>
      </trkpt>
      <trkpt lat="42.84521629" lon="13.63444031">
        <ele>107.00000</ele>
        <time>2024-02-16T11:58:36Z</time>
      </trkpt>
      <trkpt lat="42.84521017" lon="13.63434157">
        <ele>107.00000</ele>
        <time>2024-02-16T11:58:37Z</time>
      </trkpt>
      <trkpt lat="42.84519986" lon="13.63424191">
        <ele>106.00000</ele>
        <time>2024-02-16T11:58:38Z</time>
      </trkpt>
      <trkpt lat="42.84518921" lon="13.63414149">
        <ele>106.00000</ele>
        <time>2024-02-16T11:58:39Z</time>
      </trkpt>
      <trkpt lat="42.84517991" lon="13.63403881">
        <ele>106.00000</ele>
        <time>2024-02-16T11:58:40Z</time>
      </trkpt>
      <trkpt lat="42.84516692" lon="13.63393706">
        <ele>105.00000</ele>
        <time>2024-02-16T11:58:41Z</time>
      </trkpt>
      <trkpt lat="42.84515527" lon="13.63383639">
        <ele>105.00000</ele>
        <time>2024-02-16T11:58:42Z</time>
      </trkpt>
      <trkpt lat="42.84514177" lon="13.63373799">
        <ele>105.00000</ele>
        <time>2024-02-16T11:58:43Z</time>
      </trkpt>
      <trkpt lat="42.84512517" lon="13.63364134">
        <ele>105.00000</ele>
        <time>2024-02-16T11:58:44Z</time>
      </trkpt>
      <trkpt lat="42.84510548" lon="13.63354202">
        <ele>105.00000</ele>
        <time>2024-02-16T11:58:45Z</time>
      </trkpt>
      <trkpt lat="42.84508712" lon="13.63344177">
        <ele>104.00000</ele>
        <time>2024-02-16T11:58:46Z</time>
      </trkpt>
      <trkpt lat="42.84506994" lon="13.63333976">
        <ele>104.00000</ele>
        <time>2024-02-16T11:58:47Z</time>
      </trkpt>
      <trkpt lat="42.84505217" lon="13.63323708">
        <ele>104.00000</ele>
        <time>2024-02-16T11:58:48Z</time>
      </trkpt>
      <trkpt lat="42.84503532" lon="13.63313441">
        <ele>104.00000</ele>
        <time>2024-02-16T11:58:49Z</time>
      </trkpt>
      <trkpt lat="42.84501789" lon="13.63303030">
        <ele>105.00000</ele>
        <time>2024-02-16T11:58:50Z</time>
      </trkpt>
      <trkpt lat="42.84500028" lon="13.63292763">
        <ele>105.00000</ele>
        <time>2024-02-16T11:58:51Z</time>
      </trkpt>
      <trkpt lat="42.84498210" lon="13.63282520">
        <ele>105.00000</ele>
        <time>2024-02-16T11:58:52Z</time>
      </trkpt>
      <trkpt lat="42.84496282" lon="13.63272545">
        <ele>106.00000</ele>
        <time>2024-02-16T11:58:53Z</time>
      </trkpt>
      <trkpt lat="42.84494320" lon="13.63262286">
        <ele>106.00000</ele>
        <time>2024-02-16T11:58:54Z</time>
      </trkpt>
      <trkpt lat="42.84492636" lon="13.63252018">
        <ele>107.00000</ele>
        <time>2024-02-16T11:58:55Z</time>
      </trkpt>
      <trkpt lat="42.84490733" lon="13.63241851">
        <ele>107.00000</ele>
        <time>2024-02-16T11:58:56Z</time>
      </trkpt>
      <trkpt lat="42.84488772" lon="13.63231608">
        <ele>107.00000</ele>
        <time>2024-02-16T11:58:57Z</time>
      </trkpt>
      <trkpt lat="42.84486810" lon="13.63221500">
        <ele>107.00000</ele>
        <time>2024-02-16T11:58:58Z</time>
      </trkpt>
      <trkpt lat="42.84484949" lon="13.63211559">
        <ele>108.00000</ele>
        <time>2024-02-16T11:58:59Z</time>
      </trkpt>
      <trkpt lat="42.84483273" lon="13.63201718">
        <ele>108.00000</ele>
        <time>2024-02-16T11:59:00Z</time>
      </trkpt>
      <trkpt lat="42.84481781" lon="13.63191610">
        <ele>109.00000</ele>
        <time>2024-02-16T11:59:01Z</time>
      </trkpt>
      <trkpt lat="42.84480163" lon="13.63181317">
        <ele>109.00000</ele>
        <time>2024-02-16T11:59:02Z</time>
      </trkpt>
      <trkpt lat="42.84478546" lon="13.63171133">
        <ele>109.00000</ele>
        <time>2024-02-16T11:59:03Z</time>
      </trkpt>
      <trkpt lat="42.84477054" lon="13.63161175">
        <ele>109.00000</ele>
        <time>2024-02-16T11:59:04Z</time>
      </trkpt>
      <trkpt lat="42.84475419" lon="13.63151058">
        <ele>109.00000</ele>
        <time>2024-02-16T11:59:05Z</time>
      </trkpt>
      <trkpt lat="42.84473776" lon="13.63141050">
        <ele>109.00000</ele>
        <time>2024-02-16T11:59:06Z</time>
      </trkpt>
      <trkpt lat="42.84472050" lon="13.63131335">
        <ele>109.00000</ele>
        <time>2024-02-16T11:59:07Z</time>
      </trkpt>
      <trkpt lat="42.84470482" lon="13.63121453">
        <ele>109.00000</ele>
        <time>2024-02-16T11:59:08Z</time>
      </trkpt>
      <trkpt lat="42.84468940" lon="13.63111563">
        <ele>109.00000</ele>
        <time>2024-02-16T11:59:09Z</time>
      </trkpt>
      <trkpt lat="42.84467557" lon="13.63101630">
        <ele>109.00000</ele>
        <time>2024-02-16T11:59:10Z</time>
      </trkpt>
      <trkpt lat="42.84466199" lon="13.63091496">
        <ele>109.00000</ele>
        <time>2024-02-16T11:59:11Z</time>
      </trkpt>
      <trkpt lat="42.84464732" lon="13.63081480">
        <ele>109.00000</ele>
        <time>2024-02-16T11:59:12Z</time>
      </trkpt>
      <trkpt lat="42.84463073" lon="13.63071790">
        <ele>109.00000</ele>
        <time>2024-02-16T11:59:13Z</time>
      </trkpt>
      <trkpt lat="42.84461405" lon="13.63062126">
        <ele>109.00000</ele>
        <time>2024-02-16T11:59:14Z</time>
      </trkpt>
      <trkpt lat="42.84459938" lon="13.63052194">
        <ele>109.00000</ele>
        <time>2024-02-16T11:59:15Z</time>
      </trkpt>
      <trkpt lat="42.84458354" lon="13.63042387">
        <ele>109.00000</ele>
        <time>2024-02-16T11:59:16Z</time>
      </trkpt>
      <trkpt lat="42.84456585" lon="13.63032488">
        <ele>109.00000</ele>
        <time>2024-02-16T11:59:17Z</time>
      </trkpt>
      <trkpt lat="42.84454858" lon="13.63022446">
        <ele>109.00000</ele>
        <time>2024-02-16T11:59:18Z</time>
      </trkpt>
      <trkpt lat="42.84453157" lon="13.63012329">
        <ele>109.00000</ele>
        <time>2024-02-16T11:59:19Z</time>
      </trkpt>
      <trkpt lat="42.84451648" lon="13.63002095">
        <ele>109.00000</ele>
        <time>2024-02-16T11:59:20Z</time>
      </trkpt>
      <trkpt lat="42.84450123" lon="13.62992003">
        <ele>108.00000</ele>
        <time>2024-02-16T11:59:21Z</time>
      </trkpt>
      <trkpt lat="42.84448103" lon="13.62982163">
        <ele>108.00000</ele>
        <time>2024-02-16T11:59:22Z</time>
      </trkpt>
      <trkpt lat="42.84446217" lon="13.62972222">
        <ele>108.00000</ele>
        <time>2024-02-16T11:59:23Z</time>
      </trkpt>
      <trkpt lat="42.84444431" lon="13.62961912">
        <ele>107.00000</ele>
        <time>2024-02-16T11:59:24Z</time>
      </trkpt>
      <trkpt lat="42.84442830" lon="13.62951770">
        <ele>107.00000</ele>
        <time>2024-02-16T11:59:25Z</time>
      </trkpt>
      <trkpt lat="42.84441380" lon="13.62941485">
        <ele>107.00000</ele>
        <time>2024-02-16T11:59:26Z</time>
      </trkpt>
      <trkpt lat="42.84439947" lon="13.62931394">
        <ele>108.00000</ele>
        <time>2024-02-16T11:59:27Z</time>
      </trkpt>
      <trkpt lat="42.84438438" lon="13.62921109">
        <ele>108.00000</ele>
        <time>2024-02-16T11:59:28Z</time>
      </trkpt>
      <trkpt lat="42.84436753" lon="13.62910858">
        <ele>109.00000</ele>
        <time>2024-02-16T11:59:29Z</time>
      </trkpt>
      <trkpt lat="42.84435027" lon="13.62900741">
        <ele>111.00000</ele>
        <time>2024-02-16T11:59:30Z</time>
      </trkpt>
      <trkpt lat="42.84433552" lon="13.62890674">
        <ele>112.00000</ele>
        <time>2024-02-16T11:59:31Z</time>
      </trkpt>
      <trkpt lat="42.84432261" lon="13.62880415">
        <ele>112.00000</ele>
        <time>2024-02-16T11:59:32Z</time>
      </trkpt>
      <trkpt lat="42.84430920" lon="13.62870390">
        <ele>113.00000</ele>
        <time>2024-02-16T11:59:33Z</time>
      </trkpt>
      <trkpt lat="42.84429411" lon="13.62860558">
        <ele>113.00000</ele>
        <time>2024-02-16T11:59:34Z</time>
      </trkpt>
      <trkpt lat="42.84428380" lon="13.62850324">
        <ele>113.00000</ele>
        <time>2024-02-16T11:59:35Z</time>
      </trkpt>
      <trkpt lat="42.84427181" lon="13.62840366">
        <ele>113.00000</ele>
        <time>2024-02-16T11:59:36Z</time>
      </trkpt>
      <trkpt lat="42.84426234" lon="13.62829729">
        <ele>112.00000</ele>
        <time>2024-02-16T11:59:37Z</time>
      </trkpt>
      <trkpt lat="42.84425337" lon="13.62819319">
        <ele>112.00000</ele>
        <time>2024-02-16T11:59:38Z</time>
      </trkpt>
      <trkpt lat="42.84424466" lon="13.62808791">
        <ele>111.00000</ele>
        <time>2024-02-16T11:59:39Z</time>
      </trkpt>
      <trkpt lat="42.84423544" lon="13.62798431">
        <ele>111.00000</ele>
        <time>2024-02-16T11:59:40Z</time>
      </trkpt>
      <trkpt lat="42.84422806" lon="13.62788046">
        <ele>111.00000</ele>
        <time>2024-02-16T11:59:41Z</time>
      </trkpt>
      <trkpt lat="42.84422161" lon="13.62777946">
        <ele>112.00000</ele>
        <time>2024-02-16T11:59:42Z</time>
      </trkpt>
      <trkpt lat="42.84421624" lon="13.62767837">
        <ele>112.00000</ele>
        <time>2024-02-16T11:59:43Z</time>
      </trkpt>
      <trkpt lat="42.84421012" lon="13.62757494">
        <ele>112.00000</ele>
        <time>2024-02-16T11:59:44Z</time>
      </trkpt>
      <trkpt lat="42.84420526" lon="13.62747293">
        <ele>112.00000</ele>
        <time>2024-02-16T11:59:45Z</time>
      </trkpt>
      <trkpt lat="42.84420048" lon="13.62737084">
        <ele>112.00000</ele>
        <time>2024-02-16T11:59:46Z</time>
      </trkpt>
      <trkpt lat="42.84419269" lon="13.62727009">
        <ele>112.00000</ele>
        <time>2024-02-16T11:59:47Z</time>
      </trkpt>
      <trkpt lat="42.84418514" lon="13.62716867">
        <ele>111.00000</ele>
        <time>2024-02-16T11:59:48Z</time>
      </trkpt>
      <trkpt lat="42.84417903" lon="13.62706717">
        <ele>111.00000</ele>
        <time>2024-02-16T11:59:49Z</time>
      </trkpt>
      <trkpt lat="42.84417391" lon="13.62696491">
        <ele>111.00000</ele>
        <time>2024-02-16T11:59:50Z</time>
      </trkpt>
      <trkpt lat="42.84416587" lon="13.62686189">
        <ele>110.00000</ele>
        <time>2024-02-16T11:59:51Z</time>
      </trkpt>
      <trkpt lat="42.84416033" lon="13.62675854">
        <ele>110.00000</ele>
        <time>2024-02-16T11:59:52Z</time>
      </trkpt>
      <trkpt lat="42.84415598" lon="13.62665427">
        <ele>110.00000</ele>
        <time>2024-02-16T11:59:53Z</time>
      </trkpt>
      <trkpt lat="42.84415271" lon="13.62655009">
        <ele>109.00000</ele>
        <time>2024-02-16T11:59:54Z</time>
      </trkpt>
      <trkpt lat="42.84415170" lon="13.62644858">
        <ele>109.00000</ele>
        <time>2024-02-16T11:59:55Z</time>
      </trkpt>
      <trkpt lat="42.84414868" lon="13.62634574">
        <ele>109.00000</ele>
        <time>2024-02-16T11:59:56Z</time>
      </trkpt>
      <trkpt lat="42.84414265" lon="13.62624197">
        <ele>109.00000</ele>
        <time>2024-02-16T11:59:57Z</time>
      </trkpt>
      <trkpt lat="42.84413728" lon="13.62614004">
        <ele>109.00000</ele>
        <time>2024-02-16T11:59:58Z</time>
      </trkpt>
      <trkpt lat="42.84412689" lon="13.62604130">
        <ele>109.00000</ele>
        <time>2024-02-16T11:59:59Z</time>
      </trkpt>
      <trkpt lat="42.84411767" lon="13.62594315">
        <ele>109.00000</ele>
        <time>2024-02-16T12:00:00Z</time>
      </trkpt>
      <trkpt lat="42.84410828" lon="13.62584467">
        <ele>110.00000</ele>
        <time>2024-02-16T12:00:01Z</time>
      </trkpt>
      <trkpt lat="42.84410258" lon="13.62574794">
        <ele>110.00000</ele>
        <time>2024-02-16T12:00:02Z</time>
      </trkpt>
      <trkpt lat="42.84409998" lon="13.62565431">
        <ele>111.00000</ele>
        <time>2024-02-16T12:00:03Z</time>
      </trkpt>
      <trkpt lat="42.84409655" lon="13.62555960">
        <ele>111.00000</ele>
        <time>2024-02-16T12:00:04Z</time>
      </trkpt>
      <trkpt lat="42.84409085" lon="13.62546413">
        <ele>112.00000</ele>
        <time>2024-02-16T12:00:05Z</time>
      </trkpt>
      <trkpt lat="42.84408775" lon="13.62537017">
        <ele>112.00000</ele>
        <time>2024-02-16T12:00:06Z</time>
      </trkpt>
      <trkpt lat="42.84408615" lon="13.62527805">
        <ele>112.00000</ele>
        <time>2024-02-16T12:00:07Z</time>
      </trkpt>
      <trkpt lat="42.84408842" lon="13.62518660">
        <ele>112.00000</ele>
        <time>2024-02-16T12:00:08Z</time>
      </trkpt>
      <trkpt lat="42.84409772" lon="13.62509616">
        <ele>113.00000</ele>
        <time>2024-02-16T12:00:09Z</time>
      </trkpt>
      <trkpt lat="42.84411113" lon="13.62501092">
        <ele>113.00000</ele>
        <time>2024-02-16T12:00:10Z</time>
      </trkpt>
      <trkpt lat="42.84413125" lon="13.62492852">
        <ele>114.00000</ele>
        <time>2024-02-16T12:00:11Z</time>
      </trkpt>
      <trkpt lat="42.84416260" lon="13.62485317">
        <ele>114.00000</ele>
        <time>2024-02-16T12:00:12Z</time>
      </trkpt>
      <trkpt lat="42.84420291" lon="13.62478092">
        <ele>114.00000</ele>
        <time>2024-02-16T12:00:13Z</time>
      </trkpt>
      <trkpt lat="42.84424684" lon="13.62470984">
        <ele>114.00000</ele>
        <time>2024-02-16T12:00:14Z</time>
      </trkpt>
      <trkpt lat="42.84429067" lon="13.62463658">
        <ele>114.00000</ele>
        <time>2024-02-16T12:00:15Z</time>
      </trkpt>
      <trkpt lat="42.84432596" lon="13.62455779">
        <ele>114.00000</ele>
        <time>2024-02-16T12:00:16Z</time>
      </trkpt>
      <trkpt lat="42.84434985" lon="13.62447867">
        <ele>114.00000</ele>
        <time>2024-02-16T12:00:17Z</time>
      </trkpt>
      <trkpt lat="42.84435597" lon="13.62439887">
        <ele>114.00000</ele>
        <time>2024-02-16T12:00:18Z</time>
      </trkpt>
      <trkpt lat="42.84434314" lon="13.62431949">
        <ele>115.00000</ele>
        <time>2024-02-16T12:00:19Z</time>
      </trkpt>
      <trkpt lat="42.84430945" lon="13.62424657">
        <ele>115.00000</ele>
        <time>2024-02-16T12:00:20Z</time>
      </trkpt>
      <trkpt lat="42.84426553" lon="13.62418857">
        <ele>115.00000</ele>
        <time>2024-02-16T12:00:21Z</time>
      </trkpt>
      <trkpt lat="42.84421859" lon="13.62413509">
        <ele>115.00000</ele>
        <time>2024-02-16T12:00:22Z</time>
      </trkpt>
      <trkpt lat="42.84417115" lon="13.62407977">
        <ele>115.00000</ele>
        <time>2024-02-16T12:00:23Z</time>
      </trkpt>
      <trkpt lat="42.84412781" lon="13.62401364">
        <ele>115.00000</ele>
        <time>2024-02-16T12:00:24Z</time>
      </trkpt>
      <trkpt lat="42.84409571" lon="13.62393753">
        <ele>115.00000</ele>
        <time>2024-02-16T12:00:25Z</time>
      </trkpt>
      <trkpt lat="42.84407651" lon="13.62385807">
        <ele>115.00000</ele>
        <time>2024-02-16T12:00:26Z</time>
      </trkpt>
      <trkpt lat="42.84407023" lon="13.62377576">
        <ele>116.00000</ele>
        <time>2024-02-16T12:00:27Z</time>
      </trkpt>
      <trkpt lat="42.84407341" lon="13.62369420">
        <ele>116.00000</ele>
        <time>2024-02-16T12:00:28Z</time>
      </trkpt>
      <trkpt lat="42.84408263" lon="13.62361156">
        <ele>117.00000</ele>
        <time>2024-02-16T12:00:29Z</time>
      </trkpt>
      <trkpt lat="42.84409378" lon="13.62352615">
        <ele>117.00000</ele>
        <time>2024-02-16T12:00:30Z</time>
      </trkpt>
      <trkpt lat="42.84410635" lon="13.62343931">
        <ele>117.00000</ele>
        <time>2024-02-16T12:00:31Z</time>
      </trkpt>
      <trkpt lat="42.84412086" lon="13.62335155">
        <ele>117.00000</ele>
        <time>2024-02-16T12:00:32Z</time>
      </trkpt>
      <trkpt lat="42.84413301" lon="13.62326413">
        <ele>116.00000</ele>
        <time>2024-02-16T12:00:33Z</time>
      </trkpt>
      <trkpt lat="42.84414382" lon="13.62317604">
        <ele>116.00000</ele>
        <time>2024-02-16T12:00:34Z</time>
      </trkpt>
      <trkpt lat="42.84415832" lon="13.62308861">
        <ele>116.00000</ele>
        <time>2024-02-16T12:00:35Z</time>
      </trkpt>
      <trkpt lat="42.84417106" lon="13.62300161">
        <ele>117.00000</ele>
        <time>2024-02-16T12:00:36Z</time>
      </trkpt>
      <trkpt lat="42.84418129" lon="13.62291418">
        <ele>117.00000</ele>
        <time>2024-02-16T12:00:37Z</time>
      </trkpt>
      <trkpt lat="42.84419135" lon="13.62282458">
        <ele>117.00000</ele>
        <time>2024-02-16T12:00:38Z</time>
      </trkpt>
      <trkpt lat="42.84420191" lon="13.62273674">
        <ele>117.00000</ele>
        <time>2024-02-16T12:00:39Z</time>
      </trkpt>
      <trkpt lat="42.84421138" lon="13.62264881">
        <ele>117.00000</ele>
        <time>2024-02-16T12:00:40Z</time>
      </trkpt>
      <trkpt lat="42.84422378" lon="13.62256072">
        <ele>117.00000</ele>
        <time>2024-02-16T12:00:41Z</time>
      </trkpt>
      <trkpt lat="42.84423409" lon="13.62247187">
        <ele>117.00000</ele>
        <time>2024-02-16T12:00:42Z</time>
      </trkpt>
      <trkpt lat="42.84424114" lon="13.62238076">
        <ele>117.00000</ele>
        <time>2024-02-16T12:00:43Z</time>
      </trkpt>
      <trkpt lat="42.84425295" lon="13.62228848">
        <ele>117.00000</ele>
        <time>2024-02-16T12:00:44Z</time>
      </trkpt>
      <trkpt lat="42.84426075" lon="13.62219837">
        <ele>116.00000</ele>
        <time>2024-02-16T12:00:45Z</time>
      </trkpt>
      <trkpt lat="42.84427181" lon="13.62210927">
        <ele>116.00000</ele>
        <time>2024-02-16T12:00:46Z</time>
      </trkpt>
      <trkpt lat="42.84428397" lon="13.62201858">
        <ele>116.00000</ele>
        <time>2024-02-16T12:00:47Z</time>
      </trkpt>
      <trkpt lat="42.84429444" lon="13.62192604">
        <ele>116.00000</ele>
        <time>2024-02-16T12:00:48Z</time>
      </trkpt>
      <trkpt lat="42.84430978" lon="13.62183191">
        <ele>116.00000</ele>
        <time>2024-02-16T12:00:49Z</time>
      </trkpt>
      <trkpt lat="42.84432571" lon="13.62173619">
        <ele>116.00000</ele>
        <time>2024-02-16T12:00:50Z</time>
      </trkpt>
      <trkpt lat="42.84434147" lon="13.62163946">
        <ele>116.00000</ele>
        <time>2024-02-16T12:00:51Z</time>
      </trkpt>
      <trkpt lat="42.84435831" lon="13.62153980">
        <ele>117.00000</ele>
        <time>2024-02-16T12:00:52Z</time>
      </trkpt>
      <trkpt lat="42.84437516" lon="13.62143998">
        <ele>117.00000</ele>
        <time>2024-02-16T12:00:53Z</time>
      </trkpt>
      <trkpt lat="42.84439494" lon="13.62134107">
        <ele>117.00000</ele>
        <time>2024-02-16T12:00:54Z</time>
      </trkpt>
      <trkpt lat="42.84441674" lon="13.62123764">
        <ele>117.00000</ele>
        <time>2024-02-16T12:00:55Z</time>
      </trkpt>
      <trkpt lat="42.84443828" lon="13.62113236">
        <ele>117.00000</ele>
        <time>2024-02-16T12:00:56Z</time>
      </trkpt>
      <trkpt lat="42.84445798" lon="13.62102909">
        <ele>118.00000</ele>
        <time>2024-02-16T12:00:57Z</time>
      </trkpt>
      <trkpt lat="42.84447927" lon="13.62092323">
        <ele>118.00000</ele>
        <time>2024-02-16T12:00:58Z</time>
      </trkpt>
      <trkpt lat="42.84450324" lon="13.62081611">
        <ele>118.00000</ele>
        <time>2024-02-16T12:00:59Z</time>
      </trkpt>
      <trkpt lat="42.84452880" lon="13.62070731">
        <ele>118.00000</ele>
        <time>2024-02-16T12:01:00Z</time>
      </trkpt>
      <trkpt lat="42.84455403" lon="13.62059801">
        <ele>119.00000</ele>
        <time>2024-02-16T12:01:01Z</time>
      </trkpt>
      <trkpt lat="42.84457859" lon="13.62048712">
        <ele>119.00000</ele>
        <time>2024-02-16T12:01:02Z</time>
      </trkpt>
      <trkpt lat="42.84460474" lon="13.62037455">
        <ele>119.00000</ele>
        <time>2024-02-16T12:01:03Z</time>
      </trkpt>
      <trkpt lat="42.84463232" lon="13.62026332">
        <ele>119.00000</ele>
        <time>2024-02-16T12:01:04Z</time>
      </trkpt>
      <trkpt lat="42.84466275" lon="13.62015143">
        <ele>118.00000</ele>
        <time>2024-02-16T12:01:05Z</time>
      </trkpt>
      <trkpt lat="42.84469510" lon="13.62003802">
        <ele>118.00000</ele>
        <time>2024-02-16T12:01:06Z</time>
      </trkpt>
      <trkpt lat="42.84472838" lon="13.61992662">
        <ele>117.00000</ele>
        <time>2024-02-16T12:01:07Z</time>
      </trkpt>
      <trkpt lat="42.84476375" lon="13.61981816">
        <ele>117.00000</ele>
        <time>2024-02-16T12:01:08Z</time>
      </trkpt>
      <trkpt lat="42.84480147" lon="13.61971775">
        <ele>116.00000</ele>
        <time>2024-02-16T12:01:09Z</time>
      </trkpt>
      <trkpt lat="42.84483575" lon="13.61963870">
        <ele>116.00000</ele>
        <time>2024-02-16T12:01:10Z</time>
      </trkpt>
      <trkpt lat="42.84486668" lon="13.61957886">
        <ele>116.00000</ele>
        <time>2024-02-16T12:01:11Z</time>
      </trkpt>
      <trkpt lat="42.84489844" lon="13.61952463">
        <ele>116.00000</ele>
        <time>2024-02-16T12:01:12Z</time>
      </trkpt>
      <trkpt lat="42.84493516" lon="13.61946453">
        <ele>115.00000</ele>
        <time>2024-02-16T12:01:13Z</time>
      </trkpt>
      <trkpt lat="42.84496977" lon="13.61939177">
        <ele>115.00000</ele>
        <time>2024-02-16T12:01:14Z</time>
      </trkpt>
      <trkpt lat="42.84499534" lon="13.61930938">
        <ele>115.00000</ele>
        <time>2024-02-16T12:01:15Z</time>
      </trkpt>
      <trkpt lat="42.84500950" lon="13.61922036">
        <ele>115.00000</ele>
        <time>2024-02-16T12:01:16Z</time>
      </trkpt>
      <trkpt lat="42.84502266" lon="13.61912414">
        <ele>114.00000</ele>
        <time>2024-02-16T12:01:17Z</time>
      </trkpt>
      <trkpt lat="42.84503725" lon="13.61902674">
        <ele>114.00000</ele>
        <time>2024-02-16T12:01:18Z</time>
      </trkpt>
      <trkpt lat="42.84505686" lon="13.61892800">
        <ele>113.00000</ele>
        <time>2024-02-16T12:01:19Z</time>
      </trkpt>
      <trkpt lat="42.84508511" lon="13.61883044">
        <ele>113.00000</ele>
        <time>2024-02-16T12:01:20Z</time>
      </trkpt>
      <trkpt lat="42.84511688" lon="13.61873128">
        <ele>113.00000</ele>
        <time>2024-02-16T12:01:21Z</time>
      </trkpt>
      <trkpt lat="42.84514973" lon="13.61863229">
        <ele>113.00000</ele>
        <time>2024-02-16T12:01:22Z</time>
      </trkpt>
      <trkpt lat="42.84518284" lon="13.61853355">
        <ele>113.00000</ele>
        <time>2024-02-16T12:01:23Z</time>
      </trkpt>
      <trkpt lat="42.84521335" lon="13.61843624">
        <ele>112.00000</ele>
        <time>2024-02-16T12:01:24Z</time>
      </trkpt>
      <trkpt lat="42.84524462" lon="13.61833775">
        <ele>112.00000</ele>
        <time>2024-02-16T12:01:25Z</time>
      </trkpt>
      <trkpt lat="42.84527856" lon="13.61823909">
        <ele>112.00000</ele>
        <time>2024-02-16T12:01:26Z</time>
      </trkpt>
      <trkpt lat="42.84531243" lon="13.61814069">
        <ele>111.00000</ele>
        <time>2024-02-16T12:01:27Z</time>
      </trkpt>
      <trkpt lat="42.84534302" lon="13.61804145">
        <ele>111.00000</ele>
        <time>2024-02-16T12:01:28Z</time>
      </trkpt>
      <trkpt lat="42.84537244" lon="13.61794196">
        <ele>110.00000</ele>
        <time>2024-02-16T12:01:29Z</time>
      </trkpt>
      <trkpt lat="42.84540471" lon="13.61784196">
        <ele>110.00000</ele>
        <time>2024-02-16T12:01:30Z</time>
      </trkpt>
      <trkpt lat="42.84543648" lon="13.61774154">
        <ele>110.00000</ele>
        <time>2024-02-16T12:01:31Z</time>
      </trkpt>
      <trkpt lat="42.84546540" lon="13.61764188">
        <ele>111.00000</ele>
        <time>2024-02-16T12:01:32Z</time>
      </trkpt>
      <trkpt lat="42.84549071" lon="13.61754138">
        <ele>111.00000</ele>
        <time>2024-02-16T12:01:33Z</time>
      </trkpt>
      <trkpt lat="42.84551393" lon="13.61743653">
        <ele>112.00000</ele>
        <time>2024-02-16T12:01:34Z</time>
      </trkpt>
      <trkpt lat="42.84553128" lon="13.61732807">
        <ele>113.00000</ele>
        <time>2024-02-16T12:01:35Z</time>
      </trkpt>
      <trkpt lat="42.84554041" lon="13.61721818">
        <ele>113.00000</ele>
        <time>2024-02-16T12:01:36Z</time>
      </trkpt>
      <trkpt lat="42.84554737" lon="13.61710678">
        <ele>114.00000</ele>
        <time>2024-02-16T12:01:37Z</time>
      </trkpt>
      <trkpt lat="42.84555106" lon="13.61699564">
        <ele>114.00000</ele>
        <time>2024-02-16T12:01:38Z</time>
      </trkpt>
      <trkpt lat="42.84555315" lon="13.61688533">
        <ele>115.00000</ele>
        <time>2024-02-16T12:01:39Z</time>
      </trkpt>
      <trkpt lat="42.84555450" lon="13.61677763">
        <ele>115.00000</ele>
        <time>2024-02-16T12:01:40Z</time>
      </trkpt>
      <trkpt lat="42.84555341" lon="13.61666807">
        <ele>116.00000</ele>
        <time>2024-02-16T12:01:41Z</time>
      </trkpt>
      <trkpt lat="42.84555726" lon="13.61656079">
        <ele>116.00000</ele>
        <time>2024-02-16T12:01:42Z</time>
      </trkpt>
      <trkpt lat="42.84556506" lon="13.61645358">
        <ele>116.00000</ele>
        <time>2024-02-16T12:01:43Z</time>
      </trkpt>
      <trkpt lat="42.84557905" lon="13.61634738">
        <ele>116.00000</ele>
        <time>2024-02-16T12:01:44Z</time>
      </trkpt>
      <trkpt lat="42.84559833" lon="13.61624261">
        <ele>116.00000</ele>
        <time>2024-02-16T12:01:45Z</time>
      </trkpt>
      <trkpt lat="42.84562214" lon="13.61614018">
        <ele>116.00000</ele>
        <time>2024-02-16T12:01:46Z</time>
      </trkpt>
      <trkpt lat="42.84564804" lon="13.61604128">
        <ele>116.00000</ele>
        <time>2024-02-16T12:01:47Z</time>
      </trkpt>
      <trkpt lat="42.84567955" lon="13.61594363">
        <ele>116.00000</ele>
        <time>2024-02-16T12:01:48Z</time>
      </trkpt>
      <trkpt lat="42.84571643" lon="13.61582611">
        <ele>116.00000</ele>
        <time>2024-02-16T12:01:49Z</time>
      </trkpt>
      <trkpt lat="42.84574267" lon="13.61574992">
        <ele>116.00000</ele>
        <time>2024-02-16T12:01:50Z</time>
      </trkpt>
      <trkpt lat="42.84577963" lon="13.61565613">
        <ele>116.00000</ele>
        <time>2024-02-16T12:01:51Z</time>
      </trkpt>
      <trkpt lat="42.84581920" lon="13.61556351">
        <ele>116.00000</ele>
        <time>2024-02-16T12:01:52Z</time>
      </trkpt>
      <trkpt lat="42.84585884" lon="13.61547181">
        <ele>116.00000</ele>
        <time>2024-02-16T12:01:53Z</time>
      </trkpt>
      <trkpt lat="42.84589782" lon="13.61538087">
        <ele>116.00000</ele>
        <time>2024-02-16T12:01:54Z</time>
      </trkpt>
      <trkpt lat="42.84593529" lon="13.61528850">
        <ele>116.00000</ele>
        <time>2024-02-16T12:01:55Z</time>
      </trkpt>
      <trkpt lat="42.84597108" lon="13.61519537">
        <ele>117.00000</ele>
        <time>2024-02-16T12:01:56Z</time>
      </trkpt>
      <trkpt lat="42.84600930" lon="13.61510267">
        <ele>117.00000</ele>
        <time>2024-02-16T12:01:57Z</time>
      </trkpt>
      <trkpt lat="42.84604651" lon="13.61501039">
        <ele>117.00000</ele>
        <time>2024-02-16T12:01:58Z</time>
      </trkpt>
      <trkpt lat="42.84608214" lon="13.61491802">
        <ele>116.00000</ele>
        <time>2024-02-16T12:01:59Z</time>
      </trkpt>
      <trkpt lat="42.84611969" lon="13.61482699">
        <ele>116.00000</ele>
        <time>2024-02-16T12:02:00Z</time>
      </trkpt>
      <trkpt lat="42.84615900" lon="13.61473822">
        <ele>116.00000</ele>
        <time>2024-02-16T12:02:01Z</time>
      </trkpt>
      <trkpt lat="42.84619764" lon="13.61464804">
        <ele>116.00000</ele>
        <time>2024-02-16T12:02:02Z</time>
      </trkpt>
      <trkpt lat="42.84623502" lon="13.61455810">
        <ele>116.00000</ele>
        <time>2024-02-16T12:02:03Z</time>
      </trkpt>
      <trkpt lat="42.84627031" lon="13.61446900">
        <ele>117.00000</ele>
        <time>2024-02-16T12:02:04Z</time>
      </trkpt>
      <trkpt lat="42.84630568" lon="13.61437680">
        <ele>117.00000</ele>
        <time>2024-02-16T12:02:05Z</time>
      </trkpt>
      <trkpt lat="42.84634198" lon="13.61428686">
        <ele>117.00000</ele>
        <time>2024-02-16T12:02:06Z</time>
      </trkpt>
      <trkpt lat="42.84637919" lon="13.61419709">
        <ele>117.00000</ele>
        <time>2024-02-16T12:02:07Z</time>
      </trkpt>
      <trkpt lat="42.84641616" lon="13.61410615">
        <ele>118.00000</ele>
        <time>2024-02-16T12:02:08Z</time>
      </trkpt>
      <trkpt lat="42.84644993" lon="13.61401445">
        <ele>118.00000</ele>
        <time>2024-02-16T12:02:09Z</time>
      </trkpt>
      <trkpt lat="42.84648262" lon="13.61392241">
        <ele>118.00000</ele>
        <time>2024-02-16T12:02:10Z</time>
      </trkpt>
      <trkpt lat="42.84651841" lon="13.61382879">
        <ele>118.00000</ele>
        <time>2024-02-16T12:02:11Z</time>
      </trkpt>
      <trkpt lat="42.84655513" lon="13.61373441">
        <ele>118.00000</ele>
        <time>2024-02-16T12:02:12Z</time>
      </trkpt>
      <trkpt lat="42.84659209" lon="13.61364145">
        <ele>118.00000</ele>
        <time>2024-02-16T12:02:13Z</time>
      </trkpt>
      <trkpt lat="42.84663082" lon="13.61354724">
        <ele>119.00000</ele>
        <time>2024-02-16T12:02:14Z</time>
      </trkpt>
      <trkpt lat="42.84666820" lon="13.61345135">
        <ele>118.00000</ele>
        <time>2024-02-16T12:02:15Z</time>
      </trkpt>
      <trkpt lat="42.84670273" lon="13.61335379">
        <ele>118.00000</ele>
        <time>2024-02-16T12:02:16Z</time>
      </trkpt>
      <trkpt lat="42.84673308" lon="13.61325589">
        <ele>119.00000</ele>
        <time>2024-02-16T12:02:17Z</time>
      </trkpt>
      <trkpt lat="42.84676082" lon="13.61315866">
        <ele>119.00000</ele>
        <time>2024-02-16T12:02:18Z</time>
      </trkpt>
      <trkpt lat="42.84679292" lon="13.61306235">
        <ele>119.00000</ele>
        <time>2024-02-16T12:02:19Z</time>
      </trkpt>
      <trkpt lat="42.84682678" lon="13.61296243">
        <ele>118.00000</ele>
        <time>2024-02-16T12:02:20Z</time>
      </trkpt>
      <trkpt lat="42.84686224" lon="13.61286604">
        <ele>117.00000</ele>
        <time>2024-02-16T12:02:21Z</time>
      </trkpt>
      <trkpt lat="42.84689761" lon="13.61277108">
        <ele>117.00000</ele>
        <time>2024-02-16T12:02:22Z</time>
      </trkpt>
      <trkpt lat="42.84693231" lon="13.61267494">
        <ele>116.00000</ele>
        <time>2024-02-16T12:02:23Z</time>
      </trkpt>
      <trkpt lat="42.84696450" lon="13.61257980">
        <ele>116.00000</ele>
        <time>2024-02-16T12:02:24Z</time>
      </trkpt>
      <trkpt lat="42.84699543" lon="13.61248265">
        <ele>116.00000</ele>
        <time>2024-02-16T12:02:25Z</time>
      </trkpt>
      <trkpt lat="42.84702560" lon="13.61238643">
        <ele>116.00000</ele>
        <time>2024-02-16T12:02:26Z</time>
      </trkpt>
      <trkpt lat="42.84705326" lon="13.61228970">
        <ele>116.00000</ele>
        <time>2024-02-16T12:02:27Z</time>
      </trkpt>
      <trkpt lat="42.84708151" lon="13.61219381">
        <ele>117.00000</ele>
        <time>2024-02-16T12:02:28Z</time>
      </trkpt>
      <trkpt lat="42.84711177" lon="13.61209876">
        <ele>117.00000</ele>
        <time>2024-02-16T12:02:29Z</time>
      </trkpt>
      <trkpt lat="42.84714253" lon="13.61200438">
        <ele>117.00000</ele>
        <time>2024-02-16T12:02:30Z</time>
      </trkpt>
      <trkpt lat="42.84717371" lon="13.61191092">
        <ele>117.00000</ele>
        <time>2024-02-16T12:02:31Z</time>
      </trkpt>
      <trkpt lat="42.84720523" lon="13.61181621">
        <ele>117.00000</ele>
        <time>2024-02-16T12:02:32Z</time>
      </trkpt>
      <trkpt lat="42.84723540" lon="13.61172166">
        <ele>118.00000</ele>
        <time>2024-02-16T12:02:33Z</time>
      </trkpt>
      <trkpt lat="42.84726549" lon="13.61162804">
        <ele>118.00000</ele>
        <time>2024-02-16T12:02:34Z</time>
      </trkpt>
      <trkpt lat="42.84729148" lon="13.61153340">
        <ele>118.00000</ele>
        <time>2024-02-16T12:02:35Z</time>
      </trkpt>
      <trkpt lat="42.84731931" lon="13.61144028">
        <ele>118.00000</ele>
        <time>2024-02-16T12:02:36Z</time>
      </trkpt>
      <trkpt lat="42.84734982" lon="13.61134934">
        <ele>118.00000</ele>
        <time>2024-02-16T12:02:37Z</time>
      </trkpt>
      <trkpt lat="42.84738535" lon="13.61126384">
        <ele>118.00000</ele>
        <time>2024-02-16T12:02:38Z</time>
      </trkpt>
      <trkpt lat="42.84743322" lon="13.61118866">
        <ele>118.00000</ele>
        <time>2024-02-16T12:02:39Z</time>
      </trkpt>
      <trkpt lat="42.84748468" lon="13.61111707">
        <ele>118.00000</ele>
        <time>2024-02-16T12:02:40Z</time>
      </trkpt>
      <trkpt lat="42.84753497" lon="13.61104642">
        <ele>116.00000</ele>
        <time>2024-02-16T12:02:41Z</time>
      </trkpt>
      <trkpt lat="42.84758459" lon="13.61097224">
        <ele>115.00000</ele>
        <time>2024-02-16T12:02:42Z</time>
      </trkpt>
      <trkpt lat="42.84762315" lon="13.61089278">
        <ele>114.00000</ele>
        <time>2024-02-16T12:02:43Z</time>
      </trkpt>
      <trkpt lat="42.84764913" lon="13.61080368">
        <ele>113.00000</ele>
        <time>2024-02-16T12:02:44Z</time>
      </trkpt>
      <trkpt lat="42.84765978" lon="13.61070368">
        <ele>113.00000</ele>
        <time>2024-02-16T12:02:45Z</time>
      </trkpt>
      <trkpt lat="42.84764779" lon="13.61060041">
        <ele>113.00000</ele>
        <time>2024-02-16T12:02:46Z</time>
      </trkpt>
      <trkpt lat="42.84760563" lon="13.61048759">
        <ele>114.00000</ele>
        <time>2024-02-16T12:02:47Z</time>
      </trkpt>
      <trkpt lat="42.84755241" lon="13.61042615">
        <ele>116.00000</ele>
        <time>2024-02-16T12:02:48Z</time>
      </trkpt>
      <trkpt lat="42.84747236" lon="13.61036706">
        <ele>117.00000</ele>
        <time>2024-02-16T12:02:49Z</time>
      </trkpt>
      <trkpt lat="42.84738628" lon="13.61032297">
        <ele>119.00000</ele>
        <time>2024-02-16T12:02:50Z</time>
      </trkpt>
      <trkpt lat="42.84730791" lon="13.61028450">
        <ele>120.00000</ele>
        <time>2024-02-16T12:02:51Z</time>
      </trkpt>
      <trkpt lat="42.84723364" lon="13.61024762">
        <ele>120.00000</ele>
        <time>2024-02-16T12:02:52Z</time>
      </trkpt>
      <trkpt lat="42.84716734" lon="13.61021384">
        <ele>121.00000</ele>
        <time>2024-02-16T12:02:53Z</time>
      </trkpt>
      <trkpt lat="42.84710372" lon="13.61017713">
        <ele>121.00000</ele>
        <time>2024-02-16T12:02:54Z</time>
      </trkpt>
      <trkpt lat="42.84705016" lon="13.61012650">
        <ele>121.00000</ele>
        <time>2024-02-16T12:02:55Z</time>
      </trkpt>
      <trkpt lat="42.84700079" lon="13.61006523">
        <ele>121.00000</ele>
        <time>2024-02-16T12:02:56Z</time>
      </trkpt>
      <trkpt lat="42.84696341" lon="13.60999851">
        <ele>121.00000</ele>
        <time>2024-02-16T12:02:57Z</time>
      </trkpt>
      <trkpt lat="42.84694095" lon="13.60992550">
        <ele>122.00000</ele>
        <time>2024-02-16T12:02:58Z</time>
      </trkpt>
      <trkpt lat="42.84693156" lon="13.60985929">
        <ele>122.00000</ele>
        <time>2024-02-16T12:02:59Z</time>
      </trkpt>
      <trkpt lat="42.84692879" lon="13.60977144">
        <ele>122.00000</ele>
        <time>2024-02-16T12:03:00Z</time>
      </trkpt>
      <trkpt lat="42.84694028" lon="13.60966843">
        <ele>123.00000</ele>
        <time>2024-02-16T12:03:01Z</time>
      </trkpt>
      <trkpt lat="42.84695838" lon="13.60958151">
        <ele>123.00000</ele>
        <time>2024-02-16T12:03:02Z</time>
      </trkpt>
      <trkpt lat="42.84697900" lon="13.60948805">
        <ele>123.00000</ele>
        <time>2024-02-16T12:03:03Z</time>
      </trkpt>
      <trkpt lat="42.84699778" lon="13.60939652">
        <ele>123.00000</ele>
        <time>2024-02-16T12:03:04Z</time>
      </trkpt>
      <trkpt lat="42.84701655" lon="13.60930625">
        <ele>123.00000</ele>
        <time>2024-02-16T12:03:05Z</time>
      </trkpt>
      <trkpt lat="42.84703801" lon="13.60921287">
        <ele>123.00000</ele>
        <time>2024-02-16T12:03:06Z</time>
      </trkpt>
      <trkpt lat="42.84705569" lon="13.60912059">
        <ele>123.00000</ele>
        <time>2024-02-16T12:03:07Z</time>
      </trkpt>
      <trkpt lat="42.84707455" lon="13.60902965">
        <ele>122.00000</ele>
        <time>2024-02-16T12:03:08Z</time>
      </trkpt>
      <trkpt lat="42.84709182" lon="13.60893988">
        <ele>122.00000</ele>
        <time>2024-02-16T12:03:09Z</time>
      </trkpt>
      <trkpt lat="42.84711110" lon="13.60885522">
        <ele>122.00000</ele>
        <time>2024-02-16T12:03:10Z</time>
      </trkpt>
      <trkpt lat="42.84713633" lon="13.60877123">
        <ele>122.00000</ele>
        <time>2024-02-16T12:03:11Z</time>
      </trkpt>
      <trkpt lat="42.84716122" lon="13.60868691">
        <ele>122.00000</ele>
        <time>2024-02-16T12:03:12Z</time>
      </trkpt>
      <trkpt lat="42.84718352" lon="13.60859831">
        <ele>122.00000</ele>
        <time>2024-02-16T12:03:13Z</time>
      </trkpt>
      <trkpt lat="42.84720959" lon="13.60850770">
        <ele>122.00000</ele>
        <time>2024-02-16T12:03:14Z</time>
      </trkpt>
      <trkpt lat="42.84723607" lon="13.60842020">
        <ele>121.00000</ele>
        <time>2024-02-16T12:03:15Z</time>
      </trkpt>
      <trkpt lat="42.84725954" lon="13.60833445">
        <ele>121.00000</ele>
        <time>2024-02-16T12:03:16Z</time>
      </trkpt>
      <trkpt lat="42.84728117" lon="13.60824644">
        <ele>121.00000</ele>
        <time>2024-02-16T12:03:17Z</time>
      </trkpt>
      <trkpt lat="42.84730346" lon="13.60816086">
        <ele>121.00000</ele>
        <time>2024-02-16T12:03:18Z</time>
      </trkpt>
      <trkpt lat="42.84732165" lon="13.60809096">
        <ele>121.00000</ele>
        <time>2024-02-16T12:03:19Z</time>
      </trkpt>
      <trkpt lat="42.84734898" lon="13.60798375">
        <ele>121.00000</ele>
        <time>2024-02-16T12:03:20Z</time>
      </trkpt>
      <trkpt lat="42.84736859" lon="13.60791485">
        <ele>121.00000</ele>
        <time>2024-02-16T12:03:21Z</time>
      </trkpt>
      <trkpt lat="42.84739566" lon="13.60781167">
        <ele>121.00000</ele>
        <time>2024-02-16T12:03:22Z</time>
      </trkpt>
      <trkpt lat="42.84742081" lon="13.60772626">
        <ele>121.00000</ele>
        <time>2024-02-16T12:03:23Z</time>
      </trkpt>
      <trkpt lat="42.84743841" lon="13.60765862">
        <ele>121.00000</ele>
        <time>2024-02-16T12:03:24Z</time>
      </trkpt>
      <trkpt lat="42.84746901" lon="13.60755519">
        <ele>121.00000</ele>
        <time>2024-02-16T12:03:25Z</time>
      </trkpt>
      <trkpt lat="42.84749658" lon="13.60747036">
        <ele>122.00000</ele>
        <time>2024-02-16T12:03:26Z</time>
      </trkpt>
      <trkpt lat="42.84752466" lon="13.60738277">
        <ele>122.00000</ele>
        <time>2024-02-16T12:03:27Z</time>
      </trkpt>
      <trkpt lat="42.84755207" lon="13.60729484">
        <ele>122.00000</ele>
        <time>2024-02-16T12:03:28Z</time>
      </trkpt>
      <trkpt lat="42.84758375" lon="13.60720767">
        <ele>123.00000</ele>
        <time>2024-02-16T12:03:29Z</time>
      </trkpt>
      <trkpt lat="42.84761661" lon="13.60712058">
        <ele>123.00000</ele>
        <time>2024-02-16T12:03:30Z</time>
      </trkpt>
      <trkpt lat="42.84764385" lon="13.60705127">
        <ele>123.00000</ele>
        <time>2024-02-16T12:03:31Z</time>
      </trkpt>
      <trkpt lat="42.84767671" lon="13.60696292">
        <ele>123.00000</ele>
        <time>2024-02-16T12:03:32Z</time>
      </trkpt>
      <trkpt lat="42.84771879" lon="13.60685664">
        <ele>123.00000</ele>
        <time>2024-02-16T12:03:33Z</time>
      </trkpt>
      <trkpt lat="42.84775340" lon="13.60676804">
        <ele>123.00000</ele>
        <time>2024-02-16T12:03:34Z</time>
      </trkpt>
      <trkpt lat="42.84778668" lon="13.60668011">
        <ele>123.00000</ele>
        <time>2024-02-16T12:03:35Z</time>
      </trkpt>
      <trkpt lat="42.84782180" lon="13.60659227">
        <ele>124.00000</ele>
        <time>2024-02-16T12:03:36Z</time>
      </trkpt>
      <trkpt lat="42.84785617" lon="13.60650569">
        <ele>124.00000</ele>
        <time>2024-02-16T12:03:37Z</time>
      </trkpt>
      <trkpt lat="42.84789497" lon="13.60642002">
        <ele>124.00000</ele>
        <time>2024-02-16T12:03:38Z</time>
      </trkpt>
      <trkpt lat="42.84793605" lon="13.60633419">
        <ele>124.00000</ele>
        <time>2024-02-16T12:03:39Z</time>
      </trkpt>
      <trkpt lat="42.84797611" lon="13.60624996">
        <ele>124.00000</ele>
        <time>2024-02-16T12:03:40Z</time>
      </trkpt>
      <trkpt lat="42.84801693" lon="13.60616530">
        <ele>124.00000</ele>
        <time>2024-02-16T12:03:41Z</time>
      </trkpt>
      <trkpt lat="42.84805649" lon="13.60607888">
        <ele>125.00000</ele>
        <time>2024-02-16T12:03:42Z</time>
      </trkpt>
      <trkpt lat="42.84809581" lon="13.60599121">
        <ele>125.00000</ele>
        <time>2024-02-16T12:03:43Z</time>
      </trkpt>
      <trkpt lat="42.84813436" lon="13.60590370">
        <ele>125.00000</ele>
        <time>2024-02-16T12:03:44Z</time>
      </trkpt>
      <trkpt lat="42.84817250" lon="13.60581527">
        <ele>125.00000</ele>
        <time>2024-02-16T12:03:45Z</time>
      </trkpt>
      <trkpt lat="42.84821139" lon="13.60572793">
        <ele>124.00000</ele>
        <time>2024-02-16T12:03:46Z</time>
      </trkpt>
      <trkpt lat="42.84824986" lon="13.60563715">
        <ele>124.00000</ele>
        <time>2024-02-16T12:03:47Z</time>
      </trkpt>
      <trkpt lat="42.84829010" lon="13.60554772">
        <ele>124.00000</ele>
        <time>2024-02-16T12:03:48Z</time>
      </trkpt>
      <trkpt lat="42.84832966" lon="13.60546038">
        <ele>124.00000</ele>
        <time>2024-02-16T12:03:49Z</time>
      </trkpt>
      <trkpt lat="42.84836579" lon="13.60537027">
        <ele>123.00000</ele>
        <time>2024-02-16T12:03:50Z</time>
      </trkpt>
      <trkpt lat="42.84840409" lon="13.60528537">
        <ele>123.00000</ele>
        <time>2024-02-16T12:03:51Z</time>
      </trkpt>
      <trkpt lat="42.84843871" lon="13.60519744">
        <ele>124.00000</ele>
        <time>2024-02-16T12:03:52Z</time>
      </trkpt>
      <trkpt lat="42.84846578" lon="13.60510407">
        <ele>124.00000</ele>
        <time>2024-02-16T12:03:53Z</time>
      </trkpt>
      <trkpt lat="42.84848875" lon="13.60500943">
        <ele>124.00000</ele>
        <time>2024-02-16T12:03:54Z</time>
      </trkpt>
      <trkpt lat="42.84850811" lon="13.60491430">
        <ele>125.00000</ele>
        <time>2024-02-16T12:03:55Z</time>
      </trkpt>
      <trkpt lat="42.84852655" lon="13.60482025">
        <ele>125.00000</ele>
        <time>2024-02-16T12:03:56Z</time>
      </trkpt>
      <trkpt lat="42.84854340" lon="13.60472411">
        <ele>125.00000</ele>
        <time>2024-02-16T12:03:57Z</time>
      </trkpt>
      <trkpt lat="42.84856192" lon="13.60462755">
        <ele>126.00000</ele>
        <time>2024-02-16T12:03:58Z</time>
      </trkpt>
      <trkpt lat="42.84858061" lon="13.60453468">
        <ele>126.00000</ele>
        <time>2024-02-16T12:03:59Z</time>
      </trkpt>
      <trkpt lat="42.84860014" lon="13.60443821">
        <ele>127.00000</ele>
        <time>2024-02-16T12:04:00Z</time>
      </trkpt>
      <trkpt lat="42.84861984" lon="13.60434165">
        <ele>127.00000</ele>
        <time>2024-02-16T12:04:01Z</time>
      </trkpt>
      <trkpt lat="42.84864088" lon="13.60424266">
        <ele>127.00000</ele>
        <time>2024-02-16T12:04:02Z</time>
      </trkpt>
      <trkpt lat="42.84865949" lon="13.60414358">
        <ele>127.00000</ele>
        <time>2024-02-16T12:04:03Z</time>
      </trkpt>
      <trkpt lat="42.84867776" lon="13.60404635">
        <ele>127.00000</ele>
        <time>2024-02-16T12:04:04Z</time>
      </trkpt>
      <trkpt lat="42.84869603" lon="13.60394644">
        <ele>127.00000</ele>
        <time>2024-02-16T12:04:05Z</time>
      </trkpt>
      <trkpt lat="42.84871489" lon="13.60384544">
        <ele>127.00000</ele>
        <time>2024-02-16T12:04:06Z</time>
      </trkpt>
      <trkpt lat="42.84873384" lon="13.60374293">
        <ele>127.00000</ele>
        <time>2024-02-16T12:04:07Z</time>
      </trkpt>
      <trkpt lat="42.84875328" lon="13.60364201">
        <ele>127.00000</ele>
        <time>2024-02-16T12:04:08Z</time>
      </trkpt>
      <trkpt lat="42.84877239" lon="13.60354076">
        <ele>127.00000</ele>
        <time>2024-02-16T12:04:09Z</time>
      </trkpt>
      <trkpt lat="42.84879243" lon="13.60343690">
        <ele>127.00000</ele>
        <time>2024-02-16T12:04:10Z</time>
      </trkpt>
      <trkpt lat="42.84881304" lon="13.60333381">
        <ele>127.00000</ele>
        <time>2024-02-16T12:04:11Z</time>
      </trkpt>
      <trkpt lat="42.84883425" lon="13.60323071">
        <ele>127.00000</ele>
        <time>2024-02-16T12:04:12Z</time>
      </trkpt>
      <trkpt lat="42.84885378" lon="13.60312920">
        <ele>127.00000</ele>
        <time>2024-02-16T12:04:13Z</time>
      </trkpt>
      <trkpt lat="42.84887532" lon="13.60302854">
        <ele>127.00000</ele>
        <time>2024-02-16T12:04:14Z</time>
      </trkpt>
      <trkpt lat="42.84889737" lon="13.60293114">
        <ele>127.00000</ele>
        <time>2024-02-16T12:04:15Z</time>
      </trkpt>
      <trkpt lat="42.84891757" lon="13.60283584">
        <ele>127.00000</ele>
        <time>2024-02-16T12:04:16Z</time>
      </trkpt>
      <trkpt lat="42.84893475" lon="13.60276107">
        <ele>127.00000</ele>
        <time>2024-02-16T12:04:17Z</time>
      </trkpt>
      <trkpt lat="42.84895797" lon="13.60264632">
        <ele>127.00000</ele>
        <time>2024-02-16T12:04:18Z</time>
      </trkpt>
      <trkpt lat="42.84897532" lon="13.60255043">
        <ele>127.00000</ele>
        <time>2024-02-16T12:04:19Z</time>
      </trkpt>
      <trkpt lat="42.84899535" lon="13.60245413">
        <ele>127.00000</ele>
        <time>2024-02-16T12:04:20Z</time>
      </trkpt>
      <trkpt lat="42.84901639" lon="13.60235656">
        <ele>127.00000</ele>
        <time>2024-02-16T12:04:21Z</time>
      </trkpt>
      <trkpt lat="42.84903718" lon="13.60225740">
        <ele>127.00000</ele>
        <time>2024-02-16T12:04:22Z</time>
      </trkpt>
      <trkpt lat="42.84905780" lon="13.60215472">
        <ele>127.00000</ele>
        <time>2024-02-16T12:04:23Z</time>
      </trkpt>
      <trkpt lat="42.84907825" lon="13.60205104">
        <ele>127.00000</ele>
        <time>2024-02-16T12:04:24Z</time>
      </trkpt>
      <trkpt lat="42.84909954" lon="13.60194593">
        <ele>127.00000</ele>
        <time>2024-02-16T12:04:25Z</time>
      </trkpt>
      <trkpt lat="42.84911999" lon="13.60183965">
        <ele>126.00000</ele>
        <time>2024-02-16T12:04:26Z</time>
      </trkpt>
      <trkpt lat="42.84913944" lon="13.60173404">
        <ele>126.00000</ele>
        <time>2024-02-16T12:04:27Z</time>
      </trkpt>
      <trkpt lat="42.84916089" lon="13.60162599">
        <ele>125.00000</ele>
        <time>2024-02-16T12:04:28Z</time>
      </trkpt>
      <trkpt lat="42.84918160" lon="13.60151845">
        <ele>125.00000</ele>
        <time>2024-02-16T12:04:29Z</time>
      </trkpt>
      <trkpt lat="42.84920289" lon="13.60141008">
        <ele>125.00000</ele>
        <time>2024-02-16T12:04:30Z</time>
      </trkpt>
      <trkpt lat="42.84922644" lon="13.60130648">
        <ele>126.00000</ele>
        <time>2024-02-16T12:04:31Z</time>
      </trkpt>
      <trkpt lat="42.84925276" lon="13.60120430">
        <ele>126.00000</ele>
        <time>2024-02-16T12:04:32Z</time>
      </trkpt>
      <trkpt lat="42.84928151" lon="13.60109902">
        <ele>127.00000</ele>
        <time>2024-02-16T12:04:33Z</time>
      </trkpt>
      <trkpt lat="42.84931219" lon="13.60099492">
        <ele>127.00000</ele>
        <time>2024-02-16T12:04:34Z</time>
      </trkpt>
      <trkpt lat="42.84933960" lon="13.60089283">
        <ele>127.00000</ele>
        <time>2024-02-16T12:04:35Z</time>
      </trkpt>
      <trkpt lat="42.84936357" lon="13.60079049">
        <ele>128.00000</ele>
        <time>2024-02-16T12:04:36Z</time>
      </trkpt>
      <trkpt lat="42.84938645" lon="13.60069409">
        <ele>128.00000</ele>
        <time>2024-02-16T12:04:37Z</time>
      </trkpt>
      <trkpt lat="42.84941327" lon="13.60059619">
        <ele>128.00000</ele>
        <time>2024-02-16T12:04:38Z</time>
      </trkpt>
      <trkpt lat="42.84943783" lon="13.60049905">
        <ele>128.00000</ele>
        <time>2024-02-16T12:04:39Z</time>
      </trkpt>
      <trkpt lat="42.84945728" lon="13.60040542">
        <ele>128.00000</ele>
        <time>2024-02-16T12:04:40Z</time>
      </trkpt>
      <trkpt lat="42.84947857" lon="13.60031272">
        <ele>128.00000</ele>
        <time>2024-02-16T12:04:41Z</time>
      </trkpt>
      <trkpt lat="42.84950195" lon="13.60021951">
        <ele>128.00000</ele>
        <time>2024-02-16T12:04:42Z</time>
      </trkpt>
      <trkpt lat="42.84952232" lon="13.60012790">
        <ele>128.00000</ele>
        <time>2024-02-16T12:04:43Z</time>
      </trkpt>
      <trkpt lat="42.84954361" lon="13.60003972">
        <ele>128.00000</ele>
        <time>2024-02-16T12:04:44Z</time>
      </trkpt>
      <trkpt lat="42.84956633" lon="13.59995137">
        <ele>128.00000</ele>
        <time>2024-02-16T12:04:45Z</time>
      </trkpt>
      <trkpt lat="42.84958921" lon="13.59986211">
        <ele>128.00000</ele>
        <time>2024-02-16T12:04:46Z</time>
      </trkpt>
      <trkpt lat="42.84961394" lon="13.59977552">
        <ele>128.00000</ele>
        <time>2024-02-16T12:04:47Z</time>
      </trkpt>
      <trkpt lat="42.84964327" lon="13.59969740">
        <ele>128.00000</ele>
        <time>2024-02-16T12:04:48Z</time>
      </trkpt>
      <trkpt lat="42.84967621" lon="13.59962414">
        <ele>128.00000</ele>
        <time>2024-02-16T12:04:49Z</time>
      </trkpt>
      <trkpt lat="42.84970999" lon="13.59955340">
        <ele>129.00000</ele>
        <time>2024-02-16T12:04:50Z</time>
      </trkpt>
      <trkpt lat="42.84974385" lon="13.59948123">
        <ele>129.00000</ele>
        <time>2024-02-16T12:04:51Z</time>
      </trkpt>
      <trkpt lat="42.84977898" lon="13.59940739">
        <ele>129.00000</ele>
        <time>2024-02-16T12:04:52Z</time>
      </trkpt>
      <trkpt lat="42.84981527" lon="13.59933338">
        <ele>130.00000</ele>
        <time>2024-02-16T12:04:53Z</time>
      </trkpt>
      <trkpt lat="42.84985433" lon="13.59926012">
        <ele>130.00000</ele>
        <time>2024-02-16T12:04:54Z</time>
      </trkpt>
      <trkpt lat="42.84989104" lon="13.59918812">
        <ele>130.00000</ele>
        <time>2024-02-16T12:04:55Z</time>
      </trkpt>
      <trkpt lat="42.84992641" lon="13.59911955">
        <ele>130.00000</ele>
        <time>2024-02-16T12:04:56Z</time>
      </trkpt>
      <trkpt lat="42.84996329" lon="13.59905585">
        <ele>130.00000</ele>
        <time>2024-02-16T12:04:57Z</time>
      </trkpt>
      <trkpt lat="42.84999825" lon="13.59900372">
        <ele>131.00000</ele>
        <time>2024-02-16T12:04:58Z</time>
      </trkpt>
      <trkpt lat="42.85002339" lon="13.59896390">
        <ele>131.00000</ele>
        <time>2024-02-16T12:04:59Z</time>
      </trkpt>
      <trkpt lat="42.85004024" lon="13.59893130">
        <ele>131.00000</ele>
        <time>2024-02-16T12:05:00Z</time>
      </trkpt>
      <trkpt lat="42.85005348" lon="13.59890238">
        <ele>131.00000</ele>
        <time>2024-02-16T12:05:01Z</time>
      </trkpt>
      <trkpt lat="42.85006337" lon="13.59887522">
        <ele>131.00000</ele>
        <time>2024-02-16T12:05:02Z</time>
      </trkpt>
      <trkpt lat="42.85007511" lon="13.59884312">
        <ele>132.00000</ele>
        <time>2024-02-16T12:05:03Z</time>
      </trkpt>
      <trkpt lat="42.85009279" lon="13.59880582">
        <ele>132.00000</ele>
        <time>2024-02-16T12:05:04Z</time>
      </trkpt>
      <trkpt lat="42.85011375" lon="13.59875863">
        <ele>132.00000</ele>
        <time>2024-02-16T12:05:05Z</time>
      </trkpt>
      <trkpt lat="42.85013822" lon="13.59869912">
        <ele>133.00000</ele>
        <time>2024-02-16T12:05:06Z</time>
      </trkpt>
      <trkpt lat="42.85016605" lon="13.59862972">
        <ele>133.00000</ele>
        <time>2024-02-16T12:05:07Z</time>
      </trkpt>
      <trkpt lat="42.85019648" lon="13.59855570">
        <ele>134.00000</ele>
        <time>2024-02-16T12:05:08Z</time>
      </trkpt>
      <trkpt lat="42.85022472" lon="13.59848069">
        <ele>134.00000</ele>
        <time>2024-02-16T12:05:09Z</time>
      </trkpt>
      <trkpt lat="42.85025347" lon="13.59840248">
        <ele>134.00000</ele>
        <time>2024-02-16T12:05:10Z</time>
      </trkpt>
      <trkpt lat="42.85028013" lon="13.59832436">
        <ele>134.00000</ele>
        <time>2024-02-16T12:05:11Z</time>
      </trkpt>
      <trkpt lat="42.85030821" lon="13.59824666">
        <ele>134.00000</ele>
        <time>2024-02-16T12:05:12Z</time>
      </trkpt>
      <trkpt lat="42.85033654" lon="13.59816921">
        <ele>135.00000</ele>
        <time>2024-02-16T12:05:13Z</time>
      </trkpt>
      <trkpt lat="42.85036085" lon="13.59808942">
        <ele>135.00000</ele>
        <time>2024-02-16T12:05:14Z</time>
      </trkpt>
      <trkpt lat="42.85038239" lon="13.59800526">
        <ele>135.00000</ele>
        <time>2024-02-16T12:05:15Z</time>
      </trkpt>
      <trkpt lat="42.85040603" lon="13.59792555">
        <ele>135.00000</ele>
        <time>2024-02-16T12:05:16Z</time>
      </trkpt>
      <trkpt lat="42.85043218" lon="13.59784559">
        <ele>135.00000</ele>
        <time>2024-02-16T12:05:17Z</time>
      </trkpt>
      <trkpt lat="42.85045632" lon="13.59776403">
        <ele>136.00000</ele>
        <time>2024-02-16T12:05:18Z</time>
      </trkpt>
      <trkpt lat="42.85048322" lon="13.59768407">
        <ele>136.00000</ele>
        <time>2024-02-16T12:05:19Z</time>
      </trkpt>
      <trkpt lat="42.85050996" lon="13.59760285">
        <ele>137.00000</ele>
        <time>2024-02-16T12:05:20Z</time>
      </trkpt>
      <trkpt lat="42.85053921" lon="13.59752255">
        <ele>137.00000</ele>
        <time>2024-02-16T12:05:21Z</time>
      </trkpt>
      <trkpt lat="42.85056989" lon="13.59744083">
        <ele>138.00000</ele>
        <time>2024-02-16T12:05:22Z</time>
      </trkpt>
      <trkpt lat="42.85059881" lon="13.59735852">
        <ele>138.00000</ele>
        <time>2024-02-16T12:05:23Z</time>
      </trkpt>
      <trkpt lat="42.85062194" lon="13.59728543">
        <ele>139.00000</ele>
        <time>2024-02-16T12:05:24Z</time>
      </trkpt>
      <trkpt lat="42.85064097" lon="13.59721971">
        <ele>139.00000</ele>
        <time>2024-02-16T12:05:25Z</time>
      </trkpt>
      <trkpt lat="42.85065815" lon="13.59715148">
        <ele>139.00000</ele>
        <time>2024-02-16T12:05:26Z</time>
      </trkpt>
      <trkpt lat="42.85067492" lon="13.59708200">
        <ele>139.00000</ele>
        <time>2024-02-16T12:05:27Z</time>
      </trkpt>
      <trkpt lat="42.85069436" lon="13.59701561">
        <ele>139.00000</ele>
        <time>2024-02-16T12:05:28Z</time>
      </trkpt>
      <trkpt lat="42.85071875" lon="13.59694177">
        <ele>140.00000</ele>
        <time>2024-02-16T12:05:29Z</time>
      </trkpt>
      <trkpt lat="42.85074206" lon="13.59686566">
        <ele>140.00000</ele>
        <time>2024-02-16T12:05:30Z</time>
      </trkpt>
      <trkpt lat="42.85076661" lon="13.59679173">
        <ele>140.00000</ele>
        <time>2024-02-16T12:05:31Z</time>
      </trkpt>
      <trkpt lat="42.85079143" lon="13.59671571">
        <ele>140.00000</ele>
        <time>2024-02-16T12:05:32Z</time>
      </trkpt>
      <trkpt lat="42.85080978" lon="13.59665058">
        <ele>140.00000</ele>
        <time>2024-02-16T12:05:33Z</time>
      </trkpt>
      <trkpt lat="42.85082235" lon="13.59659166">
        <ele>140.00000</ele>
        <time>2024-02-16T12:05:34Z</time>
      </trkpt>
      <trkpt lat="42.85083367" lon="13.59653122">
        <ele>139.00000</ele>
        <time>2024-02-16T12:05:35Z</time>
      </trkpt>
      <trkpt lat="42.85085060" lon="13.59647892">
        <ele>139.00000</ele>
        <time>2024-02-16T12:05:36Z</time>
      </trkpt>
      <trkpt lat="42.85086653" lon="13.59644187">
        <ele>139.00000</ele>
        <time>2024-02-16T12:05:37Z</time>
      </trkpt>
      <trkpt lat="42.85087625" lon="13.59641195">
        <ele>139.00000</ele>
        <time>2024-02-16T12:05:38Z</time>
      </trkpt>
      <trkpt lat="42.85088539" lon="13.59637557">
        <ele>139.00000</ele>
        <time>2024-02-16T12:05:39Z</time>
      </trkpt>
      <trkpt lat="42.85089595" lon="13.59633517">
        <ele>139.00000</ele>
        <time>2024-02-16T12:05:40Z</time>
      </trkpt>
      <trkpt lat="42.85090609" lon="13.59628966">
        <ele>139.00000</ele>
        <time>2024-02-16T12:05:41Z</time>
      </trkpt>
      <trkpt lat="42.85090936" lon="13.59624414">
        <ele>139.00000</ele>
        <time>2024-02-16T12:05:42Z</time>
      </trkpt>
      <trkpt lat="42.85091053" lon="13.59619947">
        <ele>139.00000</ele>
        <time>2024-02-16T12:05:43Z</time>
      </trkpt>
      <trkpt lat="42.85091766" lon="13.59615345">
        <ele>139.00000</ele>
        <time>2024-02-16T12:05:44Z</time>
      </trkpt>
      <trkpt lat="42.85093978" lon="13.59610131">
        <ele>138.00000</ele>
        <time>2024-02-16T12:05:45Z</time>
      </trkpt>
      <trkpt lat="42.85095680" lon="13.59603770">
        <ele>138.00000</ele>
        <time>2024-02-16T12:05:46Z</time>
      </trkpt>
      <trkpt lat="42.85097281" lon="13.59596955">
        <ele>139.00000</ele>
        <time>2024-02-16T12:05:47Z</time>
      </trkpt>
      <trkpt lat="42.85098991" lon="13.59589738">
        <ele>139.00000</ele>
        <time>2024-02-16T12:05:48Z</time>
      </trkpt>
      <trkpt lat="42.85099770" lon="13.59582739">
        <ele>139.00000</ele>
        <time>2024-02-16T12:05:49Z</time>
      </trkpt>
      <trkpt lat="42.85100558" lon="13.59575958">
        <ele>139.00000</ele>
        <time>2024-02-16T12:05:50Z</time>
      </trkpt>
      <trkpt lat="42.85101430" lon="13.59569278">
        <ele>139.00000</ele>
        <time>2024-02-16T12:05:51Z</time>
      </trkpt>
      <trkpt lat="42.85102235" lon="13.59562497">
        <ele>139.00000</ele>
        <time>2024-02-16T12:05:52Z</time>
      </trkpt>
      <trkpt lat="42.85103249" lon="13.59555968">
        <ele>139.00000</ele>
        <time>2024-02-16T12:05:53Z</time>
      </trkpt>
      <trkpt lat="42.85104196" lon="13.59549254">
        <ele>139.00000</ele>
        <time>2024-02-16T12:05:54Z</time>
      </trkpt>
      <trkpt lat="42.85104959" lon="13.59542364">
        <ele>139.00000</ele>
        <time>2024-02-16T12:05:55Z</time>
      </trkpt>
      <trkpt lat="42.85105914" lon="13.59535390">
        <ele>139.00000</ele>
        <time>2024-02-16T12:05:56Z</time>
      </trkpt>
      <trkpt lat="42.85107037" lon="13.59528542">
        <ele>139.00000</ele>
        <time>2024-02-16T12:05:57Z</time>
      </trkpt>
      <trkpt lat="42.85108001" lon="13.59521568">
        <ele>140.00000</ele>
        <time>2024-02-16T12:05:58Z</time>
      </trkpt>
      <trkpt lat="42.85108412" lon="13.59514175">
        <ele>140.00000</ele>
        <time>2024-02-16T12:05:59Z</time>
      </trkpt>
      <trkpt lat="42.85108823" lon="13.59507068">
        <ele>141.00000</ele>
        <time>2024-02-16T12:06:00Z</time>
      </trkpt>
      <trkpt lat="42.85109636" lon="13.59500773">
        <ele>141.00000</ele>
        <time>2024-02-16T12:06:01Z</time>
      </trkpt>
      <trkpt lat="42.85110114" lon="13.59494713">
        <ele>142.00000</ele>
        <time>2024-02-16T12:06:02Z</time>
      </trkpt>
      <trkpt lat="42.85110516" lon="13.59489181">
        <ele>142.00000</ele>
        <time>2024-02-16T12:06:03Z</time>
      </trkpt>
      <trkpt lat="42.85111572" lon="13.59484068">
        <ele>142.00000</ele>
        <time>2024-02-16T12:06:04Z</time>
      </trkpt>
      <trkpt lat="42.85113215" lon="13.59479013">
        <ele>142.00000</ele>
        <time>2024-02-16T12:06:05Z</time>
      </trkpt>
      <trkpt lat="42.85114615" lon="13.59473884">
        <ele>142.00000</ele>
        <time>2024-02-16T12:06:06Z</time>
      </trkpt>
      <trkpt lat="42.85115503" lon="13.59468955">
        <ele>142.00000</ele>
        <time>2024-02-16T12:06:07Z</time>
      </trkpt>
      <trkpt lat="42.85116023" lon="13.59464387">
        <ele>143.00000</ele>
        <time>2024-02-16T12:06:08Z</time>
      </trkpt>
      <trkpt lat="42.85116434" lon="13.59460003">
        <ele>143.00000</ele>
        <time>2024-02-16T12:06:09Z</time>
      </trkpt>
      <trkpt lat="42.85116911" lon="13.59455863">
        <ele>143.00000</ele>
        <time>2024-02-16T12:06:10Z</time>
      </trkpt>
      <trkpt lat="42.85117465" lon="13.59452091">
        <ele>143.00000</ele>
        <time>2024-02-16T12:06:11Z</time>
      </trkpt>
      <trkpt lat="42.85118554" lon="13.59448797">
        <ele>143.00000</ele>
        <time>2024-02-16T12:06:12Z</time>
      </trkpt>
      <trkpt lat="42.85118831" lon="13.59445896">
        <ele>143.00000</ele>
        <time>2024-02-16T12:06:13Z</time>
      </trkpt>
      <trkpt lat="42.85120356" lon="13.59443072">
        <ele>143.00000</ele>
        <time>2024-02-16T12:06:14Z</time>
      </trkpt>
      <trkpt lat="42.85121287" lon="13.59438738">
        <ele>143.00000</ele>
        <time>2024-02-16T12:06:15Z</time>
      </trkpt>
      <trkpt lat="42.85120884" lon="13.59435109">
        <ele>144.00000</ele>
        <time>2024-02-16T12:06:16Z</time>
      </trkpt>
      <trkpt lat="42.85120222" lon="13.59431195">
        <ele>144.00000</ele>
        <time>2024-02-16T12:06:17Z</time>
      </trkpt>
      <trkpt lat="42.85120398" lon="13.59427037">
        <ele>144.00000</ele>
        <time>2024-02-16T12:06:18Z</time>
      </trkpt>
      <trkpt lat="42.85121555" lon="13.59422871">
        <ele>144.00000</ele>
        <time>2024-02-16T12:06:19Z</time>
      </trkpt>
      <trkpt lat="42.85122804" lon="13.59419259">
        <ele>144.00000</ele>
        <time>2024-02-16T12:06:20Z</time>
      </trkpt>
      <trkpt lat="42.85123667" lon="13.59415898">
        <ele>145.00000</ele>
        <time>2024-02-16T12:06:21Z</time>
      </trkpt>
      <trkpt lat="42.85123541" lon="13.59412679">
        <ele>145.00000</ele>
        <time>2024-02-16T12:06:22Z</time>
      </trkpt>
      <trkpt lat="42.85123474" lon="13.59408630">
        <ele>145.00000</ele>
        <time>2024-02-16T12:06:23Z</time>
      </trkpt>
      <trkpt lat="42.85123458" lon="13.59404582">
        <ele>145.00000</ele>
        <time>2024-02-16T12:06:24Z</time>
      </trkpt>
      <trkpt lat="42.85123525" lon="13.59398690">
        <ele>145.00000</ele>
        <time>2024-02-16T12:06:25Z</time>
      </trkpt>
      <trkpt lat="42.85124380" lon="13.59393543">
        <ele>145.00000</ele>
        <time>2024-02-16T12:06:26Z</time>
      </trkpt>
      <trkpt lat="42.85126416" lon="13.59387902">
        <ele>145.00000</ele>
        <time>2024-02-16T12:06:27Z</time>
      </trkpt>
      <trkpt lat="42.85127883" lon="13.59382697">
        <ele>145.00000</ele>
        <time>2024-02-16T12:06:28Z</time>
      </trkpt>
      <trkpt lat="42.85127565" lon="13.59378774">
        <ele>145.00000</ele>
        <time>2024-02-16T12:06:29Z</time>
      </trkpt>
      <trkpt lat="42.85126199" lon="13.59374701">
        <ele>145.00000</ele>
        <time>2024-02-16T12:06:30Z</time>
      </trkpt>
      <trkpt lat="42.85123751" lon="13.59369881">
        <ele>145.00000</ele>
        <time>2024-02-16T12:06:31Z</time>
      </trkpt>
      <trkpt lat="42.85122293" lon="13.59364215">
        <ele>145.00000</ele>
        <time>2024-02-16T12:06:32Z</time>
      </trkpt>
      <trkpt lat="42.85122879" lon="13.59358004">
        <ele>146.00000</ele>
        <time>2024-02-16T12:06:33Z</time>
      </trkpt>
      <trkpt lat="42.85124430" lon="13.59351726">
        <ele>146.00000</ele>
        <time>2024-02-16T12:06:34Z</time>
      </trkpt>
      <trkpt lat="42.85125553" lon="13.59346018">
        <ele>146.00000</ele>
        <time>2024-02-16T12:06:35Z</time>
      </trkpt>
      <trkpt lat="42.85126450" lon="13.59339891">
        <ele>146.00000</ele>
        <time>2024-02-16T12:06:36Z</time>
      </trkpt>
      <trkpt lat="42.85126618" lon="13.59333537">
        <ele>146.00000</ele>
        <time>2024-02-16T12:06:37Z</time>
      </trkpt>
      <trkpt lat="42.85128068" lon="13.59327427">
        <ele>146.00000</ele>
        <time>2024-02-16T12:06:38Z</time>
      </trkpt>
      <trkpt lat="42.85128839" lon="13.59322682">
        <ele>146.00000</ele>
        <time>2024-02-16T12:06:39Z</time>
      </trkpt>
      <trkpt lat="42.85130146" lon="13.59318869">
        <ele>146.00000</ele>
        <time>2024-02-16T12:06:40Z</time>
      </trkpt>
      <trkpt lat="42.85130968" lon="13.59315373">
        <ele>146.00000</ele>
        <time>2024-02-16T12:06:41Z</time>
      </trkpt>
      <trkpt lat="42.85130943" lon="13.59312063">
        <ele>147.00000</ele>
        <time>2024-02-16T12:06:42Z</time>
      </trkpt>
      <trkpt lat="42.85131345" lon="13.59309447">
        <ele>147.00000</ele>
        <time>2024-02-16T12:06:43Z</time>
      </trkpt>
      <trkpt lat="42.85132518" lon="13.59306849">
        <ele>147.00000</ele>
        <time>2024-02-16T12:06:44Z</time>
      </trkpt>
      <trkpt lat="42.85133298" lon="13.59303823">
        <ele>147.00000</ele>
        <time>2024-02-16T12:06:45Z</time>
      </trkpt>
      <trkpt lat="42.85133759" lon="13.59298895">
        <ele>147.00000</ele>
        <time>2024-02-16T12:06:46Z</time>
      </trkpt>
      <trkpt lat="42.85134539" lon="13.59294251">
        <ele>147.00000</ele>
        <time>2024-02-16T12:06:47Z</time>
      </trkpt>
      <trkpt lat="42.85135033" lon="13.59288987">
        <ele>147.00000</ele>
        <time>2024-02-16T12:06:48Z</time>
      </trkpt>
      <trkpt lat="42.85135628" lon="13.59282801">
        <ele>147.00000</ele>
        <time>2024-02-16T12:06:49Z</time>
      </trkpt>
      <trkpt lat="42.85136165" lon="13.59276364">
        <ele>148.00000</ele>
        <time>2024-02-16T12:06:50Z</time>
      </trkpt>
      <trkpt lat="42.85136039" lon="13.59270136">
        <ele>148.00000</ele>
        <time>2024-02-16T12:06:51Z</time>
      </trkpt>
      <trkpt lat="42.85135008" lon="13.59264353">
        <ele>148.00000</ele>
        <time>2024-02-16T12:06:52Z</time>
      </trkpt>
      <trkpt lat="42.85134321" lon="13.59259273">
        <ele>149.00000</ele>
        <time>2024-02-16T12:06:53Z</time>
      </trkpt>
      <trkpt lat="42.85135477" lon="13.59253138">
        <ele>149.00000</ele>
        <time>2024-02-16T12:06:54Z</time>
      </trkpt>
      <trkpt lat="42.85137707" lon="13.59246642">
        <ele>149.00000</ele>
        <time>2024-02-16T12:06:55Z</time>
      </trkpt>
      <trkpt lat="42.85138788" lon="13.59242032">
        <ele>149.00000</ele>
        <time>2024-02-16T12:06:56Z</time>
      </trkpt>
      <trkpt lat="42.85139325" lon="13.59237908">
        <ele>149.00000</ele>
        <time>2024-02-16T12:06:57Z</time>
      </trkpt>
      <trkpt lat="42.85140004" lon="13.59234170">
        <ele>149.00000</ele>
        <time>2024-02-16T12:06:58Z</time>
      </trkpt>
      <trkpt lat="42.85141018" lon="13.59230800">
        <ele>149.00000</ele>
        <time>2024-02-16T12:06:59Z</time>
      </trkpt>
      <trkpt lat="42.85142024" lon="13.59227950">
        <ele>149.00000</ele>
        <time>2024-02-16T12:07:00Z</time>
      </trkpt>
      <trkpt lat="42.85142644" lon="13.59225000">
        <ele>149.00000</ele>
        <time>2024-02-16T12:07:01Z</time>
      </trkpt>
      <trkpt lat="42.85143323" lon="13.59221220">
        <ele>149.00000</ele>
        <time>2024-02-16T12:07:02Z</time>
      </trkpt>
      <trkpt lat="42.85144287" lon="13.59215612">
        <ele>150.00000</ele>
        <time>2024-02-16T12:07:03Z</time>
      </trkpt>
      <trkpt lat="42.85144404" lon="13.59209602">
        <ele>150.00000</ele>
        <time>2024-02-16T12:07:04Z</time>
      </trkpt>
      <trkpt lat="42.85144513" lon="13.59203416">
        <ele>150.00000</ele>
        <time>2024-02-16T12:07:05Z</time>
      </trkpt>
      <trkpt lat="42.85145418" lon="13.59196526">
        <ele>150.00000</ele>
        <time>2024-02-16T12:07:06Z</time>
      </trkpt>
      <trkpt lat="42.85145829" lon="13.59189779">
        <ele>151.00000</ele>
        <time>2024-02-16T12:07:07Z</time>
      </trkpt>
      <trkpt lat="42.85145661" lon="13.59182973">
        <ele>151.00000</ele>
        <time>2024-02-16T12:07:08Z</time>
      </trkpt>
      <trkpt lat="42.85146089" lon="13.59175714">
        <ele>152.00000</ele>
        <time>2024-02-16T12:07:09Z</time>
      </trkpt>
      <trkpt lat="42.85147061" lon="13.59167777">
        <ele>152.00000</ele>
        <time>2024-02-16T12:07:10Z</time>
      </trkpt>
      <trkpt lat="42.85147514" lon="13.59159780">
        <ele>152.00000</ele>
        <time>2024-02-16T12:07:11Z</time>
      </trkpt>
      <trkpt lat="42.85147556" lon="13.59151692">
        <ele>153.00000</ele>
        <time>2024-02-16T12:07:12Z</time>
      </trkpt>
      <trkpt lat="42.85148612" lon="13.59143100">
        <ele>153.00000</ele>
        <time>2024-02-16T12:07:13Z</time>
      </trkpt>
      <trkpt lat="42.85149291" lon="13.59134484">
        <ele>153.00000</ele>
        <time>2024-02-16T12:07:14Z</time>
      </trkpt>
      <trkpt lat="42.85149676" lon="13.59125590">
        <ele>154.00000</ele>
        <time>2024-02-16T12:07:15Z</time>
      </trkpt>
      <trkpt lat="42.85149911" lon="13.59116815">
        <ele>154.00000</ele>
        <time>2024-02-16T12:07:16Z</time>
      </trkpt>
      <trkpt lat="42.85149475" lon="13.59108231">
        <ele>155.00000</ele>
        <time>2024-02-16T12:07:17Z</time>
      </trkpt>
      <trkpt lat="42.85149936" lon="13.59099523">
        <ele>155.00000</ele>
        <time>2024-02-16T12:07:18Z</time>
      </trkpt>
      <trkpt lat="42.85151763" lon="13.59090797">
        <ele>155.00000</ele>
        <time>2024-02-16T12:07:19Z</time>
      </trkpt>
      <trkpt lat="42.85153850" lon="13.59082264">
        <ele>155.00000</ele>
        <time>2024-02-16T12:07:20Z</time>
      </trkpt>
      <trkpt lat="42.85155376" lon="13.59073203">
        <ele>155.00000</ele>
        <time>2024-02-16T12:07:21Z</time>
      </trkpt>
      <trkpt lat="42.85156633" lon="13.59064897">
        <ele>155.00000</ele>
        <time>2024-02-16T12:07:22Z</time>
      </trkpt>
      <trkpt lat="42.85158452" lon="13.59055761">
        <ele>155.00000</ele>
        <time>2024-02-16T12:07:23Z</time>
      </trkpt>
      <trkpt lat="42.85159592" lon="13.59047144">
        <ele>155.00000</ele>
        <time>2024-02-16T12:07:24Z</time>
      </trkpt>
      <trkpt lat="42.85160170" lon="13.59038888">
        <ele>154.00000</ele>
        <time>2024-02-16T12:07:25Z</time>
      </trkpt>
      <trkpt lat="42.85160128" lon="13.59030816">
        <ele>154.00000</ele>
        <time>2024-02-16T12:07:26Z</time>
      </trkpt>
      <trkpt lat="42.85160539" lon="13.59022661">
        <ele>154.00000</ele>
        <time>2024-02-16T12:07:27Z</time>
      </trkpt>
      <trkpt lat="42.85160908" lon="13.59014245">
        <ele>153.00000</ele>
        <time>2024-02-16T12:07:28Z</time>
      </trkpt>
      <trkpt lat="42.85161637" lon="13.59005838">
        <ele>153.00000</ele>
        <time>2024-02-16T12:07:29Z</time>
      </trkpt>
      <trkpt lat="42.85162677" lon="13.58997708">
        <ele>153.00000</ele>
        <time>2024-02-16T12:07:30Z</time>
      </trkpt>
      <trkpt lat="42.85163305" lon="13.58989619">
        <ele>153.00000</ele>
        <time>2024-02-16T12:07:31Z</time>
      </trkpt>
      <trkpt lat="42.85163347" lon="13.58981723">
        <ele>153.00000</ele>
        <time>2024-02-16T12:07:32Z</time>
      </trkpt>
      <trkpt lat="42.85163397" lon="13.58973761">
        <ele>154.00000</ele>
        <time>2024-02-16T12:07:33Z</time>
      </trkpt>
      <trkpt lat="42.85164294" lon="13.58965655">
        <ele>154.00000</ele>
        <time>2024-02-16T12:07:34Z</time>
      </trkpt>
      <trkpt lat="42.85166096" lon="13.58957961">
        <ele>154.00000</ele>
        <time>2024-02-16T12:07:35Z</time>
      </trkpt>
      <trkpt lat="42.85166809" lon="13.58949604">
        <ele>154.00000</ele>
        <time>2024-02-16T12:07:36Z</time>
      </trkpt>
      <trkpt lat="42.85168334" lon="13.58940828">
        <ele>154.00000</ele>
        <time>2024-02-16T12:07:37Z</time>
      </trkpt>
      <trkpt lat="42.85170279" lon="13.58932262">
        <ele>154.00000</ele>
        <time>2024-02-16T12:07:38Z</time>
      </trkpt>
      <trkpt lat="42.85172500" lon="13.58923897">
        <ele>154.00000</ele>
        <time>2024-02-16T12:07:39Z</time>
      </trkpt>
      <trkpt lat="42.85174378" lon="13.58916093">
        <ele>154.00000</ele>
        <time>2024-02-16T12:07:40Z</time>
      </trkpt>
      <trkpt lat="42.85176549" lon="13.58907896">
        <ele>154.00000</ele>
        <time>2024-02-16T12:07:41Z</time>
      </trkpt>
      <trkpt lat="42.85179357" lon="13.58899447">
        <ele>154.00000</ele>
        <time>2024-02-16T12:07:42Z</time>
      </trkpt>
      <trkpt lat="42.85180639" lon="13.58891626">
        <ele>154.00000</ele>
        <time>2024-02-16T12:07:43Z</time>
      </trkpt>
      <trkpt lat="42.85182466" lon="13.58883965">
        <ele>154.00000</ele>
        <time>2024-02-16T12:07:44Z</time>
      </trkpt>
      <trkpt lat="42.85185014" lon="13.58875692">
        <ele>153.00000</ele>
        <time>2024-02-16T12:07:45Z</time>
      </trkpt>
      <trkpt lat="42.85187101" lon="13.58867461">
        <ele>152.00000</ele>
        <time>2024-02-16T12:07:46Z</time>
      </trkpt>
      <trkpt lat="42.85189155" lon="13.58859306">
        <ele>152.00000</ele>
        <time>2024-02-16T12:07:47Z</time>
      </trkpt>
      <trkpt lat="42.85191485" lon="13.58851242">
        <ele>151.00000</ele>
        <time>2024-02-16T12:07:48Z</time>
      </trkpt>
      <trkpt lat="42.85194846" lon="13.58842894">
        <ele>151.00000</ele>
        <time>2024-02-16T12:07:49Z</time>
      </trkpt>
      <trkpt lat="42.85198224" lon="13.58835266">
        <ele>151.00000</ele>
        <time>2024-02-16T12:07:50Z</time>
      </trkpt>
      <trkpt lat="42.85202281" lon="13.58828703">
        <ele>151.00000</ele>
        <time>2024-02-16T12:07:51Z</time>
      </trkpt>
      <trkpt lat="42.85207478" lon="13.58823515">
        <ele>151.00000</ele>
        <time>2024-02-16T12:07:52Z</time>
      </trkpt>
      <trkpt lat="42.85213488" lon="13.58820380">
        <ele>151.00000</ele>
        <time>2024-02-16T12:07:53Z</time>
      </trkpt>
      <trkpt lat="42.85219715" lon="13.58819098">
        <ele>151.00000</ele>
        <time>2024-02-16T12:07:54Z</time>
      </trkpt>
      <trkpt lat="42.85225767" lon="13.58818511">
        <ele>151.00000</ele>
        <time>2024-02-16T12:07:55Z</time>
      </trkpt>
      <trkpt lat="42.85232196" lon="13.58818125">
        <ele>152.00000</ele>
        <time>2024-02-16T12:07:56Z</time>
      </trkpt>
      <trkpt lat="42.85238709" lon="13.58818377">
        <ele>152.00000</ele>
        <time>2024-02-16T12:07:57Z</time>
      </trkpt>
      <trkpt lat="42.85245213" lon="13.58818695">
        <ele>153.00000</ele>
        <time>2024-02-16T12:07:58Z</time>
      </trkpt>
      <trkpt lat="42.85251768" lon="13.58818410">
        <ele>153.00000</ele>
        <time>2024-02-16T12:07:59Z</time>
      </trkpt>
      <trkpt lat="42.85258440" lon="13.58818042">
        <ele>153.00000</ele>
        <time>2024-02-16T12:08:00Z</time>
      </trkpt>
      <trkpt lat="42.85264986" lon="13.58817882">
        <ele>153.00000</ele>
        <time>2024-02-16T12:08:01Z</time>
      </trkpt>
      <trkpt lat="42.85271373" lon="13.58818234">
        <ele>154.00000</ele>
        <time>2024-02-16T12:08:02Z</time>
      </trkpt>
      <trkpt lat="42.85277953" lon="13.58818042">
        <ele>154.00000</ele>
        <time>2024-02-16T12:08:03Z</time>
      </trkpt>
      <trkpt lat="42.85284675" lon="13.58817849">
        <ele>154.00000</ele>
        <time>2024-02-16T12:08:04Z</time>
      </trkpt>
      <trkpt lat="42.85291741" lon="13.58817589">
        <ele>154.00000</ele>
        <time>2024-02-16T12:08:05Z</time>
      </trkpt>
      <trkpt lat="42.85298916" lon="13.58816533">
        <ele>154.00000</ele>
        <time>2024-02-16T12:08:06Z</time>
      </trkpt>
      <trkpt lat="42.85305638" lon="13.58815544">
        <ele>154.00000</ele>
        <time>2024-02-16T12:08:07Z</time>
      </trkpt>
      <trkpt lat="42.85312470" lon="13.58815024">
        <ele>154.00000</ele>
        <time>2024-02-16T12:08:08Z</time>
      </trkpt>
      <trkpt lat="42.85319292" lon="13.58814530">
        <ele>154.00000</ele>
        <time>2024-02-16T12:08:09Z</time>
      </trkpt>
      <trkpt lat="42.85326593" lon="13.58814127">
        <ele>153.00000</ele>
        <time>2024-02-16T12:08:10Z</time>
      </trkpt>
      <trkpt lat="42.85333919" lon="13.58813985">
        <ele>153.00000</ele>
        <time>2024-02-16T12:08:11Z</time>
      </trkpt>
      <trkpt lat="42.85340733" lon="13.58813934">
        <ele>153.00000</ele>
        <time>2024-02-16T12:08:12Z</time>
      </trkpt>
      <trkpt lat="42.85347732" lon="13.58813096">
        <ele>152.00000</ele>
        <time>2024-02-16T12:08:13Z</time>
      </trkpt>
      <trkpt lat="42.85354563" lon="13.58812325">
        <ele>151.00000</ele>
        <time>2024-02-16T12:08:14Z</time>
      </trkpt>
      <trkpt lat="42.85360816" lon="13.58811780">
        <ele>151.00000</ele>
        <time>2024-02-16T12:08:15Z</time>
      </trkpt>
      <trkpt lat="42.85366558" lon="13.58811328">
        <ele>150.00000</ele>
        <time>2024-02-16T12:08:16Z</time>
      </trkpt>
      <trkpt lat="42.85371805" lon="13.58811361">
        <ele>150.00000</ele>
        <time>2024-02-16T12:08:17Z</time>
      </trkpt>
      <trkpt lat="42.85376524" lon="13.58811780">
        <ele>150.00000</ele>
        <time>2024-02-16T12:08:18Z</time>
      </trkpt>
      <trkpt lat="42.85381025" lon="13.58812769">
        <ele>149.00000</ele>
        <time>2024-02-16T12:08:19Z</time>
      </trkpt>
      <trkpt lat="42.85385082" lon="13.58814035">
        <ele>149.00000</ele>
        <time>2024-02-16T12:08:20Z</time>
      </trkpt>
      <trkpt lat="42.85388996" lon="13.58815711">
        <ele>149.00000</ele>
        <time>2024-02-16T12:08:21Z</time>
      </trkpt>
      <trkpt lat="42.85392425" lon="13.58819240">
        <ele>149.00000</ele>
        <time>2024-02-16T12:08:22Z</time>
      </trkpt>
      <trkpt lat="42.85396230" lon="13.58823213">
        <ele>149.00000</ele>
        <time>2024-02-16T12:08:23Z</time>
      </trkpt>
      <trkpt lat="42.85400815" lon="13.58824362">
        <ele>149.00000</ele>
        <time>2024-02-16T12:08:24Z</time>
      </trkpt>
      <trkpt lat="42.85405961" lon="13.58823146">
        <ele>149.00000</ele>
        <time>2024-02-16T12:08:25Z</time>
      </trkpt>
      <trkpt lat="42.85410689" lon="13.58819961">
        <ele>149.00000</ele>
        <time>2024-02-16T12:08:26Z</time>
      </trkpt>
      <trkpt lat="42.85415500" lon="13.58815301">
        <ele>148.00000</ele>
        <time>2024-02-16T12:08:27Z</time>
      </trkpt>
      <trkpt lat="42.85418367" lon="13.58810112">
        <ele>148.00000</ele>
        <time>2024-02-16T12:08:28Z</time>
      </trkpt>
      <trkpt lat="42.85419448" lon="13.58805611">
        <ele>148.00000</ele>
        <time>2024-02-16T12:08:29Z</time>
      </trkpt>
      <trkpt lat="42.85419909" lon="13.58801890">
        <ele>148.00000</ele>
        <time>2024-02-16T12:08:30Z</time>
      </trkpt>
      <trkpt lat="42.85420462" lon="13.58798034">
        <ele>148.00000</ele>
        <time>2024-02-16T12:08:31Z</time>
      </trkpt>
      <trkpt lat="42.85420613" lon="13.58793156">
        <ele>148.00000</ele>
        <time>2024-02-16T12:08:32Z</time>
      </trkpt>
      <trkpt lat="42.85420185" lon="13.58787573">
        <ele>148.00000</ele>
        <time>2024-02-16T12:08:33Z</time>
      </trkpt>
      <trkpt lat="42.85418517" lon="13.58781932">
        <ele>148.00000</ele>
        <time>2024-02-16T12:08:34Z</time>
      </trkpt>
      <trkpt lat="42.85416087" lon="13.58775604">
        <ele>148.00000</ele>
        <time>2024-02-16T12:08:35Z</time>
      </trkpt>
      <trkpt lat="42.85413036" lon="13.58768446">
        <ele>148.00000</ele>
        <time>2024-02-16T12:08:36Z</time>
      </trkpt>
      <trkpt lat="42.85411351" lon="13.58760022">
        <ele>149.00000</ele>
        <time>2024-02-16T12:08:37Z</time>
      </trkpt>
      <trkpt lat="42.85410429" lon="13.58751238">
        <ele>149.00000</ele>
        <time>2024-02-16T12:08:38Z</time>
      </trkpt>
      <trkpt lat="42.85410043" lon="13.58741708">
        <ele>150.00000</ele>
        <time>2024-02-16T12:08:39Z</time>
      </trkpt>
      <trkpt lat="42.85409322" lon="13.58731792">
        <ele>150.00000</ele>
        <time>2024-02-16T12:08:40Z</time>
      </trkpt>
      <trkpt lat="42.85409088" lon="13.58721490">
        <ele>151.00000</ele>
        <time>2024-02-16T12:08:41Z</time>
      </trkpt>
      <trkpt lat="42.85408744" lon="13.58711038">
        <ele>151.00000</ele>
        <time>2024-02-16T12:08:42Z</time>
      </trkpt>
      <trkpt lat="42.85408543" lon="13.58700184">
        <ele>151.00000</ele>
        <time>2024-02-16T12:08:43Z</time>
      </trkpt>
      <trkpt lat="42.85408610" lon="13.58689094">
        <ele>150.00000</ele>
        <time>2024-02-16T12:08:44Z</time>
      </trkpt>
      <trkpt lat="42.85408769" lon="13.58678357">
        <ele>149.00000</ele>
        <time>2024-02-16T12:08:45Z</time>
      </trkpt>
      <trkpt lat="42.85409138" lon="13.58667821">
        <ele>147.00000</ele>
        <time>2024-02-16T12:08:46Z</time>
      </trkpt>
      <trkpt lat="42.85408082" lon="13.58657528">
        <ele>145.00000</ele>
        <time>2024-02-16T12:08:47Z</time>
      </trkpt>
      <trkpt lat="42.85407881" lon="13.58647369">
        <ele>143.00000</ele>
        <time>2024-02-16T12:08:48Z</time>
      </trkpt>
      <trkpt lat="42.85408216" lon="13.58637227">
        <ele>141.00000</ele>
        <time>2024-02-16T12:08:49Z</time>
      </trkpt>
      <trkpt lat="42.85408124" lon="13.58627303">
        <ele>140.00000</ele>
        <time>2024-02-16T12:08:50Z</time>
      </trkpt>
      <trkpt lat="42.85408115" lon="13.58617161">
        <ele>138.00000</ele>
        <time>2024-02-16T12:08:51Z</time>
      </trkpt>
      <trkpt lat="42.85407881" lon="13.58607245">
        <ele>137.00000</ele>
        <time>2024-02-16T12:08:52Z</time>
      </trkpt>
      <trkpt lat="42.85407336" lon="13.58597522">
        <ele>135.00000</ele>
        <time>2024-02-16T12:08:53Z</time>
      </trkpt>
      <trkpt lat="42.85406540" lon="13.58587875">
        <ele>133.00000</ele>
        <time>2024-02-16T12:08:54Z</time>
      </trkpt>
      <trkpt lat="42.85406196" lon="13.58577967">
        <ele>132.00000</ele>
        <time>2024-02-16T12:08:55Z</time>
      </trkpt>
      <trkpt lat="42.85405785" lon="13.58568177">
        <ele>131.00000</ele>
        <time>2024-02-16T12:08:56Z</time>
      </trkpt>
      <trkpt lat="42.85405693" lon="13.58558303">
        <ele>130.00000</ele>
        <time>2024-02-16T12:08:57Z</time>
      </trkpt>
      <trkpt lat="42.85405366" lon="13.58548731">
        <ele>131.00000</ele>
        <time>2024-02-16T12:08:58Z</time>
      </trkpt>
      <trkpt lat="42.85404847" lon="13.58539125">
        <ele>133.00000</ele>
        <time>2024-02-16T12:08:59Z</time>
      </trkpt>
      <trkpt lat="42.85404209" lon="13.58529553">
        <ele>136.00000</ele>
        <time>2024-02-16T12:09:00Z</time>
      </trkpt>
      <trkpt lat="42.85403463" lon="13.58520249">
        <ele>139.00000</ele>
        <time>2024-02-16T12:09:01Z</time>
      </trkpt>
      <trkpt lat="42.85402466" lon="13.58511197">
        <ele>142.00000</ele>
        <time>2024-02-16T12:09:02Z</time>
      </trkpt>
      <trkpt lat="42.85401921" lon="13.58502396">
        <ele>145.00000</ele>
        <time>2024-02-16T12:09:03Z</time>
      </trkpt>
      <trkpt lat="42.85401695" lon="13.58493846">
        <ele>148.00000</ele>
        <time>2024-02-16T12:09:04Z</time>
      </trkpt>
      <trkpt lat="42.85401469" lon="13.58485372">
        <ele>150.00000</ele>
        <time>2024-02-16T12:09:05Z</time>
      </trkpt>
      <trkpt lat="42.85401376" lon="13.58476873">
        <ele>153.00000</ele>
        <time>2024-02-16T12:09:06Z</time>
      </trkpt>
      <trkpt lat="42.85401410" lon="13.58468474">
        <ele>155.00000</ele>
        <time>2024-02-16T12:09:07Z</time>
      </trkpt>
      <trkpt lat="42.85401318" lon="13.58460310">
        <ele>157.00000</ele>
        <time>2024-02-16T12:09:08Z</time>
      </trkpt>
      <trkpt lat="42.85400865" lon="13.58452532">
        <ele>158.00000</ele>
        <time>2024-02-16T12:09:09Z</time>
      </trkpt>
      <trkpt lat="42.85400572" lon="13.58444955">
        <ele>160.00000</ele>
        <time>2024-02-16T12:09:10Z</time>
      </trkpt>
      <trkpt lat="42.85400111" lon="13.58437914">
        <ele>160.00000</ele>
        <time>2024-02-16T12:09:11Z</time>
      </trkpt>
      <trkpt lat="42.85399373" lon="13.58431267">
        <ele>160.00000</ele>
        <time>2024-02-16T12:09:12Z</time>
      </trkpt>
      <trkpt lat="42.85398258" lon="13.58425131">
        <ele>160.00000</ele>
        <time>2024-02-16T12:09:13Z</time>
      </trkpt>
      <trkpt lat="42.85397839" lon="13.58419273">
        <ele>160.00000</ele>
        <time>2024-02-16T12:09:14Z</time>
      </trkpt>
      <trkpt lat="42.85397848" lon="13.58413673">
        <ele>159.00000</ele>
        <time>2024-02-16T12:09:15Z</time>
      </trkpt>
      <trkpt lat="42.85398636" lon="13.58407856">
        <ele>158.00000</ele>
        <time>2024-02-16T12:09:16Z</time>
      </trkpt>
      <trkpt lat="42.85398736" lon="13.58402023">
        <ele>157.00000</ele>
        <time>2024-02-16T12:09:17Z</time>
      </trkpt>
      <trkpt lat="42.85398426" lon="13.58395837">
        <ele>157.00000</ele>
        <time>2024-02-16T12:09:18Z</time>
      </trkpt>
      <trkpt lat="42.85398124" lon="13.58389299">
        <ele>156.00000</ele>
        <time>2024-02-16T12:09:19Z</time>
      </trkpt>
      <trkpt lat="42.85397697" lon="13.58382543">
        <ele>155.00000</ele>
        <time>2024-02-16T12:09:20Z</time>
      </trkpt>
      <trkpt lat="42.85397227" lon="13.58374924">
        <ele>154.00000</ele>
        <time>2024-02-16T12:09:21Z</time>
      </trkpt>
      <trkpt lat="42.85396674" lon="13.58366542">
        <ele>153.00000</ele>
        <time>2024-02-16T12:09:22Z</time>
      </trkpt>
      <trkpt lat="42.85396004" lon="13.58357833">
        <ele>152.00000</ele>
        <time>2024-02-16T12:09:23Z</time>
      </trkpt>
      <trkpt lat="42.85395283" lon="13.58348689">
        <ele>151.00000</ele>
        <time>2024-02-16T12:09:24Z</time>
      </trkpt>
      <trkpt lat="42.85395677" lon="13.58339552">
        <ele>151.00000</ele>
        <time>2024-02-16T12:09:25Z</time>
      </trkpt>
      <trkpt lat="42.85395744" lon="13.58330341">
        <ele>150.00000</ele>
        <time>2024-02-16T12:09:26Z</time>
      </trkpt>
      <trkpt lat="42.85394956" lon="13.58321288">
        <ele>150.00000</ele>
        <time>2024-02-16T12:09:27Z</time>
      </trkpt>
      <trkpt lat="42.85393942" lon="13.58312387">
        <ele>149.00000</ele>
        <time>2024-02-16T12:09:28Z</time>
      </trkpt>
      <trkpt lat="42.85394101" lon="13.58303342">
        <ele>149.00000</ele>
        <time>2024-02-16T12:09:29Z</time>
      </trkpt>
      <trkpt lat="42.85394662" lon="13.58293661">
        <ele>149.00000</ele>
        <time>2024-02-16T12:09:30Z</time>
      </trkpt>
      <trkpt lat="42.85394947" lon="13.58284064">
        <ele>149.00000</ele>
        <time>2024-02-16T12:09:31Z</time>
      </trkpt>
      <trkpt lat="42.85395300" lon="13.58274140">
        <ele>149.00000</ele>
        <time>2024-02-16T12:09:32Z</time>
      </trkpt>
      <trkpt lat="42.85394771" lon="13.58264090">
        <ele>149.00000</ele>
        <time>2024-02-16T12:09:33Z</time>
      </trkpt>
      <trkpt lat="42.85394285" lon="13.58254208">
        <ele>149.00000</ele>
        <time>2024-02-16T12:09:34Z</time>
      </trkpt>
      <trkpt lat="42.85393187" lon="13.58244116">
        <ele>150.00000</ele>
        <time>2024-02-16T12:09:35Z</time>
      </trkpt>
      <trkpt lat="42.85392743" lon="13.58233815">
        <ele>150.00000</ele>
        <time>2024-02-16T12:09:36Z</time>
      </trkpt>
      <trkpt lat="42.85392533" lon="13.58223471">
        <ele>151.00000</ele>
        <time>2024-02-16T12:09:37Z</time>
      </trkpt>
      <trkpt lat="42.85392274" lon="13.58213245">
        <ele>152.00000</ele>
        <time>2024-02-16T12:09:38Z</time>
      </trkpt>
      <trkpt lat="42.85391838" lon="13.58203028">
        <ele>153.00000</ele>
        <time>2024-02-16T12:09:39Z</time>
      </trkpt>
      <trkpt lat="42.85391888" lon="13.58193037">
        <ele>154.00000</ele>
        <time>2024-02-16T12:09:40Z</time>
      </trkpt>
      <trkpt lat="42.85391796" lon="13.58182936">
        <ele>155.00000</ele>
        <time>2024-02-16T12:09:41Z</time>
      </trkpt>
      <trkpt lat="42.85391184" lon="13.58172694">
        <ele>156.00000</ele>
        <time>2024-02-16T12:09:42Z</time>
      </trkpt>
      <trkpt lat="42.85390564" lon="13.58162677">
        <ele>156.00000</ele>
        <time>2024-02-16T12:09:43Z</time>
      </trkpt>
      <trkpt lat="42.85390664" lon="13.58152468">
        <ele>157.00000</ele>
        <time>2024-02-16T12:09:44Z</time>
      </trkpt>
      <trkpt lat="42.85391042" lon="13.58142217">
        <ele>157.00000</ele>
        <time>2024-02-16T12:09:45Z</time>
      </trkpt>
      <trkpt lat="42.85391285" lon="13.58132109">
        <ele>157.00000</ele>
        <time>2024-02-16T12:09:46Z</time>
      </trkpt>
      <trkpt lat="42.85391150" lon="13.58122453">
        <ele>158.00000</ele>
        <time>2024-02-16T12:09:47Z</time>
      </trkpt>
      <trkpt lat="42.85390857" lon="13.58113316">
        <ele>158.00000</ele>
        <time>2024-02-16T12:09:48Z</time>
      </trkpt>
      <trkpt lat="42.85391218" lon="13.58103669">
        <ele>158.00000</ele>
        <time>2024-02-16T12:09:49Z</time>
      </trkpt>
      <trkpt lat="42.85391838" lon="13.58093711">
        <ele>158.00000</ele>
        <time>2024-02-16T12:09:50Z</time>
      </trkpt>
      <trkpt lat="42.85392290" lon="13.58083804">
        <ele>158.00000</ele>
        <time>2024-02-16T12:09:51Z</time>
      </trkpt>
      <trkpt lat="42.85392592" lon="13.58073770">
        <ele>158.00000</ele>
        <time>2024-02-16T12:09:52Z</time>
      </trkpt>
      <trkpt lat="42.85392533" lon="13.58063796">
        <ele>158.00000</ele>
        <time>2024-02-16T12:09:53Z</time>
      </trkpt>
      <trkpt lat="42.85392969" lon="13.58054098">
        <ele>158.00000</ele>
        <time>2024-02-16T12:09:54Z</time>
      </trkpt>
      <trkpt lat="42.85393824" lon="13.58044819">
        <ele>157.00000</ele>
        <time>2024-02-16T12:09:55Z</time>
      </trkpt>
      <trkpt lat="42.85394604" lon="13.58035909">
        <ele>157.00000</ele>
        <time>2024-02-16T12:09:56Z</time>
      </trkpt>
      <trkpt lat="42.85395274" lon="13.58026966">
        <ele>157.00000</ele>
        <time>2024-02-16T12:09:57Z</time>
      </trkpt>
      <trkpt lat="42.85394352" lon="13.58017369">
        <ele>156.00000</ele>
        <time>2024-02-16T12:09:58Z</time>
      </trkpt>
      <trkpt lat="42.85392743" lon="13.58008014">
        <ele>155.00000</ele>
        <time>2024-02-16T12:09:59Z</time>
      </trkpt>
      <trkpt lat="42.85392072" lon="13.57998551">
        <ele>154.00000</ele>
        <time>2024-02-16T12:10:00Z</time>
      </trkpt>
      <trkpt lat="42.85391586" lon="13.57988493">
        <ele>154.00000</ele>
        <time>2024-02-16T12:10:01Z</time>
      </trkpt>
      <trkpt lat="42.85390790" lon="13.57978602">
        <ele>154.00000</ele>
        <time>2024-02-16T12:10:02Z</time>
      </trkpt>
      <trkpt lat="42.85390203" lon="13.57968527">
        <ele>154.00000</ele>
        <time>2024-02-16T12:10:03Z</time>
      </trkpt>
      <trkpt lat="42.85389541" lon="13.57958737">
        <ele>154.00000</ele>
        <time>2024-02-16T12:10:04Z</time>
      </trkpt>
      <trkpt lat="42.85388854" lon="13.57949023">
        <ele>154.00000</ele>
        <time>2024-02-16T12:10:05Z</time>
      </trkpt>
      <trkpt lat="42.85387110" lon="13.57939685">
        <ele>155.00000</ele>
        <time>2024-02-16T12:10:06Z</time>
      </trkpt>
      <trkpt lat="42.85384990" lon="13.57931111">
        <ele>155.00000</ele>
        <time>2024-02-16T12:10:07Z</time>
      </trkpt>
      <trkpt lat="42.85383649" lon="13.57922234">
        <ele>156.00000</ele>
        <time>2024-02-16T12:10:08Z</time>
      </trkpt>
      <trkpt lat="42.85382551" lon="13.57913743">
        <ele>156.00000</ele>
        <time>2024-02-16T12:10:09Z</time>
      </trkpt>
      <trkpt lat="42.85380313" lon="13.57906191">
        <ele>156.00000</ele>
        <time>2024-02-16T12:10:10Z</time>
      </trkpt>
      <trkpt lat="42.85379902" lon="13.57898270">
        <ele>157.00000</ele>
        <time>2024-02-16T12:10:11Z</time>
      </trkpt>
      <trkpt lat="42.85379651" lon="13.57889964">
        <ele>157.00000</ele>
        <time>2024-02-16T12:10:12Z</time>
      </trkpt>
      <trkpt lat="42.85379659" lon="13.57881959">
        <ele>157.00000</ele>
        <time>2024-02-16T12:10:13Z</time>
      </trkpt>
      <trkpt lat="42.85379692" lon="13.57873770">
        <ele>157.00000</ele>
        <time>2024-02-16T12:10:14Z</time>
      </trkpt>
      <trkpt lat="42.85379617" lon="13.57865908">
        <ele>158.00000</ele>
        <time>2024-02-16T12:10:15Z</time>
      </trkpt>
      <trkpt lat="42.85379391" lon="13.57857844">
        <ele>158.00000</ele>
        <time>2024-02-16T12:10:16Z</time>
      </trkpt>
      <trkpt lat="42.85378837" lon="13.57850099">
        <ele>158.00000</ele>
        <time>2024-02-16T12:10:17Z</time>
      </trkpt>
      <trkpt lat="42.85379935" lon="13.57842631">
        <ele>158.00000</ele>
        <time>2024-02-16T12:10:18Z</time>
      </trkpt>
      <trkpt lat="42.85382760" lon="13.57836026">
        <ele>158.00000</ele>
        <time>2024-02-16T12:10:19Z</time>
      </trkpt>
      <trkpt lat="42.85377086" lon="13.57829966">
        <ele>158.00000</ele>
        <time>2024-02-16T12:10:20Z</time>
      </trkpt>
      <trkpt lat="42.85372559" lon="13.57824057">
        <ele>158.00000</ele>
        <time>2024-02-16T12:10:21Z</time>
      </trkpt>
      <trkpt lat="42.85368561" lon="13.57817435">
        <ele>157.00000</ele>
        <time>2024-02-16T12:10:22Z</time>
      </trkpt>
      <trkpt lat="42.85365317" lon="13.57809975">
        <ele>157.00000</ele>
        <time>2024-02-16T12:10:23Z</time>
      </trkpt>
      <trkpt lat="42.85363499" lon="13.57802423">
        <ele>157.00000</ele>
        <time>2024-02-16T12:10:24Z</time>
      </trkpt>
      <trkpt lat="42.85362007" lon="13.57794477">
        <ele>157.00000</ele>
        <time>2024-02-16T12:10:25Z</time>
      </trkpt>
      <trkpt lat="42.85362132" lon="13.57786598">
        <ele>157.00000</ele>
        <time>2024-02-16T12:10:26Z</time>
      </trkpt>
      <trkpt lat="42.85362007" lon="13.57779080">
        <ele>157.00000</ele>
        <time>2024-02-16T12:10:27Z</time>
      </trkpt>
      <trkpt lat="42.85360950" lon="13.57771863">
        <ele>157.00000</ele>
        <time>2024-02-16T12:10:28Z</time>
      </trkpt>
      <trkpt lat="42.85360045" lon="13.57764135">
        <ele>157.00000</ele>
        <time>2024-02-16T12:10:29Z</time>
      </trkpt>
      <trkpt lat="42.85358050" lon="13.57756935">
        <ele>157.00000</ele>
        <time>2024-02-16T12:10:30Z</time>
      </trkpt>
      <trkpt lat="42.85356215" lon="13.57750237">
        <ele>157.00000</ele>
        <time>2024-02-16T12:10:31Z</time>
      </trkpt>
      <trkpt lat="42.85355251" lon="13.57742484">
        <ele>157.00000</ele>
        <time>2024-02-16T12:10:32Z</time>
      </trkpt>
      <trkpt lat="42.85354605" lon="13.57733893">
        <ele>157.00000</ele>
        <time>2024-02-16T12:10:33Z</time>
      </trkpt>
      <trkpt lat="42.85353499" lon="13.57726156">
        <ele>158.00000</ele>
        <time>2024-02-16T12:10:34Z</time>
      </trkpt>
      <trkpt lat="42.85354572" lon="13.57718151">
        <ele>158.00000</ele>
        <time>2024-02-16T12:10:35Z</time>
      </trkpt>
      <trkpt lat="42.85353046" lon="13.57710641">
        <ele>159.00000</ele>
        <time>2024-02-16T12:10:36Z</time>
      </trkpt>
      <trkpt lat="42.85351403" lon="13.57703349">
        <ele>159.00000</ele>
        <time>2024-02-16T12:10:37Z</time>
      </trkpt>
      <trkpt lat="42.85351613" lon="13.57696325">
        <ele>159.00000</ele>
        <time>2024-02-16T12:10:38Z</time>
      </trkpt>
      <trkpt lat="42.85351697" lon="13.57690181">
        <ele>160.00000</ele>
        <time>2024-02-16T12:10:39Z</time>
      </trkpt>
      <trkpt lat="42.85351655" lon="13.57683937">
        <ele>160.00000</ele>
        <time>2024-02-16T12:10:40Z</time>
      </trkpt>
      <trkpt lat="42.85352225" lon="13.57677876">
        <ele>161.00000</ele>
        <time>2024-02-16T12:10:41Z</time>
      </trkpt>
      <trkpt lat="42.85353558" lon="13.57672068">
        <ele>161.00000</ele>
        <time>2024-02-16T12:10:42Z</time>
      </trkpt>
      <trkpt lat="42.85355335" lon="13.57667449">
        <ele>161.00000</ele>
        <time>2024-02-16T12:10:43Z</time>
      </trkpt>
      <trkpt lat="42.85355527" lon="13.57663309">
        <ele>162.00000</ele>
        <time>2024-02-16T12:10:44Z</time>
      </trkpt>
      <trkpt lat="42.85355972" lon="13.57659696">
        <ele>162.00000</ele>
        <time>2024-02-16T12:10:45Z</time>
      </trkpt>
      <trkpt lat="42.85356282" lon="13.57656721">
        <ele>162.00000</ele>
        <time>2024-02-16T12:10:46Z</time>
      </trkpt>
      <trkpt lat="42.85357128" lon="13.57653493">
        <ele>162.00000</ele>
        <time>2024-02-16T12:10:47Z</time>
      </trkpt>
      <trkpt lat="42.85358067" lon="13.57649998">
        <ele>162.00000</ele>
        <time>2024-02-16T12:10:48Z</time>
      </trkpt>
      <trkpt lat="42.85358562" lon="13.57645933">
        <ele>162.00000</ele>
        <time>2024-02-16T12:10:49Z</time>
      </trkpt>
      <trkpt lat="42.85358201" lon="13.57641080">
        <ele>162.00000</ele>
        <time>2024-02-16T12:10:50Z</time>
      </trkpt>
      <trkpt lat="42.85357682" lon="13.57635590">
        <ele>162.00000</ele>
        <time>2024-02-16T12:10:51Z</time>
      </trkpt>
      <trkpt lat="42.85358704" lon="13.57628398">
        <ele>161.00000</ele>
        <time>2024-02-16T12:10:52Z</time>
      </trkpt>
      <trkpt lat="42.85360347" lon="13.57619974">
        <ele>161.00000</ele>
        <time>2024-02-16T12:10:53Z</time>
      </trkpt>
      <trkpt lat="42.85361856" lon="13.57611894">
        <ele>160.00000</ele>
        <time>2024-02-16T12:10:54Z</time>
      </trkpt>
      <trkpt lat="42.85362711" lon="13.57603554">
        <ele>160.00000</ele>
        <time>2024-02-16T12:10:55Z</time>
      </trkpt>
      <trkpt lat="42.85361571" lon="13.57595600">
        <ele>160.00000</ele>
        <time>2024-02-16T12:10:56Z</time>
      </trkpt>
      <trkpt lat="42.85358838" lon="13.57587612">
        <ele>161.00000</ele>
        <time>2024-02-16T12:10:57Z</time>
      </trkpt>
      <trkpt lat="42.85357221" lon="13.57578618">
        <ele>161.00000</ele>
        <time>2024-02-16T12:10:58Z</time>
      </trkpt>
      <trkpt lat="42.85358210" lon="13.57569976">
        <ele>161.00000</ele>
        <time>2024-02-16T12:10:59Z</time>
      </trkpt>
      <trkpt lat="42.85359048" lon="13.57560857">
        <ele>161.00000</ele>
        <time>2024-02-16T12:11:00Z</time>
      </trkpt>
      <trkpt lat="42.85360255" lon="13.57551620">
        <ele>162.00000</ele>
        <time>2024-02-16T12:11:01Z</time>
      </trkpt>
      <trkpt lat="42.85361143" lon="13.57542257">
        <ele>162.00000</ele>
        <time>2024-02-16T12:11:02Z</time>
      </trkpt>
      <trkpt lat="42.85362007" lon="13.57532878">
        <ele>163.00000</ele>
        <time>2024-02-16T12:11:03Z</time>
      </trkpt>
      <trkpt lat="42.85362501" lon="13.57523985">
        <ele>163.00000</ele>
        <time>2024-02-16T12:11:04Z</time>
      </trkpt>
      <trkpt lat="42.85361696" lon="13.57514983">
        <ele>163.00000</ele>
        <time>2024-02-16T12:11:05Z</time>
      </trkpt>
      <trkpt lat="42.85361252" lon="13.57506911">
        <ele>163.00000</ele>
        <time>2024-02-16T12:11:06Z</time>
      </trkpt>
      <trkpt lat="42.85360096" lon="13.57499878">
        <ele>163.00000</ele>
        <time>2024-02-16T12:11:07Z</time>
      </trkpt>
      <trkpt lat="42.85359475" lon="13.57492284">
        <ele>163.00000</ele>
        <time>2024-02-16T12:11:08Z</time>
      </trkpt>
      <trkpt lat="42.85357514" lon="13.57484581">
        <ele>163.00000</ele>
        <time>2024-02-16T12:11:09Z</time>
      </trkpt>
      <trkpt lat="42.85355083" lon="13.57476954">
        <ele>163.00000</ele>
        <time>2024-02-16T12:11:10Z</time>
      </trkpt>
      <trkpt lat="42.85354387" lon="13.57469041">
        <ele>163.00000</ele>
        <time>2024-02-16T12:11:11Z</time>
      </trkpt>
      <trkpt lat="42.85355343" lon="13.57460349">
        <ele>162.00000</ele>
        <time>2024-02-16T12:11:12Z</time>
      </trkpt>
      <trkpt lat="42.85357078" lon="13.57451758">
        <ele>162.00000</ele>
        <time>2024-02-16T12:11:13Z</time>
      </trkpt>
      <trkpt lat="42.85358654" lon="13.57443166">
        <ele>161.00000</ele>
        <time>2024-02-16T12:11:14Z</time>
      </trkpt>
      <trkpt lat="42.85358930" lon="13.57435656">
        <ele>161.00000</ele>
        <time>2024-02-16T12:11:15Z</time>
      </trkpt>
      <trkpt lat="42.85358268" lon="13.57428808">
        <ele>161.00000</ele>
        <time>2024-02-16T12:11:16Z</time>
      </trkpt>
      <trkpt lat="42.85359224" lon="13.57422052">
        <ele>161.00000</ele>
        <time>2024-02-16T12:11:17Z</time>
      </trkpt>
      <trkpt lat="42.85359132" lon="13.57416152">
        <ele>161.00000</ele>
        <time>2024-02-16T12:11:18Z</time>
      </trkpt>
      <trkpt lat="42.85359199" lon="13.57411039">
        <ele>162.00000</ele>
        <time>2024-02-16T12:11:19Z</time>
      </trkpt>
      <trkpt lat="42.85359039" lon="13.57406076">
        <ele>162.00000</ele>
        <time>2024-02-16T12:11:20Z</time>
      </trkpt>
      <trkpt lat="42.85359199" lon="13.57400620">
        <ele>162.00000</ele>
        <time>2024-02-16T12:11:21Z</time>
      </trkpt>
      <trkpt lat="42.85358889" lon="13.57393965">
        <ele>162.00000</ele>
        <time>2024-02-16T12:11:22Z</time>
      </trkpt>
      <trkpt lat="42.85358461" lon="13.57386354">
        <ele>163.00000</ele>
        <time>2024-02-16T12:11:23Z</time>
      </trkpt>
      <trkpt lat="42.85358394" lon="13.57378140">
        <ele>163.00000</ele>
        <time>2024-02-16T12:11:24Z</time>
      </trkpt>
      <trkpt lat="42.85357958" lon="13.57369406">
        <ele>164.00000</ele>
        <time>2024-02-16T12:11:25Z</time>
      </trkpt>
      <trkpt lat="42.85357631" lon="13.57360219">
        <ele>164.00000</ele>
        <time>2024-02-16T12:11:26Z</time>
      </trkpt>
      <trkpt lat="42.85358478" lon="13.57351083">
        <ele>164.00000</ele>
        <time>2024-02-16T12:11:27Z</time>
      </trkpt>
      <trkpt lat="42.85359442" lon="13.57342190">
        <ele>164.00000</ele>
        <time>2024-02-16T12:11:28Z</time>
      </trkpt>
      <trkpt lat="42.85361202" lon="13.57333431">
        <ele>164.00000</ele>
        <time>2024-02-16T12:11:29Z</time>
      </trkpt>
      <trkpt lat="42.85362736" lon="13.57324889">
        <ele>164.00000</ele>
        <time>2024-02-16T12:11:30Z</time>
      </trkpt>
      <trkpt lat="42.85363842" lon="13.57316114">
        <ele>164.00000</ele>
        <time>2024-02-16T12:11:31Z</time>
      </trkpt>
      <trkpt lat="42.85366524" lon="13.57307271">
        <ele>163.00000</ele>
        <time>2024-02-16T12:11:32Z</time>
      </trkpt>
      <trkpt lat="42.85368553" lon="13.57298688">
        <ele>163.00000</ele>
        <time>2024-02-16T12:11:33Z</time>
      </trkpt>
      <trkpt lat="42.85370397" lon="13.57290188">
        <ele>162.00000</ele>
        <time>2024-02-16T12:11:34Z</time>
      </trkpt>
      <trkpt lat="42.85371621" lon="13.57281614">
        <ele>162.00000</ele>
        <time>2024-02-16T12:11:35Z</time>
      </trkpt>
      <trkpt lat="42.85373020" lon="13.57272746">
        <ele>162.00000</ele>
        <time>2024-02-16T12:11:36Z</time>
      </trkpt>
      <trkpt lat="42.85374521" lon="13.57263886">
        <ele>162.00000</ele>
        <time>2024-02-16T12:11:37Z</time>
      </trkpt>
      <trkpt lat="42.85377195" lon="13.57254842">
        <ele>161.00000</ele>
        <time>2024-02-16T12:11:38Z</time>
      </trkpt>
      <trkpt lat="42.85379642" lon="13.57245747">
        <ele>161.00000</ele>
        <time>2024-02-16T12:11:39Z</time>
      </trkpt>
      <trkpt lat="42.85380623" lon="13.57236720">
        <ele>161.00000</ele>
        <time>2024-02-16T12:11:40Z</time>
      </trkpt>
      <trkpt lat="42.85381528" lon="13.57227827">
        <ele>161.00000</ele>
        <time>2024-02-16T12:11:41Z</time>
      </trkpt>
      <trkpt lat="42.85382559" lon="13.57218934">
        <ele>161.00000</ele>
        <time>2024-02-16T12:11:42Z</time>
      </trkpt>
      <trkpt lat="42.85383749" lon="13.57209965">
        <ele>162.00000</ele>
        <time>2024-02-16T12:11:43Z</time>
      </trkpt>
      <trkpt lat="42.85386088" lon="13.57201566">
        <ele>162.00000</ele>
        <time>2024-02-16T12:11:44Z</time>
      </trkpt>
      <trkpt lat="42.85388460" lon="13.57192807">
        <ele>163.00000</ele>
        <time>2024-02-16T12:11:45Z</time>
      </trkpt>
      <trkpt lat="42.85390069" lon="13.57183805">
        <ele>163.00000</ele>
        <time>2024-02-16T12:11:46Z</time>
      </trkpt>
      <trkpt lat="42.85390790" lon="13.57174686">
        <ele>164.00000</ele>
        <time>2024-02-16T12:11:47Z</time>
      </trkpt>
      <trkpt lat="42.85391779" lon="13.57165960">
        <ele>164.00000</ele>
        <time>2024-02-16T12:11:48Z</time>
      </trkpt>
      <trkpt lat="42.85393665" lon="13.57157235">
        <ele>164.00000</ele>
        <time>2024-02-16T12:11:49Z</time>
      </trkpt>
      <trkpt lat="42.85395719" lon="13.57148031">
        <ele>163.00000</ele>
        <time>2024-02-16T12:11:50Z</time>
      </trkpt>
      <trkpt lat="42.85396507" lon="13.57138342">
        <ele>163.00000</ele>
        <time>2024-02-16T12:11:51Z</time>
      </trkpt>
      <trkpt lat="42.85396867" lon="13.57127889">
        <ele>163.00000</ele>
        <time>2024-02-16T12:11:52Z</time>
      </trkpt>
      <trkpt lat="42.85396942" lon="13.57118074">
        <ele>162.00000</ele>
        <time>2024-02-16T12:11:53Z</time>
      </trkpt>
      <trkpt lat="42.85397051" lon="13.57108619">
        <ele>162.00000</ele>
        <time>2024-02-16T12:11:54Z</time>
      </trkpt>
      <trkpt lat="42.85397252" lon="13.57099198">
        <ele>161.00000</ele>
        <time>2024-02-16T12:11:55Z</time>
      </trkpt>
      <trkpt lat="42.85397998" lon="13.57090079">
        <ele>161.00000</ele>
        <time>2024-02-16T12:11:56Z</time>
      </trkpt>
      <trkpt lat="42.85398862" lon="13.57080071">
        <ele>161.00000</ele>
        <time>2024-02-16T12:11:57Z</time>
      </trkpt>
      <trkpt lat="42.85400404" lon="13.57069962">
        <ele>161.00000</ele>
        <time>2024-02-16T12:11:58Z</time>
      </trkpt>
      <trkpt lat="42.85402156" lon="13.57060474">
        <ele>161.00000</ele>
        <time>2024-02-16T12:11:59Z</time>
      </trkpt>
      <trkpt lat="42.85403924" lon="13.57050499">
        <ele>161.00000</ele>
        <time>2024-02-16T12:12:00Z</time>
      </trkpt>
      <trkpt lat="42.85404855" lon="13.57040885">
        <ele>162.00000</ele>
        <time>2024-02-16T12:12:01Z</time>
      </trkpt>
      <trkpt lat="42.85404838" lon="13.57030869">
        <ele>162.00000</ele>
        <time>2024-02-16T12:12:02Z</time>
      </trkpt>
      <trkpt lat="42.85405559" lon="13.57019838">
        <ele>162.00000</ele>
        <time>2024-02-16T12:12:03Z</time>
      </trkpt>
      <trkpt lat="42.85404385" lon="13.57008514">
        <ele>162.00000</ele>
        <time>2024-02-16T12:12:04Z</time>
      </trkpt>
      <trkpt lat="42.85404964" lon="13.56997534">
        <ele>162.00000</ele>
        <time>2024-02-16T12:12:05Z</time>
      </trkpt>
      <trkpt lat="42.85404863" lon="13.56987669">
        <ele>162.00000</ele>
        <time>2024-02-16T12:12:06Z</time>
      </trkpt>
      <trkpt lat="42.85405467" lon="13.56977334">
        <ele>162.00000</ele>
        <time>2024-02-16T12:12:07Z</time>
      </trkpt>
      <trkpt lat="42.85406288" lon="13.56966789">
        <ele>162.00000</ele>
        <time>2024-02-16T12:12:08Z</time>
      </trkpt>
      <trkpt lat="42.85407168" lon="13.56955541">
        <ele>161.00000</ele>
        <time>2024-02-16T12:12:09Z</time>
      </trkpt>
      <trkpt lat="42.85408183" lon="13.56944653">
        <ele>161.00000</ele>
        <time>2024-02-16T12:12:10Z</time>
      </trkpt>
      <trkpt lat="42.85409289" lon="13.56934041">
        <ele>160.00000</ele>
        <time>2024-02-16T12:12:11Z</time>
      </trkpt>
      <trkpt lat="42.85409213" lon="13.56923446">
        <ele>160.00000</ele>
        <time>2024-02-16T12:12:12Z</time>
      </trkpt>
      <trkpt lat="42.85410169" lon="13.56912768">
        <ele>159.00000</ele>
        <time>2024-02-16T12:12:13Z</time>
      </trkpt>
      <trkpt lat="42.85411695" lon="13.56902089">
        <ele>158.00000</ele>
        <time>2024-02-16T12:12:14Z</time>
      </trkpt>
      <trkpt lat="42.85413279" lon="13.56891713">
        <ele>158.00000</ele>
        <time>2024-02-16T12:12:15Z</time>
      </trkpt>
      <trkpt lat="42.85414637" lon="13.56878972">
        <ele>157.00000</ele>
        <time>2024-02-16T12:12:16Z</time>
      </trkpt>
      <trkpt lat="42.85416028" lon="13.56870624">
        <ele>156.00000</ele>
        <time>2024-02-16T12:12:17Z</time>
      </trkpt>
      <trkpt lat="42.85418207" lon="13.56859995">
        <ele>156.00000</ele>
        <time>2024-02-16T12:12:18Z</time>
      </trkpt>
      <trkpt lat="42.85420361" lon="13.56849451">
        <ele>155.00000</ele>
        <time>2024-02-16T12:12:19Z</time>
      </trkpt>
      <trkpt lat="42.85422842" lon="13.56838982">
        <ele>155.00000</ele>
        <time>2024-02-16T12:12:20Z</time>
      </trkpt>
      <trkpt lat="42.85425139" lon="13.56828144">
        <ele>155.00000</ele>
        <time>2024-02-16T12:12:21Z</time>
      </trkpt>
      <trkpt lat="42.85427645" lon="13.56817332">
        <ele>155.00000</ele>
        <time>2024-02-16T12:12:22Z</time>
      </trkpt>
      <trkpt lat="42.85431778" lon="13.56807106">
        <ele>155.00000</ele>
        <time>2024-02-16T12:12:23Z</time>
      </trkpt>
      <trkpt lat="42.85436463" lon="13.56797173">
        <ele>155.00000</ele>
        <time>2024-02-16T12:12:24Z</time>
      </trkpt>
      <trkpt lat="42.85441065" lon="13.56787794">
        <ele>156.00000</ele>
        <time>2024-02-16T12:12:25Z</time>
      </trkpt>
      <trkpt lat="42.85445901" lon="13.56778766">
        <ele>157.00000</ele>
        <time>2024-02-16T12:12:26Z</time>
      </trkpt>
      <trkpt lat="42.85450922" lon="13.56770368">
        <ele>157.00000</ele>
        <time>2024-02-16T12:12:27Z</time>
      </trkpt>
      <trkpt lat="42.85456194" lon="13.56763101">
        <ele>158.00000</ele>
        <time>2024-02-16T12:12:28Z</time>
      </trkpt>
      <trkpt lat="42.85461978" lon="13.56755666">
        <ele>158.00000</ele>
        <time>2024-02-16T12:12:29Z</time>
      </trkpt>
      <trkpt lat="42.85467216" lon="13.56747267">
        <ele>159.00000</ele>
        <time>2024-02-16T12:12:30Z</time>
      </trkpt>
      <trkpt lat="42.85473721" lon="13.56737150">
        <ele>159.00000</ele>
        <time>2024-02-16T12:12:31Z</time>
      </trkpt>
      <trkpt lat="42.85478532" lon="13.56727930">
        <ele>159.00000</ele>
        <time>2024-02-16T12:12:32Z</time>
      </trkpt>
      <trkpt lat="42.85482396" lon="13.56717973">
        <ele>158.00000</ele>
        <time>2024-02-16T12:12:33Z</time>
      </trkpt>
      <trkpt lat="42.85484977" lon="13.56707319">
        <ele>158.00000</ele>
        <time>2024-02-16T12:12:34Z</time>
      </trkpt>
      <trkpt lat="42.85486059" lon="13.56695744">
        <ele>158.00000</ele>
        <time>2024-02-16T12:12:35Z</time>
      </trkpt>
      <trkpt lat="42.85484969" lon="13.56684948">
        <ele>158.00000</ele>
        <time>2024-02-16T12:12:36Z</time>
      </trkpt>
      <trkpt lat="42.85484005" lon="13.56674269">
        <ele>158.00000</ele>
        <time>2024-02-16T12:12:37Z</time>
      </trkpt>
      <trkpt lat="42.85482295" lon="13.56664404">
        <ele>158.00000</ele>
        <time>2024-02-16T12:12:38Z</time>
      </trkpt>
      <trkpt lat="42.85480787" lon="13.56654706">
        <ele>158.00000</ele>
        <time>2024-02-16T12:12:39Z</time>
      </trkpt>
      <trkpt lat="42.85479043" lon="13.56645377">
        <ele>158.00000</ele>
        <time>2024-02-16T12:12:40Z</time>
      </trkpt>
      <trkpt lat="42.85477090" lon="13.56636735">
        <ele>158.00000</ele>
        <time>2024-02-16T12:12:41Z</time>
      </trkpt>
      <trkpt lat="42.85475196" lon="13.56628429">
        <ele>158.00000</ele>
        <time>2024-02-16T12:12:42Z</time>
      </trkpt>
      <trkpt lat="42.85474140" lon="13.56619812">
        <ele>158.00000</ele>
        <time>2024-02-16T12:12:43Z</time>
      </trkpt>
      <trkpt lat="42.85472857" lon="13.56611338">
        <ele>158.00000</ele>
        <time>2024-02-16T12:12:44Z</time>
      </trkpt>
      <trkpt lat="42.85471474" lon="13.56603082">
        <ele>159.00000</ele>
        <time>2024-02-16T12:12:45Z</time>
      </trkpt>
      <trkpt lat="42.85469924" lon="13.56594868">
        <ele>159.00000</ele>
        <time>2024-02-16T12:12:46Z</time>
      </trkpt>
      <trkpt lat="42.85468239" lon="13.56586385">
        <ele>159.00000</ele>
        <time>2024-02-16T12:12:47Z</time>
      </trkpt>
      <trkpt lat="42.85466537" lon="13.56577634">
        <ele>159.00000</ele>
        <time>2024-02-16T12:12:48Z</time>
      </trkpt>
      <trkpt lat="42.85464811" lon="13.56568548">
        <ele>159.00000</ele>
        <time>2024-02-16T12:12:49Z</time>
      </trkpt>
      <trkpt lat="42.85463201" lon="13.56559504">
        <ele>159.00000</ele>
        <time>2024-02-16T12:12:50Z</time>
      </trkpt>
      <trkpt lat="42.85460335" lon="13.56550309">
        <ele>159.00000</ele>
        <time>2024-02-16T12:12:51Z</time>
      </trkpt>
      <trkpt lat="42.85458491" lon="13.56541031">
        <ele>159.00000</ele>
        <time>2024-02-16T12:12:52Z</time>
      </trkpt>
      <trkpt lat="42.85457502" lon="13.56531475">
        <ele>159.00000</ele>
        <time>2024-02-16T12:12:53Z</time>
      </trkpt>
      <trkpt lat="42.85455993" lon="13.56522087">
        <ele>160.00000</ele>
        <time>2024-02-16T12:12:54Z</time>
      </trkpt>
      <trkpt lat="42.85454585" lon="13.56512742">
        <ele>160.00000</ele>
        <time>2024-02-16T12:12:55Z</time>
      </trkpt>
      <trkpt lat="42.85453545" lon="13.56503119">
        <ele>161.00000</ele>
        <time>2024-02-16T12:12:56Z</time>
      </trkpt>
      <trkpt lat="42.85452229" lon="13.56493178">
        <ele>161.00000</ele>
        <time>2024-02-16T12:12:57Z</time>
      </trkpt>
      <trkpt lat="42.85450804" lon="13.56483321">
        <ele>162.00000</ele>
        <time>2024-02-16T12:12:58Z</time>
      </trkpt>
      <trkpt lat="42.85449220" lon="13.56473824">
        <ele>163.00000</ele>
        <time>2024-02-16T12:12:59Z</time>
      </trkpt>
      <trkpt lat="42.85447586" lon="13.56464428">
        <ele>163.00000</ele>
        <time>2024-02-16T12:13:00Z</time>
      </trkpt>
      <trkpt lat="42.85446153" lon="13.56455057">
        <ele>163.00000</ele>
        <time>2024-02-16T12:13:01Z</time>
      </trkpt>
      <trkpt lat="42.85444795" lon="13.56445544">
        <ele>163.00000</ele>
        <time>2024-02-16T12:13:02Z</time>
      </trkpt>
      <trkpt lat="42.85443495" lon="13.56435628">
        <ele>164.00000</ele>
        <time>2024-02-16T12:13:03Z</time>
      </trkpt>
      <trkpt lat="42.85442188" lon="13.56425486">
        <ele>164.00000</ele>
        <time>2024-02-16T12:13:04Z</time>
      </trkpt>
      <trkpt lat="42.85440444" lon="13.56415344">
        <ele>164.00000</ele>
        <time>2024-02-16T12:13:05Z</time>
      </trkpt>
      <trkpt lat="42.85439430" lon="13.56405235">
        <ele>163.00000</ele>
        <time>2024-02-16T12:13:06Z</time>
      </trkpt>
      <trkpt lat="42.85438022" lon="13.56394934">
        <ele>163.00000</ele>
        <time>2024-02-16T12:13:07Z</time>
      </trkpt>
      <trkpt lat="42.85436681" lon="13.56384540">
        <ele>162.00000</ele>
        <time>2024-02-16T12:13:08Z</time>
      </trkpt>
      <trkpt lat="42.85434879" lon="13.56374432">
        <ele>161.00000</ele>
        <time>2024-02-16T12:13:09Z</time>
      </trkpt>
      <trkpt lat="42.85433085" lon="13.56364298">
        <ele>160.00000</ele>
        <time>2024-02-16T12:13:10Z</time>
      </trkpt>
      <trkpt lat="42.85431451" lon="13.56354131">
        <ele>159.00000</ele>
        <time>2024-02-16T12:13:11Z</time>
      </trkpt>
      <trkpt lat="42.85429682" lon="13.56344031">
        <ele>159.00000</ele>
        <time>2024-02-16T12:13:12Z</time>
      </trkpt>
      <trkpt lat="42.85427981" lon="13.56333897">
        <ele>158.00000</ele>
        <time>2024-02-16T12:13:13Z</time>
      </trkpt>
      <trkpt lat="42.85426170" lon="13.56323881">
        <ele>159.00000</ele>
        <time>2024-02-16T12:13:14Z</time>
      </trkpt>
      <trkpt lat="42.85424477" lon="13.56313973">
        <ele>159.00000</ele>
        <time>2024-02-16T12:13:15Z</time>
      </trkpt>
      <trkpt lat="42.85422993" lon="13.56304049">
        <ele>159.00000</ele>
        <time>2024-02-16T12:13:16Z</time>
      </trkpt>
      <trkpt lat="42.85421694" lon="13.56294192">
        <ele>159.00000</ele>
        <time>2024-02-16T12:13:17Z</time>
      </trkpt>
      <trkpt lat="42.85419875" lon="13.56284335">
        <ele>160.00000</ele>
        <time>2024-02-16T12:13:18Z</time>
      </trkpt>
      <trkpt lat="42.85418123" lon="13.56274310">
        <ele>161.00000</ele>
        <time>2024-02-16T12:13:19Z</time>
      </trkpt>
      <trkpt lat="42.85416791" lon="13.56264637">
        <ele>161.00000</ele>
        <time>2024-02-16T12:13:20Z</time>
      </trkpt>
      <trkpt lat="42.85415919" lon="13.56254604">
        <ele>162.00000</ele>
        <time>2024-02-16T12:13:21Z</time>
      </trkpt>
      <trkpt lat="42.85414972" lon="13.56244655">
        <ele>162.00000</ele>
        <time>2024-02-16T12:13:22Z</time>
      </trkpt>
      <trkpt lat="42.85413723" lon="13.56234974">
        <ele>162.00000</ele>
        <time>2024-02-16T12:13:23Z</time>
      </trkpt>
      <trkpt lat="42.85412357" lon="13.56225435">
        <ele>162.00000</ele>
        <time>2024-02-16T12:13:24Z</time>
      </trkpt>
      <trkpt lat="42.85411024" lon="13.56216123">
        <ele>162.00000</ele>
        <time>2024-02-16T12:13:25Z</time>
      </trkpt>
      <trkpt lat="42.85409113" lon="13.56207062">
        <ele>162.00000</ele>
        <time>2024-02-16T12:13:26Z</time>
      </trkpt>
      <trkpt lat="42.85406984" lon="13.56198211">
        <ele>162.00000</ele>
        <time>2024-02-16T12:13:27Z</time>
      </trkpt>
      <trkpt lat="42.85405467" lon="13.56189141">
        <ele>162.00000</ele>
        <time>2024-02-16T12:13:28Z</time>
      </trkpt>
      <trkpt lat="42.85404578" lon="13.56179888">
        <ele>163.00000</ele>
        <time>2024-02-16T12:13:29Z</time>
      </trkpt>
      <trkpt lat="42.85404126" lon="13.56170224">
        <ele>163.00000</ele>
        <time>2024-02-16T12:13:30Z</time>
      </trkpt>
      <trkpt lat="42.85403807" lon="13.56160400">
        <ele>163.00000</ele>
        <time>2024-02-16T12:13:31Z</time>
      </trkpt>
      <trkpt lat="42.85402994" lon="13.56150576">
        <ele>163.00000</ele>
        <time>2024-02-16T12:13:32Z</time>
      </trkpt>
      <trkpt lat="42.85401972" lon="13.56141524">
        <ele>163.00000</ele>
        <time>2024-02-16T12:13:33Z</time>
      </trkpt>
      <trkpt lat="42.85401008" lon="13.56132111">
        <ele>164.00000</ele>
        <time>2024-02-16T12:13:34Z</time>
      </trkpt>
      <trkpt lat="42.85399666" lon="13.56122941">
        <ele>164.00000</ele>
        <time>2024-02-16T12:13:35Z</time>
      </trkpt>
      <trkpt lat="42.85398267" lon="13.56114165">
        <ele>164.00000</ele>
        <time>2024-02-16T12:13:36Z</time>
      </trkpt>
      <trkpt lat="42.85397420" lon="13.56105314">
        <ele>165.00000</ele>
        <time>2024-02-16T12:13:37Z</time>
      </trkpt>
      <trkpt lat="42.85396154" lon="13.56096438">
        <ele>165.00000</ele>
        <time>2024-02-16T12:13:38Z</time>
      </trkpt>
      <trkpt lat="42.85395140" lon="13.56087704">
        <ele>165.00000</ele>
        <time>2024-02-16T12:13:39Z</time>
      </trkpt>
      <trkpt lat="42.85394193" lon="13.56079062">
        <ele>165.00000</ele>
        <time>2024-02-16T12:13:40Z</time>
      </trkpt>
      <trkpt lat="42.85392835" lon="13.56070563">
        <ele>165.00000</ele>
        <time>2024-02-16T12:13:41Z</time>
      </trkpt>
      <trkpt lat="42.85391503" lon="13.56062206">
        <ele>165.00000</ele>
        <time>2024-02-16T12:13:42Z</time>
      </trkpt>
      <trkpt lat="42.85390212" lon="13.56053422">
        <ele>165.00000</ele>
        <time>2024-02-16T12:13:43Z</time>
      </trkpt>
      <trkpt lat="42.85388368" lon="13.56044830">
        <ele>166.00000</ele>
        <time>2024-02-16T12:13:44Z</time>
      </trkpt>
      <trkpt lat="42.85385535" lon="13.56036071">
        <ele>166.00000</ele>
        <time>2024-02-16T12:13:45Z</time>
      </trkpt>
      <trkpt lat="42.85383783" lon="13.56027086">
        <ele>167.00000</ele>
        <time>2024-02-16T12:13:46Z</time>
      </trkpt>
      <trkpt lat="42.85382961" lon="13.56017539">
        <ele>167.00000</ele>
        <time>2024-02-16T12:13:47Z</time>
      </trkpt>
      <trkpt lat="42.85382014" lon="13.56008017">
        <ele>167.00000</ele>
        <time>2024-02-16T12:13:48Z</time>
      </trkpt>
      <trkpt lat="42.85381109" lon="13.55999208">
        <ele>168.00000</ele>
        <time>2024-02-16T12:13:49Z</time>
      </trkpt>
      <trkpt lat="42.85379801" lon="13.55990834">
        <ele>168.00000</ele>
        <time>2024-02-16T12:13:50Z</time>
      </trkpt>
      <trkpt lat="42.85378385" lon="13.55982922">
        <ele>168.00000</ele>
        <time>2024-02-16T12:13:51Z</time>
      </trkpt>
      <trkpt lat="42.85377019" lon="13.55975822">
        <ele>167.00000</ele>
        <time>2024-02-16T12:13:52Z</time>
      </trkpt>
      <trkpt lat="42.85376180" lon="13.55969804">
        <ele>167.00000</ele>
        <time>2024-02-16T12:13:53Z</time>
      </trkpt>
      <trkpt lat="42.85376046" lon="13.55963995">
        <ele>167.00000</ele>
        <time>2024-02-16T12:13:54Z</time>
      </trkpt>
      <trkpt lat="42.85375292" lon="13.55959855">
        <ele>167.00000</ele>
        <time>2024-02-16T12:13:55Z</time>
      </trkpt>
      <trkpt lat="42.85374588" lon="13.55956854">
        <ele>167.00000</ele>
        <time>2024-02-16T12:13:56Z</time>
      </trkpt>
      <trkpt lat="42.85373607" lon="13.55954666">
        <ele>167.00000</ele>
        <time>2024-02-16T12:13:57Z</time>
      </trkpt>
      <trkpt lat="42.85372518" lon="13.55952730">
        <ele>167.00000</ele>
        <time>2024-02-16T12:13:58Z</time>
      </trkpt>
      <trkpt lat="42.85371914" lon="13.55950484">
        <ele>167.00000</ele>
        <time>2024-02-16T12:13:59Z</time>
      </trkpt>
      <trkpt lat="42.85371696" lon="13.55948447">
        <ele>167.00000</ele>
        <time>2024-02-16T12:14:00Z</time>
      </trkpt>
      <trkpt lat="42.85371696" lon="13.55946234">
        <ele>166.00000</ele>
        <time>2024-02-16T12:14:01Z</time>
      </trkpt>
      <trkpt lat="42.85371746" lon="13.55942923">
        <ele>166.00000</ele>
        <time>2024-02-16T12:14:02Z</time>
      </trkpt>
      <trkpt lat="42.85371604" lon="13.55938657">
        <ele>166.00000</ele>
        <time>2024-02-16T12:14:03Z</time>
      </trkpt>
      <trkpt lat="42.85371411" lon="13.55933820">
        <ele>166.00000</ele>
        <time>2024-02-16T12:14:04Z</time>
      </trkpt>
      <trkpt lat="42.85371604" lon="13.55927928">
        <ele>166.00000</ele>
        <time>2024-02-16T12:14:05Z</time>
      </trkpt>
      <trkpt lat="42.85371696" lon="13.55921055">
        <ele>166.00000</ele>
        <time>2024-02-16T12:14:06Z</time>
      </trkpt>
      <trkpt lat="42.85370791" lon="13.55913536">
        <ele>166.00000</ele>
        <time>2024-02-16T12:14:07Z</time>
      </trkpt>
      <trkpt lat="42.85369383" lon="13.55905439">
        <ele>165.00000</ele>
        <time>2024-02-16T12:14:08Z</time>
      </trkpt>
      <trkpt lat="42.85367388" lon="13.55897074">
        <ele>165.00000</ele>
        <time>2024-02-16T12:14:09Z</time>
      </trkpt>
      <trkpt lat="42.85365854" lon="13.55888064">
        <ele>164.00000</ele>
        <time>2024-02-16T12:14:10Z</time>
      </trkpt>
      <trkpt lat="42.85364043" lon="13.55878701">
        <ele>164.00000</ele>
        <time>2024-02-16T12:14:11Z</time>
      </trkpt>
      <trkpt lat="42.85362300" lon="13.55869154">
        <ele>164.00000</ele>
        <time>2024-02-16T12:14:12Z</time>
      </trkpt>
      <trkpt lat="42.85360389" lon="13.55859934">
        <ele>164.00000</ele>
        <time>2024-02-16T12:14:13Z</time>
      </trkpt>
      <trkpt lat="42.85358645" lon="13.55850999">
        <ele>164.00000</ele>
        <time>2024-02-16T12:14:14Z</time>
      </trkpt>
      <trkpt lat="42.85357707" lon="13.55841410">
        <ele>165.00000</ele>
        <time>2024-02-16T12:14:15Z</time>
      </trkpt>
      <trkpt lat="42.85356416" lon="13.55832098">
        <ele>165.00000</ele>
        <time>2024-02-16T12:14:16Z</time>
      </trkpt>
      <trkpt lat="42.85355117" lon="13.55822844">
        <ele>166.00000</ele>
        <time>2024-02-16T12:14:17Z</time>
      </trkpt>
      <trkpt lat="42.85353960" lon="13.55813842">
        <ele>167.00000</ele>
        <time>2024-02-16T12:14:18Z</time>
      </trkpt>
      <trkpt lat="42.85353063" lon="13.55804563">
        <ele>167.00000</ele>
        <time>2024-02-16T12:14:19Z</time>
      </trkpt>
      <trkpt lat="42.85351730" lon="13.55795217">
        <ele>167.00000</ele>
        <time>2024-02-16T12:14:20Z</time>
      </trkpt>
      <trkpt lat="42.85350632" lon="13.55785913">
        <ele>167.00000</ele>
        <time>2024-02-16T12:14:21Z</time>
      </trkpt>
      <trkpt lat="42.85349149" lon="13.55776953">
        <ele>168.00000</ele>
        <time>2024-02-16T12:14:22Z</time>
      </trkpt>
      <trkpt lat="42.85347573" lon="13.55768596">
        <ele>169.00000</ele>
        <time>2024-02-16T12:14:23Z</time>
      </trkpt>
      <trkpt lat="42.85345737" lon="13.55760063">
        <ele>170.00000</ele>
        <time>2024-02-16T12:14:24Z</time>
      </trkpt>
      <trkpt lat="42.85344078" lon="13.55751363">
        <ele>171.00000</ele>
        <time>2024-02-16T12:14:25Z</time>
      </trkpt>
      <trkpt lat="42.85342611" lon="13.55742788">
        <ele>172.00000</ele>
        <time>2024-02-16T12:14:26Z</time>
      </trkpt>
      <trkpt lat="42.85340373" lon="13.55734339">
        <ele>174.00000</ele>
        <time>2024-02-16T12:14:27Z</time>
      </trkpt>
      <trkpt lat="42.85338160" lon="13.55725664">
        <ele>175.00000</ele>
        <time>2024-02-16T12:14:28Z</time>
      </trkpt>
      <trkpt lat="42.85335486" lon="13.55717391">
        <ele>176.00000</ele>
        <time>2024-02-16T12:14:29Z</time>
      </trkpt>
      <trkpt lat="42.85332293" lon="13.55709009">
        <ele>177.00000</ele>
        <time>2024-02-16T12:14:30Z</time>
      </trkpt>
      <trkpt lat="42.85328689" lon="13.55700694">
        <ele>178.00000</ele>
        <time>2024-02-16T12:14:31Z</time>
      </trkpt>
      <trkpt lat="42.85324959" lon="13.55692405">
        <ele>178.00000</ele>
        <time>2024-02-16T12:14:32Z</time>
      </trkpt>
      <trkpt lat="42.85321321" lon="13.55683939">
        <ele>177.00000</ele>
        <time>2024-02-16T12:14:33Z</time>
      </trkpt>
      <trkpt lat="42.85317742" lon="13.55675289">
        <ele>176.00000</ele>
        <time>2024-02-16T12:14:34Z</time>
      </trkpt>
      <trkpt lat="42.85314565" lon="13.55666563">
        <ele>175.00000</ele>
        <time>2024-02-16T12:14:35Z</time>
      </trkpt>
      <trkpt lat="42.85311615" lon="13.55657913">
        <ele>174.00000</ele>
        <time>2024-02-16T12:14:36Z</time>
      </trkpt>
      <trkpt lat="42.85308463" lon="13.55649330">
        <ele>173.00000</ele>
        <time>2024-02-16T12:14:37Z</time>
      </trkpt>
      <trkpt lat="42.85305135" lon="13.55641309">
        <ele>173.00000</ele>
        <time>2024-02-16T12:14:38Z</time>
      </trkpt>
      <trkpt lat="42.85301850" lon="13.55633145">
        <ele>173.00000</ele>
        <time>2024-02-16T12:14:39Z</time>
      </trkpt>
      <trkpt lat="42.85298639" lon="13.55624645">
        <ele>173.00000</ele>
        <time>2024-02-16T12:14:40Z</time>
      </trkpt>
      <trkpt lat="42.85294784" lon="13.55616373">
        <ele>173.00000</ele>
        <time>2024-02-16T12:14:41Z</time>
      </trkpt>
      <trkpt lat="42.85290702" lon="13.55608209">
        <ele>173.00000</ele>
        <time>2024-02-16T12:14:42Z</time>
      </trkpt>
      <trkpt lat="42.85287072" lon="13.55599936">
        <ele>174.00000</ele>
        <time>2024-02-16T12:14:43Z</time>
      </trkpt>
      <trkpt lat="42.85283200" lon="13.55591897">
        <ele>174.00000</ele>
        <time>2024-02-16T12:14:44Z</time>
      </trkpt>
      <trkpt lat="42.85279688" lon="13.55583834">
        <ele>174.00000</ele>
        <time>2024-02-16T12:14:45Z</time>
      </trkpt>
      <trkpt lat="42.85275598" lon="13.55576047">
        <ele>174.00000</ele>
        <time>2024-02-16T12:14:46Z</time>
      </trkpt>
      <trkpt lat="42.85271381" lon="13.55568294">
        <ele>174.00000</ele>
        <time>2024-02-16T12:14:47Z</time>
      </trkpt>
      <trkpt lat="42.85267216" lon="13.55560608">
        <ele>174.00000</ele>
        <time>2024-02-16T12:14:48Z</time>
      </trkpt>
      <trkpt lat="42.85263251" lon="13.55552645">
        <ele>174.00000</ele>
        <time>2024-02-16T12:14:49Z</time>
      </trkpt>
      <trkpt lat="42.85259680" lon="13.55544389">
        <ele>173.00000</ele>
        <time>2024-02-16T12:14:50Z</time>
      </trkpt>
      <trkpt lat="42.85255665" lon="13.55536216">
        <ele>173.00000</ele>
        <time>2024-02-16T12:14:51Z</time>
      </trkpt>
      <trkpt lat="42.85251567" lon="13.55528052">
        <ele>173.00000</ele>
        <time>2024-02-16T12:14:52Z</time>
      </trkpt>
      <trkpt lat="42.85247795" lon="13.55519696">
        <ele>174.00000</ele>
        <time>2024-02-16T12:14:53Z</time>
      </trkpt>
      <trkpt lat="42.85243956" lon="13.55511423">
        <ele>174.00000</ele>
        <time>2024-02-16T12:14:54Z</time>
      </trkpt>
      <trkpt lat="42.85240042" lon="13.55503192">
        <ele>175.00000</ele>
        <time>2024-02-16T12:14:55Z</time>
      </trkpt>
      <trkpt lat="42.85236194" lon="13.55494935">
        <ele>176.00000</ele>
        <time>2024-02-16T12:14:56Z</time>
      </trkpt>
      <trkpt lat="42.85232288" lon="13.55486637">
        <ele>177.00000</ele>
        <time>2024-02-16T12:14:57Z</time>
      </trkpt>
      <trkpt lat="42.85228583" lon="13.55478381">
        <ele>177.00000</ele>
        <time>2024-02-16T12:14:58Z</time>
      </trkpt>
      <trkpt lat="42.85224887" lon="13.55470242">
        <ele>178.00000</ele>
        <time>2024-02-16T12:14:59Z</time>
      </trkpt>
      <trkpt lat="42.85221107" lon="13.55462397">
        <ele>178.00000</ele>
        <time>2024-02-16T12:15:00Z</time>
      </trkpt>
      <trkpt lat="42.85217226" lon="13.55454593">
        <ele>178.00000</ele>
        <time>2024-02-16T12:15:01Z</time>
      </trkpt>
      <trkpt lat="42.85213437" lon="13.55446882">
        <ele>178.00000</ele>
        <time>2024-02-16T12:15:02Z</time>
      </trkpt>
      <trkpt lat="42.85209397" lon="13.55438794">
        <ele>178.00000</ele>
        <time>2024-02-16T12:15:03Z</time>
      </trkpt>
      <trkpt lat="42.85205206" lon="13.55430487">
        <ele>178.00000</ele>
        <time>2024-02-16T12:15:04Z</time>
      </trkpt>
      <trkpt lat="42.85201543" lon="13.55421753">
        <ele>178.00000</ele>
        <time>2024-02-16T12:15:05Z</time>
      </trkpt>
      <trkpt lat="42.85197906" lon="13.55412634">
        <ele>178.00000</ele>
        <time>2024-02-16T12:15:06Z</time>
      </trkpt>
      <trkpt lat="42.85194293" lon="13.55403489">
        <ele>178.00000</ele>
        <time>2024-02-16T12:15:07Z</time>
      </trkpt>
      <trkpt lat="42.85190764" lon="13.55394462">
        <ele>178.00000</ele>
        <time>2024-02-16T12:15:08Z</time>
      </trkpt>
      <trkpt lat="42.85187110" lon="13.55385459">
        <ele>179.00000</ele>
        <time>2024-02-16T12:15:09Z</time>
      </trkpt>
      <trkpt lat="42.85183598" lon="13.55376340">
        <ele>179.00000</ele>
        <time>2024-02-16T12:15:10Z</time>
      </trkpt>
      <trkpt lat="42.85181092" lon="13.55366642">
        <ele>180.00000</ele>
        <time>2024-02-16T12:15:11Z</time>
      </trkpt>
      <trkpt lat="42.85179801" lon="13.55355846">
        <ele>181.00000</ele>
        <time>2024-02-16T12:15:12Z</time>
      </trkpt>
      <trkpt lat="42.85178803" lon="13.55344740">
        <ele>181.00000</ele>
        <time>2024-02-16T12:15:13Z</time>
      </trkpt>
      <trkpt lat="42.85178611" lon="13.55333349">
        <ele>181.00000</ele>
        <time>2024-02-16T12:15:14Z</time>
      </trkpt>
      <trkpt lat="42.85179524" lon="13.55321950">
        <ele>180.00000</ele>
        <time>2024-02-16T12:15:15Z</time>
      </trkpt>
      <trkpt lat="42.85180396" lon="13.55310819">
        <ele>178.00000</ele>
        <time>2024-02-16T12:15:16Z</time>
      </trkpt>
      <trkpt lat="42.85180890" lon="13.55300065">
        <ele>176.00000</ele>
        <time>2024-02-16T12:15:17Z</time>
      </trkpt>
      <trkpt lat="42.85180681" lon="13.55289403">
        <ele>175.00000</ele>
        <time>2024-02-16T12:15:18Z</time>
      </trkpt>
      <trkpt lat="42.85179918" lon="13.55278632">
        <ele>174.00000</ele>
        <time>2024-02-16T12:15:19Z</time>
      </trkpt>
      <trkpt lat="42.85178150" lon="13.55268063">
        <ele>173.00000</ele>
        <time>2024-02-16T12:15:20Z</time>
      </trkpt>
      <trkpt lat="42.85175652" lon="13.55257594">
        <ele>173.00000</ele>
        <time>2024-02-16T12:15:21Z</time>
      </trkpt>
      <trkpt lat="42.85171989" lon="13.55247812">
        <ele>173.00000</ele>
        <time>2024-02-16T12:15:22Z</time>
      </trkpt>
      <trkpt lat="42.85166943" lon="13.55238927">
        <ele>173.00000</ele>
        <time>2024-02-16T12:15:23Z</time>
      </trkpt>
      <trkpt lat="42.85161159" lon="13.55230445">
        <ele>174.00000</ele>
        <time>2024-02-16T12:15:24Z</time>
      </trkpt>
      <trkpt lat="42.85154588" lon="13.55222926">
        <ele>175.00000</ele>
        <time>2024-02-16T12:15:25Z</time>
      </trkpt>
      <trkpt lat="42.85147715" lon="13.55214955">
        <ele>176.00000</ele>
        <time>2024-02-16T12:15:26Z</time>
      </trkpt>
      <trkpt lat="42.85141420" lon="13.55206020">
        <ele>176.00000</ele>
        <time>2024-02-16T12:15:27Z</time>
      </trkpt>
      <trkpt lat="42.85135645" lon="13.55196204">
        <ele>176.00000</ele>
        <time>2024-02-16T12:15:28Z</time>
      </trkpt>
      <trkpt lat="42.85130599" lon="13.55185333">
        <ele>177.00000</ele>
        <time>2024-02-16T12:15:29Z</time>
      </trkpt>
      <trkpt lat="42.85126802" lon="13.55173716">
        <ele>176.00000</ele>
        <time>2024-02-16T12:15:30Z</time>
      </trkpt>
      <trkpt lat="42.85123525" lon="13.55161822">
        <ele>175.00000</ele>
        <time>2024-02-16T12:15:31Z</time>
      </trkpt>
      <trkpt lat="42.85120323" lon="13.55149635">
        <ele>175.00000</ele>
        <time>2024-02-16T12:15:32Z</time>
      </trkpt>
      <trkpt lat="42.85117490" lon="13.55137489">
        <ele>174.00000</ele>
        <time>2024-02-16T12:15:33Z</time>
      </trkpt>
      <trkpt lat="42.85114724" lon="13.55125495">
        <ele>174.00000</ele>
        <time>2024-02-16T12:15:34Z</time>
      </trkpt>
      <trkpt lat="42.85111773" lon="13.55113400">
        <ele>173.00000</ele>
        <time>2024-02-16T12:15:35Z</time>
      </trkpt>
      <trkpt lat="42.85109049" lon="13.55101154">
        <ele>173.00000</ele>
        <time>2024-02-16T12:15:36Z</time>
      </trkpt>
      <trkpt lat="42.85106694" lon="13.55088941">
        <ele>173.00000</ele>
        <time>2024-02-16T12:15:37Z</time>
      </trkpt>
      <trkpt lat="42.85104498" lon="13.55076368">
        <ele>174.00000</ele>
        <time>2024-02-16T12:15:38Z</time>
      </trkpt>
      <trkpt lat="42.85102243" lon="13.55063955">
        <ele>174.00000</ele>
        <time>2024-02-16T12:15:39Z</time>
      </trkpt>
      <trkpt lat="42.85099829" lon="13.55051617">
        <ele>175.00000</ele>
        <time>2024-02-16T12:15:40Z</time>
      </trkpt>
      <trkpt lat="42.85097398" lon="13.55039496">
        <ele>176.00000</ele>
        <time>2024-02-16T12:15:41Z</time>
      </trkpt>
      <trkpt lat="42.85095077" lon="13.55027443">
        <ele>177.00000</ele>
        <time>2024-02-16T12:15:42Z</time>
      </trkpt>
      <trkpt lat="42.85092805" lon="13.55015256">
        <ele>176.00000</ele>
        <time>2024-02-16T12:15:43Z</time>
      </trkpt>
      <trkpt lat="42.85090760" lon="13.55002759">
        <ele>175.00000</ele>
        <time>2024-02-16T12:15:44Z</time>
      </trkpt>
      <trkpt lat="42.85088572" lon="13.54990689">
        <ele>174.00000</ele>
        <time>2024-02-16T12:15:45Z</time>
      </trkpt>
      <trkpt lat="42.85086309" lon="13.54978568">
        <ele>173.00000</ele>
        <time>2024-02-16T12:15:46Z</time>
      </trkpt>
      <trkpt lat="42.85084230" lon="13.54966373">
        <ele>172.00000</ele>
        <time>2024-02-16T12:15:47Z</time>
      </trkpt>
      <trkpt lat="42.85081976" lon="13.54954479">
        <ele>171.00000</ele>
        <time>2024-02-16T12:15:48Z</time>
      </trkpt>
      <trkpt lat="42.85079168" lon="13.54942887">
        <ele>170.00000</ele>
        <time>2024-02-16T12:15:49Z</time>
      </trkpt>
      <trkpt lat="42.85075630" lon="13.54931755">
        <ele>169.00000</ele>
        <time>2024-02-16T12:15:50Z</time>
      </trkpt>
      <trkpt lat="42.85071037" lon="13.54921353">
        <ele>169.00000</ele>
        <time>2024-02-16T12:15:51Z</time>
      </trkpt>
      <trkpt lat="42.85065522" lon="13.54911798">
        <ele>169.00000</ele>
        <time>2024-02-16T12:15:52Z</time>
      </trkpt>
      <trkpt lat="42.85059344" lon="13.54903064">
        <ele>169.00000</ele>
        <time>2024-02-16T12:15:53Z</time>
      </trkpt>
      <trkpt lat="42.85052413" lon="13.54894934">
        <ele>169.00000</ele>
        <time>2024-02-16T12:15:54Z</time>
      </trkpt>
      <trkpt lat="42.85045070" lon="13.54887256">
        <ele>169.00000</ele>
        <time>2024-02-16T12:15:55Z</time>
      </trkpt>
      <trkpt lat="42.85037443" lon="13.54880006">
        <ele>168.00000</ele>
        <time>2024-02-16T12:15:56Z</time>
      </trkpt>
      <trkpt lat="42.85029823" lon="13.54872847">
        <ele>168.00000</ele>
        <time>2024-02-16T12:15:57Z</time>
      </trkpt>
      <trkpt lat="42.85022414" lon="13.54865480">
        <ele>168.00000</ele>
        <time>2024-02-16T12:15:58Z</time>
      </trkpt>
      <trkpt lat="42.85015105" lon="13.54858112">
        <ele>169.00000</ele>
        <time>2024-02-16T12:15:59Z</time>
      </trkpt>
      <trkpt lat="42.85007486" lon="13.54851004">
        <ele>169.00000</ele>
        <time>2024-02-16T12:16:00Z</time>
      </trkpt>
      <trkpt lat="42.85000168" lon="13.54843544">
        <ele>170.00000</ele>
        <time>2024-02-16T12:16:01Z</time>
      </trkpt>
      <trkpt lat="42.84994200" lon="13.54834685">
        <ele>171.00000</ele>
        <time>2024-02-16T12:16:02Z</time>
      </trkpt>
      <trkpt lat="42.84989934" lon="13.54824241">
        <ele>171.00000</ele>
        <time>2024-02-16T12:16:03Z</time>
      </trkpt>
      <trkpt lat="42.84987671" lon="13.54812263">
        <ele>171.00000</ele>
        <time>2024-02-16T12:16:04Z</time>
      </trkpt>
      <trkpt lat="42.84986573" lon="13.54799414">
        <ele>170.00000</ele>
        <time>2024-02-16T12:16:05Z</time>
      </trkpt>
      <trkpt lat="42.84985885" lon="13.54786422">
        <ele>169.00000</ele>
        <time>2024-02-16T12:16:06Z</time>
      </trkpt>
      <trkpt lat="42.84985332" lon="13.54773455">
        <ele>168.00000</ele>
        <time>2024-02-16T12:16:07Z</time>
      </trkpt>
      <trkpt lat="42.84984712" lon="13.54760471">
        <ele>167.00000</ele>
        <time>2024-02-16T12:16:08Z</time>
      </trkpt>
      <trkpt lat="42.84983513" lon="13.54747613">
        <ele>166.00000</ele>
        <time>2024-02-16T12:16:09Z</time>
      </trkpt>
      <trkpt lat="42.84982197" lon="13.54734722">
        <ele>165.00000</ele>
        <time>2024-02-16T12:16:10Z</time>
      </trkpt>
      <trkpt lat="42.84980923" lon="13.54721839">
        <ele>165.00000</ele>
        <time>2024-02-16T12:16:11Z</time>
      </trkpt>
      <trkpt lat="42.84979934" lon="13.54708663">
        <ele>165.00000</ele>
        <time>2024-02-16T12:16:12Z</time>
      </trkpt>
      <trkpt lat="42.84978853" lon="13.54695763">
        <ele>165.00000</ele>
        <time>2024-02-16T12:16:13Z</time>
      </trkpt>
      <trkpt lat="42.84977596" lon="13.54683190">
        <ele>165.00000</ele>
        <time>2024-02-16T12:16:14Z</time>
      </trkpt>
      <trkpt lat="42.84976389" lon="13.54670584">
        <ele>165.00000</ele>
        <time>2024-02-16T12:16:15Z</time>
      </trkpt>
      <trkpt lat="42.84975534" lon="13.54657952">
        <ele>166.00000</ele>
        <time>2024-02-16T12:16:16Z</time>
      </trkpt>
      <trkpt lat="42.84974587" lon="13.54645371">
        <ele>167.00000</ele>
        <time>2024-02-16T12:16:17Z</time>
      </trkpt>
      <trkpt lat="42.84973631" lon="13.54633108">
        <ele>167.00000</ele>
        <time>2024-02-16T12:16:18Z</time>
      </trkpt>
      <trkpt lat="42.84972491" lon="13.54620703">
        <ele>168.00000</ele>
        <time>2024-02-16T12:16:19Z</time>
      </trkpt>
      <trkpt lat="42.84971058" lon="13.54607895">
        <ele>169.00000</ele>
        <time>2024-02-16T12:16:20Z</time>
      </trkpt>
      <trkpt lat="42.84969700" lon="13.54594786">
        <ele>168.00000</ele>
        <time>2024-02-16T12:16:21Z</time>
      </trkpt>
      <trkpt lat="42.84967923" lon="13.54581685">
        <ele>168.00000</ele>
        <time>2024-02-16T12:16:22Z</time>
      </trkpt>
      <trkpt lat="42.84965534" lon="13.54568710">
        <ele>167.00000</ele>
        <time>2024-02-16T12:16:23Z</time>
      </trkpt>
      <trkpt lat="42.84962709" lon="13.54556213">
        <ele>167.00000</ele>
        <time>2024-02-16T12:16:24Z</time>
      </trkpt>
      <trkpt lat="42.84959516" lon="13.54544159">
        <ele>167.00000</ele>
        <time>2024-02-16T12:16:25Z</time>
      </trkpt>
      <trkpt lat="42.84955811" lon="13.54532584">
        <ele>167.00000</ele>
        <time>2024-02-16T12:16:26Z</time>
      </trkpt>
      <trkpt lat="42.84950765" lon="13.54519466">
        <ele>168.00000</ele>
        <time>2024-02-16T12:16:27Z</time>
      </trkpt>
      <trkpt lat="42.84947656" lon="13.54510825">
        <ele>168.00000</ele>
        <time>2024-02-16T12:16:28Z</time>
      </trkpt>
      <trkpt lat="42.84944018" lon="13.54500188">
        <ele>168.00000</ele>
        <time>2024-02-16T12:16:29Z</time>
      </trkpt>
      <trkpt lat="42.84940338" lon="13.54489878">
        <ele>168.00000</ele>
        <time>2024-02-16T12:16:30Z</time>
      </trkpt>
      <trkpt lat="42.84936768" lon="13.54479937">
        <ele>168.00000</ele>
        <time>2024-02-16T12:16:31Z</time>
      </trkpt>
      <trkpt lat="42.84932996" lon="13.54468077">
        <ele>167.00000</ele>
        <time>2024-02-16T12:16:32Z</time>
      </trkpt>
      <trkpt lat="42.84930649" lon="13.54460248">
        <ele>166.00000</ele>
        <time>2024-02-16T12:16:33Z</time>
      </trkpt>
      <trkpt lat="42.84927958" lon="13.54450534">
        <ele>166.00000</ele>
        <time>2024-02-16T12:16:34Z</time>
      </trkpt>
      <trkpt lat="42.84925645" lon="13.54440727">
        <ele>166.00000</ele>
        <time>2024-02-16T12:16:35Z</time>
      </trkpt>
      <trkpt lat="42.84922803" lon="13.54430861">
        <ele>166.00000</ele>
        <time>2024-02-16T12:16:36Z</time>
      </trkpt>
      <trkpt lat="42.84919895" lon="13.54420912">
        <ele>166.00000</ele>
        <time>2024-02-16T12:16:37Z</time>
      </trkpt>
      <trkpt lat="42.84916995" lon="13.54411214">
        <ele>166.00000</ele>
        <time>2024-02-16T12:16:38Z</time>
      </trkpt>
      <trkpt lat="42.84914229" lon="13.54401483">
        <ele>167.00000</ele>
        <time>2024-02-16T12:16:39Z</time>
      </trkpt>
      <trkpt lat="42.84911689" lon="13.54391793">
        <ele>168.00000</ele>
        <time>2024-02-16T12:16:40Z</time>
      </trkpt>
      <trkpt lat="42.84909233" lon="13.54380503">
        <ele>168.00000</ele>
        <time>2024-02-16T12:16:41Z</time>
      </trkpt>
      <trkpt lat="42.84907741" lon="13.54373110">
        <ele>169.00000</ele>
        <time>2024-02-16T12:16:42Z</time>
      </trkpt>
      <trkpt lat="42.84905729" lon="13.54364217">
        <ele>169.00000</ele>
        <time>2024-02-16T12:16:43Z</time>
      </trkpt>
      <trkpt lat="42.84903642" lon="13.54355089">
        <ele>171.00000</ele>
        <time>2024-02-16T12:16:44Z</time>
      </trkpt>
      <trkpt lat="42.84901807" lon="13.54345718">
        <ele>172.00000</ele>
        <time>2024-02-16T12:16:45Z</time>
      </trkpt>
      <trkpt lat="42.84899560" lon="13.54336808">
        <ele>174.00000</ele>
        <time>2024-02-16T12:16:46Z</time>
      </trkpt>
      <trkpt lat="42.84897096" lon="13.54327982">
        <ele>175.00000</ele>
        <time>2024-02-16T12:16:47Z</time>
      </trkpt>
      <trkpt lat="42.84895202" lon="13.54319013">
        <ele>175.00000</ele>
        <time>2024-02-16T12:16:48Z</time>
      </trkpt>
      <trkpt lat="42.84894095" lon="13.54309734">
        <ele>176.00000</ele>
        <time>2024-02-16T12:16:49Z</time>
      </trkpt>
      <trkpt lat="42.84893450" lon="13.54300523">
        <ele>177.00000</ele>
        <time>2024-02-16T12:16:50Z</time>
      </trkpt>
      <trkpt lat="42.84893332" lon="13.54291521">
        <ele>177.00000</ele>
        <time>2024-02-16T12:16:51Z</time>
      </trkpt>
      <trkpt lat="42.84893877" lon="13.54282435">
        <ele>177.00000</ele>
        <time>2024-02-16T12:16:52Z</time>
      </trkpt>
      <trkpt lat="42.84894363" lon="13.54273131">
        <ele>178.00000</ele>
        <time>2024-02-16T12:16:53Z</time>
      </trkpt>
      <trkpt lat="42.84894598" lon="13.54263936">
        <ele>178.00000</ele>
        <time>2024-02-16T12:16:54Z</time>
      </trkpt>
      <trkpt lat="42.84895520" lon="13.54254892">
        <ele>179.00000</ele>
        <time>2024-02-16T12:16:55Z</time>
      </trkpt>
      <trkpt lat="42.84897021" lon="13.54246082">
        <ele>179.00000</ele>
        <time>2024-02-16T12:16:56Z</time>
      </trkpt>
      <trkpt lat="42.84899183" lon="13.54237340">
        <ele>180.00000</ele>
        <time>2024-02-16T12:16:57Z</time>
      </trkpt>
      <trkpt lat="42.84901362" lon="13.54228631">
        <ele>181.00000</ele>
        <time>2024-02-16T12:16:58Z</time>
      </trkpt>
      <trkpt lat="42.84904112" lon="13.54219922">
        <ele>181.00000</ele>
        <time>2024-02-16T12:16:59Z</time>
      </trkpt>
      <trkpt lat="42.84906836" lon="13.54211691">
        <ele>181.00000</ele>
        <time>2024-02-16T12:17:00Z</time>
      </trkpt>
      <trkpt lat="42.84910113" lon="13.54203770">
        <ele>181.00000</ele>
        <time>2024-02-16T12:17:01Z</time>
      </trkpt>
      <trkpt lat="42.84913097" lon="13.54196327">
        <ele>181.00000</ele>
        <time>2024-02-16T12:17:02Z</time>
      </trkpt>
      <trkpt lat="42.84916223" lon="13.54188708">
        <ele>181.00000</ele>
        <time>2024-02-16T12:17:03Z</time>
      </trkpt>
      <trkpt lat="42.84919409" lon="13.54180871">
        <ele>181.00000</ele>
        <time>2024-02-16T12:17:04Z</time>
      </trkpt>
      <trkpt lat="42.84922711" lon="13.54172866">
        <ele>181.00000</ele>
        <time>2024-02-16T12:17:05Z</time>
      </trkpt>
      <trkpt lat="42.84925930" lon="13.54164912">
        <ele>181.00000</ele>
        <time>2024-02-16T12:17:06Z</time>
      </trkpt>
      <trkpt lat="42.84929140" lon="13.54156748">
        <ele>181.00000</ele>
        <time>2024-02-16T12:17:07Z</time>
      </trkpt>
      <trkpt lat="42.84932602" lon="13.54148475">
        <ele>180.00000</ele>
        <time>2024-02-16T12:17:08Z</time>
      </trkpt>
      <trkpt lat="42.84935854" lon="13.54140236">
        <ele>180.00000</ele>
        <time>2024-02-16T12:17:09Z</time>
      </trkpt>
      <trkpt lat="42.84938687" lon="13.54132013">
        <ele>180.00000</ele>
        <time>2024-02-16T12:17:10Z</time>
      </trkpt>
      <trkpt lat="42.84941168" lon="13.54123447">
        <ele>180.00000</ele>
        <time>2024-02-16T12:17:11Z</time>
      </trkpt>
      <trkpt lat="42.84943490" lon="13.54114822">
        <ele>180.00000</ele>
        <time>2024-02-16T12:17:12Z</time>
      </trkpt>
      <trkpt lat="42.84945686" lon="13.54105903">
        <ele>180.00000</ele>
        <time>2024-02-16T12:17:13Z</time>
      </trkpt>
      <trkpt lat="42.84947002" lon="13.54097287">
        <ele>180.00000</ele>
        <time>2024-02-16T12:17:14Z</time>
      </trkpt>
      <trkpt lat="42.84948594" lon="13.54088176">
        <ele>180.00000</ele>
        <time>2024-02-16T12:17:15Z</time>
      </trkpt>
      <trkpt lat="42.84950346" lon="13.54079014">
        <ele>181.00000</ele>
        <time>2024-02-16T12:17:16Z</time>
      </trkpt>
      <trkpt lat="42.84951427" lon="13.54070188">
        <ele>181.00000</ele>
        <time>2024-02-16T12:17:17Z</time>
      </trkpt>
      <trkpt lat="42.84951813" lon="13.54061638">
        <ele>181.00000</ele>
        <time>2024-02-16T12:17:18Z</time>
      </trkpt>
      <trkpt lat="42.84951997" lon="13.54052502">
        <ele>182.00000</ele>
        <time>2024-02-16T12:17:19Z</time>
      </trkpt>
      <trkpt lat="42.84951545" lon="13.54043073">
        <ele>182.00000</ele>
        <time>2024-02-16T12:17:20Z</time>
      </trkpt>
      <trkpt lat="42.84950925" lon="13.54033542">
        <ele>183.00000</ele>
        <time>2024-02-16T12:17:21Z</time>
      </trkpt>
      <trkpt lat="42.84950246" lon="13.54023895">
        <ele>183.00000</ele>
        <time>2024-02-16T12:17:22Z</time>
      </trkpt>
      <trkpt lat="42.84949424" lon="13.54014390">
        <ele>183.00000</ele>
        <time>2024-02-16T12:17:23Z</time>
      </trkpt>
      <trkpt lat="42.84948234" lon="13.54005102">
        <ele>183.00000</ele>
        <time>2024-02-16T12:17:24Z</time>
      </trkpt>
      <trkpt lat="42.84947186" lon="13.53995723">
        <ele>183.00000</ele>
        <time>2024-02-16T12:17:25Z</time>
      </trkpt>
      <trkpt lat="42.84946373" lon="13.53986260">
        <ele>183.00000</ele>
        <time>2024-02-16T12:17:26Z</time>
      </trkpt>
      <trkpt lat="42.84945694" lon="13.53976864">
        <ele>184.00000</ele>
        <time>2024-02-16T12:17:27Z</time>
      </trkpt>
      <trkpt lat="42.84944898" lon="13.53967409">
        <ele>184.00000</ele>
        <time>2024-02-16T12:17:28Z</time>
      </trkpt>
      <trkpt lat="42.84944487" lon="13.53957803">
        <ele>184.00000</ele>
        <time>2024-02-16T12:17:29Z</time>
      </trkpt>
      <trkpt lat="42.84944177" lon="13.53948122">
        <ele>185.00000</ele>
        <time>2024-02-16T12:17:30Z</time>
      </trkpt>
      <trkpt lat="42.84944261" lon="13.53938332">
        <ele>184.00000</ele>
        <time>2024-02-16T12:17:31Z</time>
      </trkpt>
      <trkpt lat="42.84944655" lon="13.53928592">
        <ele>183.00000</ele>
        <time>2024-02-16T12:17:32Z</time>
      </trkpt>
      <trkpt lat="42.84945242" lon="13.53918853">
        <ele>183.00000</ele>
        <time>2024-02-16T12:17:33Z</time>
      </trkpt>
      <trkpt lat="42.84945862" lon="13.53909071">
        <ele>182.00000</ele>
        <time>2024-02-16T12:17:34Z</time>
      </trkpt>
      <trkpt lat="42.84946591" lon="13.53899189">
        <ele>182.00000</ele>
        <time>2024-02-16T12:17:35Z</time>
      </trkpt>
      <trkpt lat="42.84947614" lon="13.53889265">
        <ele>181.00000</ele>
        <time>2024-02-16T12:17:36Z</time>
      </trkpt>
      <trkpt lat="42.84948737" lon="13.53879156">
        <ele>181.00000</ele>
        <time>2024-02-16T12:17:37Z</time>
      </trkpt>
      <trkpt lat="42.84949701" lon="13.53869223">
        <ele>181.00000</ele>
        <time>2024-02-16T12:17:38Z</time>
      </trkpt>
      <trkpt lat="42.84950707" lon="13.53859014">
        <ele>181.00000</ele>
        <time>2024-02-16T12:17:39Z</time>
      </trkpt>
      <trkpt lat="42.84951645" lon="13.53848839">
        <ele>181.00000</ele>
        <time>2024-02-16T12:17:40Z</time>
      </trkpt>
      <trkpt lat="42.84952626" lon="13.53838839">
        <ele>182.00000</ele>
        <time>2024-02-16T12:17:41Z</time>
      </trkpt>
      <trkpt lat="42.84953691" lon="13.53828940">
        <ele>182.00000</ele>
        <time>2024-02-16T12:17:42Z</time>
      </trkpt>
      <trkpt lat="42.84954839" lon="13.53819091">
        <ele>183.00000</ele>
        <time>2024-02-16T12:17:43Z</time>
      </trkpt>
      <trkpt lat="42.84956205" lon="13.53809075">
        <ele>184.00000</ele>
        <time>2024-02-16T12:17:44Z</time>
      </trkpt>
      <trkpt lat="42.84957739" lon="13.53799033">
        <ele>184.00000</ele>
        <time>2024-02-16T12:17:45Z</time>
      </trkpt>
      <trkpt lat="42.84959214" lon="13.53788958">
        <ele>185.00000</ele>
        <time>2024-02-16T12:17:46Z</time>
      </trkpt>
      <trkpt lat="42.84960798" lon="13.53778582">
        <ele>185.00000</ele>
        <time>2024-02-16T12:17:47Z</time>
      </trkpt>
      <trkpt lat="42.84962114" lon="13.53768414">
        <ele>185.00000</ele>
        <time>2024-02-16T12:17:48Z</time>
      </trkpt>
      <trkpt lat="42.84963263" lon="13.53758230">
        <ele>185.00000</ele>
        <time>2024-02-16T12:17:49Z</time>
      </trkpt>
      <trkpt lat="42.84964621" lon="13.53746060">
        <ele>184.00000</ele>
        <time>2024-02-16T12:17:50Z</time>
      </trkpt>
      <trkpt lat="42.84965786" lon="13.53735960">
        <ele>184.00000</ele>
        <time>2024-02-16T12:17:51Z</time>
      </trkpt>
      <trkpt lat="42.84967009" lon="13.53725868">
        <ele>183.00000</ele>
        <time>2024-02-16T12:17:52Z</time>
      </trkpt>
      <trkpt lat="42.84968283" lon="13.53715776">
        <ele>183.00000</ele>
        <time>2024-02-16T12:17:53Z</time>
      </trkpt>
      <trkpt lat="42.84969532" lon="13.53705709">
        <ele>183.00000</ele>
        <time>2024-02-16T12:17:54Z</time>
      </trkpt>
      <trkpt lat="42.84970865" lon="13.53695542">
        <ele>182.00000</ele>
        <time>2024-02-16T12:17:55Z</time>
      </trkpt>
      <trkpt lat="42.84972106" lon="13.53687554">
        <ele>182.00000</ele>
        <time>2024-02-16T12:17:56Z</time>
      </trkpt>
      <trkpt lat="42.84973824" lon="13.53675509">
        <ele>182.00000</ele>
        <time>2024-02-16T12:17:57Z</time>
      </trkpt>
      <trkpt lat="42.84975291" lon="13.53665585">
        <ele>182.00000</ele>
        <time>2024-02-16T12:17:58Z</time>
      </trkpt>
      <trkpt lat="42.84976766" lon="13.53655309">
        <ele>184.00000</ele>
        <time>2024-02-16T12:17:59Z</time>
      </trkpt>
      <trkpt lat="42.84977965" lon="13.53647237">
        <ele>186.00000</ele>
        <time>2024-02-16T12:18:00Z</time>
      </trkpt>
      <trkpt lat="42.84979431" lon="13.53637363">
        <ele>187.00000</ele>
        <time>2024-02-16T12:18:01Z</time>
      </trkpt>
      <trkpt lat="42.84980990" lon="13.53625218">
        <ele>187.00000</ele>
        <time>2024-02-16T12:18:02Z</time>
      </trkpt>
      <trkpt lat="42.84981703" lon="13.53616928">
        <ele>186.00000</ele>
        <time>2024-02-16T12:18:03Z</time>
      </trkpt>
      <trkpt lat="42.84983228" lon="13.53606694">
        <ele>187.00000</ele>
        <time>2024-02-16T12:18:04Z</time>
      </trkpt>
      <trkpt lat="42.84984813" lon="13.53596761">
        <ele>187.00000</ele>
        <time>2024-02-16T12:18:05Z</time>
      </trkpt>
      <trkpt lat="42.84986313" lon="13.53586636">
        <ele>188.00000</ele>
        <time>2024-02-16T12:18:06Z</time>
      </trkpt>
      <trkpt lat="42.84987729" lon="13.53576402">
        <ele>187.00000</ele>
        <time>2024-02-16T12:18:07Z</time>
      </trkpt>
      <trkpt lat="42.84989004" lon="13.53566193">
        <ele>186.00000</ele>
        <time>2024-02-16T12:18:08Z</time>
      </trkpt>
      <trkpt lat="42.84990278" lon="13.53555724">
        <ele>185.00000</ele>
        <time>2024-02-16T12:18:09Z</time>
      </trkpt>
      <trkpt lat="42.84991409" lon="13.53545255">
        <ele>184.00000</ele>
        <time>2024-02-16T12:18:10Z</time>
      </trkpt>
      <trkpt lat="42.84992365" lon="13.53534869">
        <ele>183.00000</ele>
        <time>2024-02-16T12:18:11Z</time>
      </trkpt>
      <trkpt lat="42.84993379" lon="13.53524459">
        <ele>182.00000</ele>
        <time>2024-02-16T12:18:12Z</time>
      </trkpt>
      <trkpt lat="42.84994477" lon="13.53512054">
        <ele>181.00000</ele>
        <time>2024-02-16T12:18:13Z</time>
      </trkpt>
      <trkpt lat="42.84995265" lon="13.53501685">
        <ele>181.00000</ele>
        <time>2024-02-16T12:18:14Z</time>
      </trkpt>
      <trkpt lat="42.84995944" lon="13.53491200">
        <ele>181.00000</ele>
        <time>2024-02-16T12:18:15Z</time>
      </trkpt>
      <trkpt lat="42.84996438" lon="13.53482843">
        <ele>181.00000</ele>
        <time>2024-02-16T12:18:16Z</time>
      </trkpt>
      <trkpt lat="42.84997059" lon="13.53472324">
        <ele>180.00000</ele>
        <time>2024-02-16T12:18:17Z</time>
      </trkpt>
      <trkpt lat="42.84997520" lon="13.53461796">
        <ele>181.00000</ele>
        <time>2024-02-16T12:18:18Z</time>
      </trkpt>
      <trkpt lat="42.84997897" lon="13.53449215">
        <ele>181.00000</ele>
        <time>2024-02-16T12:18:19Z</time>
      </trkpt>
      <trkpt lat="42.84998064" lon="13.53438855">
        <ele>181.00000</ele>
        <time>2024-02-16T12:18:20Z</time>
      </trkpt>
      <trkpt lat="42.84998215" lon="13.53430414">
        <ele>182.00000</ele>
        <time>2024-02-16T12:18:21Z</time>
      </trkpt>
      <trkpt lat="42.84998442" lon="13.53419987">
        <ele>182.00000</ele>
        <time>2024-02-16T12:18:22Z</time>
      </trkpt>
      <trkpt lat="42.84998727" lon="13.53407439">
        <ele>184.00000</ele>
        <time>2024-02-16T12:18:23Z</time>
      </trkpt>
      <trkpt lat="42.84998810" lon="13.53397029">
        <ele>185.00000</ele>
        <time>2024-02-16T12:18:24Z</time>
      </trkpt>
      <trkpt lat="42.84999062" lon="13.53388563">
        <ele>186.00000</ele>
        <time>2024-02-16T12:18:25Z</time>
      </trkpt>
      <trkpt lat="42.84999271" lon="13.53378094">
        <ele>186.00000</ele>
        <time>2024-02-16T12:18:26Z</time>
      </trkpt>
      <trkpt lat="42.84999104" lon="13.53367759">
        <ele>187.00000</ele>
        <time>2024-02-16T12:18:27Z</time>
      </trkpt>
      <trkpt lat="42.84998886" lon="13.53357408">
        <ele>188.00000</ele>
        <time>2024-02-16T12:18:28Z</time>
      </trkpt>
      <trkpt lat="42.84998651" lon="13.53345355">
        <ele>189.00000</ele>
        <time>2024-02-16T12:18:29Z</time>
      </trkpt>
      <trkpt lat="42.84998324" lon="13.53335732">
        <ele>190.00000</ele>
        <time>2024-02-16T12:18:30Z</time>
      </trkpt>
      <trkpt lat="42.84998333" lon="13.53326009">
        <ele>192.00000</ele>
        <time>2024-02-16T12:18:31Z</time>
      </trkpt>
      <trkpt lat="42.84998257" lon="13.53318113">
        <ele>192.00000</ele>
        <time>2024-02-16T12:18:32Z</time>
      </trkpt>
      <trkpt lat="42.84997570" lon="13.53308508">
        <ele>194.00000</ele>
        <time>2024-02-16T12:18:33Z</time>
      </trkpt>
      <trkpt lat="42.84997151" lon="13.53298894">
        <ele>194.00000</ele>
        <time>2024-02-16T12:18:34Z</time>
      </trkpt>
      <trkpt lat="42.84996639" lon="13.53287503">
        <ele>195.00000</ele>
        <time>2024-02-16T12:18:35Z</time>
      </trkpt>
      <trkpt lat="42.84996204" lon="13.53280026">
        <ele>196.00000</ele>
        <time>2024-02-16T12:18:36Z</time>
      </trkpt>
      <trkpt lat="42.84995810" lon="13.53270890">
        <ele>196.00000</ele>
        <time>2024-02-16T12:18:37Z</time>
      </trkpt>
      <trkpt lat="42.84995240" lon="13.53261670">
        <ele>195.00000</ele>
        <time>2024-02-16T12:18:38Z</time>
      </trkpt>
      <trkpt lat="42.84994762" lon="13.53252223">
        <ele>195.00000</ele>
        <time>2024-02-16T12:18:39Z</time>
      </trkpt>
      <trkpt lat="42.84994200" lon="13.53242810">
        <ele>194.00000</ele>
        <time>2024-02-16T12:18:40Z</time>
      </trkpt>
      <trkpt lat="42.84993505" lon="13.53233523">
        <ele>193.00000</ele>
        <time>2024-02-16T12:18:41Z</time>
      </trkpt>
      <trkpt lat="42.84992683" lon="13.53224454">
        <ele>192.00000</ele>
        <time>2024-02-16T12:18:42Z</time>
      </trkpt>
      <trkpt lat="42.84991719" lon="13.53215326">
        <ele>191.00000</ele>
        <time>2024-02-16T12:18:43Z</time>
      </trkpt>
      <trkpt lat="42.84990319" lon="13.53206575">
        <ele>192.00000</ele>
        <time>2024-02-16T12:18:44Z</time>
      </trkpt>
      <trkpt lat="42.84988685" lon="13.53197632">
        <ele>192.00000</ele>
        <time>2024-02-16T12:18:45Z</time>
      </trkpt>
      <trkpt lat="42.84987252" lon="13.53188646">
        <ele>192.00000</ele>
        <time>2024-02-16T12:18:46Z</time>
      </trkpt>
      <trkpt lat="42.84985592" lon="13.53179544">
        <ele>193.00000</ele>
        <time>2024-02-16T12:18:47Z</time>
      </trkpt>
      <trkpt lat="42.84983606" lon="13.53170793">
        <ele>194.00000</ele>
        <time>2024-02-16T12:18:48Z</time>
      </trkpt>
      <trkpt lat="42.84981887" lon="13.53162134">
        <ele>194.00000</ele>
        <time>2024-02-16T12:18:49Z</time>
      </trkpt>
      <trkpt lat="42.84980001" lon="13.53153652">
        <ele>195.00000</ele>
        <time>2024-02-16T12:18:50Z</time>
      </trkpt>
      <trkpt lat="42.84977671" lon="13.53145153">
        <ele>195.00000</ele>
        <time>2024-02-16T12:18:51Z</time>
      </trkpt>
      <trkpt lat="42.84975400" lon="13.53136586">
        <ele>195.00000</ele>
        <time>2024-02-16T12:18:52Z</time>
      </trkpt>
      <trkpt lat="42.84972885" lon="13.53128414">
        <ele>196.00000</ele>
        <time>2024-02-16T12:18:53Z</time>
      </trkpt>
      <trkpt lat="42.84970262" lon="13.53120133">
        <ele>196.00000</ele>
        <time>2024-02-16T12:18:54Z</time>
      </trkpt>
      <trkpt lat="42.84967730" lon="13.53111474">
        <ele>196.00000</ele>
        <time>2024-02-16T12:18:55Z</time>
      </trkpt>
      <trkpt lat="42.84964922" lon="13.53102841">
        <ele>195.00000</ele>
        <time>2024-02-16T12:18:56Z</time>
      </trkpt>
      <trkpt lat="42.84961561" lon="13.53094384">
        <ele>194.00000</ele>
        <time>2024-02-16T12:18:57Z</time>
      </trkpt>
      <trkpt lat="42.84957814" lon="13.53086102">
        <ele>194.00000</ele>
        <time>2024-02-16T12:18:58Z</time>
      </trkpt>
      <trkpt lat="42.84953808" lon="13.53077896">
        <ele>193.00000</ele>
        <time>2024-02-16T12:18:59Z</time>
      </trkpt>
      <trkpt lat="42.84949231" lon="13.53070126">
        <ele>192.00000</ele>
        <time>2024-02-16T12:19:00Z</time>
      </trkpt>
      <trkpt lat="42.84944294" lon="13.53062750">
        <ele>191.00000</ele>
        <time>2024-02-16T12:19:01Z</time>
      </trkpt>
      <trkpt lat="42.84939215" lon="13.53055324">
        <ele>191.00000</ele>
        <time>2024-02-16T12:19:02Z</time>
      </trkpt>
      <trkpt lat="42.84932954" lon="13.53046422">
        <ele>190.00000</ele>
        <time>2024-02-16T12:19:03Z</time>
      </trkpt>
      <trkpt lat="42.84927229" lon="13.53039390">
        <ele>191.00000</ele>
        <time>2024-02-16T12:19:04Z</time>
      </trkpt>
      <trkpt lat="42.84922577" lon="13.53034294">
        <ele>191.00000</ele>
        <time>2024-02-16T12:19:05Z</time>
      </trkpt>
      <trkpt lat="42.84915276" lon="13.53027010">
        <ele>192.00000</ele>
        <time>2024-02-16T12:19:06Z</time>
      </trkpt>
      <trkpt lat="42.84909644" lon="13.53022769">
        <ele>192.00000</ele>
        <time>2024-02-16T12:19:07Z</time>
      </trkpt>
      <trkpt lat="42.84902192" lon="13.53017480">
        <ele>192.00000</ele>
        <time>2024-02-16T12:19:08Z</time>
      </trkpt>
      <trkpt lat="42.84894397" lon="13.53012819">
        <ele>192.00000</ele>
        <time>2024-02-16T12:19:09Z</time>
      </trkpt>
      <trkpt lat="42.84886183" lon="13.53008528">
        <ele>192.00000</ele>
        <time>2024-02-16T12:19:10Z</time>
      </trkpt>
      <trkpt lat="42.84877650" lon="13.53004454">
        <ele>191.00000</ele>
        <time>2024-02-16T12:19:11Z</time>
      </trkpt>
      <trkpt lat="42.84869117" lon="13.53000515">
        <ele>190.00000</ele>
        <time>2024-02-16T12:19:12Z</time>
      </trkpt>
      <trkpt lat="42.84860568" lon="13.52997313">
        <ele>190.00000</ele>
        <time>2024-02-16T12:19:13Z</time>
      </trkpt>
      <trkpt lat="42.84852068" lon="13.52993809">
        <ele>189.00000</ele>
        <time>2024-02-16T12:19:14Z</time>
      </trkpt>
      <trkpt lat="42.84843435" lon="13.52989769">
        <ele>188.00000</ele>
        <time>2024-02-16T12:19:15Z</time>
      </trkpt>
      <trkpt lat="42.84834450" lon="13.52985318">
        <ele>187.00000</ele>
        <time>2024-02-16T12:19:16Z</time>
      </trkpt>
      <trkpt lat="42.84825665" lon="13.52980608">
        <ele>186.00000</ele>
        <time>2024-02-16T12:19:17Z</time>
      </trkpt>
      <trkpt lat="42.84816873" lon="13.52975847">
        <ele>185.00000</ele>
        <time>2024-02-16T12:19:18Z</time>
      </trkpt>
      <trkpt lat="42.84808063" lon="13.52970910">
        <ele>185.00000</ele>
        <time>2024-02-16T12:19:19Z</time>
      </trkpt>
      <trkpt lat="42.84799170" lon="13.52965696">
        <ele>186.00000</ele>
        <time>2024-02-16T12:19:20Z</time>
      </trkpt>
      <trkpt lat="42.84790160" lon="13.52960349">
        <ele>186.00000</ele>
        <time>2024-02-16T12:19:21Z</time>
      </trkpt>
      <trkpt lat="42.84781065" lon="13.52954515">
        <ele>187.00000</ele>
        <time>2024-02-16T12:19:22Z</time>
      </trkpt>
      <trkpt lat="42.84772231" lon="13.52948429">
        <ele>186.00000</ele>
        <time>2024-02-16T12:19:23Z</time>
      </trkpt>
      <trkpt lat="42.84763673" lon="13.52941917">
        <ele>185.00000</ele>
        <time>2024-02-16T12:19:24Z</time>
      </trkpt>
      <trkpt lat="42.84755215" lon="13.52935161">
        <ele>184.00000</ele>
        <time>2024-02-16T12:19:25Z</time>
      </trkpt>
      <trkpt lat="42.84746649" lon="13.52928497">
        <ele>183.00000</ele>
        <time>2024-02-16T12:19:26Z</time>
      </trkpt>
      <trkpt lat="42.84738125" lon="13.52921809">
        <ele>183.00000</ele>
        <time>2024-02-16T12:19:27Z</time>
      </trkpt>
      <trkpt lat="42.84729600" lon="13.52915019">
        <ele>184.00000</ele>
        <time>2024-02-16T12:19:28Z</time>
      </trkpt>
      <trkpt lat="42.84721126" lon="13.52908163">
        <ele>184.00000</ele>
        <time>2024-02-16T12:19:29Z</time>
      </trkpt>
      <trkpt lat="42.84712912" lon="13.52901265">
        <ele>184.00000</ele>
        <time>2024-02-16T12:19:30Z</time>
      </trkpt>
      <trkpt lat="42.84704740" lon="13.52894475">
        <ele>183.00000</ele>
        <time>2024-02-16T12:19:31Z</time>
      </trkpt>
      <trkpt lat="42.84696291" lon="13.52887862">
        <ele>183.00000</ele>
        <time>2024-02-16T12:19:32Z</time>
      </trkpt>
      <trkpt lat="42.84688177" lon="13.52881508">
        <ele>183.00000</ele>
        <time>2024-02-16T12:19:33Z</time>
      </trkpt>
      <trkpt lat="42.84678823" lon="13.52873872">
        <ele>183.00000</ele>
        <time>2024-02-16T12:19:34Z</time>
      </trkpt>
      <trkpt lat="42.84671254" lon="13.52867611">
        <ele>183.00000</ele>
        <time>2024-02-16T12:19:35Z</time>
      </trkpt>
      <trkpt lat="42.84665009" lon="13.52862440">
        <ele>184.00000</ele>
        <time>2024-02-16T12:19:36Z</time>
      </trkpt>
      <trkpt lat="42.84656141" lon="13.52854904">
        <ele>184.00000</ele>
        <time>2024-02-16T12:19:37Z</time>
      </trkpt>
      <trkpt lat="42.84648858" lon="13.52848861">
        <ele>184.00000</ele>
        <time>2024-02-16T12:19:38Z</time>
      </trkpt>
      <trkpt lat="42.84641616" lon="13.52842985">
        <ele>184.00000</ele>
        <time>2024-02-16T12:19:39Z</time>
      </trkpt>
      <trkpt lat="42.84634508" lon="13.52837151">
        <ele>184.00000</ele>
        <time>2024-02-16T12:19:40Z</time>
      </trkpt>
      <trkpt lat="42.84627324" lon="13.52831267">
        <ele>184.00000</ele>
        <time>2024-02-16T12:19:41Z</time>
      </trkpt>
      <trkpt lat="42.84620024" lon="13.52825601">
        <ele>184.00000</ele>
        <time>2024-02-16T12:19:42Z</time>
      </trkpt>
      <trkpt lat="42.84612824" lon="13.52819927">
        <ele>184.00000</ele>
        <time>2024-02-16T12:19:43Z</time>
      </trkpt>
      <trkpt lat="42.84605607" lon="13.52814042">
        <ele>184.00000</ele>
        <time>2024-02-16T12:19:44Z</time>
      </trkpt>
      <trkpt lat="42.84598692" lon="13.52808016">
        <ele>184.00000</ele>
        <time>2024-02-16T12:19:45Z</time>
      </trkpt>
      <trkpt lat="42.84591902" lon="13.52801369">
        <ele>183.00000</ele>
        <time>2024-02-16T12:19:46Z</time>
      </trkpt>
      <trkpt lat="42.84585591" lon="13.52794018">
        <ele>183.00000</ele>
        <time>2024-02-16T12:19:47Z</time>
      </trkpt>
      <trkpt lat="42.84579606" lon="13.52786265">
        <ele>183.00000</ele>
        <time>2024-02-16T12:19:48Z</time>
      </trkpt>
      <trkpt lat="42.84573982" lon="13.52778453">
        <ele>185.00000</ele>
        <time>2024-02-16T12:19:49Z</time>
      </trkpt>
      <trkpt lat="42.84569213" lon="13.52769954">
        <ele>186.00000</ele>
        <time>2024-02-16T12:19:50Z</time>
      </trkpt>
      <trkpt lat="42.84564930" lon="13.52760792">
        <ele>186.00000</ele>
        <time>2024-02-16T12:19:51Z</time>
      </trkpt>
      <trkpt lat="42.84561057" lon="13.52751790">
        <ele>187.00000</ele>
        <time>2024-02-16T12:19:52Z</time>
      </trkpt>
      <trkpt lat="42.84557386" lon="13.52742905">
        <ele>187.00000</ele>
        <time>2024-02-16T12:19:53Z</time>
      </trkpt>
      <trkpt lat="42.84553086" lon="13.52734766">
        <ele>187.00000</ele>
        <time>2024-02-16T12:19:54Z</time>
      </trkpt>
      <trkpt lat="42.84548627" lon="13.52727424">
        <ele>187.00000</ele>
        <time>2024-02-16T12:19:55Z</time>
      </trkpt>
      <trkpt lat="42.84543924" lon="13.52720467">
        <ele>187.00000</ele>
        <time>2024-02-16T12:19:56Z</time>
      </trkpt>
      <trkpt lat="42.84538761" lon="13.52714155">
        <ele>187.00000</ele>
        <time>2024-02-16T12:19:57Z</time>
      </trkpt>
      <trkpt lat="42.84533724" lon="13.52708606">
        <ele>186.00000</ele>
        <time>2024-02-16T12:19:58Z</time>
      </trkpt>
      <trkpt lat="42.84528912" lon="13.52703636">
        <ele>186.00000</ele>
        <time>2024-02-16T12:19:59Z</time>
      </trkpt>
      <trkpt lat="42.84523674" lon="13.52698917">
        <ele>186.00000</ele>
        <time>2024-02-16T12:20:00Z</time>
      </trkpt>
      <trkpt lat="42.84517798" lon="13.52694693">
        <ele>187.00000</ele>
        <time>2024-02-16T12:20:01Z</time>
      </trkpt>
      <trkpt lat="42.84512098" lon="13.52690636">
        <ele>187.00000</ele>
        <time>2024-02-16T12:20:02Z</time>
      </trkpt>
      <trkpt lat="42.84506935" lon="13.52686394">
        <ele>187.00000</ele>
        <time>2024-02-16T12:20:03Z</time>
      </trkpt>
      <trkpt lat="42.84501755" lon="13.52682212">
        <ele>188.00000</ele>
        <time>2024-02-16T12:20:04Z</time>
      </trkpt>
      <trkpt lat="42.84496307" lon="13.52678138">
        <ele>188.00000</ele>
        <time>2024-02-16T12:20:05Z</time>
      </trkpt>
      <trkpt lat="42.84490574" lon="13.52674257">
        <ele>188.00000</ele>
        <time>2024-02-16T12:20:06Z</time>
      </trkpt>
      <trkpt lat="42.84484857" lon="13.52670410">
        <ele>188.00000</ele>
        <time>2024-02-16T12:20:07Z</time>
      </trkpt>
      <trkpt lat="42.84480364" lon="13.52667242">
        <ele>189.00000</ele>
        <time>2024-02-16T12:20:08Z</time>
      </trkpt>
      <trkpt lat="42.84473726" lon="13.52662221">
        <ele>189.00000</ele>
        <time>2024-02-16T12:20:09Z</time>
      </trkpt>
      <trkpt lat="42.84468060" lon="13.52658131">
        <ele>189.00000</ele>
        <time>2024-02-16T12:20:10Z</time>
      </trkpt>
      <trkpt lat="42.84462092" lon="13.52654065">
        <ele>189.00000</ele>
        <time>2024-02-16T12:20:11Z</time>
      </trkpt>
      <trkpt lat="42.84456392" lon="13.52650067">
        <ele>189.00000</ele>
        <time>2024-02-16T12:20:12Z</time>
      </trkpt>
      <trkpt lat="42.84451849" lon="13.52646790">
        <ele>189.00000</ele>
        <time>2024-02-16T12:20:13Z</time>
      </trkpt>
      <trkpt lat="42.84444901" lon="13.52641669">
        <ele>190.00000</ele>
        <time>2024-02-16T12:20:14Z</time>
      </trkpt>
      <trkpt lat="42.84439050" lon="13.52637469">
        <ele>190.00000</ele>
        <time>2024-02-16T12:20:15Z</time>
      </trkpt>
      <trkpt lat="42.84433200" lon="13.52633094">
        <ele>191.00000</ele>
        <time>2024-02-16T12:20:16Z</time>
      </trkpt>
      <trkpt lat="42.84427265" lon="13.52628786">
        <ele>191.00000</ele>
        <time>2024-02-16T12:20:17Z</time>
      </trkpt>
      <trkpt lat="42.84422555" lon="13.52624963">
        <ele>192.00000</ele>
        <time>2024-02-16T12:20:18Z</time>
      </trkpt>
      <trkpt lat="42.84416276" lon="13.52620127">
        <ele>193.00000</ele>
        <time>2024-02-16T12:20:19Z</time>
      </trkpt>
      <trkpt lat="42.84408858" lon="13.52614134">
        <ele>192.00000</ele>
        <time>2024-02-16T12:20:20Z</time>
      </trkpt>
      <trkpt lat="42.84402505" lon="13.52608845">
        <ele>192.00000</ele>
        <time>2024-02-16T12:20:21Z</time>
      </trkpt>
      <trkpt lat="42.84396034" lon="13.52603564">
        <ele>191.00000</ele>
        <time>2024-02-16T12:20:22Z</time>
      </trkpt>
      <trkpt lat="42.84389630" lon="13.52597965">
        <ele>191.00000</ele>
        <time>2024-02-16T12:20:23Z</time>
      </trkpt>
      <trkpt lat="42.84383185" lon="13.52592132">
        <ele>190.00000</ele>
        <time>2024-02-16T12:20:24Z</time>
      </trkpt>
      <trkpt lat="42.84376437" lon="13.52586298">
        <ele>189.00000</ele>
        <time>2024-02-16T12:20:25Z</time>
      </trkpt>
      <trkpt lat="42.84369296" lon="13.52580263">
        <ele>188.00000</ele>
        <time>2024-02-16T12:20:26Z</time>
      </trkpt>
      <trkpt lat="42.84362280" lon="13.52574337">
        <ele>187.00000</ele>
        <time>2024-02-16T12:20:27Z</time>
      </trkpt>
      <trkpt lat="42.84355139" lon="13.52568226">
        <ele>188.00000</ele>
        <time>2024-02-16T12:20:28Z</time>
      </trkpt>
      <trkpt lat="42.84348224" lon="13.52562133">
        <ele>189.00000</ele>
        <time>2024-02-16T12:20:29Z</time>
      </trkpt>
      <trkpt lat="42.84341518" lon="13.52555905">
        <ele>190.00000</ele>
        <time>2024-02-16T12:20:30Z</time>
      </trkpt>
      <trkpt lat="42.84334964" lon="13.52549686">
        <ele>190.00000</ele>
        <time>2024-02-16T12:20:31Z</time>
      </trkpt>
      <trkpt lat="42.84328451" lon="13.52543592">
        <ele>192.00000</ele>
        <time>2024-02-16T12:20:32Z</time>
      </trkpt>
      <trkpt lat="42.84322416" lon="13.52537456">
        <ele>194.00000</ele>
        <time>2024-02-16T12:20:33Z</time>
      </trkpt>
      <trkpt lat="42.84316616" lon="13.52531245">
        <ele>195.00000</ele>
        <time>2024-02-16T12:20:34Z</time>
      </trkpt>
      <trkpt lat="42.84312123" lon="13.52526208">
        <ele>196.00000</ele>
        <time>2024-02-16T12:20:35Z</time>
      </trkpt>
      <trkpt lat="42.84305292" lon="13.52518924">
        <ele>198.00000</ele>
        <time>2024-02-16T12:20:36Z</time>
      </trkpt>
      <trkpt lat="42.84299877" lon="13.52512914">
        <ele>197.00000</ele>
        <time>2024-02-16T12:20:37Z</time>
      </trkpt>
      <trkpt lat="42.84294211" lon="13.52507231">
        <ele>196.00000</ele>
        <time>2024-02-16T12:20:38Z</time>
      </trkpt>
      <trkpt lat="42.84288612" lon="13.52501867">
        <ele>195.00000</ele>
        <time>2024-02-16T12:20:39Z</time>
      </trkpt>
      <trkpt lat="42.84283004" lon="13.52496813">
        <ele>194.00000</ele>
        <time>2024-02-16T12:20:40Z</time>
      </trkpt>
      <trkpt lat="42.84277556" lon="13.52491968">
        <ele>193.00000</ele>
        <time>2024-02-16T12:20:41Z</time>
      </trkpt>
      <trkpt lat="42.84272057" lon="13.52487475">
        <ele>192.00000</ele>
        <time>2024-02-16T12:20:42Z</time>
      </trkpt>
      <trkpt lat="42.84266240" lon="13.52483569">
        <ele>191.00000</ele>
        <time>2024-02-16T12:20:43Z</time>
      </trkpt>
      <trkpt lat="42.84260356" lon="13.52479915">
        <ele>191.00000</ele>
        <time>2024-02-16T12:20:44Z</time>
      </trkpt>
      <trkpt lat="42.84255470" lon="13.52477291">
        <ele>191.00000</ele>
        <time>2024-02-16T12:20:45Z</time>
      </trkpt>
      <trkpt lat="42.84248110" lon="13.52473880">
        <ele>191.00000</ele>
        <time>2024-02-16T12:20:46Z</time>
      </trkpt>
      <trkpt lat="42.84242293" lon="13.52470896">
        <ele>192.00000</ele>
        <time>2024-02-16T12:20:47Z</time>
      </trkpt>
      <trkpt lat="42.84236258" lon="13.52467979">
        <ele>194.00000</ele>
        <time>2024-02-16T12:20:48Z</time>
      </trkpt>
      <trkpt lat="42.84229796" lon="13.52465204">
        <ele>195.00000</ele>
        <time>2024-02-16T12:20:49Z</time>
      </trkpt>
      <trkpt lat="42.84223635" lon="13.52461927">
        <ele>196.00000</ele>
        <time>2024-02-16T12:20:50Z</time>
      </trkpt>
      <trkpt lat="42.84217516" lon="13.52458440">
        <ele>197.00000</ele>
        <time>2024-02-16T12:20:51Z</time>
      </trkpt>
      <trkpt lat="42.84211138" lon="13.52455079">
        <ele>198.00000</ele>
        <time>2024-02-16T12:20:52Z</time>
      </trkpt>
      <trkpt lat="42.84205363" lon="13.52450586">
        <ele>199.00000</ele>
        <time>2024-02-16T12:20:53Z</time>
      </trkpt>
      <trkpt lat="42.84200660" lon="13.52444627">
        <ele>198.00000</ele>
        <time>2024-02-16T12:20:54Z</time>
      </trkpt>
      <trkpt lat="42.84195975" lon="13.52438718">
        <ele>199.00000</ele>
        <time>2024-02-16T12:20:55Z</time>
      </trkpt>
      <trkpt lat="42.84192622" lon="13.52434149">
        <ele>199.00000</ele>
        <time>2024-02-16T12:20:56Z</time>
      </trkpt>
      <trkpt lat="42.84187484" lon="13.52426958">
        <ele>198.00000</ele>
        <time>2024-02-16T12:20:57Z</time>
      </trkpt>
      <trkpt lat="42.84182908" lon="13.52420730">
        <ele>198.00000</ele>
        <time>2024-02-16T12:20:58Z</time>
      </trkpt>
      <trkpt lat="42.84178616" lon="13.52413941">
        <ele>197.00000</ele>
        <time>2024-02-16T12:20:59Z</time>
      </trkpt>
      <trkpt lat="42.84175314" lon="13.52406615">
        <ele>197.00000</ele>
        <time>2024-02-16T12:21:00Z</time>
      </trkpt>
      <trkpt lat="42.84173059" lon="13.52400538">
        <ele>196.00000</ele>
        <time>2024-02-16T12:21:01Z</time>
      </trkpt>
      <trkpt lat="42.84169471" lon="13.52391427">
        <ele>196.00000</ele>
        <time>2024-02-16T12:21:02Z</time>
      </trkpt>
      <trkpt lat="42.84166739" lon="13.52383774">
        <ele>195.00000</ele>
        <time>2024-02-16T12:21:03Z</time>
      </trkpt>
      <trkpt lat="42.84163914" lon="13.52376205">
        <ele>195.00000</ele>
        <time>2024-02-16T12:21:04Z</time>
      </trkpt>
      <trkpt lat="42.84161031" lon="13.52368578">
        <ele>195.00000</ele>
        <time>2024-02-16T12:21:05Z</time>
      </trkpt>
      <trkpt lat="42.84157712" lon="13.52361319">
        <ele>195.00000</ele>
        <time>2024-02-16T12:21:06Z</time>
      </trkpt>
      <trkpt lat="42.84154132" lon="13.52354211">
        <ele>196.00000</ele>
        <time>2024-02-16T12:21:07Z</time>
      </trkpt>
      <trkpt lat="42.84150201" lon="13.52347422">
        <ele>196.00000</ele>
        <time>2024-02-16T12:21:08Z</time>
      </trkpt>
      <trkpt lat="42.84146346" lon="13.52340708">
        <ele>197.00000</ele>
        <time>2024-02-16T12:21:09Z</time>
      </trkpt>
      <trkpt lat="42.84141769" lon="13.52334514">
        <ele>198.00000</ele>
        <time>2024-02-16T12:21:10Z</time>
      </trkpt>
      <trkpt lat="42.84136782" lon="13.52328403">
        <ele>198.00000</ele>
        <time>2024-02-16T12:21:11Z</time>
      </trkpt>
      <trkpt lat="42.84132599" lon="13.52323693">
        <ele>199.00000</ele>
        <time>2024-02-16T12:21:12Z</time>
      </trkpt>
      <trkpt lat="42.84126045" lon="13.52317214">
        <ele>199.00000</ele>
        <time>2024-02-16T12:21:13Z</time>
      </trkpt>
      <trkpt lat="42.84120068" lon="13.52312704">
        <ele>198.00000</ele>
        <time>2024-02-16T12:21:14Z</time>
      </trkpt>
      <trkpt lat="42.84113723" lon="13.52308941">
        <ele>198.00000</ele>
        <time>2024-02-16T12:21:15Z</time>
      </trkpt>
      <trkpt lat="42.84106884" lon="13.52305856">
        <ele>198.00000</ele>
        <time>2024-02-16T12:21:16Z</time>
      </trkpt>
      <trkpt lat="42.84099952" lon="13.52303476">
        <ele>198.00000</ele>
        <time>2024-02-16T12:21:17Z</time>
      </trkpt>
      <trkpt lat="42.84093062" lon="13.52301640">
        <ele>199.00000</ele>
        <time>2024-02-16T12:21:18Z</time>
      </trkpt>
      <trkpt lat="42.84086122" lon="13.52300399">
        <ele>199.00000</ele>
        <time>2024-02-16T12:21:19Z</time>
      </trkpt>
      <trkpt lat="42.84079123" lon="13.52300031">
        <ele>200.00000</ele>
        <time>2024-02-16T12:21:20Z</time>
      </trkpt>
      <trkpt lat="42.84072518" lon="13.52300299">
        <ele>200.00000</ele>
        <time>2024-02-16T12:21:21Z</time>
      </trkpt>
      <trkpt lat="42.84066089" lon="13.52300819">
        <ele>200.00000</ele>
        <time>2024-02-16T12:21:22Z</time>
      </trkpt>
      <trkpt lat="42.84060440" lon="13.52300852">
        <ele>200.00000</ele>
        <time>2024-02-16T12:21:23Z</time>
      </trkpt>
      <trkpt lat="42.84051119" lon="13.52300349">
        <ele>200.00000</ele>
        <time>2024-02-16T12:21:24Z</time>
      </trkpt>
      <trkpt lat="42.84042921" lon="13.52300165">
        <ele>199.00000</ele>
        <time>2024-02-16T12:21:25Z</time>
      </trkpt>
      <trkpt lat="42.84034607" lon="13.52300349">
        <ele>198.00000</ele>
        <time>2024-02-16T12:21:26Z</time>
      </trkpt>
      <trkpt lat="42.84026241" lon="13.52300416">
        <ele>197.00000</ele>
        <time>2024-02-16T12:21:27Z</time>
      </trkpt>
      <trkpt lat="42.84017818" lon="13.52300198">
        <ele>197.00000</ele>
        <time>2024-02-16T12:21:28Z</time>
      </trkpt>
      <trkpt lat="42.84009637" lon="13.52299662">
        <ele>196.00000</ele>
        <time>2024-02-16T12:21:29Z</time>
      </trkpt>
      <trkpt lat="42.84001448" lon="13.52299268">
        <ele>196.00000</ele>
        <time>2024-02-16T12:21:30Z</time>
      </trkpt>
      <trkpt lat="42.83992898" lon="13.52298907">
        <ele>197.00000</ele>
        <time>2024-02-16T12:21:31Z</time>
      </trkpt>
      <trkpt lat="42.83984449" lon="13.52298664">
        <ele>198.00000</ele>
        <time>2024-02-16T12:21:32Z</time>
      </trkpt>
      <trkpt lat="42.83976109" lon="13.52298731">
        <ele>199.00000</ele>
        <time>2024-02-16T12:21:33Z</time>
      </trkpt>
      <trkpt lat="42.83969789" lon="13.52298622">
        <ele>200.00000</ele>
        <time>2024-02-16T12:21:34Z</time>
      </trkpt>
      <trkpt lat="42.83960477" lon="13.52298438">
        <ele>201.00000</ele>
        <time>2024-02-16T12:21:35Z</time>
      </trkpt>
      <trkpt lat="42.83952665" lon="13.52298103">
        <ele>202.00000</ele>
        <time>2024-02-16T12:21:36Z</time>
      </trkpt>
      <trkpt lat="42.83945230" lon="13.52297566">
        <ele>202.00000</ele>
        <time>2024-02-16T12:21:37Z</time>
      </trkpt>
      <trkpt lat="42.83937871" lon="13.52296837">
        <ele>203.00000</ele>
        <time>2024-02-16T12:21:38Z</time>
      </trkpt>
      <trkpt lat="42.83932121" lon="13.52295722">
        <ele>204.00000</ele>
        <time>2024-02-16T12:21:39Z</time>
      </trkpt>
      <trkpt lat="42.83924007" lon="13.52292663">
        <ele>204.00000</ele>
        <time>2024-02-16T12:21:40Z</time>
      </trkpt>
      <trkpt lat="42.83918601" lon="13.52289771">
        <ele>204.00000</ele>
        <time>2024-02-16T12:21:41Z</time>
      </trkpt>
      <trkpt lat="42.83911191" lon="13.52284331">
        <ele>205.00000</ele>
        <time>2024-02-16T12:21:42Z</time>
      </trkpt>
      <trkpt lat="42.83906824" lon="13.52279922">
        <ele>205.00000</ele>
        <time>2024-02-16T12:21:43Z</time>
      </trkpt>
      <trkpt lat="42.83901787" lon="13.52274248">
        <ele>206.00000</ele>
        <time>2024-02-16T12:21:44Z</time>
      </trkpt>
      <trkpt lat="42.83897034" lon="13.52268012">
        <ele>206.00000</ele>
        <time>2024-02-16T12:21:45Z</time>
      </trkpt>
      <trkpt lat="42.83891745" lon="13.52260611">
        <ele>206.00000</ele>
        <time>2024-02-16T12:21:46Z</time>
      </trkpt>
      <trkpt lat="42.83887479" lon="13.52254550">
        <ele>206.00000</ele>
        <time>2024-02-16T12:21:47Z</time>
      </trkpt>
      <trkpt lat="42.83883154" lon="13.52248465">
        <ele>205.00000</ele>
        <time>2024-02-16T12:21:48Z</time>
      </trkpt>
      <trkpt lat="42.83878753" lon="13.52242631">
        <ele>205.00000</ele>
        <time>2024-02-16T12:21:49Z</time>
      </trkpt>
      <trkpt lat="42.83874445" lon="13.52236697">
        <ele>205.00000</ele>
        <time>2024-02-16T12:21:50Z</time>
      </trkpt>
      <trkpt lat="42.83870229" lon="13.52230989">
        <ele>205.00000</ele>
        <time>2024-02-16T12:21:51Z</time>
      </trkpt>
      <trkpt lat="42.83865912" lon="13.52225222">
        <ele>205.00000</ele>
        <time>2024-02-16T12:21:52Z</time>
      </trkpt>
      <trkpt lat="42.83861529" lon="13.52219640">
        <ele>205.00000</ele>
        <time>2024-02-16T12:21:53Z</time>
      </trkpt>
      <trkpt lat="42.83857371" lon="13.52214133">
        <ele>206.00000</ele>
        <time>2024-02-16T12:21:54Z</time>
      </trkpt>
      <trkpt lat="42.83853826" lon="13.52209758">
        <ele>206.00000</ele>
        <time>2024-02-16T12:21:55Z</time>
      </trkpt>
      <trkpt lat="42.83849073" lon="13.52203136">
        <ele>206.00000</ele>
        <time>2024-02-16T12:21:56Z</time>
      </trkpt>
      <trkpt lat="42.83845360" lon="13.52197914">
        <ele>206.00000</ele>
        <time>2024-02-16T12:21:57Z</time>
      </trkpt>
      <trkpt lat="42.83840884" lon="13.52192650">
        <ele>205.00000</ele>
        <time>2024-02-16T12:21:58Z</time>
      </trkpt>
      <trkpt lat="42.83836316" lon="13.52187504">
        <ele>205.00000</ele>
        <time>2024-02-16T12:21:59Z</time>
      </trkpt>
      <trkpt lat="42.83832133" lon="13.52182039">
        <ele>206.00000</ele>
        <time>2024-02-16T12:22:00Z</time>
      </trkpt>
      <trkpt lat="42.83828345" lon="13.52176247">
        <ele>206.00000</ele>
        <time>2024-02-16T12:22:01Z</time>
      </trkpt>
      <trkpt lat="42.83824875" lon="13.52170212">
        <ele>206.00000</ele>
        <time>2024-02-16T12:22:02Z</time>
      </trkpt>
      <trkpt lat="42.83821530" lon="13.52163867">
        <ele>207.00000</ele>
        <time>2024-02-16T12:22:03Z</time>
      </trkpt>
      <trkpt lat="42.83818898" lon="13.52158552">
        <ele>207.00000</ele>
        <time>2024-02-16T12:22:04Z</time>
      </trkpt>
      <trkpt lat="42.83816367" lon="13.52151570">
        <ele>208.00000</ele>
        <time>2024-02-16T12:22:05Z</time>
      </trkpt>
      <trkpt lat="42.83814196" lon="13.52142484">
        <ele>209.00000</ele>
        <time>2024-02-16T12:22:06Z</time>
      </trkpt>
      <trkpt lat="42.83812176" lon="13.52134999">
        <ele>209.00000</ele>
        <time>2024-02-16T12:22:07Z</time>
      </trkpt>
      <trkpt lat="42.83810307" lon="13.52127548">
        <ele>210.00000</ele>
        <time>2024-02-16T12:22:08Z</time>
      </trkpt>
      <trkpt lat="42.83809075" lon="13.52121714">
        <ele>210.00000</ele>
        <time>2024-02-16T12:22:09Z</time>
      </trkpt>
      <trkpt lat="42.83807750" lon="13.52114028">
        <ele>210.00000</ele>
        <time>2024-02-16T12:22:10Z</time>
      </trkpt>
      <trkpt lat="42.83806141" lon="13.52105277">
        <ele>210.00000</ele>
        <time>2024-02-16T12:22:11Z</time>
      </trkpt>
      <trkpt lat="42.83804389" lon="13.52098488">
        <ele>211.00000</ele>
        <time>2024-02-16T12:22:12Z</time>
      </trkpt>
      <trkpt lat="42.83802252" lon="13.52091740">
        <ele>212.00000</ele>
        <time>2024-02-16T12:22:13Z</time>
      </trkpt>
      <trkpt lat="42.83799771" lon="13.52085328">
        <ele>212.00000</ele>
        <time>2024-02-16T12:22:14Z</time>
      </trkpt>
      <trkpt lat="42.83796686" lon="13.52079201">
        <ele>213.00000</ele>
        <time>2024-02-16T12:22:15Z</time>
      </trkpt>
      <trkpt lat="42.83793820" lon="13.52074507">
        <ele>213.00000</ele>
        <time>2024-02-16T12:22:16Z</time>
      </trkpt>
      <trkpt lat="42.83789251" lon="13.52068137">
        <ele>214.00000</ele>
        <time>2024-02-16T12:22:17Z</time>
      </trkpt>
      <trkpt lat="42.83784742" lon="13.52064030">
        <ele>215.00000</ele>
        <time>2024-02-16T12:22:18Z</time>
      </trkpt>
      <trkpt lat="42.83779771" lon="13.52060912">
        <ele>216.00000</ele>
        <time>2024-02-16T12:22:19Z</time>
      </trkpt>
      <trkpt lat="42.83774667" lon="13.52058590">
        <ele>217.00000</ele>
        <time>2024-02-16T12:22:20Z</time>
      </trkpt>
      <trkpt lat="42.83769227" lon="13.52056595">
        <ele>218.00000</ele>
        <time>2024-02-16T12:22:21Z</time>
      </trkpt>
      <trkpt lat="42.83763779" lon="13.52054759">
        <ele>218.00000</ele>
        <time>2024-02-16T12:22:22Z</time>
      </trkpt>
      <trkpt lat="42.83758280" lon="13.52053133">
        <ele>219.00000</ele>
        <time>2024-02-16T12:22:23Z</time>
      </trkpt>
      <trkpt lat="42.83752907" lon="13.52051222">
        <ele>219.00000</ele>
        <time>2024-02-16T12:22:24Z</time>
      </trkpt>
      <trkpt lat="42.83747468" lon="13.52048741">
        <ele>220.00000</ele>
        <time>2024-02-16T12:22:25Z</time>
      </trkpt>
      <trkpt lat="42.83743151" lon="13.52046646">
        <ele>220.00000</ele>
        <time>2024-02-16T12:22:26Z</time>
      </trkpt>
      <trkpt lat="42.83736948" lon="13.52043134">
        <ele>220.00000</ele>
        <time>2024-02-16T12:22:27Z</time>
      </trkpt>
      <trkpt lat="42.83731911" lon="13.52039370">
        <ele>220.00000</ele>
        <time>2024-02-16T12:22:28Z</time>
      </trkpt>
      <trkpt lat="42.83726907" lon="13.52035221">
        <ele>220.00000</ele>
        <time>2024-02-16T12:22:29Z</time>
      </trkpt>
      <trkpt lat="42.83722196" lon="13.52030645">
        <ele>220.00000</ele>
        <time>2024-02-16T12:22:30Z</time>
      </trkpt>
      <trkpt lat="42.83717745" lon="13.52025607">
        <ele>220.00000</ele>
        <time>2024-02-16T12:22:31Z</time>
      </trkpt>
      <trkpt lat="42.83714393" lon="13.52021232">
        <ele>219.00000</ele>
        <time>2024-02-16T12:22:32Z</time>
      </trkpt>
      <trkpt lat="42.83709590" lon="13.52014384">
        <ele>219.00000</ele>
        <time>2024-02-16T12:22:33Z</time>
      </trkpt>
      <trkpt lat="42.83705634" lon="13.52008407">
        <ele>219.00000</ele>
        <time>2024-02-16T12:22:34Z</time>
      </trkpt>
      <trkpt lat="42.83701468" lon="13.52002465">
        <ele>218.00000</ele>
        <time>2024-02-16T12:22:35Z</time>
      </trkpt>
      <trkpt lat="42.83697118" lon="13.51996589">
        <ele>218.00000</ele>
        <time>2024-02-16T12:22:36Z</time>
      </trkpt>
      <trkpt lat="42.83693505" lon="13.51992188">
        <ele>218.00000</ele>
        <time>2024-02-16T12:22:37Z</time>
      </trkpt>
      <trkpt lat="42.83688082" lon="13.51985550">
        <ele>217.00000</ele>
        <time>2024-02-16T12:22:38Z</time>
      </trkpt>
      <trkpt lat="42.83683346" lon="13.51980445">
        <ele>216.00000</ele>
        <time>2024-02-16T12:22:39Z</time>
      </trkpt>
      <trkpt lat="42.83678040" lon="13.51975886">
        <ele>216.00000</ele>
        <time>2024-02-16T12:22:40Z</time>
      </trkpt>
      <trkpt lat="42.83672483" lon="13.51971938">
        <ele>216.00000</ele>
        <time>2024-02-16T12:22:41Z</time>
      </trkpt>
      <trkpt lat="42.83667135" lon="13.51968778">
        <ele>215.00000</ele>
        <time>2024-02-16T12:22:42Z</time>
      </trkpt>
      <trkpt lat="42.83661729" lon="13.51966355">
        <ele>216.00000</ele>
        <time>2024-02-16T12:22:43Z</time>
      </trkpt>
      <trkpt lat="42.83656189" lon="13.51964176">
        <ele>216.00000</ele>
        <time>2024-02-16T12:22:44Z</time>
      </trkpt>
      <trkpt lat="42.83650648" lon="13.51962810">
        <ele>217.00000</ele>
        <time>2024-02-16T12:22:45Z</time>
      </trkpt>
      <trkpt lat="42.83645091" lon="13.51961938">
        <ele>217.00000</ele>
        <time>2024-02-16T12:22:46Z</time>
      </trkpt>
      <trkpt lat="42.83639509" lon="13.51961159">
        <ele>218.00000</ele>
        <time>2024-02-16T12:22:47Z</time>
      </trkpt>
      <trkpt lat="42.83633834" lon="13.51960832">
        <ele>218.00000</ele>
        <time>2024-02-16T12:22:48Z</time>
      </trkpt>
      <trkpt lat="42.83628352" lon="13.51960983">
        <ele>219.00000</ele>
        <time>2024-02-16T12:22:49Z</time>
      </trkpt>
      <trkpt lat="42.83622820" lon="13.51961184">
        <ele>219.00000</ele>
        <time>2024-02-16T12:22:50Z</time>
      </trkpt>
      <trkpt lat="42.83617464" lon="13.51961469">
        <ele>219.00000</ele>
        <time>2024-02-16T12:22:51Z</time>
      </trkpt>
      <trkpt lat="42.83611999" lon="13.51961796">
        <ele>220.00000</ele>
        <time>2024-02-16T12:22:52Z</time>
      </trkpt>
      <trkpt lat="42.83608923" lon="13.51961377">
        <ele>220.00000</ele>
        <time>2024-02-16T12:22:53Z</time>
      </trkpt>
      <trkpt lat="42.83606886" lon="13.51960530">
        <ele>220.00000</ele>
        <time>2024-02-16T12:22:54Z</time>
      </trkpt>
      <trkpt lat="42.83604900" lon="13.51959683">
        <ele>220.00000</ele>
        <time>2024-02-16T12:22:55Z</time>
      </trkpt>
      <trkpt lat="42.83602938" lon="13.51958837">
        <ele>220.00000</ele>
        <time>2024-02-16T12:22:56Z</time>
      </trkpt>
      <trkpt lat="42.83600826" lon="13.51958015">
        <ele>220.00000</ele>
        <time>2024-02-16T12:22:57Z</time>
      </trkpt>
      <trkpt lat="42.83598605" lon="13.51957202">
        <ele>220.00000</ele>
        <time>2024-02-16T12:22:58Z</time>
      </trkpt>
      <trkpt lat="42.83485944" lon="13.51879184">
        <ele>221.00000</ele>
        <time>2024-02-16T12:23:12Z</time>
      </trkpt>
      <trkpt lat="42.83480680" lon="13.51866862">
        <ele>220.00000</ele>
        <time>2024-02-16T12:23:13Z</time>
      </trkpt>
      <trkpt lat="42.83474301" lon="13.51855983">
        <ele>220.00000</ele>
        <time>2024-02-16T12:23:14Z</time>
      </trkpt>
      <trkpt lat="42.83469079" lon="13.51847006">
        <ele>220.00000</ele>
        <time>2024-02-16T12:23:15Z</time>
      </trkpt>
      <trkpt lat="42.83460211" lon="13.51834131">
        <ele>220.00000</ele>
        <time>2024-02-16T12:23:16Z</time>
      </trkpt>
      <trkpt lat="42.83452156" lon="13.51826814">
        <ele>220.00000</ele>
        <time>2024-02-16T12:23:17Z</time>
      </trkpt>
      <trkpt lat="42.83444034" lon="13.51821005">
        <ele>220.00000</ele>
        <time>2024-02-16T12:23:18Z</time>
      </trkpt>
      <trkpt lat="42.83435862" lon="13.51815599">
        <ele>220.00000</ele>
        <time>2024-02-16T12:23:19Z</time>
      </trkpt>
      <trkpt lat="42.83429509" lon="13.51811408">
        <ele>220.00000</ele>
        <time>2024-02-16T12:23:20Z</time>
      </trkpt>
      <trkpt lat="42.83421378" lon="13.51806311">
        <ele>220.00000</ele>
        <time>2024-02-16T12:23:21Z</time>
      </trkpt>
      <trkpt lat="42.83411270" lon="13.51800033">
        <ele>219.00000</ele>
        <time>2024-02-16T12:23:22Z</time>
      </trkpt>
      <trkpt lat="42.83402267" lon="13.51795264">
        <ele>219.00000</ele>
        <time>2024-02-16T12:23:23Z</time>
      </trkpt>
      <trkpt lat="42.83394145" lon="13.51791534">
        <ele>218.00000</ele>
        <time>2024-02-16T12:23:24Z</time>
      </trkpt>
      <trkpt lat="42.83385160" lon="13.51786094">
        <ele>217.00000</ele>
        <time>2024-02-16T12:23:25Z</time>
      </trkpt>
      <trkpt lat="42.83373895" lon="13.51779984">
        <ele>217.00000</ele>
        <time>2024-02-16T12:23:26Z</time>
      </trkpt>
      <trkpt lat="42.83366527" lon="13.51775826">
        <ele>216.00000</ele>
        <time>2024-02-16T12:23:27Z</time>
      </trkpt>
      <trkpt lat="42.83357173" lon="13.51770839">
        <ele>216.00000</ele>
        <time>2024-02-16T12:23:28Z</time>
      </trkpt>
      <trkpt lat="42.83347500" lon="13.51765508">
        <ele>216.00000</ele>
        <time>2024-02-16T12:23:29Z</time>
      </trkpt>
      <trkpt lat="42.83335464" lon="13.51758987">
        <ele>216.00000</ele>
        <time>2024-02-16T12:23:30Z</time>
      </trkpt>
      <trkpt lat="42.83325481" lon="13.51753581">
        <ele>217.00000</ele>
        <time>2024-02-16T12:23:31Z</time>
      </trkpt>
      <trkpt lat="42.83315598" lon="13.51748191">
        <ele>218.00000</ele>
        <time>2024-02-16T12:23:32Z</time>
      </trkpt>
      <trkpt lat="42.83307912" lon="13.51743849">
        <ele>218.00000</ele>
        <time>2024-02-16T12:23:33Z</time>
      </trkpt>
      <trkpt lat="42.83298357" lon="13.51738125">
        <ele>218.00000</ele>
        <time>2024-02-16T12:23:34Z</time>
      </trkpt>
      <trkpt lat="42.83288986" lon="13.51731712">
        <ele>218.00000</ele>
        <time>2024-02-16T12:23:35Z</time>
      </trkpt>
      <trkpt lat="42.83278081" lon="13.51723406">
        <ele>218.00000</ele>
        <time>2024-02-16T12:23:36Z</time>
      </trkpt>
      <trkpt lat="42.83270948" lon="13.51717354">
        <ele>216.00000</ele>
        <time>2024-02-16T12:23:37Z</time>
      </trkpt>
      <trkpt lat="42.83262172" lon="13.51709526">
        <ele>215.00000</ele>
        <time>2024-02-16T12:23:38Z</time>
      </trkpt>
      <trkpt lat="42.83253455" lon="13.51701328">
        <ele>215.00000</ele>
        <time>2024-02-16T12:23:39Z</time>
      </trkpt>
      <trkpt lat="42.83244981" lon="13.51692938">
        <ele>215.00000</ele>
        <time>2024-02-16T12:23:40Z</time>
      </trkpt>
      <trkpt lat="42.83234981" lon="13.51682988">
        <ele>213.00000</ele>
        <time>2024-02-16T12:23:41Z</time>
      </trkpt>
      <trkpt lat="42.83226625" lon="13.51675051">
        <ele>212.00000</ele>
        <time>2024-02-16T12:23:42Z</time>
      </trkpt>
      <trkpt lat="42.83219961" lon="13.51668513">
        <ele>212.00000</ele>
        <time>2024-02-16T12:23:43Z</time>
      </trkpt>
      <trkpt lat="42.83211537" lon="13.51660181">
        <ele>211.00000</ele>
        <time>2024-02-16T12:23:44Z</time>
      </trkpt>
      <trkpt lat="42.83201412" lon="13.51650291">
        <ele>209.00000</ele>
        <time>2024-02-16T12:23:45Z</time>
      </trkpt>
      <trkpt lat="42.83192896" lon="13.51642076">
        <ele>208.00000</ele>
        <time>2024-02-16T12:23:46Z</time>
      </trkpt>
      <trkpt lat="42.83184472" lon="13.51634097">
        <ele>206.00000</ele>
        <time>2024-02-16T12:23:47Z</time>
      </trkpt>
      <trkpt lat="42.83177959" lon="13.51627626">
        <ele>206.00000</ele>
        <time>2024-02-16T12:23:48Z</time>
      </trkpt>
      <trkpt lat="42.83169586" lon="13.51619512">
        <ele>204.00000</ele>
        <time>2024-02-16T12:23:49Z</time>
      </trkpt>
      <trkpt lat="42.83161430" lon="13.51610862">
        <ele>203.00000</ele>
        <time>2024-02-16T12:23:50Z</time>
      </trkpt>
      <trkpt lat="42.83153124" lon="13.51602782">
        <ele>204.00000</ele>
        <time>2024-02-16T12:23:51Z</time>
      </trkpt>
      <trkpt lat="42.83143325" lon="13.51593520">
        <ele>204.00000</ele>
        <time>2024-02-16T12:23:52Z</time>
      </trkpt>
      <trkpt lat="42.83136779" lon="13.51586974">
        <ele>204.00000</ele>
        <time>2024-02-16T12:23:53Z</time>
      </trkpt>
      <trkpt lat="42.83129126" lon="13.51578181">
        <ele>205.00000</ele>
        <time>2024-02-16T12:23:54Z</time>
      </trkpt>
      <trkpt lat="42.83121993" lon="13.51568106">
        <ele>206.00000</ele>
        <time>2024-02-16T12:23:55Z</time>
      </trkpt>
      <trkpt lat="42.83115615" lon="13.51556958">
        <ele>207.00000</ele>
        <time>2024-02-16T12:23:56Z</time>
      </trkpt>
      <trkpt lat="42.83109856" lon="13.51545240">
        <ele>207.00000</ele>
        <time>2024-02-16T12:23:57Z</time>
      </trkpt>
      <trkpt lat="42.83104509" lon="13.51532927">
        <ele>206.00000</ele>
        <time>2024-02-16T12:23:58Z</time>
      </trkpt>
      <trkpt lat="42.83099655" lon="13.51520472">
        <ele>206.00000</ele>
        <time>2024-02-16T12:23:59Z</time>
      </trkpt>
      <trkpt lat="42.83095180" lon="13.51507857">
        <ele>206.00000</ele>
        <time>2024-02-16T12:24:00Z</time>
      </trkpt>
      <trkpt lat="42.83090829" lon="13.51494966">
        <ele>206.00000</ele>
        <time>2024-02-16T12:24:01Z</time>
      </trkpt>
      <trkpt lat="42.83086680" lon="13.51481957">
        <ele>206.00000</ele>
        <time>2024-02-16T12:24:02Z</time>
      </trkpt>
      <trkpt lat="42.83082556" lon="13.51469032">
        <ele>207.00000</ele>
        <time>2024-02-16T12:24:03Z</time>
      </trkpt>
      <trkpt lat="42.83078122" lon="13.51456141">
        <ele>207.00000</ele>
        <time>2024-02-16T12:24:04Z</time>
      </trkpt>
      <trkpt lat="42.83073060" lon="13.51440483">
        <ele>207.00000</ele>
        <time>2024-02-16T12:24:05Z</time>
      </trkpt>
      <trkpt lat="42.83069615" lon="13.51430006">
        <ele>206.00000</ele>
        <time>2024-02-16T12:24:06Z</time>
      </trkpt>
      <trkpt lat="42.83065290" lon="13.51417022">
        <ele>205.00000</ele>
        <time>2024-02-16T12:24:07Z</time>
      </trkpt>
      <trkpt lat="42.83061124" lon="13.51403796">
        <ele>205.00000</ele>
        <time>2024-02-16T12:24:08Z</time>
      </trkpt>
      <trkpt lat="42.83056841" lon="13.51390485">
        <ele>205.00000</ele>
        <time>2024-02-16T12:24:09Z</time>
      </trkpt>
      <trkpt lat="42.83052935" lon="13.51376999">
        <ele>204.00000</ele>
        <time>2024-02-16T12:24:10Z</time>
      </trkpt>
      <trkpt lat="42.83048392" lon="13.51360579">
        <ele>203.00000</ele>
        <time>2024-02-16T12:24:11Z</time>
      </trkpt>
      <trkpt lat="42.83045408" lon="13.51349498">
        <ele>203.00000</ele>
        <time>2024-02-16T12:24:12Z</time>
      </trkpt>
      <trkpt lat="42.83041887" lon="13.51335793">
        <ele>203.00000</ele>
        <time>2024-02-16T12:24:13Z</time>
      </trkpt>
      <trkpt lat="42.83038853" lon="13.51322022">
        <ele>203.00000</ele>
        <time>2024-02-16T12:24:14Z</time>
      </trkpt>
      <trkpt lat="42.83036213" lon="13.51307848">
        <ele>202.00000</ele>
        <time>2024-02-16T12:24:15Z</time>
      </trkpt>
      <trkpt lat="42.83033338" lon="13.51293842">
        <ele>202.00000</ele>
        <time>2024-02-16T12:24:16Z</time>
      </trkpt>
      <trkpt lat="42.83030647" lon="13.51279777">
        <ele>201.00000</ele>
        <time>2024-02-16T12:24:17Z</time>
      </trkpt>
      <trkpt lat="42.83028166" lon="13.51265796">
        <ele>201.00000</ele>
        <time>2024-02-16T12:24:18Z</time>
      </trkpt>
      <trkpt lat="42.83025953" lon="13.51251681">
        <ele>201.00000</ele>
        <time>2024-02-16T12:24:19Z</time>
      </trkpt>
      <trkpt lat="42.83023900" lon="13.51234506">
        <ele>200.00000</ele>
        <time>2024-02-16T12:24:20Z</time>
      </trkpt>
      <trkpt lat="42.83022207" lon="13.51220249">
        <ele>199.00000</ele>
        <time>2024-02-16T12:24:21Z</time>
      </trkpt>
      <trkpt lat="42.83021360" lon="13.51208858">
        <ele>197.00000</ele>
        <time>2024-02-16T12:24:22Z</time>
      </trkpt>
      <trkpt lat="42.83019742" lon="13.51195212">
        <ele>196.00000</ele>
        <time>2024-02-16T12:24:23Z</time>
      </trkpt>
      <trkpt lat="42.83018309" lon="13.51181533">
        <ele>194.00000</ele>
        <time>2024-02-16T12:24:24Z</time>
      </trkpt>
      <trkpt lat="42.83017052" lon="13.51165020">
        <ele>193.00000</ele>
        <time>2024-02-16T12:24:25Z</time>
      </trkpt>
      <trkpt lat="42.83015971" lon="13.51151517">
        <ele>193.00000</ele>
        <time>2024-02-16T12:24:26Z</time>
      </trkpt>
      <trkpt lat="42.83015040" lon="13.51140797">
        <ele>193.00000</ele>
        <time>2024-02-16T12:24:27Z</time>
      </trkpt>
      <trkpt lat="42.83013422" lon="13.51127679">
        <ele>195.00000</ele>
        <time>2024-02-16T12:24:28Z</time>
      </trkpt>
      <trkpt lat="42.83010992" lon="13.51112307">
        <ele>198.00000</ele>
        <time>2024-02-16T12:24:29Z</time>
      </trkpt>
      <trkpt lat="42.83007522" lon="13.51100589">
        <ele>200.00000</ele>
        <time>2024-02-16T12:24:30Z</time>
      </trkpt>
      <trkpt lat="42.83002660" lon="13.51090413">
        <ele>201.00000</ele>
        <time>2024-02-16T12:24:31Z</time>
      </trkpt>
      <trkpt lat="42.82996432" lon="13.51081889">
        <ele>202.00000</ele>
        <time>2024-02-16T12:24:32Z</time>
      </trkpt>
      <trkpt lat="42.82990112" lon="13.51076759">
        <ele>202.00000</ele>
        <time>2024-02-16T12:24:33Z</time>
      </trkpt>
      <trkpt lat="42.82980708" lon="13.51070305">
        <ele>201.00000</ele>
        <time>2024-02-16T12:24:34Z</time>
      </trkpt>
      <trkpt lat="42.82972971" lon="13.51066290">
        <ele>201.00000</ele>
        <time>2024-02-16T12:24:35Z</time>
      </trkpt>
      <trkpt lat="42.82964908" lon="13.51062619">
        <ele>201.00000</ele>
        <time>2024-02-16T12:24:36Z</time>
      </trkpt>
      <trkpt lat="42.82956937" lon="13.51059366">
        <ele>202.00000</ele>
        <time>2024-02-16T12:24:37Z</time>
      </trkpt>
      <trkpt lat="42.82949083" lon="13.51056424">
        <ele>202.00000</ele>
        <time>2024-02-16T12:24:38Z</time>
      </trkpt>
      <trkpt lat="42.82942998" lon="13.51054706">
        <ele>202.00000</ele>
        <time>2024-02-16T12:24:39Z</time>
      </trkpt>
      <trkpt lat="42.82933996" lon="13.51051831">
        <ele>202.00000</ele>
        <time>2024-02-16T12:24:40Z</time>
      </trkpt>
      <trkpt lat="42.82926796" lon="13.51049308">
        <ele>202.00000</ele>
        <time>2024-02-16T12:24:41Z</time>
      </trkpt>
      <trkpt lat="42.82919562" lon="13.51047070">
        <ele>201.00000</ele>
        <time>2024-02-16T12:24:42Z</time>
      </trkpt>
      <trkpt lat="42.82913628" lon="13.51045402">
        <ele>201.00000</ele>
        <time>2024-02-16T12:24:43Z</time>
      </trkpt>
      <trkpt lat="42.82906310" lon="13.51043256">
        <ele>201.00000</ele>
        <time>2024-02-16T12:24:44Z</time>
      </trkpt>
      <trkpt lat="42.82897668" lon="13.51040658">
        <ele>201.00000</ele>
        <time>2024-02-16T12:24:45Z</time>
      </trkpt>
      <trkpt lat="42.82890167" lon="13.51037976">
        <ele>201.00000</ele>
        <time>2024-02-16T12:24:46Z</time>
      </trkpt>
      <trkpt lat="42.82882422" lon="13.51036174">
        <ele>201.00000</ele>
        <time>2024-02-16T12:24:47Z</time>
      </trkpt>
      <trkpt lat="42.82875808" lon="13.51034992">
        <ele>202.00000</ele>
        <time>2024-02-16T12:24:48Z</time>
      </trkpt>
      <trkpt lat="42.82866907" lon="13.51032779">
        <ele>202.00000</ele>
        <time>2024-02-16T12:24:49Z</time>
      </trkpt>
      <trkpt lat="42.82859447" lon="13.51030516">
        <ele>203.00000</ele>
        <time>2024-02-16T12:24:50Z</time>
      </trkpt>
      <trkpt lat="42.82852104" lon="13.51027339">
        <ele>203.00000</ele>
        <time>2024-02-16T12:24:51Z</time>
      </trkpt>
      <trkpt lat="42.82844837" lon="13.51024196">
        <ele>203.00000</ele>
        <time>2024-02-16T12:24:52Z</time>
      </trkpt>
      <trkpt lat="42.82838903" lon="13.51022176">
        <ele>203.00000</ele>
        <time>2024-02-16T12:24:53Z</time>
      </trkpt>
      <trkpt lat="42.82829524" lon="13.51019636">
        <ele>203.00000</ele>
        <time>2024-02-16T12:24:54Z</time>
      </trkpt>
      <trkpt lat="42.82822072" lon="13.51017239">
        <ele>204.00000</ele>
        <time>2024-02-16T12:24:55Z</time>
      </trkpt>
      <trkpt lat="42.82814838" lon="13.51014649">
        <ele>204.00000</ele>
        <time>2024-02-16T12:24:56Z</time>
      </trkpt>
      <trkpt lat="42.82808946" lon="13.51012797">
        <ele>205.00000</ele>
        <time>2024-02-16T12:24:57Z</time>
      </trkpt>
      <trkpt lat="42.82801142" lon="13.51009427">
        <ele>204.00000</ele>
        <time>2024-02-16T12:24:58Z</time>
      </trkpt>
      <trkpt lat="42.82792584" lon="13.51006695">
        <ele>204.00000</ele>
        <time>2024-02-16T12:24:59Z</time>
      </trkpt>
      <trkpt lat="42.82785359" lon="13.51004616">
        <ele>204.00000</ele>
        <time>2024-02-16T12:25:00Z</time>
      </trkpt>
      <trkpt lat="42.82777941" lon="13.51002227">
        <ele>203.00000</ele>
        <time>2024-02-16T12:25:01Z</time>
      </trkpt>
      <trkpt lat="42.82772116" lon="13.50999964">
        <ele>203.00000</ele>
        <time>2024-02-16T12:25:02Z</time>
      </trkpt>
      <trkpt lat="42.82764882" lon="13.50997164">
        <ele>203.00000</ele>
        <time>2024-02-16T12:25:03Z</time>
      </trkpt>
      <trkpt lat="42.82757397" lon="13.50994239">
        <ele>203.00000</ele>
        <time>2024-02-16T12:25:04Z</time>
      </trkpt>
      <trkpt lat="42.82748286" lon="13.50990853">
        <ele>203.00000</ele>
        <time>2024-02-16T12:25:05Z</time>
      </trkpt>
      <trkpt lat="42.82742251" lon="13.50988699">
        <ele>203.00000</ele>
        <time>2024-02-16T12:25:06Z</time>
      </trkpt>
      <trkpt lat="42.82733174" lon="13.50985497">
        <ele>203.00000</ele>
        <time>2024-02-16T12:25:07Z</time>
      </trkpt>
      <trkpt lat="42.82727072" lon="13.50983217">
        <ele>203.00000</ele>
        <time>2024-02-16T12:25:08Z</time>
      </trkpt>
      <trkpt lat="42.82719377" lon="13.50980451">
        <ele>204.00000</ele>
        <time>2024-02-16T12:25:09Z</time>
      </trkpt>
      <trkpt lat="42.82710299" lon="13.50977308">
        <ele>205.00000</ele>
        <time>2024-02-16T12:25:10Z</time>
      </trkpt>
      <trkpt lat="42.82702429" lon="13.50975070">
        <ele>206.00000</ele>
        <time>2024-02-16T12:25:11Z</time>
      </trkpt>
      <trkpt lat="42.82696201" lon="13.50973318">
        <ele>206.00000</ele>
        <time>2024-02-16T12:25:12Z</time>
      </trkpt>
      <trkpt lat="42.82688624" lon="13.50970761">
        <ele>207.00000</ele>
        <time>2024-02-16T12:25:13Z</time>
      </trkpt>
      <trkpt lat="42.82679747" lon="13.50967585">
        <ele>207.00000</ele>
        <time>2024-02-16T12:25:14Z</time>
      </trkpt>
      <trkpt lat="42.82672455" lon="13.50965489">
        <ele>208.00000</ele>
        <time>2024-02-16T12:25:15Z</time>
      </trkpt>
      <trkpt lat="42.82666445" lon="13.50964307">
        <ele>208.00000</ele>
        <time>2024-02-16T12:25:16Z</time>
      </trkpt>
      <trkpt lat="42.82657233" lon="13.50961776">
        <ele>207.00000</ele>
        <time>2024-02-16T12:25:17Z</time>
      </trkpt>
      <trkpt lat="42.82651123" lon="13.50959739">
        <ele>207.00000</ele>
        <time>2024-02-16T12:25:18Z</time>
      </trkpt>
      <trkpt lat="42.82642666" lon="13.50956873">
        <ele>206.00000</ele>
        <time>2024-02-16T12:25:19Z</time>
      </trkpt>
      <trkpt lat="42.82635566" lon="13.50954366">
        <ele>206.00000</ele>
        <time>2024-02-16T12:25:20Z</time>
      </trkpt>
      <trkpt lat="42.82628450" lon="13.50951684">
        <ele>206.00000</ele>
        <time>2024-02-16T12:25:21Z</time>
      </trkpt>
      <trkpt lat="42.82623044" lon="13.50949522">
        <ele>206.00000</ele>
        <time>2024-02-16T12:25:22Z</time>
      </trkpt>
      <trkpt lat="42.82615961" lon="13.50946823">
        <ele>206.00000</ele>
        <time>2024-02-16T12:25:23Z</time>
      </trkpt>
      <trkpt lat="42.82607529" lon="13.50943889">
        <ele>206.00000</ele>
        <time>2024-02-16T12:25:24Z</time>
      </trkpt>
      <trkpt lat="42.82600555" lon="13.50941743">
        <ele>207.00000</ele>
        <time>2024-02-16T12:25:25Z</time>
      </trkpt>
      <trkpt lat="42.82593632" lon="13.50939455">
        <ele>208.00000</ele>
        <time>2024-02-16T12:25:26Z</time>
      </trkpt>
      <trkpt lat="42.82587991" lon="13.50937485">
        <ele>209.00000</ele>
        <time>2024-02-16T12:25:27Z</time>
      </trkpt>
      <trkpt lat="42.82580883" lon="13.50935155">
        <ele>210.00000</ele>
        <time>2024-02-16T12:25:28Z</time>
      </trkpt>
      <trkpt lat="42.82572467" lon="13.50932163">
        <ele>211.00000</ele>
        <time>2024-02-16T12:25:29Z</time>
      </trkpt>
      <trkpt lat="42.82565871" lon="13.50929330">
        <ele>212.00000</ele>
        <time>2024-02-16T12:25:30Z</time>
      </trkpt>
      <trkpt lat="42.82558939" lon="13.50926547">
        <ele>213.00000</ele>
        <time>2024-02-16T12:25:31Z</time>
      </trkpt>
      <trkpt lat="42.82553239" lon="13.50924334">
        <ele>213.00000</ele>
        <time>2024-02-16T12:25:32Z</time>
      </trkpt>
      <trkpt lat="42.82546282" lon="13.50921928">
        <ele>213.00000</ele>
        <time>2024-02-16T12:25:33Z</time>
      </trkpt>
      <trkpt lat="42.82537976" lon="13.50919179">
        <ele>212.00000</ele>
        <time>2024-02-16T12:25:34Z</time>
      </trkpt>
      <trkpt lat="42.82530985" lon="13.50917033">
        <ele>212.00000</ele>
        <time>2024-02-16T12:25:35Z</time>
      </trkpt>
      <trkpt lat="42.82524003" lon="13.50915005">
        <ele>211.00000</ele>
        <time>2024-02-16T12:25:36Z</time>
      </trkpt>
      <trkpt lat="42.82518488" lon="13.50913228">
        <ele>210.00000</ele>
        <time>2024-02-16T12:25:37Z</time>
      </trkpt>
      <trkpt lat="42.82511699" lon="13.50910755">
        <ele>209.00000</ele>
        <time>2024-02-16T12:25:38Z</time>
      </trkpt>
      <trkpt lat="42.82503593" lon="13.50907662">
        <ele>208.00000</ele>
        <time>2024-02-16T12:25:39Z</time>
      </trkpt>
      <trkpt lat="42.82496645" lon="13.50905240">
        <ele>208.00000</ele>
        <time>2024-02-16T12:25:40Z</time>
      </trkpt>
      <trkpt lat="42.82489453" lon="13.50902943">
        <ele>208.00000</ele>
        <time>2024-02-16T12:25:41Z</time>
      </trkpt>
      <trkpt lat="42.82482362" lon="13.50900588">
        <ele>207.00000</ele>
        <time>2024-02-16T12:25:42Z</time>
      </trkpt>
      <trkpt lat="42.82476805" lon="13.50898484">
        <ele>207.00000</ele>
        <time>2024-02-16T12:25:43Z</time>
      </trkpt>
      <trkpt lat="42.82468657" lon="13.50894997">
        <ele>207.00000</ele>
        <time>2024-02-16T12:25:44Z</time>
      </trkpt>
      <trkpt lat="42.82461851" lon="13.50892080">
        <ele>208.00000</ele>
        <time>2024-02-16T12:25:45Z</time>
      </trkpt>
      <trkpt lat="42.82455196" lon="13.50889080">
        <ele>208.00000</ele>
        <time>2024-02-16T12:25:46Z</time>
      </trkpt>
      <trkpt lat="42.82450066" lon="13.50886263">
        <ele>208.00000</ele>
        <time>2024-02-16T12:25:47Z</time>
      </trkpt>
      <trkpt lat="42.82443939" lon="13.50882693">
        <ele>209.00000</ele>
        <time>2024-02-16T12:25:48Z</time>
      </trkpt>
      <trkpt lat="42.82437016" lon="13.50878971">
        <ele>210.00000</ele>
        <time>2024-02-16T12:25:49Z</time>
      </trkpt>
      <trkpt lat="42.82431559" lon="13.50876054">
        <ele>210.00000</ele>
        <time>2024-02-16T12:25:50Z</time>
      </trkpt>
      <trkpt lat="42.82427460" lon="13.50873607">
        <ele>210.00000</ele>
        <time>2024-02-16T12:25:51Z</time>
      </trkpt>
      <trkpt lat="42.82422482" lon="13.50870061">
        <ele>210.00000</ele>
        <time>2024-02-16T12:25:52Z</time>
      </trkpt>
      <trkpt lat="42.82416203" lon="13.50865652">
        <ele>210.00000</ele>
        <time>2024-02-16T12:25:53Z</time>
      </trkpt>
      <trkpt lat="42.82410873" lon="13.50863968">
        <ele>209.00000</ele>
        <time>2024-02-16T12:25:54Z</time>
      </trkpt>
      <trkpt lat="42.82401937" lon="13.50863406">
        <ele>209.00000</ele>
        <time>2024-02-16T12:25:55Z</time>
      </trkpt>
      <trkpt lat="42.82395517" lon="13.50863456">
        <ele>208.00000</ele>
        <time>2024-02-16T12:25:56Z</time>
      </trkpt>
      <trkpt lat="42.82387278" lon="13.50862978">
        <ele>207.00000</ele>
        <time>2024-02-16T12:25:57Z</time>
      </trkpt>
      <trkpt lat="42.82377362" lon="13.50861595">
        <ele>206.00000</ele>
        <time>2024-02-16T12:25:58Z</time>
      </trkpt>
      <trkpt lat="42.82370774" lon="13.50860003">
        <ele>206.00000</ele>
        <time>2024-02-16T12:25:59Z</time>
      </trkpt>
      <trkpt lat="42.82362107" lon="13.50857614">
        <ele>205.00000</ele>
        <time>2024-02-16T12:26:00Z</time>
      </trkpt>
      <trkpt lat="42.82353172" lon="13.50854664">
        <ele>205.00000</ele>
        <time>2024-02-16T12:26:01Z</time>
      </trkpt>
      <trkpt lat="42.82344345" lon="13.50851411">
        <ele>205.00000</ele>
        <time>2024-02-16T12:26:02Z</time>
      </trkpt>
      <trkpt lat="42.82333348" lon="13.50847472">
        <ele>205.00000</ele>
        <time>2024-02-16T12:26:03Z</time>
      </trkpt>
      <trkpt lat="42.82325712" lon="13.50844580">
        <ele>206.00000</ele>
        <time>2024-02-16T12:26:04Z</time>
      </trkpt>
      <trkpt lat="42.82316249" lon="13.50841102">
        <ele>206.00000</ele>
        <time>2024-02-16T12:26:05Z</time>
      </trkpt>
      <trkpt lat="42.82306677" lon="13.50837992">
        <ele>206.00000</ele>
        <time>2024-02-16T12:26:06Z</time>
      </trkpt>
      <trkpt lat="42.82297256" lon="13.50834907">
        <ele>206.00000</ele>
        <time>2024-02-16T12:26:07Z</time>
      </trkpt>
      <trkpt lat="42.82288304" lon="13.50831521">
        <ele>207.00000</ele>
        <time>2024-02-16T12:26:08Z</time>
      </trkpt>
      <trkpt lat="42.82277625" lon="13.50827749">
        <ele>207.00000</ele>
        <time>2024-02-16T12:26:09Z</time>
      </trkpt>
      <trkpt lat="42.82269001" lon="13.50824941">
        <ele>207.00000</ele>
        <time>2024-02-16T12:26:10Z</time>
      </trkpt>
      <trkpt lat="42.82262337" lon="13.50822234">
        <ele>207.00000</ele>
        <time>2024-02-16T12:26:11Z</time>
      </trkpt>
      <trkpt lat="42.82254114" lon="13.50819217">
        <ele>208.00000</ele>
        <time>2024-02-16T12:26:12Z</time>
      </trkpt>
      <trkpt lat="42.82244542" lon="13.50815881">
        <ele>208.00000</ele>
        <time>2024-02-16T12:26:13Z</time>
      </trkpt>
      <trkpt lat="42.82236915" lon="13.50812771">
        <ele>208.00000</ele>
        <time>2024-02-16T12:26:14Z</time>
      </trkpt>
      <trkpt lat="42.82231022" lon="13.50809904">
        <ele>209.00000</ele>
        <time>2024-02-16T12:26:15Z</time>
      </trkpt>
      <trkpt lat="42.82223738" lon="13.50805579">
        <ele>209.00000</ele>
        <time>2024-02-16T12:26:16Z</time>
      </trkpt>
      <trkpt lat="42.82217024" lon="13.50800475">
        <ele>209.00000</ele>
        <time>2024-02-16T12:26:17Z</time>
      </trkpt>
      <trkpt lat="42.82210570" lon="13.50794565">
        <ele>209.00000</ele>
        <time>2024-02-16T12:26:18Z</time>
      </trkpt>
      <trkpt lat="42.82204267" lon="13.50788623">
        <ele>209.00000</ele>
        <time>2024-02-16T12:26:19Z</time>
      </trkpt>
      <trkpt lat="42.82197830" lon="13.50783744">
        <ele>209.00000</ele>
        <time>2024-02-16T12:26:20Z</time>
      </trkpt>
      <trkpt lat="42.82190462" lon="13.50780962">
        <ele>209.00000</ele>
        <time>2024-02-16T12:26:21Z</time>
      </trkpt>
      <trkpt lat="42.82182692" lon="13.50779386">
        <ele>208.00000</ele>
        <time>2024-02-16T12:26:22Z</time>
      </trkpt>
      <trkpt lat="42.82173061" lon="13.50777667">
        <ele>207.00000</ele>
        <time>2024-02-16T12:26:23Z</time>
      </trkpt>
      <trkpt lat="42.82165107" lon="13.50774977">
        <ele>206.00000</ele>
        <time>2024-02-16T12:26:24Z</time>
      </trkpt>
      <trkpt lat="42.82159231" lon="13.50770769">
        <ele>206.00000</ele>
        <time>2024-02-16T12:26:25Z</time>
      </trkpt>
      <trkpt lat="42.82152836" lon="13.50764022">
        <ele>206.00000</ele>
        <time>2024-02-16T12:26:26Z</time>
      </trkpt>
      <trkpt lat="42.82146709" lon="13.50756411">
        <ele>206.00000</ele>
        <time>2024-02-16T12:26:27Z</time>
      </trkpt>
      <trkpt lat="42.82139726" lon="13.50746143">
        <ele>206.00000</ele>
        <time>2024-02-16T12:26:28Z</time>
      </trkpt>
      <trkpt lat="42.82135334" lon="13.50738767">
        <ele>206.00000</ele>
        <time>2024-02-16T12:26:29Z</time>
      </trkpt>
      <trkpt lat="42.82130230" lon="13.50729203">
        <ele>207.00000</ele>
        <time>2024-02-16T12:26:30Z</time>
      </trkpt>
      <trkpt lat="42.82126114" lon="13.50719254">
        <ele>208.00000</ele>
        <time>2024-02-16T12:26:31Z</time>
      </trkpt>
      <trkpt lat="42.82122376" lon="13.50708944">
        <ele>208.00000</ele>
        <time>2024-02-16T12:26:32Z</time>
      </trkpt>
      <trkpt lat="42.82118638" lon="13.50698417">
        <ele>208.00000</ele>
        <time>2024-02-16T12:26:33Z</time>
      </trkpt>
      <trkpt lat="42.82114338" lon="13.50685626">
        <ele>209.00000</ele>
        <time>2024-02-16T12:26:34Z</time>
      </trkpt>
      <trkpt lat="42.82111479" lon="13.50676900">
        <ele>209.00000</ele>
        <time>2024-02-16T12:26:35Z</time>
      </trkpt>
      <trkpt lat="42.82108135" lon="13.50666020">
        <ele>210.00000</ele>
        <time>2024-02-16T12:26:36Z</time>
      </trkpt>
      <trkpt lat="42.82104858" lon="13.50655216">
        <ele>210.00000</ele>
        <time>2024-02-16T12:26:37Z</time>
      </trkpt>
      <trkpt lat="42.82101186" lon="13.50644823">
        <ele>211.00000</ele>
        <time>2024-02-16T12:26:38Z</time>
      </trkpt>
      <trkpt lat="42.82097146" lon="13.50632216">
        <ele>211.00000</ele>
        <time>2024-02-16T12:26:39Z</time>
      </trkpt>
      <trkpt lat="42.82093467" lon="13.50621588">
        <ele>212.00000</ele>
        <time>2024-02-16T12:26:40Z</time>
      </trkpt>
      <trkpt lat="42.82090893" lon="13.50612930">
        <ele>212.00000</ele>
        <time>2024-02-16T12:26:41Z</time>
      </trkpt>
      <trkpt lat="42.82087465" lon="13.50602377">
        <ele>212.00000</ele>
        <time>2024-02-16T12:26:42Z</time>
      </trkpt>
      <trkpt lat="42.82083559" lon="13.50589695">
        <ele>212.00000</ele>
        <time>2024-02-16T12:26:43Z</time>
      </trkpt>
      <trkpt lat="42.82080332" lon="13.50579427">
        <ele>213.00000</ele>
        <time>2024-02-16T12:26:44Z</time>
      </trkpt>
      <trkpt lat="42.82077047" lon="13.50569386">
        <ele>213.00000</ele>
        <time>2024-02-16T12:26:45Z</time>
      </trkpt>
      <trkpt lat="42.82074255" lon="13.50561607">
        <ele>214.00000</ele>
        <time>2024-02-16T12:26:46Z</time>
      </trkpt>
      <trkpt lat="42.82069779" lon="13.50549914">
        <ele>214.00000</ele>
        <time>2024-02-16T12:26:47Z</time>
      </trkpt>
      <trkpt lat="42.82066938" lon="13.50542010">
        <ele>214.00000</ele>
        <time>2024-02-16T12:26:48Z</time>
      </trkpt>
      <trkpt lat="42.82062068" lon="13.50530695">
        <ele>214.00000</ele>
        <time>2024-02-16T12:26:49Z</time>
      </trkpt>
      <trkpt lat="42.82058615" lon="13.50523771">
        <ele>214.00000</ele>
        <time>2024-02-16T12:26:50Z</time>
      </trkpt>
      <trkpt lat="42.82053016" lon="13.50513637">
        <ele>215.00000</ele>
        <time>2024-02-16T12:26:51Z</time>
      </trkpt>
      <trkpt lat="42.82049311" lon="13.50506907">
        <ele>216.00000</ele>
        <time>2024-02-16T12:26:52Z</time>
      </trkpt>
      <trkpt lat="42.82044533" lon="13.50499279">
        <ele>217.00000</ele>
        <time>2024-02-16T12:26:53Z</time>
      </trkpt>
      <trkpt lat="42.82038498" lon="13.50490646">
        <ele>218.00000</ele>
        <time>2024-02-16T12:26:54Z</time>
      </trkpt>
      <trkpt lat="42.82033251" lon="13.50483966">
        <ele>220.00000</ele>
        <time>2024-02-16T12:26:55Z</time>
      </trkpt>
      <trkpt lat="42.82029144" lon="13.50478660">
        <ele>220.00000</ele>
        <time>2024-02-16T12:26:56Z</time>
      </trkpt>
      <trkpt lat="42.82022782" lon="13.50470412">
        <ele>221.00000</ele>
        <time>2024-02-16T12:26:57Z</time>
      </trkpt>
      <trkpt lat="42.82016487" lon="13.50465031">
        <ele>221.00000</ele>
        <time>2024-02-16T12:26:58Z</time>
      </trkpt>
      <trkpt lat="42.82009690" lon="13.50460429">
        <ele>219.00000</ele>
        <time>2024-02-16T12:26:59Z</time>
      </trkpt>
      <trkpt lat="42.82002372" lon="13.50456750">
        <ele>218.00000</ele>
        <time>2024-02-16T12:27:00Z</time>
      </trkpt>
      <trkpt lat="42.81995105" lon="13.50453548">
        <ele>217.00000</ele>
        <time>2024-02-16T12:27:01Z</time>
      </trkpt>
      <trkpt lat="42.81987763" lon="13.50450673">
        <ele>216.00000</ele>
        <time>2024-02-16T12:27:02Z</time>
      </trkpt>
      <trkpt lat="42.81981099" lon="13.50448234">
        <ele>215.00000</ele>
        <time>2024-02-16T12:27:03Z</time>
      </trkpt>
      <trkpt lat="42.81974351" lon="13.50446037">
        <ele>214.00000</ele>
        <time>2024-02-16T12:27:04Z</time>
      </trkpt>
      <trkpt lat="42.81968962" lon="13.50444311">
        <ele>214.00000</ele>
        <time>2024-02-16T12:27:05Z</time>
      </trkpt>
      <trkpt lat="42.81962072" lon="13.50442274">
        <ele>214.00000</ele>
        <time>2024-02-16T12:27:06Z</time>
      </trkpt>
      <trkpt lat="42.81954118" lon="13.50439684">
        <ele>215.00000</ele>
        <time>2024-02-16T12:27:07Z</time>
      </trkpt>
      <trkpt lat="42.81948569" lon="13.50437941">
        <ele>216.00000</ele>
        <time>2024-02-16T12:27:08Z</time>
      </trkpt>
      <trkpt lat="42.81940095" lon="13.50435384">
        <ele>216.00000</ele>
        <time>2024-02-16T12:27:09Z</time>
      </trkpt>
      <trkpt lat="42.81932819" lon="13.50433775">
        <ele>216.00000</ele>
        <time>2024-02-16T12:27:10Z</time>
      </trkpt>
      <trkpt lat="42.81925259" lon="13.50432450">
        <ele>216.00000</ele>
        <time>2024-02-16T12:27:11Z</time>
      </trkpt>
      <trkpt lat="42.81917992" lon="13.50431235">
        <ele>216.00000</ele>
        <time>2024-02-16T12:27:12Z</time>
      </trkpt>
      <trkpt lat="42.81911110" lon="13.50429978">
        <ele>217.00000</ele>
        <time>2024-02-16T12:27:13Z</time>
      </trkpt>
      <trkpt lat="42.81904011" lon="13.50428762">
        <ele>217.00000</ele>
        <time>2024-02-16T12:27:14Z</time>
      </trkpt>
      <trkpt lat="42.81896727" lon="13.50427279">
        <ele>217.00000</ele>
        <time>2024-02-16T12:27:15Z</time>
      </trkpt>
      <trkpt lat="42.81891169" lon="13.50425971">
        <ele>218.00000</ele>
        <time>2024-02-16T12:27:16Z</time>
      </trkpt>
      <trkpt lat="42.81882720" lon="13.50424412">
        <ele>218.00000</ele>
        <time>2024-02-16T12:27:17Z</time>
      </trkpt>
      <trkpt lat="42.81875529" lon="13.50423339">
        <ele>218.00000</ele>
        <time>2024-02-16T12:27:18Z</time>
      </trkpt>
      <trkpt lat="42.81867457" lon="13.50422652">
        <ele>219.00000</ele>
        <time>2024-02-16T12:27:19Z</time>
      </trkpt>
      <trkpt lat="42.81861179" lon="13.50421403">
        <ele>219.00000</ele>
        <time>2024-02-16T12:27:20Z</time>
      </trkpt>
      <trkpt lat="42.81853694" lon="13.50419743">
        <ele>219.00000</ele>
        <time>2024-02-16T12:27:21Z</time>
      </trkpt>
      <trkpt lat="42.81844809" lon="13.50417925">
        <ele>220.00000</ele>
        <time>2024-02-16T12:27:22Z</time>
      </trkpt>
      <trkpt lat="42.81837576" lon="13.50416424">
        <ele>220.00000</ele>
        <time>2024-02-16T12:27:23Z</time>
      </trkpt>
      <trkpt lat="42.81830300" lon="13.50415091">
        <ele>220.00000</ele>
        <time>2024-02-16T12:27:24Z</time>
      </trkpt>
      <trkpt lat="42.81824550" lon="13.50414505">
        <ele>220.00000</ele>
        <time>2024-02-16T12:27:25Z</time>
      </trkpt>
      <trkpt lat="42.81817752" lon="13.50413264">
        <ele>219.00000</ele>
        <time>2024-02-16T12:27:26Z</time>
      </trkpt>
      <trkpt lat="42.81810007" lon="13.50411035">
        <ele>218.00000</ele>
        <time>2024-02-16T12:27:27Z</time>
      </trkpt>
      <trkpt lat="42.81803729" lon="13.50409140">
        <ele>218.00000</ele>
        <time>2024-02-16T12:27:28Z</time>
      </trkpt>
      <trkpt lat="42.81797041" lon="13.50407481">
        <ele>217.00000</ele>
        <time>2024-02-16T12:27:29Z</time>
      </trkpt>
      <trkpt lat="42.81791542" lon="13.50406106">
        <ele>217.00000</ele>
        <time>2024-02-16T12:27:30Z</time>
      </trkpt>
      <trkpt lat="42.81784107" lon="13.50404086">
        <ele>216.00000</ele>
        <time>2024-02-16T12:27:31Z</time>
      </trkpt>
      <trkpt lat="42.81774342" lon="13.50401454">
        <ele>216.00000</ele>
        <time>2024-02-16T12:27:32Z</time>
      </trkpt>
      <trkpt lat="42.81766640" lon="13.50399300">
        <ele>216.00000</ele>
        <time>2024-02-16T12:27:33Z</time>
      </trkpt>
      <trkpt lat="42.81759993" lon="13.50397489">
        <ele>217.00000</ele>
        <time>2024-02-16T12:27:34Z</time>
      </trkpt>
      <trkpt lat="42.81752290" lon="13.50395754">
        <ele>217.00000</ele>
        <time>2024-02-16T12:27:35Z</time>
      </trkpt>
      <trkpt lat="42.81744603" lon="13.50393667">
        <ele>217.00000</ele>
        <time>2024-02-16T12:27:36Z</time>
      </trkpt>
      <trkpt lat="42.81735266" lon="13.50391061">
        <ele>217.00000</ele>
        <time>2024-02-16T12:27:37Z</time>
      </trkpt>
      <trkpt lat="42.81726909" lon="13.50388630">
        <ele>217.00000</ele>
        <time>2024-02-16T12:27:38Z</time>
      </trkpt>
      <trkpt lat="42.81719047" lon="13.50386719">
        <ele>217.00000</ele>
        <time>2024-02-16T12:27:39Z</time>
      </trkpt>
      <trkpt lat="42.81712878" lon="13.50385285">
        <ele>217.00000</ele>
        <time>2024-02-16T12:27:40Z</time>
      </trkpt>
      <trkpt lat="42.81704798" lon="13.50383676">
        <ele>216.00000</ele>
        <time>2024-02-16T12:27:41Z</time>
      </trkpt>
      <trkpt lat="42.81697003" lon="13.50382444">
        <ele>216.00000</ele>
        <time>2024-02-16T12:27:42Z</time>
      </trkpt>
      <trkpt lat="42.81687808" lon="13.50381790">
        <ele>216.00000</ele>
        <time>2024-02-16T12:27:43Z</time>
      </trkpt>
      <trkpt lat="42.81680130" lon="13.50381396">
        <ele>216.00000</ele>
        <time>2024-02-16T12:27:44Z</time>
      </trkpt>
      <trkpt lat="42.81673936" lon="13.50381170">
        <ele>216.00000</ele>
        <time>2024-02-16T12:27:45Z</time>
      </trkpt>
      <trkpt lat="42.81666551" lon="13.50380424">
        <ele>217.00000</ele>
        <time>2024-02-16T12:27:46Z</time>
      </trkpt>
      <trkpt lat="42.81657650" lon="13.50378890">
        <ele>218.00000</ele>
        <time>2024-02-16T12:27:47Z</time>
      </trkpt>
      <trkpt lat="42.81650827" lon="13.50377515">
        <ele>218.00000</ele>
        <time>2024-02-16T12:27:48Z</time>
      </trkpt>
      <trkpt lat="42.81643560" lon="13.50376241">
        <ele>219.00000</ele>
        <time>2024-02-16T12:27:49Z</time>
      </trkpt>
      <trkpt lat="42.81637684" lon="13.50375093">
        <ele>220.00000</ele>
        <time>2024-02-16T12:27:50Z</time>
      </trkpt>
      <trkpt lat="42.81630308" lon="13.50373953">
        <ele>220.00000</ele>
        <time>2024-02-16T12:27:51Z</time>
      </trkpt>
      <trkpt lat="42.81623778" lon="13.50373006">
        <ele>221.00000</ele>
        <time>2024-02-16T12:27:52Z</time>
      </trkpt>
      <trkpt lat="42.81616453" lon="13.50371832">
        <ele>221.00000</ele>
        <time>2024-02-16T12:27:53Z</time>
      </trkpt>
      <trkpt lat="42.81609864" lon="13.50370701">
        <ele>221.00000</ele>
        <time>2024-02-16T12:27:54Z</time>
      </trkpt>
      <trkpt lat="42.81604634" lon="13.50369544">
        <ele>221.00000</ele>
        <time>2024-02-16T12:27:55Z</time>
      </trkpt>
      <trkpt lat="42.81596872" lon="13.50367658">
        <ele>221.00000</ele>
        <time>2024-02-16T12:27:56Z</time>
      </trkpt>
      <trkpt lat="42.81590837" lon="13.50365638">
        <ele>221.00000</ele>
        <time>2024-02-16T12:27:57Z</time>
      </trkpt>
      <trkpt lat="42.81584300" lon="13.50363752">
        <ele>221.00000</ele>
        <time>2024-02-16T12:27:58Z</time>
      </trkpt>
      <trkpt lat="42.81578985" lon="13.50362185">
        <ele>222.00000</ele>
        <time>2024-02-16T12:27:59Z</time>
      </trkpt>
      <trkpt lat="42.81572473" lon="13.50360148">
        <ele>223.00000</ele>
        <time>2024-02-16T12:28:00Z</time>
      </trkpt>
      <trkpt lat="42.81565935" lon="13.50358237">
        <ele>224.00000</ele>
        <time>2024-02-16T12:28:01Z</time>
      </trkpt>
      <trkpt lat="42.81559405" lon="13.50356318">
        <ele>224.00000</ele>
        <time>2024-02-16T12:28:02Z</time>
      </trkpt>
      <trkpt lat="42.81552515" lon="13.50354901">
        <ele>225.00000</ele>
        <time>2024-02-16T12:28:03Z</time>
      </trkpt>
      <trkpt lat="42.81545776" lon="13.50353652">
        <ele>225.00000</ele>
        <time>2024-02-16T12:28:04Z</time>
      </trkpt>
      <trkpt lat="42.81538652" lon="13.50352579">
        <ele>226.00000</ele>
        <time>2024-02-16T12:28:05Z</time>
      </trkpt>
      <trkpt lat="42.81531510" lon="13.50351221">
        <ele>226.00000</ele>
        <time>2024-02-16T12:28:06Z</time>
      </trkpt>
      <trkpt lat="42.81523271" lon="13.50349855">
        <ele>226.00000</ele>
        <time>2024-02-16T12:28:07Z</time>
      </trkpt>
      <trkpt lat="42.81515786" lon="13.50349193">
        <ele>226.00000</ele>
        <time>2024-02-16T12:28:08Z</time>
      </trkpt>
      <trkpt lat="42.81509650" lon="13.50348833">
        <ele>225.00000</ele>
        <time>2024-02-16T12:28:09Z</time>
      </trkpt>
      <trkpt lat="42.81502769" lon="13.50348237">
        <ele>225.00000</ele>
        <time>2024-02-16T12:28:10Z</time>
      </trkpt>
      <trkpt lat="42.81493943" lon="13.50347693">
        <ele>224.00000</ele>
        <time>2024-02-16T12:28:11Z</time>
      </trkpt>
      <trkpt lat="42.81486860" lon="13.50347215">
        <ele>224.00000</ele>
        <time>2024-02-16T12:28:12Z</time>
      </trkpt>
      <trkpt lat="42.81481303" lon="13.50346972">
        <ele>224.00000</ele>
        <time>2024-02-16T12:28:13Z</time>
      </trkpt>
      <trkpt lat="42.81474178" lon="13.50346695">
        <ele>224.00000</ele>
        <time>2024-02-16T12:28:14Z</time>
      </trkpt>
      <trkpt lat="42.81467045" lon="13.50347022">
        <ele>224.00000</ele>
        <time>2024-02-16T12:28:15Z</time>
      </trkpt>
      <trkpt lat="42.81458454" lon="13.50347827">
        <ele>225.00000</ele>
        <time>2024-02-16T12:28:16Z</time>
      </trkpt>
      <trkpt lat="42.81451522" lon="13.50347961">
        <ele>225.00000</ele>
        <time>2024-02-16T12:28:17Z</time>
      </trkpt>
      <trkpt lat="42.81444691" lon="13.50347810">
        <ele>226.00000</ele>
        <time>2024-02-16T12:28:18Z</time>
      </trkpt>
      <trkpt lat="42.81438865" lon="13.50347491">
        <ele>226.00000</ele>
        <time>2024-02-16T12:28:19Z</time>
      </trkpt>
      <trkpt lat="42.81431883" lon="13.50347047">
        <ele>226.00000</ele>
        <time>2024-02-16T12:28:20Z</time>
      </trkpt>
      <trkpt lat="42.81424348" lon="13.50346628">
        <ele>226.00000</ele>
        <time>2024-02-16T12:28:21Z</time>
      </trkpt>
      <trkpt lat="42.81418212" lon="13.50346402">
        <ele>226.00000</ele>
        <time>2024-02-16T12:28:22Z</time>
      </trkpt>
      <trkpt lat="42.81411616" lon="13.50346268">
        <ele>226.00000</ele>
        <time>2024-02-16T12:28:23Z</time>
      </trkpt>
      <trkpt lat="42.81405832" lon="13.50346310">
        <ele>226.00000</ele>
        <time>2024-02-16T12:28:24Z</time>
      </trkpt>
      <trkpt lat="42.81399210" lon="13.50345597">
        <ele>226.00000</ele>
        <time>2024-02-16T12:28:25Z</time>
      </trkpt>
      <trkpt lat="42.81391340" lon="13.50345027">
        <ele>226.00000</ele>
        <time>2024-02-16T12:28:26Z</time>
      </trkpt>
      <trkpt lat="42.81384525" lon="13.50344960">
        <ele>226.00000</ele>
        <time>2024-02-16T12:28:27Z</time>
      </trkpt>
      <trkpt lat="42.81377510" lon="13.50344809">
        <ele>227.00000</ele>
        <time>2024-02-16T12:28:28Z</time>
      </trkpt>
      <trkpt lat="42.81371885" lon="13.50344784">
        <ele>227.00000</ele>
        <time>2024-02-16T12:28:29Z</time>
      </trkpt>
      <trkpt lat="42.81365146" lon="13.50344591">
        <ele>228.00000</ele>
        <time>2024-02-16T12:28:30Z</time>
      </trkpt>
      <trkpt lat="42.81358701" lon="13.50344482">
        <ele>228.00000</ele>
        <time>2024-02-16T12:28:31Z</time>
      </trkpt>
      <trkpt lat="42.81350897" lon="13.50343988">
        <ele>229.00000</ele>
        <time>2024-02-16T12:28:32Z</time>
      </trkpt>
      <trkpt lat="42.81343705" lon="13.50343510">
        <ele>229.00000</ele>
        <time>2024-02-16T12:28:33Z</time>
      </trkpt>
      <trkpt lat="42.81337972" lon="13.50343359">
        <ele>229.00000</ele>
        <time>2024-02-16T12:28:34Z</time>
      </trkpt>
      <trkpt lat="42.81331175" lon="13.50343418">
        <ele>230.00000</ele>
        <time>2024-02-16T12:28:35Z</time>
      </trkpt>
      <trkpt lat="42.81324176" lon="13.50343602">
        <ele>229.00000</ele>
        <time>2024-02-16T12:28:36Z</time>
      </trkpt>
      <trkpt lat="42.81315282" lon="13.50343703">
        <ele>229.00000</ele>
        <time>2024-02-16T12:28:37Z</time>
      </trkpt>
      <trkpt lat="42.81307663" lon="13.50343225">
        <ele>229.00000</ele>
        <time>2024-02-16T12:28:38Z</time>
      </trkpt>
      <trkpt lat="42.81299969" lon="13.50342504">
        <ele>229.00000</ele>
        <time>2024-02-16T12:28:39Z</time>
      </trkpt>
      <trkpt lat="42.81293833" lon="13.50341683">
        <ele>229.00000</ele>
        <time>2024-02-16T12:28:40Z</time>
      </trkpt>
      <trkpt lat="42.81285007" lon="13.50339964">
        <ele>229.00000</ele>
        <time>2024-02-16T12:28:41Z</time>
      </trkpt>
      <trkpt lat="42.81278201" lon="13.50337886">
        <ele>229.00000</ele>
        <time>2024-02-16T12:28:42Z</time>
      </trkpt>
      <trkpt lat="42.81271009" lon="13.50335723">
        <ele>229.00000</ele>
        <time>2024-02-16T12:28:43Z</time>
      </trkpt>
      <trkpt lat="42.81263072" lon="13.50333779">
        <ele>228.00000</ele>
        <time>2024-02-16T12:28:44Z</time>
      </trkpt>
      <trkpt lat="42.81256400" lon="13.50332261">
        <ele>228.00000</ele>
        <time>2024-02-16T12:28:45Z</time>
      </trkpt>
      <trkpt lat="42.81247062" lon="13.50329110">
        <ele>228.00000</ele>
        <time>2024-02-16T12:28:46Z</time>
      </trkpt>
      <trkpt lat="42.81239183" lon="13.50326352">
        <ele>228.00000</ele>
        <time>2024-02-16T12:28:47Z</time>
      </trkpt>
      <trkpt lat="42.81232545" lon="13.50324206">
        <ele>227.00000</ele>
        <time>2024-02-16T12:28:48Z</time>
      </trkpt>
      <trkpt lat="42.81222629" lon="13.50321130">
        <ele>226.00000</ele>
        <time>2024-02-16T12:28:49Z</time>
      </trkpt>
      <trkpt lat="42.81214582" lon="13.50317534">
        <ele>226.00000</ele>
        <time>2024-02-16T12:28:50Z</time>
      </trkpt>
      <trkpt lat="42.81206150" lon="13.50313503">
        <ele>225.00000</ele>
        <time>2024-02-16T12:28:51Z</time>
      </trkpt>
      <trkpt lat="42.81197357" lon="13.50310008">
        <ele>224.00000</ele>
        <time>2024-02-16T12:28:52Z</time>
      </trkpt>
      <trkpt lat="42.81188649" lon="13.50306814">
        <ele>224.00000</ele>
        <time>2024-02-16T12:28:53Z</time>
      </trkpt>
      <trkpt lat="42.81181616" lon="13.50304316">
        <ele>224.00000</ele>
        <time>2024-02-16T12:28:54Z</time>
      </trkpt>
      <trkpt lat="42.81172689" lon="13.50301198">
        <ele>224.00000</ele>
        <time>2024-02-16T12:28:55Z</time>
      </trkpt>
      <trkpt lat="42.81161776" lon="13.50297971">
        <ele>225.00000</ele>
        <time>2024-02-16T12:28:56Z</time>
      </trkpt>
      <trkpt lat="42.81152472" lon="13.50296102">
        <ele>226.00000</ele>
        <time>2024-02-16T12:28:57Z</time>
      </trkpt>
      <trkpt lat="42.81143219" lon="13.50294141">
        <ele>226.00000</ele>
        <time>2024-02-16T12:28:58Z</time>
      </trkpt>
      <trkpt lat="42.81135918" lon="13.50292833">
        <ele>227.00000</ele>
        <time>2024-02-16T12:28:59Z</time>
      </trkpt>
      <trkpt lat="42.81126447" lon="13.50290830">
        <ele>227.00000</ele>
        <time>2024-02-16T12:29:00Z</time>
      </trkpt>
      <trkpt lat="42.81117092" lon="13.50288986">
        <ele>227.00000</ele>
        <time>2024-02-16T12:29:01Z</time>
      </trkpt>
      <trkpt lat="42.81105894" lon="13.50286790">
        <ele>226.00000</ele>
        <time>2024-02-16T12:29:02Z</time>
      </trkpt>
      <trkpt lat="42.81096372" lon="13.50284728">
        <ele>226.00000</ele>
        <time>2024-02-16T12:29:03Z</time>
      </trkpt>
      <trkpt lat="42.81088720" lon="13.50283563">
        <ele>225.00000</ele>
        <time>2024-02-16T12:29:04Z</time>
      </trkpt>
      <trkpt lat="42.81079399" lon="13.50282138">
        <ele>225.00000</ele>
        <time>2024-02-16T12:29:05Z</time>
      </trkpt>
      <trkpt lat="42.81068284" lon="13.50280537">
        <ele>224.00000</ele>
        <time>2024-02-16T12:29:06Z</time>
      </trkpt>
      <trkpt lat="42.81058318" lon="13.50279464">
        <ele>223.00000</ele>
        <time>2024-02-16T12:29:07Z</time>
      </trkpt>
      <trkpt lat="42.81048738" lon="13.50278383">
        <ele>222.00000</ele>
        <time>2024-02-16T12:29:08Z</time>
      </trkpt>
      <trkpt lat="42.81040725" lon="13.50277846">
        <ele>221.00000</ele>
        <time>2024-02-16T12:29:09Z</time>
      </trkpt>
      <trkpt lat="42.81032058" lon="13.50275281">
        <ele>221.00000</ele>
        <time>2024-02-16T12:29:10Z</time>
      </trkpt>
      <trkpt lat="42.81023391" lon="13.50271845">
        <ele>222.00000</ele>
        <time>2024-02-16T12:29:11Z</time>
      </trkpt>
      <trkpt lat="42.81016074" lon="13.50269221">
        <ele>222.00000</ele>
        <time>2024-02-16T12:29:12Z</time>
      </trkpt>
      <trkpt lat="42.81008664" lon="13.50266681">
        <ele>223.00000</ele>
        <time>2024-02-16T12:29:13Z</time>
      </trkpt>
      <trkpt lat="42.81002579" lon="13.50264444">
        <ele>224.00000</ele>
        <time>2024-02-16T12:29:14Z</time>
      </trkpt>
      <trkpt lat="42.80994951" lon="13.50261233">
        <ele>224.00000</ele>
        <time>2024-02-16T12:29:15Z</time>
      </trkpt>
      <trkpt lat="42.80987299" lon="13.50257922">
        <ele>224.00000</ele>
        <time>2024-02-16T12:29:16Z</time>
      </trkpt>
      <trkpt lat="42.80978037" lon="13.50253455">
        <ele>223.00000</ele>
        <time>2024-02-16T12:29:17Z</time>
      </trkpt>
      <trkpt lat="42.80970744" lon="13.50249264">
        <ele>223.00000</ele>
        <time>2024-02-16T12:29:18Z</time>
      </trkpt>
      <trkpt lat="42.80964919" lon="13.50245802">
        <ele>223.00000</ele>
        <time>2024-02-16T12:29:19Z</time>
      </trkpt>
      <trkpt lat="42.80958146" lon="13.50241234">
        <ele>223.00000</ele>
        <time>2024-02-16T12:29:20Z</time>
      </trkpt>
      <trkpt lat="42.80949974" lon="13.50234956">
        <ele>223.00000</ele>
        <time>2024-02-16T12:29:21Z</time>
      </trkpt>
      <trkpt lat="42.80943696" lon="13.50228728">
        <ele>223.00000</ele>
        <time>2024-02-16T12:29:22Z</time>
      </trkpt>
      <trkpt lat="42.80939010" lon="13.50222945">
        <ele>223.00000</ele>
        <time>2024-02-16T12:29:23Z</time>
      </trkpt>
      <trkpt lat="42.80933730" lon="13.50214865">
        <ele>224.00000</ele>
        <time>2024-02-16T12:29:24Z</time>
      </trkpt>
      <trkpt lat="42.80928516" lon="13.50206768">
        <ele>225.00000</ele>
        <time>2024-02-16T12:29:25Z</time>
      </trkpt>
      <trkpt lat="42.80923496" lon="13.50198537">
        <ele>226.00000</ele>
        <time>2024-02-16T12:29:26Z</time>
      </trkpt>
      <trkpt lat="42.80918416" lon="13.50190239">
        <ele>226.00000</ele>
        <time>2024-02-16T12:29:27Z</time>
      </trkpt>
      <trkpt lat="42.80913370" lon="13.50181966">
        <ele>226.00000</ele>
        <time>2024-02-16T12:29:28Z</time>
      </trkpt>
      <trkpt lat="42.80908509" lon="13.50173575">
        <ele>227.00000</ele>
        <time>2024-02-16T12:29:29Z</time>
      </trkpt>
      <trkpt lat="42.80903521" lon="13.50165260">
        <ele>227.00000</ele>
        <time>2024-02-16T12:29:30Z</time>
      </trkpt>
      <trkpt lat="42.80898735" lon="13.50157138">
        <ele>226.00000</ele>
        <time>2024-02-16T12:29:31Z</time>
      </trkpt>
      <trkpt lat="42.80893765" lon="13.50148933">
        <ele>226.00000</ele>
        <time>2024-02-16T12:29:32Z</time>
      </trkpt>
      <trkpt lat="42.80888803" lon="13.50140810">
        <ele>225.00000</ele>
        <time>2024-02-16T12:29:33Z</time>
      </trkpt>
      <trkpt lat="42.80884117" lon="13.50132496">
        <ele>225.00000</ele>
        <time>2024-02-16T12:29:34Z</time>
      </trkpt>
      <trkpt lat="42.80879231" lon="13.50124265">
        <ele>225.00000</ele>
        <time>2024-02-16T12:29:35Z</time>
      </trkpt>
      <trkpt lat="42.80874361" lon="13.50116377">
        <ele>224.00000</ele>
        <time>2024-02-16T12:29:36Z</time>
      </trkpt>
      <trkpt lat="42.80869591" lon="13.50108272">
        <ele>223.00000</ele>
        <time>2024-02-16T12:29:37Z</time>
      </trkpt>
      <trkpt lat="42.80865275" lon="13.50100100">
        <ele>223.00000</ele>
        <time>2024-02-16T12:29:38Z</time>
      </trkpt>
      <trkpt lat="42.80861159" lon="13.50091843">
        <ele>223.00000</ele>
        <time>2024-02-16T12:29:39Z</time>
      </trkpt>
      <trkpt lat="42.80857002" lon="13.50083956">
        <ele>223.00000</ele>
        <time>2024-02-16T12:29:40Z</time>
      </trkpt>
      <trkpt lat="42.80852995" lon="13.50075683">
        <ele>223.00000</ele>
        <time>2024-02-16T12:29:41Z</time>
      </trkpt>
      <trkpt lat="42.80849198" lon="13.50066832">
        <ele>224.00000</ele>
        <time>2024-02-16T12:29:42Z</time>
      </trkpt>
      <trkpt lat="42.80845778" lon="13.50057779">
        <ele>224.00000</ele>
        <time>2024-02-16T12:29:43Z</time>
      </trkpt>
      <trkpt lat="42.80843038" lon="13.50048375">
        <ele>224.00000</ele>
        <time>2024-02-16T12:29:44Z</time>
      </trkpt>
      <trkpt lat="42.80840808" lon="13.50038635">
        <ele>225.00000</ele>
        <time>2024-02-16T12:29:45Z</time>
      </trkpt>
      <trkpt lat="42.80839509" lon="13.50028426">
        <ele>225.00000</ele>
        <time>2024-02-16T12:29:46Z</time>
      </trkpt>
      <trkpt lat="42.80838478" lon="13.50018032">
        <ele>226.00000</ele>
        <time>2024-02-16T12:29:47Z</time>
      </trkpt>
      <trkpt lat="42.80837439" lon="13.50007664">
        <ele>227.00000</ele>
        <time>2024-02-16T12:29:48Z</time>
      </trkpt>
      <trkpt lat="42.80836651" lon="13.49997304">
        <ele>228.00000</ele>
        <time>2024-02-16T12:29:49Z</time>
      </trkpt>
      <trkpt lat="42.80836081" lon="13.49986969">
        <ele>228.00000</ele>
        <time>2024-02-16T12:29:50Z</time>
      </trkpt>
      <trkpt lat="42.80835586" lon="13.49976307">
        <ele>228.00000</ele>
        <time>2024-02-16T12:29:51Z</time>
      </trkpt>
      <trkpt lat="42.80835326" lon="13.49965662">
        <ele>228.00000</ele>
        <time>2024-02-16T12:29:52Z</time>
      </trkpt>
      <trkpt lat="42.80835846" lon="13.49955260">
        <ele>228.00000</ele>
        <time>2024-02-16T12:29:53Z</time>
      </trkpt>
      <trkpt lat="42.80836617" lon="13.49944749">
        <ele>229.00000</ele>
        <time>2024-02-16T12:29:54Z</time>
      </trkpt>
      <trkpt lat="42.80837606" lon="13.49934180">
        <ele>228.00000</ele>
        <time>2024-02-16T12:29:55Z</time>
      </trkpt>
      <trkpt lat="42.80839509" lon="13.49921582">
        <ele>228.00000</ele>
        <time>2024-02-16T12:29:56Z</time>
      </trkpt>
      <trkpt lat="42.80841085" lon="13.49913342">
        <ele>227.00000</ele>
        <time>2024-02-16T12:29:57Z</time>
      </trkpt>
      <trkpt lat="42.80843742" lon="13.49903125">
        <ele>227.00000</ele>
        <time>2024-02-16T12:29:58Z</time>
      </trkpt>
      <trkpt lat="42.80846960" lon="13.49892849">
        <ele>226.00000</ele>
        <time>2024-02-16T12:29:59Z</time>
      </trkpt>
      <trkpt lat="42.80850623" lon="13.49883025">
        <ele>226.00000</ele>
        <time>2024-02-16T12:30:00Z</time>
      </trkpt>
      <trkpt lat="42.80854781" lon="13.49873520">
        <ele>226.00000</ele>
        <time>2024-02-16T12:30:01Z</time>
      </trkpt>
      <trkpt lat="42.80859374" lon="13.49864291">
        <ele>226.00000</ele>
        <time>2024-02-16T12:30:02Z</time>
      </trkpt>
      <trkpt lat="42.80864026" lon="13.49855449">
        <ele>225.00000</ele>
        <time>2024-02-16T12:30:03Z</time>
      </trkpt>
      <trkpt lat="42.80868938" lon="13.49845893">
        <ele>225.00000</ele>
        <time>2024-02-16T12:30:04Z</time>
      </trkpt>
      <trkpt lat="42.80874813" lon="13.49835743">
        <ele>225.00000</ele>
        <time>2024-02-16T12:30:05Z</time>
      </trkpt>
      <trkpt lat="42.80881033" lon="13.49826196">
        <ele>225.00000</ele>
        <time>2024-02-16T12:30:06Z</time>
      </trkpt>
      <trkpt lat="42.80886607" lon="13.49817018">
        <ele>224.00000</ele>
        <time>2024-02-16T12:30:07Z</time>
      </trkpt>
      <trkpt lat="42.80891887" lon="13.49808158">
        <ele>225.00000</ele>
        <time>2024-02-16T12:30:08Z</time>
      </trkpt>
      <trkpt lat="42.80897327" lon="13.49799281">
        <ele>226.00000</ele>
        <time>2024-02-16T12:30:09Z</time>
      </trkpt>
      <trkpt lat="42.80902951" lon="13.49790330">
        <ele>227.00000</ele>
        <time>2024-02-16T12:30:10Z</time>
      </trkpt>
      <trkpt lat="42.80908668" lon="13.49781621">
        <ele>229.00000</ele>
        <time>2024-02-16T12:30:11Z</time>
      </trkpt>
      <trkpt lat="42.80914192" lon="13.49773440">
        <ele>230.00000</ele>
        <time>2024-02-16T12:30:12Z</time>
      </trkpt>
      <trkpt lat="42.80920009" lon="13.49764832">
        <ele>232.00000</ele>
        <time>2024-02-16T12:30:13Z</time>
      </trkpt>
      <trkpt lat="42.80925566" lon="13.49756123">
        <ele>233.00000</ele>
        <time>2024-02-16T12:30:14Z</time>
      </trkpt>
      <trkpt lat="42.80930880" lon="13.49747833">
        <ele>234.00000</ele>
        <time>2024-02-16T12:30:15Z</time>
      </trkpt>
      <trkpt lat="42.80936261" lon="13.49740155">
        <ele>234.00000</ele>
        <time>2024-02-16T12:30:16Z</time>
      </trkpt>
      <trkpt lat="42.80941869" lon="13.49732947">
        <ele>234.00000</ele>
        <time>2024-02-16T12:30:17Z</time>
      </trkpt>
      <trkpt lat="42.80946998" lon="13.49725479">
        <ele>233.00000</ele>
        <time>2024-02-16T12:30:18Z</time>
      </trkpt>
      <trkpt lat="42.80951743" lon="13.49717717">
        <ele>232.00000</ele>
        <time>2024-02-16T12:30:19Z</time>
      </trkpt>
      <trkpt lat="42.80956629" lon="13.49710525">
        <ele>232.00000</ele>
        <time>2024-02-16T12:30:20Z</time>
      </trkpt>
      <trkpt lat="42.80961541" lon="13.49702772">
        <ele>231.00000</ele>
        <time>2024-02-16T12:30:21Z</time>
      </trkpt>
      <trkpt lat="42.80966310" lon="13.49694935">
        <ele>230.00000</ele>
        <time>2024-02-16T12:30:22Z</time>
      </trkpt>
      <trkpt lat="42.80970552" lon="13.49686662">
        <ele>230.00000</ele>
        <time>2024-02-16T12:30:23Z</time>
      </trkpt>
      <trkpt lat="42.80974793" lon="13.49678062">
        <ele>230.00000</ele>
        <time>2024-02-16T12:30:24Z</time>
      </trkpt>
      <trkpt lat="42.80978674" lon="13.49669127">
        <ele>230.00000</ele>
        <time>2024-02-16T12:30:25Z</time>
      </trkpt>
      <trkpt lat="42.80981741" lon="13.49659890">
        <ele>231.00000</ele>
        <time>2024-02-16T12:30:26Z</time>
      </trkpt>
      <trkpt lat="42.80984382" lon="13.49650402">
        <ele>231.00000</ele>
        <time>2024-02-16T12:30:27Z</time>
      </trkpt>
      <trkpt lat="42.80986519" lon="13.49638701">
        <ele>232.00000</ele>
        <time>2024-02-16T12:30:28Z</time>
      </trkpt>
      <trkpt lat="42.80987340" lon="13.49630713">
        <ele>232.00000</ele>
        <time>2024-02-16T12:30:29Z</time>
      </trkpt>
      <trkpt lat="42.80987726" lon="13.49619054">
        <ele>232.00000</ele>
        <time>2024-02-16T12:30:30Z</time>
      </trkpt>
      <trkpt lat="42.80987533" lon="13.49609683">
        <ele>232.00000</ele>
        <time>2024-02-16T12:30:31Z</time>
      </trkpt>
      <trkpt lat="42.80986988" lon="13.49600329">
        <ele>233.00000</ele>
        <time>2024-02-16T12:30:32Z</time>
      </trkpt>
      <trkpt lat="42.80985832" lon="13.49591058">
        <ele>233.00000</ele>
        <time>2024-02-16T12:30:33Z</time>
      </trkpt>
      <trkpt lat="42.80983912" lon="13.49581771">
        <ele>233.00000</ele>
        <time>2024-02-16T12:30:34Z</time>
      </trkpt>
      <trkpt lat="42.80981758" lon="13.49572618">
        <ele>233.00000</ele>
        <time>2024-02-16T12:30:35Z</time>
      </trkpt>
      <trkpt lat="42.80980031" lon="13.49565259">
        <ele>233.00000</ele>
        <time>2024-02-16T12:30:36Z</time>
      </trkpt>
      <trkpt lat="42.80977969" lon="13.49556106">
        <ele>233.00000</ele>
        <time>2024-02-16T12:30:37Z</time>
      </trkpt>
      <trkpt lat="42.80975522" lon="13.49547162">
        <ele>233.00000</ele>
        <time>2024-02-16T12:30:38Z</time>
      </trkpt>
      <trkpt lat="42.80972530" lon="13.49538378">
        <ele>233.00000</ele>
        <time>2024-02-16T12:30:39Z</time>
      </trkpt>
      <trkpt lat="42.80968875" lon="13.49527917">
        <ele>233.00000</ele>
        <time>2024-02-16T12:30:40Z</time>
      </trkpt>
      <trkpt lat="42.80965724" lon="13.49519267">
        <ele>234.00000</ele>
        <time>2024-02-16T12:30:41Z</time>
      </trkpt>
      <trkpt lat="42.80962773" lon="13.49510776">
        <ele>234.00000</ele>
        <time>2024-02-16T12:30:42Z</time>
      </trkpt>
      <trkpt lat="42.80960091" lon="13.49502420">
        <ele>235.00000</ele>
        <time>2024-02-16T12:30:43Z</time>
      </trkpt>
      <trkpt lat="42.80957828" lon="13.49495882">
        <ele>235.00000</ele>
        <time>2024-02-16T12:30:44Z</time>
      </trkpt>
      <trkpt lat="42.80954341" lon="13.49486033">
        <ele>235.00000</ele>
        <time>2024-02-16T12:30:45Z</time>
      </trkpt>
      <trkpt lat="42.80951550" lon="13.49477333">
        <ele>235.00000</ele>
        <time>2024-02-16T12:30:46Z</time>
      </trkpt>
      <trkpt lat="42.80948666" lon="13.49468691">
        <ele>236.00000</ele>
        <time>2024-02-16T12:30:47Z</time>
      </trkpt>
      <trkpt lat="42.80946135" lon="13.49460233">
        <ele>235.00000</ele>
        <time>2024-02-16T12:30:48Z</time>
      </trkpt>
      <trkpt lat="42.80943981" lon="13.49453511">
        <ele>235.00000</ele>
        <time>2024-02-16T12:30:49Z</time>
      </trkpt>
      <trkpt lat="42.80941072" lon="13.49443486">
        <ele>235.00000</ele>
        <time>2024-02-16T12:30:50Z</time>
      </trkpt>
      <trkpt lat="42.80938943" lon="13.49435482">
        <ele>234.00000</ele>
        <time>2024-02-16T12:30:51Z</time>
      </trkpt>
      <trkpt lat="42.80936630" lon="13.49428072">
        <ele>234.00000</ele>
        <time>2024-02-16T12:30:52Z</time>
      </trkpt>
      <trkpt lat="42.80934643" lon="13.49423068">
        <ele>233.00000</ele>
        <time>2024-02-16T12:30:53Z</time>
      </trkpt>
      <trkpt lat="42.80931827" lon="13.49415491">
        <ele>233.00000</ele>
        <time>2024-02-16T12:30:54Z</time>
      </trkpt>
      <trkpt lat="42.80929614" lon="13.49409112">
        <ele>232.00000</ele>
        <time>2024-02-16T12:30:55Z</time>
      </trkpt>
      <trkpt lat="42.80927703" lon="13.49402432">
        <ele>232.00000</ele>
        <time>2024-02-16T12:30:56Z</time>
      </trkpt>
      <trkpt lat="42.80925759" lon="13.49395391">
        <ele>232.00000</ele>
        <time>2024-02-16T12:30:57Z</time>
      </trkpt>
      <trkpt lat="42.80924107" lon="13.49389767">
        <ele>232.00000</ele>
        <time>2024-02-16T12:30:58Z</time>
      </trkpt>
      <trkpt lat="42.80922045" lon="13.49382743">
        <ele>232.00000</ele>
        <time>2024-02-16T12:30:59Z</time>
      </trkpt>
      <trkpt lat="42.80919288" lon="13.49374428">
        <ele>232.00000</ele>
        <time>2024-02-16T12:31:00Z</time>
      </trkpt>
      <trkpt lat="42.80916865" lon="13.49367731">
        <ele>233.00000</ele>
        <time>2024-02-16T12:31:01Z</time>
      </trkpt>
      <trkpt lat="42.80914560" lon="13.49361034">
        <ele>233.00000</ele>
        <time>2024-02-16T12:31:02Z</time>
      </trkpt>
      <trkpt lat="42.80912842" lon="13.49355694">
        <ele>233.00000</ele>
        <time>2024-02-16T12:31:03Z</time>
      </trkpt>
      <trkpt lat="42.80910747" lon="13.49348863">
        <ele>234.00000</ele>
        <time>2024-02-16T12:31:04Z</time>
      </trkpt>
      <trkpt lat="42.80908400" lon="13.49341143">
        <ele>234.00000</ele>
        <time>2024-02-16T12:31:05Z</time>
      </trkpt>
      <trkpt lat="42.80906690" lon="13.49336190">
        <ele>235.00000</ele>
        <time>2024-02-16T12:31:06Z</time>
      </trkpt>
      <trkpt lat="42.80904427" lon="13.49329828">
        <ele>235.00000</ele>
        <time>2024-02-16T12:31:07Z</time>
      </trkpt>
      <trkpt lat="42.80901996" lon="13.49322519">
        <ele>234.00000</ele>
        <time>2024-02-16T12:31:08Z</time>
      </trkpt>
      <trkpt lat="42.80900412" lon="13.49317565">
        <ele>234.00000</ele>
        <time>2024-02-16T12:31:09Z</time>
      </trkpt>
      <trkpt lat="42.80898048" lon="13.49310155">
        <ele>234.00000</ele>
        <time>2024-02-16T12:31:10Z</time>
      </trkpt>
      <trkpt lat="42.80895953" lon="13.49304079">
        <ele>234.00000</ele>
        <time>2024-02-16T12:31:11Z</time>
      </trkpt>
      <trkpt lat="42.80893991" lon="13.49297775">
        <ele>233.00000</ele>
        <time>2024-02-16T12:31:12Z</time>
      </trkpt>
      <trkpt lat="42.80892457" lon="13.49292721">
        <ele>233.00000</ele>
        <time>2024-02-16T12:31:13Z</time>
      </trkpt>
      <trkpt lat="42.80890731" lon="13.49286351">
        <ele>233.00000</ele>
        <time>2024-02-16T12:31:14Z</time>
      </trkpt>
      <trkpt lat="42.80888794" lon="13.49280006">
        <ele>232.00000</ele>
        <time>2024-02-16T12:31:15Z</time>
      </trkpt>
      <trkpt lat="42.80886473" lon="13.49272269">
        <ele>233.00000</ele>
        <time>2024-02-16T12:31:16Z</time>
      </trkpt>
      <trkpt lat="42.80884302" lon="13.49265832">
        <ele>233.00000</ele>
        <time>2024-02-16T12:31:17Z</time>
      </trkpt>
      <trkpt lat="42.80882315" lon="13.49259160">
        <ele>233.00000</ele>
        <time>2024-02-16T12:31:18Z</time>
      </trkpt>
      <trkpt lat="42.80881024" lon="13.49253620">
        <ele>233.00000</ele>
        <time>2024-02-16T12:31:19Z</time>
      </trkpt>
      <trkpt lat="42.80878929" lon="13.49245439">
        <ele>234.00000</ele>
        <time>2024-02-16T12:31:20Z</time>
      </trkpt>
      <trkpt lat="42.80877009" lon="13.49238566">
        <ele>234.00000</ele>
        <time>2024-02-16T12:31:21Z</time>
      </trkpt>
      <trkpt lat="42.80875199" lon="13.49233017">
        <ele>235.00000</ele>
        <time>2024-02-16T12:31:22Z</time>
      </trkpt>
      <trkpt lat="42.80873363" lon="13.49226026">
        <ele>235.00000</ele>
        <time>2024-02-16T12:31:23Z</time>
      </trkpt>
      <trkpt lat="42.80871737" lon="13.49218843">
        <ele>236.00000</ele>
        <time>2024-02-16T12:31:24Z</time>
      </trkpt>
      <trkpt lat="42.80869801" lon="13.49211987">
        <ele>237.00000</ele>
        <time>2024-02-16T12:31:25Z</time>
      </trkpt>
      <trkpt lat="42.80867756" lon="13.49205600">
        <ele>237.00000</ele>
        <time>2024-02-16T12:31:26Z</time>
      </trkpt>
      <trkpt lat="42.80865635" lon="13.49199405">
        <ele>237.00000</ele>
        <time>2024-02-16T12:31:27Z</time>
      </trkpt>
      <trkpt lat="42.80863456" lon="13.49193437">
        <ele>238.00000</ele>
        <time>2024-02-16T12:31:28Z</time>
      </trkpt>
      <trkpt lat="42.80861553" lon="13.49187201">
        <ele>238.00000</ele>
        <time>2024-02-16T12:31:29Z</time>
      </trkpt>
      <trkpt lat="42.80859592" lon="13.49180714">
        <ele>238.00000</ele>
        <time>2024-02-16T12:31:30Z</time>
      </trkpt>
      <trkpt lat="42.80856993" lon="13.49172868">
        <ele>239.00000</ele>
        <time>2024-02-16T12:31:31Z</time>
      </trkpt>
      <trkpt lat="42.80855191" lon="13.49167613">
        <ele>239.00000</ele>
        <time>2024-02-16T12:31:32Z</time>
      </trkpt>
      <trkpt lat="42.80852668" lon="13.49161184">
        <ele>239.00000</ele>
        <time>2024-02-16T12:31:33Z</time>
      </trkpt>
      <trkpt lat="42.80849978" lon="13.49154939">
        <ele>238.00000</ele>
        <time>2024-02-16T12:31:34Z</time>
      </trkpt>
      <trkpt lat="42.80847128" lon="13.49148770">
        <ele>238.00000</ele>
        <time>2024-02-16T12:31:35Z</time>
      </trkpt>
      <trkpt lat="42.80843440" lon="13.49143096">
        <ele>237.00000</ele>
        <time>2024-02-16T12:31:36Z</time>
      </trkpt>
      <trkpt lat="42.80839702" lon="13.49137656">
        <ele>237.00000</ele>
        <time>2024-02-16T12:31:37Z</time>
      </trkpt>
      <trkpt lat="42.80835963" lon="13.49132400">
        <ele>237.00000</ele>
        <time>2024-02-16T12:31:38Z</time>
      </trkpt>
      <trkpt lat="42.80832057" lon="13.49127589">
        <ele>238.00000</ele>
        <time>2024-02-16T12:31:39Z</time>
      </trkpt>
      <trkpt lat="42.80827238" lon="13.49122149">
        <ele>238.00000</ele>
        <time>2024-02-16T12:31:40Z</time>
      </trkpt>
      <trkpt lat="42.80823030" lon="13.49118218">
        <ele>238.00000</ele>
        <time>2024-02-16T12:31:41Z</time>
      </trkpt>
      <trkpt lat="42.80819585" lon="13.49115570">
        <ele>237.00000</ele>
        <time>2024-02-16T12:31:42Z</time>
      </trkpt>
      <trkpt lat="42.80815210" lon="13.49111949">
        <ele>237.00000</ele>
        <time>2024-02-16T12:31:43Z</time>
      </trkpt>
      <trkpt lat="42.80810952" lon="13.49108562">
        <ele>236.00000</ele>
        <time>2024-02-16T12:31:44Z</time>
      </trkpt>
      <trkpt lat="42.80806669" lon="13.49105184">
        <ele>236.00000</ele>
        <time>2024-02-16T12:31:45Z</time>
      </trkpt>
      <trkpt lat="42.80802369" lon="13.49101630">
        <ele>236.00000</ele>
        <time>2024-02-16T12:31:46Z</time>
      </trkpt>
      <trkpt lat="42.80798194" lon="13.49098202">
        <ele>236.00000</ele>
        <time>2024-02-16T12:31:47Z</time>
      </trkpt>
      <trkpt lat="42.80793861" lon="13.49095059">
        <ele>235.00000</ele>
        <time>2024-02-16T12:31:48Z</time>
      </trkpt>
      <trkpt lat="42.80789670" lon="13.49091949">
        <ele>235.00000</ele>
        <time>2024-02-16T12:31:49Z</time>
      </trkpt>
      <trkpt lat="42.80784809" lon="13.49087599">
        <ele>235.00000</ele>
        <time>2024-02-16T12:31:50Z</time>
      </trkpt>
      <trkpt lat="42.80781389" lon="13.49084850">
        <ele>234.00000</ele>
        <time>2024-02-16T12:31:51Z</time>
      </trkpt>
      <trkpt lat="42.80777676" lon="13.49080818">
        <ele>234.00000</ele>
        <time>2024-02-16T12:31:52Z</time>
      </trkpt>
      <trkpt lat="42.80773568" lon="13.49077122">
        <ele>235.00000</ele>
        <time>2024-02-16T12:31:53Z</time>
      </trkpt>
      <trkpt lat="42.80769235" lon="13.49073492">
        <ele>235.00000</ele>
        <time>2024-02-16T12:31:54Z</time>
      </trkpt>
      <trkpt lat="42.80765111" lon="13.49070190">
        <ele>235.00000</ele>
        <time>2024-02-16T12:31:55Z</time>
      </trkpt>
      <trkpt lat="42.80761037" lon="13.49066720">
        <ele>235.00000</ele>
        <time>2024-02-16T12:31:56Z</time>
      </trkpt>
      <trkpt lat="42.80757023" lon="13.49063149">
        <ele>235.00000</ele>
        <time>2024-02-16T12:31:57Z</time>
      </trkpt>
      <trkpt lat="42.80753175" lon="13.49059478">
        <ele>235.00000</ele>
        <time>2024-02-16T12:31:58Z</time>
      </trkpt>
      <trkpt lat="42.80749403" lon="13.49055631">
        <ele>234.00000</ele>
        <time>2024-02-16T12:31:59Z</time>
      </trkpt>
      <trkpt lat="42.80745858" lon="13.49051817">
        <ele>235.00000</ele>
        <time>2024-02-16T12:32:00Z</time>
      </trkpt>
      <trkpt lat="42.80742363" lon="13.49048003">
        <ele>235.00000</ele>
        <time>2024-02-16T12:32:01Z</time>
      </trkpt>
      <trkpt lat="42.80738834" lon="13.49044332">
        <ele>235.00000</ele>
        <time>2024-02-16T12:32:02Z</time>
      </trkpt>
      <trkpt lat="42.80735355" lon="13.49040828">
        <ele>234.00000</ele>
        <time>2024-02-16T12:32:03Z</time>
      </trkpt>
      <trkpt lat="42.80731969" lon="13.49037392">
        <ele>234.00000</ele>
        <time>2024-02-16T12:32:04Z</time>
      </trkpt>
      <trkpt lat="42.80728532" lon="13.49034517">
        <ele>234.00000</ele>
        <time>2024-02-16T12:32:05Z</time>
      </trkpt>
      <trkpt lat="42.80725574" lon="13.49031910">
        <ele>234.00000</ele>
        <time>2024-02-16T12:32:06Z</time>
      </trkpt>
      <trkpt lat="42.80722808" lon="13.49029337">
        <ele>234.00000</ele>
        <time>2024-02-16T12:32:07Z</time>
      </trkpt>
      <trkpt lat="42.80719949" lon="13.49026948">
        <ele>233.00000</ele>
        <time>2024-02-16T12:32:08Z</time>
      </trkpt>
      <trkpt lat="42.80716764" lon="13.49024559">
        <ele>233.00000</ele>
        <time>2024-02-16T12:32:09Z</time>
      </trkpt>
      <trkpt lat="42.80713185" lon="13.49022028">
        <ele>233.00000</ele>
        <time>2024-02-16T12:32:10Z</time>
      </trkpt>
      <trkpt lat="42.80709631" lon="13.49020552">
        <ele>233.00000</ele>
        <time>2024-02-16T12:32:11Z</time>
      </trkpt>
      <trkpt lat="42.80706203" lon="13.49021055">
        <ele>233.00000</ele>
        <time>2024-02-16T12:32:12Z</time>
      </trkpt>
      <trkpt lat="42.80703797" lon="13.49023134">
        <ele>233.00000</ele>
        <time>2024-02-16T12:32:13Z</time>
      </trkpt>
      <trkpt lat="42.80701585" lon="13.49026822">
        <ele>233.00000</ele>
        <time>2024-02-16T12:32:14Z</time>
      </trkpt>
      <trkpt lat="42.80699137" lon="13.49030979">
        <ele>233.00000</ele>
        <time>2024-02-16T12:32:15Z</time>
      </trkpt>
      <trkpt lat="42.80695977" lon="13.49035422">
        <ele>233.00000</ele>
        <time>2024-02-16T12:32:16Z</time>
      </trkpt>
      <trkpt lat="42.80693027" lon="13.49040149">
        <ele>232.00000</ele>
        <time>2024-02-16T12:32:17Z</time>
      </trkpt>
      <trkpt lat="42.80690579" lon="13.49045136">
        <ele>232.00000</ele>
        <time>2024-02-16T12:32:18Z</time>
      </trkpt>
      <trkpt lat="42.80688023" lon="13.49050316">
        <ele>232.00000</ele>
        <time>2024-02-16T12:32:19Z</time>
      </trkpt>
      <trkpt lat="42.80684720" lon="13.49056217">
        <ele>232.00000</ele>
        <time>2024-02-16T12:32:20Z</time>
      </trkpt>
      <trkpt lat="42.80681611" lon="13.49062127">
        <ele>232.00000</ele>
        <time>2024-02-16T12:32:21Z</time>
      </trkpt>
      <trkpt lat="42.80678534" lon="13.49067944">
        <ele>232.00000</ele>
        <time>2024-02-16T12:32:22Z</time>
      </trkpt>
      <trkpt lat="42.80674947" lon="13.49073912">
        <ele>232.00000</ele>
        <time>2024-02-16T12:32:23Z</time>
      </trkpt>
      <trkpt lat="42.80671359" lon="13.49079988">
        <ele>232.00000</ele>
        <time>2024-02-16T12:32:24Z</time>
      </trkpt>
      <trkpt lat="42.80668535" lon="13.49085638">
        <ele>233.00000</ele>
        <time>2024-02-16T12:32:25Z</time>
      </trkpt>
      <trkpt lat="42.80665660" lon="13.49091840">
        <ele>233.00000</ele>
        <time>2024-02-16T12:32:26Z</time>
      </trkpt>
      <trkpt lat="42.80662709" lon="13.49097649">
        <ele>233.00000</ele>
        <time>2024-02-16T12:32:27Z</time>
      </trkpt>
      <trkpt lat="42.80660044" lon="13.49103801">
        <ele>233.00000</ele>
        <time>2024-02-16T12:32:28Z</time>
      </trkpt>
      <trkpt lat="42.80657135" lon="13.49109543">
        <ele>234.00000</ele>
        <time>2024-02-16T12:32:29Z</time>
      </trkpt>
      <trkpt lat="42.80655073" lon="13.49115176">
        <ele>234.00000</ele>
        <time>2024-02-16T12:32:30Z</time>
      </trkpt>
      <trkpt lat="42.80653355" lon="13.49120683">
        <ele>235.00000</ele>
        <time>2024-02-16T12:32:31Z</time>
      </trkpt>
      <trkpt lat="42.80652014" lon="13.49126131">
        <ele>235.00000</ele>
        <time>2024-02-16T12:32:32Z</time>
      </trkpt>
      <trkpt lat="42.80651050" lon="13.49131294">
        <ele>236.00000</ele>
        <time>2024-02-16T12:32:33Z</time>
      </trkpt>
      <trkpt lat="42.80650665" lon="13.49136072">
        <ele>236.00000</ele>
        <time>2024-02-16T12:32:34Z</time>
      </trkpt>
      <trkpt lat="42.80650665" lon="13.49140875">
        <ele>236.00000</ele>
        <time>2024-02-16T12:32:35Z</time>
      </trkpt>
      <trkpt lat="42.80651167" lon="13.49145912">
        <ele>237.00000</ele>
        <time>2024-02-16T12:32:36Z</time>
      </trkpt>
      <trkpt lat="42.80652140" lon="13.49150774">
        <ele>237.00000</ele>
        <time>2024-02-16T12:32:37Z</time>
      </trkpt>
      <trkpt lat="42.80653439" lon="13.49155400">
        <ele>237.00000</ele>
        <time>2024-02-16T12:32:38Z</time>
      </trkpt>
      <trkpt lat="42.80655425" lon="13.49160094">
        <ele>237.00000</ele>
        <time>2024-02-16T12:32:39Z</time>
      </trkpt>
      <trkpt lat="42.80657680" lon="13.49164453">
        <ele>237.00000</ele>
        <time>2024-02-16T12:32:40Z</time>
      </trkpt>
      <trkpt lat="42.80660505" lon="13.49168920">
        <ele>237.00000</ele>
        <time>2024-02-16T12:32:41Z</time>
      </trkpt>
      <trkpt lat="42.80663388" lon="13.49173556">
        <ele>237.00000</ele>
        <time>2024-02-16T12:32:42Z</time>
      </trkpt>
      <trkpt lat="42.80665987" lon="13.49178216">
        <ele>237.00000</ele>
        <time>2024-02-16T12:32:43Z</time>
      </trkpt>
      <trkpt lat="42.80668459" lon="13.49182583">
        <ele>237.00000</ele>
        <time>2024-02-16T12:32:44Z</time>
      </trkpt>
      <trkpt lat="42.80671368" lon="13.49186413">
        <ele>237.00000</ele>
        <time>2024-02-16T12:32:45Z</time>
      </trkpt>
      <trkpt lat="42.80674109" lon="13.49189875">
        <ele>237.00000</ele>
        <time>2024-02-16T12:32:46Z</time>
      </trkpt>
      <trkpt lat="42.80676431" lon="13.49193714">
        <ele>237.00000</ele>
        <time>2024-02-16T12:32:47Z</time>
      </trkpt>
      <trkpt lat="42.80678710" lon="13.49197603">
        <ele>237.00000</ele>
        <time>2024-02-16T12:32:48Z</time>
      </trkpt>
      <trkpt lat="42.80681217" lon="13.49201719">
        <ele>237.00000</ele>
        <time>2024-02-16T12:32:49Z</time>
      </trkpt>
      <trkpt lat="42.80683773" lon="13.49205692">
        <ele>237.00000</ele>
        <time>2024-02-16T12:32:50Z</time>
      </trkpt>
      <trkpt lat="42.80686145" lon="13.49209824">
        <ele>237.00000</ele>
        <time>2024-02-16T12:32:51Z</time>
      </trkpt>
      <trkpt lat="42.80688006" lon="13.49214627">
        <ele>237.00000</ele>
        <time>2024-02-16T12:32:52Z</time>
      </trkpt>
      <trkpt lat="42.80689422" lon="13.49219773">
        <ele>237.00000</ele>
        <time>2024-02-16T12:32:53Z</time>
      </trkpt>
      <trkpt lat="42.80690755" lon="13.49225129">
        <ele>238.00000</ele>
        <time>2024-02-16T12:32:54Z</time>
      </trkpt>
      <trkpt lat="42.80691283" lon="13.49230544">
        <ele>238.00000</ele>
        <time>2024-02-16T12:32:55Z</time>
      </trkpt>
      <trkpt lat="42.80690621" lon="13.49236110">
        <ele>238.00000</ele>
        <time>2024-02-16T12:32:56Z</time>
      </trkpt>
      <trkpt lat="42.80688970" lon="13.49241248">
        <ele>239.00000</ele>
        <time>2024-02-16T12:32:57Z</time>
      </trkpt>
      <trkpt lat="42.80686983" lon="13.49245699">
        <ele>240.00000</ele>
        <time>2024-02-16T12:32:58Z</time>
      </trkpt>
      <trkpt lat="42.80684100" lon="13.49249403">
        <ele>241.00000</ele>
        <time>2024-02-16T12:32:59Z</time>
      </trkpt>
      <trkpt lat="42.80680831" lon="13.49252555">
        <ele>242.00000</ele>
        <time>2024-02-16T12:33:00Z</time>
      </trkpt>
      <trkpt lat="42.80677545" lon="13.49255438">
        <ele>242.00000</ele>
        <time>2024-02-16T12:33:01Z</time>
      </trkpt>
      <trkpt lat="42.80673933" lon="13.49258565">
        <ele>243.00000</ele>
        <time>2024-02-16T12:33:02Z</time>
      </trkpt>
      <trkpt lat="42.80670362" lon="13.49261649">
        <ele>244.00000</ele>
        <time>2024-02-16T12:33:03Z</time>
      </trkpt>
      <trkpt lat="42.80666473" lon="13.49264943">
        <ele>246.00000</ele>
        <time>2024-02-16T12:33:04Z</time>
      </trkpt>
      <trkpt lat="42.80662273" lon="13.49267735">
        <ele>247.00000</ele>
        <time>2024-02-16T12:33:05Z</time>
      </trkpt>
      <trkpt lat="42.80657923" lon="13.49269822">
        <ele>249.00000</ele>
        <time>2024-02-16T12:33:06Z</time>
      </trkpt>
      <trkpt lat="42.80653364" lon="13.49270677">
        <ele>250.00000</ele>
        <time>2024-02-16T12:33:07Z</time>
      </trkpt>
      <trkpt lat="42.80648393" lon="13.49269872">
        <ele>252.00000</ele>
        <time>2024-02-16T12:33:08Z</time>
      </trkpt>
      <trkpt lat="42.80643632" lon="13.49267533">
        <ele>253.00000</ele>
        <time>2024-02-16T12:33:09Z</time>
      </trkpt>
      <trkpt lat="42.80639785" lon="13.49263695">
        <ele>254.00000</ele>
        <time>2024-02-16T12:33:10Z</time>
      </trkpt>
      <trkpt lat="42.80636424" lon="13.49258691">
        <ele>254.00000</ele>
        <time>2024-02-16T12:33:11Z</time>
      </trkpt>
      <trkpt lat="42.80633800" lon="13.49252899">
        <ele>254.00000</ele>
        <time>2024-02-16T12:33:12Z</time>
      </trkpt>
      <trkpt lat="42.80632744" lon="13.49245539">
        <ele>254.00000</ele>
        <time>2024-02-16T12:33:13Z</time>
      </trkpt>
      <trkpt lat="42.80632534" lon="13.49237652">
        <ele>253.00000</ele>
        <time>2024-02-16T12:33:14Z</time>
      </trkpt>
      <trkpt lat="42.80632761" lon="13.49229974">
        <ele>251.00000</ele>
        <time>2024-02-16T12:33:15Z</time>
      </trkpt>
      <trkpt lat="42.80632870" lon="13.49222741">
        <ele>250.00000</ele>
        <time>2024-02-16T12:33:16Z</time>
      </trkpt>
      <trkpt lat="42.80632182" lon="13.49216102">
        <ele>249.00000</ele>
        <time>2024-02-16T12:33:17Z</time>
      </trkpt>
      <trkpt lat="42.80630934" lon="13.49209279">
        <ele>248.00000</ele>
        <time>2024-02-16T12:33:18Z</time>
      </trkpt>
      <trkpt lat="42.80628880" lon="13.49202867">
        <ele>248.00000</ele>
        <time>2024-02-16T12:33:19Z</time>
      </trkpt>
      <trkpt lat="42.80626600" lon="13.49196581">
        <ele>247.00000</ele>
        <time>2024-02-16T12:33:20Z</time>
      </trkpt>
      <trkpt lat="42.80624195" lon="13.49189992">
        <ele>247.00000</ele>
        <time>2024-02-16T12:33:21Z</time>
      </trkpt>
      <trkpt lat="42.80621420" lon="13.49183698">
        <ele>246.00000</ele>
        <time>2024-02-16T12:33:22Z</time>
      </trkpt>
      <trkpt lat="42.80618629" lon="13.49177378">
        <ele>246.00000</ele>
        <time>2024-02-16T12:33:23Z</time>
      </trkpt>
      <trkpt lat="42.80615687" lon="13.49171058">
        <ele>245.00000</ele>
        <time>2024-02-16T12:33:24Z</time>
      </trkpt>
      <trkpt lat="42.80612493" lon="13.49165081">
        <ele>244.00000</ele>
        <time>2024-02-16T12:33:25Z</time>
      </trkpt>
      <trkpt lat="42.80609644" lon="13.49158912">
        <ele>244.00000</ele>
        <time>2024-02-16T12:33:26Z</time>
      </trkpt>
      <trkpt lat="42.80607146" lon="13.49152341">
        <ele>243.00000</ele>
        <time>2024-02-16T12:33:27Z</time>
      </trkpt>
      <trkpt lat="42.80604287" lon="13.49145686">
        <ele>243.00000</ele>
        <time>2024-02-16T12:33:28Z</time>
      </trkpt>
      <trkpt lat="42.80600859" lon="13.49139810">
        <ele>242.00000</ele>
        <time>2024-02-16T12:33:29Z</time>
      </trkpt>
      <trkpt lat="42.80597917" lon="13.49133775">
        <ele>242.00000</ele>
        <time>2024-02-16T12:33:30Z</time>
      </trkpt>
      <trkpt lat="42.80594782" lon="13.49127941">
        <ele>242.00000</ele>
        <time>2024-02-16T12:33:31Z</time>
      </trkpt>
      <trkpt lat="42.80591664" lon="13.49121781">
        <ele>243.00000</ele>
        <time>2024-02-16T12:33:32Z</time>
      </trkpt>
      <trkpt lat="42.80587784" lon="13.49116634">
        <ele>243.00000</ele>
        <time>2024-02-16T12:33:33Z</time>
      </trkpt>
      <trkpt lat="42.80583894" lon="13.49112284">
        <ele>243.00000</ele>
        <time>2024-02-16T12:33:34Z</time>
      </trkpt>
      <trkpt lat="42.80579477" lon="13.49108579">
        <ele>244.00000</ele>
        <time>2024-02-16T12:33:35Z</time>
      </trkpt>
      <trkpt lat="42.80574758" lon="13.49105746">
        <ele>245.00000</ele>
        <time>2024-02-16T12:33:36Z</time>
      </trkpt>
      <trkpt lat="42.80570165" lon="13.49104279">
        <ele>246.00000</ele>
        <time>2024-02-16T12:33:37Z</time>
      </trkpt>
      <trkpt lat="42.80566284" lon="13.49104170">
        <ele>247.00000</ele>
        <time>2024-02-16T12:33:38Z</time>
      </trkpt>
      <trkpt lat="42.80563157" lon="13.49105168">
        <ele>248.00000</ele>
        <time>2024-02-16T12:33:39Z</time>
      </trkpt>
      <trkpt lat="42.80559981" lon="13.49108135">
        <ele>249.00000</ele>
        <time>2024-02-16T12:33:40Z</time>
      </trkpt>
      <trkpt lat="42.80557340" lon="13.49111462">
        <ele>250.00000</ele>
        <time>2024-02-16T12:33:41Z</time>
      </trkpt>
      <trkpt lat="42.80555304" lon="13.49115695">
        <ele>251.00000</ele>
        <time>2024-02-16T12:33:42Z</time>
      </trkpt>
      <trkpt lat="42.80554457" lon="13.49119978">
        <ele>252.00000</ele>
        <time>2024-02-16T12:33:43Z</time>
      </trkpt>
      <trkpt lat="42.80554139" lon="13.49124387">
        <ele>253.00000</ele>
        <time>2024-02-16T12:33:44Z</time>
      </trkpt>
      <trkpt lat="42.80554189" lon="13.49128637">
        <ele>254.00000</ele>
        <time>2024-02-16T12:33:45Z</time>
      </trkpt>
      <trkpt lat="42.80555421" lon="13.49132333">
        <ele>254.00000</ele>
        <time>2024-02-16T12:33:46Z</time>
      </trkpt>
      <trkpt lat="42.80556888" lon="13.49136315">
        <ele>255.00000</ele>
        <time>2024-02-16T12:33:47Z</time>
      </trkpt>
      <trkpt lat="42.80558095" lon="13.49140447">
        <ele>255.00000</ele>
        <time>2024-02-16T12:33:48Z</time>
      </trkpt>
      <trkpt lat="42.80559310" lon="13.49144680">
        <ele>256.00000</ele>
        <time>2024-02-16T12:33:49Z</time>
      </trkpt>
      <trkpt lat="42.80560777" lon="13.49148888">
        <ele>256.00000</ele>
        <time>2024-02-16T12:33:50Z</time>
      </trkpt>
      <trkpt lat="42.80562529" lon="13.49152693">
        <ele>256.00000</ele>
        <time>2024-02-16T12:33:51Z</time>
      </trkpt>
      <trkpt lat="42.80563996" lon="13.49156373">
        <ele>257.00000</ele>
        <time>2024-02-16T12:33:52Z</time>
      </trkpt>
      <trkpt lat="42.80565270" lon="13.49160069">
        <ele>257.00000</ele>
        <time>2024-02-16T12:33:53Z</time>
      </trkpt>
      <trkpt lat="42.80566393" lon="13.49164034">
        <ele>258.00000</ele>
        <time>2024-02-16T12:33:54Z</time>
      </trkpt>
      <trkpt lat="42.80567407" lon="13.49168124">
        <ele>258.00000</ele>
        <time>2024-02-16T12:33:55Z</time>
      </trkpt>
      <trkpt lat="42.80568287" lon="13.49172282">
        <ele>259.00000</ele>
        <time>2024-02-16T12:33:56Z</time>
      </trkpt>
      <trkpt lat="42.80569050" lon="13.49176548">
        <ele>260.00000</ele>
        <time>2024-02-16T12:33:57Z</time>
      </trkpt>
      <trkpt lat="42.80570031" lon="13.49180622">
        <ele>261.00000</ele>
        <time>2024-02-16T12:33:58Z</time>
      </trkpt>
      <trkpt lat="42.80571145" lon="13.49184636">
        <ele>261.00000</ele>
        <time>2024-02-16T12:33:59Z</time>
      </trkpt>
      <trkpt lat="42.80572696" lon="13.49188107">
        <ele>262.00000</ele>
        <time>2024-02-16T12:34:00Z</time>
      </trkpt>
      <trkpt lat="42.80574590" lon="13.49190923">
        <ele>262.00000</ele>
        <time>2024-02-16T12:34:01Z</time>
      </trkpt>
      <trkpt lat="42.80576879" lon="13.49194309">
        <ele>262.00000</ele>
        <time>2024-02-16T12:34:02Z</time>
      </trkpt>
      <trkpt lat="42.80578756" lon="13.49198006">
        <ele>262.00000</ele>
        <time>2024-02-16T12:34:03Z</time>
      </trkpt>
      <trkpt lat="42.80580374" lon="13.49201786">
        <ele>262.00000</ele>
        <time>2024-02-16T12:34:04Z</time>
      </trkpt>
      <trkpt lat="42.80582520" lon="13.49205256">
        <ele>262.00000</ele>
        <time>2024-02-16T12:34:05Z</time>
      </trkpt>
      <trkpt lat="42.80584003" lon="13.49208441">
        <ele>263.00000</ele>
        <time>2024-02-16T12:34:06Z</time>
      </trkpt>
      <trkpt lat="42.80585755" lon="13.49211920">
        <ele>263.00000</ele>
        <time>2024-02-16T12:34:07Z</time>
      </trkpt>
      <trkpt lat="42.80586543" lon="13.49215390">
        <ele>264.00000</ele>
        <time>2024-02-16T12:34:08Z</time>
      </trkpt>
      <trkpt lat="42.80588018" lon="13.49219237">
        <ele>264.00000</ele>
        <time>2024-02-16T12:34:09Z</time>
      </trkpt>
      <trkpt lat="42.80588823" lon="13.49223478">
        <ele>265.00000</ele>
        <time>2024-02-16T12:34:10Z</time>
      </trkpt>
      <trkpt lat="42.80590038" lon="13.49227099">
        <ele>264.00000</ele>
        <time>2024-02-16T12:34:11Z</time>
      </trkpt>
      <trkpt lat="42.80591455" lon="13.49230620">
        <ele>264.00000</ele>
        <time>2024-02-16T12:34:12Z</time>
      </trkpt>
      <trkpt lat="42.80592679" lon="13.49234576">
        <ele>264.00000</ele>
        <time>2024-02-16T12:34:13Z</time>
      </trkpt>
      <trkpt lat="42.80594305" lon="13.49238432">
        <ele>263.00000</ele>
        <time>2024-02-16T12:34:14Z</time>
      </trkpt>
      <trkpt lat="42.80595880" lon="13.49242262">
        <ele>263.00000</ele>
        <time>2024-02-16T12:34:15Z</time>
      </trkpt>
      <trkpt lat="42.80597683" lon="13.49245891">
        <ele>263.00000</ele>
        <time>2024-02-16T12:34:16Z</time>
      </trkpt>
      <trkpt lat="42.80599334" lon="13.49249336">
        <ele>263.00000</ele>
        <time>2024-02-16T12:34:17Z</time>
      </trkpt>
      <trkpt lat="42.80600641" lon="13.49252589">
        <ele>263.00000</ele>
        <time>2024-02-16T12:34:18Z</time>
      </trkpt>
      <trkpt lat="42.80601840" lon="13.49255715">
        <ele>263.00000</ele>
        <time>2024-02-16T12:34:19Z</time>
      </trkpt>
      <trkpt lat="42.80602946" lon="13.49259026">
        <ele>263.00000</ele>
        <time>2024-02-16T12:34:20Z</time>
      </trkpt>
      <trkpt lat="42.80604380" lon="13.49262203">
        <ele>263.00000</ele>
        <time>2024-02-16T12:34:21Z</time>
      </trkpt>
      <trkpt lat="42.80605796" lon="13.49265589">
        <ele>263.00000</ele>
        <time>2024-02-16T12:34:22Z</time>
      </trkpt>
      <trkpt lat="42.80606735" lon="13.49269134">
        <ele>263.00000</ele>
        <time>2024-02-16T12:34:23Z</time>
      </trkpt>
      <trkpt lat="42.80607682" lon="13.49272764">
        <ele>263.00000</ele>
        <time>2024-02-16T12:34:24Z</time>
      </trkpt>
      <trkpt lat="42.80608680" lon="13.49276251">
        <ele>263.00000</ele>
        <time>2024-02-16T12:34:25Z</time>
      </trkpt>
      <trkpt lat="42.80610046" lon="13.49279570">
        <ele>263.00000</ele>
        <time>2024-02-16T12:34:26Z</time>
      </trkpt>
      <trkpt lat="42.80611244" lon="13.49282822">
        <ele>263.00000</ele>
        <time>2024-02-16T12:34:27Z</time>
      </trkpt>
      <trkpt lat="42.80612326" lon="13.49286929">
        <ele>263.00000</ele>
        <time>2024-02-16T12:34:28Z</time>
      </trkpt>
      <trkpt lat="42.80612980" lon="13.49289854">
        <ele>263.00000</ele>
        <time>2024-02-16T12:34:29Z</time>
      </trkpt>
      <trkpt lat="42.80613709" lon="13.49293425">
        <ele>263.00000</ele>
        <time>2024-02-16T12:34:30Z</time>
      </trkpt>
      <trkpt lat="42.80614966" lon="13.49297314">
        <ele>263.00000</ele>
        <time>2024-02-16T12:34:31Z</time>
      </trkpt>
      <trkpt lat="42.80615888" lon="13.49299862">
        <ele>263.00000</ele>
        <time>2024-02-16T12:34:32Z</time>
      </trkpt>
      <trkpt lat="42.80616978" lon="13.49303274">
        <ele>263.00000</ele>
        <time>2024-02-16T12:34:33Z</time>
      </trkpt>
      <trkpt lat="42.80617539" lon="13.49307163">
        <ele>263.00000</ele>
        <time>2024-02-16T12:34:34Z</time>
      </trkpt>
      <trkpt lat="42.80617732" lon="13.49311136">
        <ele>263.00000</ele>
        <time>2024-02-16T12:34:35Z</time>
      </trkpt>
      <trkpt lat="42.80617858" lon="13.49314950">
        <ele>264.00000</ele>
        <time>2024-02-16T12:34:36Z</time>
      </trkpt>
      <trkpt lat="42.80617732" lon="13.49319560">
        <ele>264.00000</ele>
        <time>2024-02-16T12:34:37Z</time>
      </trkpt>
      <trkpt lat="42.80617732" lon="13.49322745">
        <ele>264.00000</ele>
        <time>2024-02-16T12:34:38Z</time>
      </trkpt>
      <trkpt lat="42.80617606" lon="13.49326576">
        <ele>264.00000</ele>
        <time>2024-02-16T12:34:39Z</time>
      </trkpt>
      <trkpt lat="42.80617137" lon="13.49330289">
        <ele>265.00000</ele>
        <time>2024-02-16T12:34:40Z</time>
      </trkpt>
      <trkpt lat="42.80616668" lon="13.49334756">
        <ele>265.00000</ele>
        <time>2024-02-16T12:34:41Z</time>
      </trkpt>
      <trkpt lat="42.80616433" lon="13.49338201">
        <ele>265.00000</ele>
        <time>2024-02-16T12:34:42Z</time>
      </trkpt>
      <trkpt lat="42.80616483" lon="13.49342459">
        <ele>265.00000</ele>
        <time>2024-02-16T12:34:43Z</time>
      </trkpt>
      <trkpt lat="42.80616508" lon="13.49346642">
        <ele>266.00000</ele>
        <time>2024-02-16T12:34:44Z</time>
      </trkpt>
      <trkpt lat="42.80615972" lon="13.49350682">
        <ele>266.00000</ele>
        <time>2024-02-16T12:34:45Z</time>
      </trkpt>
      <trkpt lat="42.80615092" lon="13.49354730">
        <ele>266.00000</ele>
        <time>2024-02-16T12:34:46Z</time>
      </trkpt>
      <trkpt lat="42.80614069" lon="13.49358620">
        <ele>266.00000</ele>
        <time>2024-02-16T12:34:47Z</time>
      </trkpt>
      <trkpt lat="42.80612560" lon="13.49362509">
        <ele>266.00000</ele>
        <time>2024-02-16T12:34:48Z</time>
      </trkpt>
      <trkpt lat="42.80610708" lon="13.49366197">
        <ele>267.00000</ele>
        <time>2024-02-16T12:34:49Z</time>
      </trkpt>
      <trkpt lat="42.80608797" lon="13.49369390">
        <ele>267.00000</ele>
        <time>2024-02-16T12:34:50Z</time>
      </trkpt>
      <trkpt lat="42.80607121" lon="13.49372182">
        <ele>267.00000</ele>
        <time>2024-02-16T12:34:51Z</time>
      </trkpt>
      <trkpt lat="42.80605377" lon="13.49374981">
        <ele>267.00000</ele>
        <time>2024-02-16T12:34:52Z</time>
      </trkpt>
      <trkpt lat="42.80603860" lon="13.49377596">
        <ele>267.00000</ele>
        <time>2024-02-16T12:34:53Z</time>
      </trkpt>
      <trkpt lat="42.80602200" lon="13.49380128">
        <ele>267.00000</ele>
        <time>2024-02-16T12:34:54Z</time>
      </trkpt>
      <trkpt lat="42.80599770" lon="13.49383044">
        <ele>267.00000</ele>
        <time>2024-02-16T12:34:55Z</time>
      </trkpt>
      <trkpt lat="42.80597825" lon="13.49385391">
        <ele>267.00000</ele>
        <time>2024-02-16T12:34:56Z</time>
      </trkpt>
      <trkpt lat="42.80595386" lon="13.49388116">
        <ele>267.00000</ele>
        <time>2024-02-16T12:34:57Z</time>
      </trkpt>
      <trkpt lat="42.80593215" lon="13.49390630">
        <ele>267.00000</ele>
        <time>2024-02-16T12:34:58Z</time>
      </trkpt>
      <trkpt lat="42.80591103" lon="13.49393287">
        <ele>267.00000</ele>
        <time>2024-02-16T12:34:59Z</time>
      </trkpt>
      <trkpt lat="42.80588932" lon="13.49395944">
        <ele>267.00000</ele>
        <time>2024-02-16T12:35:00Z</time>
      </trkpt>
      <trkpt lat="42.80586912" lon="13.49398375">
        <ele>267.00000</ele>
        <time>2024-02-16T12:35:01Z</time>
      </trkpt>
      <trkpt lat="42.80584858" lon="13.49401107">
        <ele>267.00000</ele>
        <time>2024-02-16T12:35:02Z</time>
      </trkpt>
      <trkpt lat="42.80582721" lon="13.49403999">
        <ele>268.00000</ele>
        <time>2024-02-16T12:35:03Z</time>
      </trkpt>
      <trkpt lat="42.80580583" lon="13.49406941">
        <ele>268.00000</ele>
        <time>2024-02-16T12:35:04Z</time>
      </trkpt>
      <trkpt lat="42.80578513" lon="13.49409590">
        <ele>268.00000</ele>
        <time>2024-02-16T12:35:05Z</time>
      </trkpt>
      <trkpt lat="42.80576208" lon="13.49412322">
        <ele>268.00000</ele>
        <time>2024-02-16T12:35:06Z</time>
      </trkpt>
      <trkpt lat="42.80573811" lon="13.49415055">
        <ele>268.00000</ele>
        <time>2024-02-16T12:35:07Z</time>
      </trkpt>
      <trkpt lat="42.80571497" lon="13.49418022">
        <ele>268.00000</ele>
        <time>2024-02-16T12:35:08Z</time>
      </trkpt>
      <trkpt lat="42.80569134" lon="13.49421073">
        <ele>269.00000</ele>
        <time>2024-02-16T12:35:09Z</time>
      </trkpt>
      <trkpt lat="42.80566586" lon="13.49424166">
        <ele>269.00000</ele>
        <time>2024-02-16T12:35:10Z</time>
      </trkpt>
      <trkpt lat="42.80564172" lon="13.49427150">
        <ele>269.00000</ele>
        <time>2024-02-16T12:35:11Z</time>
      </trkpt>
      <trkpt lat="42.80561372" lon="13.49430243">
        <ele>269.00000</ele>
        <time>2024-02-16T12:35:12Z</time>
      </trkpt>
      <trkpt lat="42.80558958" lon="13.49433286">
        <ele>270.00000</ele>
        <time>2024-02-16T12:35:13Z</time>
      </trkpt>
      <trkpt lat="42.80556662" lon="13.49435934">
        <ele>270.00000</ele>
        <time>2024-02-16T12:35:14Z</time>
      </trkpt>
      <trkpt lat="42.80554549" lon="13.49438583">
        <ele>271.00000</ele>
        <time>2024-02-16T12:35:15Z</time>
      </trkpt>
      <trkpt lat="42.80552655" lon="13.49441106">
        <ele>272.00000</ele>
        <time>2024-02-16T12:35:16Z</time>
      </trkpt>
      <trkpt lat="42.80550844" lon="13.49443805">
        <ele>274.00000</ele>
        <time>2024-02-16T12:35:17Z</time>
      </trkpt>
      <trkpt lat="42.80549026" lon="13.49446521">
        <ele>275.00000</ele>
        <time>2024-02-16T12:35:18Z</time>
      </trkpt>
      <trkpt lat="42.80547341" lon="13.49449077">
        <ele>276.00000</ele>
        <time>2024-02-16T12:35:19Z</time>
      </trkpt>
      <trkpt lat="42.80545547" lon="13.49451902">
        <ele>278.00000</ele>
        <time>2024-02-16T12:35:20Z</time>
      </trkpt>
      <trkpt lat="42.80543980" lon="13.49454953">
        <ele>279.00000</ele>
        <time>2024-02-16T12:35:21Z</time>
      </trkpt>
      <trkpt lat="42.80542664" lon="13.49458247">
        <ele>280.00000</ele>
        <time>2024-02-16T12:35:22Z</time>
      </trkpt>
      <trkpt lat="42.80541306" lon="13.49462287">
        <ele>281.00000</ele>
        <time>2024-02-16T12:35:23Z</time>
      </trkpt>
      <trkpt lat="42.80540074" lon="13.49466134">
        <ele>282.00000</ele>
        <time>2024-02-16T12:35:24Z</time>
      </trkpt>
      <trkpt lat="42.80539110" lon="13.49469085">
        <ele>283.00000</ele>
        <time>2024-02-16T12:35:25Z</time>
      </trkpt>
      <trkpt lat="42.80537970" lon="13.49472203">
        <ele>284.00000</ele>
        <time>2024-02-16T12:35:26Z</time>
      </trkpt>
      <trkpt lat="42.80536939" lon="13.49475111">
        <ele>284.00000</ele>
        <time>2024-02-16T12:35:27Z</time>
      </trkpt>
      <trkpt lat="42.80535866" lon="13.49478221">
        <ele>285.00000</ele>
        <time>2024-02-16T12:35:28Z</time>
      </trkpt>
      <trkpt lat="42.80534885" lon="13.49481917">
        <ele>285.00000</ele>
        <time>2024-02-16T12:35:29Z</time>
      </trkpt>
      <trkpt lat="42.80534097" lon="13.49485086">
        <ele>285.00000</ele>
        <time>2024-02-16T12:35:30Z</time>
      </trkpt>
      <trkpt lat="42.80533025" lon="13.49487743">
        <ele>286.00000</ele>
        <time>2024-02-16T12:35:31Z</time>
      </trkpt>
      <trkpt lat="42.80531558" lon="13.49490123">
        <ele>286.00000</ele>
        <time>2024-02-16T12:35:32Z</time>
      </trkpt>
      <trkpt lat="42.80528574" lon="13.49491808">
        <ele>288.00000</ele>
        <time>2024-02-16T12:35:33Z</time>
      </trkpt>
      <trkpt lat="42.80526688" lon="13.49492722">
        <ele>289.00000</ele>
        <time>2024-02-16T12:35:34Z</time>
      </trkpt>
      <trkpt lat="42.80525062" lon="13.49492353">
        <ele>290.00000</ele>
        <time>2024-02-16T12:35:35Z</time>
      </trkpt>
      <trkpt lat="42.80524265" lon="13.49490593">
        <ele>291.00000</ele>
        <time>2024-02-16T12:35:36Z</time>
      </trkpt>
      <trkpt lat="42.80523955" lon="13.49487877">
        <ele>291.00000</ele>
        <time>2024-02-16T12:35:37Z</time>
      </trkpt>
      <trkpt lat="42.80524081" lon="13.49485228">
        <ele>292.00000</ele>
        <time>2024-02-16T12:35:38Z</time>
      </trkpt>
      <trkpt lat="42.80524617" lon="13.49482588">
        <ele>292.00000</ele>
        <time>2024-02-16T12:35:39Z</time>
      </trkpt>
      <trkpt lat="42.80524944" lon="13.49479948">
        <ele>292.00000</ele>
        <time>2024-02-16T12:35:40Z</time>
      </trkpt>
      <trkpt lat="42.80525263" lon="13.49477131">
        <ele>292.00000</ele>
        <time>2024-02-16T12:35:41Z</time>
      </trkpt>
      <trkpt lat="42.80525322" lon="13.49474407">
        <ele>293.00000</ele>
        <time>2024-02-16T12:35:42Z</time>
      </trkpt>
      <trkpt lat="42.80525070" lon="13.49471700">
        <ele>293.00000</ele>
        <time>2024-02-16T12:35:43Z</time>
      </trkpt>
      <trkpt lat="42.80525179" lon="13.49468867">
        <ele>293.00000</ele>
        <time>2024-02-16T12:35:44Z</time>
      </trkpt>
      <trkpt lat="42.80525900" lon="13.49465958">
        <ele>292.00000</ele>
        <time>2024-02-16T12:35:45Z</time>
      </trkpt>
      <trkpt lat="42.80525623" lon="13.49462773">
        <ele>293.00000</ele>
        <time>2024-02-16T12:35:46Z</time>
      </trkpt>
      <trkpt lat="42.80525037" lon="13.49459638">
        <ele>293.00000</ele>
        <time>2024-02-16T12:35:47Z</time>
      </trkpt>
      <trkpt lat="42.80524131" lon="13.49456436">
        <ele>293.00000</ele>
        <time>2024-02-16T12:35:48Z</time>
      </trkpt>
      <trkpt lat="42.80523654" lon="13.49453218">
        <ele>294.00000</ele>
        <time>2024-02-16T12:35:49Z</time>
      </trkpt>
      <trkpt lat="42.80523360" lon="13.49450091">
        <ele>294.00000</ele>
        <time>2024-02-16T12:35:50Z</time>
      </trkpt>
      <trkpt lat="42.80523746" lon="13.49446445">
        <ele>293.00000</ele>
        <time>2024-02-16T12:35:51Z</time>
      </trkpt>
      <trkpt lat="42.80524031" lon="13.49443042">
        <ele>293.00000</ele>
        <time>2024-02-16T12:35:52Z</time>
      </trkpt>
      <trkpt lat="42.80524425" lon="13.49439388">
        <ele>292.00000</ele>
        <time>2024-02-16T12:35:53Z</time>
      </trkpt>
      <trkpt lat="42.80524542" lon="13.49435783">
        <ele>291.00000</ele>
        <time>2024-02-16T12:35:54Z</time>
      </trkpt>
      <trkpt lat="42.80524450" lon="13.49432095">
        <ele>290.00000</ele>
        <time>2024-02-16T12:35:55Z</time>
      </trkpt>
      <trkpt lat="42.80523570" lon="13.49428273">
        <ele>290.00000</ele>
        <time>2024-02-16T12:35:56Z</time>
      </trkpt>
      <trkpt lat="42.80522539" lon="13.49424493">
        <ele>290.00000</ele>
        <time>2024-02-16T12:35:57Z</time>
      </trkpt>
      <trkpt lat="42.80521810" lon="13.49420956">
        <ele>290.00000</ele>
        <time>2024-02-16T12:35:58Z</time>
      </trkpt>
      <trkpt lat="42.80521114" lon="13.49417679">
        <ele>290.00000</ele>
        <time>2024-02-16T12:35:59Z</time>
      </trkpt>
      <trkpt lat="42.80520234" lon="13.49414133">
        <ele>290.00000</ele>
        <time>2024-02-16T12:36:00Z</time>
      </trkpt>
      <trkpt lat="42.80519496" lon="13.49410680">
        <ele>291.00000</ele>
        <time>2024-02-16T12:36:01Z</time>
      </trkpt>
      <trkpt lat="42.80518691" lon="13.49407117">
        <ele>291.00000</ele>
        <time>2024-02-16T12:36:02Z</time>
      </trkpt>
      <trkpt lat="42.80517627" lon="13.49403664">
        <ele>292.00000</ele>
        <time>2024-02-16T12:36:03Z</time>
      </trkpt>
      <trkpt lat="42.80516780" lon="13.49400009">
        <ele>293.00000</ele>
        <time>2024-02-16T12:36:04Z</time>
      </trkpt>
      <trkpt lat="42.80516143" lon="13.49396254">
        <ele>293.00000</ele>
        <time>2024-02-16T12:36:05Z</time>
      </trkpt>
      <trkpt lat="42.80515657" lon="13.49392449">
        <ele>293.00000</ele>
        <time>2024-02-16T12:36:06Z</time>
      </trkpt>
      <trkpt lat="42.80514936" lon="13.49388694">
        <ele>294.00000</ele>
        <time>2024-02-16T12:36:07Z</time>
      </trkpt>
      <trkpt lat="42.80514216" lon="13.49385065">
        <ele>294.00000</ele>
        <time>2024-02-16T12:36:08Z</time>
      </trkpt>
      <trkpt lat="42.80513386" lon="13.49381628">
        <ele>294.00000</ele>
        <time>2024-02-16T12:36:09Z</time>
      </trkpt>
      <trkpt lat="42.80512497" lon="13.49378351">
        <ele>295.00000</ele>
        <time>2024-02-16T12:36:10Z</time>
      </trkpt>
      <trkpt lat="42.80511366" lon="13.49375065">
        <ele>295.00000</ele>
        <time>2024-02-16T12:36:11Z</time>
      </trkpt>
      <trkpt lat="42.80510326" lon="13.49371721">
        <ele>296.00000</ele>
        <time>2024-02-16T12:36:12Z</time>
      </trkpt>
      <trkpt lat="42.80509488" lon="13.49367957">
        <ele>296.00000</ele>
        <time>2024-02-16T12:36:13Z</time>
      </trkpt>
      <trkpt lat="42.80508616" lon="13.49364043">
        <ele>297.00000</ele>
        <time>2024-02-16T12:36:14Z</time>
      </trkpt>
      <trkpt lat="42.80507870" lon="13.49360112">
        <ele>297.00000</ele>
        <time>2024-02-16T12:36:15Z</time>
      </trkpt>
      <trkpt lat="42.80506823" lon="13.49356289">
        <ele>298.00000</ele>
        <time>2024-02-16T12:36:16Z</time>
      </trkpt>
      <trkpt lat="42.80505406" lon="13.49352987">
        <ele>299.00000</ele>
        <time>2024-02-16T12:36:17Z</time>
      </trkpt>
      <trkpt lat="42.80504241" lon="13.49349592">
        <ele>300.00000</ele>
        <time>2024-02-16T12:36:18Z</time>
      </trkpt>
      <trkpt lat="42.80503026" lon="13.49346080">
        <ele>301.00000</ele>
        <time>2024-02-16T12:36:19Z</time>
      </trkpt>
      <trkpt lat="42.80501785" lon="13.49342778">
        <ele>301.00000</ele>
        <time>2024-02-16T12:36:20Z</time>
      </trkpt>
      <trkpt lat="42.80500461" lon="13.49339484">
        <ele>302.00000</ele>
        <time>2024-02-16T12:36:21Z</time>
      </trkpt>
      <trkpt lat="42.80498910" lon="13.49336424">
        <ele>303.00000</ele>
        <time>2024-02-16T12:36:22Z</time>
      </trkpt>
      <trkpt lat="42.80497376" lon="13.49333549">
        <ele>304.00000</ele>
        <time>2024-02-16T12:36:23Z</time>
      </trkpt>
      <trkpt lat="42.80495784" lon="13.49330850">
        <ele>304.00000</ele>
        <time>2024-02-16T12:36:24Z</time>
      </trkpt>
      <trkpt lat="42.80493864" lon="13.49327431">
        <ele>304.00000</ele>
        <time>2024-02-16T12:36:25Z</time>
      </trkpt>
      <trkpt lat="42.80492884" lon="13.49325017">
        <ele>305.00000</ele>
        <time>2024-02-16T12:36:26Z</time>
      </trkpt>
      <trkpt lat="42.80491551" lon="13.49321806">
        <ele>305.00000</ele>
        <time>2024-02-16T12:36:27Z</time>
      </trkpt>
      <trkpt lat="42.80490143" lon="13.49318730">
        <ele>305.00000</ele>
        <time>2024-02-16T12:36:28Z</time>
      </trkpt>
      <trkpt lat="42.80489087" lon="13.49315377">
        <ele>305.00000</ele>
        <time>2024-02-16T12:36:29Z</time>
      </trkpt>
      <trkpt lat="42.80488232" lon="13.49311857">
        <ele>305.00000</ele>
        <time>2024-02-16T12:36:30Z</time>
      </trkpt>
      <trkpt lat="42.80486547" lon="13.49308328">
        <ele>306.00000</ele>
        <time>2024-02-16T12:36:31Z</time>
      </trkpt>
      <trkpt lat="42.80484485" lon="13.49304934">
        <ele>306.00000</ele>
        <time>2024-02-16T12:36:32Z</time>
      </trkpt>
      <trkpt lat="42.80482591" lon="13.49301891">
        <ele>306.00000</ele>
        <time>2024-02-16T12:36:33Z</time>
      </trkpt>
      <trkpt lat="42.80480847" lon="13.49298932">
        <ele>306.00000</ele>
        <time>2024-02-16T12:36:34Z</time>
      </trkpt>
      <trkpt lat="42.80479389" lon="13.49296443">
        <ele>306.00000</ele>
        <time>2024-02-16T12:36:35Z</time>
      </trkpt>
      <trkpt lat="42.80477587" lon="13.49294012">
        <ele>306.00000</ele>
        <time>2024-02-16T12:36:36Z</time>
      </trkpt>
      <trkpt lat="42.80475374" lon="13.49291414">
        <ele>306.00000</ele>
        <time>2024-02-16T12:36:37Z</time>
      </trkpt>
      <trkpt lat="42.80473203" lon="13.49288882">
        <ele>306.00000</ele>
        <time>2024-02-16T12:36:38Z</time>
      </trkpt>
      <trkpt lat="42.80471476" lon="13.49286393">
        <ele>306.00000</ele>
        <time>2024-02-16T12:36:39Z</time>
      </trkpt>
      <trkpt lat="42.80469138" lon="13.49284096">
        <ele>306.00000</ele>
        <time>2024-02-16T12:36:40Z</time>
      </trkpt>
      <trkpt lat="42.80466455" lon="13.49282302">
        <ele>305.00000</ele>
        <time>2024-02-16T12:36:41Z</time>
      </trkpt>
      <trkpt lat="42.80464142" lon="13.49280115">
        <ele>305.00000</ele>
        <time>2024-02-16T12:36:42Z</time>
      </trkpt>
      <trkpt lat="42.80461686" lon="13.49277726">
        <ele>305.00000</ele>
        <time>2024-02-16T12:36:43Z</time>
      </trkpt>
      <trkpt lat="42.80459649" lon="13.49275563">
        <ele>305.00000</ele>
        <time>2024-02-16T12:36:44Z</time>
      </trkpt>
      <trkpt lat="42.80457311" lon="13.49273636">
        <ele>304.00000</ele>
        <time>2024-02-16T12:36:45Z</time>
      </trkpt>
      <trkpt lat="42.80454210" lon="13.49271171">
        <ele>304.00000</ele>
        <time>2024-02-16T12:36:46Z</time>
      </trkpt>
      <trkpt lat="42.80452089" lon="13.49269704">
        <ele>304.00000</ele>
        <time>2024-02-16T12:36:47Z</time>
      </trkpt>
      <trkpt lat="42.80449507" lon="13.49267953">
        <ele>304.00000</ele>
        <time>2024-02-16T12:36:48Z</time>
      </trkpt>
      <trkpt lat="42.80447093" lon="13.49266268">
        <ele>303.00000</ele>
        <time>2024-02-16T12:36:49Z</time>
      </trkpt>
      <trkpt lat="42.80444587" lon="13.49264583">
        <ele>303.00000</ele>
        <time>2024-02-16T12:36:50Z</time>
      </trkpt>
      <trkpt lat="42.80442391" lon="13.49262580">
        <ele>303.00000</ele>
        <time>2024-02-16T12:36:51Z</time>
      </trkpt>
      <trkpt lat="42.80439809" lon="13.49261105">
        <ele>303.00000</ele>
        <time>2024-02-16T12:36:52Z</time>
      </trkpt>
      <trkpt lat="42.80437890" lon="13.49260350">
        <ele>303.00000</ele>
        <time>2024-02-16T12:36:53Z</time>
      </trkpt>
      <trkpt lat="42.80434998" lon="13.49259470">
        <ele>304.00000</ele>
        <time>2024-02-16T12:36:54Z</time>
      </trkpt>
      <trkpt lat="42.80432609" lon="13.49258531">
        <ele>304.00000</ele>
        <time>2024-02-16T12:36:55Z</time>
      </trkpt>
      <trkpt lat="42.80429902" lon="13.49257215">
        <ele>304.00000</ele>
        <time>2024-02-16T12:36:56Z</time>
      </trkpt>
      <trkpt lat="42.80427237" lon="13.49256235">
        <ele>305.00000</ele>
        <time>2024-02-16T12:36:57Z</time>
      </trkpt>
      <trkpt lat="42.80424487" lon="13.49254818">
        <ele>305.00000</ele>
        <time>2024-02-16T12:36:58Z</time>
      </trkpt>
      <trkpt lat="42.80421369" lon="13.49253385">
        <ele>305.00000</ele>
        <time>2024-02-16T12:36:59Z</time>
      </trkpt>
      <trkpt lat="42.80418980" lon="13.49252798">
        <ele>306.00000</ele>
        <time>2024-02-16T12:37:00Z</time>
      </trkpt>
      <trkpt lat="42.80416273" lon="13.49251859">
        <ele>306.00000</ele>
        <time>2024-02-16T12:37:01Z</time>
      </trkpt>
      <trkpt lat="42.80413675" lon="13.49250786">
        <ele>306.00000</ele>
        <time>2024-02-16T12:37:02Z</time>
      </trkpt>
      <trkpt lat="42.80410691" lon="13.49250434">
        <ele>307.00000</ele>
        <time>2024-02-16T12:37:03Z</time>
      </trkpt>
      <trkpt lat="42.80407506" lon="13.49250418">
        <ele>308.00000</ele>
        <time>2024-02-16T12:37:04Z</time>
      </trkpt>
      <trkpt lat="42.80404807" lon="13.49250384">
        <ele>309.00000</ele>
        <time>2024-02-16T12:37:05Z</time>
      </trkpt>
      <trkpt lat="42.80402275" lon="13.49250552">
        <ele>309.00000</ele>
        <time>2024-02-16T12:37:06Z</time>
      </trkpt>
      <trkpt lat="42.80399769" lon="13.49250677">
        <ele>310.00000</ele>
        <time>2024-02-16T12:37:07Z</time>
      </trkpt>
      <trkpt lat="42.80397531" lon="13.49250476">
        <ele>311.00000</ele>
        <time>2024-02-16T12:37:08Z</time>
      </trkpt>
      <trkpt lat="42.80395528" lon="13.49250300">
        <ele>311.00000</ele>
        <time>2024-02-16T12:37:09Z</time>
      </trkpt>
      <trkpt lat="42.80393265" lon="13.49250317">
        <ele>312.00000</ele>
        <time>2024-02-16T12:37:10Z</time>
      </trkpt>
      <trkpt lat="42.80390993" lon="13.49250694">
        <ele>312.00000</ele>
        <time>2024-02-16T12:37:11Z</time>
      </trkpt>
      <trkpt lat="42.80388353" lon="13.49251457">
        <ele>313.00000</ele>
        <time>2024-02-16T12:37:12Z</time>
      </trkpt>
      <trkpt lat="42.80385419" lon="13.49252505">
        <ele>313.00000</ele>
        <time>2024-02-16T12:37:13Z</time>
      </trkpt>
      <trkpt lat="42.80382829" lon="13.49253091">
        <ele>314.00000</ele>
        <time>2024-02-16T12:37:14Z</time>
      </trkpt>
      <trkpt lat="42.80380315" lon="13.49253410">
        <ele>314.00000</ele>
        <time>2024-02-16T12:37:15Z</time>
      </trkpt>
      <trkpt lat="42.80377406" lon="13.49253821">
        <ele>314.00000</ele>
        <time>2024-02-16T12:37:16Z</time>
      </trkpt>
      <trkpt lat="42.80375529" lon="13.49254542">
        <ele>314.00000</ele>
        <time>2024-02-16T12:37:17Z</time>
      </trkpt>
      <trkpt lat="42.80372930" lon="13.49255455">
        <ele>315.00000</ele>
        <time>2024-02-16T12:37:18Z</time>
      </trkpt>
      <trkpt lat="42.80370365" lon="13.49255983">
        <ele>315.00000</ele>
        <time>2024-02-16T12:37:19Z</time>
      </trkpt>
      <trkpt lat="42.80368052" lon="13.49256847">
        <ele>315.00000</ele>
        <time>2024-02-16T12:37:20Z</time>
      </trkpt>
      <trkpt lat="42.80365730" lon="13.49257643">
        <ele>316.00000</ele>
        <time>2024-02-16T12:37:21Z</time>
      </trkpt>
      <trkpt lat="42.80363568" lon="13.49258590">
        <ele>316.00000</ele>
        <time>2024-02-16T12:37:22Z</time>
      </trkpt>
      <trkpt lat="42.80361447" lon="13.49259562">
        <ele>317.00000</ele>
        <time>2024-02-16T12:37:23Z</time>
      </trkpt>
      <trkpt lat="42.80359544" lon="13.49260292">
        <ele>317.00000</ele>
        <time>2024-02-16T12:37:24Z</time>
      </trkpt>
      <trkpt lat="42.80357658" lon="13.49261054">
        <ele>318.00000</ele>
        <time>2024-02-16T12:37:25Z</time>
      </trkpt>
      <trkpt lat="42.80355504" lon="13.49261918">
        <ele>318.00000</ele>
        <time>2024-02-16T12:37:26Z</time>
      </trkpt>
      <trkpt lat="42.80353685" lon="13.49262831">
        <ele>318.00000</ele>
        <time>2024-02-16T12:37:27Z</time>
      </trkpt>
      <trkpt lat="42.80351313" lon="13.49264021">
        <ele>319.00000</ele>
        <time>2024-02-16T12:37:28Z</time>
      </trkpt>
      <trkpt lat="42.80347935" lon="13.49265187">
        <ele>319.00000</ele>
        <time>2024-02-16T12:37:29Z</time>
      </trkpt>
      <trkpt lat="42.80345362" lon="13.49266645">
        <ele>320.00000</ele>
        <time>2024-02-16T12:37:30Z</time>
      </trkpt>
      <trkpt lat="42.80343040" lon="13.49268204">
        <ele>320.00000</ele>
        <time>2024-02-16T12:37:31Z</time>
      </trkpt>
      <trkpt lat="42.80340316" lon="13.49270165">
        <ele>321.00000</ele>
        <time>2024-02-16T12:37:32Z</time>
      </trkpt>
      <trkpt lat="42.80337835" lon="13.49271607">
        <ele>321.00000</ele>
        <time>2024-02-16T12:37:33Z</time>
      </trkpt>
      <trkpt lat="42.80336025" lon="13.49272613">
        <ele>322.00000</ele>
        <time>2024-02-16T12:37:34Z</time>
      </trkpt>
      <trkpt lat="42.80333896" lon="13.49273275">
        <ele>322.00000</ele>
        <time>2024-02-16T12:37:35Z</time>
      </trkpt>
      <trkpt lat="42.80331909" lon="13.49274205">
        <ele>322.00000</ele>
        <time>2024-02-16T12:37:36Z</time>
      </trkpt>
      <trkpt lat="42.80329797" lon="13.49275639">
        <ele>323.00000</ele>
        <time>2024-02-16T12:37:37Z</time>
      </trkpt>
      <trkpt lat="42.80327701" lon="13.49276527">
        <ele>323.00000</ele>
        <time>2024-02-16T12:37:38Z</time>
      </trkpt>
      <trkpt lat="42.80325581" lon="13.49277483">
        <ele>324.00000</ele>
        <time>2024-02-16T12:37:39Z</time>
      </trkpt>
      <trkpt lat="42.80323376" lon="13.49278329">
        <ele>324.00000</ele>
        <time>2024-02-16T12:37:40Z</time>
      </trkpt>
      <trkpt lat="42.80320988" lon="13.49279126">
        <ele>325.00000</ele>
        <time>2024-02-16T12:37:41Z</time>
      </trkpt>
      <trkpt lat="42.80318498" lon="13.49279855">
        <ele>325.00000</ele>
        <time>2024-02-16T12:37:42Z</time>
      </trkpt>
      <trkpt lat="42.80316118" lon="13.49280266">
        <ele>325.00000</ele>
        <time>2024-02-16T12:37:43Z</time>
      </trkpt>
      <trkpt lat="42.80313704" lon="13.49280416">
        <ele>326.00000</ele>
        <time>2024-02-16T12:37:44Z</time>
      </trkpt>
      <trkpt lat="42.80311658" lon="13.49280592">
        <ele>326.00000</ele>
        <time>2024-02-16T12:37:45Z</time>
      </trkpt>
      <trkpt lat="42.80309714" lon="13.49280953">
        <ele>326.00000</ele>
        <time>2024-02-16T12:37:46Z</time>
      </trkpt>
      <trkpt lat="42.80307585" lon="13.49281037">
        <ele>326.00000</ele>
        <time>2024-02-16T12:37:47Z</time>
      </trkpt>
      <trkpt lat="42.80305263" lon="13.49281095">
        <ele>326.00000</ele>
        <time>2024-02-16T12:37:48Z</time>
      </trkpt>
      <trkpt lat="42.80302866" lon="13.49281406">
        <ele>327.00000</ele>
        <time>2024-02-16T12:37:49Z</time>
      </trkpt>
      <trkpt lat="42.80300267" lon="13.49281682">
        <ele>327.00000</ele>
        <time>2024-02-16T12:37:50Z</time>
      </trkpt>
      <trkpt lat="42.80297736" lon="13.49282009">
        <ele>328.00000</ele>
        <time>2024-02-16T12:37:51Z</time>
      </trkpt>
      <trkpt lat="42.80295305" lon="13.49282101">
        <ele>328.00000</ele>
        <time>2024-02-16T12:37:52Z</time>
      </trkpt>
      <trkpt lat="42.80292782" lon="13.49282093">
        <ele>329.00000</ele>
        <time>2024-02-16T12:37:53Z</time>
      </trkpt>
      <trkpt lat="42.80290335" lon="13.49282193">
        <ele>329.00000</ele>
        <time>2024-02-16T12:37:54Z</time>
      </trkpt>
      <trkpt lat="42.80287845" lon="13.49282202">
        <ele>329.00000</ele>
        <time>2024-02-16T12:37:55Z</time>
      </trkpt>
      <trkpt lat="42.80285432" lon="13.49282311">
        <ele>330.00000</ele>
        <time>2024-02-16T12:37:56Z</time>
      </trkpt>
      <trkpt lat="42.80283177" lon="13.49282386">
        <ele>330.00000</ele>
        <time>2024-02-16T12:37:57Z</time>
      </trkpt>
      <trkpt lat="42.80281257" lon="13.49282688">
        <ele>331.00000</ele>
        <time>2024-02-16T12:37:58Z</time>
      </trkpt>
      <trkpt lat="42.80279363" lon="13.49282520">
        <ele>331.00000</ele>
        <time>2024-02-16T12:37:59Z</time>
      </trkpt>
      <trkpt lat="42.80277234" lon="13.49282437">
        <ele>331.00000</ele>
        <time>2024-02-16T12:38:00Z</time>
      </trkpt>
      <trkpt lat="42.80275105" lon="13.49282235">
        <ele>332.00000</ele>
        <time>2024-02-16T12:38:01Z</time>
      </trkpt>
      <trkpt lat="42.80272708" lon="13.49282009">
        <ele>332.00000</ele>
        <time>2024-02-16T12:38:02Z</time>
      </trkpt>
      <trkpt lat="42.80270319" lon="13.49282051">
        <ele>333.00000</ele>
        <time>2024-02-16T12:38:03Z</time>
      </trkpt>
      <trkpt lat="42.80268047" lon="13.49282152">
        <ele>334.00000</ele>
        <time>2024-02-16T12:38:04Z</time>
      </trkpt>
      <trkpt lat="42.80265776" lon="13.49281908">
        <ele>334.00000</ele>
        <time>2024-02-16T12:38:05Z</time>
      </trkpt>
      <trkpt lat="42.80263337" lon="13.49281732">
        <ele>335.00000</ele>
        <time>2024-02-16T12:38:06Z</time>
      </trkpt>
      <trkpt lat="42.80260990" lon="13.49281841">
        <ele>336.00000</ele>
        <time>2024-02-16T12:38:07Z</time>
      </trkpt>
      <trkpt lat="42.80258844" lon="13.49282043">
        <ele>336.00000</ele>
        <time>2024-02-16T12:38:08Z</time>
      </trkpt>
      <trkpt lat="42.80256640" lon="13.49282302">
        <ele>337.00000</ele>
        <time>2024-02-16T12:38:09Z</time>
      </trkpt>
      <trkpt lat="42.80254075" lon="13.49282554">
        <ele>338.00000</ele>
        <time>2024-02-16T12:38:10Z</time>
      </trkpt>
      <trkpt lat="42.80251619" lon="13.49282680">
        <ele>338.00000</ele>
        <time>2024-02-16T12:38:11Z</time>
      </trkpt>
      <trkpt lat="42.80249088" lon="13.49282822">
        <ele>339.00000</ele>
        <time>2024-02-16T12:38:12Z</time>
      </trkpt>
      <trkpt lat="42.80246607" lon="13.49282814">
        <ele>339.00000</ele>
        <time>2024-02-16T12:38:13Z</time>
      </trkpt>
      <trkpt lat="42.80244293" lon="13.49282755">
        <ele>340.00000</ele>
        <time>2024-02-16T12:38:14Z</time>
      </trkpt>
      <trkpt lat="42.80241971" lon="13.49282680">
        <ele>340.00000</ele>
        <time>2024-02-16T12:38:15Z</time>
      </trkpt>
      <trkpt lat="42.80239809" lon="13.49282797">
        <ele>341.00000</ele>
        <time>2024-02-16T12:38:16Z</time>
      </trkpt>
      <trkpt lat="42.80237621" lon="13.49282562">
        <ele>341.00000</ele>
        <time>2024-02-16T12:38:17Z</time>
      </trkpt>
      <trkpt lat="42.80235283" lon="13.49282587">
        <ele>341.00000</ele>
        <time>2024-02-16T12:38:18Z</time>
      </trkpt>
      <trkpt lat="42.80232768" lon="13.49281875">
        <ele>341.00000</ele>
        <time>2024-02-16T12:38:19Z</time>
      </trkpt>
      <trkpt lat="42.80230371" lon="13.49281414">
        <ele>342.00000</ele>
        <time>2024-02-16T12:38:20Z</time>
      </trkpt>
      <trkpt lat="42.80228409" lon="13.49281691">
        <ele>342.00000</ele>
        <time>2024-02-16T12:38:21Z</time>
      </trkpt>
      <trkpt lat="42.80225635" lon="13.49281808">
        <ele>343.00000</ele>
        <time>2024-02-16T12:38:22Z</time>
      </trkpt>
      <trkpt lat="42.80223380" lon="13.49281506">
        <ele>343.00000</ele>
        <time>2024-02-16T12:38:23Z</time>
      </trkpt>
      <trkpt lat="42.80219768" lon="13.49280903">
        <ele>344.00000</ele>
        <time>2024-02-16T12:38:24Z</time>
      </trkpt>
      <trkpt lat="42.80217111" lon="13.49280106">
        <ele>345.00000</ele>
        <time>2024-02-16T12:38:25Z</time>
      </trkpt>
      <trkpt lat="42.80214219" lon="13.49279637">
        <ele>346.00000</ele>
        <time>2024-02-16T12:38:26Z</time>
      </trkpt>
      <trkpt lat="42.80211788" lon="13.49279008">
        <ele>347.00000</ele>
        <time>2024-02-16T12:38:27Z</time>
      </trkpt>
      <trkpt lat="42.80209282" lon="13.49278581">
        <ele>347.00000</ele>
        <time>2024-02-16T12:38:28Z</time>
      </trkpt>
      <trkpt lat="42.80206826" lon="13.49277868">
        <ele>348.00000</ele>
        <time>2024-02-16T12:38:29Z</time>
      </trkpt>
      <trkpt lat="42.80204521" lon="13.49277223">
        <ele>349.00000</ele>
        <time>2024-02-16T12:38:30Z</time>
      </trkpt>
      <trkpt lat="42.80202166" lon="13.49276142">
        <ele>350.00000</ele>
        <time>2024-02-16T12:38:31Z</time>
      </trkpt>
      <trkpt lat="42.80199727" lon="13.49275153">
        <ele>350.00000</ele>
        <time>2024-02-16T12:38:32Z</time>
      </trkpt>
      <trkpt lat="42.80197296" lon="13.49274465">
        <ele>351.00000</ele>
        <time>2024-02-16T12:38:33Z</time>
      </trkpt>
      <trkpt lat="42.80195058" lon="13.49273937">
        <ele>352.00000</ele>
        <time>2024-02-16T12:38:34Z</time>
      </trkpt>
      <trkpt lat="42.80192501" lon="13.49273744">
        <ele>352.00000</ele>
        <time>2024-02-16T12:38:35Z</time>
      </trkpt>
      <trkpt lat="42.80190557" lon="13.49274105">
        <ele>353.00000</ele>
        <time>2024-02-16T12:38:36Z</time>
      </trkpt>
      <trkpt lat="42.80189123" lon="13.49274851">
        <ele>354.00000</ele>
        <time>2024-02-16T12:38:37Z</time>
      </trkpt>
      <trkpt lat="42.80188662" lon="13.49276326">
        <ele>354.00000</ele>
        <time>2024-02-16T12:38:38Z</time>
      </trkpt>
      <trkpt lat="42.80189861" lon="13.49278732">
        <ele>355.00000</ele>
        <time>2024-02-16T12:38:39Z</time>
      </trkpt>
      <trkpt lat="42.80191898" lon="13.49280752">
        <ele>355.00000</ele>
        <time>2024-02-16T12:38:40Z</time>
      </trkpt>
      <trkpt lat="42.80194044" lon="13.49282093">
        <ele>355.00000</ele>
        <time>2024-02-16T12:38:41Z</time>
      </trkpt>
      <trkpt lat="42.80196097" lon="13.49282923">
        <ele>355.00000</ele>
        <time>2024-02-16T12:38:42Z</time>
      </trkpt>
      <trkpt lat="42.80198201" lon="13.49283920">
        <ele>354.00000</ele>
        <time>2024-02-16T12:38:43Z</time>
      </trkpt>
      <trkpt lat="42.80200246" lon="13.49285303">
        <ele>354.00000</ele>
        <time>2024-02-16T12:38:44Z</time>
      </trkpt>
      <trkpt lat="42.80202300" lon="13.49286862">
        <ele>353.00000</ele>
        <time>2024-02-16T12:38:45Z</time>
      </trkpt>
      <trkpt lat="42.80204588" lon="13.49287927">
        <ele>353.00000</ele>
        <time>2024-02-16T12:38:46Z</time>
      </trkpt>
      <trkpt lat="42.80207027" lon="13.49289008">
        <ele>352.00000</ele>
        <time>2024-02-16T12:38:47Z</time>
      </trkpt>
      <trkpt lat="42.80209751" lon="13.49290642">
        <ele>352.00000</ele>
        <time>2024-02-16T12:38:48Z</time>
      </trkpt>
      <trkpt lat="42.80212643" lon="13.49292092">
        <ele>351.00000</ele>
        <time>2024-02-16T12:38:49Z</time>
      </trkpt>
      <trkpt lat="42.80215082" lon="13.49293358">
        <ele>351.00000</ele>
        <time>2024-02-16T12:38:50Z</time>
      </trkpt>
      <trkpt lat="42.80217169" lon="13.49295060">
        <ele>351.00000</ele>
        <time>2024-02-16T12:38:51Z</time>
      </trkpt>
      <trkpt lat="42.80219667" lon="13.49296384">
        <ele>351.00000</ele>
        <time>2024-02-16T12:38:52Z</time>
      </trkpt>
      <trkpt lat="42.80222073" lon="13.49298262">
        <ele>350.00000</ele>
        <time>2024-02-16T12:38:53Z</time>
      </trkpt>
      <trkpt lat="42.80224646" lon="13.49299913">
        <ele>350.00000</ele>
        <time>2024-02-16T12:38:54Z</time>
      </trkpt>
      <trkpt lat="42.80227630" lon="13.49301329">
        <ele>350.00000</ele>
        <time>2024-02-16T12:38:55Z</time>
      </trkpt>
      <trkpt lat="42.80230320" lon="13.49302913">
        <ele>350.00000</ele>
        <time>2024-02-16T12:38:56Z</time>
      </trkpt>
      <trkpt lat="42.80233346" lon="13.49304447">
        <ele>349.00000</ele>
        <time>2024-02-16T12:38:57Z</time>
      </trkpt>
      <trkpt lat="42.80237730" lon="13.49305948">
        <ele>349.00000</ele>
        <time>2024-02-16T12:38:58Z</time>
      </trkpt>
      <trkpt lat="42.80240236" lon="13.49306979">
        <ele>348.00000</ele>
        <time>2024-02-16T12:38:59Z</time>
      </trkpt>
      <trkpt lat="42.80243530" lon="13.49308270">
        <ele>347.00000</ele>
        <time>2024-02-16T12:39:00Z</time>
      </trkpt>
      <trkpt lat="42.80246322" lon="13.49309560">
        <ele>347.00000</ele>
        <time>2024-02-16T12:39:01Z</time>
      </trkpt>
      <trkpt lat="42.80249356" lon="13.49310466">
        <ele>346.00000</ele>
        <time>2024-02-16T12:39:02Z</time>
      </trkpt>
      <trkpt lat="42.80252222" lon="13.49312645">
        <ele>346.00000</ele>
        <time>2024-02-16T12:39:03Z</time>
      </trkpt>
      <trkpt lat="42.80254662" lon="13.49314766">
        <ele>346.00000</ele>
        <time>2024-02-16T12:39:04Z</time>
      </trkpt>
      <trkpt lat="42.80256648" lon="13.49317054">
        <ele>346.00000</ele>
        <time>2024-02-16T12:39:05Z</time>
      </trkpt>
      <trkpt lat="42.80258735" lon="13.49318889">
        <ele>346.00000</ele>
        <time>2024-02-16T12:39:06Z</time>
      </trkpt>
      <trkpt lat="42.80261300" lon="13.49321580">
        <ele>347.00000</ele>
        <time>2024-02-16T12:39:07Z</time>
      </trkpt>
      <trkpt lat="42.80263278" lon="13.49324002">
        <ele>347.00000</ele>
        <time>2024-02-16T12:39:08Z</time>
      </trkpt>
      <trkpt lat="42.80265399" lon="13.49326601">
        <ele>347.00000</ele>
        <time>2024-02-16T12:39:09Z</time>
      </trkpt>
      <trkpt lat="42.80267570" lon="13.49329182">
        <ele>348.00000</ele>
        <time>2024-02-16T12:39:10Z</time>
      </trkpt>
      <trkpt lat="42.80269598" lon="13.49331689">
        <ele>348.00000</ele>
        <time>2024-02-16T12:39:11Z</time>
      </trkpt>
      <trkpt lat="42.80271518" lon="13.49334186">
        <ele>349.00000</ele>
        <time>2024-02-16T12:39:12Z</time>
      </trkpt>
      <trkpt lat="42.80273672" lon="13.49336718">
        <ele>349.00000</ele>
        <time>2024-02-16T12:39:13Z</time>
      </trkpt>
      <trkpt lat="42.80275826" lon="13.49338562">
        <ele>349.00000</ele>
        <time>2024-02-16T12:39:14Z</time>
      </trkpt>
      <trkpt lat="42.80278198" lon="13.49340339">
        <ele>349.00000</ele>
        <time>2024-02-16T12:39:15Z</time>
      </trkpt>
      <trkpt lat="42.80280997" lon="13.49342007">
        <ele>349.00000</ele>
        <time>2024-02-16T12:39:16Z</time>
      </trkpt>
      <trkpt lat="42.80283655" lon="13.49343080">
        <ele>349.00000</ele>
        <time>2024-02-16T12:39:17Z</time>
      </trkpt>
      <trkpt lat="42.80286102" lon="13.49343717">
        <ele>349.00000</ele>
        <time>2024-02-16T12:39:18Z</time>
      </trkpt>
      <trkpt lat="42.80288130" lon="13.49344639">
        <ele>349.00000</ele>
        <time>2024-02-16T12:39:19Z</time>
      </trkpt>
      <trkpt lat="42.80290528" lon="13.49345762">
        <ele>349.00000</ele>
        <time>2024-02-16T12:39:20Z</time>
      </trkpt>
      <trkpt lat="42.80292766" lon="13.49347891">
        <ele>349.00000</ele>
        <time>2024-02-16T12:39:21Z</time>
      </trkpt>
      <trkpt lat="42.80294660" lon="13.49350615">
        <ele>350.00000</ele>
        <time>2024-02-16T12:39:22Z</time>
      </trkpt>
      <trkpt lat="42.80295582" lon="13.49353691">
        <ele>351.00000</ele>
        <time>2024-02-16T12:39:23Z</time>
      </trkpt>
      <trkpt lat="42.80294978" lon="13.49356482">
        <ele>351.00000</ele>
        <time>2024-02-16T12:39:24Z</time>
      </trkpt>
      <trkpt lat="42.80292808" lon="13.49358301">
        <ele>352.00000</ele>
        <time>2024-02-16T12:39:25Z</time>
      </trkpt>
      <trkpt lat="42.80289731" lon="13.49358787">
        <ele>352.00000</ele>
        <time>2024-02-16T12:39:26Z</time>
      </trkpt>
      <trkpt lat="42.80286965" lon="13.49358620">
        <ele>353.00000</ele>
        <time>2024-02-16T12:39:27Z</time>
      </trkpt>
      <trkpt lat="42.80283864" lon="13.49357748">
        <ele>352.00000</ele>
        <time>2024-02-16T12:39:28Z</time>
      </trkpt>
      <trkpt lat="42.80281551" lon="13.49356893">
        <ele>352.00000</ele>
        <time>2024-02-16T12:39:29Z</time>
      </trkpt>
      <trkpt lat="42.80278676" lon="13.49356222">
        <ele>352.00000</ele>
        <time>2024-02-16T12:39:30Z</time>
      </trkpt>
      <trkpt lat="42.80276304" lon="13.49355711">
        <ele>352.00000</ele>
        <time>2024-02-16T12:39:31Z</time>
      </trkpt>
      <trkpt lat="42.80274057" lon="13.49354923">
        <ele>352.00000</ele>
        <time>2024-02-16T12:39:32Z</time>
      </trkpt>
      <trkpt lat="42.80271861" lon="13.49354613">
        <ele>353.00000</ele>
        <time>2024-02-16T12:39:33Z</time>
      </trkpt>
      <trkpt lat="42.80269531" lon="13.49354378">
        <ele>353.00000</ele>
        <time>2024-02-16T12:39:34Z</time>
      </trkpt>
      <trkpt lat="42.80267209" lon="13.49354663">
        <ele>353.00000</ele>
        <time>2024-02-16T12:39:35Z</time>
      </trkpt>
      <trkpt lat="42.80264938" lon="13.49355024">
        <ele>353.00000</ele>
        <time>2024-02-16T12:39:36Z</time>
      </trkpt>
      <trkpt lat="42.80262566" lon="13.49355032">
        <ele>354.00000</ele>
        <time>2024-02-16T12:39:37Z</time>
      </trkpt>
      <trkpt lat="42.80259942" lon="13.49354906">
        <ele>354.00000</ele>
        <time>2024-02-16T12:39:38Z</time>
      </trkpt>
      <trkpt lat="42.80257335" lon="13.49354512">
        <ele>354.00000</ele>
        <time>2024-02-16T12:39:39Z</time>
      </trkpt>
      <trkpt lat="42.80254662" lon="13.49354202">
        <ele>354.00000</ele>
        <time>2024-02-16T12:39:40Z</time>
      </trkpt>
      <trkpt lat="42.80252038" lon="13.49353959">
        <ele>354.00000</ele>
        <time>2024-02-16T12:39:41Z</time>
      </trkpt>
      <trkpt lat="42.80249574" lon="13.49353482">
        <ele>355.00000</ele>
        <time>2024-02-16T12:39:42Z</time>
      </trkpt>
      <trkpt lat="42.80247143" lon="13.49352995">
        <ele>355.00000</ele>
        <time>2024-02-16T12:39:43Z</time>
      </trkpt>
      <trkpt lat="42.80243715" lon="13.49352383">
        <ele>355.00000</ele>
        <time>2024-02-16T12:39:44Z</time>
      </trkpt>
      <trkpt lat="42.80241217" lon="13.49352006">
        <ele>356.00000</ele>
        <time>2024-02-16T12:39:45Z</time>
      </trkpt>
      <trkpt lat="42.80238359" lon="13.49351738">
        <ele>356.00000</ele>
        <time>2024-02-16T12:39:46Z</time>
      </trkpt>
      <trkpt lat="42.80235777" lon="13.49351311">
        <ele>357.00000</ele>
        <time>2024-02-16T12:39:47Z</time>
      </trkpt>
      <trkpt lat="42.80232726" lon="13.49351076">
        <ele>357.00000</ele>
        <time>2024-02-16T12:39:48Z</time>
      </trkpt>
      <trkpt lat="42.80230798" lon="13.49351294">
        <ele>358.00000</ele>
        <time>2024-02-16T12:39:49Z</time>
      </trkpt>
      <trkpt lat="42.80228183" lon="13.49351512">
        <ele>358.00000</ele>
        <time>2024-02-16T12:39:50Z</time>
      </trkpt>
      <trkpt lat="42.80225752" lon="13.49351629">
        <ele>359.00000</ele>
        <time>2024-02-16T12:39:51Z</time>
      </trkpt>
      <trkpt lat="42.80223238" lon="13.49351906">
        <ele>359.00000</ele>
        <time>2024-02-16T12:39:52Z</time>
      </trkpt>
      <trkpt lat="42.80220983" lon="13.49352367">
        <ele>360.00000</ele>
        <time>2024-02-16T12:39:53Z</time>
      </trkpt>
      <trkpt lat="42.80218552" lon="13.49352886">
        <ele>360.00000</ele>
        <time>2024-02-16T12:39:54Z</time>
      </trkpt>
      <trkpt lat="42.80215954" lon="13.49353238">
        <ele>361.00000</ele>
        <time>2024-02-16T12:39:55Z</time>
      </trkpt>
      <trkpt lat="42.80213749" lon="13.49353758">
        <ele>361.00000</ele>
        <time>2024-02-16T12:39:56Z</time>
      </trkpt>
      <trkpt lat="42.80211805" lon="13.49354353">
        <ele>362.00000</ele>
        <time>2024-02-16T12:39:57Z</time>
      </trkpt>
      <trkpt lat="42.80210070" lon="13.49354982">
        <ele>363.00000</ele>
        <time>2024-02-16T12:39:58Z</time>
      </trkpt>
      <trkpt lat="42.80208561" lon="13.49355795">
        <ele>363.00000</ele>
        <time>2024-02-16T12:39:59Z</time>
      </trkpt>
      <trkpt lat="42.80207061" lon="13.49356885">
        <ele>363.00000</ele>
        <time>2024-02-16T12:40:00Z</time>
      </trkpt>
      <trkpt lat="42.80205653" lon="13.49357589">
        <ele>364.00000</ele>
        <time>2024-02-16T12:40:01Z</time>
      </trkpt>
      <trkpt lat="42.80204286" lon="13.49358125">
        <ele>364.00000</ele>
        <time>2024-02-16T12:40:02Z</time>
      </trkpt>
      <trkpt lat="42.80203021" lon="13.49358905">
        <ele>364.00000</ele>
        <time>2024-02-16T12:40:03Z</time>
      </trkpt>
      <trkpt lat="42.80201395" lon="13.49359869">
        <ele>365.00000</ele>
        <time>2024-02-16T12:40:04Z</time>
      </trkpt>
      <trkpt lat="42.80200514" lon="13.49360229">
        <ele>365.00000</ele>
        <time>2024-02-16T12:40:05Z</time>
      </trkpt>
      <trkpt lat="42.80199551" lon="13.49360648">
        <ele>365.00000</ele>
        <time>2024-02-16T12:40:06Z</time>
      </trkpt>
      <trkpt lat="42.80197690" lon="13.49361260">
        <ele>366.00000</ele>
        <time>2024-02-16T12:40:07Z</time>
      </trkpt>
      <trkpt lat="42.80195443" lon="13.49361729">
        <ele>366.00000</ele>
        <time>2024-02-16T12:40:08Z</time>
      </trkpt>
      <trkpt lat="42.80193247" lon="13.49361788">
        <ele>367.00000</ele>
        <time>2024-02-16T12:40:09Z</time>
      </trkpt>
      <trkpt lat="42.80191060" lon="13.49361126">
        <ele>368.00000</ele>
        <time>2024-02-16T12:40:10Z</time>
      </trkpt>
      <trkpt lat="42.80188713" lon="13.49359801">
        <ele>368.00000</ele>
        <time>2024-02-16T12:40:11Z</time>
      </trkpt>
      <trkpt lat="42.80187011" lon="13.49357790">
        <ele>369.00000</ele>
        <time>2024-02-16T12:40:12Z</time>
      </trkpt>
      <trkpt lat="42.80185905" lon="13.49355510">
        <ele>369.00000</ele>
        <time>2024-02-16T12:40:13Z</time>
      </trkpt>
      <trkpt lat="42.80184807" lon="13.49352811">
        <ele>370.00000</ele>
        <time>2024-02-16T12:40:14Z</time>
      </trkpt>
      <trkpt lat="42.80183793" lon="13.49349986">
        <ele>370.00000</ele>
        <time>2024-02-16T12:40:15Z</time>
      </trkpt>
      <trkpt lat="42.80182980" lon="13.49347304">
        <ele>370.00000</ele>
        <time>2024-02-16T12:40:16Z</time>
      </trkpt>
      <trkpt lat="42.80182041" lon="13.49344773">
        <ele>371.00000</ele>
        <time>2024-02-16T12:40:17Z</time>
      </trkpt>
      <trkpt lat="42.80180138" lon="13.49342317">
        <ele>371.00000</ele>
        <time>2024-02-16T12:40:18Z</time>
      </trkpt>
      <trkpt lat="42.80178428" lon="13.49340179">
        <ele>372.00000</ele>
        <time>2024-02-16T12:40:19Z</time>
      </trkpt>
      <trkpt lat="42.80176375" lon="13.49338511">
        <ele>372.00000</ele>
        <time>2024-02-16T12:40:20Z</time>
      </trkpt>
      <trkpt lat="42.80174086" lon="13.49336785">
        <ele>373.00000</ele>
        <time>2024-02-16T12:40:21Z</time>
      </trkpt>
      <trkpt lat="42.80171865" lon="13.49335402">
        <ele>373.00000</ele>
        <time>2024-02-16T12:40:22Z</time>
      </trkpt>
      <trkpt lat="42.80169149" lon="13.49334262">
        <ele>374.00000</ele>
        <time>2024-02-16T12:40:23Z</time>
      </trkpt>
      <trkpt lat="42.80166794" lon="13.49333499">
        <ele>375.00000</ele>
        <time>2024-02-16T12:40:24Z</time>
      </trkpt>
      <trkpt lat="42.80164481" lon="13.49332845">
        <ele>375.00000</ele>
        <time>2024-02-16T12:40:25Z</time>
      </trkpt>
      <trkpt lat="42.80162259" lon="13.49332242">
        <ele>375.00000</ele>
        <time>2024-02-16T12:40:26Z</time>
      </trkpt>
      <trkpt lat="42.80159954" lon="13.49331705">
        <ele>376.00000</ele>
        <time>2024-02-16T12:40:27Z</time>
      </trkpt>
      <trkpt lat="42.80157281" lon="13.49331278">
        <ele>376.00000</ele>
        <time>2024-02-16T12:40:28Z</time>
      </trkpt>
      <trkpt lat="42.80154582" lon="13.49330733">
        <ele>377.00000</ele>
        <time>2024-02-16T12:40:29Z</time>
      </trkpt>
      <trkpt lat="42.80152101" lon="13.49330347">
        <ele>377.00000</ele>
        <time>2024-02-16T12:40:30Z</time>
      </trkpt>
      <trkpt lat="42.80149720" lon="13.49330373">
        <ele>378.00000</ele>
        <time>2024-02-16T12:40:31Z</time>
      </trkpt>
      <trkpt lat="42.80147373" lon="13.49329979">
        <ele>378.00000</ele>
        <time>2024-02-16T12:40:32Z</time>
      </trkpt>
      <trkpt lat="42.80145018" lon="13.49329392">
        <ele>379.00000</ele>
        <time>2024-02-16T12:40:33Z</time>
      </trkpt>
      <trkpt lat="42.80142344" lon="13.49328579">
        <ele>379.00000</ele>
        <time>2024-02-16T12:40:34Z</time>
      </trkpt>
      <trkpt lat="42.80139930" lon="13.49327992">
        <ele>380.00000</ele>
        <time>2024-02-16T12:40:35Z</time>
      </trkpt>
      <trkpt lat="42.80137508" lon="13.49327389">
        <ele>380.00000</ele>
        <time>2024-02-16T12:40:36Z</time>
      </trkpt>
      <trkpt lat="42.80134633" lon="13.49326785">
        <ele>380.00000</ele>
        <time>2024-02-16T12:40:37Z</time>
      </trkpt>
      <trkpt lat="42.80131364" lon="13.49326215">
        <ele>381.00000</ele>
        <time>2024-02-16T12:40:38Z</time>
      </trkpt>
      <trkpt lat="42.80128715" lon="13.49325771">
        <ele>381.00000</ele>
        <time>2024-02-16T12:40:39Z</time>
      </trkpt>
      <trkpt lat="42.80126033" lon="13.49325419">
        <ele>381.00000</ele>
        <time>2024-02-16T12:40:40Z</time>
      </trkpt>
      <trkpt lat="42.80123409" lon="13.49324941">
        <ele>382.00000</ele>
        <time>2024-02-16T12:40:41Z</time>
      </trkpt>
      <trkpt lat="42.80120987" lon="13.49324463">
        <ele>382.00000</ele>
        <time>2024-02-16T12:40:42Z</time>
      </trkpt>
      <trkpt lat="42.80118422" lon="13.49324204">
        <ele>382.00000</ele>
        <time>2024-02-16T12:40:43Z</time>
      </trkpt>
      <trkpt lat="42.80115773" lon="13.49323550">
        <ele>383.00000</ele>
        <time>2024-02-16T12:40:44Z</time>
      </trkpt>
      <trkpt lat="42.80112865" lon="13.49322670">
        <ele>383.00000</ele>
        <time>2024-02-16T12:40:45Z</time>
      </trkpt>
      <trkpt lat="42.80110208" lon="13.49321572">
        <ele>383.00000</ele>
        <time>2024-02-16T12:40:46Z</time>
      </trkpt>
      <trkpt lat="42.80107400" lon="13.49320465">
        <ele>383.00000</ele>
        <time>2024-02-16T12:40:47Z</time>
      </trkpt>
      <trkpt lat="42.80104609" lon="13.49319476">
        <ele>383.00000</ele>
        <time>2024-02-16T12:40:48Z</time>
      </trkpt>
      <trkpt lat="42.80101826" lon="13.49318177">
        <ele>383.00000</ele>
        <time>2024-02-16T12:40:49Z</time>
      </trkpt>
      <trkpt lat="42.80099362" lon="13.49316995">
        <ele>383.00000</ele>
        <time>2024-02-16T12:40:50Z</time>
      </trkpt>
      <trkpt lat="42.80097006" lon="13.49315688">
        <ele>383.00000</ele>
        <time>2024-02-16T12:40:51Z</time>
      </trkpt>
      <trkpt lat="42.80094349" lon="13.49314355">
        <ele>384.00000</ele>
        <time>2024-02-16T12:40:52Z</time>
      </trkpt>
      <trkpt lat="42.80092019" lon="13.49313307">
        <ele>384.00000</ele>
        <time>2024-02-16T12:40:53Z</time>
      </trkpt>
      <trkpt lat="42.80089513" lon="13.49312511">
        <ele>384.00000</ele>
        <time>2024-02-16T12:40:54Z</time>
      </trkpt>
      <trkpt lat="42.80086973" lon="13.49311505">
        <ele>385.00000</ele>
        <time>2024-02-16T12:40:55Z</time>
      </trkpt>
      <trkpt lat="42.80084517" lon="13.49310491">
        <ele>385.00000</ele>
        <time>2024-02-16T12:40:56Z</time>
      </trkpt>
      <trkpt lat="42.80082162" lon="13.49309275">
        <ele>385.00000</ele>
        <time>2024-02-16T12:40:57Z</time>
      </trkpt>
      <trkpt lat="42.80079396" lon="13.49307716">
        <ele>385.00000</ele>
        <time>2024-02-16T12:40:58Z</time>
      </trkpt>
      <trkpt lat="42.80076613" lon="13.49305747">
        <ele>385.00000</ele>
        <time>2024-02-16T12:40:59Z</time>
      </trkpt>
      <trkpt lat="42.80074124" lon="13.49303961">
        <ele>385.00000</ele>
        <time>2024-02-16T12:41:00Z</time>
      </trkpt>
      <trkpt lat="42.80071743" lon="13.49302595">
        <ele>385.00000</ele>
        <time>2024-02-16T12:41:01Z</time>
      </trkpt>
      <trkpt lat="42.80069086" lon="13.49301111">
        <ele>385.00000</ele>
        <time>2024-02-16T12:41:02Z</time>
      </trkpt>
      <trkpt lat="42.80066488" lon="13.49299443">
        <ele>385.00000</ele>
        <time>2024-02-16T12:41:03Z</time>
      </trkpt>
      <trkpt lat="42.80063982" lon="13.49297423">
        <ele>385.00000</ele>
        <time>2024-02-16T12:41:04Z</time>
      </trkpt>
      <trkpt lat="42.80061593" lon="13.49295403">
        <ele>385.00000</ele>
        <time>2024-02-16T12:41:05Z</time>
      </trkpt>
      <trkpt lat="42.80059053" lon="13.49293073">
        <ele>385.00000</ele>
        <time>2024-02-16T12:41:06Z</time>
      </trkpt>
      <trkpt lat="42.80056723" lon="13.49290651">
        <ele>386.00000</ele>
        <time>2024-02-16T12:41:07Z</time>
      </trkpt>
      <trkpt lat="42.80054342" lon="13.49288413">
        <ele>386.00000</ele>
        <time>2024-02-16T12:41:08Z</time>
      </trkpt>
      <trkpt lat="42.80052155" lon="13.49285907">
        <ele>386.00000</ele>
        <time>2024-02-16T12:41:09Z</time>
      </trkpt>
      <trkpt lat="42.80050026" lon="13.49283283">
        <ele>386.00000</ele>
        <time>2024-02-16T12:41:10Z</time>
      </trkpt>
      <trkpt lat="42.80048366" lon="13.49280131">
        <ele>387.00000</ele>
        <time>2024-02-16T12:41:11Z</time>
      </trkpt>
      <trkpt lat="42.80046489" lon="13.49276519">
        <ele>387.00000</ele>
        <time>2024-02-16T12:41:12Z</time>
      </trkpt>
      <trkpt lat="42.80045365" lon="13.49272705">
        <ele>388.00000</ele>
        <time>2024-02-16T12:41:13Z</time>
      </trkpt>
      <trkpt lat="42.80044200" lon="13.49268824">
        <ele>389.00000</ele>
        <time>2024-02-16T12:41:14Z</time>
      </trkpt>
      <trkpt lat="42.80043438" lon="13.49265103">
        <ele>390.00000</ele>
        <time>2024-02-16T12:41:15Z</time>
      </trkpt>
      <trkpt lat="42.80043136" lon="13.49261289">
        <ele>391.00000</ele>
        <time>2024-02-16T12:41:16Z</time>
      </trkpt>
      <trkpt lat="42.80042616" lon="13.49256905">
        <ele>392.00000</ele>
        <time>2024-02-16T12:41:17Z</time>
      </trkpt>
      <trkpt lat="42.80042147" lon="13.49251977">
        <ele>393.00000</ele>
        <time>2024-02-16T12:41:18Z</time>
      </trkpt>
      <trkpt lat="42.80041459" lon="13.49247291">
        <ele>395.00000</ele>
        <time>2024-02-16T12:41:19Z</time>
      </trkpt>
      <trkpt lat="42.80040797" lon="13.49242790">
        <ele>396.00000</ele>
        <time>2024-02-16T12:41:20Z</time>
      </trkpt>
      <trkpt lat="42.80040152" lon="13.49238205">
        <ele>398.00000</ele>
        <time>2024-02-16T12:41:21Z</time>
      </trkpt>
      <trkpt lat="42.80039917" lon="13.49233017">
        <ele>400.00000</ele>
        <time>2024-02-16T12:41:22Z</time>
      </trkpt>
      <trkpt lat="42.80040026" lon="13.49227954">
        <ele>401.00000</ele>
        <time>2024-02-16T12:41:23Z</time>
      </trkpt>
      <trkpt lat="42.80040085" lon="13.49223210">
        <ele>402.00000</ele>
        <time>2024-02-16T12:41:24Z</time>
      </trkpt>
      <trkpt lat="42.80040035" lon="13.49218181">
        <ele>404.00000</ele>
        <time>2024-02-16T12:41:25Z</time>
      </trkpt>
      <trkpt lat="42.80040336" lon="13.49212775">
        <ele>405.00000</ele>
        <time>2024-02-16T12:41:26Z</time>
      </trkpt>
      <trkpt lat="42.80041267" lon="13.49207879">
        <ele>406.00000</ele>
        <time>2024-02-16T12:41:27Z</time>
      </trkpt>
      <trkpt lat="42.80043798" lon="13.49203378">
        <ele>406.00000</ele>
        <time>2024-02-16T12:41:28Z</time>
      </trkpt>
      <trkpt lat="42.80046287" lon="13.49199011">
        <ele>406.00000</ele>
        <time>2024-02-16T12:41:29Z</time>
      </trkpt>
      <trkpt lat="42.80048056" lon="13.49194561">
        <ele>406.00000</ele>
        <time>2024-02-16T12:41:30Z</time>
      </trkpt>
      <trkpt lat="42.80050101" lon="13.49190512">
        <ele>406.00000</ele>
        <time>2024-02-16T12:41:31Z</time>
      </trkpt>
      <trkpt lat="42.80052457" lon="13.49186841">
        <ele>405.00000</ele>
        <time>2024-02-16T12:41:32Z</time>
      </trkpt>
      <trkpt lat="42.80055206" lon="13.49183455">
        <ele>405.00000</ele>
        <time>2024-02-16T12:41:33Z</time>
      </trkpt>
      <trkpt lat="42.80057687" lon="13.49180295">
        <ele>404.00000</ele>
        <time>2024-02-16T12:41:34Z</time>
      </trkpt>
      <trkpt lat="42.80060176" lon="13.49177470">
        <ele>404.00000</ele>
        <time>2024-02-16T12:41:35Z</time>
      </trkpt>
      <trkpt lat="42.80063118" lon="13.49174536">
        <ele>403.00000</ele>
        <time>2024-02-16T12:41:36Z</time>
      </trkpt>
      <trkpt lat="42.80066706" lon="13.49171502">
        <ele>402.00000</ele>
        <time>2024-02-16T12:41:37Z</time>
      </trkpt>
      <trkpt lat="42.80069698" lon="13.49169155">
        <ele>402.00000</ele>
        <time>2024-02-16T12:41:38Z</time>
      </trkpt>
      <trkpt lat="42.80072950" lon="13.49166666">
        <ele>401.00000</ele>
        <time>2024-02-16T12:41:39Z</time>
      </trkpt>
      <trkpt lat="42.80076387" lon="13.49164118">
        <ele>400.00000</ele>
        <time>2024-02-16T12:41:40Z</time>
      </trkpt>
      <trkpt lat="42.80079622" lon="13.49161569">
        <ele>399.00000</ele>
        <time>2024-02-16T12:41:41Z</time>
      </trkpt>
      <trkpt lat="42.80082673" lon="13.49159323">
        <ele>399.00000</ele>
        <time>2024-02-16T12:41:42Z</time>
      </trkpt>
      <trkpt lat="42.80085808" lon="13.49157102">
        <ele>398.00000</ele>
        <time>2024-02-16T12:41:43Z</time>
      </trkpt>
      <trkpt lat="42.80088800" lon="13.49154830">
        <ele>397.00000</ele>
        <time>2024-02-16T12:41:44Z</time>
      </trkpt>
      <trkpt lat="42.80091851" lon="13.49152391">
        <ele>396.00000</ele>
        <time>2024-02-16T12:41:45Z</time>
      </trkpt>
      <trkpt lat="42.80095087" lon="13.49149852">
        <ele>395.00000</ele>
        <time>2024-02-16T12:41:46Z</time>
      </trkpt>
      <trkpt lat="42.80098129" lon="13.49147119">
        <ele>395.00000</ele>
        <time>2024-02-16T12:41:47Z</time>
      </trkpt>
      <trkpt lat="42.80100979" lon="13.49144361">
        <ele>394.00000</ele>
        <time>2024-02-16T12:41:48Z</time>
      </trkpt>
      <trkpt lat="42.80103310" lon="13.49141461">
        <ele>394.00000</ele>
        <time>2024-02-16T12:41:49Z</time>
      </trkpt>
      <trkpt lat="42.80105690" lon="13.49138578">
        <ele>394.00000</ele>
        <time>2024-02-16T12:41:50Z</time>
      </trkpt>
      <trkpt lat="42.80108406" lon="13.49135921">
        <ele>393.00000</ele>
        <time>2024-02-16T12:41:51Z</time>
      </trkpt>
      <trkpt lat="42.80110702" lon="13.49132937">
        <ele>393.00000</ele>
        <time>2024-02-16T12:41:52Z</time>
      </trkpt>
      <trkpt lat="42.80112756" lon="13.49130020">
        <ele>392.00000</ele>
        <time>2024-02-16T12:41:53Z</time>
      </trkpt>
      <trkpt lat="42.80113494" lon="13.49127002">
        <ele>392.00000</ele>
        <time>2024-02-16T12:41:54Z</time>
      </trkpt>
      <trkpt lat="42.80113167" lon="13.49123943">
        <ele>392.00000</ele>
        <time>2024-02-16T12:41:55Z</time>
      </trkpt>
      <trkpt lat="42.80112572" lon="13.49120699">
        <ele>393.00000</ele>
        <time>2024-02-16T12:41:56Z</time>
      </trkpt>
      <trkpt lat="42.80111440" lon="13.49117598">
        <ele>393.00000</ele>
        <time>2024-02-16T12:41:57Z</time>
      </trkpt>
      <trkpt lat="42.80109931" lon="13.49115293">
        <ele>394.00000</ele>
        <time>2024-02-16T12:41:58Z</time>
      </trkpt>
      <trkpt lat="42.80108406" lon="13.49113466">
        <ele>394.00000</ele>
        <time>2024-02-16T12:41:59Z</time>
      </trkpt>
      <trkpt lat="42.80106604" lon="13.49112351">
        <ele>394.00000</ele>
        <time>2024-02-16T12:42:00Z</time>
      </trkpt>
      <trkpt lat="42.80104223" lon="13.49111546">
        <ele>395.00000</ele>
        <time>2024-02-16T12:42:01Z</time>
      </trkpt>
      <trkpt lat="42.80101683" lon="13.49110742">
        <ele>395.00000</ele>
        <time>2024-02-16T12:42:02Z</time>
      </trkpt>
      <trkpt lat="42.80099085" lon="13.49110088">
        <ele>395.00000</ele>
        <time>2024-02-16T12:42:03Z</time>
      </trkpt>
      <trkpt lat="42.80096051" lon="13.49109585">
        <ele>396.00000</ele>
        <time>2024-02-16T12:42:04Z</time>
      </trkpt>
      <trkpt lat="42.80093394" lon="13.49109032">
        <ele>396.00000</ele>
        <time>2024-02-16T12:42:05Z</time>
      </trkpt>
      <trkpt lat="42.80091399" lon="13.49108051">
        <ele>396.00000</ele>
        <time>2024-02-16T12:42:06Z</time>
      </trkpt>
      <trkpt lat="42.80089538" lon="13.49107104">
        <ele>396.00000</ele>
        <time>2024-02-16T12:42:07Z</time>
      </trkpt>
      <trkpt lat="42.80087459" lon="13.49106417">
        <ele>396.00000</ele>
        <time>2024-02-16T12:42:08Z</time>
      </trkpt>
      <trkpt lat="42.80085733" lon="13.49105729">
        <ele>396.00000</ele>
        <time>2024-02-16T12:42:09Z</time>
      </trkpt>
      <trkpt lat="42.80083687" lon="13.49104732">
        <ele>396.00000</ele>
        <time>2024-02-16T12:42:10Z</time>
      </trkpt>
      <trkpt lat="42.80080310" lon="13.49103424">
        <ele>397.00000</ele>
        <time>2024-02-16T12:42:11Z</time>
      </trkpt>
      <trkpt lat="42.80078038" lon="13.49102133">
        <ele>397.00000</ele>
        <time>2024-02-16T12:42:12Z</time>
      </trkpt>
      <trkpt lat="42.80075884" lon="13.49101454">
        <ele>397.00000</ele>
        <time>2024-02-16T12:42:13Z</time>
      </trkpt>
      <trkpt lat="42.80073294" lon="13.49101144">
        <ele>398.00000</ele>
        <time>2024-02-16T12:42:14Z</time>
      </trkpt>
      <trkpt lat="42.80071006" lon="13.49101228">
        <ele>398.00000</ele>
        <time>2024-02-16T12:42:15Z</time>
      </trkpt>
      <trkpt lat="42.80069145" lon="13.49102645">
        <ele>399.00000</ele>
        <time>2024-02-16T12:42:16Z</time>
      </trkpt>
      <trkpt lat="42.80067075" lon="13.49104916">
        <ele>400.00000</ele>
        <time>2024-02-16T12:42:17Z</time>
      </trkpt>
      <trkpt lat="42.80067418" lon="13.49107464">
        <ele>401.00000</ele>
        <time>2024-02-16T12:42:18Z</time>
      </trkpt>
      <trkpt lat="42.80068516" lon="13.49109954">
        <ele>402.00000</ele>
        <time>2024-02-16T12:42:19Z</time>
      </trkpt>
      <trkpt lat="42.80069757" lon="13.49112519">
        <ele>402.00000</ele>
        <time>2024-02-16T12:42:20Z</time>
      </trkpt>
      <trkpt lat="42.80070444" lon="13.49115503">
        <ele>402.00000</ele>
        <time>2024-02-16T12:42:21Z</time>
      </trkpt>
      <trkpt lat="42.80071039" lon="13.49118713">
        <ele>402.00000</ele>
        <time>2024-02-16T12:42:22Z</time>
      </trkpt>
      <trkpt lat="42.80071542" lon="13.49122283">
        <ele>403.00000</ele>
        <time>2024-02-16T12:42:23Z</time>
      </trkpt>
      <trkpt lat="42.80071626" lon="13.49125502">
        <ele>403.00000</ele>
        <time>2024-02-16T12:42:24Z</time>
      </trkpt>
      <trkpt lat="42.80070997" lon="13.49128386">
        <ele>403.00000</ele>
        <time>2024-02-16T12:42:25Z</time>
      </trkpt>
      <trkpt lat="42.80069815" lon="13.49131009">
        <ele>404.00000</ele>
        <time>2024-02-16T12:42:26Z</time>
      </trkpt>
      <trkpt lat="42.80068483" lon="13.49133524">
        <ele>405.00000</ele>
        <time>2024-02-16T12:42:27Z</time>
      </trkpt>
      <trkpt lat="42.80066588" lon="13.49135418">
        <ele>405.00000</ele>
        <time>2024-02-16T12:42:28Z</time>
      </trkpt>
      <trkpt lat="42.80064342" lon="13.49136994">
        <ele>406.00000</ele>
        <time>2024-02-16T12:42:29Z</time>
      </trkpt>
      <trkpt lat="42.80062003" lon="13.49138050">
        <ele>407.00000</ele>
        <time>2024-02-16T12:42:30Z</time>
      </trkpt>
      <trkpt lat="42.80059556" lon="13.49139005">
        <ele>408.00000</ele>
        <time>2024-02-16T12:42:31Z</time>
      </trkpt>
      <trkpt lat="42.80056974" lon="13.49139961">
        <ele>409.00000</ele>
        <time>2024-02-16T12:42:32Z</time>
      </trkpt>
      <trkpt lat="42.80054778" lon="13.49141000">
        <ele>410.00000</ele>
        <time>2024-02-16T12:42:33Z</time>
      </trkpt>
      <trkpt lat="42.80052641" lon="13.49141998">
        <ele>410.00000</ele>
        <time>2024-02-16T12:42:34Z</time>
      </trkpt>
      <trkpt lat="42.80050420" lon="13.49142786">
        <ele>411.00000</ele>
        <time>2024-02-16T12:42:35Z</time>
      </trkpt>
      <trkpt lat="42.80048316" lon="13.49143775">
        <ele>411.00000</ele>
        <time>2024-02-16T12:42:36Z</time>
      </trkpt>
      <trkpt lat="42.80046246" lon="13.49144621">
        <ele>412.00000</ele>
        <time>2024-02-16T12:42:37Z</time>
      </trkpt>
      <trkpt lat="42.80044041" lon="13.49145459">
        <ele>413.00000</ele>
        <time>2024-02-16T12:42:38Z</time>
      </trkpt>
      <trkpt lat="42.80041954" lon="13.49145971">
        <ele>413.00000</ele>
        <time>2024-02-16T12:42:39Z</time>
      </trkpt>
      <trkpt lat="42.80039255" lon="13.49146482">
        <ele>414.00000</ele>
        <time>2024-02-16T12:42:40Z</time>
      </trkpt>
      <trkpt lat="42.80037017" lon="13.49147094">
        <ele>415.00000</ele>
        <time>2024-02-16T12:42:41Z</time>
      </trkpt>
      <trkpt lat="42.80035131" lon="13.49147697">
        <ele>415.00000</ele>
        <time>2024-02-16T12:42:42Z</time>
      </trkpt>
      <trkpt lat="42.80033220" lon="13.49148209">
        <ele>416.00000</ele>
        <time>2024-02-16T12:42:43Z</time>
      </trkpt>
      <trkpt lat="42.80031217" lon="13.49149064">
        <ele>416.00000</ele>
        <time>2024-02-16T12:42:44Z</time>
      </trkpt>
      <trkpt lat="42.80029507" lon="13.49150036">
        <ele>417.00000</ele>
        <time>2024-02-16T12:42:45Z</time>
      </trkpt>
      <trkpt lat="42.80027747" lon="13.49151318">
        <ele>417.00000</ele>
        <time>2024-02-16T12:42:46Z</time>
      </trkpt>
      <trkpt lat="42.80025819" lon="13.49152324">
        <ele>418.00000</ele>
        <time>2024-02-16T12:42:47Z</time>
      </trkpt>
      <trkpt lat="42.80023690" lon="13.49153414">
        <ele>420.00000</ele>
        <time>2024-02-16T12:42:48Z</time>
      </trkpt>
      <trkpt lat="42.80021754" lon="13.49154931">
        <ele>421.00000</ele>
        <time>2024-02-16T12:42:49Z</time>
      </trkpt>
      <trkpt lat="42.80019692" lon="13.49156599">
        <ele>422.00000</ele>
        <time>2024-02-16T12:42:50Z</time>
      </trkpt>
      <trkpt lat="42.80017672" lon="13.49158736">
        <ele>423.00000</ele>
        <time>2024-02-16T12:42:51Z</time>
      </trkpt>
      <trkpt lat="42.80015660" lon="13.49160840">
        <ele>425.00000</ele>
        <time>2024-02-16T12:42:52Z</time>
      </trkpt>
      <trkpt lat="42.80013564" lon="13.49163254">
        <ele>426.00000</ele>
        <time>2024-02-16T12:42:53Z</time>
      </trkpt>
      <trkpt lat="42.80011377" lon="13.49165568">
        <ele>428.00000</ele>
        <time>2024-02-16T12:42:54Z</time>
      </trkpt>
      <trkpt lat="42.80008845" lon="13.49168149">
        <ele>430.00000</ele>
        <time>2024-02-16T12:42:55Z</time>
      </trkpt>
      <trkpt lat="42.80006926" lon="13.49170873">
        <ele>431.00000</ele>
        <time>2024-02-16T12:42:56Z</time>
      </trkpt>
      <trkpt lat="42.80004864" lon="13.49174218">
        <ele>432.00000</ele>
        <time>2024-02-16T12:42:57Z</time>
      </trkpt>
      <trkpt lat="42.80003297" lon="13.49177596">
        <ele>433.00000</ele>
        <time>2024-02-16T12:42:58Z</time>
      </trkpt>
      <trkpt lat="42.80001838" lon="13.49181057">
        <ele>434.00000</ele>
        <time>2024-02-16T12:42:59Z</time>
      </trkpt>
      <trkpt lat="42.79999894" lon="13.49184712">
        <ele>435.00000</ele>
        <time>2024-02-16T12:43:00Z</time>
      </trkpt>
      <trkpt lat="42.79998452" lon="13.49187570">
        <ele>436.00000</ele>
        <time>2024-02-16T12:43:01Z</time>
      </trkpt>
      <trkpt lat="42.79997438" lon="13.49191367">
        <ele>436.00000</ele>
        <time>2024-02-16T12:43:02Z</time>
      </trkpt>
      <trkpt lat="42.79996382" lon="13.49194284">
        <ele>436.00000</ele>
        <time>2024-02-16T12:43:03Z</time>
      </trkpt>
      <trkpt lat="42.79995158" lon="13.49197444">
        <ele>435.00000</ele>
        <time>2024-02-16T12:43:04Z</time>
      </trkpt>
      <trkpt lat="42.79993867" lon="13.49200017">
        <ele>435.00000</ele>
        <time>2024-02-16T12:43:05Z</time>
      </trkpt>
      <trkpt lat="42.79992132" lon="13.49201727">
        <ele>435.00000</ele>
        <time>2024-02-16T12:43:06Z</time>
      </trkpt>
      <trkpt lat="42.79989668" lon="13.49203026">
        <ele>435.00000</ele>
        <time>2024-02-16T12:43:07Z</time>
      </trkpt>
      <trkpt lat="42.79986910" lon="13.49203856">
        <ele>436.00000</ele>
        <time>2024-02-16T12:43:08Z</time>
      </trkpt>
      <trkpt lat="42.79984831" lon="13.49203110">
        <ele>437.00000</ele>
        <time>2024-02-16T12:43:09Z</time>
      </trkpt>
      <trkpt lat="42.79985762" lon="13.49199908">
        <ele>437.00000</ele>
        <time>2024-02-16T12:43:10Z</time>
      </trkpt>
      <trkpt lat="42.79987991" lon="13.49196581">
        <ele>438.00000</ele>
        <time>2024-02-16T12:43:11Z</time>
      </trkpt>
      <trkpt lat="42.79989290" lon="13.49192960">
        <ele>439.00000</ele>
        <time>2024-02-16T12:43:12Z</time>
      </trkpt>
      <trkpt lat="42.79990439" lon="13.49189892">
        <ele>439.00000</ele>
        <time>2024-02-16T12:43:13Z</time>
      </trkpt>
      <trkpt lat="42.79991637" lon="13.49186682">
        <ele>438.00000</ele>
        <time>2024-02-16T12:43:14Z</time>
      </trkpt>
      <trkpt lat="42.79992618" lon="13.49183555">
        <ele>438.00000</ele>
        <time>2024-02-16T12:43:15Z</time>
      </trkpt>
      <trkpt lat="42.79993280" lon="13.49180764">
        <ele>438.00000</ele>
        <time>2024-02-16T12:43:16Z</time>
      </trkpt>
      <trkpt lat="42.79993741" lon="13.49178216">
        <ele>438.00000</ele>
        <time>2024-02-16T12:43:17Z</time>
      </trkpt>
      <trkpt lat="42.79993792" lon="13.49175944">
        <ele>439.00000</ele>
        <time>2024-02-16T12:43:18Z</time>
      </trkpt>
      <trkpt lat="42.79993264" lon="13.49173882">
        <ele>439.00000</ele>
        <time>2024-02-16T12:43:19Z</time>
      </trkpt>
      <trkpt lat="42.79992425" lon="13.49171913">
        <ele>440.00000</ele>
        <time>2024-02-16T12:43:20Z</time>
      </trkpt>
      <trkpt lat="42.79991168" lon="13.49169884">
        <ele>441.00000</ele>
        <time>2024-02-16T12:43:21Z</time>
      </trkpt>
      <trkpt lat="42.79989508" lon="13.49168929">
        <ele>441.00000</ele>
        <time>2024-02-16T12:43:22Z</time>
      </trkpt>
      <trkpt lat="42.79988125" lon="13.49169549">
        <ele>442.00000</ele>
        <time>2024-02-16T12:43:23Z</time>
      </trkpt>
      <trkpt lat="42.79986784" lon="13.49171728">
        <ele>442.00000</ele>
        <time>2024-02-16T12:43:24Z</time>
      </trkpt>
      <trkpt lat="42.79985535" lon="13.49174746">
        <ele>443.00000</ele>
        <time>2024-02-16T12:43:25Z</time>
      </trkpt>
      <trkpt lat="42.79984354" lon="13.49177772">
        <ele>443.00000</ele>
        <time>2024-02-16T12:43:26Z</time>
      </trkpt>
      <trkpt lat="42.79981336" lon="13.49187822">
        <ele>442.00000</ele>
        <time>2024-02-16T12:43:29Z</time>
      </trkpt>
      <trkpt lat="42.79976692" lon="13.49195684">
        <ele>442.00000</ele>
        <time>2024-02-16T12:43:32Z</time>
      </trkpt>
      <trkpt lat="42.79969459" lon="13.49203311">
        <ele>440.00000</ele>
        <time>2024-02-16T12:43:36Z</time>
      </trkpt>
      <trkpt lat="42.79962091" lon="13.49205742">
        <ele>440.00000</ele>
        <time>2024-02-16T12:43:39Z</time>
      </trkpt>
      <trkpt lat="42.79959619" lon="13.49205080">
        <ele>440.00000</ele>
        <time>2024-02-16T12:43:40Z</time>
      </trkpt>
      <trkpt lat="42.79951857" lon="13.49202482">
        <ele>442.00000</ele>
        <time>2024-02-16T12:43:43Z</time>
      </trkpt>
      <trkpt lat="42.79950021" lon="13.49201006">
        <ele>443.00000</ele>
        <time>2024-02-16T12:43:44Z</time>
      </trkpt>
      <trkpt lat="42.79945956" lon="13.49198793">
        <ele>444.00000</ele>
        <time>2024-02-16T12:43:46Z</time>
      </trkpt>
      <trkpt lat="42.79938655" lon="13.49194762">
        <ele>446.00000</ele>
        <time>2024-02-16T12:43:49Z</time>
      </trkpt>
      <trkpt lat="42.79936283" lon="13.49193580">
        <ele>447.00000</ele>
        <time>2024-02-16T12:43:50Z</time>
      </trkpt>
      <trkpt lat="42.79931698" lon="13.49191543">
        <ele>447.00000</ele>
        <time>2024-02-16T12:43:52Z</time>
      </trkpt>
      <trkpt lat="42.79926250" lon="13.49189909">
        <ele>448.00000</ele>
        <time>2024-02-16T12:43:55Z</time>
      </trkpt>
      <trkpt lat="42.79923602" lon="13.49189347">
        <ele>448.00000</ele>
        <time>2024-02-16T12:43:56Z</time>
      </trkpt>
      <trkpt lat="42.79918380" lon="13.49187394">
        <ele>449.00000</ele>
        <time>2024-02-16T12:43:58Z</time>
      </trkpt>
      <trkpt lat="42.79915924" lon="13.49185885">
        <ele>449.00000</ele>
        <time>2024-02-16T12:43:59Z</time>
      </trkpt>
      <trkpt lat="42.79912026" lon="13.49182826">
        <ele>451.00000</ele>
        <time>2024-02-16T12:44:01Z</time>
      </trkpt>
      <trkpt lat="42.79909461" lon="13.49181837">
        <ele>451.00000</ele>
        <time>2024-02-16T12:44:02Z</time>
      </trkpt>
      <trkpt lat="42.79904482" lon="13.49177939">
        <ele>453.00000</ele>
        <time>2024-02-16T12:44:04Z</time>
      </trkpt>
      <trkpt lat="42.79903301" lon="13.49174343">
        <ele>454.00000</ele>
        <time>2024-02-16T12:44:05Z</time>
      </trkpt>
      <trkpt lat="42.79904290" lon="13.49170823">
        <ele>456.00000</ele>
        <time>2024-02-16T12:44:06Z</time>
      </trkpt>
      <trkpt lat="42.79909243" lon="13.49169583">
        <ele>457.00000</ele>
        <time>2024-02-16T12:44:08Z</time>
      </trkpt>
      <trkpt lat="42.79912269" lon="13.49170438">
        <ele>457.00000</ele>
        <time>2024-02-16T12:44:09Z</time>
      </trkpt>
      <trkpt lat="42.79915270" lon="13.49171862">
        <ele>456.00000</ele>
        <time>2024-02-16T12:44:10Z</time>
      </trkpt>
      <trkpt lat="42.79918539" lon="13.49173631">
        <ele>455.00000</ele>
        <time>2024-02-16T12:44:11Z</time>
      </trkpt>
      <trkpt lat="42.79921565" lon="13.49175291">
        <ele>454.00000</ele>
        <time>2024-02-16T12:44:12Z</time>
      </trkpt>
      <trkpt lat="42.79924632" lon="13.49176850">
        <ele>454.00000</ele>
        <time>2024-02-16T12:44:13Z</time>
      </trkpt>
      <trkpt lat="42.79927591" lon="13.49178199">
        <ele>453.00000</ele>
        <time>2024-02-16T12:44:14Z</time>
      </trkpt>
      <trkpt lat="42.79930441" lon="13.49179247">
        <ele>453.00000</ele>
        <time>2024-02-16T12:44:15Z</time>
      </trkpt>
      <trkpt lat="42.79933366" lon="13.49179850">
        <ele>452.00000</ele>
        <time>2024-02-16T12:44:16Z</time>
      </trkpt>
      <trkpt lat="42.79936317" lon="13.49179607">
        <ele>452.00000</ele>
        <time>2024-02-16T12:44:17Z</time>
      </trkpt>
      <trkpt lat="42.79939351" lon="13.49179582">
        <ele>452.00000</ele>
        <time>2024-02-16T12:44:18Z</time>
      </trkpt>
      <trkpt lat="42.79942343" lon="13.49180052">
        <ele>452.00000</ele>
        <time>2024-02-16T12:44:19Z</time>
      </trkpt>
      <trkpt lat="42.79945453" lon="13.49180311">
        <ele>452.00000</ele>
        <time>2024-02-16T12:44:20Z</time>
      </trkpt>
      <trkpt lat="42.79948647" lon="13.49179985">
        <ele>451.00000</ele>
        <time>2024-02-16T12:44:21Z</time>
      </trkpt>
      <trkpt lat="42.79951103" lon="13.49178878">
        <ele>452.00000</ele>
        <time>2024-02-16T12:44:22Z</time>
      </trkpt>
      <trkpt lat="42.79953349" lon="13.49176917">
        <ele>452.00000</ele>
        <time>2024-02-16T12:44:23Z</time>
      </trkpt>
      <trkpt lat="42.79955168" lon="13.49173841">
        <ele>452.00000</ele>
        <time>2024-02-16T12:44:24Z</time>
      </trkpt>
      <trkpt lat="42.79956609" lon="13.49170329">
        <ele>453.00000</ele>
        <time>2024-02-16T12:44:25Z</time>
      </trkpt>
      <trkpt lat="42.79957531" lon="13.49166867">
        <ele>454.00000</ele>
        <time>2024-02-16T12:44:26Z</time>
      </trkpt>
      <trkpt lat="42.79957288" lon="13.49163866">
        <ele>454.00000</ele>
        <time>2024-02-16T12:44:27Z</time>
      </trkpt>
      <trkpt lat="42.79956492" lon="13.49161067">
        <ele>453.00000</ele>
        <time>2024-02-16T12:44:28Z</time>
      </trkpt>
      <trkpt lat="42.79955159" lon="13.49158393">
        <ele>453.00000</ele>
        <time>2024-02-16T12:44:29Z</time>
      </trkpt>
      <trkpt lat="42.79953408" lon="13.49156356">
        <ele>453.00000</ele>
        <time>2024-02-16T12:44:30Z</time>
      </trkpt>
      <trkpt lat="42.79951614" lon="13.49155082">
        <ele>454.00000</ele>
        <time>2024-02-16T12:44:31Z</time>
      </trkpt>
      <trkpt lat="42.79949200" lon="13.49154612">
        <ele>454.00000</ele>
        <time>2024-02-16T12:44:32Z</time>
      </trkpt>
      <trkpt lat="42.79947339" lon="13.49154805">
        <ele>455.00000</ele>
        <time>2024-02-16T12:44:33Z</time>
      </trkpt>
      <trkpt lat="42.79945487" lon="13.49154780">
        <ele>455.00000</ele>
        <time>2024-02-16T12:44:34Z</time>
      </trkpt>
      <trkpt lat="42.79943224" lon="13.49154193">
        <ele>456.00000</ele>
        <time>2024-02-16T12:44:35Z</time>
      </trkpt>
      <trkpt lat="42.79940139" lon="13.49153422">
        <ele>456.00000</ele>
        <time>2024-02-16T12:44:36Z</time>
      </trkpt>
      <trkpt lat="42.79937918" lon="13.49152953">
        <ele>456.00000</ele>
        <time>2024-02-16T12:44:37Z</time>
      </trkpt>
      <trkpt lat="42.79935378" lon="13.49152442">
        <ele>457.00000</ele>
        <time>2024-02-16T12:44:38Z</time>
      </trkpt>
      <trkpt lat="42.79932905" lon="13.49151687">
        <ele>457.00000</ele>
        <time>2024-02-16T12:44:39Z</time>
      </trkpt>
      <trkpt lat="42.79930919" lon="13.49151042">
        <ele>458.00000</ele>
        <time>2024-02-16T12:44:40Z</time>
      </trkpt>
      <trkpt lat="42.79929259" lon="13.49150413">
        <ele>458.00000</ele>
        <time>2024-02-16T12:44:41Z</time>
      </trkpt>
      <trkpt lat="42.79927759" lon="13.49149961">
        <ele>458.00000</ele>
        <time>2024-02-16T12:44:42Z</time>
      </trkpt>
      <trkpt lat="42.79926217" lon="13.49149198">
        <ele>459.00000</ele>
        <time>2024-02-16T12:44:43Z</time>
      </trkpt>
      <trkpt lat="42.79924892" lon="13.49147731">
        <ele>459.00000</ele>
        <time>2024-02-16T12:44:44Z</time>
      </trkpt>
      <trkpt lat="42.79923476" lon="13.49145828">
        <ele>460.00000</ele>
        <time>2024-02-16T12:44:45Z</time>
      </trkpt>
      <trkpt lat="42.79921372" lon="13.49143699">
        <ele>460.00000</ele>
        <time>2024-02-16T12:44:46Z</time>
      </trkpt>
      <trkpt lat="42.79919620" lon="13.49141201">
        <ele>461.00000</ele>
        <time>2024-02-16T12:44:47Z</time>
      </trkpt>
      <trkpt lat="42.79918011" lon="13.49138896">
        <ele>462.00000</ele>
        <time>2024-02-16T12:44:48Z</time>
      </trkpt>
      <trkpt lat="42.79916829" lon="13.49136449">
        <ele>462.00000</ele>
        <time>2024-02-16T12:44:49Z</time>
      </trkpt>
      <trkpt lat="42.79915572" lon="13.49133943">
        <ele>461.00000</ele>
        <time>2024-02-16T12:44:50Z</time>
      </trkpt>
      <trkpt lat="42.79914189" lon="13.49131663">
        <ele>461.00000</ele>
        <time>2024-02-16T12:44:51Z</time>
      </trkpt>
      <trkpt lat="42.79913183" lon="13.49130070">
        <ele>461.00000</ele>
        <time>2024-02-16T12:44:52Z</time>
      </trkpt>
      <trkpt lat="42.79911188" lon="13.49127824">
        <ele>461.00000</ele>
        <time>2024-02-16T12:44:53Z</time>
      </trkpt>
      <trkpt lat="42.79909989" lon="13.49126030">
        <ele>461.00000</ele>
        <time>2024-02-16T12:44:54Z</time>
      </trkpt>
      <trkpt lat="42.79909159" lon="13.49123398">
        <ele>461.00000</ele>
        <time>2024-02-16T12:44:55Z</time>
      </trkpt>
      <trkpt lat="42.79906955" lon="13.49121219">
        <ele>461.00000</ele>
        <time>2024-02-16T12:44:56Z</time>
      </trkpt>
      <trkpt lat="42.79903443" lon="13.49119593">
        <ele>462.00000</ele>
        <time>2024-02-16T12:44:57Z</time>
      </trkpt>
      <trkpt lat="42.79900602" lon="13.49118185">
        <ele>463.00000</ele>
        <time>2024-02-16T12:44:58Z</time>
      </trkpt>
      <trkpt lat="42.79898213" lon="13.49116919">
        <ele>463.00000</ele>
        <time>2024-02-16T12:44:59Z</time>
      </trkpt>
      <trkpt lat="42.79895732" lon="13.49116005">
        <ele>464.00000</ele>
        <time>2024-02-16T12:45:00Z</time>
      </trkpt>
      <trkpt lat="42.79891759" lon="13.49114287">
        <ele>466.00000</ele>
        <time>2024-02-16T12:45:01Z</time>
      </trkpt>
      <trkpt lat="42.79888465" lon="13.49113172">
        <ele>467.00000</ele>
        <time>2024-02-16T12:45:02Z</time>
      </trkpt>
      <trkpt lat="42.79886696" lon="13.49112611">
        <ele>467.00000</ele>
        <time>2024-02-16T12:45:03Z</time>
      </trkpt>
      <trkpt lat="42.79885791" lon="13.49111010">
        <ele>467.00000</ele>
        <time>2024-02-16T12:45:04Z</time>
      </trkpt>
      <trkpt lat="42.79883813" lon="13.49110398">
        <ele>467.00000</ele>
        <time>2024-02-16T12:45:05Z</time>
      </trkpt>
      <trkpt lat="42.79881189" lon="13.49109191">
        <ele>468.00000</ele>
        <time>2024-02-16T12:45:06Z</time>
      </trkpt>
      <trkpt lat="42.79878599" lon="13.49108244">
        <ele>468.00000</ele>
        <time>2024-02-16T12:45:07Z</time>
      </trkpt>
      <trkpt lat="42.79876277" lon="13.49107892">
        <ele>469.00000</ele>
        <time>2024-02-16T12:45:08Z</time>
      </trkpt>
      <trkpt lat="42.79874752" lon="13.49107439">
        <ele>469.00000</ele>
        <time>2024-02-16T12:45:09Z</time>
      </trkpt>
      <trkpt lat="42.79873302" lon="13.49106852">
        <ele>469.00000</ele>
        <time>2024-02-16T12:45:10Z</time>
      </trkpt>
      <trkpt lat="42.79871659" lon="13.49106257">
        <ele>469.00000</ele>
        <time>2024-02-16T12:45:11Z</time>
      </trkpt>
      <trkpt lat="42.79870024" lon="13.49105922">
        <ele>470.00000</ele>
        <time>2024-02-16T12:45:12Z</time>
      </trkpt>
      <trkpt lat="42.79867703" lon="13.49105511">
        <ele>470.00000</ele>
        <time>2024-02-16T12:45:13Z</time>
      </trkpt>
      <trkpt lat="42.79865205" lon="13.49105201">
        <ele>471.00000</ele>
        <time>2024-02-16T12:45:14Z</time>
      </trkpt>
      <trkpt lat="42.79862833" lon="13.49105210">
        <ele>471.00000</ele>
        <time>2024-02-16T12:45:15Z</time>
      </trkpt>
      <trkpt lat="42.79860570" lon="13.49105193">
        <ele>472.00000</ele>
        <time>2024-02-16T12:45:16Z</time>
      </trkpt>
      <trkpt lat="42.79858617" lon="13.49105159">
        <ele>473.00000</ele>
        <time>2024-02-16T12:45:17Z</time>
      </trkpt>
      <trkpt lat="42.79856261" lon="13.49104673">
        <ele>473.00000</ele>
        <time>2024-02-16T12:45:18Z</time>
      </trkpt>
      <trkpt lat="42.79853185" lon="13.49103776">
        <ele>474.00000</ele>
        <time>2024-02-16T12:45:19Z</time>
      </trkpt>
      <trkpt lat="42.79850771" lon="13.49102762">
        <ele>475.00000</ele>
        <time>2024-02-16T12:45:20Z</time>
      </trkpt>
      <trkpt lat="42.79848282" lon="13.49101488">
        <ele>476.00000</ele>
        <time>2024-02-16T12:45:21Z</time>
      </trkpt>
      <trkpt lat="42.79846932" lon="13.49100256">
        <ele>476.00000</ele>
        <time>2024-02-16T12:45:22Z</time>
      </trkpt>
      <trkpt lat="42.79845901" lon="13.49098613">
        <ele>476.00000</ele>
        <time>2024-02-16T12:45:23Z</time>
      </trkpt>
      <trkpt lat="42.79843705" lon="13.49095872">
        <ele>477.00000</ele>
        <time>2024-02-16T12:45:24Z</time>
      </trkpt>
      <trkpt lat="42.79841182" lon="13.49092947">
        <ele>477.00000</ele>
        <time>2024-02-16T12:45:25Z</time>
      </trkpt>
      <trkpt lat="42.79839137" lon="13.49089804">
        <ele>478.00000</ele>
        <time>2024-02-16T12:45:26Z</time>
      </trkpt>
      <trkpt lat="42.79837653" lon="13.49086987">
        <ele>478.00000</ele>
        <time>2024-02-16T12:45:27Z</time>
      </trkpt>
      <trkpt lat="42.79835902" lon="13.49084204">
        <ele>479.00000</ele>
        <time>2024-02-16T12:45:28Z</time>
      </trkpt>
      <trkpt lat="42.79833169" lon="13.49081874">
        <ele>479.00000</ele>
        <time>2024-02-16T12:45:29Z</time>
      </trkpt>
      <trkpt lat="42.79830822" lon="13.49079645">
        <ele>480.00000</ele>
        <time>2024-02-16T12:45:30Z</time>
      </trkpt>
      <trkpt lat="42.79828266" lon="13.49078949">
        <ele>481.00000</ele>
        <time>2024-02-16T12:45:31Z</time>
      </trkpt>
      <trkpt lat="42.79826405" lon="13.49079930">
        <ele>482.00000</ele>
        <time>2024-02-16T12:45:32Z</time>
      </trkpt>
      <trkpt lat="42.79824519" lon="13.49082092">
        <ele>483.00000</ele>
        <time>2024-02-16T12:45:33Z</time>
      </trkpt>
      <trkpt lat="42.79823840" lon="13.49084355">
        <ele>484.00000</ele>
        <time>2024-02-16T12:45:34Z</time>
      </trkpt>
      <trkpt lat="42.79823572" lon="13.49086627">
        <ele>484.00000</ele>
        <time>2024-02-16T12:45:35Z</time>
      </trkpt>
      <trkpt lat="42.79823086" lon="13.49089996">
        <ele>484.00000</ele>
        <time>2024-02-16T12:45:36Z</time>
      </trkpt>
      <trkpt lat="42.79822901" lon="13.49093525">
        <ele>484.00000</ele>
        <time>2024-02-16T12:45:37Z</time>
      </trkpt>
      <trkpt lat="42.79823161" lon="13.49096844">
        <ele>484.00000</ele>
        <time>2024-02-16T12:45:38Z</time>
      </trkpt>
      <trkpt lat="42.79823438" lon="13.49100315">
        <ele>484.00000</ele>
        <time>2024-02-16T12:45:39Z</time>
      </trkpt>
      <trkpt lat="42.79823304" lon="13.49103659">
        <ele>485.00000</ele>
        <time>2024-02-16T12:45:40Z</time>
      </trkpt>
      <trkpt lat="42.79822868" lon="13.49106601">
        <ele>485.00000</ele>
        <time>2024-02-16T12:45:41Z</time>
      </trkpt>
      <trkpt lat="42.79822566" lon="13.49109945">
        <ele>485.00000</ele>
        <time>2024-02-16T12:45:42Z</time>
      </trkpt>
      <trkpt lat="42.79821812" lon="13.49113147">
        <ele>485.00000</ele>
        <time>2024-02-16T12:45:43Z</time>
      </trkpt>
      <trkpt lat="42.79820730" lon="13.49115829">
        <ele>485.00000</ele>
        <time>2024-02-16T12:45:44Z</time>
      </trkpt>
      <trkpt lat="42.79819272" lon="13.49118285">
        <ele>486.00000</ele>
        <time>2024-02-16T12:45:45Z</time>
      </trkpt>
      <trkpt lat="42.79817679" lon="13.49120724">
        <ele>486.00000</ele>
        <time>2024-02-16T12:45:46Z</time>
      </trkpt>
      <trkpt lat="42.79816070" lon="13.49122786">
        <ele>486.00000</ele>
        <time>2024-02-16T12:45:47Z</time>
      </trkpt>
      <trkpt lat="42.79814620" lon="13.49124589">
        <ele>487.00000</ele>
        <time>2024-02-16T12:45:48Z</time>
      </trkpt>
      <trkpt lat="42.79813086" lon="13.49127128">
        <ele>487.00000</ele>
        <time>2024-02-16T12:45:49Z</time>
      </trkpt>
      <trkpt lat="42.79811829" lon="13.49129995">
        <ele>487.00000</ele>
        <time>2024-02-16T12:45:50Z</time>
      </trkpt>
      <trkpt lat="42.79810261" lon="13.49132811">
        <ele>488.00000</ele>
        <time>2024-02-16T12:45:51Z</time>
      </trkpt>
      <trkpt lat="42.79808719" lon="13.49135443">
        <ele>488.00000</ele>
        <time>2024-02-16T12:45:52Z</time>
      </trkpt>
      <trkpt lat="42.79806800" lon="13.49137731">
        <ele>489.00000</ele>
        <time>2024-02-16T12:45:53Z</time>
      </trkpt>
      <trkpt lat="42.79804956" lon="13.49139684">
        <ele>489.00000</ele>
        <time>2024-02-16T12:45:54Z</time>
      </trkpt>
      <trkpt lat="42.79803120" lon="13.49141227">
        <ele>489.00000</ele>
        <time>2024-02-16T12:45:55Z</time>
      </trkpt>
      <trkpt lat="42.79800798" lon="13.49142735">
        <ele>489.00000</ele>
        <time>2024-02-16T12:45:56Z</time>
      </trkpt>
      <trkpt lat="42.79798728" lon="13.49144219">
        <ele>489.00000</ele>
        <time>2024-02-16T12:45:57Z</time>
      </trkpt>
      <trkpt lat="42.79797228" lon="13.49146189">
        <ele>489.00000</ele>
        <time>2024-02-16T12:45:58Z</time>
      </trkpt>
      <trkpt lat="42.79795451" lon="13.49147907">
        <ele>488.00000</ele>
        <time>2024-02-16T12:45:59Z</time>
      </trkpt>
      <trkpt lat="42.79793112" lon="13.49149726">
        <ele>488.00000</ele>
        <time>2024-02-16T12:46:00Z</time>
      </trkpt>
      <trkpt lat="42.79790983" lon="13.49151444">
        <ele>488.00000</ele>
        <time>2024-02-16T12:46:01Z</time>
      </trkpt>
      <trkpt lat="42.79788653" lon="13.49152852">
        <ele>488.00000</ele>
        <time>2024-02-16T12:46:02Z</time>
      </trkpt>
      <trkpt lat="42.79786440" lon="13.49153816">
        <ele>488.00000</ele>
        <time>2024-02-16T12:46:03Z</time>
      </trkpt>
      <trkpt lat="42.79783967" lon="13.49154185">
        <ele>489.00000</ele>
        <time>2024-02-16T12:46:04Z</time>
      </trkpt>
      <trkpt lat="42.79781478" lon="13.49153799">
        <ele>489.00000</ele>
        <time>2024-02-16T12:46:05Z</time>
      </trkpt>
      <trkpt lat="42.79779148" lon="13.49152467">
        <ele>490.00000</ele>
        <time>2024-02-16T12:46:06Z</time>
      </trkpt>
      <trkpt lat="42.79778016" lon="13.49150162">
        <ele>491.00000</ele>
        <time>2024-02-16T12:46:07Z</time>
      </trkpt>
      <trkpt lat="42.79778134" lon="13.49147119">
        <ele>492.00000</ele>
        <time>2024-02-16T12:46:08Z</time>
      </trkpt>
      <trkpt lat="42.79779198" lon="13.49143909">
        <ele>493.00000</ele>
        <time>2024-02-16T12:46:09Z</time>
      </trkpt>
      <trkpt lat="42.79781118" lon="13.49141436">
        <ele>493.00000</ele>
        <time>2024-02-16T12:46:10Z</time>
      </trkpt>
      <trkpt lat="42.79783221" lon="13.49139031">
        <ele>493.00000</ele>
        <time>2024-02-16T12:46:11Z</time>
      </trkpt>
      <trkpt lat="42.79785602" lon="13.49136533">
        <ele>493.00000</ele>
        <time>2024-02-16T12:46:12Z</time>
      </trkpt>
      <trkpt lat="42.79788125" lon="13.49133641">
        <ele>493.00000</ele>
        <time>2024-02-16T12:46:13Z</time>
      </trkpt>
      <trkpt lat="42.79790279" lon="13.49130758">
        <ele>493.00000</ele>
        <time>2024-02-16T12:46:14Z</time>
      </trkpt>
      <trkpt lat="42.79792341" lon="13.49127757">
        <ele>492.00000</ele>
        <time>2024-02-16T12:46:15Z</time>
      </trkpt>
      <trkpt lat="42.79793799" lon="13.49124220">
        <ele>492.00000</ele>
        <time>2024-02-16T12:46:16Z</time>
      </trkpt>
      <trkpt lat="42.79794420" lon="13.49120448">
        <ele>492.00000</ele>
        <time>2024-02-16T12:46:17Z</time>
      </trkpt>
      <trkpt lat="42.79794428" lon="13.49116601">
        <ele>493.00000</ele>
        <time>2024-02-16T12:46:18Z</time>
      </trkpt>
      <trkpt lat="42.79794344" lon="13.49112669">
        <ele>493.00000</ele>
        <time>2024-02-16T12:46:19Z</time>
      </trkpt>
      <trkpt lat="42.79794260" lon="13.49108722">
        <ele>493.00000</ele>
        <time>2024-02-16T12:46:20Z</time>
      </trkpt>
      <trkpt lat="42.79794218" lon="13.49104765">
        <ele>493.00000</ele>
        <time>2024-02-16T12:46:21Z</time>
      </trkpt>
      <trkpt lat="42.79793967" lon="13.49101102">
        <ele>494.00000</ele>
        <time>2024-02-16T12:46:22Z</time>
      </trkpt>
      <trkpt lat="42.79793615" lon="13.49097255">
        <ele>494.00000</ele>
        <time>2024-02-16T12:46:23Z</time>
      </trkpt>
      <trkpt lat="42.79793481" lon="13.49093408">
        <ele>495.00000</ele>
        <time>2024-02-16T12:46:24Z</time>
      </trkpt>
      <trkpt lat="42.79793481" lon="13.49089602">
        <ele>495.00000</ele>
        <time>2024-02-16T12:46:25Z</time>
      </trkpt>
      <trkpt lat="42.79793330" lon="13.49085914">
        <ele>495.00000</ele>
        <time>2024-02-16T12:46:26Z</time>
      </trkpt>
      <trkpt lat="42.79792827" lon="13.49082377">
        <ele>496.00000</ele>
        <time>2024-02-16T12:46:27Z</time>
      </trkpt>
      <trkpt lat="42.79792140" lon="13.49079125">
        <ele>496.00000</ele>
        <time>2024-02-16T12:46:28Z</time>
      </trkpt>
      <trkpt lat="42.79791939" lon="13.49075613">
        <ele>496.00000</ele>
        <time>2024-02-16T12:46:29Z</time>
      </trkpt>
      <trkpt lat="42.79792232" lon="13.49072202">
        <ele>497.00000</ele>
        <time>2024-02-16T12:46:30Z</time>
      </trkpt>
      <trkpt lat="42.79792651" lon="13.49068555">
        <ele>497.00000</ele>
        <time>2024-02-16T12:46:31Z</time>
      </trkpt>
      <trkpt lat="42.79792693" lon="13.49064876">
        <ele>497.00000</ele>
        <time>2024-02-16T12:46:32Z</time>
      </trkpt>
      <trkpt lat="42.79792240" lon="13.49061858">
        <ele>497.00000</ele>
        <time>2024-02-16T12:46:33Z</time>
      </trkpt>
      <trkpt lat="42.79792014" lon="13.49058724">
        <ele>498.00000</ele>
        <time>2024-02-16T12:46:34Z</time>
      </trkpt>
      <trkpt lat="42.79791595" lon="13.49055421">
        <ele>498.00000</ele>
        <time>2024-02-16T12:46:35Z</time>
      </trkpt>
      <trkpt lat="42.79790304" lon="13.49052328">
        <ele>498.00000</ele>
        <time>2024-02-16T12:46:36Z</time>
      </trkpt>
      <trkpt lat="42.79788955" lon="13.49049227">
        <ele>498.00000</ele>
        <time>2024-02-16T12:46:37Z</time>
      </trkpt>
      <trkpt lat="42.79787521" lon="13.49046234">
        <ele>498.00000</ele>
        <time>2024-02-16T12:46:38Z</time>
      </trkpt>
      <trkpt lat="42.79786088" lon="13.49043167">
        <ele>498.00000</ele>
        <time>2024-02-16T12:46:39Z</time>
      </trkpt>
      <trkpt lat="42.79783934" lon="13.49040526">
        <ele>499.00000</ele>
        <time>2024-02-16T12:46:40Z</time>
      </trkpt>
      <trkpt lat="42.79781679" lon="13.49039110">
        <ele>500.00000</ele>
        <time>2024-02-16T12:46:41Z</time>
      </trkpt>
      <trkpt lat="42.79779106" lon="13.49038783">
        <ele>501.00000</ele>
        <time>2024-02-16T12:46:42Z</time>
      </trkpt>
      <trkpt lat="42.79776290" lon="13.49039277">
        <ele>502.00000</ele>
        <time>2024-02-16T12:46:43Z</time>
      </trkpt>
      <trkpt lat="42.79773582" lon="13.49041264">
        <ele>503.00000</ele>
        <time>2024-02-16T12:46:44Z</time>
      </trkpt>
      <trkpt lat="42.79772107" lon="13.49044357">
        <ele>503.00000</ele>
        <time>2024-02-16T12:46:45Z</time>
      </trkpt>
      <trkpt lat="42.79770263" lon="13.49048045">
        <ele>504.00000</ele>
        <time>2024-02-16T12:46:46Z</time>
      </trkpt>
      <trkpt lat="42.79768394" lon="13.49051968">
        <ele>505.00000</ele>
        <time>2024-02-16T12:46:47Z</time>
      </trkpt>
      <trkpt lat="42.79766634" lon="13.49055731">
        <ele>505.00000</ele>
        <time>2024-02-16T12:46:48Z</time>
      </trkpt>
      <trkpt lat="42.79764580" lon="13.49058824">
        <ele>505.00000</ele>
        <time>2024-02-16T12:46:49Z</time>
      </trkpt>
      <trkpt lat="42.79762099" lon="13.49061205">
        <ele>505.00000</ele>
        <time>2024-02-16T12:46:50Z</time>
      </trkpt>
      <trkpt lat="42.79758889" lon="13.49062931">
        <ele>505.00000</ele>
        <time>2024-02-16T12:46:51Z</time>
      </trkpt>
      <trkpt lat="42.79755486" lon="13.49063551">
        <ele>506.00000</ele>
        <time>2024-02-16T12:46:52Z</time>
      </trkpt>
      <trkpt lat="42.79752242" lon="13.49063409">
        <ele>506.00000</ele>
        <time>2024-02-16T12:46:53Z</time>
      </trkpt>
      <trkpt lat="42.79748923" lon="13.49062495">
        <ele>507.00000</ele>
        <time>2024-02-16T12:46:54Z</time>
      </trkpt>
      <trkpt lat="42.79745880" lon="13.49061314">
        <ele>507.00000</ele>
        <time>2024-02-16T12:46:55Z</time>
      </trkpt>
      <trkpt lat="42.79742837" lon="13.49060031">
        <ele>507.00000</ele>
        <time>2024-02-16T12:46:56Z</time>
      </trkpt>
      <trkpt lat="42.79740021" lon="13.49058296">
        <ele>507.00000</ele>
        <time>2024-02-16T12:46:57Z</time>
      </trkpt>
      <trkpt lat="42.79737498" lon="13.49056687">
        <ele>508.00000</ele>
        <time>2024-02-16T12:46:58Z</time>
      </trkpt>
      <trkpt lat="42.79735034" lon="13.49055186">
        <ele>508.00000</ele>
        <time>2024-02-16T12:46:59Z</time>
      </trkpt>
      <trkpt lat="42.79732662" lon="13.49053569">
        <ele>508.00000</ele>
        <time>2024-02-16T12:47:00Z</time>
      </trkpt>
      <trkpt lat="42.79730164" lon="13.49051834">
        <ele>509.00000</ele>
        <time>2024-02-16T12:47:01Z</time>
      </trkpt>
      <trkpt lat="42.79727817" lon="13.49050065">
        <ele>509.00000</ele>
        <time>2024-02-16T12:47:02Z</time>
      </trkpt>
      <trkpt lat="42.79725227" lon="13.49048380">
        <ele>509.00000</ele>
        <time>2024-02-16T12:47:03Z</time>
      </trkpt>
      <trkpt lat="42.79722721" lon="13.49047006">
        <ele>509.00000</ele>
        <time>2024-02-16T12:47:04Z</time>
      </trkpt>
      <trkpt lat="42.79720148" lon="13.49045891">
        <ele>510.00000</ele>
        <time>2024-02-16T12:47:05Z</time>
      </trkpt>
      <trkpt lat="42.79717474" lon="13.49045095">
        <ele>510.00000</ele>
        <time>2024-02-16T12:47:06Z</time>
      </trkpt>
      <trkpt lat="42.79714892" lon="13.49044357">
        <ele>511.00000</ele>
        <time>2024-02-16T12:47:07Z</time>
      </trkpt>
      <trkpt lat="42.79712202" lon="13.49043368">
        <ele>511.00000</ele>
        <time>2024-02-16T12:47:08Z</time>
      </trkpt>
      <trkpt lat="42.79709276" lon="13.49042370">
        <ele>512.00000</ele>
        <time>2024-02-16T12:47:09Z</time>
      </trkpt>
      <trkpt lat="42.79706804" lon="13.49041448">
        <ele>512.00000</ele>
        <time>2024-02-16T12:47:10Z</time>
      </trkpt>
      <trkpt lat="42.79704331" lon="13.49040526">
        <ele>513.00000</ele>
        <time>2024-02-16T12:47:11Z</time>
      </trkpt>
      <trkpt lat="42.79701624" lon="13.49039789">
        <ele>513.00000</ele>
        <time>2024-02-16T12:47:12Z</time>
      </trkpt>
      <trkpt lat="42.79699126" lon="13.49039194">
        <ele>514.00000</ele>
        <time>2024-02-16T12:47:13Z</time>
      </trkpt>
      <trkpt lat="42.79696527" lon="13.49038565">
        <ele>514.00000</ele>
        <time>2024-02-16T12:47:14Z</time>
      </trkpt>
      <trkpt lat="42.79693963" lon="13.49038138">
        <ele>515.00000</ele>
        <time>2024-02-16T12:47:15Z</time>
      </trkpt>
      <trkpt lat="42.79691431" lon="13.49038054">
        <ele>515.00000</ele>
        <time>2024-02-16T12:47:16Z</time>
      </trkpt>
      <trkpt lat="42.79688824" lon="13.49037936">
        <ele>515.00000</ele>
        <time>2024-02-16T12:47:17Z</time>
      </trkpt>
      <trkpt lat="42.79686335" lon="13.49037492">
        <ele>516.00000</ele>
        <time>2024-02-16T12:47:18Z</time>
      </trkpt>
      <trkpt lat="42.79683829" lon="13.49036889">
        <ele>516.00000</ele>
        <time>2024-02-16T12:47:19Z</time>
      </trkpt>
      <trkpt lat="42.79681356" lon="13.49036310">
        <ele>516.00000</ele>
        <time>2024-02-16T12:47:20Z</time>
      </trkpt>
      <trkpt lat="42.79678724" lon="13.49035732">
        <ele>517.00000</ele>
        <time>2024-02-16T12:47:21Z</time>
      </trkpt>
      <trkpt lat="42.79676201" lon="13.49035145">
        <ele>517.00000</ele>
        <time>2024-02-16T12:47:22Z</time>
      </trkpt>
      <trkpt lat="42.79673645" lon="13.49034491">
        <ele>518.00000</ele>
        <time>2024-02-16T12:47:23Z</time>
      </trkpt>
      <trkpt lat="42.79671046" lon="13.49033645">
        <ele>518.00000</ele>
        <time>2024-02-16T12:47:24Z</time>
      </trkpt>
      <trkpt lat="42.79668322" lon="13.49032807">
        <ele>518.00000</ele>
        <time>2024-02-16T12:47:25Z</time>
      </trkpt>
      <trkpt lat="42.79665565" lon="13.49031742">
        <ele>519.00000</ele>
        <time>2024-02-16T12:47:26Z</time>
      </trkpt>
      <trkpt lat="42.79662648" lon="13.49030778">
        <ele>518.00000</ele>
        <time>2024-02-16T12:47:27Z</time>
      </trkpt>
      <trkpt lat="42.79659505" lon="13.49028691">
        <ele>518.00000</ele>
        <time>2024-02-16T12:47:28Z</time>
      </trkpt>
      <trkpt lat="42.79657635" lon="13.49027048">
        <ele>518.00000</ele>
        <time>2024-02-16T12:47:29Z</time>
      </trkpt>
      <trkpt lat="42.79655238" lon="13.49025011">
        <ele>518.00000</ele>
        <time>2024-02-16T12:47:30Z</time>
      </trkpt>
      <trkpt lat="42.79653009" lon="13.49022581">
        <ele>518.00000</ele>
        <time>2024-02-16T12:47:31Z</time>
      </trkpt>
      <trkpt lat="42.79650796" lon="13.49019681">
        <ele>518.00000</ele>
        <time>2024-02-16T12:47:32Z</time>
      </trkpt>
      <trkpt lat="42.79648968" lon="13.49016487">
        <ele>518.00000</ele>
        <time>2024-02-16T12:47:33Z</time>
      </trkpt>
      <trkpt lat="42.79647141" lon="13.49013009">
        <ele>517.00000</ele>
        <time>2024-02-16T12:47:34Z</time>
      </trkpt>
      <trkpt lat="42.79645523" lon="13.49009262">
        <ele>517.00000</ele>
        <time>2024-02-16T12:47:35Z</time>
      </trkpt>
      <trkpt lat="42.79643713" lon="13.49005205">
        <ele>517.00000</ele>
        <time>2024-02-16T12:47:36Z</time>
      </trkpt>
      <trkpt lat="42.79642238" lon="13.49001324">
        <ele>517.00000</ele>
        <time>2024-02-16T12:47:37Z</time>
      </trkpt>
      <trkpt lat="42.79641006" lon="13.48997519">
        <ele>517.00000</ele>
        <time>2024-02-16T12:47:38Z</time>
      </trkpt>
      <trkpt lat="42.79640193" lon="13.48993822">
        <ele>517.00000</ele>
        <time>2024-02-16T12:47:39Z</time>
      </trkpt>
      <trkpt lat="42.79639312" lon="13.48990210">
        <ele>517.00000</ele>
        <time>2024-02-16T12:47:40Z</time>
      </trkpt>
      <trkpt lat="42.79638265" lon="13.48986631">
        <ele>517.00000</ele>
        <time>2024-02-16T12:47:41Z</time>
      </trkpt>
      <trkpt lat="42.79637242" lon="13.48982851">
        <ele>517.00000</ele>
        <time>2024-02-16T12:47:42Z</time>
      </trkpt>
      <trkpt lat="42.79636278" lon="13.48979188">
        <ele>517.00000</ele>
        <time>2024-02-16T12:47:43Z</time>
      </trkpt>
      <trkpt lat="42.79635415" lon="13.48975399">
        <ele>518.00000</ele>
        <time>2024-02-16T12:47:44Z</time>
      </trkpt>
      <trkpt lat="42.79634367" lon="13.48971359">
        <ele>518.00000</ele>
        <time>2024-02-16T12:47:45Z</time>
      </trkpt>
      <trkpt lat="42.79633621" lon="13.48967461">
        <ele>518.00000</ele>
        <time>2024-02-16T12:47:46Z</time>
      </trkpt>
      <trkpt lat="42.79632833" lon="13.48963388">
        <ele>519.00000</ele>
        <time>2024-02-16T12:47:47Z</time>
      </trkpt>
      <trkpt lat="42.79632288" lon="13.48959264">
        <ele>519.00000</ele>
        <time>2024-02-16T12:47:48Z</time>
      </trkpt>
      <trkpt lat="42.79632087" lon="13.48955132">
        <ele>520.00000</ele>
        <time>2024-02-16T12:47:49Z</time>
      </trkpt>
      <trkpt lat="42.79632129" lon="13.48950882">
        <ele>521.00000</ele>
        <time>2024-02-16T12:47:50Z</time>
      </trkpt>
      <trkpt lat="42.79631953" lon="13.48946498">
        <ele>521.00000</ele>
        <time>2024-02-16T12:47:51Z</time>
      </trkpt>
      <trkpt lat="42.79632238" lon="13.48942316">
        <ele>522.00000</ele>
        <time>2024-02-16T12:47:52Z</time>
      </trkpt>
      <trkpt lat="42.79632624" lon="13.48938074">
        <ele>522.00000</ele>
        <time>2024-02-16T12:47:53Z</time>
      </trkpt>
      <trkpt lat="42.79633043" lon="13.48933707">
        <ele>522.00000</ele>
        <time>2024-02-16T12:47:54Z</time>
      </trkpt>
      <trkpt lat="42.79633361" lon="13.48929123">
        <ele>522.00000</ele>
        <time>2024-02-16T12:47:55Z</time>
      </trkpt>
      <trkpt lat="42.79633227" lon="13.48924496">
        <ele>522.00000</ele>
        <time>2024-02-16T12:47:56Z</time>
      </trkpt>
      <trkpt lat="42.79632724" lon="13.48919869">
        <ele>522.00000</ele>
        <time>2024-02-16T12:47:57Z</time>
      </trkpt>
      <trkpt lat="42.79631777" lon="13.48915209">
        <ele>522.00000</ele>
        <time>2024-02-16T12:47:58Z</time>
      </trkpt>
      <trkpt lat="42.79630428" lon="13.48910389">
        <ele>522.00000</ele>
        <time>2024-02-16T12:47:59Z</time>
      </trkpt>
      <trkpt lat="42.79629103" lon="13.48905745">
        <ele>523.00000</ele>
        <time>2024-02-16T12:48:00Z</time>
      </trkpt>
      <trkpt lat="42.79627854" lon="13.48901353">
        <ele>523.00000</ele>
        <time>2024-02-16T12:48:01Z</time>
      </trkpt>
      <trkpt lat="42.79626145" lon="13.48897330">
        <ele>523.00000</ele>
        <time>2024-02-16T12:48:02Z</time>
      </trkpt>
      <trkpt lat="42.79623881" lon="13.48893374">
        <ele>523.00000</ele>
        <time>2024-02-16T12:48:03Z</time>
      </trkpt>
      <trkpt lat="42.79621484" lon="13.48889099">
        <ele>524.00000</ele>
        <time>2024-02-16T12:48:04Z</time>
      </trkpt>
      <trkpt lat="42.79619607" lon="13.48885118">
        <ele>524.00000</ele>
        <time>2024-02-16T12:48:05Z</time>
      </trkpt>
      <trkpt lat="42.79617712" lon="13.48881572">
        <ele>524.00000</ele>
        <time>2024-02-16T12:48:06Z</time>
      </trkpt>
      <trkpt lat="42.79615642" lon="13.48877859">
        <ele>524.00000</ele>
        <time>2024-02-16T12:48:07Z</time>
      </trkpt>
      <trkpt lat="42.79613404" lon="13.48873659">
        <ele>525.00000</ele>
        <time>2024-02-16T12:48:08Z</time>
      </trkpt>
      <trkpt lat="42.79610965" lon="13.48869267">
        <ele>525.00000</ele>
        <time>2024-02-16T12:48:09Z</time>
      </trkpt>
      <trkpt lat="42.79608543" lon="13.48864791">
        <ele>525.00000</ele>
        <time>2024-02-16T12:48:10Z</time>
      </trkpt>
      <trkpt lat="42.79606422" lon="13.48860450">
        <ele>526.00000</ele>
        <time>2024-02-16T12:48:11Z</time>
      </trkpt>
      <trkpt lat="42.79604226" lon="13.48856359">
        <ele>526.00000</ele>
        <time>2024-02-16T12:48:12Z</time>
      </trkpt>
      <trkpt lat="42.79601871" lon="13.48852529">
        <ele>527.00000</ele>
        <time>2024-02-16T12:48:13Z</time>
      </trkpt>
      <trkpt lat="42.79599633" lon="13.48848883">
        <ele>527.00000</ele>
        <time>2024-02-16T12:48:14Z</time>
      </trkpt>
      <trkpt lat="42.79597931" lon="13.48845672">
        <ele>528.00000</ele>
        <time>2024-02-16T12:48:15Z</time>
      </trkpt>
      <trkpt lat="42.79595953" lon="13.48842596">
        <ele>529.00000</ele>
        <time>2024-02-16T12:48:16Z</time>
      </trkpt>
      <trkpt lat="42.79593438" lon="13.48839453">
        <ele>530.00000</ele>
        <time>2024-02-16T12:48:17Z</time>
      </trkpt>
      <trkpt lat="42.79590262" lon="13.48836226">
        <ele>531.00000</ele>
        <time>2024-02-16T12:48:18Z</time>
      </trkpt>
      <trkpt lat="42.79587227" lon="13.48832949">
        <ele>533.00000</ele>
        <time>2024-02-16T12:48:19Z</time>
      </trkpt>
      <trkpt lat="42.79583891" lon="13.48829478">
        <ele>535.00000</ele>
        <time>2024-02-16T12:48:20Z</time>
      </trkpt>
      <trkpt lat="42.79580740" lon="13.48825824">
        <ele>536.00000</ele>
        <time>2024-02-16T12:48:21Z</time>
      </trkpt>
      <trkpt lat="42.79577588" lon="13.48822203">
        <ele>537.00000</ele>
        <time>2024-02-16T12:48:22Z</time>
      </trkpt>
      <trkpt lat="42.79574495" lon="13.48818750">
        <ele>538.00000</ele>
        <time>2024-02-16T12:48:23Z</time>
      </trkpt>
      <trkpt lat="42.79570883" lon="13.48815632">
        <ele>539.00000</ele>
        <time>2024-02-16T12:48:24Z</time>
      </trkpt>
      <trkpt lat="42.79567220" lon="13.48812991">
        <ele>541.00000</ele>
        <time>2024-02-16T12:48:25Z</time>
      </trkpt>
      <trkpt lat="42.79563548" lon="13.48810611">
        <ele>542.00000</ele>
        <time>2024-02-16T12:48:26Z</time>
      </trkpt>
      <trkpt lat="42.79559986" lon="13.48809010">
        <ele>543.00000</ele>
        <time>2024-02-16T12:48:27Z</time>
      </trkpt>
      <trkpt lat="42.79556625" lon="13.48808222">
        <ele>545.00000</ele>
        <time>2024-02-16T12:48:28Z</time>
      </trkpt>
      <trkpt lat="42.79553188" lon="13.48808381">
        <ele>545.00000</ele>
        <time>2024-02-16T12:48:29Z</time>
      </trkpt>
      <trkpt lat="42.79548838" lon="13.48808549">
        <ele>546.00000</ele>
        <time>2024-02-16T12:48:30Z</time>
      </trkpt>
      <trkpt lat="42.79545946" lon="13.48808842">
        <ele>546.00000</ele>
        <time>2024-02-16T12:48:31Z</time>
      </trkpt>
      <trkpt lat="42.79542325" lon="13.48809488">
        <ele>547.00000</ele>
        <time>2024-02-16T12:48:32Z</time>
      </trkpt>
      <trkpt lat="42.79538906" lon="13.48810418">
        <ele>547.00000</ele>
        <time>2024-02-16T12:48:33Z</time>
      </trkpt>
      <trkpt lat="42.79535377" lon="13.48811767">
        <ele>547.00000</ele>
        <time>2024-02-16T12:48:34Z</time>
      </trkpt>
      <trkpt lat="42.79531572" lon="13.48813368">
        <ele>547.00000</ele>
        <time>2024-02-16T12:48:35Z</time>
      </trkpt>
      <trkpt lat="42.79527221" lon="13.48815682">
        <ele>547.00000</ele>
        <time>2024-02-16T12:48:36Z</time>
      </trkpt>
      <trkpt lat="42.79524221" lon="13.48817409">
        <ele>547.00000</ele>
        <time>2024-02-16T12:48:37Z</time>
      </trkpt>
      <trkpt lat="42.79520667" lon="13.48819714">
        <ele>548.00000</ele>
        <time>2024-02-16T12:48:38Z</time>
      </trkpt>
      <trkpt lat="42.79517440" lon="13.48822496">
        <ele>548.00000</ele>
        <time>2024-02-16T12:48:39Z</time>
      </trkpt>
      <trkpt lat="42.79514196" lon="13.48825589">
        <ele>547.00000</ele>
        <time>2024-02-16T12:48:40Z</time>
      </trkpt>
      <trkpt lat="42.79510240" lon="13.48829277">
        <ele>547.00000</ele>
        <time>2024-02-16T12:48:41Z</time>
      </trkpt>
      <trkpt lat="42.79506820" lon="13.48832353">
        <ele>547.00000</ele>
        <time>2024-02-16T12:48:42Z</time>
      </trkpt>
      <trkpt lat="42.79504012" lon="13.48834658">
        <ele>546.00000</ele>
        <time>2024-02-16T12:48:43Z</time>
      </trkpt>
      <trkpt lat="42.79500726" lon="13.48837709">
        <ele>546.00000</ele>
        <time>2024-02-16T12:48:44Z</time>
      </trkpt>
      <trkpt lat="42.79497323" lon="13.48840853">
        <ele>545.00000</ele>
        <time>2024-02-16T12:48:45Z</time>
      </trkpt>
      <trkpt lat="42.79493979" lon="13.48843853">
        <ele>544.00000</ele>
        <time>2024-02-16T12:48:46Z</time>
      </trkpt>
      <trkpt lat="42.79489821" lon="13.48846971">
        <ele>543.00000</ele>
        <time>2024-02-16T12:48:47Z</time>
      </trkpt>
      <trkpt lat="42.79486753" lon="13.48848899">
        <ele>543.00000</ele>
        <time>2024-02-16T12:48:48Z</time>
      </trkpt>
      <trkpt lat="42.79482848" lon="13.48851104">
        <ele>542.00000</ele>
        <time>2024-02-16T12:48:49Z</time>
      </trkpt>
      <trkpt lat="42.79478824" lon="13.48852663">
        <ele>541.00000</ele>
        <time>2024-02-16T12:48:50Z</time>
      </trkpt>
      <trkpt lat="42.79474616" lon="13.48853535">
        <ele>541.00000</ele>
        <time>2024-02-16T12:48:51Z</time>
      </trkpt>
      <trkpt lat="42.79470157" lon="13.48853358">
        <ele>540.00000</ele>
        <time>2024-02-16T12:48:52Z</time>
      </trkpt>
      <trkpt lat="42.79466000" lon="13.48852152">
        <ele>540.00000</ele>
        <time>2024-02-16T12:48:53Z</time>
      </trkpt>
      <trkpt lat="42.79461859" lon="13.48849939">
        <ele>540.00000</ele>
        <time>2024-02-16T12:48:54Z</time>
      </trkpt>
      <trkpt lat="42.79458012" lon="13.48847173">
        <ele>541.00000</ele>
        <time>2024-02-16T12:48:55Z</time>
      </trkpt>
      <trkpt lat="42.79454357" lon="13.48844046">
        <ele>542.00000</ele>
        <time>2024-02-16T12:48:56Z</time>
      </trkpt>
      <trkpt lat="42.79451105" lon="13.48840543">
        <ele>542.00000</ele>
        <time>2024-02-16T12:48:57Z</time>
      </trkpt>
      <trkpt lat="42.79447945" lon="13.48836544">
        <ele>543.00000</ele>
        <time>2024-02-16T12:48:58Z</time>
      </trkpt>
      <trkpt lat="42.79445020" lon="13.48832437">
        <ele>544.00000</ele>
        <time>2024-02-16T12:48:59Z</time>
      </trkpt>
      <trkpt lat="42.79442036" lon="13.48827861">
        <ele>546.00000</ele>
        <time>2024-02-16T12:49:00Z</time>
      </trkpt>
      <trkpt lat="42.79439295" lon="13.48823502">
        <ele>548.00000</ele>
        <time>2024-02-16T12:49:01Z</time>
      </trkpt>
      <trkpt lat="42.79436588" lon="13.48819638">
        <ele>550.00000</ele>
        <time>2024-02-16T12:49:02Z</time>
      </trkpt>
      <trkpt lat="42.79433780" lon="13.48815564">
        <ele>552.00000</ele>
        <time>2024-02-16T12:49:03Z</time>
      </trkpt>
      <trkpt lat="42.79431014" lon="13.48811600">
        <ele>555.00000</ele>
        <time>2024-02-16T12:49:04Z</time>
      </trkpt>
      <trkpt lat="42.79428038" lon="13.48807954">
        <ele>557.00000</ele>
        <time>2024-02-16T12:49:05Z</time>
      </trkpt>
      <trkpt lat="42.79424426" lon="13.48804391">
        <ele>559.00000</ele>
        <time>2024-02-16T12:49:06Z</time>
      </trkpt>
      <trkpt lat="42.79420746" lon="13.48801449">
        <ele>559.00000</ele>
        <time>2024-02-16T12:49:07Z</time>
      </trkpt>
      <trkpt lat="42.79416463" lon="13.48799253">
        <ele>560.00000</ele>
        <time>2024-02-16T12:49:08Z</time>
      </trkpt>
      <trkpt lat="42.79412590" lon="13.48797761">
        <ele>558.00000</ele>
        <time>2024-02-16T12:49:09Z</time>
      </trkpt>
      <trkpt lat="42.79408458" lon="13.48796328">
        <ele>556.00000</ele>
        <time>2024-02-16T12:49:10Z</time>
      </trkpt>
      <trkpt lat="42.79404125" lon="13.48794677">
        <ele>554.00000</ele>
        <time>2024-02-16T12:49:11Z</time>
      </trkpt>
      <trkpt lat="42.79400093" lon="13.48792917">
        <ele>553.00000</ele>
        <time>2024-02-16T12:49:12Z</time>
      </trkpt>
      <trkpt lat="42.79396145" lon="13.48790871">
        <ele>552.00000</ele>
        <time>2024-02-16T12:49:13Z</time>
      </trkpt>
      <trkpt lat="42.79392214" lon="13.48788483">
        <ele>551.00000</ele>
        <time>2024-02-16T12:49:14Z</time>
      </trkpt>
      <trkpt lat="42.79387813" lon="13.48785381">
        <ele>550.00000</ele>
        <time>2024-02-16T12:49:15Z</time>
      </trkpt>
      <trkpt lat="42.79383463" lon="13.48781886">
        <ele>550.00000</ele>
        <time>2024-02-16T12:49:16Z</time>
      </trkpt>
      <trkpt lat="42.79379230" lon="13.48778164">
        <ele>549.00000</ele>
        <time>2024-02-16T12:49:17Z</time>
      </trkpt>
      <trkpt lat="42.79375266" lon="13.48773496">
        <ele>550.00000</ele>
        <time>2024-02-16T12:49:18Z</time>
      </trkpt>
      <trkpt lat="42.79371561" lon="13.48768182">
        <ele>551.00000</ele>
        <time>2024-02-16T12:49:19Z</time>
      </trkpt>
      <trkpt lat="42.79367772" lon="13.48762775">
        <ele>553.00000</ele>
        <time>2024-02-16T12:49:20Z</time>
      </trkpt>
      <trkpt lat="42.79363464" lon="13.48757117">
        <ele>554.00000</ele>
        <time>2024-02-16T12:49:21Z</time>
      </trkpt>
      <trkpt lat="42.79359458" lon="13.48751736">
        <ele>556.00000</ele>
        <time>2024-02-16T12:49:22Z</time>
      </trkpt>
      <trkpt lat="42.79355158" lon="13.48746623">
        <ele>557.00000</ele>
        <time>2024-02-16T12:49:23Z</time>
      </trkpt>
      <trkpt lat="42.79350631" lon="13.48741753">
        <ele>557.00000</ele>
        <time>2024-02-16T12:49:24Z</time>
      </trkpt>
      <trkpt lat="42.79346080" lon="13.48737311">
        <ele>558.00000</ele>
        <time>2024-02-16T12:49:25Z</time>
      </trkpt>
      <trkpt lat="42.79341470" lon="13.48733279">
        <ele>558.00000</ele>
        <time>2024-02-16T12:49:26Z</time>
      </trkpt>
      <trkpt lat="42.79336784" lon="13.48729189">
        <ele>558.00000</ele>
        <time>2024-02-16T12:49:27Z</time>
      </trkpt>
      <trkpt lat="42.79330867" lon="13.48723766">
        <ele>559.00000</ele>
        <time>2024-02-16T12:49:28Z</time>
      </trkpt>
      <trkpt lat="42.79325930" lon="13.48719030">
        <ele>560.00000</ele>
        <time>2024-02-16T12:49:29Z</time>
      </trkpt>
      <trkpt lat="42.79321043" lon="13.48714437">
        <ele>561.00000</ele>
        <time>2024-02-16T12:49:30Z</time>
      </trkpt>
      <trkpt lat="42.79317263" lon="13.48710816">
        <ele>562.00000</ele>
        <time>2024-02-16T12:49:31Z</time>
      </trkpt>
      <trkpt lat="42.79311823" lon="13.48705753">
        <ele>563.00000</ele>
        <time>2024-02-16T12:49:32Z</time>
      </trkpt>
      <trkpt lat="42.79307037" lon="13.48702333">
        <ele>563.00000</ele>
        <time>2024-02-16T12:49:33Z</time>
      </trkpt>
      <trkpt lat="42.79303215" lon="13.48701361">
        <ele>563.00000</ele>
        <time>2024-02-16T12:49:34Z</time>
      </trkpt>
      <trkpt lat="42.79299016" lon="13.48702166">
        <ele>564.00000</ele>
        <time>2024-02-16T12:49:35Z</time>
      </trkpt>
      <trkpt lat="42.79295084" lon="13.48705611">
        <ele>564.00000</ele>
        <time>2024-02-16T12:49:36Z</time>
      </trkpt>
      <trkpt lat="42.79291472" lon="13.48712006">
        <ele>563.00000</ele>
        <time>2024-02-16T12:49:37Z</time>
      </trkpt>
      <trkpt lat="42.79288128" lon="13.48720623">
        <ele>561.00000</ele>
        <time>2024-02-16T12:49:38Z</time>
      </trkpt>
      <trkpt lat="42.79285605" lon="13.48727378">
        <ele>560.00000</ele>
        <time>2024-02-16T12:49:39Z</time>
      </trkpt>
      <trkpt lat="42.79283325" lon="13.48734377">
        <ele>558.00000</ele>
        <time>2024-02-16T12:49:40Z</time>
      </trkpt>
      <trkpt lat="42.79281321" lon="13.48740119">
        <ele>556.00000</ele>
        <time>2024-02-16T12:49:41Z</time>
      </trkpt>
      <trkpt lat="42.79277726" lon="13.48748752">
        <ele>554.00000</ele>
        <time>2024-02-16T12:49:42Z</time>
      </trkpt>
      <trkpt lat="42.79273744" lon="13.48755081">
        <ele>554.00000</ele>
        <time>2024-02-16T12:49:43Z</time>
      </trkpt>
      <trkpt lat="42.79267609" lon="13.48759565">
        <ele>555.00000</ele>
        <time>2024-02-16T12:49:44Z</time>
      </trkpt>
      <trkpt lat="42.79262630" lon="13.48762532">
        <ele>557.00000</ele>
        <time>2024-02-16T12:49:45Z</time>
      </trkpt>
      <trkpt lat="42.79257047" lon="13.48766044">
        <ele>558.00000</ele>
        <time>2024-02-16T12:49:46Z</time>
      </trkpt>
      <trkpt lat="42.79251381" lon="13.48770244">
        <ele>560.00000</ele>
        <time>2024-02-16T12:49:47Z</time>
      </trkpt>
      <trkpt lat="42.79246721" lon="13.48774921">
        <ele>560.00000</ele>
        <time>2024-02-16T12:49:48Z</time>
      </trkpt>
      <trkpt lat="42.79242882" lon="13.48783034">
        <ele>560.00000</ele>
        <time>2024-02-16T12:49:49Z</time>
      </trkpt>
      <trkpt lat="42.79241482" lon="13.48789966">
        <ele>559.00000</ele>
        <time>2024-02-16T12:49:50Z</time>
      </trkpt>
      <trkpt lat="42.79240233" lon="13.48798315">
        <ele>557.00000</ele>
        <time>2024-02-16T12:49:51Z</time>
      </trkpt>
      <trkpt lat="42.79239999" lon="13.48808834">
        <ele>555.00000</ele>
        <time>2024-02-16T12:49:52Z</time>
      </trkpt>
      <trkpt lat="42.79239839" lon="13.48817434">
        <ele>552.00000</ele>
        <time>2024-02-16T12:49:53Z</time>
      </trkpt>
      <trkpt lat="42.79238448" lon="13.48825472">
        <ele>549.00000</ele>
        <time>2024-02-16T12:49:54Z</time>
      </trkpt>
      <trkpt lat="42.79235917" lon="13.48831289">
        <ele>547.00000</ele>
        <time>2024-02-16T12:49:55Z</time>
      </trkpt>
      <trkpt lat="42.79230577" lon="13.48835220">
        <ele>546.00000</ele>
        <time>2024-02-16T12:49:56Z</time>
      </trkpt>
      <trkpt lat="42.79223537" lon="13.48836653">
        <ele>545.00000</ele>
        <time>2024-02-16T12:49:57Z</time>
      </trkpt>
      <trkpt lat="42.79217745" lon="13.48834265">
        <ele>546.00000</ele>
        <time>2024-02-16T12:49:58Z</time>
      </trkpt>
      <trkpt lat="42.79213218" lon="13.48831121">
        <ele>546.00000</ele>
        <time>2024-02-16T12:49:59Z</time>
      </trkpt>
      <trkpt lat="42.79208390" lon="13.48826159">
        <ele>547.00000</ele>
        <time>2024-02-16T12:50:00Z</time>
      </trkpt>
      <trkpt lat="42.79204468" lon="13.48819420">
        <ele>549.00000</ele>
        <time>2024-02-16T12:50:01Z</time>
      </trkpt>
      <trkpt lat="42.79201224" lon="13.48811927">
        <ele>551.00000</ele>
        <time>2024-02-16T12:50:02Z</time>
      </trkpt>
      <trkpt lat="42.79198642" lon="13.48804249">
        <ele>553.00000</ele>
        <time>2024-02-16T12:50:03Z</time>
      </trkpt>
      <trkpt lat="42.79196371" lon="13.48796429">
        <ele>555.00000</ele>
        <time>2024-02-16T12:50:04Z</time>
      </trkpt>
      <trkpt lat="42.79193798" lon="13.48788902">
        <ele>556.00000</ele>
        <time>2024-02-16T12:50:05Z</time>
      </trkpt>
      <trkpt lat="42.79190688" lon="13.48781945">
        <ele>557.00000</ele>
        <time>2024-02-16T12:50:06Z</time>
      </trkpt>
      <trkpt lat="42.79187134" lon="13.48775960">
        <ele>557.00000</ele>
        <time>2024-02-16T12:50:07Z</time>
      </trkpt>
      <trkpt lat="42.79183647" lon="13.48770973">
        <ele>557.00000</ele>
        <time>2024-02-16T12:50:08Z</time>
      </trkpt>
      <trkpt lat="42.79180001" lon="13.48766664">
        <ele>557.00000</ele>
        <time>2024-02-16T12:50:09Z</time>
      </trkpt>
      <trkpt lat="42.79176170" lon="13.48762909">
        <ele>556.00000</ele>
        <time>2024-02-16T12:50:10Z</time>
      </trkpt>
      <trkpt lat="42.79172516" lon="13.48759397">
        <ele>555.00000</ele>
        <time>2024-02-16T12:50:11Z</time>
      </trkpt>
      <trkpt lat="42.79168895" lon="13.48756447">
        <ele>554.00000</ele>
        <time>2024-02-16T12:50:12Z</time>
      </trkpt>
      <trkpt lat="42.79165240" lon="13.48753161">
        <ele>553.00000</ele>
        <time>2024-02-16T12:50:13Z</time>
      </trkpt>
      <trkpt lat="42.79161837" lon="13.48749901">
        <ele>551.00000</ele>
        <time>2024-02-16T12:50:14Z</time>
      </trkpt>
      <trkpt lat="42.79158761" lon="13.48746456">
        <ele>549.00000</ele>
        <time>2024-02-16T12:50:15Z</time>
      </trkpt>
      <trkpt lat="42.79156113" lon="13.48742173">
        <ele>548.00000</ele>
        <time>2024-02-16T12:50:16Z</time>
      </trkpt>
      <trkpt lat="42.79154009" lon="13.48736959">
        <ele>548.00000</ele>
        <time>2024-02-16T12:50:17Z</time>
      </trkpt>
      <trkpt lat="42.79153363" lon="13.48731486">
        <ele>549.00000</ele>
        <time>2024-02-16T12:50:18Z</time>
      </trkpt>
      <trkpt lat="42.79153891" lon="13.48725887">
        <ele>550.00000</ele>
        <time>2024-02-16T12:50:19Z</time>
      </trkpt>
      <trkpt lat="42.79155006" lon="13.48720472">
        <ele>552.00000</ele>
        <time>2024-02-16T12:50:20Z</time>
      </trkpt>
      <trkpt lat="42.79156272" lon="13.48715568">
        <ele>555.00000</ele>
        <time>2024-02-16T12:50:21Z</time>
      </trkpt>
      <trkpt lat="42.79157429" lon="13.48710883">
        <ele>557.00000</ele>
        <time>2024-02-16T12:50:22Z</time>
      </trkpt>
      <trkpt lat="42.79158510" lon="13.48706181">
        <ele>559.00000</ele>
        <time>2024-02-16T12:50:23Z</time>
      </trkpt>
      <trkpt lat="42.79159306" lon="13.48701646">
        <ele>561.00000</ele>
        <time>2024-02-16T12:50:24Z</time>
      </trkpt>
      <trkpt lat="42.79160329" lon="13.48696776">
        <ele>562.00000</ele>
        <time>2024-02-16T12:50:25Z</time>
      </trkpt>
      <trkpt lat="42.79161469" lon="13.48691487">
        <ele>565.00000</ele>
        <time>2024-02-16T12:50:26Z</time>
      </trkpt>
      <trkpt lat="42.79162223" lon="13.48685880">
        <ele>568.00000</ele>
        <time>2024-02-16T12:50:27Z</time>
      </trkpt>
      <trkpt lat="42.79162349" lon="13.48680381">
        <ele>571.00000</ele>
        <time>2024-02-16T12:50:28Z</time>
      </trkpt>
      <trkpt lat="42.79161661" lon="13.48675260">
        <ele>573.00000</ele>
        <time>2024-02-16T12:50:29Z</time>
      </trkpt>
      <trkpt lat="42.79160186" lon="13.48671245">
        <ele>575.00000</ele>
        <time>2024-02-16T12:50:30Z</time>
      </trkpt>
      <trkpt lat="42.79157982" lon="13.48668060">
        <ele>576.00000</ele>
        <time>2024-02-16T12:50:31Z</time>
      </trkpt>
      <trkpt lat="42.79155367" lon="13.48665646">
        <ele>577.00000</ele>
        <time>2024-02-16T12:50:32Z</time>
      </trkpt>
      <trkpt lat="42.79151310" lon="13.48664171">
        <ele>576.00000</ele>
        <time>2024-02-16T12:50:33Z</time>
      </trkpt>
      <trkpt lat="42.79148535" lon="13.48663466">
        <ele>576.00000</ele>
        <time>2024-02-16T12:50:34Z</time>
      </trkpt>
      <trkpt lat="42.79144856" lon="13.48662536">
        <ele>575.00000</ele>
        <time>2024-02-16T12:50:35Z</time>
      </trkpt>
      <trkpt lat="42.79141495" lon="13.48660818">
        <ele>575.00000</ele>
        <time>2024-02-16T12:50:36Z</time>
      </trkpt>
      <trkpt lat="42.79138527" lon="13.48658354">
        <ele>576.00000</ele>
        <time>2024-02-16T12:50:37Z</time>
      </trkpt>
      <trkpt lat="42.79135812" lon="13.48655965">
        <ele>575.00000</ele>
        <time>2024-02-16T12:50:38Z</time>
      </trkpt>
      <trkpt lat="42.79131998" lon="13.48653484">
        <ele>573.00000</ele>
        <time>2024-02-16T12:50:39Z</time>
      </trkpt>
      <trkpt lat="42.79128586" lon="13.48650592">
        <ele>572.00000</ele>
        <time>2024-02-16T12:50:40Z</time>
      </trkpt>
      <trkpt lat="42.79125284" lon="13.48647449">
        <ele>571.00000</ele>
        <time>2024-02-16T12:50:41Z</time>
      </trkpt>
      <trkpt lat="42.79121822" lon="13.48644984">
        <ele>570.00000</ele>
        <time>2024-02-16T12:50:42Z</time>
      </trkpt>
      <trkpt lat="42.79118721" lon="13.48640156">
        <ele>570.00000</ele>
        <time>2024-02-16T12:50:43Z</time>
      </trkpt>
      <trkpt lat="42.79116743" lon="13.48636033">
        <ele>570.00000</ele>
        <time>2024-02-16T12:50:44Z</time>
      </trkpt>
      <trkpt lat="42.79114991" lon="13.48630794">
        <ele>571.00000</ele>
        <time>2024-02-16T12:50:45Z</time>
      </trkpt>
      <trkpt lat="42.79114069" lon="13.48625270">
        <ele>573.00000</ele>
        <time>2024-02-16T12:50:46Z</time>
      </trkpt>
      <trkpt lat="42.79113264" lon="13.48620006">
        <ele>575.00000</ele>
        <time>2024-02-16T12:50:47Z</time>
      </trkpt>
      <trkpt lat="42.79112443" lon="13.48613996">
        <ele>577.00000</ele>
        <time>2024-02-16T12:50:48Z</time>
      </trkpt>
      <trkpt lat="42.79111831" lon="13.48609755">
        <ele>579.00000</ele>
        <time>2024-02-16T12:50:49Z</time>
      </trkpt>
      <trkpt lat="42.79110532" lon="13.48604726">
        <ele>581.00000</ele>
        <time>2024-02-16T12:50:50Z</time>
      </trkpt>
      <trkpt lat="42.79108956" lon="13.48599965">
        <ele>583.00000</ele>
        <time>2024-02-16T12:50:51Z</time>
      </trkpt>
      <trkpt lat="42.79106844" lon="13.48595179">
        <ele>585.00000</ele>
        <time>2024-02-16T12:50:52Z</time>
      </trkpt>
      <trkpt lat="42.79103952" lon="13.48590427">
        <ele>586.00000</ele>
        <time>2024-02-16T12:50:53Z</time>
      </trkpt>
      <trkpt lat="42.79102083" lon="13.48588256">
        <ele>587.00000</ele>
        <time>2024-02-16T12:50:54Z</time>
      </trkpt>
      <trkpt lat="42.79098931" lon="13.48585833">
        <ele>586.00000</ele>
        <time>2024-02-16T12:50:55Z</time>
      </trkpt>
      <trkpt lat="42.79095143" lon="13.48584056">
        <ele>585.00000</ele>
        <time>2024-02-16T12:50:56Z</time>
      </trkpt>
      <trkpt lat="42.79090474" lon="13.48582858">
        <ele>582.00000</ele>
        <time>2024-02-16T12:50:57Z</time>
      </trkpt>
      <trkpt lat="42.79087347" lon="13.48582313">
        <ele>581.00000</ele>
        <time>2024-02-16T12:50:58Z</time>
      </trkpt>
      <trkpt lat="42.79083651" lon="13.48581357">
        <ele>579.00000</ele>
        <time>2024-02-16T12:50:59Z</time>
      </trkpt>
      <trkpt lat="42.79079670" lon="13.48580511">
        <ele>578.00000</ele>
        <time>2024-02-16T12:51:00Z</time>
      </trkpt>
      <trkpt lat="42.79074607" lon="13.48579916">
        <ele>576.00000</ele>
        <time>2024-02-16T12:51:01Z</time>
      </trkpt>
      <trkpt lat="42.79070491" lon="13.48579589">
        <ele>575.00000</ele>
        <time>2024-02-16T12:51:02Z</time>
      </trkpt>
      <trkpt lat="42.79066803" lon="13.48579530">
        <ele>574.00000</ele>
        <time>2024-02-16T12:51:03Z</time>
      </trkpt>
      <trkpt lat="42.79063677" lon="13.48579455">
        <ele>572.00000</ele>
        <time>2024-02-16T12:51:04Z</time>
      </trkpt>
      <trkpt lat="42.79059100" lon="13.48578952">
        <ele>571.00000</ele>
        <time>2024-02-16T12:51:05Z</time>
      </trkpt>
      <trkpt lat="42.79054901" lon="13.48577954">
        <ele>570.00000</ele>
        <time>2024-02-16T12:51:06Z</time>
      </trkpt>
      <trkpt lat="42.79050819" lon="13.48575415">
        <ele>570.00000</ele>
        <time>2024-02-16T12:51:07Z</time>
      </trkpt>
      <trkpt lat="42.79046201" lon="13.48570302">
        <ele>570.00000</ele>
        <time>2024-02-16T12:51:08Z</time>
      </trkpt>
      <trkpt lat="42.79044675" lon="13.48565633">
        <ele>572.00000</ele>
        <time>2024-02-16T12:51:09Z</time>
      </trkpt>
      <trkpt lat="42.79043611" lon="13.48559397">
        <ele>574.00000</ele>
        <time>2024-02-16T12:51:10Z</time>
      </trkpt>
      <trkpt lat="42.79042806" lon="13.48553379">
        <ele>576.00000</ele>
        <time>2024-02-16T12:51:11Z</time>
      </trkpt>
      <trkpt lat="42.79041021" lon="13.48546220">
        <ele>580.00000</ele>
        <time>2024-02-16T12:51:12Z</time>
      </trkpt>
      <trkpt lat="42.79039051" lon="13.48541133">
        <ele>582.00000</ele>
        <time>2024-02-16T12:51:13Z</time>
      </trkpt>
      <trkpt lat="42.79036218" lon="13.48535542">
        <ele>585.00000</ele>
        <time>2024-02-16T12:51:14Z</time>
      </trkpt>
      <trkpt lat="42.79032957" lon="13.48530756">
        <ele>586.00000</ele>
        <time>2024-02-16T12:51:15Z</time>
      </trkpt>
      <trkpt lat="42.79028708" lon="13.48526489">
        <ele>587.00000</ele>
        <time>2024-02-16T12:51:16Z</time>
      </trkpt>
      <trkpt lat="42.79024466" lon="13.48522684">
        <ele>588.00000</ele>
        <time>2024-02-16T12:51:17Z</time>
      </trkpt>
      <trkpt lat="42.79020535" lon="13.48519021">
        <ele>589.00000</ele>
        <time>2024-02-16T12:51:18Z</time>
      </trkpt>
      <trkpt lat="42.79016646" lon="13.48515987">
        <ele>589.00000</ele>
        <time>2024-02-16T12:51:19Z</time>
      </trkpt>
      <trkpt lat="42.79012355" lon="13.48513514">
        <ele>589.00000</ele>
        <time>2024-02-16T12:51:20Z</time>
      </trkpt>
      <trkpt lat="42.79007661" lon="13.48511536">
        <ele>588.00000</ele>
        <time>2024-02-16T12:51:21Z</time>
      </trkpt>
      <trkpt lat="42.79002749" lon="13.48509835">
        <ele>588.00000</ele>
        <time>2024-02-16T12:51:22Z</time>
      </trkpt>
      <trkpt lat="42.78997921" lon="13.48508452">
        <ele>587.00000</ele>
        <time>2024-02-16T12:51:23Z</time>
      </trkpt>
      <trkpt lat="42.78993587" lon="13.48506943">
        <ele>587.00000</ele>
        <time>2024-02-16T12:51:24Z</time>
      </trkpt>
      <trkpt lat="42.78987712" lon="13.48505216">
        <ele>586.00000</ele>
        <time>2024-02-16T12:51:25Z</time>
      </trkpt>
      <trkpt lat="42.78983697" lon="13.48503682">
        <ele>585.00000</ele>
        <time>2024-02-16T12:51:26Z</time>
      </trkpt>
      <trkpt lat="42.78979254" lon="13.48501260">
        <ele>585.00000</ele>
        <time>2024-02-16T12:51:27Z</time>
      </trkpt>
      <trkpt lat="42.78974208" lon="13.48498804">
        <ele>585.00000</ele>
        <time>2024-02-16T12:51:28Z</time>
      </trkpt>
      <trkpt lat="42.78969422" lon="13.48496214">
        <ele>584.00000</ele>
        <time>2024-02-16T12:51:29Z</time>
      </trkpt>
      <trkpt lat="42.78965391" lon="13.48493029">
        <ele>584.00000</ele>
        <time>2024-02-16T12:51:30Z</time>
      </trkpt>
      <trkpt lat="42.78961133" lon="13.48489374">
        <ele>583.00000</ele>
        <time>2024-02-16T12:51:31Z</time>
      </trkpt>
      <trkpt lat="42.78957093" lon="13.48485426">
        <ele>582.00000</ele>
        <time>2024-02-16T12:51:32Z</time>
      </trkpt>
      <trkpt lat="42.78953748" lon="13.48480573">
        <ele>581.00000</ele>
        <time>2024-02-16T12:51:33Z</time>
      </trkpt>
      <trkpt lat="42.78950831" lon="13.48475318">
        <ele>580.00000</ele>
        <time>2024-02-16T12:51:34Z</time>
      </trkpt>
      <trkpt lat="42.78948392" lon="13.48469585">
        <ele>579.00000</ele>
        <time>2024-02-16T12:51:35Z</time>
      </trkpt>
      <trkpt lat="42.78946867" lon="13.48463365">
        <ele>581.00000</ele>
        <time>2024-02-16T12:51:36Z</time>
      </trkpt>
      <trkpt lat="42.78946372" lon="13.48456794">
        <ele>583.00000</ele>
        <time>2024-02-16T12:51:37Z</time>
      </trkpt>
      <trkpt lat="42.78946515" lon="13.48450449">
        <ele>587.00000</ele>
        <time>2024-02-16T12:51:38Z</time>
      </trkpt>
      <trkpt lat="42.78946942" lon="13.48444431">
        <ele>590.00000</ele>
        <time>2024-02-16T12:51:39Z</time>
      </trkpt>
      <trkpt lat="42.78947914" lon="13.48438387">
        <ele>587.00000</ele>
        <time>2024-02-16T12:51:40Z</time>
      </trkpt>
      <trkpt lat="42.78949297" lon="13.48432444">
        <ele>586.00000</ele>
        <time>2024-02-16T12:51:41Z</time>
      </trkpt>
      <trkpt lat="42.78950865" lon="13.48426552">
        <ele>584.00000</ele>
        <time>2024-02-16T12:51:42Z</time>
      </trkpt>
      <trkpt lat="42.78952407" lon="13.48420693">
        <ele>583.00000</ele>
        <time>2024-02-16T12:51:43Z</time>
      </trkpt>
      <trkpt lat="42.78953857" lon="13.48415513">
        <ele>582.00000</ele>
        <time>2024-02-16T12:51:44Z</time>
      </trkpt>
      <trkpt lat="42.78955299" lon="13.48410677">
        <ele>583.00000</ele>
        <time>2024-02-16T12:51:45Z</time>
      </trkpt>
      <trkpt lat="42.78956917" lon="13.48405228">
        <ele>584.00000</ele>
        <time>2024-02-16T12:51:46Z</time>
      </trkpt>
      <trkpt lat="42.78959473" lon="13.48399780">
        <ele>585.00000</ele>
        <time>2024-02-16T12:51:47Z</time>
      </trkpt>
      <trkpt lat="42.78962340" lon="13.48394525">
        <ele>586.00000</ele>
        <time>2024-02-16T12:51:48Z</time>
      </trkpt>
      <trkpt lat="42.78965584" lon="13.48390543">
        <ele>587.00000</ele>
        <time>2024-02-16T12:51:49Z</time>
      </trkpt>
      <trkpt lat="42.78969355" lon="13.48387023">
        <ele>587.00000</ele>
        <time>2024-02-16T12:51:50Z</time>
      </trkpt>
      <trkpt lat="42.78973161" lon="13.48384014">
        <ele>588.00000</ele>
        <time>2024-02-16T12:51:51Z</time>
      </trkpt>
      <trkpt lat="42.78976782" lon="13.48381256">
        <ele>589.00000</ele>
        <time>2024-02-16T12:51:52Z</time>
      </trkpt>
      <trkpt lat="42.78980378" lon="13.48378373">
        <ele>590.00000</ele>
        <time>2024-02-16T12:51:53Z</time>
      </trkpt>
      <trkpt lat="42.78983739" lon="13.48375230">
        <ele>591.00000</ele>
        <time>2024-02-16T12:51:54Z</time>
      </trkpt>
      <trkpt lat="42.78988525" lon="13.48371139">
        <ele>592.00000</ele>
        <time>2024-02-16T12:51:55Z</time>
      </trkpt>
      <trkpt lat="42.78992682" lon="13.48368122">
        <ele>593.00000</ele>
        <time>2024-02-16T12:51:56Z</time>
      </trkpt>
      <trkpt lat="42.78996714" lon="13.48366462">
        <ele>594.00000</ele>
        <time>2024-02-16T12:51:57Z</time>
      </trkpt>
      <trkpt lat="42.79000796" lon="13.48364685">
        <ele>595.00000</ele>
        <time>2024-02-16T12:51:58Z</time>
      </trkpt>
      <trkpt lat="42.79004811" lon="13.48362414">
        <ele>597.00000</ele>
        <time>2024-02-16T12:51:59Z</time>
      </trkpt>
      <trkpt lat="42.79008935" lon="13.48359254">
        <ele>599.00000</ele>
        <time>2024-02-16T12:52:00Z</time>
      </trkpt>
      <trkpt lat="42.79012463" lon="13.48356161">
        <ele>602.00000</ele>
        <time>2024-02-16T12:52:01Z</time>
      </trkpt>
      <trkpt lat="42.79015389" lon="13.48352615">
        <ele>604.00000</ele>
        <time>2024-02-16T12:52:02Z</time>
      </trkpt>
      <trkpt lat="42.79018348" lon="13.48348449">
        <ele>606.00000</ele>
        <time>2024-02-16T12:52:03Z</time>
      </trkpt>
      <trkpt lat="42.79021323" lon="13.48343797">
        <ele>608.00000</ele>
        <time>2024-02-16T12:52:04Z</time>
      </trkpt>
      <trkpt lat="42.79024198" lon="13.48338383">
        <ele>610.00000</ele>
        <time>2024-02-16T12:52:05Z</time>
      </trkpt>
      <trkpt lat="42.79026964" lon="13.48333186">
        <ele>612.00000</ele>
        <time>2024-02-16T12:52:06Z</time>
      </trkpt>
      <trkpt lat="42.79030183" lon="13.48328710">
        <ele>614.00000</ele>
        <time>2024-02-16T12:52:07Z</time>
      </trkpt>
      <trkpt lat="42.79032278" lon="13.48325148">
        <ele>616.00000</ele>
        <time>2024-02-16T12:52:08Z</time>
      </trkpt>
      <trkpt lat="42.79033955" lon="13.48319213">
        <ele>617.00000</ele>
        <time>2024-02-16T12:52:09Z</time>
      </trkpt>
      <trkpt lat="42.79034399" lon="13.48312541">
        <ele>618.00000</ele>
        <time>2024-02-16T12:52:10Z</time>
      </trkpt>
      <trkpt lat="42.79034013" lon="13.48306481">
        <ele>618.00000</ele>
        <time>2024-02-16T12:52:11Z</time>
      </trkpt>
      <trkpt lat="42.79032655" lon="13.48300782">
        <ele>618.00000</ele>
        <time>2024-02-16T12:52:12Z</time>
      </trkpt>
      <trkpt lat="42.79030208" lon="13.48297705">
        <ele>617.00000</ele>
        <time>2024-02-16T12:52:13Z</time>
      </trkpt>
      <trkpt lat="42.79024802" lon="13.48293489">
        <ele>614.00000</ele>
        <time>2024-02-16T12:52:14Z</time>
      </trkpt>
      <trkpt lat="42.79020141" lon="13.48289642">
        <ele>612.00000</ele>
        <time>2024-02-16T12:52:15Z</time>
      </trkpt>
      <trkpt lat="42.79016638" lon="13.48286448">
        <ele>610.00000</ele>
        <time>2024-02-16T12:52:16Z</time>
      </trkpt>
      <trkpt lat="42.79013847" lon="13.48281956">
        <ele>609.00000</ele>
        <time>2024-02-16T12:52:17Z</time>
      </trkpt>
      <trkpt lat="42.79010930" lon="13.48276935">
        <ele>608.00000</ele>
        <time>2024-02-16T12:52:18Z</time>
      </trkpt>
      <trkpt lat="42.79008323" lon="13.48272803">
        <ele>608.00000</ele>
        <time>2024-02-16T12:52:19Z</time>
      </trkpt>
      <trkpt lat="42.79004157" lon="13.48269316">
        <ele>606.00000</ele>
        <time>2024-02-16T12:52:20Z</time>
      </trkpt>
      <trkpt lat="42.79000092" lon="13.48267447">
        <ele>604.00000</ele>
        <time>2024-02-16T12:52:21Z</time>
      </trkpt>
      <trkpt lat="42.78996915" lon="13.48266441">
        <ele>604.00000</ele>
        <time>2024-02-16T12:52:22Z</time>
      </trkpt>
      <trkpt lat="42.78991945" lon="13.48265251">
        <ele>603.00000</ele>
        <time>2024-02-16T12:52:23Z</time>
      </trkpt>
      <trkpt lat="42.78987745" lon="13.48263977">
        <ele>602.00000</ele>
        <time>2024-02-16T12:52:24Z</time>
      </trkpt>
      <trkpt lat="42.78983823" lon="13.48261303">
        <ele>601.00000</ele>
        <time>2024-02-16T12:52:25Z</time>
      </trkpt>
      <trkpt lat="42.78981090" lon="13.48257020">
        <ele>602.00000</ele>
        <time>2024-02-16T12:52:26Z</time>
      </trkpt>
      <trkpt lat="42.78979271" lon="13.48253122">
        <ele>602.00000</ele>
        <time>2024-02-16T12:52:27Z</time>
      </trkpt>
      <trkpt lat="42.78978366" lon="13.48248747">
        <ele>604.00000</ele>
        <time>2024-02-16T12:52:28Z</time>
      </trkpt>
      <trkpt lat="42.78977561" lon="13.48243340">
        <ele>606.00000</ele>
        <time>2024-02-16T12:52:29Z</time>
      </trkpt>
      <trkpt lat="42.78977058" lon="13.48237632">
        <ele>609.00000</ele>
        <time>2024-02-16T12:52:30Z</time>
      </trkpt>
      <trkpt lat="42.78976279" lon="13.48232846">
        <ele>611.00000</ele>
        <time>2024-02-16T12:52:31Z</time>
      </trkpt>
      <trkpt lat="42.78974737" lon="13.48225856">
        <ele>614.00000</ele>
        <time>2024-02-16T12:52:32Z</time>
      </trkpt>
      <trkpt lat="42.78972876" lon="13.48219712">
        <ele>617.00000</ele>
        <time>2024-02-16T12:52:33Z</time>
      </trkpt>
      <trkpt lat="42.78970713" lon="13.48213853">
        <ele>619.00000</ele>
        <time>2024-02-16T12:52:34Z</time>
      </trkpt>
      <trkpt lat="42.78967780" lon="13.48208807">
        <ele>621.00000</ele>
        <time>2024-02-16T12:52:35Z</time>
      </trkpt>
      <trkpt lat="42.78965156" lon="13.48205655">
        <ele>622.00000</ele>
        <time>2024-02-16T12:52:36Z</time>
      </trkpt>
      <trkpt lat="42.78960764" lon="13.48201464">
        <ele>623.00000</ele>
        <time>2024-02-16T12:52:37Z</time>
      </trkpt>
      <trkpt lat="42.78956816" lon="13.48197885">
        <ele>624.00000</ele>
        <time>2024-02-16T12:52:38Z</time>
      </trkpt>
      <trkpt lat="42.78952550" lon="13.48194558">
        <ele>625.00000</ele>
        <time>2024-02-16T12:52:39Z</time>
      </trkpt>
      <trkpt lat="42.78948359" lon="13.48191993">
        <ele>626.00000</ele>
        <time>2024-02-16T12:52:40Z</time>
      </trkpt>
      <trkpt lat="42.78944738" lon="13.48190124">
        <ele>626.00000</ele>
        <time>2024-02-16T12:52:41Z</time>
      </trkpt>
      <trkpt lat="42.78939541" lon="13.48187969">
        <ele>625.00000</ele>
        <time>2024-02-16T12:52:42Z</time>
      </trkpt>
      <trkpt lat="42.78935216" lon="13.48187115">
        <ele>624.00000</ele>
        <time>2024-02-16T12:52:43Z</time>
      </trkpt>
      <trkpt lat="42.78930857" lon="13.48186980">
        <ele>623.00000</ele>
        <time>2024-02-16T12:52:44Z</time>
      </trkpt>
      <trkpt lat="42.78927337" lon="13.48187081">
        <ele>621.00000</ele>
        <time>2024-02-16T12:52:45Z</time>
      </trkpt>
      <trkpt lat="42.78923272" lon="13.48187349">
        <ele>620.00000</ele>
        <time>2024-02-16T12:52:46Z</time>
      </trkpt>
      <trkpt lat="42.78918360" lon="13.48187676">
        <ele>618.00000</ele>
        <time>2024-02-16T12:52:47Z</time>
      </trkpt>
      <trkpt lat="42.78914295" lon="13.48188464">
        <ele>615.00000</ele>
        <time>2024-02-16T12:52:48Z</time>
      </trkpt>
      <trkpt lat="42.78910028" lon="13.48189537">
        <ele>611.00000</ele>
        <time>2024-02-16T12:52:49Z</time>
      </trkpt>
      <trkpt lat="42.78906282" lon="13.48190451">
        <ele>608.00000</ele>
        <time>2024-02-16T12:52:50Z</time>
      </trkpt>
      <trkpt lat="42.78901454" lon="13.48191180">
        <ele>604.00000</ele>
        <time>2024-02-16T12:52:51Z</time>
      </trkpt>
      <trkpt lat="42.78896466" lon="13.48190878">
        <ele>601.00000</ele>
        <time>2024-02-16T12:52:52Z</time>
      </trkpt>
      <trkpt lat="42.78890884" lon="13.48188682">
        <ele>598.00000</ele>
        <time>2024-02-16T12:52:53Z</time>
      </trkpt>
      <trkpt lat="42.78887121" lon="13.48185354">
        <ele>597.00000</ele>
        <time>2024-02-16T12:52:54Z</time>
      </trkpt>
      <trkpt lat="42.78884380" lon="13.48182328">
        <ele>598.00000</ele>
        <time>2024-02-16T12:52:55Z</time>
      </trkpt>
      <trkpt lat="42.78880733" lon="13.48177425">
        <ele>598.00000</ele>
        <time>2024-02-16T12:52:56Z</time>
      </trkpt>
      <trkpt lat="42.78878294" lon="13.48173712">
        <ele>599.00000</ele>
        <time>2024-02-16T12:52:57Z</time>
      </trkpt>
      <trkpt lat="42.78875813" lon="13.48168993">
        <ele>599.00000</ele>
        <time>2024-02-16T12:52:58Z</time>
      </trkpt>
      <trkpt lat="42.78874179" lon="13.48163209">
        <ele>601.00000</ele>
        <time>2024-02-16T12:52:59Z</time>
      </trkpt>
      <trkpt lat="42.78873005" lon="13.48157459">
        <ele>603.00000</ele>
        <time>2024-02-16T12:53:00Z</time>
      </trkpt>
      <trkpt lat="42.78872419" lon="13.48151315">
        <ele>606.00000</ele>
        <time>2024-02-16T12:53:01Z</time>
      </trkpt>
      <trkpt lat="42.78871949" lon="13.48143571">
        <ele>610.00000</ele>
        <time>2024-02-16T12:53:02Z</time>
      </trkpt>
      <trkpt lat="42.78871488" lon="13.48136790">
        <ele>614.00000</ele>
        <time>2024-02-16T12:53:03Z</time>
      </trkpt>
      <trkpt lat="42.78870742" lon="13.48131626">
        <ele>616.00000</ele>
        <time>2024-02-16T12:53:04Z</time>
      </trkpt>
      <trkpt lat="42.78870181" lon="13.48125323">
        <ele>619.00000</ele>
        <time>2024-02-16T12:53:05Z</time>
      </trkpt>
      <trkpt lat="42.78869669" lon="13.48118869">
        <ele>622.00000</ele>
        <time>2024-02-16T12:53:06Z</time>
      </trkpt>
      <trkpt lat="42.78868529" lon="13.48112708">
        <ele>624.00000</ele>
        <time>2024-02-16T12:53:07Z</time>
      </trkpt>
      <trkpt lat="42.78866057" lon="13.48105709">
        <ele>626.00000</ele>
        <time>2024-02-16T12:53:08Z</time>
      </trkpt>
      <trkpt lat="42.78864003" lon="13.48101267">
        <ele>626.00000</ele>
        <time>2024-02-16T12:53:09Z</time>
      </trkpt>
      <trkpt lat="42.78861262" lon="13.48096146">
        <ele>626.00000</ele>
        <time>2024-02-16T12:53:10Z</time>
      </trkpt>
      <trkpt lat="42.78857901" lon="13.48091452">
        <ele>626.00000</ele>
        <time>2024-02-16T12:53:11Z</time>
      </trkpt>
      <trkpt lat="42.78853534" lon="13.48086196">
        <ele>625.00000</ele>
        <time>2024-02-16T12:53:12Z</time>
      </trkpt>
      <trkpt lat="42.78849343" lon="13.48082106">
        <ele>624.00000</ele>
        <time>2024-02-16T12:53:13Z</time>
      </trkpt>
      <trkpt lat="42.78845421" lon="13.48078871">
        <ele>623.00000</ele>
        <time>2024-02-16T12:53:14Z</time>
      </trkpt>
      <trkpt lat="42.78840894" lon="13.48075644">
        <ele>621.00000</ele>
        <time>2024-02-16T12:53:15Z</time>
      </trkpt>
      <trkpt lat="42.78836234" lon="13.48072961">
        <ele>619.00000</ele>
        <time>2024-02-16T12:53:16Z</time>
      </trkpt>
      <trkpt lat="42.78830509" lon="13.48069994">
        <ele>616.00000</ele>
        <time>2024-02-16T12:53:17Z</time>
      </trkpt>
      <trkpt lat="42.78825773" lon="13.48067438">
        <ele>614.00000</ele>
        <time>2024-02-16T12:53:18Z</time>
      </trkpt>
      <trkpt lat="42.78821339" lon="13.48064714">
        <ele>612.00000</ele>
        <time>2024-02-16T12:53:19Z</time>
      </trkpt>
      <trkpt lat="42.78817827" lon="13.48062283">
        <ele>611.00000</ele>
        <time>2024-02-16T12:53:20Z</time>
      </trkpt>
      <trkpt lat="42.78812874" lon="13.48057069">
        <ele>610.00000</ele>
        <time>2024-02-16T12:53:21Z</time>
      </trkpt>
      <trkpt lat="42.78809672" lon="13.48051655">
        <ele>610.00000</ele>
        <time>2024-02-16T12:53:22Z</time>
      </trkpt>
      <trkpt lat="42.78807995" lon="13.48045477">
        <ele>610.00000</ele>
        <time>2024-02-16T12:53:23Z</time>
      </trkpt>
      <trkpt lat="42.78807300" lon="13.48039803">
        <ele>612.00000</ele>
        <time>2024-02-16T12:53:24Z</time>
      </trkpt>
      <trkpt lat="42.78807677" lon="13.48032854">
        <ele>614.00000</ele>
        <time>2024-02-16T12:53:25Z</time>
      </trkpt>
      <trkpt lat="42.78809756" lon="13.48025453">
        <ele>617.00000</ele>
        <time>2024-02-16T12:53:26Z</time>
      </trkpt>
      <trkpt lat="42.78811516" lon="13.48018286">
        <ele>620.00000</ele>
        <time>2024-02-16T12:53:27Z</time>
      </trkpt>
      <trkpt lat="42.78813075" lon="13.48010902">
        <ele>623.00000</ele>
        <time>2024-02-16T12:53:28Z</time>
      </trkpt>
      <trkpt lat="42.78813536" lon="13.48003559">
        <ele>625.00000</ele>
        <time>2024-02-16T12:53:29Z</time>
      </trkpt>
      <trkpt lat="42.78811817" lon="13.47997323">
        <ele>627.00000</ele>
        <time>2024-02-16T12:53:30Z</time>
      </trkpt>
      <trkpt lat="42.78808264" lon="13.47992252">
        <ele>628.00000</ele>
        <time>2024-02-16T12:53:31Z</time>
      </trkpt>
      <trkpt lat="42.78803033" lon="13.47987558">
        <ele>629.00000</ele>
        <time>2024-02-16T12:53:32Z</time>
      </trkpt>
      <trkpt lat="42.78799035" lon="13.47984960">
        <ele>630.00000</ele>
        <time>2024-02-16T12:53:33Z</time>
      </trkpt>
      <trkpt lat="42.78794400" lon="13.47982043">
        <ele>630.00000</ele>
        <time>2024-02-16T12:53:34Z</time>
      </trkpt>
      <trkpt lat="42.78789957" lon="13.47979512">
        <ele>630.00000</ele>
        <time>2024-02-16T12:53:35Z</time>
      </trkpt>
      <trkpt lat="42.78785130" lon="13.47977458">
        <ele>630.00000</ele>
        <time>2024-02-16T12:53:36Z</time>
      </trkpt>
      <trkpt lat="42.78780268" lon="13.47975648">
        <ele>629.00000</ele>
        <time>2024-02-16T12:53:37Z</time>
      </trkpt>
      <trkpt lat="42.78775541" lon="13.47973946">
        <ele>629.00000</ele>
        <time>2024-02-16T12:53:38Z</time>
      </trkpt>
      <trkpt lat="42.78769807" lon="13.47972286">
        <ele>628.00000</ele>
        <time>2024-02-16T12:53:39Z</time>
      </trkpt>
      <trkpt lat="42.78764108" lon="13.47970543">
        <ele>628.00000</ele>
        <time>2024-02-16T12:53:40Z</time>
      </trkpt>
      <trkpt lat="42.78758609" lon="13.47969009">
        <ele>627.00000</ele>
        <time>2024-02-16T12:53:41Z</time>
      </trkpt>
      <trkpt lat="42.78753094" lon="13.47967274">
        <ele>627.00000</ele>
        <time>2024-02-16T12:53:42Z</time>
      </trkpt>
      <trkpt lat="42.78747813" lon="13.47966729">
        <ele>625.00000</ele>
        <time>2024-02-16T12:53:43Z</time>
      </trkpt>
      <trkpt lat="42.78743069" lon="13.47965531">
        <ele>624.00000</ele>
        <time>2024-02-16T12:53:44Z</time>
      </trkpt>
      <trkpt lat="42.78737286" lon="13.47963779">
        <ele>623.00000</ele>
        <time>2024-02-16T12:53:45Z</time>
      </trkpt>
      <trkpt lat="42.78732432" lon="13.47960703">
        <ele>622.00000</ele>
        <time>2024-02-16T12:53:46Z</time>
      </trkpt>
      <trkpt lat="42.78727915" lon="13.47955171">
        <ele>622.00000</ele>
        <time>2024-02-16T12:53:47Z</time>
      </trkpt>
      <trkpt lat="42.78724369" lon="13.47948524">
        <ele>622.00000</ele>
        <time>2024-02-16T12:53:48Z</time>
      </trkpt>
      <trkpt lat="42.78723757" lon="13.47940301">
        <ele>624.00000</ele>
        <time>2024-02-16T12:53:49Z</time>
      </trkpt>
      <trkpt lat="42.78721016" lon="13.47934082">
        <ele>624.00000</ele>
        <time>2024-02-16T12:53:50Z</time>
      </trkpt>
      <trkpt lat="42.78717270" lon="13.47927971">
        <ele>624.00000</ele>
        <time>2024-02-16T12:53:51Z</time>
      </trkpt>
      <trkpt lat="42.78714638" lon="13.47919011">
        <ele>625.00000</ele>
        <time>2024-02-16T12:53:52Z</time>
      </trkpt>
      <trkpt lat="42.78710640" lon="13.47909640">
        <ele>626.00000</ele>
        <time>2024-02-16T12:53:53Z</time>
      </trkpt>
      <trkpt lat="42.78707932" lon="13.47904200">
        <ele>626.00000</ele>
        <time>2024-02-16T12:53:54Z</time>
      </trkpt>
      <trkpt lat="42.78704244" lon="13.47897931">
        <ele>627.00000</ele>
        <time>2024-02-16T12:53:55Z</time>
      </trkpt>
      <trkpt lat="42.78699818" lon="13.47892784">
        <ele>628.00000</ele>
        <time>2024-02-16T12:53:56Z</time>
      </trkpt>
      <trkpt lat="42.78693549" lon="13.47888710">
        <ele>628.00000</ele>
        <time>2024-02-16T12:53:57Z</time>
      </trkpt>
      <trkpt lat="42.78689433" lon="13.47887545">
        <ele>628.00000</ele>
        <time>2024-02-16T12:53:58Z</time>
      </trkpt>
      <trkpt lat="42.78684253" lon="13.47886338">
        <ele>627.00000</ele>
        <time>2024-02-16T12:53:59Z</time>
      </trkpt>
      <trkpt lat="42.78679425" lon="13.47884813">
        <ele>626.00000</ele>
        <time>2024-02-16T12:54:00Z</time>
      </trkpt>
      <trkpt lat="42.78674371" lon="13.47882843">
        <ele>626.00000</ele>
        <time>2024-02-16T12:54:01Z</time>
      </trkpt>
      <trkpt lat="42.78669484" lon="13.47880370">
        <ele>625.00000</ele>
        <time>2024-02-16T12:54:02Z</time>
      </trkpt>
      <trkpt lat="42.78664866" lon="13.47877244">
        <ele>625.00000</ele>
        <time>2024-02-16T12:54:03Z</time>
      </trkpt>
      <trkpt lat="42.78660424" lon="13.47874092">
        <ele>625.00000</ele>
        <time>2024-02-16T12:54:04Z</time>
      </trkpt>
      <trkpt lat="42.78656392" lon="13.47871083">
        <ele>625.00000</ele>
        <time>2024-02-16T12:54:05Z</time>
      </trkpt>
      <trkpt lat="42.78652360" lon="13.47867446">
        <ele>625.00000</ele>
        <time>2024-02-16T12:54:06Z</time>
      </trkpt>
      <trkpt lat="42.78648194" lon="13.47863255">
        <ele>625.00000</ele>
        <time>2024-02-16T12:54:07Z</time>
      </trkpt>
      <trkpt lat="42.78644280" lon="13.47858519">
        <ele>626.00000</ele>
        <time>2024-02-16T12:54:08Z</time>
      </trkpt>
      <trkpt lat="42.78640424" lon="13.47853842">
        <ele>626.00000</ele>
        <time>2024-02-16T12:54:09Z</time>
      </trkpt>
      <trkpt lat="42.78636443" lon="13.47848955">
        <ele>626.00000</ele>
        <time>2024-02-16T12:54:10Z</time>
      </trkpt>
      <trkpt lat="42.78632512" lon="13.47843599">
        <ele>627.00000</ele>
        <time>2024-02-16T12:54:11Z</time>
      </trkpt>
      <trkpt lat="42.78628757" lon="13.47838176">
        <ele>629.00000</ele>
        <time>2024-02-16T12:54:12Z</time>
      </trkpt>
      <trkpt lat="42.78624960" lon="13.47832711">
        <ele>630.00000</ele>
        <time>2024-02-16T12:54:13Z</time>
      </trkpt>
      <trkpt lat="42.78621565" lon="13.47827279">
        <ele>631.00000</ele>
        <time>2024-02-16T12:54:14Z</time>
      </trkpt>
      <trkpt lat="42.78618464" lon="13.47821588">
        <ele>631.00000</ele>
        <time>2024-02-16T12:54:15Z</time>
      </trkpt>
      <trkpt lat="42.78615689" lon="13.47816148">
        <ele>631.00000</ele>
        <time>2024-02-16T12:54:16Z</time>
      </trkpt>
      <trkpt lat="42.78612814" lon="13.47811027">
        <ele>631.00000</ele>
        <time>2024-02-16T12:54:17Z</time>
      </trkpt>
      <trkpt lat="42.78609839" lon="13.47805813">
        <ele>631.00000</ele>
        <time>2024-02-16T12:54:18Z</time>
      </trkpt>
      <trkpt lat="42.78606528" lon="13.47800860">
        <ele>632.00000</ele>
        <time>2024-02-16T12:54:19Z</time>
      </trkpt>
      <trkpt lat="42.78603184" lon="13.47796141">
        <ele>632.00000</ele>
        <time>2024-02-16T12:54:20Z</time>
      </trkpt>
      <trkpt lat="42.78600568" lon="13.47791631">
        <ele>632.00000</ele>
        <time>2024-02-16T12:54:21Z</time>
      </trkpt>
      <trkpt lat="42.78597895" lon="13.47787256">
        <ele>632.00000</ele>
        <time>2024-02-16T12:54:22Z</time>
      </trkpt>
      <trkpt lat="42.78595305" lon="13.47782788">
        <ele>632.00000</ele>
        <time>2024-02-16T12:54:23Z</time>
      </trkpt>
      <trkpt lat="42.78592958" lon="13.47778455">
        <ele>632.00000</ele>
        <time>2024-02-16T12:54:24Z</time>
      </trkpt>
      <trkpt lat="42.78590787" lon="13.47774180">
        <ele>632.00000</ele>
        <time>2024-02-16T12:54:25Z</time>
      </trkpt>
      <trkpt lat="42.78588599" lon="13.47770165">
        <ele>633.00000</ele>
        <time>2024-02-16T12:54:26Z</time>
      </trkpt>
      <trkpt lat="42.78585992" lon="13.47765639">
        <ele>633.00000</ele>
        <time>2024-02-16T12:54:27Z</time>
      </trkpt>
      <trkpt lat="42.78584274" lon="13.47762814">
        <ele>633.00000</ele>
        <time>2024-02-16T12:54:28Z</time>
      </trkpt>
      <trkpt lat="42.78582011" lon="13.47759143">
        <ele>633.00000</ele>
        <time>2024-02-16T12:54:29Z</time>
      </trkpt>
      <trkpt lat="42.78579588" lon="13.47755664">
        <ele>633.00000</ele>
        <time>2024-02-16T12:54:30Z</time>
      </trkpt>
      <trkpt lat="42.78576982" lon="13.47751591">
        <ele>633.00000</ele>
        <time>2024-02-16T12:54:31Z</time>
      </trkpt>
      <trkpt lat="42.78575632" lon="13.47748733">
        <ele>634.00000</ele>
        <time>2024-02-16T12:54:32Z</time>
      </trkpt>
      <trkpt lat="42.78574350" lon="13.47745313">
        <ele>634.00000</ele>
        <time>2024-02-16T12:54:33Z</time>
      </trkpt>
      <trkpt lat="42.78573411" lon="13.47741893">
        <ele>635.00000</ele>
        <time>2024-02-16T12:54:34Z</time>
      </trkpt>
      <trkpt lat="42.78573143" lon="13.47738582">
        <ele>636.00000</ele>
        <time>2024-02-16T12:54:35Z</time>
      </trkpt>
      <trkpt lat="42.78574601" lon="13.47735322">
        <ele>636.00000</ele>
        <time>2024-02-16T12:54:36Z</time>
      </trkpt>
      <trkpt lat="42.78575884" lon="13.47734676">
        <ele>637.00000</ele>
        <time>2024-02-16T12:54:37Z</time>
      </trkpt>
      <trkpt lat="42.78577820" lon="13.47735598">
        <ele>636.00000</ele>
        <time>2024-02-16T12:54:38Z</time>
      </trkpt>
      <trkpt lat="42.78580158" lon="13.47737216">
        <ele>636.00000</ele>
        <time>2024-02-16T12:54:39Z</time>
      </trkpt>
      <trkpt lat="42.78582841" lon="13.47738976">
        <ele>636.00000</ele>
        <time>2024-02-16T12:54:40Z</time>
      </trkpt>
      <trkpt lat="42.78585892" lon="13.47741432">
        <ele>636.00000</ele>
        <time>2024-02-16T12:54:41Z</time>
      </trkpt>
      <trkpt lat="42.78588389" lon="13.47743812">
        <ele>636.00000</ele>
        <time>2024-02-16T12:54:42Z</time>
      </trkpt>
      <trkpt lat="42.78590586" lon="13.47745908">
        <ele>636.00000</ele>
        <time>2024-02-16T12:54:43Z</time>
      </trkpt>
      <trkpt lat="42.78593125" lon="13.47748875">
        <ele>635.00000</ele>
        <time>2024-02-16T12:54:44Z</time>
      </trkpt>
      <trkpt lat="42.78595698" lon="13.47751859">
        <ele>635.00000</ele>
        <time>2024-02-16T12:54:45Z</time>
      </trkpt>
      <trkpt lat="42.78598615" lon="13.47754407">
        <ele>635.00000</ele>
        <time>2024-02-16T12:54:46Z</time>
      </trkpt>
      <trkpt lat="42.78602203" lon="13.47757106">
        <ele>635.00000</ele>
        <time>2024-02-16T12:54:47Z</time>
      </trkpt>
      <trkpt lat="42.78604550" lon="13.47759470">
        <ele>635.00000</ele>
        <time>2024-02-16T12:54:48Z</time>
      </trkpt>
      <trkpt lat="42.78607240" lon="13.47762085">
        <ele>635.00000</ele>
        <time>2024-02-16T12:54:49Z</time>
      </trkpt>
      <trkpt lat="42.78610032" lon="13.47764340">
        <ele>635.00000</ele>
        <time>2024-02-16T12:54:50Z</time>
      </trkpt>
      <trkpt lat="42.78612974" lon="13.47766167">
        <ele>635.00000</ele>
        <time>2024-02-16T12:54:51Z</time>
      </trkpt>
      <trkpt lat="42.78616150" lon="13.47767366">
        <ele>636.00000</ele>
        <time>2024-02-16T12:54:52Z</time>
      </trkpt>
      <trkpt lat="42.78619604" lon="13.47766662">
        <ele>636.00000</ele>
        <time>2024-02-16T12:54:53Z</time>
      </trkpt>
      <trkpt lat="42.78621347" lon="13.47763761">
        <ele>637.00000</ele>
        <time>2024-02-16T12:54:54Z</time>
      </trkpt>
      <trkpt lat="42.78620752" lon="13.47758942">
        <ele>638.00000</ele>
        <time>2024-02-16T12:54:55Z</time>
      </trkpt>
      <trkpt lat="42.78619545" lon="13.47756243">
        <ele>638.00000</ele>
        <time>2024-02-16T12:54:56Z</time>
      </trkpt>
      <trkpt lat="42.78617550" lon="13.47752563">
        <ele>638.00000</ele>
        <time>2024-02-16T12:54:57Z</time>
      </trkpt>
      <trkpt lat="42.78615958" lon="13.47750275">
        <ele>638.00000</ele>
        <time>2024-02-16T12:54:58Z</time>
      </trkpt>
      <trkpt lat="42.78613493" lon="13.47747400">
        <ele>639.00000</ele>
        <time>2024-02-16T12:54:59Z</time>
      </trkpt>
      <trkpt lat="42.78610895" lon="13.47743980">
        <ele>639.00000</ele>
        <time>2024-02-16T12:55:00Z</time>
      </trkpt>
      <trkpt lat="42.78609369" lon="13.47741683">
        <ele>640.00000</ele>
        <time>2024-02-16T12:55:01Z</time>
      </trkpt>
      <trkpt lat="42.78607266" lon="13.47738808">
        <ele>640.00000</ele>
        <time>2024-02-16T12:55:02Z</time>
      </trkpt>
      <trkpt lat="42.78605287" lon="13.47735925">
        <ele>641.00000</ele>
        <time>2024-02-16T12:55:03Z</time>
      </trkpt>
      <trkpt lat="42.78603225" lon="13.47733017">
        <ele>641.00000</ele>
        <time>2024-02-16T12:55:04Z</time>
      </trkpt>
      <trkpt lat="42.78600753" lon="13.47729203">
        <ele>642.00000</ele>
        <time>2024-02-16T12:55:05Z</time>
      </trkpt>
      <trkpt lat="42.78599303" lon="13.47726646">
        <ele>642.00000</ele>
        <time>2024-02-16T12:55:06Z</time>
      </trkpt>
      <trkpt lat="42.78597517" lon="13.47723528">
        <ele>643.00000</ele>
        <time>2024-02-16T12:55:07Z</time>
      </trkpt>
      <trkpt lat="42.78595682" lon="13.47720536">
        <ele>643.00000</ele>
        <time>2024-02-16T12:55:08Z</time>
      </trkpt>
      <trkpt lat="42.78594030" lon="13.47717694">
        <ele>643.00000</ele>
        <time>2024-02-16T12:55:09Z</time>
      </trkpt>
      <trkpt lat="42.78592664" lon="13.47714736">
        <ele>643.00000</ele>
        <time>2024-02-16T12:55:10Z</time>
      </trkpt>
      <trkpt lat="42.78591365" lon="13.47711986">
        <ele>643.00000</ele>
        <time>2024-02-16T12:55:11Z</time>
      </trkpt>
      <trkpt lat="42.78589873" lon="13.47709371">
        <ele>643.00000</ele>
        <time>2024-02-16T12:55:12Z</time>
      </trkpt>
      <trkpt lat="42.78588482" lon="13.47706723">
        <ele>643.00000</ele>
        <time>2024-02-16T12:55:13Z</time>
      </trkpt>
      <trkpt lat="42.78586948" lon="13.47703864">
        <ele>643.00000</ele>
        <time>2024-02-16T12:55:14Z</time>
      </trkpt>
      <trkpt lat="42.78585623" lon="13.47701090">
        <ele>643.00000</ele>
        <time>2024-02-16T12:55:15Z</time>
      </trkpt>
      <trkpt lat="42.78584299" lon="13.47698383">
        <ele>643.00000</ele>
        <time>2024-02-16T12:55:16Z</time>
      </trkpt>
      <trkpt lat="42.78582648" lon="13.47695583">
        <ele>643.00000</ele>
        <time>2024-02-16T12:55:17Z</time>
      </trkpt>
      <trkpt lat="42.78580242" lon="13.47692389">
        <ele>644.00000</ele>
        <time>2024-02-16T12:55:18Z</time>
      </trkpt>
      <trkpt lat="42.78577979" lon="13.47689037">
        <ele>645.00000</ele>
        <time>2024-02-16T12:55:19Z</time>
      </trkpt>
      <trkpt lat="42.78575825" lon="13.47685801">
        <ele>646.00000</ele>
        <time>2024-02-16T12:55:20Z</time>
      </trkpt>
      <trkpt lat="42.78573855" lon="13.47682926">
        <ele>647.00000</ele>
        <time>2024-02-16T12:55:21Z</time>
      </trkpt>
      <trkpt lat="42.78571877" lon="13.47679481">
        <ele>647.00000</ele>
        <time>2024-02-16T12:55:22Z</time>
      </trkpt>
      <trkpt lat="42.78569899" lon="13.47676355">
        <ele>648.00000</ele>
        <time>2024-02-16T12:55:23Z</time>
      </trkpt>
      <trkpt lat="42.78567669" lon="13.47672927">
        <ele>648.00000</ele>
        <time>2024-02-16T12:55:24Z</time>
      </trkpt>
      <trkpt lat="42.78565406" lon="13.47669624">
        <ele>649.00000</ele>
        <time>2024-02-16T12:55:25Z</time>
      </trkpt>
      <trkpt lat="42.78563386" lon="13.47666732">
        <ele>649.00000</ele>
        <time>2024-02-16T12:55:26Z</time>
      </trkpt>
      <trkpt lat="42.78561232" lon="13.47663816">
        <ele>650.00000</ele>
        <time>2024-02-16T12:55:27Z</time>
      </trkpt>
      <trkpt lat="42.78559212" lon="13.47660647">
        <ele>650.00000</ele>
        <time>2024-02-16T12:55:28Z</time>
      </trkpt>
      <trkpt lat="42.78556924" lon="13.47657420">
        <ele>651.00000</ele>
        <time>2024-02-16T12:55:29Z</time>
      </trkpt>
      <trkpt lat="42.78554979" lon="13.47654361">
        <ele>651.00000</ele>
        <time>2024-02-16T12:55:30Z</time>
      </trkpt>
      <trkpt lat="42.78553051" lon="13.47651435">
        <ele>652.00000</ele>
        <time>2024-02-16T12:55:31Z</time>
      </trkpt>
      <trkpt lat="42.78550922" lon="13.47648636">
        <ele>653.00000</ele>
        <time>2024-02-16T12:55:32Z</time>
      </trkpt>
      <trkpt lat="42.78548953" lon="13.47646172">
        <ele>654.00000</ele>
        <time>2024-02-16T12:55:33Z</time>
      </trkpt>
      <trkpt lat="42.78546924" lon="13.47643322">
        <ele>655.00000</ele>
        <time>2024-02-16T12:55:34Z</time>
      </trkpt>
      <trkpt lat="42.78545022" lon="13.47640614">
        <ele>656.00000</ele>
        <time>2024-02-16T12:55:35Z</time>
      </trkpt>
      <trkpt lat="42.78542608" lon="13.47637496">
        <ele>656.00000</ele>
        <time>2024-02-16T12:55:36Z</time>
      </trkpt>
      <trkpt lat="42.78540219" lon="13.47634714">
        <ele>657.00000</ele>
        <time>2024-02-16T12:55:37Z</time>
      </trkpt>
      <trkpt lat="42.78537930" lon="13.47632685">
        <ele>658.00000</ele>
        <time>2024-02-16T12:55:38Z</time>
      </trkpt>
      <trkpt lat="42.78535818" lon="13.47630238">
        <ele>658.00000</ele>
        <time>2024-02-16T12:55:39Z</time>
      </trkpt>
      <trkpt lat="42.78533731" lon="13.47627614">
        <ele>659.00000</ele>
        <time>2024-02-16T12:55:40Z</time>
      </trkpt>
      <trkpt lat="42.78531753" lon="13.47625385">
        <ele>659.00000</ele>
        <time>2024-02-16T12:55:41Z</time>
      </trkpt>
      <trkpt lat="42.78529792" lon="13.47623473">
        <ele>660.00000</ele>
        <time>2024-02-16T12:55:42Z</time>
      </trkpt>
      <trkpt lat="42.78528274" lon="13.47621998">
        <ele>660.00000</ele>
        <time>2024-02-16T12:55:43Z</time>
      </trkpt>
      <trkpt lat="42.78526238" lon="13.47619836">
        <ele>660.00000</ele>
        <time>2024-02-16T12:55:44Z</time>
      </trkpt>
      <trkpt lat="42.78523907" lon="13.47617262">
        <ele>661.00000</ele>
        <time>2024-02-16T12:55:45Z</time>
      </trkpt>
      <trkpt lat="42.78521686" lon="13.47614840">
        <ele>662.00000</ele>
        <time>2024-02-16T12:55:46Z</time>
      </trkpt>
      <trkpt lat="42.78519608" lon="13.47612736">
        <ele>662.00000</ele>
        <time>2024-02-16T12:55:47Z</time>
      </trkpt>
      <trkpt lat="42.78517194" lon="13.47610423">
        <ele>663.00000</ele>
        <time>2024-02-16T12:55:48Z</time>
      </trkpt>
      <trkpt lat="42.78514947" lon="13.47608017">
        <ele>663.00000</ele>
        <time>2024-02-16T12:55:49Z</time>
      </trkpt>
      <trkpt lat="42.78512801" lon="13.47605612">
        <ele>663.00000</ele>
        <time>2024-02-16T12:55:50Z</time>
      </trkpt>
      <trkpt lat="42.78509910" lon="13.47602435">
        <ele>664.00000</ele>
        <time>2024-02-16T12:55:51Z</time>
      </trkpt>
      <trkpt lat="42.78507797" lon="13.47599795">
        <ele>664.00000</ele>
        <time>2024-02-16T12:55:52Z</time>
      </trkpt>
      <trkpt lat="42.78505199" lon="13.47597138">
        <ele>664.00000</ele>
        <time>2024-02-16T12:55:53Z</time>
      </trkpt>
      <trkpt lat="42.78502802" lon="13.47594908">
        <ele>664.00000</ele>
        <time>2024-02-16T12:55:54Z</time>
      </trkpt>
      <trkpt lat="42.78499918" lon="13.47593206">
        <ele>664.00000</ele>
        <time>2024-02-16T12:55:55Z</time>
      </trkpt>
      <trkpt lat="42.78496725" lon="13.47592209">
        <ele>665.00000</ele>
        <time>2024-02-16T12:55:56Z</time>
      </trkpt>
      <trkpt lat="42.78494076" lon="13.47592351">
        <ele>665.00000</ele>
        <time>2024-02-16T12:55:57Z</time>
      </trkpt>
      <trkpt lat="42.78491176" lon="13.47593994">
        <ele>666.00000</ele>
        <time>2024-02-16T12:55:58Z</time>
      </trkpt>
      <trkpt lat="42.78488536" lon="13.47597490">
        <ele>666.00000</ele>
        <time>2024-02-16T12:55:59Z</time>
      </trkpt>
      <trkpt lat="42.78487144" lon="13.47601278">
        <ele>665.00000</ele>
        <time>2024-02-16T12:56:00Z</time>
      </trkpt>
      <trkpt lat="42.78486147" lon="13.47605260">
        <ele>665.00000</ele>
        <time>2024-02-16T12:56:01Z</time>
      </trkpt>
      <trkpt lat="42.78485510" lon="13.47609107">
        <ele>665.00000</ele>
        <time>2024-02-16T12:56:02Z</time>
      </trkpt>
      <trkpt lat="42.78485250" lon="13.47612443">
        <ele>664.00000</ele>
        <time>2024-02-16T12:56:03Z</time>
      </trkpt>
      <trkpt lat="42.78485150" lon="13.47616869">
        <ele>664.00000</ele>
        <time>2024-02-16T12:56:04Z</time>
      </trkpt>
      <trkpt lat="42.78485015" lon="13.47622853">
        <ele>663.00000</ele>
        <time>2024-02-16T12:56:05Z</time>
      </trkpt>
      <trkpt lat="42.78485150" lon="13.47628117">
        <ele>663.00000</ele>
        <time>2024-02-16T12:56:06Z</time>
      </trkpt>
      <trkpt lat="42.78485191" lon="13.47632979">
        <ele>662.00000</ele>
        <time>2024-02-16T12:56:07Z</time>
      </trkpt>
      <trkpt lat="42.78485133" lon="13.47636667">
        <ele>662.00000</ele>
        <time>2024-02-16T12:56:08Z</time>
      </trkpt>
      <trkpt lat="42.78485007" lon="13.47641310">
        <ele>661.00000</ele>
        <time>2024-02-16T12:56:09Z</time>
      </trkpt>
      <trkpt lat="42.78484772" lon="13.47647345">
        <ele>661.00000</ele>
        <time>2024-02-16T12:56:10Z</time>
      </trkpt>
      <trkpt lat="42.78484865" lon="13.47652726">
        <ele>660.00000</ele>
        <time>2024-02-16T12:56:11Z</time>
      </trkpt>
      <trkpt lat="42.78484622" lon="13.47658099">
        <ele>660.00000</ele>
        <time>2024-02-16T12:56:12Z</time>
      </trkpt>
      <trkpt lat="42.78484412" lon="13.47663296">
        <ele>659.00000</ele>
        <time>2024-02-16T12:56:13Z</time>
      </trkpt>
      <trkpt lat="42.78484085" lon="13.47668426">
        <ele>659.00000</ele>
        <time>2024-02-16T12:56:14Z</time>
      </trkpt>
      <trkpt lat="42.78483867" lon="13.47673354">
        <ele>658.00000</ele>
        <time>2024-02-16T12:56:15Z</time>
      </trkpt>
      <trkpt lat="42.78483482" lon="13.47678618">
        <ele>658.00000</ele>
        <time>2024-02-16T12:56:16Z</time>
      </trkpt>
      <trkpt lat="42.78483163" lon="13.47683848">
        <ele>657.00000</ele>
        <time>2024-02-16T12:56:17Z</time>
      </trkpt>
      <trkpt lat="42.78483037" lon="13.47688945">
        <ele>656.00000</ele>
        <time>2024-02-16T12:56:18Z</time>
      </trkpt>
      <trkpt lat="42.78482710" lon="13.47694225">
        <ele>656.00000</ele>
        <time>2024-02-16T12:56:19Z</time>
      </trkpt>
      <trkpt lat="42.78482182" lon="13.47699380">
        <ele>655.00000</ele>
        <time>2024-02-16T12:56:20Z</time>
      </trkpt>
      <trkpt lat="42.78481889" lon="13.47704418">
        <ele>655.00000</ele>
        <time>2024-02-16T12:56:21Z</time>
      </trkpt>
      <trkpt lat="42.78481193" lon="13.47709245">
        <ele>654.00000</ele>
        <time>2024-02-16T12:56:22Z</time>
      </trkpt>
      <trkpt lat="42.78480020" lon="13.47714249">
        <ele>654.00000</ele>
        <time>2024-02-16T12:56:23Z</time>
      </trkpt>
      <trkpt lat="42.78478997" lon="13.47719103">
        <ele>653.00000</ele>
        <time>2024-02-16T12:56:24Z</time>
      </trkpt>
      <trkpt lat="42.78477338" lon="13.47722749">
        <ele>653.00000</ele>
        <time>2024-02-16T12:56:25Z</time>
      </trkpt>
      <trkpt lat="42.78474169" lon="13.47727174">
        <ele>653.00000</ele>
        <time>2024-02-16T12:56:26Z</time>
      </trkpt>
      <trkpt lat="42.78470456" lon="13.47729915">
        <ele>653.00000</ele>
        <time>2024-02-16T12:56:27Z</time>
      </trkpt>
      <trkpt lat="42.78466500" lon="13.47731399">
        <ele>652.00000</ele>
        <time>2024-02-16T12:56:28Z</time>
      </trkpt>
      <trkpt lat="42.78462443" lon="13.47731784">
        <ele>651.00000</ele>
        <time>2024-02-16T12:56:29Z</time>
      </trkpt>
      <trkpt lat="42.78457900" lon="13.47730527">
        <ele>651.00000</ele>
        <time>2024-02-16T12:56:30Z</time>
      </trkpt>
      <trkpt lat="42.78453458" lon="13.47728474">
        <ele>650.00000</ele>
        <time>2024-02-16T12:56:31Z</time>
      </trkpt>
      <trkpt lat="42.78449384" lon="13.47725900">
        <ele>650.00000</ele>
        <time>2024-02-16T12:56:32Z</time>
      </trkpt>
      <trkpt lat="42.78446073" lon="13.47723520">
        <ele>650.00000</ele>
        <time>2024-02-16T12:56:33Z</time>
      </trkpt>
      <trkpt lat="42.78442310" lon="13.47720745">
        <ele>651.00000</ele>
        <time>2024-02-16T12:56:34Z</time>
      </trkpt>
      <trkpt lat="42.78438739" lon="13.47717979">
        <ele>653.00000</ele>
        <time>2024-02-16T12:56:35Z</time>
      </trkpt>
      <trkpt lat="42.78435185" lon="13.47715104">
        <ele>655.00000</ele>
        <time>2024-02-16T12:56:36Z</time>
      </trkpt>
      <trkpt lat="42.78431824" lon="13.47712003">
        <ele>656.00000</ele>
        <time>2024-02-16T12:56:37Z</time>
      </trkpt>
      <trkpt lat="42.78428597" lon="13.47709380">
        <ele>658.00000</ele>
        <time>2024-02-16T12:56:38Z</time>
      </trkpt>
      <trkpt lat="42.78425554" lon="13.47706764">
        <ele>659.00000</ele>
        <time>2024-02-16T12:56:39Z</time>
      </trkpt>
      <trkpt lat="42.78422478" lon="13.47703848">
        <ele>661.00000</ele>
        <time>2024-02-16T12:56:40Z</time>
      </trkpt>
      <trkpt lat="42.78419360" lon="13.47700830">
        <ele>662.00000</ele>
        <time>2024-02-16T12:56:41Z</time>
      </trkpt>
      <trkpt lat="42.78416502" lon="13.47697779">
        <ele>664.00000</ele>
        <time>2024-02-16T12:56:42Z</time>
      </trkpt>
      <trkpt lat="42.78413426" lon="13.47695139">
        <ele>665.00000</ele>
        <time>2024-02-16T12:56:43Z</time>
      </trkpt>
      <trkpt lat="42.78409562" lon="13.47691618">
        <ele>667.00000</ele>
        <time>2024-02-16T12:56:44Z</time>
      </trkpt>
      <trkpt lat="42.78406888" lon="13.47689280">
        <ele>668.00000</ele>
        <time>2024-02-16T12:56:45Z</time>
      </trkpt>
      <trkpt lat="42.78403946" lon="13.47686866">
        <ele>669.00000</ele>
        <time>2024-02-16T12:56:46Z</time>
      </trkpt>
      <trkpt lat="42.78400911" lon="13.47684695">
        <ele>670.00000</ele>
        <time>2024-02-16T12:56:47Z</time>
      </trkpt>
      <trkpt lat="42.78398028" lon="13.47682574">
        <ele>671.00000</ele>
        <time>2024-02-16T12:56:48Z</time>
      </trkpt>
      <trkpt lat="42.78395094" lon="13.47680353">
        <ele>672.00000</ele>
        <time>2024-02-16T12:56:49Z</time>
      </trkpt>
      <trkpt lat="42.78392152" lon="13.47678165">
        <ele>672.00000</ele>
        <time>2024-02-16T12:56:50Z</time>
      </trkpt>
      <trkpt lat="42.78389135" lon="13.47676179">
        <ele>673.00000</ele>
        <time>2024-02-16T12:56:51Z</time>
      </trkpt>
      <trkpt lat="42.78386017" lon="13.47674687">
        <ele>672.00000</ele>
        <time>2024-02-16T12:56:52Z</time>
      </trkpt>
      <trkpt lat="42.78383142" lon="13.47672910">
        <ele>672.00000</ele>
        <time>2024-02-16T12:56:53Z</time>
      </trkpt>
      <trkpt lat="42.78380049" lon="13.47670605">
        <ele>672.00000</ele>
        <time>2024-02-16T12:56:54Z</time>
      </trkpt>
      <trkpt lat="42.78376193" lon="13.47668141">
        <ele>672.00000</ele>
        <time>2024-02-16T12:56:55Z</time>
      </trkpt>
      <trkpt lat="42.78373192" lon="13.47666464">
        <ele>672.00000</ele>
        <time>2024-02-16T12:56:56Z</time>
      </trkpt>
      <trkpt lat="42.78370443" lon="13.47665048">
        <ele>672.00000</ele>
        <time>2024-02-16T12:56:57Z</time>
      </trkpt>
      <trkpt lat="42.78367660" lon="13.47663447">
        <ele>672.00000</ele>
        <time>2024-02-16T12:56:58Z</time>
      </trkpt>
      <trkpt lat="42.78365020" lon="13.47662047">
        <ele>671.00000</ele>
        <time>2024-02-16T12:56:59Z</time>
      </trkpt>
      <trkpt lat="42.78361860" lon="13.47661670">
        <ele>671.00000</ele>
        <time>2024-02-16T12:57:00Z</time>
      </trkpt>
      <trkpt lat="42.78358876" lon="13.47661192">
        <ele>670.00000</ele>
        <time>2024-02-16T12:57:01Z</time>
      </trkpt>
      <trkpt lat="42.78355465" lon="13.47660538">
        <ele>670.00000</ele>
        <time>2024-02-16T12:57:02Z</time>
      </trkpt>
      <trkpt lat="42.78352414" lon="13.47660094">
        <ele>670.00000</ele>
        <time>2024-02-16T12:57:03Z</time>
      </trkpt>
      <trkpt lat="42.78348810" lon="13.47659314">
        <ele>670.00000</ele>
        <time>2024-02-16T12:57:04Z</time>
      </trkpt>
      <trkpt lat="42.78346412" lon="13.47658158">
        <ele>670.00000</ele>
        <time>2024-02-16T12:57:05Z</time>
      </trkpt>
      <trkpt lat="42.78343873" lon="13.47656741">
        <ele>670.00000</ele>
        <time>2024-02-16T12:57:06Z</time>
      </trkpt>
      <trkpt lat="42.78341626" lon="13.47655962">
        <ele>670.00000</ele>
        <time>2024-02-16T12:57:07Z</time>
      </trkpt>
      <trkpt lat="42.78339128" lon="13.47655492">
        <ele>670.00000</ele>
        <time>2024-02-16T12:57:08Z</time>
      </trkpt>
      <trkpt lat="42.78336706" lon="13.47654378">
        <ele>670.00000</ele>
        <time>2024-02-16T12:57:09Z</time>
      </trkpt>
      <trkpt lat="42.78333764" lon="13.47653095">
        <ele>670.00000</ele>
        <time>2024-02-16T12:57:10Z</time>
      </trkpt>
      <trkpt lat="42.78331551" lon="13.47652684">
        <ele>671.00000</ele>
        <time>2024-02-16T12:57:11Z</time>
      </trkpt>
      <trkpt lat="42.78328693" lon="13.47652181">
        <ele>671.00000</ele>
        <time>2024-02-16T12:57:12Z</time>
      </trkpt>
      <trkpt lat="42.78325927" lon="13.47651511">
        <ele>672.00000</ele>
        <time>2024-02-16T12:57:13Z</time>
      </trkpt>
      <trkpt lat="42.78323488" lon="13.47650991">
        <ele>672.00000</ele>
        <time>2024-02-16T12:57:14Z</time>
      </trkpt>
      <trkpt lat="42.78321099" lon="13.47650312">
        <ele>673.00000</ele>
        <time>2024-02-16T12:57:15Z</time>
      </trkpt>
      <trkpt lat="42.78317931" lon="13.47649013">
        <ele>673.00000</ele>
        <time>2024-02-16T12:57:16Z</time>
      </trkpt>
      <trkpt lat="42.78315458" lon="13.47648108">
        <ele>674.00000</ele>
        <time>2024-02-16T12:57:17Z</time>
      </trkpt>
      <trkpt lat="42.78312901" lon="13.47647177">
        <ele>675.00000</ele>
        <time>2024-02-16T12:57:18Z</time>
      </trkpt>
      <trkpt lat="42.78310429" lon="13.47645753">
        <ele>675.00000</ele>
        <time>2024-02-16T12:57:19Z</time>
      </trkpt>
      <trkpt lat="42.78307856" lon="13.47644696">
        <ele>676.00000</ele>
        <time>2024-02-16T12:57:20Z</time>
      </trkpt>
      <trkpt lat="42.78305165" lon="13.47644068">
        <ele>676.00000</ele>
        <time>2024-02-16T12:57:21Z</time>
      </trkpt>
      <trkpt lat="42.78303111" lon="13.47643515">
        <ele>676.00000</ele>
        <time>2024-02-16T12:57:22Z</time>
      </trkpt>
      <trkpt lat="42.78300052" lon="13.47642551">
        <ele>677.00000</ele>
        <time>2024-02-16T12:57:23Z</time>
      </trkpt>
      <trkpt lat="42.78297521" lon="13.47641956">
        <ele>677.00000</ele>
        <time>2024-02-16T12:57:24Z</time>
      </trkpt>
      <trkpt lat="42.78295132" lon="13.47641034">
        <ele>677.00000</ele>
        <time>2024-02-16T12:57:25Z</time>
      </trkpt>
      <trkpt lat="42.78292785" lon="13.47639977">
        <ele>678.00000</ele>
        <time>2024-02-16T12:57:26Z</time>
      </trkpt>
      <trkpt lat="42.78290145" lon="13.47638854">
        <ele>678.00000</ele>
        <time>2024-02-16T12:57:27Z</time>
      </trkpt>
      <trkpt lat="42.78287538" lon="13.47637974">
        <ele>679.00000</ele>
        <time>2024-02-16T12:57:28Z</time>
      </trkpt>
      <trkpt lat="42.78285015" lon="13.47636826">
        <ele>679.00000</ele>
        <time>2024-02-16T12:57:29Z</time>
      </trkpt>
      <trkpt lat="42.78282517" lon="13.47635644">
        <ele>680.00000</ele>
        <time>2024-02-16T12:57:30Z</time>
      </trkpt>
      <trkpt lat="42.78280086" lon="13.47634512">
        <ele>681.00000</ele>
        <time>2024-02-16T12:57:31Z</time>
      </trkpt>
      <trkpt lat="42.78277672" lon="13.47633272">
        <ele>682.00000</ele>
        <time>2024-02-16T12:57:32Z</time>
      </trkpt>
      <trkpt lat="42.78275149" lon="13.47631973">
        <ele>683.00000</ele>
        <time>2024-02-16T12:57:33Z</time>
      </trkpt>
      <trkpt lat="42.78272802" lon="13.47630456">
        <ele>685.00000</ele>
        <time>2024-02-16T12:57:34Z</time>
      </trkpt>
      <trkpt lat="42.78269886" lon="13.47628754">
        <ele>686.00000</ele>
        <time>2024-02-16T12:57:35Z</time>
      </trkpt>
      <trkpt lat="42.78267245" lon="13.47627379">
        <ele>687.00000</ele>
        <time>2024-02-16T12:57:36Z</time>
      </trkpt>
      <trkpt lat="42.78264337" lon="13.47625737">
        <ele>689.00000</ele>
        <time>2024-02-16T12:57:37Z</time>
      </trkpt>
      <trkpt lat="42.78261864" lon="13.47624454">
        <ele>690.00000</ele>
        <time>2024-02-16T12:57:38Z</time>
      </trkpt>
      <trkpt lat="42.78259291" lon="13.47622811">
        <ele>691.00000</ele>
        <time>2024-02-16T12:57:39Z</time>
      </trkpt>
      <trkpt lat="42.78256567" lon="13.47621127">
        <ele>693.00000</ele>
        <time>2024-02-16T12:57:40Z</time>
      </trkpt>
      <trkpt lat="42.78254002" lon="13.47619526">
        <ele>694.00000</ele>
        <time>2024-02-16T12:57:41Z</time>
      </trkpt>
      <trkpt lat="42.78251504" lon="13.47618201">
        <ele>695.00000</ele>
        <time>2024-02-16T12:57:42Z</time>
      </trkpt>
      <trkpt lat="42.78248914" lon="13.47617036">
        <ele>696.00000</ele>
        <time>2024-02-16T12:57:43Z</time>
      </trkpt>
      <trkpt lat="42.78246416" lon="13.47615653">
        <ele>697.00000</ele>
        <time>2024-02-16T12:57:44Z</time>
      </trkpt>
      <trkpt lat="42.78244111" lon="13.47614253">
        <ele>698.00000</ele>
        <time>2024-02-16T12:57:45Z</time>
      </trkpt>
      <trkpt lat="42.78241706" lon="13.47613080">
        <ele>698.00000</ele>
        <time>2024-02-16T12:57:46Z</time>
      </trkpt>
      <trkpt lat="42.78238831" lon="13.47611814">
        <ele>699.00000</ele>
        <time>2024-02-16T12:57:47Z</time>
      </trkpt>
      <trkpt lat="42.78236106" lon="13.47610766">
        <ele>699.00000</ele>
        <time>2024-02-16T12:57:48Z</time>
      </trkpt>
      <trkpt lat="42.78233139" lon="13.47609627">
        <ele>700.00000</ele>
        <time>2024-02-16T12:57:49Z</time>
      </trkpt>
      <trkpt lat="42.78230524" lon="13.47608554">
        <ele>700.00000</ele>
        <time>2024-02-16T12:57:50Z</time>
      </trkpt>
      <trkpt lat="42.78228160" lon="13.47607866">
        <ele>700.00000</ele>
        <time>2024-02-16T12:57:51Z</time>
      </trkpt>
      <trkpt lat="42.78225453" lon="13.47606718">
        <ele>701.00000</ele>
        <time>2024-02-16T12:57:52Z</time>
      </trkpt>
      <trkpt lat="42.78222989" lon="13.47605159">
        <ele>702.00000</ele>
        <time>2024-02-16T12:57:53Z</time>
      </trkpt>
      <trkpt lat="42.78220382" lon="13.47603625">
        <ele>703.00000</ele>
        <time>2024-02-16T12:57:54Z</time>
      </trkpt>
      <trkpt lat="42.78217633" lon="13.47602359">
        <ele>703.00000</ele>
        <time>2024-02-16T12:57:55Z</time>
      </trkpt>
      <trkpt lat="42.78215194" lon="13.47600867">
        <ele>705.00000</ele>
        <time>2024-02-16T12:57:56Z</time>
      </trkpt>
      <trkpt lat="42.78212553" lon="13.47599744">
        <ele>706.00000</ele>
        <time>2024-02-16T12:57:57Z</time>
      </trkpt>
      <trkpt lat="42.78210022" lon="13.47598277">
        <ele>707.00000</ele>
        <time>2024-02-16T12:57:58Z</time>
      </trkpt>
      <trkpt lat="42.78207331" lon="13.47597020">
        <ele>708.00000</ele>
        <time>2024-02-16T12:57:59Z</time>
      </trkpt>
      <trkpt lat="42.78204758" lon="13.47595729">
        <ele>709.00000</ele>
        <time>2024-02-16T12:58:00Z</time>
      </trkpt>
      <trkpt lat="42.78202428" lon="13.47594724">
        <ele>710.00000</ele>
        <time>2024-02-16T12:58:01Z</time>
      </trkpt>
      <trkpt lat="42.78199930" lon="13.47593919">
        <ele>711.00000</ele>
        <time>2024-02-16T12:58:02Z</time>
      </trkpt>
      <trkpt lat="42.78197013" lon="13.47593332">
        <ele>711.00000</ele>
        <time>2024-02-16T12:58:03Z</time>
      </trkpt>
      <trkpt lat="42.78194046" lon="13.47592988">
        <ele>712.00000</ele>
        <time>2024-02-16T12:58:04Z</time>
      </trkpt>
      <trkpt lat="42.78191146" lon="13.47593542">
        <ele>712.00000</ele>
        <time>2024-02-16T12:58:05Z</time>
      </trkpt>
      <trkpt lat="42.78188221" lon="13.47593894">
        <ele>713.00000</ele>
        <time>2024-02-16T12:58:06Z</time>
      </trkpt>
      <trkpt lat="42.78185765" lon="13.47593927">
        <ele>713.00000</ele>
        <time>2024-02-16T12:58:07Z</time>
      </trkpt>
      <trkpt lat="42.78182907" lon="13.47595009">
        <ele>713.00000</ele>
        <time>2024-02-16T12:58:08Z</time>
      </trkpt>
      <trkpt lat="42.78180442" lon="13.47596685">
        <ele>712.00000</ele>
        <time>2024-02-16T12:58:09Z</time>
      </trkpt>
      <trkpt lat="42.78178079" lon="13.47598403">
        <ele>712.00000</ele>
        <time>2024-02-16T12:58:10Z</time>
      </trkpt>
      <trkpt lat="42.78176033" lon="13.47600490">
        <ele>711.00000</ele>
        <time>2024-02-16T12:58:11Z</time>
      </trkpt>
      <trkpt lat="42.78174231" lon="13.47603365">
        <ele>710.00000</ele>
        <time>2024-02-16T12:58:12Z</time>
      </trkpt>
      <trkpt lat="42.78172907" lon="13.47606617">
        <ele>708.00000</ele>
        <time>2024-02-16T12:58:13Z</time>
      </trkpt>
      <trkpt lat="42.78171398" lon="13.47610146">
        <ele>706.00000</ele>
        <time>2024-02-16T12:58:14Z</time>
      </trkpt>
      <trkpt lat="42.78169412" lon="13.47612845">
        <ele>706.00000</ele>
        <time>2024-02-16T12:58:15Z</time>
      </trkpt>
      <trkpt lat="42.78166704" lon="13.47615217">
        <ele>705.00000</ele>
        <time>2024-02-16T12:58:16Z</time>
      </trkpt>
      <trkpt lat="42.78164525" lon="13.47618637">
        <ele>705.00000</ele>
        <time>2024-02-16T12:58:17Z</time>
      </trkpt>
      <trkpt lat="42.78162673" lon="13.47621646">
        <ele>706.00000</ele>
        <time>2024-02-16T12:58:18Z</time>
      </trkpt>
      <trkpt lat="42.78161365" lon="13.47624613">
        <ele>706.00000</ele>
        <time>2024-02-16T12:58:19Z</time>
      </trkpt>
      <trkpt lat="42.78160351" lon="13.47626592">
        <ele>706.00000</ele>
        <time>2024-02-16T12:58:20Z</time>
      </trkpt>
      <trkpt lat="42.78159823" lon="13.47629156">
        <ele>705.00000</ele>
        <time>2024-02-16T12:58:21Z</time>
      </trkpt>
      <trkpt lat="42.78159747" lon="13.47631596">
        <ele>705.00000</ele>
        <time>2024-02-16T12:58:22Z</time>
      </trkpt>
      <trkpt lat="42.78159094" lon="13.47635703">
        <ele>704.00000</ele>
        <time>2024-02-16T12:58:23Z</time>
      </trkpt>
      <trkpt lat="42.78156939" lon="13.47640707">
        <ele>705.00000</ele>
        <time>2024-02-16T12:58:24Z</time>
      </trkpt>
      <trkpt lat="42.78156470" lon="13.47643699">
        <ele>705.00000</ele>
        <time>2024-02-16T12:58:25Z</time>
      </trkpt>
      <trkpt lat="42.78155221" lon="13.47647052">
        <ele>705.00000</ele>
        <time>2024-02-16T12:58:26Z</time>
      </trkpt>
      <trkpt lat="42.78153813" lon="13.47650044">
        <ele>706.00000</ele>
        <time>2024-02-16T12:58:27Z</time>
      </trkpt>
      <trkpt lat="42.78152405" lon="13.47653539">
        <ele>707.00000</ele>
        <time>2024-02-16T12:58:28Z</time>
      </trkpt>
      <trkpt lat="42.78150837" lon="13.47657211">
        <ele>707.00000</ele>
        <time>2024-02-16T12:58:29Z</time>
      </trkpt>
      <trkpt lat="42.78149555" lon="13.47660756">
        <ele>708.00000</ele>
        <time>2024-02-16T12:58:30Z</time>
      </trkpt>
      <trkpt lat="42.78147744" lon="13.47663975">
        <ele>709.00000</ele>
        <time>2024-02-16T12:58:31Z</time>
      </trkpt>
      <trkpt lat="42.78145917" lon="13.47666808">
        <ele>709.00000</ele>
        <time>2024-02-16T12:58:32Z</time>
      </trkpt>
      <trkpt lat="42.78144559" lon="13.47669968">
        <ele>710.00000</ele>
        <time>2024-02-16T12:58:33Z</time>
      </trkpt>
      <trkpt lat="42.78143939" lon="13.47673463">
        <ele>711.00000</ele>
        <time>2024-02-16T12:58:34Z</time>
      </trkpt>
      <trkpt lat="42.78142858" lon="13.47677143">
        <ele>711.00000</ele>
        <time>2024-02-16T12:58:35Z</time>
      </trkpt>
      <trkpt lat="42.78141743" lon="13.47680546">
        <ele>712.00000</ele>
        <time>2024-02-16T12:58:36Z</time>
      </trkpt>
      <trkpt lat="42.78141072" lon="13.47684075">
        <ele>713.00000</ele>
        <time>2024-02-16T12:58:37Z</time>
      </trkpt>
      <trkpt lat="42.78140838" lon="13.47687880">
        <ele>713.00000</ele>
        <time>2024-02-16T12:58:38Z</time>
      </trkpt>
      <trkpt lat="42.78140863" lon="13.47691945">
        <ele>713.00000</ele>
        <time>2024-02-16T12:58:39Z</time>
      </trkpt>
      <trkpt lat="42.78140821" lon="13.47696019">
        <ele>713.00000</ele>
        <time>2024-02-16T12:58:40Z</time>
      </trkpt>
      <trkpt lat="42.78140050" lon="13.47699883">
        <ele>713.00000</ele>
        <time>2024-02-16T12:58:41Z</time>
      </trkpt>
      <trkpt lat="42.78139203" lon="13.47703831">
        <ele>712.00000</ele>
        <time>2024-02-16T12:58:42Z</time>
      </trkpt>
      <trkpt lat="42.78138415" lon="13.47707351">
        <ele>712.00000</ele>
        <time>2024-02-16T12:58:43Z</time>
      </trkpt>
      <trkpt lat="42.78137192" lon="13.47710897">
        <ele>711.00000</ele>
        <time>2024-02-16T12:58:44Z</time>
      </trkpt>
      <trkpt lat="42.78136144" lon="13.47714669">
        <ele>711.00000</ele>
        <time>2024-02-16T12:58:45Z</time>
      </trkpt>
      <trkpt lat="42.78135624" lon="13.47718373">
        <ele>710.00000</ele>
        <time>2024-02-16T12:58:46Z</time>
      </trkpt>
      <trkpt lat="42.78134342" lon="13.47721835">
        <ele>709.00000</ele>
        <time>2024-02-16T12:58:47Z</time>
      </trkpt>
      <trkpt lat="42.78132908" lon="13.47725096">
        <ele>709.00000</ele>
        <time>2024-02-16T12:58:48Z</time>
      </trkpt>
      <trkpt lat="42.78131643" lon="13.47728633">
        <ele>708.00000</ele>
        <time>2024-02-16T12:58:49Z</time>
      </trkpt>
      <trkpt lat="42.78130126" lon="13.47732145">
        <ele>707.00000</ele>
        <time>2024-02-16T12:58:50Z</time>
      </trkpt>
      <trkpt lat="42.78128944" lon="13.47735623">
        <ele>706.00000</ele>
        <time>2024-02-16T12:58:51Z</time>
      </trkpt>
      <trkpt lat="42.78127343" lon="13.47739035">
        <ele>705.00000</ele>
        <time>2024-02-16T12:58:52Z</time>
      </trkpt>
      <trkpt lat="42.78126044" lon="13.47742103">
        <ele>704.00000</ele>
        <time>2024-02-16T12:58:53Z</time>
      </trkpt>
      <trkpt lat="42.78124636" lon="13.47745120">
        <ele>704.00000</ele>
        <time>2024-02-16T12:58:54Z</time>
      </trkpt>
      <trkpt lat="42.78122750" lon="13.47747702">
        <ele>703.00000</ele>
        <time>2024-02-16T12:58:55Z</time>
      </trkpt>
      <trkpt lat="42.78120495" lon="13.47749328">
        <ele>703.00000</ele>
        <time>2024-02-16T12:58:56Z</time>
      </trkpt>
      <trkpt lat="42.78118005" lon="13.47749764">
        <ele>703.00000</ele>
        <time>2024-02-16T12:58:57Z</time>
      </trkpt>
      <trkpt lat="42.78116011" lon="13.47749403">
        <ele>703.00000</ele>
        <time>2024-02-16T12:58:58Z</time>
      </trkpt>
      <trkpt lat="42.78113672" lon="13.47748238">
        <ele>704.00000</ele>
        <time>2024-02-16T12:58:59Z</time>
      </trkpt>
      <trkpt lat="42.78111618" lon="13.47746134">
        <ele>705.00000</ele>
        <time>2024-02-16T12:59:00Z</time>
      </trkpt>
      <trkpt lat="42.78110101" lon="13.47743276">
        <ele>706.00000</ele>
        <time>2024-02-16T12:59:01Z</time>
      </trkpt>
      <trkpt lat="42.78109037" lon="13.47740200">
        <ele>706.00000</ele>
        <time>2024-02-16T12:59:02Z</time>
      </trkpt>
      <trkpt lat="42.78109288" lon="13.47736964">
        <ele>708.00000</ele>
        <time>2024-02-16T12:59:03Z</time>
      </trkpt>
      <trkpt lat="42.78111191" lon="13.47733394">
        <ele>709.00000</ele>
        <time>2024-02-16T12:59:04Z</time>
      </trkpt>
      <trkpt lat="42.78113219" lon="13.47731298">
        <ele>710.00000</ele>
        <time>2024-02-16T12:59:05Z</time>
      </trkpt>
      <trkpt lat="42.78115290" lon="13.47728189">
        <ele>711.00000</ele>
        <time>2024-02-16T12:59:06Z</time>
      </trkpt>
      <trkpt lat="42.78116773" lon="13.47724484">
        <ele>712.00000</ele>
        <time>2024-02-16T12:59:07Z</time>
      </trkpt>
      <trkpt lat="42.78117838" lon="13.47720729">
        <ele>713.00000</ele>
        <time>2024-02-16T12:59:08Z</time>
      </trkpt>
      <trkpt lat="42.78119020" lon="13.47716881">
        <ele>713.00000</ele>
        <time>2024-02-16T12:59:09Z</time>
      </trkpt>
      <trkpt lat="42.78119757" lon="13.47713084">
        <ele>714.00000</ele>
        <time>2024-02-16T12:59:10Z</time>
      </trkpt>
      <trkpt lat="42.78120378" lon="13.47709388">
        <ele>715.00000</ele>
        <time>2024-02-16T12:59:11Z</time>
      </trkpt>
      <trkpt lat="42.78120671" lon="13.47705859">
        <ele>716.00000</ele>
        <time>2024-02-16T12:59:12Z</time>
      </trkpt>
      <trkpt lat="42.78120889" lon="13.47702146">
        <ele>717.00000</ele>
        <time>2024-02-16T12:59:13Z</time>
      </trkpt>
      <trkpt lat="42.78121232" lon="13.47698391">
        <ele>717.00000</ele>
        <time>2024-02-16T12:59:14Z</time>
      </trkpt>
      <trkpt lat="42.78121593" lon="13.47694871">
        <ele>718.00000</ele>
        <time>2024-02-16T12:59:15Z</time>
      </trkpt>
      <trkpt lat="42.78121853" lon="13.47691384">
        <ele>718.00000</ele>
        <time>2024-02-16T12:59:16Z</time>
      </trkpt>
      <trkpt lat="42.78122456" lon="13.47687779">
        <ele>718.00000</ele>
        <time>2024-02-16T12:59:17Z</time>
      </trkpt>
      <trkpt lat="42.78123261" lon="13.47684200">
        <ele>718.00000</ele>
        <time>2024-02-16T12:59:18Z</time>
      </trkpt>
      <trkpt lat="42.78123496" lon="13.47680588">
        <ele>718.00000</ele>
        <time>2024-02-16T12:59:19Z</time>
      </trkpt>
      <trkpt lat="42.78123957" lon="13.47677554">
        <ele>718.00000</ele>
        <time>2024-02-16T12:59:20Z</time>
      </trkpt>
      <trkpt lat="42.78124510" lon="13.47674134">
        <ele>718.00000</ele>
        <time>2024-02-16T12:59:21Z</time>
      </trkpt>
      <trkpt lat="42.78125256" lon="13.47670094">
        <ele>718.00000</ele>
        <time>2024-02-16T12:59:22Z</time>
      </trkpt>
      <trkpt lat="42.78126077" lon="13.47666087">
        <ele>718.00000</ele>
        <time>2024-02-16T12:59:23Z</time>
      </trkpt>
      <trkpt lat="42.78127251" lon="13.47661687">
        <ele>718.00000</ele>
        <time>2024-02-16T12:59:24Z</time>
      </trkpt>
      <trkpt lat="42.78128324" lon="13.47658803">
        <ele>718.00000</ele>
        <time>2024-02-16T12:59:25Z</time>
      </trkpt>
      <trkpt lat="42.78129086" lon="13.47655258">
        <ele>719.00000</ele>
        <time>2024-02-16T12:59:26Z</time>
      </trkpt>
      <trkpt lat="42.78129849" lon="13.47651620">
        <ele>719.00000</ele>
        <time>2024-02-16T12:59:27Z</time>
      </trkpt>
      <trkpt lat="42.78130033" lon="13.47647001">
        <ele>720.00000</ele>
        <time>2024-02-16T12:59:28Z</time>
      </trkpt>
      <trkpt lat="42.78130411" lon="13.47642173">
        <ele>720.00000</ele>
        <time>2024-02-16T12:59:29Z</time>
      </trkpt>
      <trkpt lat="42.78131383" lon="13.47638209">
        <ele>720.00000</ele>
        <time>2024-02-16T12:59:30Z</time>
      </trkpt>
      <trkpt lat="42.78132003" lon="13.47635099">
        <ele>720.00000</ele>
        <time>2024-02-16T12:59:31Z</time>
      </trkpt>
      <trkpt lat="42.78132800" lon="13.47631260">
        <ele>721.00000</ele>
        <time>2024-02-16T12:59:32Z</time>
      </trkpt>
      <trkpt lat="42.78133411" lon="13.47627472">
        <ele>721.00000</ele>
        <time>2024-02-16T12:59:33Z</time>
      </trkpt>
      <trkpt lat="42.78133411" lon="13.47622459">
        <ele>721.00000</ele>
        <time>2024-02-16T12:59:34Z</time>
      </trkpt>
      <trkpt lat="42.78133529" lon="13.47619056">
        <ele>722.00000</ele>
        <time>2024-02-16T12:59:35Z</time>
      </trkpt>
      <trkpt lat="42.78134300" lon="13.47614186">
        <ele>722.00000</ele>
        <time>2024-02-16T12:59:36Z</time>
      </trkpt>
      <trkpt lat="42.78134794" lon="13.47610146">
        <ele>722.00000</ele>
        <time>2024-02-16T12:59:37Z</time>
      </trkpt>
      <trkpt lat="42.78135490" lon="13.47605980">
        <ele>723.00000</ele>
        <time>2024-02-16T12:59:38Z</time>
      </trkpt>
      <trkpt lat="42.78136203" lon="13.47601706">
        <ele>723.00000</ele>
        <time>2024-02-16T12:59:39Z</time>
      </trkpt>
      <trkpt lat="42.78136965" lon="13.47597833">
        <ele>723.00000</ele>
        <time>2024-02-16T12:59:40Z</time>
      </trkpt>
      <trkpt lat="42.78137736" lon="13.47594170">
        <ele>724.00000</ele>
        <time>2024-02-16T12:59:41Z</time>
      </trkpt>
      <trkpt lat="42.78138189" lon="13.47590155">
        <ele>724.00000</ele>
        <time>2024-02-16T12:59:42Z</time>
      </trkpt>
      <trkpt lat="42.78138793" lon="13.47586149">
        <ele>724.00000</ele>
        <time>2024-02-16T12:59:43Z</time>
      </trkpt>
      <trkpt lat="42.78139530" lon="13.47582302">
        <ele>725.00000</ele>
        <time>2024-02-16T12:59:44Z</time>
      </trkpt>
      <trkpt lat="42.78140209" lon="13.47578069">
        <ele>726.00000</ele>
        <time>2024-02-16T12:59:45Z</time>
      </trkpt>
      <trkpt lat="42.78141123" lon="13.47573911">
        <ele>728.00000</ele>
        <time>2024-02-16T12:59:46Z</time>
      </trkpt>
      <trkpt lat="42.78142070" lon="13.47569553">
        <ele>730.00000</ele>
        <time>2024-02-16T12:59:47Z</time>
      </trkpt>
      <trkpt lat="42.78142942" lon="13.47565253">
        <ele>731.00000</ele>
        <time>2024-02-16T12:59:48Z</time>
      </trkpt>
      <trkpt lat="42.78144509" lon="13.47561263">
        <ele>733.00000</ele>
        <time>2024-02-16T12:59:49Z</time>
      </trkpt>
      <trkpt lat="42.78146320" lon="13.47557466">
        <ele>734.00000</ele>
        <time>2024-02-16T12:59:50Z</time>
      </trkpt>
      <trkpt lat="42.78147912" lon="13.47553334">
        <ele>735.00000</ele>
        <time>2024-02-16T12:59:51Z</time>
      </trkpt>
      <trkpt lat="42.78149454" lon="13.47549176">
        <ele>736.00000</ele>
        <time>2024-02-16T12:59:52Z</time>
      </trkpt>
      <trkpt lat="42.78150980" lon="13.47545078">
        <ele>737.00000</ele>
        <time>2024-02-16T12:59:53Z</time>
      </trkpt>
      <trkpt lat="42.78152564" lon="13.47541172">
        <ele>738.00000</ele>
        <time>2024-02-16T12:59:54Z</time>
      </trkpt>
      <trkpt lat="42.78154249" lon="13.47537140">
        <ele>739.00000</ele>
        <time>2024-02-16T12:59:55Z</time>
      </trkpt>
      <trkpt lat="42.78156294" lon="13.47533318">
        <ele>739.00000</ele>
        <time>2024-02-16T12:59:56Z</time>
      </trkpt>
      <trkpt lat="42.78158792" lon="13.47530141">
        <ele>740.00000</ele>
        <time>2024-02-16T12:59:57Z</time>
      </trkpt>
      <trkpt lat="42.78161323" lon="13.47527459">
        <ele>740.00000</ele>
        <time>2024-02-16T12:59:58Z</time>
      </trkpt>
      <trkpt lat="42.78163905" lon="13.47525263">
        <ele>740.00000</ele>
        <time>2024-02-16T12:59:59Z</time>
      </trkpt>
      <trkpt lat="42.78167559" lon="13.47523519">
        <ele>739.00000</ele>
        <time>2024-02-16T13:00:00Z</time>
      </trkpt>
      <trkpt lat="42.78171583" lon="13.47521809">
        <ele>739.00000</ele>
        <time>2024-02-16T13:00:01Z</time>
      </trkpt>
      <trkpt lat="42.78175606" lon="13.47520158">
        <ele>739.00000</ele>
        <time>2024-02-16T13:00:02Z</time>
      </trkpt>
      <trkpt lat="42.78179386" lon="13.47518750">
        <ele>739.00000</ele>
        <time>2024-02-16T13:00:03Z</time>
      </trkpt>
      <trkpt lat="42.78183468" lon="13.47517535">
        <ele>738.00000</ele>
        <time>2024-02-16T13:00:04Z</time>
      </trkpt>
      <trkpt lat="42.78188028" lon="13.47516411">
        <ele>738.00000</ele>
        <time>2024-02-16T13:00:05Z</time>
      </trkpt>
      <trkpt lat="42.78192412" lon="13.47515473">
        <ele>737.00000</ele>
        <time>2024-02-16T13:00:06Z</time>
      </trkpt>
      <trkpt lat="42.78196376" lon="13.47514685">
        <ele>736.00000</ele>
        <time>2024-02-16T13:00:07Z</time>
      </trkpt>
      <trkpt lat="42.78200525" lon="13.47514324">
        <ele>736.00000</ele>
        <time>2024-02-16T13:00:08Z</time>
      </trkpt>
      <trkpt lat="42.78204322" lon="13.47514023">
        <ele>735.00000</ele>
        <time>2024-02-16T13:00:09Z</time>
      </trkpt>
      <trkpt lat="42.78207717" lon="13.47513704">
        <ele>734.00000</ele>
        <time>2024-02-16T13:00:10Z</time>
      </trkpt>
      <trkpt lat="42.78211212" lon="13.47513193">
        <ele>733.00000</ele>
        <time>2024-02-16T13:00:11Z</time>
      </trkpt>
      <trkpt lat="42.78215068" lon="13.47512941">
        <ele>732.00000</ele>
        <time>2024-02-16T13:00:12Z</time>
      </trkpt>
      <trkpt lat="42.78219678" lon="13.47512933">
        <ele>731.00000</ele>
        <time>2024-02-16T13:00:13Z</time>
      </trkpt>
      <trkpt lat="42.78224020" lon="13.47512816">
        <ele>731.00000</ele>
        <time>2024-02-16T13:00:14Z</time>
      </trkpt>
      <trkpt lat="42.78228445" lon="13.47512899">
        <ele>731.00000</ele>
        <time>2024-02-16T13:00:15Z</time>
      </trkpt>
      <trkpt lat="42.78232972" lon="13.47513285">
        <ele>731.00000</ele>
        <time>2024-02-16T13:00:16Z</time>
      </trkpt>
      <trkpt lat="42.78237355" lon="13.47513603">
        <ele>731.00000</ele>
        <time>2024-02-16T13:00:17Z</time>
      </trkpt>
      <trkpt lat="42.78241454" lon="13.47514257">
        <ele>731.00000</ele>
        <time>2024-02-16T13:00:18Z</time>
      </trkpt>
      <trkpt lat="42.78246156" lon="13.47514551">
        <ele>731.00000</ele>
        <time>2024-02-16T13:00:19Z</time>
      </trkpt>
      <trkpt lat="42.78250817" lon="13.47515389">
        <ele>731.00000</ele>
        <time>2024-02-16T13:00:20Z</time>
      </trkpt>
      <trkpt lat="42.78255477" lon="13.47516814">
        <ele>731.00000</ele>
        <time>2024-02-16T13:00:21Z</time>
      </trkpt>
      <trkpt lat="42.78260196" lon="13.47518188">
        <ele>731.00000</ele>
        <time>2024-02-16T13:00:22Z</time>
      </trkpt>
      <trkpt lat="42.78264764" lon="13.47519580">
        <ele>732.00000</ele>
        <time>2024-02-16T13:00:23Z</time>
      </trkpt>
      <trkpt lat="42.78269005" lon="13.47520653">
        <ele>732.00000</ele>
        <time>2024-02-16T13:00:24Z</time>
      </trkpt>
      <trkpt lat="42.78273054" lon="13.47521868">
        <ele>733.00000</ele>
        <time>2024-02-16T13:00:25Z</time>
      </trkpt>
      <trkpt lat="42.78276985" lon="13.47522564">
        <ele>733.00000</ele>
        <time>2024-02-16T13:00:26Z</time>
      </trkpt>
      <trkpt lat="42.78281268" lon="13.47523251">
        <ele>733.00000</ele>
        <time>2024-02-16T13:00:27Z</time>
      </trkpt>
      <trkpt lat="42.78285216" lon="13.47523980">
        <ele>733.00000</ele>
        <time>2024-02-16T13:00:28Z</time>
      </trkpt>
      <trkpt lat="42.78288577" lon="13.47524575">
        <ele>733.00000</ele>
        <time>2024-02-16T13:00:29Z</time>
      </trkpt>
      <trkpt lat="42.78292751" lon="13.47525288">
        <ele>733.00000</ele>
        <time>2024-02-16T13:00:30Z</time>
      </trkpt>
      <trkpt lat="42.78296984" lon="13.47526403">
        <ele>733.00000</ele>
        <time>2024-02-16T13:00:31Z</time>
      </trkpt>
      <trkpt lat="42.78301276" lon="13.47527450">
        <ele>733.00000</ele>
        <time>2024-02-16T13:00:32Z</time>
      </trkpt>
      <trkpt lat="42.78304855" lon="13.47528733">
        <ele>732.00000</ele>
        <time>2024-02-16T13:00:33Z</time>
      </trkpt>
      <trkpt lat="42.78308593" lon="13.47529915">
        <ele>731.00000</ele>
        <time>2024-02-16T13:00:34Z</time>
      </trkpt>
      <trkpt lat="42.78312583" lon="13.47530895">
        <ele>730.00000</ele>
        <time>2024-02-16T13:00:35Z</time>
      </trkpt>
      <trkpt lat="42.78317369" lon="13.47531650">
        <ele>729.00000</ele>
        <time>2024-02-16T13:00:36Z</time>
      </trkpt>
      <trkpt lat="42.78320370" lon="13.47531323">
        <ele>729.00000</ele>
        <time>2024-02-16T13:00:37Z</time>
      </trkpt>
      <trkpt lat="42.78323446" lon="13.47528909">
        <ele>730.00000</ele>
        <time>2024-02-16T13:00:38Z</time>
      </trkpt>
      <trkpt lat="42.78324695" lon="13.47524894">
        <ele>731.00000</ele>
        <time>2024-02-16T13:00:39Z</time>
      </trkpt>
      <trkpt lat="42.78323865" lon="13.47521332">
        <ele>733.00000</ele>
        <time>2024-02-16T13:00:40Z</time>
      </trkpt>
      <trkpt lat="42.78321510" lon="13.47519412">
        <ele>734.00000</ele>
        <time>2024-02-16T13:00:41Z</time>
      </trkpt>
      <trkpt lat="42.78318366" lon="13.47518339">
        <ele>735.00000</ele>
        <time>2024-02-16T13:00:42Z</time>
      </trkpt>
      <trkpt lat="42.78315098" lon="13.47517576">
        <ele>736.00000</ele>
        <time>2024-02-16T13:00:43Z</time>
      </trkpt>
      <trkpt lat="42.78311728" lon="13.47516730">
        <ele>736.00000</ele>
        <time>2024-02-16T13:00:44Z</time>
      </trkpt>
      <trkpt lat="42.78308417" lon="13.47515246">
        <ele>737.00000</ele>
        <time>2024-02-16T13:00:45Z</time>
      </trkpt>
      <trkpt lat="42.78304981" lon="13.47513620">
        <ele>739.00000</ele>
        <time>2024-02-16T13:00:46Z</time>
      </trkpt>
      <trkpt lat="42.78301351" lon="13.47512061">
        <ele>739.00000</ele>
        <time>2024-02-16T13:00:47Z</time>
      </trkpt>
      <trkpt lat="42.78297864" lon="13.47510301">
        <ele>740.00000</ele>
        <time>2024-02-16T13:00:48Z</time>
      </trkpt>
      <trkpt lat="42.78294570" lon="13.47508382">
        <ele>740.00000</ele>
        <time>2024-02-16T13:00:49Z</time>
      </trkpt>
      <trkpt lat="42.78291100" lon="13.47506613">
        <ele>741.00000</ele>
        <time>2024-02-16T13:00:50Z</time>
      </trkpt>
      <trkpt lat="42.78287387" lon="13.47504928">
        <ele>741.00000</ele>
        <time>2024-02-16T13:00:51Z</time>
      </trkpt>
      <trkpt lat="42.78283741" lon="13.47502833">
        <ele>742.00000</ele>
        <time>2024-02-16T13:00:52Z</time>
      </trkpt>
      <trkpt lat="42.78279843" lon="13.47500687">
        <ele>742.00000</ele>
        <time>2024-02-16T13:00:53Z</time>
      </trkpt>
      <trkpt lat="42.78275912" lon="13.47499019">
        <ele>742.00000</ele>
        <time>2024-02-16T13:00:54Z</time>
      </trkpt>
      <trkpt lat="42.78271998" lon="13.47497317">
        <ele>742.00000</ele>
        <time>2024-02-16T13:00:55Z</time>
      </trkpt>
      <trkpt lat="42.78268092" lon="13.47495473">
        <ele>741.00000</ele>
        <time>2024-02-16T13:00:56Z</time>
      </trkpt>
      <trkpt lat="42.78263524" lon="13.47493613">
        <ele>741.00000</ele>
        <time>2024-02-16T13:00:57Z</time>
      </trkpt>
      <trkpt lat="42.78259106" lon="13.47491534">
        <ele>740.00000</ele>
        <time>2024-02-16T13:00:58Z</time>
      </trkpt>
      <trkpt lat="42.78255083" lon="13.47490025">
        <ele>740.00000</ele>
        <time>2024-02-16T13:00:59Z</time>
      </trkpt>
      <trkpt lat="42.78251211" lon="13.47488592">
        <ele>739.00000</ele>
        <time>2024-02-16T13:01:00Z</time>
      </trkpt>
      <trkpt lat="42.78247305" lon="13.47487184">
        <ele>739.00000</ele>
        <time>2024-02-16T13:01:01Z</time>
      </trkpt>
      <trkpt lat="42.78243407" lon="13.47485583">
        <ele>739.00000</ele>
        <time>2024-02-16T13:01:02Z</time>
      </trkpt>
      <trkpt lat="42.78239384" lon="13.47484476">
        <ele>739.00000</ele>
        <time>2024-02-16T13:01:03Z</time>
      </trkpt>
      <trkpt lat="42.78235344" lon="13.47483479">
        <ele>739.00000</ele>
        <time>2024-02-16T13:01:04Z</time>
      </trkpt>
      <trkpt lat="42.78231170" lon="13.47482632">
        <ele>739.00000</ele>
        <time>2024-02-16T13:01:05Z</time>
      </trkpt>
      <trkpt lat="42.78226979" lon="13.47481551">
        <ele>739.00000</ele>
        <time>2024-02-16T13:01:06Z</time>
      </trkpt>
      <trkpt lat="42.78222821" lon="13.47480696">
        <ele>739.00000</ele>
        <time>2024-02-16T13:01:07Z</time>
      </trkpt>
      <trkpt lat="42.78218722" lon="13.47479548">
        <ele>740.00000</ele>
        <time>2024-02-16T13:01:08Z</time>
      </trkpt>
      <trkpt lat="42.78214984" lon="13.47478643">
        <ele>741.00000</ele>
        <time>2024-02-16T13:01:09Z</time>
      </trkpt>
      <trkpt lat="42.78210793" lon="13.47478047">
        <ele>742.00000</ele>
        <time>2024-02-16T13:01:10Z</time>
      </trkpt>
      <trkpt lat="42.78207256" lon="13.47477092">
        <ele>743.00000</ele>
        <time>2024-02-16T13:01:11Z</time>
      </trkpt>
      <trkpt lat="42.78203417" lon="13.47475893">
        <ele>744.00000</ele>
        <time>2024-02-16T13:01:12Z</time>
      </trkpt>
      <trkpt lat="42.78200182" lon="13.47475265">
        <ele>745.00000</ele>
        <time>2024-02-16T13:01:13Z</time>
      </trkpt>
      <trkpt lat="42.78195764" lon="13.47474854">
        <ele>745.00000</ele>
        <time>2024-02-16T13:01:14Z</time>
      </trkpt>
      <trkpt lat="42.78192026" lon="13.47474661">
        <ele>747.00000</ele>
        <time>2024-02-16T13:01:15Z</time>
      </trkpt>
      <trkpt lat="42.78189151" lon="13.47474527">
        <ele>748.00000</ele>
        <time>2024-02-16T13:01:16Z</time>
      </trkpt>
      <trkpt lat="42.78184843" lon="13.47474418">
        <ele>750.00000</ele>
        <time>2024-02-16T13:01:17Z</time>
      </trkpt>
      <trkpt lat="42.78181959" lon="13.47474452">
        <ele>751.00000</ele>
        <time>2024-02-16T13:01:18Z</time>
      </trkpt>
      <trkpt lat="42.78178179" lon="13.47474317">
        <ele>752.00000</ele>
        <time>2024-02-16T13:01:19Z</time>
      </trkpt>
      <trkpt lat="42.78174424" lon="13.47474133">
        <ele>754.00000</ele>
        <time>2024-02-16T13:01:20Z</time>
      </trkpt>
      <trkpt lat="42.78170669" lon="13.47474041">
        <ele>755.00000</ele>
        <time>2024-02-16T13:01:21Z</time>
      </trkpt>
      <trkpt lat="42.78166738" lon="13.47474259">
        <ele>757.00000</ele>
        <time>2024-02-16T13:01:22Z</time>
      </trkpt>
      <trkpt lat="42.78163134" lon="13.47474695">
        <ele>757.00000</ele>
        <time>2024-02-16T13:01:23Z</time>
      </trkpt>
      <trkpt lat="42.78158641" lon="13.47475449">
        <ele>758.00000</ele>
        <time>2024-02-16T13:01:24Z</time>
      </trkpt>
      <trkpt lat="42.78155053" lon="13.47476396">
        <ele>759.00000</ele>
        <time>2024-02-16T13:01:25Z</time>
      </trkpt>
      <trkpt lat="42.78151550" lon="13.47477192">
        <ele>759.00000</ele>
        <time>2024-02-16T13:01:26Z</time>
      </trkpt>
      <trkpt lat="42.78147895" lon="13.47478098">
        <ele>760.00000</ele>
        <time>2024-02-16T13:01:27Z</time>
      </trkpt>
      <trkpt lat="42.78144367" lon="13.47479280">
        <ele>760.00000</ele>
        <time>2024-02-16T13:01:28Z</time>
      </trkpt>
      <trkpt lat="42.78140963" lon="13.47480998">
        <ele>760.00000</ele>
        <time>2024-02-16T13:01:29Z</time>
      </trkpt>
      <trkpt lat="42.78137502" lon="13.47482733">
        <ele>760.00000</ele>
        <time>2024-02-16T13:01:30Z</time>
      </trkpt>
      <trkpt lat="42.78134325" lon="13.47484862">
        <ele>761.00000</ele>
        <time>2024-02-16T13:01:31Z</time>
      </trkpt>
      <trkpt lat="42.78131282" lon="13.47487351">
        <ele>761.00000</ele>
        <time>2024-02-16T13:01:32Z</time>
      </trkpt>
      <trkpt lat="42.78128374" lon="13.47490117">
        <ele>761.00000</ele>
        <time>2024-02-16T13:01:33Z</time>
      </trkpt>
      <trkpt lat="42.78125239" lon="13.47493126">
        <ele>761.00000</ele>
        <time>2024-02-16T13:01:34Z</time>
      </trkpt>
      <trkpt lat="42.78122280" lon="13.47496437">
        <ele>761.00000</ele>
        <time>2024-02-16T13:01:35Z</time>
      </trkpt>
      <trkpt lat="42.78119640" lon="13.47499849">
        <ele>760.00000</ele>
        <time>2024-02-16T13:01:36Z</time>
      </trkpt>
      <trkpt lat="42.78116874" lon="13.47503134">
        <ele>760.00000</ele>
        <time>2024-02-16T13:01:37Z</time>
      </trkpt>
      <trkpt lat="42.78114845" lon="13.47506512">
        <ele>760.00000</ele>
        <time>2024-02-16T13:01:38Z</time>
      </trkpt>
      <trkpt lat="42.78112901" lon="13.47509823">
        <ele>759.00000</ele>
        <time>2024-02-16T13:01:39Z</time>
      </trkpt>
      <trkpt lat="42.78110898" lon="13.47513134">
        <ele>759.00000</ele>
        <time>2024-02-16T13:01:40Z</time>
      </trkpt>
      <trkpt lat="42.78109070" lon="13.47516504">
        <ele>758.00000</ele>
        <time>2024-02-16T13:01:41Z</time>
      </trkpt>
      <trkpt lat="42.78106958" lon="13.47519890">
        <ele>758.00000</ele>
        <time>2024-02-16T13:01:42Z</time>
      </trkpt>
      <trkpt lat="42.78104921" lon="13.47523620">
        <ele>757.00000</ele>
        <time>2024-02-16T13:01:43Z</time>
      </trkpt>
      <trkpt lat="42.78103119" lon="13.47527626">
        <ele>756.00000</ele>
        <time>2024-02-16T13:01:44Z</time>
      </trkpt>
      <trkpt lat="42.78100948" lon="13.47531574">
        <ele>755.00000</ele>
        <time>2024-02-16T13:01:45Z</time>
      </trkpt>
      <trkpt lat="42.78098870" lon="13.47535765">
        <ele>754.00000</ele>
        <time>2024-02-16T13:01:46Z</time>
      </trkpt>
      <trkpt lat="42.78096917" lon="13.47540023">
        <ele>753.00000</ele>
        <time>2024-02-16T13:01:47Z</time>
      </trkpt>
      <trkpt lat="42.78094913" lon="13.47544508">
        <ele>752.00000</ele>
        <time>2024-02-16T13:01:48Z</time>
      </trkpt>
      <trkpt lat="42.78092952" lon="13.47549243">
        <ele>751.00000</ele>
        <time>2024-02-16T13:01:49Z</time>
      </trkpt>
      <trkpt lat="42.78091267" lon="13.47553862">
        <ele>750.00000</ele>
        <time>2024-02-16T13:01:50Z</time>
      </trkpt>
      <trkpt lat="42.78089306" lon="13.47558514">
        <ele>749.00000</ele>
        <time>2024-02-16T13:01:51Z</time>
      </trkpt>
      <trkpt lat="42.78087244" lon="13.47562696">
        <ele>749.00000</ele>
        <time>2024-02-16T13:01:52Z</time>
      </trkpt>
      <trkpt lat="42.78084897" lon="13.47566108">
        <ele>748.00000</ele>
        <time>2024-02-16T13:01:53Z</time>
      </trkpt>
      <trkpt lat="42.78081838" lon="13.47567893">
        <ele>748.00000</ele>
        <time>2024-02-16T13:01:54Z</time>
      </trkpt>
      <trkpt lat="42.78078284" lon="13.47567734">
        <ele>748.00000</ele>
        <time>2024-02-16T13:01:55Z</time>
      </trkpt>
      <trkpt lat="42.78074688" lon="13.47565622">
        <ele>748.00000</ele>
        <time>2024-02-16T13:01:56Z</time>
      </trkpt>
      <trkpt lat="42.78071670" lon="13.47562101">
        <ele>749.00000</ele>
        <time>2024-02-16T13:01:57Z</time>
      </trkpt>
      <trkpt lat="42.78069214" lon="13.47557868">
        <ele>750.00000</ele>
        <time>2024-02-16T13:01:58Z</time>
      </trkpt>
      <trkpt lat="42.78066817" lon="13.47553476">
        <ele>751.00000</ele>
        <time>2024-02-16T13:01:59Z</time>
      </trkpt>
      <trkpt lat="42.78064973" lon="13.47549780">
        <ele>752.00000</ele>
        <time>2024-02-16T13:02:00Z</time>
      </trkpt>
      <trkpt lat="42.78062459" lon="13.47544541">
        <ele>754.00000</ele>
        <time>2024-02-16T13:02:01Z</time>
      </trkpt>
      <trkpt lat="42.78060765" lon="13.47541306">
        <ele>755.00000</ele>
        <time>2024-02-16T13:02:02Z</time>
      </trkpt>
      <trkpt lat="42.78058687" lon="13.47537098">
        <ele>756.00000</ele>
        <time>2024-02-16T13:02:03Z</time>
      </trkpt>
      <trkpt lat="42.78056717" lon="13.47532890">
        <ele>758.00000</ele>
        <time>2024-02-16T13:02:04Z</time>
      </trkpt>
      <trkpt lat="42.78054798" lon="13.47528557">
        <ele>759.00000</ele>
        <time>2024-02-16T13:02:05Z</time>
      </trkpt>
      <trkpt lat="42.78053297" lon="13.47524207">
        <ele>759.00000</ele>
        <time>2024-02-16T13:02:06Z</time>
      </trkpt>
      <trkpt lat="42.78051897" lon="13.47519898">
        <ele>760.00000</ele>
        <time>2024-02-16T13:02:07Z</time>
      </trkpt>
      <trkpt lat="42.78050615" lon="13.47515498">
        <ele>761.00000</ele>
        <time>2024-02-16T13:02:08Z</time>
      </trkpt>
      <trkpt lat="42.78049274" lon="13.47511374">
        <ele>762.00000</ele>
        <time>2024-02-16T13:02:09Z</time>
      </trkpt>
      <trkpt lat="42.78047966" lon="13.47507376">
        <ele>763.00000</ele>
        <time>2024-02-16T13:02:10Z</time>
      </trkpt>
      <trkpt lat="42.78046801" lon="13.47502908">
        <ele>764.00000</ele>
        <time>2024-02-16T13:02:11Z</time>
      </trkpt>
      <trkpt lat="42.78045401" lon="13.47498709">
        <ele>765.00000</ele>
        <time>2024-02-16T13:02:12Z</time>
      </trkpt>
      <trkpt lat="42.78043708" lon="13.47494929">
        <ele>766.00000</ele>
        <time>2024-02-16T13:02:13Z</time>
      </trkpt>
      <trkpt lat="42.78041881" lon="13.47491308">
        <ele>767.00000</ele>
        <time>2024-02-16T13:02:14Z</time>
      </trkpt>
      <trkpt lat="42.78040129" lon="13.47487402">
        <ele>769.00000</ele>
        <time>2024-02-16T13:02:15Z</time>
      </trkpt>
      <trkpt lat="42.78037933" lon="13.47482775">
        <ele>771.00000</ele>
        <time>2024-02-16T13:02:16Z</time>
      </trkpt>
      <trkpt lat="42.78035854" lon="13.47479221">
        <ele>772.00000</ele>
        <time>2024-02-16T13:02:17Z</time>
      </trkpt>
      <trkpt lat="42.78033566" lon="13.47476111">
        <ele>772.00000</ele>
        <time>2024-02-16T13:02:18Z</time>
      </trkpt>
      <trkpt lat="42.78031219" lon="13.47473077">
        <ele>773.00000</ele>
        <time>2024-02-16T13:02:19Z</time>
      </trkpt>
      <trkpt lat="42.78028805" lon="13.47469582">
        <ele>774.00000</ele>
        <time>2024-02-16T13:02:20Z</time>
      </trkpt>
      <trkpt lat="42.78026861" lon="13.47465801">
        <ele>776.00000</ele>
        <time>2024-02-16T13:02:21Z</time>
      </trkpt>
      <trkpt lat="42.78025126" lon="13.47462046">
        <ele>777.00000</ele>
        <time>2024-02-16T13:02:22Z</time>
      </trkpt>
      <trkpt lat="42.78023248" lon="13.47458065">
        <ele>779.00000</ele>
        <time>2024-02-16T13:02:23Z</time>
      </trkpt>
      <trkpt lat="42.78021362" lon="13.47453991">
        <ele>781.00000</ele>
        <time>2024-02-16T13:02:24Z</time>
      </trkpt>
      <trkpt lat="42.78019459" lon="13.47449691">
        <ele>783.00000</ele>
        <time>2024-02-16T13:02:25Z</time>
      </trkpt>
      <trkpt lat="42.78016945" lon="13.47445844">
        <ele>785.00000</ele>
        <time>2024-02-16T13:02:26Z</time>
      </trkpt>
      <trkpt lat="42.78013760" lon="13.47442609">
        <ele>785.00000</ele>
        <time>2024-02-16T13:02:27Z</time>
      </trkpt>
      <trkpt lat="42.78011388" lon="13.47439918">
        <ele>786.00000</ele>
        <time>2024-02-16T13:02:28Z</time>
      </trkpt>
      <trkpt lat="42.78008840" lon="13.47436599">
        <ele>787.00000</ele>
        <time>2024-02-16T13:02:29Z</time>
      </trkpt>
      <trkpt lat="42.78006820" lon="13.47433045">
        <ele>788.00000</ele>
        <time>2024-02-16T13:02:30Z</time>
      </trkpt>
      <trkpt lat="42.78004724" lon="13.47429650">
        <ele>789.00000</ele>
        <time>2024-02-16T13:02:31Z</time>
      </trkpt>
      <trkpt lat="42.78002402" lon="13.47426624">
        <ele>791.00000</ele>
        <time>2024-02-16T13:02:32Z</time>
      </trkpt>
      <trkpt lat="42.78000290" lon="13.47423448">
        <ele>792.00000</ele>
        <time>2024-02-16T13:02:33Z</time>
      </trkpt>
      <trkpt lat="42.77998153" lon="13.47418938">
        <ele>794.00000</ele>
        <time>2024-02-16T13:02:34Z</time>
      </trkpt>
      <trkpt lat="42.77995613" lon="13.47415661">
        <ele>795.00000</ele>
        <time>2024-02-16T13:02:35Z</time>
      </trkpt>
      <trkpt lat="42.77992327" lon="13.47413649">
        <ele>794.00000</ele>
        <time>2024-02-16T13:02:36Z</time>
      </trkpt>
      <trkpt lat="42.77988254" lon="13.47410397">
        <ele>794.00000</ele>
        <time>2024-02-16T13:02:37Z</time>
      </trkpt>
      <trkpt lat="42.77985521" lon="13.47408243">
        <ele>794.00000</ele>
        <time>2024-02-16T13:02:38Z</time>
      </trkpt>
      <trkpt lat="42.77981682" lon="13.47406189">
        <ele>794.00000</ele>
        <time>2024-02-16T13:02:39Z</time>
      </trkpt>
      <trkpt lat="42.77978388" lon="13.47404220">
        <ele>794.00000</ele>
        <time>2024-02-16T13:02:40Z</time>
      </trkpt>
      <trkpt lat="42.77975195" lon="13.47402258">
        <ele>794.00000</ele>
        <time>2024-02-16T13:02:41Z</time>
      </trkpt>
      <trkpt lat="42.77971842" lon="13.47400087">
        <ele>795.00000</ele>
        <time>2024-02-16T13:02:42Z</time>
      </trkpt>
      <trkpt lat="42.77968883" lon="13.47397472">
        <ele>795.00000</ele>
        <time>2024-02-16T13:02:43Z</time>
      </trkpt>
      <trkpt lat="42.77964298" lon="13.47395259">
        <ele>795.00000</ele>
        <time>2024-02-16T13:02:44Z</time>
      </trkpt>
      <trkpt lat="42.77959822" lon="13.47394178">
        <ele>794.00000</ele>
        <time>2024-02-16T13:02:45Z</time>
      </trkpt>
      <trkpt lat="42.77954910" lon="13.47392753">
        <ele>794.00000</ele>
        <time>2024-02-16T13:02:46Z</time>
      </trkpt>
      <trkpt lat="42.77950074" lon="13.47391010">
        <ele>793.00000</ele>
        <time>2024-02-16T13:02:47Z</time>
      </trkpt>
      <trkpt lat="42.77945120" lon="13.47389258">
        <ele>792.00000</ele>
        <time>2024-02-16T13:02:48Z</time>
      </trkpt>
      <trkpt lat="42.77939789" lon="13.47387875">
        <ele>791.00000</ele>
        <time>2024-02-16T13:02:49Z</time>
      </trkpt>
      <trkpt lat="42.77934852" lon="13.47385880">
        <ele>791.00000</ele>
        <time>2024-02-16T13:02:50Z</time>
      </trkpt>
      <trkpt lat="42.77929429" lon="13.47384438">
        <ele>790.00000</ele>
        <time>2024-02-16T13:02:51Z</time>
      </trkpt>
      <trkpt lat="42.77924844" lon="13.47384011">
        <ele>788.00000</ele>
        <time>2024-02-16T13:02:52Z</time>
      </trkpt>
      <trkpt lat="42.77919111" lon="13.47383751">
        <ele>787.00000</ele>
        <time>2024-02-16T13:02:53Z</time>
      </trkpt>
      <trkpt lat="42.77911936" lon="13.47383198">
        <ele>785.00000</ele>
        <time>2024-02-16T13:02:54Z</time>
      </trkpt>
      <trkpt lat="42.77905893" lon="13.47381974">
        <ele>784.00000</ele>
        <time>2024-02-16T13:02:55Z</time>
      </trkpt>
      <trkpt lat="42.77899716" lon="13.47380273">
        <ele>782.00000</ele>
        <time>2024-02-16T13:02:56Z</time>
      </trkpt>
      <trkpt lat="42.77894552" lon="13.47379007">
        <ele>781.00000</ele>
        <time>2024-02-16T13:02:57Z</time>
      </trkpt>
      <trkpt lat="42.77886564" lon="13.47377263">
        <ele>780.00000</ele>
        <time>2024-02-16T13:02:58Z</time>
      </trkpt>
      <trkpt lat="42.77879616" lon="13.47375235">
        <ele>780.00000</ele>
        <time>2024-02-16T13:02:59Z</time>
      </trkpt>
      <trkpt lat="42.77872374" lon="13.47372301">
        <ele>779.00000</ele>
        <time>2024-02-16T13:03:00Z</time>
      </trkpt>
      <trkpt lat="42.77867102" lon="13.47369309">
        <ele>779.00000</ele>
        <time>2024-02-16T13:03:01Z</time>
      </trkpt>
      <trkpt lat="42.77861259" lon="13.47364875">
        <ele>780.00000</ele>
        <time>2024-02-16T13:03:02Z</time>
      </trkpt>
      <trkpt lat="42.77855543" lon="13.47360550">
        <ele>780.00000</ele>
        <time>2024-02-16T13:03:03Z</time>
      </trkpt>
      <trkpt lat="42.77849759" lon="13.47355881">
        <ele>780.00000</ele>
        <time>2024-02-16T13:03:04Z</time>
      </trkpt>
      <trkpt lat="42.77843959" lon="13.47350584">
        <ele>780.00000</ele>
        <time>2024-02-16T13:03:05Z</time>
      </trkpt>
      <trkpt lat="42.77838134" lon="13.47345446">
        <ele>779.00000</ele>
        <time>2024-02-16T13:03:06Z</time>
      </trkpt>
      <trkpt lat="42.77832727" lon="13.47340526">
        <ele>779.00000</ele>
        <time>2024-02-16T13:03:07Z</time>
      </trkpt>
      <trkpt lat="42.77827011" lon="13.47335622">
        <ele>778.00000</ele>
        <time>2024-02-16T13:03:08Z</time>
      </trkpt>
      <trkpt lat="42.77821211" lon="13.47330333">
        <ele>776.00000</ele>
        <time>2024-02-16T13:03:09Z</time>
      </trkpt>
      <trkpt lat="42.77814245" lon="13.47324281">
        <ele>773.00000</ele>
        <time>2024-02-16T13:03:10Z</time>
      </trkpt>
      <trkpt lat="42.77809317" lon="13.47320719">
        <ele>771.00000</ele>
        <time>2024-02-16T13:03:11Z</time>
      </trkpt>
      <trkpt lat="42.77802544" lon="13.47317039">
        <ele>769.00000</ele>
        <time>2024-02-16T13:03:12Z</time>
      </trkpt>
      <trkpt lat="42.77795151" lon="13.47315397">
        <ele>768.00000</ele>
        <time>2024-02-16T13:03:13Z</time>
      </trkpt>
      <trkpt lat="42.77787775" lon="13.47316084">
        <ele>768.00000</ele>
        <time>2024-02-16T13:03:14Z</time>
      </trkpt>
      <trkpt lat="42.77780265" lon="13.47318029">
        <ele>768.00000</ele>
        <time>2024-02-16T13:03:15Z</time>
      </trkpt>
      <trkpt lat="42.77772772" lon="13.47319931">
        <ele>769.00000</ele>
        <time>2024-02-16T13:03:16Z</time>
      </trkpt>
      <trkpt lat="42.77765555" lon="13.47321683">
        <ele>770.00000</ele>
        <time>2024-02-16T13:03:17Z</time>
      </trkpt>
      <trkpt lat="42.77758657" lon="13.47323083">
        <ele>772.00000</ele>
        <time>2024-02-16T13:03:18Z</time>
      </trkpt>
      <trkpt lat="42.77752018" lon="13.47324022">
        <ele>773.00000</ele>
        <time>2024-02-16T13:03:19Z</time>
      </trkpt>
      <trkpt lat="42.77745514" lon="13.47324441">
        <ele>773.00000</ele>
        <time>2024-02-16T13:03:20Z</time>
      </trkpt>
      <trkpt lat="42.77739445" lon="13.47324290">
        <ele>774.00000</ele>
        <time>2024-02-16T13:03:21Z</time>
      </trkpt>
      <trkpt lat="42.77733637" lon="13.47322773">
        <ele>773.00000</ele>
        <time>2024-02-16T13:03:22Z</time>
      </trkpt>
      <trkpt lat="42.77727870" lon="13.47320409">
        <ele>773.00000</ele>
        <time>2024-02-16T13:03:23Z</time>
      </trkpt>
      <trkpt lat="42.77722061" lon="13.47317777">
        <ele>772.00000</ele>
        <time>2024-02-16T13:03:24Z</time>
      </trkpt>
      <trkpt lat="42.77716370" lon="13.47315086">
        <ele>771.00000</ele>
        <time>2024-02-16T13:03:25Z</time>
      </trkpt>
      <trkpt lat="42.77710804" lon="13.47312279">
        <ele>770.00000</ele>
        <time>2024-02-16T13:03:26Z</time>
      </trkpt>
      <trkpt lat="42.77705079" lon="13.47309487">
        <ele>769.00000</ele>
        <time>2024-02-16T13:03:27Z</time>
      </trkpt>
      <trkpt lat="42.77699455" lon="13.47307191">
        <ele>768.00000</ele>
        <time>2024-02-16T13:03:28Z</time>
      </trkpt>
      <trkpt lat="42.77693730" lon="13.47305925">
        <ele>768.00000</ele>
        <time>2024-02-16T13:03:29Z</time>
      </trkpt>
      <trkpt lat="42.77688123" lon="13.47306529">
        <ele>767.00000</ele>
        <time>2024-02-16T13:03:30Z</time>
      </trkpt>
      <trkpt lat="42.77683119" lon="13.47308465">
        <ele>767.00000</ele>
        <time>2024-02-16T13:03:31Z</time>
      </trkpt>
      <trkpt lat="42.77678526" lon="13.47310954">
        <ele>767.00000</ele>
        <time>2024-02-16T13:03:32Z</time>
      </trkpt>
      <trkpt lat="42.77674988" lon="13.47314659">
        <ele>768.00000</ele>
        <time>2024-02-16T13:03:33Z</time>
      </trkpt>
      <trkpt lat="42.77671904" lon="13.47319546">
        <ele>769.00000</ele>
        <time>2024-02-16T13:03:34Z</time>
      </trkpt>
      <trkpt lat="42.77668979" lon="13.47324407">
        <ele>770.00000</ele>
        <time>2024-02-16T13:03:35Z</time>
      </trkpt>
      <trkpt lat="42.77666187" lon="13.47329369">
        <ele>771.00000</ele>
        <time>2024-02-16T13:03:36Z</time>
      </trkpt>
      <trkpt lat="42.77663572" lon="13.47333652">
        <ele>772.00000</ele>
        <time>2024-02-16T13:03:37Z</time>
      </trkpt>
      <trkpt lat="42.77661108" lon="13.47337768">
        <ele>772.00000</ele>
        <time>2024-02-16T13:03:38Z</time>
      </trkpt>
      <trkpt lat="42.77658786" lon="13.47341892">
        <ele>773.00000</ele>
        <time>2024-02-16T13:03:39Z</time>
      </trkpt>
      <trkpt lat="42.77656950" lon="13.47346192">
        <ele>773.00000</ele>
        <time>2024-02-16T13:03:40Z</time>
      </trkpt>
      <trkpt lat="42.77655065" lon="13.47350508">
        <ele>774.00000</ele>
        <time>2024-02-16T13:03:41Z</time>
      </trkpt>
      <trkpt lat="42.77653170" lon="13.47355781">
        <ele>775.00000</ele>
        <time>2024-02-16T13:03:42Z</time>
      </trkpt>
      <trkpt lat="42.77651963" lon="13.47359410">
        <ele>776.00000</ele>
        <time>2024-02-16T13:03:43Z</time>
      </trkpt>
      <trkpt lat="42.77650505" lon="13.47364104">
        <ele>777.00000</ele>
        <time>2024-02-16T13:03:44Z</time>
      </trkpt>
      <trkpt lat="42.77649180" lon="13.47368638">
        <ele>777.00000</ele>
        <time>2024-02-16T13:03:45Z</time>
      </trkpt>
      <trkpt lat="42.77647663" lon="13.47373114">
        <ele>778.00000</ele>
        <time>2024-02-16T13:03:46Z</time>
      </trkpt>
      <trkpt lat="42.77646222" lon="13.47377808">
        <ele>779.00000</ele>
        <time>2024-02-16T13:03:47Z</time>
      </trkpt>
      <trkpt lat="42.77644855" lon="13.47382594">
        <ele>780.00000</ele>
        <time>2024-02-16T13:03:48Z</time>
      </trkpt>
      <trkpt lat="42.77643389" lon="13.47387338">
        <ele>780.00000</ele>
        <time>2024-02-16T13:03:49Z</time>
      </trkpt>
      <trkpt lat="42.77641645" lon="13.47391672">
        <ele>781.00000</ele>
        <time>2024-02-16T13:03:50Z</time>
      </trkpt>
      <trkpt lat="42.77639717" lon="13.47395695">
        <ele>781.00000</ele>
        <time>2024-02-16T13:03:51Z</time>
      </trkpt>
      <trkpt lat="42.77638007" lon="13.47400012">
        <ele>782.00000</ele>
        <time>2024-02-16T13:03:52Z</time>
      </trkpt>
      <trkpt lat="42.77636448" lon="13.47404832">
        <ele>783.00000</ele>
        <time>2024-02-16T13:03:53Z</time>
      </trkpt>
      <trkpt lat="42.77634906" lon="13.47409266">
        <ele>784.00000</ele>
        <time>2024-02-16T13:03:54Z</time>
      </trkpt>
      <trkpt lat="42.77633297" lon="13.47413549">
        <ele>785.00000</ele>
        <time>2024-02-16T13:03:55Z</time>
      </trkpt>
      <trkpt lat="42.77631327" lon="13.47417530">
        <ele>785.00000</ele>
        <time>2024-02-16T13:03:56Z</time>
      </trkpt>
      <trkpt lat="42.77629030" lon="13.47422601">
        <ele>786.00000</ele>
        <time>2024-02-16T13:03:57Z</time>
      </trkpt>
      <trkpt lat="42.77627111" lon="13.47427295">
        <ele>787.00000</ele>
        <time>2024-02-16T13:03:58Z</time>
      </trkpt>
      <trkpt lat="42.77624764" lon="13.47431285">
        <ele>788.00000</ele>
        <time>2024-02-16T13:03:59Z</time>
      </trkpt>
      <trkpt lat="42.77623046" lon="13.47435258">
        <ele>789.00000</ele>
        <time>2024-02-16T13:04:00Z</time>
      </trkpt>
      <trkpt lat="42.77621696" lon="13.47438929">
        <ele>789.00000</ele>
        <time>2024-02-16T13:04:01Z</time>
      </trkpt>
      <trkpt lat="42.77621369" lon="13.47442726">
        <ele>790.00000</ele>
        <time>2024-02-16T13:04:02Z</time>
      </trkpt>
      <trkpt lat="42.77622518" lon="13.47445836">
        <ele>791.00000</ele>
        <time>2024-02-16T13:04:03Z</time>
      </trkpt>
      <trkpt lat="42.77624177" lon="13.47446909">
        <ele>792.00000</ele>
        <time>2024-02-16T13:04:04Z</time>
      </trkpt>
      <trkpt lat="42.77626985" lon="13.47446967">
        <ele>792.00000</ele>
        <time>2024-02-16T13:04:05Z</time>
      </trkpt>
      <trkpt lat="42.77629533" lon="13.47444076">
        <ele>792.00000</ele>
        <time>2024-02-16T13:04:06Z</time>
      </trkpt>
      <trkpt lat="42.77630916" lon="13.47441360">
        <ele>792.00000</ele>
        <time>2024-02-16T13:04:07Z</time>
      </trkpt>
      <trkpt lat="42.77632785" lon="13.47437990">
        <ele>791.00000</ele>
        <time>2024-02-16T13:04:08Z</time>
      </trkpt>
      <trkpt lat="42.77634889" lon="13.47434805">
        <ele>791.00000</ele>
        <time>2024-02-16T13:04:09Z</time>
      </trkpt>
      <trkpt lat="42.77637194" lon="13.47431788">
        <ele>790.00000</ele>
        <time>2024-02-16T13:04:10Z</time>
      </trkpt>
      <trkpt lat="42.77639776" lon="13.47428737">
        <ele>790.00000</ele>
        <time>2024-02-16T13:04:11Z</time>
      </trkpt>
      <trkpt lat="42.77642190" lon="13.47425870">
        <ele>790.00000</ele>
        <time>2024-02-16T13:04:12Z</time>
      </trkpt>
      <trkpt lat="42.77644202" lon="13.47422693">
        <ele>790.00000</ele>
        <time>2024-02-16T13:04:13Z</time>
      </trkpt>
      <trkpt lat="42.77646674" lon="13.47419911">
        <ele>789.00000</ele>
        <time>2024-02-16T13:04:14Z</time>
      </trkpt>
      <trkpt lat="42.77649147" lon="13.47416994">
        <ele>789.00000</ele>
        <time>2024-02-16T13:04:15Z</time>
      </trkpt>
      <trkpt lat="42.77651854" lon="13.47414253">
        <ele>789.00000</ele>
        <time>2024-02-16T13:04:16Z</time>
      </trkpt>
      <trkpt lat="42.77654486" lon="13.47411327">
        <ele>789.00000</ele>
        <time>2024-02-16T13:04:17Z</time>
      </trkpt>
      <trkpt lat="42.77657613" lon="13.47407765">
        <ele>789.00000</ele>
        <time>2024-02-16T13:04:18Z</time>
      </trkpt>
      <trkpt lat="42.77659867" lon="13.47405661">
        <ele>789.00000</ele>
        <time>2024-02-16T13:04:19Z</time>
      </trkpt>
      <trkpt lat="42.77662692" lon="13.47403205">
        <ele>790.00000</ele>
        <time>2024-02-16T13:04:20Z</time>
      </trkpt>
      <trkpt lat="42.77665886" lon="13.47400674">
        <ele>790.00000</ele>
        <time>2024-02-16T13:04:21Z</time>
      </trkpt>
      <trkpt lat="42.77668048" lon="13.47398956">
        <ele>790.00000</ele>
        <time>2024-02-16T13:04:22Z</time>
      </trkpt>
      <trkpt lat="42.77671091" lon="13.47397053">
        <ele>790.00000</ele>
        <time>2024-02-16T13:04:23Z</time>
      </trkpt>
      <trkpt lat="42.77674829" lon="13.47396005">
        <ele>790.00000</ele>
        <time>2024-02-16T13:04:24Z</time>
      </trkpt>
      <trkpt lat="42.77678148" lon="13.47395075">
        <ele>790.00000</ele>
        <time>2024-02-16T13:04:25Z</time>
      </trkpt>
      <trkpt lat="42.77681685" lon="13.47394078">
        <ele>791.00000</ele>
        <time>2024-02-16T13:04:26Z</time>
      </trkpt>
      <trkpt lat="42.77684619" lon="13.47393097">
        <ele>791.00000</ele>
        <time>2024-02-16T13:04:27Z</time>
      </trkpt>
      <trkpt lat="42.77688215" lon="13.47392384">
        <ele>791.00000</ele>
        <time>2024-02-16T13:04:28Z</time>
      </trkpt>
      <trkpt lat="42.77690906" lon="13.47392669">
        <ele>792.00000</ele>
        <time>2024-02-16T13:04:29Z</time>
      </trkpt>
      <trkpt lat="42.77693487" lon="13.47392879">
        <ele>792.00000</ele>
        <time>2024-02-16T13:04:30Z</time>
      </trkpt>
      <trkpt lat="42.77696915" lon="13.47393424">
        <ele>792.00000</ele>
        <time>2024-02-16T13:04:31Z</time>
      </trkpt>
      <trkpt lat="42.77700302" lon="13.47393935">
        <ele>792.00000</ele>
        <time>2024-02-16T13:04:32Z</time>
      </trkpt>
      <trkpt lat="42.77703043" lon="13.47394488">
        <ele>793.00000</ele>
        <time>2024-02-16T13:04:33Z</time>
      </trkpt>
      <trkpt lat="42.77706110" lon="13.47395402">
        <ele>793.00000</ele>
        <time>2024-02-16T13:04:34Z</time>
      </trkpt>
      <trkpt lat="42.77709103" lon="13.47396366">
        <ele>793.00000</ele>
        <time>2024-02-16T13:04:35Z</time>
      </trkpt>
      <trkpt lat="42.77711492" lon="13.47397380">
        <ele>793.00000</ele>
        <time>2024-02-16T13:04:36Z</time>
      </trkpt>
      <trkpt lat="42.77714207" lon="13.47398906">
        <ele>793.00000</ele>
        <time>2024-02-16T13:04:37Z</time>
      </trkpt>
      <trkpt lat="42.77716504" lon="13.47400330">
        <ele>794.00000</ele>
        <time>2024-02-16T13:04:38Z</time>
      </trkpt>
      <trkpt lat="42.77718683" lon="13.47401906">
        <ele>794.00000</ele>
        <time>2024-02-16T13:04:39Z</time>
      </trkpt>
      <trkpt lat="42.77720854" lon="13.47403306">
        <ele>794.00000</ele>
        <time>2024-02-16T13:04:40Z</time>
      </trkpt>
      <trkpt lat="42.77722933" lon="13.47404924">
        <ele>794.00000</ele>
        <time>2024-02-16T13:04:41Z</time>
      </trkpt>
      <trkpt lat="42.77725070" lon="13.47406407">
        <ele>794.00000</ele>
        <time>2024-02-16T13:04:42Z</time>
      </trkpt>
      <trkpt lat="42.77727157" lon="13.47407950">
        <ele>794.00000</ele>
        <time>2024-02-16T13:04:43Z</time>
      </trkpt>
      <trkpt lat="42.77729370" lon="13.47409592">
        <ele>794.00000</ele>
        <time>2024-02-16T13:04:44Z</time>
      </trkpt>
      <trkpt lat="42.77731583" lon="13.47411160">
        <ele>794.00000</ele>
        <time>2024-02-16T13:04:45Z</time>
      </trkpt>
      <trkpt lat="42.77733586" lon="13.47412845">
        <ele>794.00000</ele>
        <time>2024-02-16T13:04:46Z</time>
      </trkpt>
      <trkpt lat="42.77735413" lon="13.47415166">
        <ele>793.00000</ele>
        <time>2024-02-16T13:04:47Z</time>
      </trkpt>
      <trkpt lat="42.77736889" lon="13.47417706">
        <ele>793.00000</ele>
        <time>2024-02-16T13:04:48Z</time>
      </trkpt>
      <trkpt lat="42.77738297" lon="13.47420246">
        <ele>793.00000</ele>
        <time>2024-02-16T13:04:49Z</time>
      </trkpt>
      <trkpt lat="42.77739269" lon="13.47422861">
        <ele>792.00000</ele>
        <time>2024-02-16T13:04:50Z</time>
      </trkpt>
      <trkpt lat="42.77739780" lon="13.47425937">
        <ele>792.00000</ele>
        <time>2024-02-16T13:04:51Z</time>
      </trkpt>
      <trkpt lat="42.77739906" lon="13.47429726">
        <ele>792.00000</ele>
        <time>2024-02-16T13:04:52Z</time>
      </trkpt>
      <trkpt lat="42.77738909" lon="13.47431109">
        <ele>792.00000</ele>
        <time>2024-02-16T13:04:53Z</time>
      </trkpt>
      <trkpt lat="42.77737157" lon="13.47432198">
        <ele>793.00000</ele>
        <time>2024-02-16T13:04:54Z</time>
      </trkpt>
      <trkpt lat="42.77734986" lon="13.47432794">
        <ele>794.00000</ele>
        <time>2024-02-16T13:04:55Z</time>
      </trkpt>
      <trkpt lat="42.77732228" lon="13.47432693">
        <ele>795.00000</ele>
        <time>2024-02-16T13:04:56Z</time>
      </trkpt>
      <trkpt lat="42.77729127" lon="13.47432098">
        <ele>796.00000</ele>
        <time>2024-02-16T13:04:57Z</time>
      </trkpt>
      <trkpt lat="42.77725665" lon="13.47431478">
        <ele>797.00000</ele>
        <time>2024-02-16T13:04:58Z</time>
      </trkpt>
      <trkpt lat="42.77722757" lon="13.47431134">
        <ele>798.00000</ele>
        <time>2024-02-16T13:04:59Z</time>
      </trkpt>
      <trkpt lat="42.77719991" lon="13.47430774">
        <ele>799.00000</ele>
        <time>2024-02-16T13:05:00Z</time>
      </trkpt>
      <trkpt lat="42.77717183" lon="13.47430715">
        <ele>799.00000</ele>
        <time>2024-02-16T13:05:01Z</time>
      </trkpt>
      <trkpt lat="42.77714191" lon="13.47430983">
        <ele>799.00000</ele>
        <time>2024-02-16T13:05:02Z</time>
      </trkpt>
      <trkpt lat="42.77710930" lon="13.47431779">
        <ele>799.00000</ele>
        <time>2024-02-16T13:05:03Z</time>
      </trkpt>
      <trkpt lat="42.77707410" lon="13.47432693">
        <ele>799.00000</ele>
        <time>2024-02-16T13:05:04Z</time>
      </trkpt>
      <trkpt lat="42.77703395" lon="13.47434051">
        <ele>800.00000</ele>
        <time>2024-02-16T13:05:05Z</time>
      </trkpt>
      <trkpt lat="42.77699799" lon="13.47436012">
        <ele>800.00000</ele>
        <time>2024-02-16T13:05:06Z</time>
      </trkpt>
      <trkpt lat="42.77696421" lon="13.47438418">
        <ele>801.00000</ele>
        <time>2024-02-16T13:05:07Z</time>
      </trkpt>
      <trkpt lat="42.77693068" lon="13.47441050">
        <ele>802.00000</ele>
        <time>2024-02-16T13:05:08Z</time>
      </trkpt>
      <trkpt lat="42.77689590" lon="13.47443816">
        <ele>802.00000</ele>
        <time>2024-02-16T13:05:09Z</time>
      </trkpt>
      <trkpt lat="42.77686136" lon="13.47447311">
        <ele>802.00000</ele>
        <time>2024-02-16T13:05:10Z</time>
      </trkpt>
      <trkpt lat="42.77682825" lon="13.47451812">
        <ele>803.00000</ele>
        <time>2024-02-16T13:05:11Z</time>
      </trkpt>
      <trkpt lat="42.77679288" lon="13.47456456">
        <ele>804.00000</ele>
        <time>2024-02-16T13:05:12Z</time>
      </trkpt>
      <trkpt lat="42.77675894" lon="13.47461569">
        <ele>804.00000</ele>
        <time>2024-02-16T13:05:13Z</time>
      </trkpt>
      <trkpt lat="42.77672817" lon="13.47467352">
        <ele>805.00000</ele>
        <time>2024-02-16T13:05:14Z</time>
      </trkpt>
      <trkpt lat="42.77670043" lon="13.47473253">
        <ele>806.00000</ele>
        <time>2024-02-16T13:05:15Z</time>
      </trkpt>
      <trkpt lat="42.77667311" lon="13.47479648">
        <ele>807.00000</ele>
        <time>2024-02-16T13:05:16Z</time>
      </trkpt>
      <trkpt lat="42.77664871" lon="13.47486203">
        <ele>808.00000</ele>
        <time>2024-02-16T13:05:17Z</time>
      </trkpt>
      <trkpt lat="42.77661737" lon="13.47492523">
        <ele>808.00000</ele>
        <time>2024-02-16T13:05:18Z</time>
      </trkpt>
      <trkpt lat="42.77659348" lon="13.47498801">
        <ele>808.00000</ele>
        <time>2024-02-16T13:05:19Z</time>
      </trkpt>
      <trkpt lat="42.77657571" lon="13.47505079">
        <ele>809.00000</ele>
        <time>2024-02-16T13:05:20Z</time>
      </trkpt>
      <trkpt lat="42.77655878" lon="13.47510896">
        <ele>810.00000</ele>
        <time>2024-02-16T13:05:21Z</time>
      </trkpt>
      <trkpt lat="42.77654713" lon="13.47516453">
        <ele>810.00000</ele>
        <time>2024-02-16T13:05:22Z</time>
      </trkpt>
      <trkpt lat="42.77653707" lon="13.47522245">
        <ele>811.00000</ele>
        <time>2024-02-16T13:05:23Z</time>
      </trkpt>
      <trkpt lat="42.77652944" lon="13.47527744">
        <ele>812.00000</ele>
        <time>2024-02-16T13:05:24Z</time>
      </trkpt>
      <trkpt lat="42.77652223" lon="13.47533024">
        <ele>812.00000</ele>
        <time>2024-02-16T13:05:25Z</time>
      </trkpt>
      <trkpt lat="42.77651418" lon="13.47538640">
        <ele>813.00000</ele>
        <time>2024-02-16T13:05:26Z</time>
      </trkpt>
      <trkpt lat="42.77650672" lon="13.47544407">
        <ele>813.00000</ele>
        <time>2024-02-16T13:05:27Z</time>
      </trkpt>
      <trkpt lat="42.77649390" lon="13.47549319">
        <ele>813.00000</ele>
        <time>2024-02-16T13:05:28Z</time>
      </trkpt>
      <trkpt lat="42.77649281" lon="13.47554432">
        <ele>813.00000</ele>
        <time>2024-02-16T13:05:29Z</time>
      </trkpt>
      <trkpt lat="42.77648191" lon="13.47559922">
        <ele>813.00000</ele>
        <time>2024-02-16T13:05:30Z</time>
      </trkpt>
      <trkpt lat="42.77647563" lon="13.47566091">
        <ele>813.00000</ele>
        <time>2024-02-16T13:05:31Z</time>
      </trkpt>
      <trkpt lat="42.77646884" lon="13.47572570">
        <ele>813.00000</ele>
        <time>2024-02-16T13:05:32Z</time>
      </trkpt>
      <trkpt lat="42.77645912" lon="13.47578899">
        <ele>814.00000</ele>
        <time>2024-02-16T13:05:33Z</time>
      </trkpt>
      <trkpt lat="42.77643732" lon="13.47584741">
        <ele>814.00000</ele>
        <time>2024-02-16T13:05:34Z</time>
      </trkpt>
      <trkpt lat="42.77642064" lon="13.47590549">
        <ele>813.00000</ele>
        <time>2024-02-16T13:05:35Z</time>
      </trkpt>
      <trkpt lat="42.77641301" lon="13.47597590">
        <ele>812.00000</ele>
        <time>2024-02-16T13:05:36Z</time>
      </trkpt>
      <trkpt lat="42.77639307" lon="13.47604664">
        <ele>812.00000</ele>
        <time>2024-02-16T13:05:37Z</time>
      </trkpt>
      <trkpt lat="42.77636113" lon="13.47611395">
        <ele>812.00000</ele>
        <time>2024-02-16T13:05:38Z</time>
      </trkpt>
      <trkpt lat="42.77633280" lon="13.47617539">
        <ele>811.00000</ele>
        <time>2024-02-16T13:05:39Z</time>
      </trkpt>
      <trkpt lat="42.77629575" lon="13.47622795">
        <ele>810.00000</ele>
        <time>2024-02-16T13:05:40Z</time>
      </trkpt>
      <trkpt lat="42.77625326" lon="13.47627321">
        <ele>810.00000</ele>
        <time>2024-02-16T13:05:41Z</time>
      </trkpt>
      <trkpt lat="42.77620808" lon="13.47631109">
        <ele>811.00000</ele>
        <time>2024-02-16T13:05:42Z</time>
      </trkpt>
      <trkpt lat="42.77616139" lon="13.47633984">
        <ele>811.00000</ele>
        <time>2024-02-16T13:05:43Z</time>
      </trkpt>
      <trkpt lat="42.77611562" lon="13.47635451">
        <ele>812.00000</ele>
        <time>2024-02-16T13:05:44Z</time>
      </trkpt>
      <trkpt lat="42.77607363" lon="13.47635191">
        <ele>813.00000</ele>
        <time>2024-02-16T13:05:45Z</time>
      </trkpt>
      <trkpt lat="42.77603725" lon="13.47633498">
        <ele>814.00000</ele>
        <time>2024-02-16T13:05:46Z</time>
      </trkpt>
      <trkpt lat="42.77600599" lon="13.47630992">
        <ele>816.00000</ele>
        <time>2024-02-16T13:05:47Z</time>
      </trkpt>
      <trkpt lat="42.77598009" lon="13.47628201">
        <ele>816.00000</ele>
        <time>2024-02-16T13:05:48Z</time>
      </trkpt>
      <trkpt lat="42.77595536" lon="13.47625133">
        <ele>817.00000</ele>
        <time>2024-02-16T13:05:49Z</time>
      </trkpt>
      <trkpt lat="42.77593139" lon="13.47621772">
        <ele>818.00000</ele>
        <time>2024-02-16T13:05:50Z</time>
      </trkpt>
      <trkpt lat="42.77590951" lon="13.47618880">
        <ele>819.00000</ele>
        <time>2024-02-16T13:05:51Z</time>
      </trkpt>
      <trkpt lat="42.77588789" lon="13.47616240">
        <ele>820.00000</ele>
        <time>2024-02-16T13:05:52Z</time>
      </trkpt>
      <trkpt lat="42.77586383" lon="13.47613633">
        <ele>821.00000</ele>
        <time>2024-02-16T13:05:53Z</time>
      </trkpt>
      <trkpt lat="42.77583844" lon="13.47610976">
        <ele>821.00000</ele>
        <time>2024-02-16T13:05:54Z</time>
      </trkpt>
      <trkpt lat="42.77581865" lon="13.47607984">
        <ele>821.00000</ele>
        <time>2024-02-16T13:05:55Z</time>
      </trkpt>
      <trkpt lat="42.77580097" lon="13.47604488">
        <ele>821.00000</ele>
        <time>2024-02-16T13:05:56Z</time>
      </trkpt>
      <trkpt lat="42.77578211" lon="13.47600968">
        <ele>821.00000</ele>
        <time>2024-02-16T13:05:57Z</time>
      </trkpt>
      <trkpt lat="42.77576367" lon="13.47597900">
        <ele>821.00000</ele>
        <time>2024-02-16T13:05:58Z</time>
      </trkpt>
      <trkpt lat="42.77574523" lon="13.47594707">
        <ele>821.00000</ele>
        <time>2024-02-16T13:05:59Z</time>
      </trkpt>
      <trkpt lat="42.77572763" lon="13.47592050">
        <ele>821.00000</ele>
        <time>2024-02-16T13:06:00Z</time>
      </trkpt>
      <trkpt lat="42.77571019" lon="13.47589736">
        <ele>821.00000</ele>
        <time>2024-02-16T13:06:01Z</time>
      </trkpt>
      <trkpt lat="42.77569259" lon="13.47587775">
        <ele>822.00000</ele>
        <time>2024-02-16T13:06:02Z</time>
      </trkpt>
      <trkpt lat="42.77567055" lon="13.47585830">
        <ele>822.00000</ele>
        <time>2024-02-16T13:06:03Z</time>
      </trkpt>
      <trkpt lat="42.77564959" lon="13.47584129">
        <ele>822.00000</ele>
        <time>2024-02-16T13:06:04Z</time>
      </trkpt>
      <trkpt lat="42.77563065" lon="13.47582570">
        <ele>822.00000</ele>
        <time>2024-02-16T13:06:05Z</time>
      </trkpt>
      <trkpt lat="42.77560684" lon="13.47580986">
        <ele>822.00000</ele>
        <time>2024-02-16T13:06:06Z</time>
      </trkpt>
      <trkpt lat="42.77558287" lon="13.47579376">
        <ele>822.00000</ele>
        <time>2024-02-16T13:06:07Z</time>
      </trkpt>
      <trkpt lat="42.77556108" lon="13.47577859">
        <ele>822.00000</ele>
        <time>2024-02-16T13:06:08Z</time>
      </trkpt>
      <trkpt lat="42.77553987" lon="13.47576359">
        <ele>822.00000</ele>
        <time>2024-02-16T13:06:09Z</time>
      </trkpt>
      <trkpt lat="42.77551565" lon="13.47574657">
        <ele>822.00000</ele>
        <time>2024-02-16T13:06:10Z</time>
      </trkpt>
      <trkpt lat="42.77548807" lon="13.47573132">
        <ele>822.00000</ele>
        <time>2024-02-16T13:06:11Z</time>
      </trkpt>
      <trkpt lat="42.77545949" lon="13.47571665">
        <ele>822.00000</ele>
        <time>2024-02-16T13:06:12Z</time>
      </trkpt>
      <trkpt lat="42.77543351" lon="13.47570818">
        <ele>822.00000</ele>
        <time>2024-02-16T13:06:13Z</time>
      </trkpt>
      <trkpt lat="42.77540668" lon="13.47570014">
        <ele>822.00000</ele>
        <time>2024-02-16T13:06:14Z</time>
      </trkpt>
      <trkpt lat="42.77538028" lon="13.47569259">
        <ele>822.00000</ele>
        <time>2024-02-16T13:06:15Z</time>
      </trkpt>
      <trkpt lat="42.77535405" lon="13.47568706">
        <ele>823.00000</ele>
        <time>2024-02-16T13:06:16Z</time>
      </trkpt>
      <trkpt lat="42.77532496" lon="13.47568430">
        <ele>823.00000</ele>
        <time>2024-02-16T13:06:17Z</time>
      </trkpt>
      <trkpt lat="42.77529713" lon="13.47567851">
        <ele>823.00000</ele>
        <time>2024-02-16T13:06:18Z</time>
      </trkpt>
      <trkpt lat="42.77527014" lon="13.47567390">
        <ele>823.00000</ele>
        <time>2024-02-16T13:06:19Z</time>
      </trkpt>
      <trkpt lat="42.77524298" lon="13.47566954">
        <ele>824.00000</ele>
        <time>2024-02-16T13:06:20Z</time>
      </trkpt>
      <trkpt lat="42.77521390" lon="13.47566694">
        <ele>824.00000</ele>
        <time>2024-02-16T13:06:21Z</time>
      </trkpt>
      <trkpt lat="42.77518683" lon="13.47566493">
        <ele>825.00000</ele>
        <time>2024-02-16T13:06:22Z</time>
      </trkpt>
      <trkpt lat="42.77515850" lon="13.47566083">
        <ele>825.00000</ele>
        <time>2024-02-16T13:06:23Z</time>
      </trkpt>
      <trkpt lat="42.77513226" lon="13.47565663">
        <ele>826.00000</ele>
        <time>2024-02-16T13:06:24Z</time>
      </trkpt>
      <trkpt lat="42.77510737" lon="13.47565538">
        <ele>826.00000</ele>
        <time>2024-02-16T13:06:25Z</time>
      </trkpt>
      <trkpt lat="42.77507979" lon="13.47565462">
        <ele>827.00000</ele>
        <time>2024-02-16T13:06:26Z</time>
      </trkpt>
      <trkpt lat="42.77505339" lon="13.47565647">
        <ele>827.00000</ele>
        <time>2024-02-16T13:06:27Z</time>
      </trkpt>
      <trkpt lat="42.77502849" lon="13.47566166">
        <ele>828.00000</ele>
        <time>2024-02-16T13:06:28Z</time>
      </trkpt>
      <trkpt lat="42.77500611" lon="13.47566728">
        <ele>829.00000</ele>
        <time>2024-02-16T13:06:29Z</time>
      </trkpt>
      <trkpt lat="42.77498172" lon="13.47567046">
        <ele>829.00000</ele>
        <time>2024-02-16T13:06:30Z</time>
      </trkpt>
      <trkpt lat="42.77495683" lon="13.47567239">
        <ele>829.00000</ele>
        <time>2024-02-16T13:06:31Z</time>
      </trkpt>
      <trkpt lat="42.77493042" lon="13.47567147">
        <ele>830.00000</ele>
        <time>2024-02-16T13:06:32Z</time>
      </trkpt>
      <trkpt lat="42.77490528" lon="13.47566594">
        <ele>830.00000</ele>
        <time>2024-02-16T13:06:33Z</time>
      </trkpt>
      <trkpt lat="42.77488131" lon="13.47565722">
        <ele>830.00000</ele>
        <time>2024-02-16T13:06:34Z</time>
      </trkpt>
      <trkpt lat="42.77485574" lon="13.47565395">
        <ele>830.00000</ele>
        <time>2024-02-16T13:06:35Z</time>
      </trkpt>
      <trkpt lat="42.77482984" lon="13.47565462">
        <ele>830.00000</ele>
        <time>2024-02-16T13:06:36Z</time>
      </trkpt>
      <trkpt lat="42.77480713" lon="13.47565839">
        <ele>831.00000</ele>
        <time>2024-02-16T13:06:37Z</time>
      </trkpt>
      <trkpt lat="42.77478424" lon="13.47566301">
        <ele>831.00000</ele>
        <time>2024-02-16T13:06:38Z</time>
      </trkpt>
      <trkpt lat="42.77476279" lon="13.47566904">
        <ele>831.00000</ele>
        <time>2024-02-16T13:06:39Z</time>
      </trkpt>
      <trkpt lat="42.77474275" lon="13.47567105">
        <ele>832.00000</ele>
        <time>2024-02-16T13:06:40Z</time>
      </trkpt>
      <trkpt lat="42.77471568" lon="13.47567005">
        <ele>832.00000</ele>
        <time>2024-02-16T13:06:41Z</time>
      </trkpt>
      <trkpt lat="42.77468844" lon="13.47567415">
        <ele>832.00000</ele>
        <time>2024-02-16T13:06:42Z</time>
      </trkpt>
      <trkpt lat="42.77466212" lon="13.47567818">
        <ele>832.00000</ele>
        <time>2024-02-16T13:06:43Z</time>
      </trkpt>
      <trkpt lat="42.77463379" lon="13.47567960">
        <ele>832.00000</ele>
        <time>2024-02-16T13:06:44Z</time>
      </trkpt>
      <trkpt lat="42.77460839" lon="13.47568010">
        <ele>832.00000</ele>
        <time>2024-02-16T13:06:45Z</time>
      </trkpt>
      <trkpt lat="42.77458266" lon="13.47567969">
        <ele>832.00000</ele>
        <time>2024-02-16T13:06:46Z</time>
      </trkpt>
      <trkpt lat="42.77455818" lon="13.47568161">
        <ele>832.00000</ele>
        <time>2024-02-16T13:06:47Z</time>
      </trkpt>
      <trkpt lat="42.77453203" lon="13.47568647">
        <ele>832.00000</ele>
        <time>2024-02-16T13:06:48Z</time>
      </trkpt>
      <trkpt lat="42.77450345" lon="13.47569343">
        <ele>832.00000</ele>
        <time>2024-02-16T13:06:49Z</time>
      </trkpt>
      <trkpt lat="42.77447537" lon="13.47569637">
        <ele>833.00000</ele>
        <time>2024-02-16T13:06:50Z</time>
      </trkpt>
      <trkpt lat="42.77444880" lon="13.47570089">
        <ele>833.00000</ele>
        <time>2024-02-16T13:06:51Z</time>
      </trkpt>
      <trkpt lat="42.77442483" lon="13.47570533">
        <ele>833.00000</ele>
        <time>2024-02-16T13:06:52Z</time>
      </trkpt>
      <trkpt lat="42.77439717" lon="13.47571011">
        <ele>833.00000</ele>
        <time>2024-02-16T13:06:53Z</time>
      </trkpt>
      <trkpt lat="42.77437269" lon="13.47571556">
        <ele>833.00000</ele>
        <time>2024-02-16T13:06:54Z</time>
      </trkpt>
      <trkpt lat="42.77434914" lon="13.47572185">
        <ele>834.00000</ele>
        <time>2024-02-16T13:06:55Z</time>
      </trkpt>
      <trkpt lat="42.77432466" lon="13.47572872">
        <ele>834.00000</ele>
        <time>2024-02-16T13:06:56Z</time>
      </trkpt>
      <trkpt lat="42.77429658" lon="13.47573651">
        <ele>834.00000</ele>
        <time>2024-02-16T13:06:57Z</time>
      </trkpt>
      <trkpt lat="42.77426465" lon="13.47574976">
        <ele>835.00000</ele>
        <time>2024-02-16T13:06:58Z</time>
      </trkpt>
      <trkpt lat="42.77424177" lon="13.47575688">
        <ele>835.00000</ele>
        <time>2024-02-16T13:06:59Z</time>
      </trkpt>
      <trkpt lat="42.77421578" lon="13.47576853">
        <ele>836.00000</ele>
        <time>2024-02-16T13:07:00Z</time>
      </trkpt>
      <trkpt lat="42.77419089" lon="13.47578429">
        <ele>836.00000</ele>
        <time>2024-02-16T13:07:01Z</time>
      </trkpt>
      <trkpt lat="42.77416759" lon="13.47580248">
        <ele>837.00000</ele>
        <time>2024-02-16T13:07:02Z</time>
      </trkpt>
      <trkpt lat="42.77414437" lon="13.47582293">
        <ele>837.00000</ele>
        <time>2024-02-16T13:07:03Z</time>
      </trkpt>
      <trkpt lat="42.77411730" lon="13.47584255">
        <ele>838.00000</ele>
        <time>2024-02-16T13:07:04Z</time>
      </trkpt>
      <trkpt lat="42.77409131" lon="13.47586425">
        <ele>839.00000</ele>
        <time>2024-02-16T13:07:05Z</time>
      </trkpt>
      <trkpt lat="42.77406600" lon="13.47588839">
        <ele>839.00000</ele>
        <time>2024-02-16T13:07:06Z</time>
      </trkpt>
      <trkpt lat="42.77404244" lon="13.47591212">
        <ele>840.00000</ele>
        <time>2024-02-16T13:07:07Z</time>
      </trkpt>
      <trkpt lat="42.77402099" lon="13.47593751">
        <ele>840.00000</ele>
        <time>2024-02-16T13:07:08Z</time>
      </trkpt>
      <trkpt lat="42.77399869" lon="13.47596492">
        <ele>841.00000</ele>
        <time>2024-02-16T13:07:09Z</time>
      </trkpt>
      <trkpt lat="42.77397572" lon="13.47599141">
        <ele>842.00000</ele>
        <time>2024-02-16T13:07:10Z</time>
      </trkpt>
      <trkpt lat="42.77395226" lon="13.47601521">
        <ele>842.00000</ele>
        <time>2024-02-16T13:07:11Z</time>
      </trkpt>
      <trkpt lat="42.77392786" lon="13.47604245">
        <ele>842.00000</ele>
        <time>2024-02-16T13:07:12Z</time>
      </trkpt>
      <trkpt lat="42.77390104" lon="13.47606634">
        <ele>843.00000</ele>
        <time>2024-02-16T13:07:13Z</time>
      </trkpt>
      <trkpt lat="42.77387514" lon="13.47609073">
        <ele>843.00000</ele>
        <time>2024-02-16T13:07:14Z</time>
      </trkpt>
      <trkpt lat="42.77384782" lon="13.47611261">
        <ele>844.00000</ele>
        <time>2024-02-16T13:07:15Z</time>
      </trkpt>
      <trkpt lat="42.77381957" lon="13.47613222">
        <ele>845.00000</ele>
        <time>2024-02-16T13:07:16Z</time>
      </trkpt>
      <trkpt lat="42.77379048" lon="13.47615251">
        <ele>846.00000</ele>
        <time>2024-02-16T13:07:17Z</time>
      </trkpt>
      <trkpt lat="42.77375897" lon="13.47616818">
        <ele>847.00000</ele>
        <time>2024-02-16T13:07:18Z</time>
      </trkpt>
      <trkpt lat="42.77372578" lon="13.47617707">
        <ele>847.00000</ele>
        <time>2024-02-16T13:07:19Z</time>
      </trkpt>
      <trkpt lat="42.77369141" lon="13.47617883">
        <ele>848.00000</ele>
        <time>2024-02-16T13:07:20Z</time>
      </trkpt>
      <trkpt lat="42.77365889" lon="13.47617388">
        <ele>848.00000</ele>
        <time>2024-02-16T13:07:21Z</time>
      </trkpt>
      <trkpt lat="42.77362528" lon="13.47616131">
        <ele>849.00000</ele>
        <time>2024-02-16T13:07:22Z</time>
      </trkpt>
      <trkpt lat="42.77359435" lon="13.47614647">
        <ele>849.00000</ele>
        <time>2024-02-16T13:07:23Z</time>
      </trkpt>
      <trkpt lat="42.77356493" lon="13.47613097">
        <ele>850.00000</ele>
        <time>2024-02-16T13:07:24Z</time>
      </trkpt>
      <trkpt lat="42.77353257" lon="13.47611756">
        <ele>850.00000</ele>
        <time>2024-02-16T13:07:25Z</time>
      </trkpt>
      <trkpt lat="42.77349569" lon="13.47610280">
        <ele>851.00000</ele>
        <time>2024-02-16T13:07:26Z</time>
      </trkpt>
      <trkpt lat="42.77347289" lon="13.47609258">
        <ele>851.00000</ele>
        <time>2024-02-16T13:07:27Z</time>
      </trkpt>
      <trkpt lat="42.77344029" lon="13.47607774">
        <ele>852.00000</ele>
        <time>2024-02-16T13:07:28Z</time>
      </trkpt>
      <trkpt lat="42.77341221" lon="13.47606601">
        <ele>852.00000</ele>
        <time>2024-02-16T13:07:29Z</time>
      </trkpt>
      <trkpt lat="42.77338514" lon="13.47605469">
        <ele>853.00000</ele>
        <time>2024-02-16T13:07:30Z</time>
      </trkpt>
      <trkpt lat="42.77335337" lon="13.47604145">
        <ele>853.00000</ele>
        <time>2024-02-16T13:07:31Z</time>
      </trkpt>
      <trkpt lat="42.77332261" lon="13.47603072">
        <ele>854.00000</ele>
        <time>2024-02-16T13:07:32Z</time>
      </trkpt>
      <trkpt lat="42.77328489" lon="13.47602066">
        <ele>856.00000</ele>
        <time>2024-02-16T13:07:33Z</time>
      </trkpt>
      <trkpt lat="42.77325983" lon="13.47601513">
        <ele>857.00000</ele>
        <time>2024-02-16T13:07:34Z</time>
      </trkpt>
      <trkpt lat="42.77323057" lon="13.47600599">
        <ele>858.00000</ele>
        <time>2024-02-16T13:07:35Z</time>
      </trkpt>
      <trkpt lat="42.77319571" lon="13.47598722">
        <ele>859.00000</ele>
        <time>2024-02-16T13:07:36Z</time>
      </trkpt>
      <trkpt lat="42.77316930" lon="13.47596459">
        <ele>860.00000</ele>
        <time>2024-02-16T13:07:37Z</time>
      </trkpt>
      <trkpt lat="42.77314935" lon="13.47594254">
        <ele>860.00000</ele>
        <time>2024-02-16T13:07:38Z</time>
      </trkpt>
      <trkpt lat="42.77312505" lon="13.47591186">
        <ele>861.00000</ele>
        <time>2024-02-16T13:07:39Z</time>
      </trkpt>
      <trkpt lat="42.77309940" lon="13.47587205">
        <ele>861.00000</ele>
        <time>2024-02-16T13:07:40Z</time>
      </trkpt>
      <trkpt lat="42.77308238" lon="13.47584330">
        <ele>860.00000</ele>
        <time>2024-02-16T13:07:41Z</time>
      </trkpt>
      <trkpt lat="42.77305983" lon="13.47579846">
        <ele>860.00000</ele>
        <time>2024-02-16T13:07:42Z</time>
      </trkpt>
      <trkpt lat="42.77304332" lon="13.47576174">
        <ele>860.00000</ele>
        <time>2024-02-16T13:07:43Z</time>
      </trkpt>
      <trkpt lat="42.77303016" lon="13.47573132">
        <ele>860.00000</ele>
        <time>2024-02-16T13:07:44Z</time>
      </trkpt>
      <trkpt lat="42.77301642" lon="13.47569460">
        <ele>860.00000</ele>
        <time>2024-02-16T13:07:45Z</time>
      </trkpt>
      <trkpt lat="42.77300124" lon="13.47565429">
        <ele>859.00000</ele>
        <time>2024-02-16T13:07:46Z</time>
      </trkpt>
      <trkpt lat="42.77298750" lon="13.47562126">
        <ele>859.00000</ele>
        <time>2024-02-16T13:07:47Z</time>
      </trkpt>
      <trkpt lat="42.77297778" lon="13.47559662">
        <ele>859.00000</ele>
        <time>2024-02-16T13:07:48Z</time>
      </trkpt>
      <trkpt lat="42.77296361" lon="13.47556577">
        <ele>859.00000</ele>
        <time>2024-02-16T13:07:49Z</time>
      </trkpt>
      <trkpt lat="42.77294810" lon="13.47553778">
        <ele>859.00000</ele>
        <time>2024-02-16T13:07:50Z</time>
      </trkpt>
      <trkpt lat="42.77293042" lon="13.47550861">
        <ele>860.00000</ele>
        <time>2024-02-16T13:07:51Z</time>
      </trkpt>
      <trkpt lat="42.77291441" lon="13.47548129">
        <ele>860.00000</ele>
        <time>2024-02-16T13:07:52Z</time>
      </trkpt>
      <trkpt lat="42.77290075" lon="13.47545346">
        <ele>861.00000</ele>
        <time>2024-02-16T13:07:53Z</time>
      </trkpt>
      <trkpt lat="42.77289262" lon="13.47543083">
        <ele>861.00000</ele>
        <time>2024-02-16T13:07:54Z</time>
      </trkpt>
      <trkpt lat="42.77287510" lon="13.47539814">
        <ele>861.00000</ele>
        <time>2024-02-16T13:07:55Z</time>
      </trkpt>
      <trkpt lat="42.77286143" lon="13.47537148">
        <ele>861.00000</ele>
        <time>2024-02-16T13:07:56Z</time>
      </trkpt>
      <trkpt lat="42.77284853" lon="13.47534491">
        <ele>861.00000</ele>
        <time>2024-02-16T13:07:57Z</time>
      </trkpt>
      <trkpt lat="42.77283336" lon="13.47531926">
        <ele>862.00000</ele>
        <time>2024-02-16T13:07:58Z</time>
      </trkpt>
      <trkpt lat="42.77282221" lon="13.47529035">
        <ele>862.00000</ele>
        <time>2024-02-16T13:07:59Z</time>
      </trkpt>
      <trkpt lat="42.77281835" lon="13.47526570">
        <ele>861.00000</ele>
        <time>2024-02-16T13:08:00Z</time>
      </trkpt>
      <trkpt lat="42.77280301" lon="13.47522916">
        <ele>862.00000</ele>
        <time>2024-02-16T13:08:01Z</time>
      </trkpt>
      <trkpt lat="42.77279061" lon="13.47520384">
        <ele>862.00000</ele>
        <time>2024-02-16T13:08:02Z</time>
      </trkpt>
      <trkpt lat="42.77277963" lon="13.47517803">
        <ele>862.00000</ele>
        <time>2024-02-16T13:08:03Z</time>
      </trkpt>
      <trkpt lat="42.77276856" lon="13.47514986">
        <ele>862.00000</ele>
        <time>2024-02-16T13:08:04Z</time>
      </trkpt>
      <trkpt lat="42.77276043" lon="13.47512019">
        <ele>862.00000</ele>
        <time>2024-02-16T13:08:05Z</time>
      </trkpt>
      <trkpt lat="42.77274618" lon="13.47508993">
        <ele>862.00000</ele>
        <time>2024-02-16T13:08:06Z</time>
      </trkpt>
      <trkpt lat="42.77273587" lon="13.47506680">
        <ele>862.00000</ele>
        <time>2024-02-16T13:08:07Z</time>
      </trkpt>
      <trkpt lat="42.77272607" lon="13.47504082">
        <ele>862.00000</ele>
        <time>2024-02-16T13:08:08Z</time>
      </trkpt>
      <trkpt lat="42.77271735" lon="13.47501844">
        <ele>862.00000</ele>
        <time>2024-02-16T13:08:09Z</time>
      </trkpt>
      <trkpt lat="42.77270444" lon="13.47499036">
        <ele>862.00000</ele>
        <time>2024-02-16T13:08:10Z</time>
      </trkpt>
      <trkpt lat="42.77269589" lon="13.47496186">
        <ele>862.00000</ele>
        <time>2024-02-16T13:08:11Z</time>
      </trkpt>
      <trkpt lat="42.77268324" lon="13.47493219">
        <ele>861.00000</ele>
        <time>2024-02-16T13:08:12Z</time>
      </trkpt>
      <trkpt lat="42.77266002" lon="13.47490302">
        <ele>861.00000</ele>
        <time>2024-02-16T13:08:13Z</time>
      </trkpt>
      <trkpt lat="42.77264853" lon="13.47487972">
        <ele>861.00000</ele>
        <time>2024-02-16T13:08:14Z</time>
      </trkpt>
      <trkpt lat="42.77262448" lon="13.47485440">
        <ele>861.00000</ele>
        <time>2024-02-16T13:08:15Z</time>
      </trkpt>
      <trkpt lat="42.77260738" lon="13.47483186">
        <ele>862.00000</ele>
        <time>2024-02-16T13:08:16Z</time>
      </trkpt>
      <trkpt lat="42.77258223" lon="13.47481375">
        <ele>862.00000</ele>
        <time>2024-02-16T13:08:17Z</time>
      </trkpt>
      <trkpt lat="42.77255826" lon="13.47479556">
        <ele>862.00000</ele>
        <time>2024-02-16T13:08:18Z</time>
      </trkpt>
      <trkpt lat="42.77253597" lon="13.47478693">
        <ele>863.00000</ele>
        <time>2024-02-16T13:08:19Z</time>
      </trkpt>
      <trkpt lat="42.77250738" lon="13.47477151">
        <ele>864.00000</ele>
        <time>2024-02-16T13:08:20Z</time>
      </trkpt>
      <trkpt lat="42.77248115" lon="13.47476514">
        <ele>864.00000</ele>
        <time>2024-02-16T13:08:21Z</time>
      </trkpt>
      <trkpt lat="42.77245961" lon="13.47476187">
        <ele>864.00000</ele>
        <time>2024-02-16T13:08:22Z</time>
      </trkpt>
      <trkpt lat="42.77242910" lon="13.47476245">
        <ele>864.00000</ele>
        <time>2024-02-16T13:08:23Z</time>
      </trkpt>
      <trkpt lat="42.77241032" lon="13.47476656">
        <ele>864.00000</ele>
        <time>2024-02-16T13:08:24Z</time>
      </trkpt>
      <trkpt lat="42.77238744" lon="13.47476857">
        <ele>864.00000</ele>
        <time>2024-02-16T13:08:25Z</time>
      </trkpt>
      <trkpt lat="42.77236263" lon="13.47477427">
        <ele>864.00000</ele>
        <time>2024-02-16T13:08:26Z</time>
      </trkpt>
      <trkpt lat="42.77234218" lon="13.47478324">
        <ele>864.00000</ele>
        <time>2024-02-16T13:08:27Z</time>
      </trkpt>
      <trkpt lat="42.77232047" lon="13.47479112">
        <ele>864.00000</ele>
        <time>2024-02-16T13:08:28Z</time>
      </trkpt>
      <trkpt lat="42.77230194" lon="13.47479942">
        <ele>865.00000</ele>
        <time>2024-02-16T13:08:29Z</time>
      </trkpt>
      <trkpt lat="42.77228300" lon="13.47480788">
        <ele>865.00000</ele>
        <time>2024-02-16T13:08:30Z</time>
      </trkpt>
      <trkpt lat="42.77226096" lon="13.47481660">
        <ele>865.00000</ele>
        <time>2024-02-16T13:08:31Z</time>
      </trkpt>
      <trkpt lat="42.77223916" lon="13.47482272">
        <ele>865.00000</ele>
        <time>2024-02-16T13:08:32Z</time>
      </trkpt>
      <trkpt lat="42.77222114" lon="13.47482934">
        <ele>866.00000</ele>
        <time>2024-02-16T13:08:33Z</time>
      </trkpt>
      <trkpt lat="42.77220404" lon="13.47483730">
        <ele>866.00000</ele>
        <time>2024-02-16T13:08:34Z</time>
      </trkpt>
      <trkpt lat="42.77218434" lon="13.47484443">
        <ele>866.00000</ele>
        <time>2024-02-16T13:08:35Z</time>
      </trkpt>
      <trkpt lat="42.77216373" lon="13.47485130">
        <ele>867.00000</ele>
        <time>2024-02-16T13:08:36Z</time>
      </trkpt>
      <trkpt lat="42.77214168" lon="13.47485709">
        <ele>867.00000</ele>
        <time>2024-02-16T13:08:37Z</time>
      </trkpt>
      <trkpt lat="42.77212173" lon="13.47486773">
        <ele>868.00000</ele>
        <time>2024-02-16T13:08:38Z</time>
      </trkpt>
      <trkpt lat="42.77210463" lon="13.47488148">
        <ele>869.00000</ele>
        <time>2024-02-16T13:08:39Z</time>
      </trkpt>
      <trkpt lat="42.77208544" lon="13.47489204">
        <ele>869.00000</ele>
        <time>2024-02-16T13:08:40Z</time>
      </trkpt>
      <trkpt lat="42.77206482" lon="13.47490520">
        <ele>870.00000</ele>
        <time>2024-02-16T13:08:41Z</time>
      </trkpt>
      <trkpt lat="42.77204277" lon="13.47491098">
        <ele>870.00000</ele>
        <time>2024-02-16T13:08:42Z</time>
      </trkpt>
      <trkpt lat="42.77202232" lon="13.47492096">
        <ele>871.00000</ele>
        <time>2024-02-16T13:08:43Z</time>
      </trkpt>
      <trkpt lat="42.77200212" lon="13.47492867">
        <ele>871.00000</ele>
        <time>2024-02-16T13:08:44Z</time>
      </trkpt>
      <trkpt lat="42.77198393" lon="13.47493462">
        <ele>871.00000</ele>
        <time>2024-02-16T13:08:45Z</time>
      </trkpt>
      <trkpt lat="42.77196457" lon="13.47494451">
        <ele>872.00000</ele>
        <time>2024-02-16T13:08:46Z</time>
      </trkpt>
      <trkpt lat="42.77193943" lon="13.47495339">
        <ele>873.00000</ele>
        <time>2024-02-16T13:08:47Z</time>
      </trkpt>
      <trkpt lat="42.77192694" lon="13.47496312">
        <ele>873.00000</ele>
        <time>2024-02-16T13:08:48Z</time>
      </trkpt>
      <trkpt lat="42.77190841" lon="13.47496571">
        <ele>873.00000</ele>
        <time>2024-02-16T13:08:49Z</time>
      </trkpt>
      <trkpt lat="42.77188712" lon="13.47496655">
        <ele>874.00000</ele>
        <time>2024-02-16T13:08:50Z</time>
      </trkpt>
      <trkpt lat="42.77186835" lon="13.47497938">
        <ele>874.00000</ele>
        <time>2024-02-16T13:08:51Z</time>
      </trkpt>
      <trkpt lat="42.77185116" lon="13.47499245">
        <ele>875.00000</ele>
        <time>2024-02-16T13:08:52Z</time>
      </trkpt>
      <trkpt lat="42.77183113" lon="13.47499731">
        <ele>876.00000</ele>
        <time>2024-02-16T13:08:53Z</time>
      </trkpt>
      <trkpt lat="42.77180967" lon="13.47499539">
        <ele>876.00000</ele>
        <time>2024-02-16T13:08:54Z</time>
      </trkpt>
      <trkpt lat="42.77178889" lon="13.47498659">
        <ele>876.00000</ele>
        <time>2024-02-16T13:08:55Z</time>
      </trkpt>
      <trkpt lat="42.77176542" lon="13.47497661">
        <ele>875.00000</ele>
        <time>2024-02-16T13:08:56Z</time>
      </trkpt>
      <trkpt lat="42.77174388" lon="13.47498030">
        <ele>876.00000</ele>
        <time>2024-02-16T13:08:57Z</time>
      </trkpt>
      <trkpt lat="42.77172485" lon="13.47499446">
        <ele>877.00000</ele>
        <time>2024-02-16T13:08:58Z</time>
      </trkpt>
      <trkpt lat="42.77170557" lon="13.47500570">
        <ele>877.00000</ele>
        <time>2024-02-16T13:08:59Z</time>
      </trkpt>
      <trkpt lat="42.77168462" lon="13.47500796">
        <ele>878.00000</ele>
        <time>2024-02-16T13:09:00Z</time>
      </trkpt>
      <trkpt lat="42.77166207" lon="13.47500754">
        <ele>878.00000</ele>
        <time>2024-02-16T13:09:01Z</time>
      </trkpt>
      <trkpt lat="42.77164095" lon="13.47500679">
        <ele>878.00000</ele>
        <time>2024-02-16T13:09:02Z</time>
      </trkpt>
      <trkpt lat="42.77162016" lon="13.47500880">
        <ele>878.00000</ele>
        <time>2024-02-16T13:09:03Z</time>
      </trkpt>
      <trkpt lat="42.77159778" lon="13.47500863">
        <ele>878.00000</ele>
        <time>2024-02-16T13:09:04Z</time>
      </trkpt>
      <trkpt lat="42.77157615" lon="13.47501441">
        <ele>879.00000</ele>
        <time>2024-02-16T13:09:05Z</time>
      </trkpt>
      <trkpt lat="42.77155604" lon="13.47502154">
        <ele>879.00000</ele>
        <time>2024-02-16T13:09:06Z</time>
      </trkpt>
      <trkpt lat="42.77153693" lon="13.47502673">
        <ele>879.00000</ele>
        <time>2024-02-16T13:09:07Z</time>
      </trkpt>
      <trkpt lat="42.77151740" lon="13.47503260">
        <ele>880.00000</ele>
        <time>2024-02-16T13:09:08Z</time>
      </trkpt>
      <trkpt lat="42.77149661" lon="13.47503478">
        <ele>880.00000</ele>
        <time>2024-02-16T13:09:09Z</time>
      </trkpt>
      <trkpt lat="42.77147842" lon="13.47504325">
        <ele>881.00000</ele>
        <time>2024-02-16T13:09:10Z</time>
      </trkpt>
      <trkpt lat="42.77146702" lon="13.47507024">
        <ele>882.00000</ele>
        <time>2024-02-16T13:09:11Z</time>
      </trkpt>
      <trkpt lat="42.77147046" lon="13.47509270">
        <ele>883.00000</ele>
        <time>2024-02-16T13:09:12Z</time>
      </trkpt>
      <trkpt lat="42.77148957" lon="13.47510402">
        <ele>884.00000</ele>
        <time>2024-02-16T13:09:13Z</time>
      </trkpt>
      <trkpt lat="42.77151589" lon="13.47511005">
        <ele>884.00000</ele>
        <time>2024-02-16T13:09:14Z</time>
      </trkpt>
      <trkpt lat="42.77154481" lon="13.47511189">
        <ele>884.00000</ele>
        <time>2024-02-16T13:09:15Z</time>
      </trkpt>
      <trkpt lat="42.77157716" lon="13.47511290">
        <ele>884.00000</ele>
        <time>2024-02-16T13:09:16Z</time>
      </trkpt>
      <trkpt lat="42.77160868" lon="13.47511240">
        <ele>884.00000</ele>
        <time>2024-02-16T13:09:17Z</time>
      </trkpt>
      <trkpt lat="42.77163835" lon="13.47511424">
        <ele>884.00000</ele>
        <time>2024-02-16T13:09:18Z</time>
      </trkpt>
      <trkpt lat="42.77167137" lon="13.47511684">
        <ele>884.00000</ele>
        <time>2024-02-16T13:09:19Z</time>
      </trkpt>
      <trkpt lat="42.77170079" lon="13.47511776">
        <ele>883.00000</ele>
        <time>2024-02-16T13:09:20Z</time>
      </trkpt>
      <trkpt lat="42.77173432" lon="13.47512078">
        <ele>883.00000</ele>
        <time>2024-02-16T13:09:21Z</time>
      </trkpt>
      <trkpt lat="42.77176357" lon="13.47512505">
        <ele>883.00000</ele>
        <time>2024-02-16T13:09:22Z</time>
      </trkpt>
      <trkpt lat="42.77179358" lon="13.47512749">
        <ele>883.00000</ele>
        <time>2024-02-16T13:09:23Z</time>
      </trkpt>
      <trkpt lat="42.77182736" lon="13.47512757">
        <ele>882.00000</ele>
        <time>2024-02-16T13:09:24Z</time>
      </trkpt>
      <trkpt lat="42.77186005" lon="13.47512749">
        <ele>882.00000</ele>
        <time>2024-02-16T13:09:25Z</time>
      </trkpt>
      <trkpt lat="42.77189450" lon="13.47512857">
        <ele>881.00000</ele>
        <time>2024-02-16T13:09:26Z</time>
      </trkpt>
      <trkpt lat="42.77193180" lon="13.47513268">
        <ele>881.00000</ele>
        <time>2024-02-16T13:09:27Z</time>
      </trkpt>
      <trkpt lat="42.77197044" lon="13.47513453">
        <ele>881.00000</ele>
        <time>2024-02-16T13:09:28Z</time>
      </trkpt>
      <trkpt lat="42.77200690" lon="13.47513411">
        <ele>881.00000</ele>
        <time>2024-02-16T13:09:29Z</time>
      </trkpt>
      <trkpt lat="42.77204445" lon="13.47513218">
        <ele>880.00000</ele>
        <time>2024-02-16T13:09:30Z</time>
      </trkpt>
      <trkpt lat="42.77208133" lon="13.47513369">
        <ele>880.00000</ele>
        <time>2024-02-16T13:09:31Z</time>
      </trkpt>
      <trkpt lat="42.77211486" lon="13.47514249">
        <ele>881.00000</ele>
        <time>2024-02-16T13:09:32Z</time>
      </trkpt>
      <trkpt lat="42.77214663" lon="13.47515389">
        <ele>881.00000</ele>
        <time>2024-02-16T13:09:33Z</time>
      </trkpt>
      <trkpt lat="42.77217848" lon="13.47516428">
        <ele>881.00000</ele>
        <time>2024-02-16T13:09:34Z</time>
      </trkpt>
      <trkpt lat="42.77220731" lon="13.47517124">
        <ele>882.00000</ele>
        <time>2024-02-16T13:09:35Z</time>
      </trkpt>
      <trkpt lat="42.77223899" lon="13.47518641">
        <ele>882.00000</ele>
        <time>2024-02-16T13:09:36Z</time>
      </trkpt>
      <trkpt lat="42.77226825" lon="13.47521290">
        <ele>883.00000</ele>
        <time>2024-02-16T13:09:37Z</time>
      </trkpt>
      <trkpt lat="42.77229616" lon="13.47524098">
        <ele>884.00000</ele>
        <time>2024-02-16T13:09:38Z</time>
      </trkpt>
      <trkpt lat="42.77232441" lon="13.47525933">
        <ele>884.00000</ele>
        <time>2024-02-16T13:09:39Z</time>
      </trkpt>
      <trkpt lat="42.77234637" lon="13.47528599">
        <ele>885.00000</ele>
        <time>2024-02-16T13:09:40Z</time>
      </trkpt>
      <trkpt lat="42.77236489" lon="13.47531306">
        <ele>885.00000</ele>
        <time>2024-02-16T13:09:41Z</time>
      </trkpt>
      <trkpt lat="42.77238325" lon="13.47533972">
        <ele>886.00000</ele>
        <time>2024-02-16T13:09:42Z</time>
      </trkpt>
      <trkpt lat="42.77240227" lon="13.47536897">
        <ele>886.00000</ele>
        <time>2024-02-16T13:09:43Z</time>
      </trkpt>
      <trkpt lat="42.77242004" lon="13.47539696">
        <ele>887.00000</ele>
        <time>2024-02-16T13:09:44Z</time>
      </trkpt>
      <trkpt lat="42.77243505" lon="13.47541909">
        <ele>887.00000</ele>
        <time>2024-02-16T13:09:45Z</time>
      </trkpt>
      <trkpt lat="42.77245114" lon="13.47545052">
        <ele>888.00000</ele>
        <time>2024-02-16T13:09:46Z</time>
      </trkpt>
      <trkpt lat="42.77246388" lon="13.47548288">
        <ele>888.00000</ele>
        <time>2024-02-16T13:09:47Z</time>
      </trkpt>
      <trkpt lat="42.77247436" lon="13.47551238">
        <ele>889.00000</ele>
        <time>2024-02-16T13:09:48Z</time>
      </trkpt>
      <trkpt lat="42.77248291" lon="13.47554122">
        <ele>889.00000</ele>
        <time>2024-02-16T13:09:49Z</time>
      </trkpt>
      <trkpt lat="42.77248911" lon="13.47557441">
        <ele>890.00000</ele>
        <time>2024-02-16T13:09:50Z</time>
      </trkpt>
      <trkpt lat="42.77249766" lon="13.47560458">
        <ele>891.00000</ele>
        <time>2024-02-16T13:09:51Z</time>
      </trkpt>
      <trkpt lat="42.77250604" lon="13.47563534">
        <ele>891.00000</ele>
        <time>2024-02-16T13:09:52Z</time>
      </trkpt>
      <trkpt lat="42.77251677" lon="13.47566854">
        <ele>892.00000</ele>
        <time>2024-02-16T13:09:53Z</time>
      </trkpt>
      <trkpt lat="42.77252540" lon="13.47570030">
        <ele>892.00000</ele>
        <time>2024-02-16T13:09:54Z</time>
      </trkpt>
      <trkpt lat="42.77252700" lon="13.47572847">
        <ele>893.00000</ele>
        <time>2024-02-16T13:09:55Z</time>
      </trkpt>
      <trkpt lat="42.77252951" lon="13.47576099">
        <ele>894.00000</ele>
        <time>2024-02-16T13:09:56Z</time>
      </trkpt>
      <trkpt lat="42.77253295" lon="13.47579066">
        <ele>895.00000</ele>
        <time>2024-02-16T13:09:57Z</time>
      </trkpt>
      <trkpt lat="42.77253504" lon="13.47581950">
        <ele>896.00000</ele>
        <time>2024-02-16T13:09:58Z</time>
      </trkpt>
      <trkpt lat="42.77253555" lon="13.47585252">
        <ele>896.00000</ele>
        <time>2024-02-16T13:09:59Z</time>
      </trkpt>
      <trkpt lat="42.77254150" lon="13.47588906">
        <ele>897.00000</ele>
        <time>2024-02-16T13:10:00Z</time>
      </trkpt>
      <trkpt lat="42.77254368" lon="13.47592377">
        <ele>897.00000</ele>
        <time>2024-02-16T13:10:01Z</time>
      </trkpt>
      <trkpt lat="42.77254736" lon="13.47595780">
        <ele>898.00000</ele>
        <time>2024-02-16T13:10:02Z</time>
      </trkpt>
      <trkpt lat="42.77255097" lon="13.47599023">
        <ele>898.00000</ele>
        <time>2024-02-16T13:10:03Z</time>
      </trkpt>
      <trkpt lat="42.77256086" lon="13.47602628">
        <ele>899.00000</ele>
        <time>2024-02-16T13:10:04Z</time>
      </trkpt>
      <trkpt lat="42.77257042" lon="13.47606098">
        <ele>899.00000</ele>
        <time>2024-02-16T13:10:05Z</time>
      </trkpt>
      <trkpt lat="42.77257871" lon="13.47609543">
        <ele>899.00000</ele>
        <time>2024-02-16T13:10:06Z</time>
      </trkpt>
      <trkpt lat="42.77258592" lon="13.47612728">
        <ele>900.00000</ele>
        <time>2024-02-16T13:10:07Z</time>
      </trkpt>
      <trkpt lat="42.77259489" lon="13.47616081">
        <ele>900.00000</ele>
        <time>2024-02-16T13:10:08Z</time>
      </trkpt>
      <trkpt lat="42.77260662" lon="13.47619341">
        <ele>900.00000</ele>
        <time>2024-02-16T13:10:09Z</time>
      </trkpt>
      <trkpt lat="42.77262121" lon="13.47622568">
        <ele>899.00000</ele>
        <time>2024-02-16T13:10:10Z</time>
      </trkpt>
      <trkpt lat="42.77263236" lon="13.47625955">
        <ele>899.00000</ele>
        <time>2024-02-16T13:10:11Z</time>
      </trkpt>
      <trkpt lat="42.77264552" lon="13.47629249">
        <ele>899.00000</ele>
        <time>2024-02-16T13:10:12Z</time>
      </trkpt>
      <trkpt lat="42.77265993" lon="13.47632182">
        <ele>899.00000</ele>
        <time>2024-02-16T13:10:13Z</time>
      </trkpt>
      <trkpt lat="42.77267024" lon="13.47634512">
        <ele>899.00000</ele>
        <time>2024-02-16T13:10:14Z</time>
      </trkpt>
      <trkpt lat="42.77267720" lon="13.47637413">
        <ele>899.00000</ele>
        <time>2024-02-16T13:10:15Z</time>
      </trkpt>
      <trkpt lat="42.77267988" lon="13.47640589">
        <ele>899.00000</ele>
        <time>2024-02-16T13:10:16Z</time>
      </trkpt>
      <trkpt lat="42.77268164" lon="13.47644965">
        <ele>900.00000</ele>
        <time>2024-02-16T13:10:17Z</time>
      </trkpt>
      <trkpt lat="42.77269103" lon="13.47648569">
        <ele>900.00000</ele>
        <time>2024-02-16T13:10:18Z</time>
      </trkpt>
      <trkpt lat="42.77270402" lon="13.47652617">
        <ele>899.00000</ele>
        <time>2024-02-16T13:10:19Z</time>
      </trkpt>
      <trkpt lat="42.77271098" lon="13.47656892">
        <ele>899.00000</ele>
        <time>2024-02-16T13:10:20Z</time>
      </trkpt>
      <trkpt lat="42.77272431" lon="13.47661318">
        <ele>899.00000</ele>
        <time>2024-02-16T13:10:21Z</time>
      </trkpt>
      <trkpt lat="42.77273269" lon="13.47665257">
        <ele>899.00000</ele>
        <time>2024-02-16T13:10:22Z</time>
      </trkpt>
      <trkpt lat="42.77274224" lon="13.47669532">
        <ele>899.00000</ele>
        <time>2024-02-16T13:10:23Z</time>
      </trkpt>
      <trkpt lat="42.77274920" lon="13.47674150">
        <ele>900.00000</ele>
        <time>2024-02-16T13:10:24Z</time>
      </trkpt>
      <trkpt lat="42.77276387" lon="13.47678459">
        <ele>900.00000</ele>
        <time>2024-02-16T13:10:25Z</time>
      </trkpt>
      <trkpt lat="42.77278667" lon="13.47683052">
        <ele>900.00000</ele>
        <time>2024-02-16T13:10:26Z</time>
      </trkpt>
      <trkpt lat="42.77279597" lon="13.47686799">
        <ele>900.00000</ele>
        <time>2024-02-16T13:10:27Z</time>
      </trkpt>
      <trkpt lat="42.77280410" lon="13.47689783">
        <ele>900.00000</ele>
        <time>2024-02-16T13:10:28Z</time>
      </trkpt>
      <trkpt lat="42.77281433" lon="13.47693437">
        <ele>900.00000</ele>
        <time>2024-02-16T13:10:29Z</time>
      </trkpt>
      <trkpt lat="42.77283252" lon="13.47697611">
        <ele>900.00000</ele>
        <time>2024-02-16T13:10:30Z</time>
      </trkpt>
      <trkpt lat="42.77283989" lon="13.47701333">
        <ele>901.00000</ele>
        <time>2024-02-16T13:10:31Z</time>
      </trkpt>
      <trkpt lat="42.77285104" lon="13.47704409">
        <ele>901.00000</ele>
        <time>2024-02-16T13:10:32Z</time>
      </trkpt>
      <trkpt lat="42.77287526" lon="13.47708323">
        <ele>901.00000</ele>
        <time>2024-02-16T13:10:33Z</time>
      </trkpt>
      <trkpt lat="42.77289127" lon="13.47712372">
        <ele>901.00000</ele>
        <time>2024-02-16T13:10:34Z</time>
      </trkpt>
      <trkpt lat="42.77289957" lon="13.47715448">
        <ele>902.00000</ele>
        <time>2024-02-16T13:10:35Z</time>
      </trkpt>
      <trkpt lat="42.77290678" lon="13.47718415">
        <ele>902.00000</ele>
        <time>2024-02-16T13:10:36Z</time>
      </trkpt>
      <trkpt lat="42.77291256" lon="13.47721274">
        <ele>902.00000</ele>
        <time>2024-02-16T13:10:37Z</time>
      </trkpt>
      <trkpt lat="42.77291600" lon="13.47724065">
        <ele>903.00000</ele>
        <time>2024-02-16T13:10:38Z</time>
      </trkpt>
      <trkpt lat="42.77292338" lon="13.47726747">
        <ele>903.00000</ele>
        <time>2024-02-16T13:10:39Z</time>
      </trkpt>
      <trkpt lat="42.77293067" lon="13.47729647">
        <ele>903.00000</ele>
        <time>2024-02-16T13:10:40Z</time>
      </trkpt>
      <trkpt lat="42.77294215" lon="13.47732908">
        <ele>903.00000</ele>
        <time>2024-02-16T13:10:41Z</time>
      </trkpt>
      <trkpt lat="42.77294802" lon="13.47736026">
        <ele>903.00000</ele>
        <time>2024-02-16T13:10:42Z</time>
      </trkpt>
      <trkpt lat="42.77295162" lon="13.47739429">
        <ele>903.00000</ele>
        <time>2024-02-16T13:10:43Z</time>
      </trkpt>
      <trkpt lat="42.77295741" lon="13.47743008">
        <ele>903.00000</ele>
        <time>2024-02-16T13:10:44Z</time>
      </trkpt>
      <trkpt lat="42.77296369" lon="13.47746478">
        <ele>903.00000</ele>
        <time>2024-02-16T13:10:45Z</time>
      </trkpt>
      <trkpt lat="42.77296847" lon="13.47750074">
        <ele>903.00000</ele>
        <time>2024-02-16T13:10:46Z</time>
      </trkpt>
      <trkpt lat="42.77297015" lon="13.47753703">
        <ele>903.00000</ele>
        <time>2024-02-16T13:10:47Z</time>
      </trkpt>
      <trkpt lat="42.77296747" lon="13.47757299">
        <ele>903.00000</ele>
        <time>2024-02-16T13:10:48Z</time>
      </trkpt>
      <trkpt lat="42.77296084" lon="13.47760761">
        <ele>903.00000</ele>
        <time>2024-02-16T13:10:49Z</time>
      </trkpt>
      <trkpt lat="42.77295229" lon="13.47764214">
        <ele>904.00000</ele>
        <time>2024-02-16T13:10:50Z</time>
      </trkpt>
      <trkpt lat="42.77293913" lon="13.47767617">
        <ele>904.00000</ele>
        <time>2024-02-16T13:10:51Z</time>
      </trkpt>
      <trkpt lat="42.77292941" lon="13.47771028">
        <ele>904.00000</ele>
        <time>2024-02-16T13:10:52Z</time>
      </trkpt>
      <trkpt lat="42.77291751" lon="13.47774800">
        <ele>905.00000</ele>
        <time>2024-02-16T13:10:53Z</time>
      </trkpt>
      <trkpt lat="42.77290150" lon="13.47778639">
        <ele>906.00000</ele>
        <time>2024-02-16T13:10:54Z</time>
      </trkpt>
      <trkpt lat="42.77288851" lon="13.47782394">
        <ele>906.00000</ele>
        <time>2024-02-16T13:10:55Z</time>
      </trkpt>
      <trkpt lat="42.77287485" lon="13.47786141">
        <ele>906.00000</ele>
        <time>2024-02-16T13:10:56Z</time>
      </trkpt>
      <trkpt lat="42.77285758" lon="13.47790055">
        <ele>907.00000</ele>
        <time>2024-02-16T13:10:57Z</time>
      </trkpt>
      <trkpt lat="42.77283503" lon="13.47794171">
        <ele>907.00000</ele>
        <time>2024-02-16T13:10:58Z</time>
      </trkpt>
      <trkpt lat="42.77281500" lon="13.47797884">
        <ele>908.00000</ele>
        <time>2024-02-16T13:10:59Z</time>
      </trkpt>
      <trkpt lat="42.77279061" lon="13.47801002">
        <ele>908.00000</ele>
        <time>2024-02-16T13:11:00Z</time>
      </trkpt>
      <trkpt lat="42.77275557" lon="13.47803483">
        <ele>909.00000</ele>
        <time>2024-02-16T13:11:01Z</time>
      </trkpt>
      <trkpt lat="42.77271517" lon="13.47805034">
        <ele>909.00000</ele>
        <time>2024-02-16T13:11:02Z</time>
      </trkpt>
      <trkpt lat="42.77267326" lon="13.47805830">
        <ele>909.00000</ele>
        <time>2024-02-16T13:11:03Z</time>
      </trkpt>
      <trkpt lat="42.77262699" lon="13.47806098">
        <ele>909.00000</ele>
        <time>2024-02-16T13:11:04Z</time>
      </trkpt>
      <trkpt lat="42.77258081" lon="13.47805663">
        <ele>909.00000</ele>
        <time>2024-02-16T13:11:05Z</time>
      </trkpt>
      <trkpt lat="42.77253538" lon="13.47804087">
        <ele>909.00000</ele>
        <time>2024-02-16T13:11:06Z</time>
      </trkpt>
      <trkpt lat="42.77249146" lon="13.47801296">
        <ele>910.00000</ele>
        <time>2024-02-16T13:11:07Z</time>
      </trkpt>
      <trkpt lat="42.77244485" lon="13.47797675">
        <ele>909.00000</ele>
        <time>2024-02-16T13:11:08Z</time>
      </trkpt>
      <trkpt lat="42.77240294" lon="13.47793484">
        <ele>909.00000</ele>
        <time>2024-02-16T13:11:09Z</time>
      </trkpt>
      <trkpt lat="42.77236724" lon="13.47788991">
        <ele>909.00000</ele>
        <time>2024-02-16T13:11:10Z</time>
      </trkpt>
      <trkpt lat="42.77233430" lon="13.47783995">
        <ele>909.00000</ele>
        <time>2024-02-16T13:11:11Z</time>
      </trkpt>
      <trkpt lat="42.77230027" lon="13.47779201">
        <ele>910.00000</ele>
        <time>2024-02-16T13:11:12Z</time>
      </trkpt>
      <trkpt lat="42.77223631" lon="13.47770123">
        <ele>911.00000</ele>
        <time>2024-02-16T13:11:14Z</time>
      </trkpt>
      <trkpt lat="42.77220337" lon="13.47765547">
        <ele>912.00000</ele>
        <time>2024-02-16T13:11:15Z</time>
      </trkpt>
      <trkpt lat="42.77217169" lon="13.47761238">
        <ele>913.00000</ele>
        <time>2024-02-16T13:11:16Z</time>
      </trkpt>
      <trkpt lat="42.77214285" lon="13.47757089">
        <ele>913.00000</ele>
        <time>2024-02-16T13:11:17Z</time>
      </trkpt>
      <trkpt lat="42.77211260" lon="13.47752689">
        <ele>914.00000</ele>
        <time>2024-02-16T13:11:18Z</time>
      </trkpt>
      <trkpt lat="42.77208007" lon="13.47748146">
        <ele>914.00000</ele>
        <time>2024-02-16T13:11:19Z</time>
      </trkpt>
      <trkpt lat="42.77204889" lon="13.47743695">
        <ele>915.00000</ele>
        <time>2024-02-16T13:11:20Z</time>
      </trkpt>
      <trkpt lat="42.77201855" lon="13.47739471">
        <ele>915.00000</ele>
        <time>2024-02-16T13:11:21Z</time>
      </trkpt>
      <trkpt lat="42.77198955" lon="13.47735372">
        <ele>916.00000</ele>
        <time>2024-02-16T13:11:22Z</time>
      </trkpt>
      <trkpt lat="42.77196055" lon="13.47731181">
        <ele>917.00000</ele>
        <time>2024-02-16T13:11:23Z</time>
      </trkpt>
      <trkpt lat="42.77193113" lon="13.47726797">
        <ele>917.00000</ele>
        <time>2024-02-16T13:11:24Z</time>
      </trkpt>
      <trkpt lat="42.77190187" lon="13.47722489">
        <ele>918.00000</ele>
        <time>2024-02-16T13:11:25Z</time>
      </trkpt>
      <trkpt lat="42.77187053" lon="13.47718181">
        <ele>918.00000</ele>
        <time>2024-02-16T13:11:26Z</time>
      </trkpt>
      <trkpt lat="42.77183541" lon="13.47713839">
        <ele>918.00000</ele>
        <time>2024-02-16T13:11:27Z</time>
      </trkpt>
      <trkpt lat="42.77179861" lon="13.47709656">
        <ele>919.00000</ele>
        <time>2024-02-16T13:11:28Z</time>
      </trkpt>
      <trkpt lat="42.77175905" lon="13.47705516">
        <ele>919.00000</ele>
        <time>2024-02-16T13:11:29Z</time>
      </trkpt>
      <trkpt lat="42.77171873" lon="13.47701819">
        <ele>919.00000</ele>
        <time>2024-02-16T13:11:30Z</time>
      </trkpt>
      <trkpt lat="42.77167783" lon="13.47698114">
        <ele>920.00000</ele>
        <time>2024-02-16T13:11:31Z</time>
      </trkpt>
      <trkpt lat="42.77163583" lon="13.47694393">
        <ele>920.00000</ele>
        <time>2024-02-16T13:11:32Z</time>
      </trkpt>
      <trkpt lat="42.77159367" lon="13.47690613">
        <ele>920.00000</ele>
        <time>2024-02-16T13:11:33Z</time>
      </trkpt>
      <trkpt lat="42.77155243" lon="13.47687042">
        <ele>920.00000</ele>
        <time>2024-02-16T13:11:34Z</time>
      </trkpt>
      <trkpt lat="42.77151388" lon="13.47683471">
        <ele>920.00000</ele>
        <time>2024-02-16T13:11:35Z</time>
      </trkpt>
      <trkpt lat="42.77147222" lon="13.47679808">
        <ele>920.00000</ele>
        <time>2024-02-16T13:11:36Z</time>
      </trkpt>
      <trkpt lat="42.77142905" lon="13.47676196">
        <ele>920.00000</ele>
        <time>2024-02-16T13:11:37Z</time>
      </trkpt>
      <trkpt lat="42.77138547" lon="13.47672499">
        <ele>920.00000</ele>
        <time>2024-02-16T13:11:38Z</time>
      </trkpt>
      <trkpt lat="42.77134280" lon="13.47668853">
        <ele>920.00000</ele>
        <time>2024-02-16T13:11:39Z</time>
      </trkpt>
      <trkpt lat="42.77130240" lon="13.47665098">
        <ele>920.00000</ele>
        <time>2024-02-16T13:11:40Z</time>
      </trkpt>
      <trkpt lat="42.77126091" lon="13.47661318">
        <ele>920.00000</ele>
        <time>2024-02-16T13:11:41Z</time>
      </trkpt>
      <trkpt lat="42.77122026" lon="13.47657688">
        <ele>920.00000</ele>
        <time>2024-02-16T13:11:42Z</time>
      </trkpt>
      <trkpt lat="42.77118028" lon="13.47654210">
        <ele>920.00000</ele>
        <time>2024-02-16T13:11:43Z</time>
      </trkpt>
      <trkpt lat="42.77114029" lon="13.47650664">
        <ele>920.00000</ele>
        <time>2024-02-16T13:11:44Z</time>
      </trkpt>
      <trkpt lat="42.77110258" lon="13.47647312">
        <ele>920.00000</ele>
        <time>2024-02-16T13:11:45Z</time>
      </trkpt>
      <trkpt lat="42.77106251" lon="13.47643984">
        <ele>920.00000</ele>
        <time>2024-02-16T13:11:46Z</time>
      </trkpt>
      <trkpt lat="42.77102320" lon="13.47640816">
        <ele>921.00000</ele>
        <time>2024-02-16T13:11:47Z</time>
      </trkpt>
      <trkpt lat="42.77098372" lon="13.47637899">
        <ele>921.00000</ele>
        <time>2024-02-16T13:11:48Z</time>
      </trkpt>
      <trkpt lat="42.77094516" lon="13.47635082">
        <ele>921.00000</ele>
        <time>2024-02-16T13:11:49Z</time>
      </trkpt>
      <trkpt lat="42.77090485" lon="13.47632358">
        <ele>921.00000</ele>
        <time>2024-02-16T13:11:50Z</time>
      </trkpt>
      <trkpt lat="42.77086302" lon="13.47630112">
        <ele>921.00000</ele>
        <time>2024-02-16T13:11:51Z</time>
      </trkpt>
      <trkpt lat="42.77082078" lon="13.47628025">
        <ele>921.00000</ele>
        <time>2024-02-16T13:11:52Z</time>
      </trkpt>
      <trkpt lat="42.77077803" lon="13.47626231">
        <ele>921.00000</ele>
        <time>2024-02-16T13:11:53Z</time>
      </trkpt>
      <trkpt lat="42.77073570" lon="13.47624798">
        <ele>921.00000</ele>
        <time>2024-02-16T13:11:54Z</time>
      </trkpt>
      <trkpt lat="42.77069195" lon="13.47623742">
        <ele>921.00000</ele>
        <time>2024-02-16T13:11:55Z</time>
      </trkpt>
      <trkpt lat="42.77064727" lon="13.47623021">
        <ele>921.00000</ele>
        <time>2024-02-16T13:11:56Z</time>
      </trkpt>
      <trkpt lat="42.77060285" lon="13.47622610">
        <ele>922.00000</ele>
        <time>2024-02-16T13:11:57Z</time>
      </trkpt>
      <trkpt lat="42.77055976" lon="13.47622241">
        <ele>922.00000</ele>
        <time>2024-02-16T13:11:58Z</time>
      </trkpt>
      <trkpt lat="42.77051568" lon="13.47621655">
        <ele>922.00000</ele>
        <time>2024-02-16T13:11:59Z</time>
      </trkpt>
      <trkpt lat="42.77047041" lon="13.47621177">
        <ele>923.00000</ele>
        <time>2024-02-16T13:12:00Z</time>
      </trkpt>
      <trkpt lat="42.77042414" lon="13.47621009">
        <ele>923.00000</ele>
        <time>2024-02-16T13:12:01Z</time>
      </trkpt>
      <trkpt lat="42.77037947" lon="13.47620925">
        <ele>924.00000</ele>
        <time>2024-02-16T13:12:02Z</time>
      </trkpt>
      <trkpt lat="42.77033513" lon="13.47621101">
        <ele>924.00000</ele>
        <time>2024-02-16T13:12:03Z</time>
      </trkpt>
      <trkpt lat="42.77029171" lon="13.47621504">
        <ele>925.00000</ele>
        <time>2024-02-16T13:12:04Z</time>
      </trkpt>
      <trkpt lat="42.77024771" lon="13.47621638">
        <ele>926.00000</ele>
        <time>2024-02-16T13:12:05Z</time>
      </trkpt>
      <trkpt lat="42.77020923" lon="13.47621839">
        <ele>926.00000</ele>
        <time>2024-02-16T13:12:06Z</time>
      </trkpt>
      <trkpt lat="42.77017244" lon="13.47621940">
        <ele>927.00000</ele>
        <time>2024-02-16T13:12:07Z</time>
      </trkpt>
      <trkpt lat="42.77013472" lon="13.47622325">
        <ele>928.00000</ele>
        <time>2024-02-16T13:12:08Z</time>
      </trkpt>
      <trkpt lat="42.77009943" lon="13.47622795">
        <ele>928.00000</ele>
        <time>2024-02-16T13:12:09Z</time>
      </trkpt>
      <trkpt lat="42.77006490" lon="13.47623289">
        <ele>929.00000</ele>
        <time>2024-02-16T13:12:10Z</time>
      </trkpt>
      <trkpt lat="42.77002969" lon="13.47623750">
        <ele>929.00000</ele>
        <time>2024-02-16T13:12:11Z</time>
      </trkpt>
      <trkpt lat="42.76999801" lon="13.47623851">
        <ele>930.00000</ele>
        <time>2024-02-16T13:12:12Z</time>
      </trkpt>
      <trkpt lat="42.76996700" lon="13.47623515">
        <ele>930.00000</ele>
        <time>2024-02-16T13:12:13Z</time>
      </trkpt>
      <trkpt lat="42.76993456" lon="13.47623155">
        <ele>930.00000</ele>
        <time>2024-02-16T13:12:14Z</time>
      </trkpt>
      <trkpt lat="42.76990053" lon="13.47623490">
        <ele>931.00000</ele>
        <time>2024-02-16T13:12:15Z</time>
      </trkpt>
      <trkpt lat="42.76986725" lon="13.47623867">
        <ele>931.00000</ele>
        <time>2024-02-16T13:12:16Z</time>
      </trkpt>
      <trkpt lat="42.76983456" lon="13.47624278">
        <ele>931.00000</ele>
        <time>2024-02-16T13:12:17Z</time>
      </trkpt>
      <trkpt lat="42.76980103" lon="13.47624421">
        <ele>931.00000</ele>
        <time>2024-02-16T13:12:18Z</time>
      </trkpt>
      <trkpt lat="42.76976793" lon="13.47624412">
        <ele>932.00000</ele>
        <time>2024-02-16T13:12:19Z</time>
      </trkpt>
      <trkpt lat="42.76973624" lon="13.47624219">
        <ele>932.00000</ele>
        <time>2024-02-16T13:12:20Z</time>
      </trkpt>
      <trkpt lat="42.76970389" lon="13.47623867">
        <ele>932.00000</ele>
        <time>2024-02-16T13:12:21Z</time>
      </trkpt>
      <trkpt lat="42.76967070" lon="13.47623658">
        <ele>933.00000</ele>
        <time>2024-02-16T13:12:22Z</time>
      </trkpt>
      <trkpt lat="42.76964044" lon="13.47623323">
        <ele>934.00000</ele>
        <time>2024-02-16T13:12:23Z</time>
      </trkpt>
      <trkpt lat="42.76960716" lon="13.47623004">
        <ele>934.00000</ele>
        <time>2024-02-16T13:12:24Z</time>
      </trkpt>
      <trkpt lat="42.76957422" lon="13.47622627">
        <ele>935.00000</ele>
        <time>2024-02-16T13:12:25Z</time>
      </trkpt>
      <trkpt lat="42.76953935" lon="13.47621722">
        <ele>935.00000</ele>
        <time>2024-02-16T13:12:26Z</time>
      </trkpt>
      <trkpt lat="42.76950700" lon="13.47620598">
        <ele>936.00000</ele>
        <time>2024-02-16T13:12:27Z</time>
      </trkpt>
      <trkpt lat="42.76947414" lon="13.47619140">
        <ele>937.00000</ele>
        <time>2024-02-16T13:12:28Z</time>
      </trkpt>
      <trkpt lat="42.76944070" lon="13.47617640">
        <ele>937.00000</ele>
        <time>2024-02-16T13:12:29Z</time>
      </trkpt>
      <trkpt lat="42.76941052" lon="13.47616248">
        <ele>937.00000</ele>
        <time>2024-02-16T13:12:30Z</time>
      </trkpt>
      <trkpt lat="42.76934883" lon="13.47612443">
        <ele>938.00000</ele>
        <time>2024-02-16T13:12:32Z</time>
      </trkpt>
      <trkpt lat="42.76932016" lon="13.47610582">
        <ele>938.00000</ele>
        <time>2024-02-16T13:12:33Z</time>
      </trkpt>
      <trkpt lat="42.76928756" lon="13.47608487">
        <ele>938.00000</ele>
        <time>2024-02-16T13:12:34Z</time>
      </trkpt>
      <trkpt lat="42.76925437" lon="13.47606500">
        <ele>938.00000</ele>
        <time>2024-02-16T13:12:35Z</time>
      </trkpt>
      <trkpt lat="42.76922084" lon="13.47604715">
        <ele>939.00000</ele>
        <time>2024-02-16T13:12:36Z</time>
      </trkpt>
      <trkpt lat="42.76919293" lon="13.47603416">
        <ele>939.00000</ele>
        <time>2024-02-16T13:12:37Z</time>
      </trkpt>
      <trkpt lat="42.76914834" lon="13.47601521">
        <ele>939.00000</ele>
        <time>2024-02-16T13:12:38Z</time>
      </trkpt>
      <trkpt lat="42.76911238" lon="13.47599753">
        <ele>939.00000</ele>
        <time>2024-02-16T13:12:39Z</time>
      </trkpt>
      <trkpt lat="42.76907499" lon="13.47597766">
        <ele>938.00000</ele>
        <time>2024-02-16T13:12:40Z</time>
      </trkpt>
      <trkpt lat="42.76903870" lon="13.47595964">
        <ele>938.00000</ele>
        <time>2024-02-16T13:12:41Z</time>
      </trkpt>
      <trkpt lat="42.76900098" lon="13.47594673">
        <ele>938.00000</ele>
        <time>2024-02-16T13:12:42Z</time>
      </trkpt>
      <trkpt lat="42.76896016" lon="13.47593743">
        <ele>938.00000</ele>
        <time>2024-02-16T13:12:43Z</time>
      </trkpt>
      <trkpt lat="42.76891976" lon="13.47593190">
        <ele>938.00000</ele>
        <time>2024-02-16T13:12:44Z</time>
      </trkpt>
      <trkpt lat="42.76887400" lon="13.47592988">
        <ele>938.00000</ele>
        <time>2024-02-16T13:12:45Z</time>
      </trkpt>
      <trkpt lat="42.76882857" lon="13.47593022">
        <ele>937.00000</ele>
        <time>2024-02-16T13:12:46Z</time>
      </trkpt>
      <trkpt lat="42.76878247" lon="13.47593332">
        <ele>937.00000</ele>
        <time>2024-02-16T13:12:47Z</time>
      </trkpt>
      <trkpt lat="42.76873636" lon="13.47593709">
        <ele>937.00000</ele>
        <time>2024-02-16T13:12:48Z</time>
      </trkpt>
      <trkpt lat="42.76868800" lon="13.47594271">
        <ele>936.00000</ele>
        <time>2024-02-16T13:12:49Z</time>
      </trkpt>
      <trkpt lat="42.76863763" lon="13.47594916">
        <ele>936.00000</ele>
        <time>2024-02-16T13:12:50Z</time>
      </trkpt>
      <trkpt lat="42.76859538" lon="13.47595327">
        <ele>936.00000</ele>
        <time>2024-02-16T13:12:51Z</time>
      </trkpt>
      <trkpt lat="42.76852942" lon="13.47595796">
        <ele>935.00000</ele>
        <time>2024-02-16T13:12:52Z</time>
      </trkpt>
      <trkpt lat="42.76847158" lon="13.47596257">
        <ele>934.00000</ele>
        <time>2024-02-16T13:12:53Z</time>
      </trkpt>
      <trkpt lat="42.76841157" lon="13.47596450">
        <ele>933.00000</ele>
        <time>2024-02-16T13:12:54Z</time>
      </trkpt>
      <trkpt lat="42.76835055" lon="13.47596584">
        <ele>932.00000</ele>
        <time>2024-02-16T13:12:55Z</time>
      </trkpt>
      <trkpt lat="42.76828751" lon="13.47596727">
        <ele>931.00000</ele>
        <time>2024-02-16T13:12:56Z</time>
      </trkpt>
      <trkpt lat="42.76822440" lon="13.47596911">
        <ele>931.00000</ele>
        <time>2024-02-16T13:12:57Z</time>
      </trkpt>
      <trkpt lat="42.76815994" lon="13.47596685">
        <ele>930.00000</ele>
        <time>2024-02-16T13:12:58Z</time>
      </trkpt>
      <trkpt lat="42.76809439" lon="13.47596257">
        <ele>930.00000</ele>
        <time>2024-02-16T13:12:59Z</time>
      </trkpt>
      <trkpt lat="42.76802776" lon="13.47595428">
        <ele>930.00000</ele>
        <time>2024-02-16T13:13:00Z</time>
      </trkpt>
      <trkpt lat="42.76796012" lon="13.47594581">
        <ele>931.00000</ele>
        <time>2024-02-16T13:13:01Z</time>
      </trkpt>
      <trkpt lat="42.76789164" lon="13.47593785">
        <ele>932.00000</ele>
        <time>2024-02-16T13:13:02Z</time>
      </trkpt>
      <trkpt lat="42.76782324" lon="13.47592754">
        <ele>933.00000</ele>
        <time>2024-02-16T13:13:03Z</time>
      </trkpt>
      <trkpt lat="42.76775560" lon="13.47591689">
        <ele>934.00000</ele>
        <time>2024-02-16T13:13:04Z</time>
      </trkpt>
      <trkpt lat="42.76768963" lon="13.47590608">
        <ele>934.00000</ele>
        <time>2024-02-16T13:13:05Z</time>
      </trkpt>
      <trkpt lat="42.76762568" lon="13.47589577">
        <ele>934.00000</ele>
        <time>2024-02-16T13:13:06Z</time>
      </trkpt>
      <trkpt lat="42.76756323" lon="13.47588462">
        <ele>934.00000</ele>
        <time>2024-02-16T13:13:07Z</time>
      </trkpt>
      <trkpt lat="42.76750104" lon="13.47587498">
        <ele>934.00000</ele>
        <time>2024-02-16T13:13:08Z</time>
      </trkpt>
      <trkpt lat="42.76744044" lon="13.47586702">
        <ele>936.00000</ele>
        <time>2024-02-16T13:13:09Z</time>
      </trkpt>
      <trkpt lat="42.76737892" lon="13.47585612">
        <ele>937.00000</ele>
        <time>2024-02-16T13:13:10Z</time>
      </trkpt>
      <trkpt lat="42.76732007" lon="13.47584757">
        <ele>938.00000</ele>
        <time>2024-02-16T13:13:11Z</time>
      </trkpt>
      <trkpt lat="42.76726366" lon="13.47583819">
        <ele>939.00000</ele>
        <time>2024-02-16T13:13:12Z</time>
      </trkpt>
      <trkpt lat="42.76720952" lon="13.47582620">
        <ele>940.00000</ele>
        <time>2024-02-16T13:13:13Z</time>
      </trkpt>
      <trkpt lat="42.76715772" lon="13.47581237">
        <ele>941.00000</ele>
        <time>2024-02-16T13:13:14Z</time>
      </trkpt>
      <trkpt lat="42.76711212" lon="13.47579888">
        <ele>942.00000</ele>
        <time>2024-02-16T13:13:15Z</time>
      </trkpt>
      <trkpt lat="42.76706920" lon="13.47578630">
        <ele>943.00000</ele>
        <time>2024-02-16T13:13:16Z</time>
      </trkpt>
      <trkpt lat="42.76703157" lon="13.47577482">
        <ele>943.00000</ele>
        <time>2024-02-16T13:13:17Z</time>
      </trkpt>
      <trkpt lat="42.76699720" lon="13.47575671">
        <ele>944.00000</ele>
        <time>2024-02-16T13:13:18Z</time>
      </trkpt>
      <trkpt lat="42.76696485" lon="13.47573626">
        <ele>945.00000</ele>
        <time>2024-02-16T13:13:19Z</time>
      </trkpt>
      <trkpt lat="42.76693308" lon="13.47571531">
        <ele>945.00000</ele>
        <time>2024-02-16T13:13:20Z</time>
      </trkpt>
      <trkpt lat="42.76690282" lon="13.47569796">
        <ele>945.00000</ele>
        <time>2024-02-16T13:13:21Z</time>
      </trkpt>
      <trkpt lat="42.76687365" lon="13.47568086">
        <ele>946.00000</ele>
        <time>2024-02-16T13:13:22Z</time>
      </trkpt>
      <trkpt lat="42.76684373" lon="13.47566284">
        <ele>946.00000</ele>
        <time>2024-02-16T13:13:23Z</time>
      </trkpt>
      <trkpt lat="42.76681205" lon="13.47564599">
        <ele>947.00000</ele>
        <time>2024-02-16T13:13:24Z</time>
      </trkpt>
      <trkpt lat="42.76677533" lon="13.47563141">
        <ele>947.00000</ele>
        <time>2024-02-16T13:13:25Z</time>
      </trkpt>
      <trkpt lat="42.76673435" lon="13.47561464">
        <ele>948.00000</ele>
        <time>2024-02-16T13:13:26Z</time>
      </trkpt>
      <trkpt lat="42.76669361" lon="13.47559687">
        <ele>949.00000</ele>
        <time>2024-02-16T13:13:27Z</time>
      </trkpt>
      <trkpt lat="42.76665438" lon="13.47558229">
        <ele>949.00000</ele>
        <time>2024-02-16T13:13:28Z</time>
      </trkpt>
      <trkpt lat="42.76661541" lon="13.47556930">
        <ele>949.00000</ele>
        <time>2024-02-16T13:13:29Z</time>
      </trkpt>
      <trkpt lat="42.76657266" lon="13.47555111">
        <ele>950.00000</ele>
        <time>2024-02-16T13:13:30Z</time>
      </trkpt>
      <trkpt lat="42.76653234" lon="13.47553635">
        <ele>950.00000</ele>
        <time>2024-02-16T13:13:31Z</time>
      </trkpt>
      <trkpt lat="42.76649446" lon="13.47552739">
        <ele>951.00000</ele>
        <time>2024-02-16T13:13:32Z</time>
      </trkpt>
      <trkpt lat="42.76645892" lon="13.47552043">
        <ele>951.00000</ele>
        <time>2024-02-16T13:13:33Z</time>
      </trkpt>
      <trkpt lat="42.76642061" lon="13.47551976">
        <ele>951.00000</ele>
        <time>2024-02-16T13:13:34Z</time>
      </trkpt>
      <trkpt lat="42.76638273" lon="13.47551934">
        <ele>952.00000</ele>
        <time>2024-02-16T13:13:35Z</time>
      </trkpt>
      <trkpt lat="42.76634643" lon="13.47551071">
        <ele>953.00000</ele>
        <time>2024-02-16T13:13:36Z</time>
      </trkpt>
      <trkpt lat="42.76630880" lon="13.47549872">
        <ele>953.00000</ele>
        <time>2024-02-16T13:13:37Z</time>
      </trkpt>
      <trkpt lat="42.76627041" lon="13.47548053">
        <ele>953.00000</ele>
        <time>2024-02-16T13:13:38Z</time>
      </trkpt>
      <trkpt lat="42.76623244" lon="13.47546259">
        <ele>953.00000</ele>
        <time>2024-02-16T13:13:39Z</time>
      </trkpt>
      <trkpt lat="42.76619858" lon="13.47545396">
        <ele>953.00000</ele>
        <time>2024-02-16T13:13:40Z</time>
      </trkpt>
      <trkpt lat="42.76616756" lon="13.47544952">
        <ele>954.00000</ele>
        <time>2024-02-16T13:13:41Z</time>
      </trkpt>
      <trkpt lat="42.76613605" lon="13.47544524">
        <ele>954.00000</ele>
        <time>2024-02-16T13:13:42Z</time>
      </trkpt>
      <trkpt lat="42.76610059" lon="13.47544097">
        <ele>954.00000</ele>
        <time>2024-02-16T13:13:43Z</time>
      </trkpt>
      <trkpt lat="42.76606824" lon="13.47543803">
        <ele>955.00000</ele>
        <time>2024-02-16T13:13:44Z</time>
      </trkpt>
      <trkpt lat="42.76603345" lon="13.47542923">
        <ele>955.00000</ele>
        <time>2024-02-16T13:13:45Z</time>
      </trkpt>
      <trkpt lat="42.76599473" lon="13.47541926">
        <ele>955.00000</ele>
        <time>2024-02-16T13:13:46Z</time>
      </trkpt>
      <trkpt lat="42.76595667" lon="13.47541247">
        <ele>956.00000</ele>
        <time>2024-02-16T13:13:47Z</time>
      </trkpt>
      <trkpt lat="42.76592290" lon="13.47541079">
        <ele>956.00000</ele>
        <time>2024-02-16T13:13:48Z</time>
      </trkpt>
      <trkpt lat="42.76588987" lon="13.47540593">
        <ele>956.00000</ele>
        <time>2024-02-16T13:13:49Z</time>
      </trkpt>
      <trkpt lat="42.76585307" lon="13.47539780">
        <ele>957.00000</ele>
        <time>2024-02-16T13:13:50Z</time>
      </trkpt>
      <trkpt lat="42.76581712" lon="13.47540216">
        <ele>957.00000</ele>
        <time>2024-02-16T13:13:51Z</time>
      </trkpt>
      <trkpt lat="42.76578795" lon="13.47540384">
        <ele>958.00000</ele>
        <time>2024-02-16T13:13:52Z</time>
      </trkpt>
      <trkpt lat="42.76574964" lon="13.47539830">
        <ele>959.00000</ele>
        <time>2024-02-16T13:13:53Z</time>
      </trkpt>
      <trkpt lat="42.76571368" lon="13.47539143">
        <ele>959.00000</ele>
        <time>2024-02-16T13:13:54Z</time>
      </trkpt>
      <trkpt lat="42.76567974" lon="13.47538288">
        <ele>960.00000</ele>
        <time>2024-02-16T13:13:55Z</time>
      </trkpt>
      <trkpt lat="42.76564395" lon="13.47537634">
        <ele>960.00000</ele>
        <time>2024-02-16T13:13:56Z</time>
      </trkpt>
      <trkpt lat="42.76560623" lon="13.47537308">
        <ele>961.00000</ele>
        <time>2024-02-16T13:13:57Z</time>
      </trkpt>
      <trkpt lat="42.76556415" lon="13.47536411">
        <ele>961.00000</ele>
        <time>2024-02-16T13:13:58Z</time>
      </trkpt>
      <trkpt lat="42.76551964" lon="13.47535237">
        <ele>961.00000</ele>
        <time>2024-02-16T13:13:59Z</time>
      </trkpt>
      <trkpt lat="42.76547715" lon="13.47533854">
        <ele>961.00000</ele>
        <time>2024-02-16T13:14:00Z</time>
      </trkpt>
      <trkpt lat="42.76544404" lon="13.47532999">
        <ele>961.00000</ele>
        <time>2024-02-16T13:14:01Z</time>
      </trkpt>
      <trkpt lat="42.76540573" lon="13.47531591">
        <ele>961.00000</ele>
        <time>2024-02-16T13:14:02Z</time>
      </trkpt>
      <trkpt lat="42.76537589" lon="13.47531205">
        <ele>961.00000</ele>
        <time>2024-02-16T13:14:03Z</time>
      </trkpt>
      <trkpt lat="42.76534547" lon="13.47532094">
        <ele>961.00000</ele>
        <time>2024-02-16T13:14:04Z</time>
      </trkpt>
      <trkpt lat="42.76529224" lon="13.47530166">
        <ele>961.00000</ele>
        <time>2024-02-16T13:14:05Z</time>
      </trkpt>
      <trkpt lat="42.76524991" lon="13.47528490">
        <ele>961.00000</ele>
        <time>2024-02-16T13:14:06Z</time>
      </trkpt>
      <trkpt lat="42.76521664" lon="13.47527015">
        <ele>962.00000</ele>
        <time>2024-02-16T13:14:07Z</time>
      </trkpt>
      <trkpt lat="42.76518395" lon="13.47525321">
        <ele>962.00000</ele>
        <time>2024-02-16T13:14:08Z</time>
      </trkpt>
      <trkpt lat="42.76515134" lon="13.47523662">
        <ele>963.00000</ele>
        <time>2024-02-16T13:14:09Z</time>
      </trkpt>
      <trkpt lat="42.76511563" lon="13.47521499">
        <ele>963.00000</ele>
        <time>2024-02-16T13:14:10Z</time>
      </trkpt>
      <trkpt lat="42.76508688" lon="13.47520024">
        <ele>963.00000</ele>
        <time>2024-02-16T13:14:11Z</time>
      </trkpt>
      <trkpt lat="42.76505528" lon="13.47518507">
        <ele>964.00000</ele>
        <time>2024-02-16T13:14:12Z</time>
      </trkpt>
      <trkpt lat="42.76502729" lon="13.47516470">
        <ele>964.00000</ele>
        <time>2024-02-16T13:14:13Z</time>
      </trkpt>
      <trkpt lat="42.76500248" lon="13.47514869">
        <ele>965.00000</ele>
        <time>2024-02-16T13:14:14Z</time>
      </trkpt>
      <trkpt lat="42.76497524" lon="13.47512916">
        <ele>965.00000</ele>
        <time>2024-02-16T13:14:15Z</time>
      </trkpt>
      <trkpt lat="42.76494431" lon="13.47510687">
        <ele>965.00000</ele>
        <time>2024-02-16T13:14:16Z</time>
      </trkpt>
      <trkpt lat="42.76491539" lon="13.47508541">
        <ele>966.00000</ele>
        <time>2024-02-16T13:14:17Z</time>
      </trkpt>
      <trkpt lat="42.76488572" lon="13.47506345">
        <ele>966.00000</ele>
        <time>2024-02-16T13:14:18Z</time>
      </trkpt>
      <trkpt lat="42.76485487" lon="13.47504325">
        <ele>966.00000</ele>
        <time>2024-02-16T13:14:19Z</time>
      </trkpt>
      <trkpt lat="42.76482420" lon="13.47502682">
        <ele>967.00000</ele>
        <time>2024-02-16T13:14:20Z</time>
      </trkpt>
      <trkpt lat="42.76479645" lon="13.47501416">
        <ele>967.00000</ele>
        <time>2024-02-16T13:14:21Z</time>
      </trkpt>
      <trkpt lat="42.76477038" lon="13.47501073">
        <ele>968.00000</ele>
        <time>2024-02-16T13:14:22Z</time>
      </trkpt>
      <trkpt lat="42.76474348" lon="13.47501684">
        <ele>968.00000</ele>
        <time>2024-02-16T13:14:23Z</time>
      </trkpt>
      <trkpt lat="42.76471976" lon="13.47503654">
        <ele>970.00000</ele>
        <time>2024-02-16T13:14:24Z</time>
      </trkpt>
      <trkpt lat="42.76470190" lon="13.47506730">
        <ele>971.00000</ele>
        <time>2024-02-16T13:14:25Z</time>
      </trkpt>
      <trkpt lat="42.76469185" lon="13.47510444">
        <ele>972.00000</ele>
        <time>2024-02-16T13:14:26Z</time>
      </trkpt>
      <trkpt lat="42.76468564" lon="13.47514442">
        <ele>973.00000</ele>
        <time>2024-02-16T13:14:27Z</time>
      </trkpt>
      <trkpt lat="42.76468749" lon="13.47518490">
        <ele>975.00000</ele>
        <time>2024-02-16T13:14:28Z</time>
      </trkpt>
      <trkpt lat="42.76469629" lon="13.47522748">
        <ele>976.00000</ele>
        <time>2024-02-16T13:14:29Z</time>
      </trkpt>
      <trkpt lat="42.76471531" lon="13.47526872">
        <ele>976.00000</ele>
        <time>2024-02-16T13:14:30Z</time>
      </trkpt>
      <trkpt lat="42.76474205" lon="13.47530183">
        <ele>976.00000</ele>
        <time>2024-02-16T13:14:31Z</time>
      </trkpt>
      <trkpt lat="42.76477315" lon="13.47533041">
        <ele>976.00000</ele>
        <time>2024-02-16T13:14:32Z</time>
      </trkpt>
      <trkpt lat="42.76480785" lon="13.47535933">
        <ele>975.00000</ele>
        <time>2024-02-16T13:14:33Z</time>
      </trkpt>
      <trkpt lat="42.76484456" lon="13.47539126">
        <ele>974.00000</ele>
        <time>2024-02-16T13:14:34Z</time>
      </trkpt>
      <trkpt lat="42.76488010" lon="13.47541976">
        <ele>973.00000</ele>
        <time>2024-02-16T13:14:35Z</time>
      </trkpt>
      <trkpt lat="42.76492025" lon="13.47545178">
        <ele>972.00000</ele>
        <time>2024-02-16T13:14:36Z</time>
      </trkpt>
      <trkpt lat="42.76496099" lon="13.47547936">
        <ele>971.00000</ele>
        <time>2024-02-16T13:14:37Z</time>
      </trkpt>
      <trkpt lat="42.76500659" lon="13.47550886">
        <ele>970.00000</ele>
        <time>2024-02-16T13:14:38Z</time>
      </trkpt>
      <trkpt lat="42.76505126" lon="13.47554172">
        <ele>970.00000</ele>
        <time>2024-02-16T13:14:39Z</time>
      </trkpt>
      <trkpt lat="42.76509485" lon="13.47557483">
        <ele>969.00000</ele>
        <time>2024-02-16T13:14:40Z</time>
      </trkpt>
      <trkpt lat="42.76513935" lon="13.47561280">
        <ele>969.00000</ele>
        <time>2024-02-16T13:14:41Z</time>
      </trkpt>
      <trkpt lat="42.76518504" lon="13.47564641">
        <ele>969.00000</ele>
        <time>2024-02-16T13:14:42Z</time>
      </trkpt>
      <trkpt lat="42.76523206" lon="13.47568111">
        <ele>969.00000</ele>
        <time>2024-02-16T13:14:43Z</time>
      </trkpt>
      <trkpt lat="42.76527514" lon="13.47570927">
        <ele>968.00000</ele>
        <time>2024-02-16T13:14:44Z</time>
      </trkpt>
      <trkpt lat="42.76531512" lon="13.47573786">
        <ele>969.00000</ele>
        <time>2024-02-16T13:14:45Z</time>
      </trkpt>
      <trkpt lat="42.76535561" lon="13.47576652">
        <ele>969.00000</ele>
        <time>2024-02-16T13:14:46Z</time>
      </trkpt>
      <trkpt lat="42.76539601" lon="13.47579485">
        <ele>970.00000</ele>
        <time>2024-02-16T13:14:47Z</time>
      </trkpt>
      <trkpt lat="42.76543934" lon="13.47582327">
        <ele>971.00000</ele>
        <time>2024-02-16T13:14:48Z</time>
      </trkpt>
      <trkpt lat="42.76548570" lon="13.47585017">
        <ele>972.00000</ele>
        <time>2024-02-16T13:14:49Z</time>
      </trkpt>
      <trkpt lat="42.76553029" lon="13.47587700">
        <ele>972.00000</ele>
        <time>2024-02-16T13:14:50Z</time>
      </trkpt>
      <trkpt lat="42.76556415" lon="13.47590365">
        <ele>973.00000</ele>
        <time>2024-02-16T13:14:51Z</time>
      </trkpt>
      <trkpt lat="42.76559072" lon="13.47592754">
        <ele>973.00000</ele>
        <time>2024-02-16T13:14:52Z</time>
      </trkpt>
      <trkpt lat="42.76562903" lon="13.47595352">
        <ele>973.00000</ele>
        <time>2024-02-16T13:14:53Z</time>
      </trkpt>
      <trkpt lat="42.76566959" lon="13.47598177">
        <ele>973.00000</ele>
        <time>2024-02-16T13:14:54Z</time>
      </trkpt>
      <trkpt lat="42.76571100" lon="13.47600893">
        <ele>973.00000</ele>
        <time>2024-02-16T13:14:55Z</time>
      </trkpt>
      <trkpt lat="42.76574579" lon="13.47603491">
        <ele>973.00000</ele>
        <time>2024-02-16T13:14:56Z</time>
      </trkpt>
      <trkpt lat="42.76577596" lon="13.47605494">
        <ele>973.00000</ele>
        <time>2024-02-16T13:14:57Z</time>
      </trkpt>
      <trkpt lat="42.76581418" lon="13.47608285">
        <ele>974.00000</ele>
        <time>2024-02-16T13:14:58Z</time>
      </trkpt>
      <trkpt lat="42.76584939" lon="13.47611437">
        <ele>974.00000</ele>
        <time>2024-02-16T13:14:59Z</time>
      </trkpt>
      <trkpt lat="42.76588283" lon="13.47614681">
        <ele>973.00000</ele>
        <time>2024-02-16T13:15:00Z</time>
      </trkpt>
      <trkpt lat="42.76591745" lon="13.47618570">
        <ele>972.00000</ele>
        <time>2024-02-16T13:15:01Z</time>
      </trkpt>
      <trkpt lat="42.76594536" lon="13.47623549">
        <ele>971.00000</ele>
        <time>2024-02-16T13:15:02Z</time>
      </trkpt>
      <trkpt lat="42.76595852" lon="13.47627354">
        <ele>971.00000</ele>
        <time>2024-02-16T13:15:03Z</time>
      </trkpt>
      <trkpt lat="42.76597168" lon="13.47632367">
        <ele>970.00000</ele>
        <time>2024-02-16T13:15:04Z</time>
      </trkpt>
      <trkpt lat="42.76598216" lon="13.47638896">
        <ele>970.00000</ele>
        <time>2024-02-16T13:15:05Z</time>
      </trkpt>
      <trkpt lat="42.76597972" lon="13.47643213">
        <ele>969.00000</ele>
        <time>2024-02-16T13:15:06Z</time>
      </trkpt>
      <trkpt lat="42.76597486" lon="13.47648745">
        <ele>969.00000</ele>
        <time>2024-02-16T13:15:07Z</time>
      </trkpt>
      <trkpt lat="42.76596539" lon="13.47653548">
        <ele>968.00000</ele>
        <time>2024-02-16T13:15:08Z</time>
      </trkpt>
      <trkpt lat="42.76595131" lon="13.47657512">
        <ele>968.00000</ele>
        <time>2024-02-16T13:15:09Z</time>
      </trkpt>
      <trkpt lat="42.76593027" lon="13.47661083">
        <ele>968.00000</ele>
        <time>2024-02-16T13:15:10Z</time>
      </trkpt>
      <trkpt lat="42.76590177" lon="13.47664461">
        <ele>968.00000</ele>
        <time>2024-02-16T13:15:11Z</time>
      </trkpt>
      <trkpt lat="42.76588040" lon="13.47666104">
        <ele>969.00000</ele>
        <time>2024-02-16T13:15:12Z</time>
      </trkpt>
      <trkpt lat="42.76584679" lon="13.47667805">
        <ele>969.00000</ele>
        <time>2024-02-16T13:15:13Z</time>
      </trkpt>
      <trkpt lat="42.76580379" lon="13.47668836">
        <ele>969.00000</ele>
        <time>2024-02-16T13:15:14Z</time>
      </trkpt>
      <trkpt lat="42.76575584" lon="13.47669105">
        <ele>970.00000</ele>
        <time>2024-02-16T13:15:15Z</time>
      </trkpt>
      <trkpt lat="42.76570941" lon="13.47669046">
        <ele>971.00000</ele>
        <time>2024-02-16T13:15:16Z</time>
      </trkpt>
      <trkpt lat="42.76566599" lon="13.47668836">
        <ele>972.00000</ele>
        <time>2024-02-16T13:15:17Z</time>
      </trkpt>
      <trkpt lat="42.76562282" lon="13.47668400">
        <ele>972.00000</ele>
        <time>2024-02-16T13:15:18Z</time>
      </trkpt>
      <trkpt lat="42.76557857" lon="13.47668375">
        <ele>973.00000</ele>
        <time>2024-02-16T13:15:19Z</time>
      </trkpt>
      <trkpt lat="42.76553590" lon="13.47668224">
        <ele>974.00000</ele>
        <time>2024-02-16T13:15:20Z</time>
      </trkpt>
      <trkpt lat="42.76549374" lon="13.47667931">
        <ele>974.00000</ele>
        <time>2024-02-16T13:15:21Z</time>
      </trkpt>
      <trkpt lat="42.76545007" lon="13.47667462">
        <ele>975.00000</ele>
        <time>2024-02-16T13:15:22Z</time>
      </trkpt>
      <trkpt lat="42.76540598" lon="13.47667202">
        <ele>976.00000</ele>
        <time>2024-02-16T13:15:23Z</time>
      </trkpt>
      <trkpt lat="42.76536139" lon="13.47666883">
        <ele>976.00000</ele>
        <time>2024-02-16T13:15:24Z</time>
      </trkpt>
      <trkpt lat="42.76531454" lon="13.47666422">
        <ele>977.00000</ele>
        <time>2024-02-16T13:15:25Z</time>
      </trkpt>
      <trkpt lat="42.76526818" lon="13.47665743">
        <ele>978.00000</ele>
        <time>2024-02-16T13:15:26Z</time>
      </trkpt>
      <trkpt lat="42.76522234" lon="13.47665140">
        <ele>978.00000</ele>
        <time>2024-02-16T13:15:27Z</time>
      </trkpt>
      <trkpt lat="42.76518034" lon="13.47664377">
        <ele>979.00000</ele>
        <time>2024-02-16T13:15:28Z</time>
      </trkpt>
      <trkpt lat="42.76513433" lon="13.47663346">
        <ele>980.00000</ele>
        <time>2024-02-16T13:15:29Z</time>
      </trkpt>
      <trkpt lat="42.76508848" lon="13.47662835">
        <ele>980.00000</ele>
        <time>2024-02-16T13:15:30Z</time>
      </trkpt>
      <trkpt lat="42.76504246" lon="13.47662240">
        <ele>981.00000</ele>
        <time>2024-02-16T13:15:31Z</time>
      </trkpt>
      <trkpt lat="42.76499426" lon="13.47661511">
        <ele>982.00000</ele>
        <time>2024-02-16T13:15:32Z</time>
      </trkpt>
      <trkpt lat="42.76494464" lon="13.47660739">
        <ele>982.00000</ele>
        <time>2024-02-16T13:15:33Z</time>
      </trkpt>
      <trkpt lat="42.76489385" lon="13.47660169">
        <ele>983.00000</ele>
        <time>2024-02-16T13:15:34Z</time>
      </trkpt>
      <trkpt lat="42.76484725" lon="13.47659281">
        <ele>983.00000</ele>
        <time>2024-02-16T13:15:35Z</time>
      </trkpt>
      <trkpt lat="42.76479955" lon="13.47658602">
        <ele>983.00000</ele>
        <time>2024-02-16T13:15:36Z</time>
      </trkpt>
      <trkpt lat="42.76475178" lon="13.47657831">
        <ele>984.00000</ele>
        <time>2024-02-16T13:15:37Z</time>
      </trkpt>
      <trkpt lat="42.76470182" lon="13.47657110">
        <ele>984.00000</ele>
        <time>2024-02-16T13:15:38Z</time>
      </trkpt>
      <trkpt lat="42.76465404" lon="13.47656481">
        <ele>985.00000</ele>
        <time>2024-02-16T13:15:39Z</time>
      </trkpt>
      <trkpt lat="42.76460526" lon="13.47655878">
        <ele>985.00000</ele>
        <time>2024-02-16T13:15:40Z</time>
      </trkpt>
      <trkpt lat="42.76455581" lon="13.47655400">
        <ele>986.00000</ele>
        <time>2024-02-16T13:15:41Z</time>
      </trkpt>
      <trkpt lat="42.76450811" lon="13.47654738">
        <ele>986.00000</ele>
        <time>2024-02-16T13:15:42Z</time>
      </trkpt>
      <trkpt lat="42.76445556" lon="13.47654285">
        <ele>987.00000</ele>
        <time>2024-02-16T13:15:43Z</time>
      </trkpt>
      <trkpt lat="42.76440376" lon="13.47653573">
        <ele>987.00000</ele>
        <time>2024-02-16T13:15:44Z</time>
      </trkpt>
      <trkpt lat="42.76435422" lon="13.47652517">
        <ele>988.00000</ele>
        <time>2024-02-16T13:15:45Z</time>
      </trkpt>
      <trkpt lat="42.76430460" lon="13.47651276">
        <ele>988.00000</ele>
        <time>2024-02-16T13:15:46Z</time>
      </trkpt>
      <trkpt lat="42.76425573" lon="13.47650069">
        <ele>988.00000</ele>
        <time>2024-02-16T13:15:47Z</time>
      </trkpt>
      <trkpt lat="42.76420745" lon="13.47648728">
        <ele>989.00000</ele>
        <time>2024-02-16T13:15:48Z</time>
      </trkpt>
      <trkpt lat="42.76415775" lon="13.47647144">
        <ele>989.00000</ele>
        <time>2024-02-16T13:15:49Z</time>
      </trkpt>
      <trkpt lat="42.76410914" lon="13.47645048">
        <ele>989.00000</ele>
        <time>2024-02-16T13:15:50Z</time>
      </trkpt>
      <trkpt lat="42.76406287" lon="13.47642551">
        <ele>990.00000</ele>
        <time>2024-02-16T13:15:51Z</time>
      </trkpt>
      <trkpt lat="42.76402004" lon="13.47640019">
        <ele>990.00000</ele>
        <time>2024-02-16T13:15:52Z</time>
      </trkpt>
      <trkpt lat="42.76397586" lon="13.47637077">
        <ele>991.00000</ele>
        <time>2024-02-16T13:15:53Z</time>
      </trkpt>
      <trkpt lat="42.76393546" lon="13.47634554">
        <ele>991.00000</ele>
        <time>2024-02-16T13:15:54Z</time>
      </trkpt>
      <trkpt lat="42.76385022" lon="13.47630053">
        <ele>992.00000</ele>
        <time>2024-02-16T13:15:56Z</time>
      </trkpt>
      <trkpt lat="42.76381711" lon="13.47627966">
        <ele>992.00000</ele>
        <time>2024-02-16T13:15:57Z</time>
      </trkpt>
      <trkpt lat="42.76376917" lon="13.47624882">
        <ele>993.00000</ele>
        <time>2024-02-16T13:15:58Z</time>
      </trkpt>
      <trkpt lat="42.76372734" lon="13.47622669">
        <ele>993.00000</ele>
        <time>2024-02-16T13:15:59Z</time>
      </trkpt>
      <trkpt lat="42.76368417" lon="13.47620598">
        <ele>993.00000</ele>
        <time>2024-02-16T13:16:00Z</time>
      </trkpt>
      <trkpt lat="42.76363774" lon="13.47618310">
        <ele>993.00000</ele>
        <time>2024-02-16T13:16:01Z</time>
      </trkpt>
      <trkpt lat="42.76359097" lon="13.47616215">
        <ele>993.00000</ele>
        <time>2024-02-16T13:16:02Z</time>
      </trkpt>
      <trkpt lat="42.76354520" lon="13.47614387">
        <ele>993.00000</ele>
        <time>2024-02-16T13:16:03Z</time>
      </trkpt>
      <trkpt lat="42.76349927" lon="13.47612284">
        <ele>993.00000</ele>
        <time>2024-02-16T13:16:04Z</time>
      </trkpt>
      <trkpt lat="42.76345350" lon="13.47610641">
        <ele>992.00000</ele>
        <time>2024-02-16T13:16:05Z</time>
      </trkpt>
      <trkpt lat="42.76340749" lon="13.47609140">
        <ele>992.00000</ele>
        <time>2024-02-16T13:16:06Z</time>
      </trkpt>
      <trkpt lat="42.76336214" lon="13.47607699">
        <ele>992.00000</ele>
        <time>2024-02-16T13:16:07Z</time>
      </trkpt>
      <trkpt lat="42.76331587" lon="13.47606282">
        <ele>992.00000</ele>
        <time>2024-02-16T13:16:08Z</time>
      </trkpt>
      <trkpt lat="42.76327229" lon="13.47604891">
        <ele>992.00000</ele>
        <time>2024-02-16T13:16:09Z</time>
      </trkpt>
      <trkpt lat="42.76322602" lon="13.47603198">
        <ele>992.00000</ele>
        <time>2024-02-16T13:16:10Z</time>
      </trkpt>
      <trkpt lat="42.76317774" lon="13.47601521">
        <ele>993.00000</ele>
        <time>2024-02-16T13:16:11Z</time>
      </trkpt>
      <trkpt lat="42.76312887" lon="13.47600121">
        <ele>993.00000</ele>
        <time>2024-02-16T13:16:12Z</time>
      </trkpt>
      <trkpt lat="42.76307900" lon="13.47598487">
        <ele>994.00000</ele>
        <time>2024-02-16T13:16:13Z</time>
      </trkpt>
      <trkpt lat="42.76302787" lon="13.47596509">
        <ele>995.00000</ele>
        <time>2024-02-16T13:16:14Z</time>
      </trkpt>
      <trkpt lat="42.76297842" lon="13.47594690">
        <ele>996.00000</ele>
        <time>2024-02-16T13:16:15Z</time>
      </trkpt>
      <trkpt lat="42.76292804" lon="13.47592871">
        <ele>997.00000</ele>
        <time>2024-02-16T13:16:16Z</time>
      </trkpt>
      <trkpt lat="42.76288093" lon="13.47591119">
        <ele>998.00000</ele>
        <time>2024-02-16T13:16:17Z</time>
      </trkpt>
      <trkpt lat="42.76283022" lon="13.47589443">
        <ele>999.00000</ele>
        <time>2024-02-16T13:16:18Z</time>
      </trkpt>
      <trkpt lat="42.76277775" lon="13.47588093">
        <ele>1000.0000</ele>
        <time>2024-02-16T13:16:19Z</time>
      </trkpt>
      <trkpt lat="42.76272830" lon="13.47586752">
        <ele>1001.0000</ele>
        <time>2024-02-16T13:16:20Z</time>
      </trkpt>
      <trkpt lat="42.76267952" lon="13.47585218">
        <ele>1002.0000</ele>
        <time>2024-02-16T13:16:21Z</time>
      </trkpt>
      <trkpt lat="42.76262948" lon="13.47583425">
        <ele>1003.0000</ele>
        <time>2024-02-16T13:16:22Z</time>
      </trkpt>
      <trkpt lat="42.76258145" lon="13.47581514">
        <ele>1003.0000</ele>
        <time>2024-02-16T13:16:23Z</time>
      </trkpt>
      <trkpt lat="42.76253652" lon="13.47579980">
        <ele>1004.0000</ele>
        <time>2024-02-16T13:16:24Z</time>
      </trkpt>
      <trkpt lat="42.76249210" lon="13.47578161">
        <ele>1005.0000</ele>
        <time>2024-02-16T13:16:25Z</time>
      </trkpt>
      <trkpt lat="42.76245111" lon="13.47576761">
        <ele>1005.0000</ele>
        <time>2024-02-16T13:16:26Z</time>
      </trkpt>
      <trkpt lat="42.76241331" lon="13.47575864">
        <ele>1005.0000</ele>
        <time>2024-02-16T13:16:27Z</time>
      </trkpt>
      <trkpt lat="42.76238003" lon="13.47575001">
        <ele>1005.0000</ele>
        <time>2024-02-16T13:16:28Z</time>
      </trkpt>
      <trkpt lat="42.76234676" lon="13.47573819">
        <ele>1005.0000</ele>
        <time>2024-02-16T13:16:29Z</time>
      </trkpt>
      <trkpt lat="42.76230728" lon="13.47572436">
        <ele>1006.0000</ele>
        <time>2024-02-16T13:16:30Z</time>
      </trkpt>
      <trkpt lat="42.76226143" lon="13.47571128">
        <ele>1006.0000</ele>
        <time>2024-02-16T13:16:31Z</time>
      </trkpt>
      <trkpt lat="42.76221491" lon="13.47568949">
        <ele>1007.0000</ele>
        <time>2024-02-16T13:16:32Z</time>
      </trkpt>
      <trkpt lat="42.76217401" lon="13.47566401">
        <ele>1007.0000</ele>
        <time>2024-02-16T13:16:33Z</time>
      </trkpt>
      <trkpt lat="42.76213545" lon="13.47563861">
        <ele>1007.0000</ele>
        <time>2024-02-16T13:16:34Z</time>
      </trkpt>
      <trkpt lat="42.76210041" lon="13.47561548">
        <ele>1007.0000</ele>
        <time>2024-02-16T13:16:35Z</time>
      </trkpt>
      <trkpt lat="42.76207040" lon="13.47559503">
        <ele>1007.0000</ele>
        <time>2024-02-16T13:16:36Z</time>
      </trkpt>
      <trkpt lat="42.76204098" lon="13.47557039">
        <ele>1007.0000</ele>
        <time>2024-02-16T13:16:37Z</time>
      </trkpt>
      <trkpt lat="42.76201500" lon="13.47554356">
        <ele>1007.0000</ele>
        <time>2024-02-16T13:16:38Z</time>
      </trkpt>
      <trkpt lat="42.76198801" lon="13.47551649">
        <ele>1007.0000</ele>
        <time>2024-02-16T13:16:39Z</time>
      </trkpt>
      <trkpt lat="42.76196219" lon="13.47549512">
        <ele>1007.0000</ele>
        <time>2024-02-16T13:16:40Z</time>
      </trkpt>
      <trkpt lat="42.76193948" lon="13.47547282">
        <ele>1007.0000</ele>
        <time>2024-02-16T13:16:41Z</time>
      </trkpt>
      <trkpt lat="42.76192406" lon="13.47545363">
        <ele>1007.0000</ele>
        <time>2024-02-16T13:16:42Z</time>
      </trkpt>
      <trkpt lat="42.76190855" lon="13.47542731">
        <ele>1007.0000</ele>
        <time>2024-02-16T13:16:43Z</time>
      </trkpt>
      <trkpt lat="42.76190922" lon="13.47540585">
        <ele>1007.0000</ele>
        <time>2024-02-16T13:16:44Z</time>
      </trkpt>
      <trkpt lat="42.76191601" lon="13.47539210">
        <ele>1007.0000</ele>
        <time>2024-02-16T13:16:45Z</time>
      </trkpt>
      <trkpt lat="42.76193269" lon="13.47539034">
        <ele>1008.0000</ele>
        <time>2024-02-16T13:16:46Z</time>
      </trkpt>
      <trkpt lat="42.76196764" lon="13.47539680">
        <ele>1008.0000</ele>
        <time>2024-02-16T13:16:47Z</time>
      </trkpt>
      <trkpt lat="42.76200419" lon="13.47539738">
        <ele>1008.0000</ele>
        <time>2024-02-16T13:16:48Z</time>
      </trkpt>
      <trkpt lat="42.76203470" lon="13.47538799">
        <ele>1008.0000</ele>
        <time>2024-02-16T13:16:49Z</time>
      </trkpt>
      <trkpt lat="42.76205607" lon="13.47537324">
        <ele>1008.0000</ele>
        <time>2024-02-16T13:16:50Z</time>
      </trkpt>
      <trkpt lat="42.76207267" lon="13.47536000">
        <ele>1008.0000</ele>
        <time>2024-02-16T13:16:51Z</time>
      </trkpt>
      <trkpt lat="42.76209346" lon="13.47535254">
        <ele>1008.0000</ele>
        <time>2024-02-16T13:16:52Z</time>
      </trkpt>
      <trkpt lat="42.76211575" lon="13.47535254">
        <ele>1008.0000</ele>
        <time>2024-02-16T13:16:53Z</time>
      </trkpt>
      <trkpt lat="42.76213645" lon="13.47535455">
        <ele>1008.0000</ele>
        <time>2024-02-16T13:16:54Z</time>
      </trkpt>
      <trkpt lat="42.76215976" lon="13.47535489">
        <ele>1008.0000</ele>
        <time>2024-02-16T13:16:55Z</time>
      </trkpt>
      <trkpt lat="42.76217945" lon="13.47535287">
        <ele>1008.0000</ele>
        <time>2024-02-16T13:16:56Z</time>
      </trkpt>
      <trkpt lat="42.76219764" lon="13.47535170">
        <ele>1008.0000</ele>
        <time>2024-02-16T13:16:57Z</time>
      </trkpt>
      <trkpt lat="42.76221080" lon="13.47535078">
        <ele>1008.0000</ele>
        <time>2024-02-16T13:16:58Z</time>
      </trkpt>
      <trkpt lat="42.76222270" lon="13.47534961">
        <ele>1008.0000</ele>
        <time>2024-02-16T13:16:59Z</time>
      </trkpt>
      <trkpt lat="42.76223586" lon="13.47534701">
        <ele>1008.0000</ele>
        <time>2024-02-16T13:17:00Z</time>
      </trkpt>
      <trkpt lat="42.76224710" lon="13.47534986">
        <ele>1008.0000</ele>
        <time>2024-02-16T13:17:01Z</time>
      </trkpt>
      <trkpt lat="42.76226059" lon="13.47535849">
        <ele>1008.0000</ele>
        <time>2024-02-16T13:17:02Z</time>
      </trkpt>
      <trkpt lat="42.76226361" lon="13.47536134">
        <ele>1008.0000</ele>
        <time>2024-02-16T13:17:03Z</time>
      </trkpt>
      <trkpt lat="42.76226813" lon="13.47536126">
        <ele>1008.0000</ele>
        <time>2024-02-16T13:17:04Z</time>
      </trkpt>
      <trkpt lat="42.76227073" lon="13.47536385">
        <ele>1008.0000</ele>
        <time>2024-02-16T13:17:05Z</time>
      </trkpt>
      <trkpt lat="42.76218549" lon="13.47537190">
        <ele>1008.0000</ele>
        <time>2024-02-16T13:18:53Z</time>
      </trkpt>
      <trkpt lat="42.76216261" lon="13.47537936">
        <ele>1008.0000</ele>
        <time>2024-02-16T13:18:54Z</time>
      </trkpt>
      <trkpt lat="42.76213084" lon="13.47538196">
        <ele>1008.0000</ele>
        <time>2024-02-16T13:18:55Z</time>
      </trkpt>
      <trkpt lat="42.76208432" lon="13.47537701">
        <ele>1008.0000</ele>
        <time>2024-02-16T13:18:56Z</time>
      </trkpt>
      <trkpt lat="42.76204442" lon="13.47537576">
        <ele>1008.0000</ele>
        <time>2024-02-16T13:18:57Z</time>
      </trkpt>
      <trkpt lat="42.76201534" lon="13.47538724">
        <ele>1008.0000</ele>
        <time>2024-02-16T13:18:58Z</time>
      </trkpt>
      <trkpt lat="42.76199530" lon="13.47539923">
        <ele>1008.0000</ele>
        <time>2024-02-16T13:18:59Z</time>
      </trkpt>
      <trkpt lat="42.76197929" lon="13.47540786">
        <ele>1008.0000</ele>
        <time>2024-02-16T13:19:00Z</time>
      </trkpt>
      <trkpt lat="42.76196965" lon="13.47541515">
        <ele>1008.0000</ele>
        <time>2024-02-16T13:19:01Z</time>
      </trkpt>
      <trkpt lat="42.76196387" lon="13.47541859">
        <ele>1008.0000</ele>
        <time>2024-02-16T13:19:02Z</time>
      </trkpt>
      <trkpt lat="42.76195767" lon="13.47542094">
        <ele>1007.0000</ele>
        <time>2024-02-16T13:19:03Z</time>
      </trkpt>
      <trkpt lat="42.76195163" lon="13.47542613">
        <ele>1007.0000</ele>
        <time>2024-02-16T13:19:04Z</time>
      </trkpt>
      <trkpt lat="42.76194342" lon="13.47543125">
        <ele>1007.0000</ele>
        <time>2024-02-16T13:19:05Z</time>
      </trkpt>
      <trkpt lat="42.76193973" lon="13.47543384">
        <ele>1007.0000</ele>
        <time>2024-02-16T13:19:06Z</time>
      </trkpt>
      <trkpt lat="42.76194334" lon="13.47543041">
        <ele>1007.0000</ele>
        <time>2024-02-16T13:19:08Z</time>
      </trkpt>
      <trkpt lat="42.76200016" lon="13.47549453">
        <ele>1007.0000</ele>
        <time>2024-02-16T13:19:20Z</time>
      </trkpt>
      <trkpt lat="42.76203059" lon="13.47552479">
        <ele>1007.0000</ele>
        <time>2024-02-16T13:19:21Z</time>
      </trkpt>
      <trkpt lat="42.76206848" lon="13.47555412">
        <ele>1007.0000</ele>
        <time>2024-02-16T13:19:22Z</time>
      </trkpt>
      <trkpt lat="42.76211215" lon="13.47558514">
        <ele>1007.0000</ele>
        <time>2024-02-16T13:19:23Z</time>
      </trkpt>
      <trkpt lat="42.76215942" lon="13.47561925">
        <ele>1007.0000</ele>
        <time>2024-02-16T13:19:24Z</time>
      </trkpt>
      <trkpt lat="42.76221097" lon="13.47565923">
        <ele>1007.0000</ele>
        <time>2024-02-16T13:19:25Z</time>
      </trkpt>
      <trkpt lat="42.76225841" lon="13.47568404">
        <ele>1006.0000</ele>
        <time>2024-02-16T13:19:26Z</time>
      </trkpt>
      <trkpt lat="42.76231281" lon="13.47570776">
        <ele>1006.0000</ele>
        <time>2024-02-16T13:19:27Z</time>
      </trkpt>
      <trkpt lat="42.76236830" lon="13.47573325">
        <ele>1005.0000</ele>
        <time>2024-02-16T13:19:28Z</time>
      </trkpt>
      <trkpt lat="42.76242722" lon="13.47576132">
        <ele>1005.0000</ele>
        <time>2024-02-16T13:19:29Z</time>
      </trkpt>
      <trkpt lat="42.76247215" lon="13.47577147">
        <ele>1005.0000</ele>
        <time>2024-02-16T13:19:30Z</time>
      </trkpt>
      <trkpt lat="42.76255010" lon="13.47579075">
        <ele>1004.0000</ele>
        <time>2024-02-16T13:19:31Z</time>
      </trkpt>
      <trkpt lat="42.76261121" lon="13.47581287">
        <ele>1003.0000</ele>
        <time>2024-02-16T13:19:32Z</time>
      </trkpt>
      <trkpt lat="42.76267440" lon="13.47584003">
        <ele>1002.0000</ele>
        <time>2024-02-16T13:19:33Z</time>
      </trkpt>
      <trkpt lat="42.76274599" lon="13.47586425">
        <ele>1001.0000</ele>
        <time>2024-02-16T13:19:34Z</time>
      </trkpt>
      <trkpt lat="42.76282637" lon="13.47588697">
        <ele>999.00000</ele>
        <time>2024-02-16T13:19:35Z</time>
      </trkpt>
      <trkpt lat="42.76290834" lon="13.47591429">
        <ele>997.00000</ele>
        <time>2024-02-16T13:19:36Z</time>
      </trkpt>
      <trkpt lat="42.76299535" lon="13.47594883">
        <ele>995.00000</ele>
        <time>2024-02-16T13:19:37Z</time>
      </trkpt>
      <trkpt lat="42.76308227" lon="13.47598236">
        <ele>994.00000</ele>
        <time>2024-02-16T13:19:38Z</time>
      </trkpt>
      <trkpt lat="42.76317162" lon="13.47601303">
        <ele>993.00000</ele>
        <time>2024-02-16T13:19:39Z</time>
      </trkpt>
      <trkpt lat="42.76326374" lon="13.47604229">
        <ele>992.00000</ele>
        <time>2024-02-16T13:19:40Z</time>
      </trkpt>
      <trkpt lat="42.76334320" lon="13.47606877">
        <ele>992.00000</ele>
        <time>2024-02-16T13:19:41Z</time>
      </trkpt>
      <trkpt lat="42.76345585" lon="13.47610674">
        <ele>992.00000</ele>
        <time>2024-02-16T13:19:42Z</time>
      </trkpt>
      <trkpt lat="42.76355224" lon="13.47614413">
        <ele>993.00000</ele>
        <time>2024-02-16T13:19:43Z</time>
      </trkpt>
      <trkpt lat="42.76363858" lon="13.47617380">
        <ele>993.00000</ele>
        <time>2024-02-16T13:19:44Z</time>
      </trkpt>
      <trkpt lat="42.76369507" lon="13.47618218">
        <ele>993.00000</ele>
        <time>2024-02-16T13:19:45Z</time>
      </trkpt>
      <trkpt lat="42.76373086" lon="13.47617304">
        <ele>993.00000</ele>
        <time>2024-02-16T13:19:46Z</time>
      </trkpt>
      <trkpt lat="42.76375626" lon="13.47614857">
        <ele>993.00000</ele>
        <time>2024-02-16T13:19:47Z</time>
      </trkpt>
      <trkpt lat="42.76377864" lon="13.47611420">
        <ele>993.00000</ele>
        <time>2024-02-16T13:19:48Z</time>
      </trkpt>
      <trkpt lat="42.76380160" lon="13.47607640">
        <ele>993.00000</ele>
        <time>2024-02-16T13:19:49Z</time>
      </trkpt>
      <trkpt lat="42.76382155" lon="13.47604061">
        <ele>993.00000</ele>
        <time>2024-02-16T13:19:50Z</time>
      </trkpt>
      <trkpt lat="42.76383739" lon="13.47601085">
        <ele>993.00000</ele>
        <time>2024-02-16T13:19:51Z</time>
      </trkpt>
      <trkpt lat="42.76384946" lon="13.47598730">
        <ele>993.00000</ele>
        <time>2024-02-16T13:19:52Z</time>
      </trkpt>
      <trkpt lat="42.76385826" lon="13.47596802">
        <ele>993.00000</ele>
        <time>2024-02-16T13:19:53Z</time>
      </trkpt>
      <trkpt lat="42.76385835" lon="13.47595578">
        <ele>993.00000</ele>
        <time>2024-02-16T13:19:54Z</time>
      </trkpt>
      <trkpt lat="42.76386053" lon="13.47595738">
        <ele>993.00000</ele>
        <time>2024-02-16T13:19:56Z</time>
      </trkpt>
      <trkpt lat="42.76382977" lon="13.47603885">
        <ele>993.00000</ele>
        <time>2024-02-16T13:20:51Z</time>
      </trkpt>
      <trkpt lat="42.76381200" lon="13.47607112">
        <ele>993.00000</ele>
        <time>2024-02-16T13:20:52Z</time>
      </trkpt>
      <trkpt lat="42.76379724" lon="13.47609291">
        <ele>993.00000</ele>
        <time>2024-02-16T13:20:53Z</time>
      </trkpt>
      <trkpt lat="42.76377721" lon="13.47611806">
        <ele>993.00000</ele>
        <time>2024-02-16T13:20:54Z</time>
      </trkpt>
      <trkpt lat="42.76375802" lon="13.47614396">
        <ele>993.00000</ele>
        <time>2024-02-16T13:20:55Z</time>
      </trkpt>
      <trkpt lat="42.76374427" lon="13.47617095">
        <ele>993.00000</ele>
        <time>2024-02-16T13:20:56Z</time>
      </trkpt>
      <trkpt lat="42.76374150" lon="13.47618788">
        <ele>993.00000</ele>
        <time>2024-02-16T13:20:57Z</time>
      </trkpt>
      <trkpt lat="42.76373874" lon="13.47620490">
        <ele>993.00000</ele>
        <time>2024-02-16T13:20:58Z</time>
      </trkpt>
      <trkpt lat="42.76374067" lon="13.47621705">
        <ele>993.00000</ele>
        <time>2024-02-16T13:20:59Z</time>
      </trkpt>
      <trkpt lat="42.76374922" lon="13.47622686">
        <ele>993.00000</ele>
        <time>2024-02-16T13:21:00Z</time>
      </trkpt>
      <trkpt lat="42.76376456" lon="13.47623859">
        <ele>993.00000</ele>
        <time>2024-02-16T13:21:01Z</time>
      </trkpt>
      <trkpt lat="42.76377688" lon="13.47624865">
        <ele>993.00000</ele>
        <time>2024-02-16T13:21:02Z</time>
      </trkpt>
      <trkpt lat="42.76379247" lon="13.47626223">
        <ele>993.00000</ele>
        <time>2024-02-16T13:21:03Z</time>
      </trkpt>
      <trkpt lat="42.76381208" lon="13.47627715">
        <ele>992.00000</ele>
        <time>2024-02-16T13:21:04Z</time>
      </trkpt>
      <trkpt lat="42.76383765" lon="13.47629399">
        <ele>992.00000</ele>
        <time>2024-02-16T13:21:05Z</time>
      </trkpt>
      <trkpt lat="42.76387360" lon="13.47631537">
        <ele>992.00000</ele>
        <time>2024-02-16T13:21:06Z</time>
      </trkpt>
      <trkpt lat="42.76390948" lon="13.47633523">
        <ele>992.00000</ele>
        <time>2024-02-16T13:21:07Z</time>
      </trkpt>
      <trkpt lat="42.76394854" lon="13.47635661">
        <ele>991.00000</ele>
        <time>2024-02-16T13:21:08Z</time>
      </trkpt>
      <trkpt lat="42.76397980" lon="13.47637320">
        <ele>991.00000</ele>
        <time>2024-02-16T13:21:09Z</time>
      </trkpt>
      <trkpt lat="42.76401593" lon="13.47639290">
        <ele>991.00000</ele>
        <time>2024-02-16T13:21:10Z</time>
      </trkpt>
      <trkpt lat="42.76405583" lon="13.47641855">
        <ele>990.00000</ele>
        <time>2024-02-16T13:21:11Z</time>
      </trkpt>
      <trkpt lat="42.76409111" lon="13.47644076">
        <ele>990.00000</ele>
        <time>2024-02-16T13:21:12Z</time>
      </trkpt>
      <trkpt lat="42.76412783" lon="13.47645887">
        <ele>989.00000</ele>
        <time>2024-02-16T13:21:13Z</time>
      </trkpt>
      <trkpt lat="42.76415783" lon="13.47647177">
        <ele>989.00000</ele>
        <time>2024-02-16T13:21:14Z</time>
      </trkpt>
      <trkpt lat="42.76419740" lon="13.47648787">
        <ele>989.00000</ele>
        <time>2024-02-16T13:21:15Z</time>
      </trkpt>
      <trkpt lat="42.76424081" lon="13.47650346">
        <ele>988.00000</ele>
        <time>2024-02-16T13:21:16Z</time>
      </trkpt>
      <trkpt lat="42.76428784" lon="13.47651788">
        <ele>988.00000</ele>
        <time>2024-02-16T13:21:17Z</time>
      </trkpt>
      <trkpt lat="42.76433578" lon="13.47652810">
        <ele>988.00000</ele>
        <time>2024-02-16T13:21:18Z</time>
      </trkpt>
      <trkpt lat="42.76438599" lon="13.47653866">
        <ele>987.00000</ele>
        <time>2024-02-16T13:21:19Z</time>
      </trkpt>
      <trkpt lat="42.76443838" lon="13.47654654">
        <ele>987.00000</ele>
        <time>2024-02-16T13:21:20Z</time>
      </trkpt>
      <trkpt lat="42.76450292" lon="13.47655316">
        <ele>986.00000</ele>
        <time>2024-02-16T13:21:21Z</time>
      </trkpt>
      <trkpt lat="42.76454717" lon="13.47655710">
        <ele>986.00000</ele>
        <time>2024-02-16T13:21:22Z</time>
      </trkpt>
      <trkpt lat="42.76461532" lon="13.47656590">
        <ele>985.00000</ele>
        <time>2024-02-16T13:21:23Z</time>
      </trkpt>
      <trkpt lat="42.76466142" lon="13.47657127">
        <ele>985.00000</ele>
        <time>2024-02-16T13:21:24Z</time>
      </trkpt>
      <trkpt lat="42.76472269" lon="13.47657772">
        <ele>984.00000</ele>
        <time>2024-02-16T13:21:25Z</time>
      </trkpt>
      <trkpt lat="42.76478539" lon="13.47658250">
        <ele>984.00000</ele>
        <time>2024-02-16T13:21:26Z</time>
      </trkpt>
      <trkpt lat="42.76486225" lon="13.47659231">
        <ele>983.00000</ele>
        <time>2024-02-16T13:21:27Z</time>
      </trkpt>
      <trkpt lat="42.76491338" lon="13.47660136">
        <ele>982.00000</ele>
        <time>2024-02-16T13:21:28Z</time>
      </trkpt>
      <trkpt lat="42.76499217" lon="13.47661762">
        <ele>982.00000</ele>
        <time>2024-02-16T13:21:29Z</time>
      </trkpt>
      <trkpt lat="42.76504506" lon="13.47662701">
        <ele>981.00000</ele>
        <time>2024-02-16T13:21:30Z</time>
      </trkpt>
      <trkpt lat="42.76511262" lon="13.47663824">
        <ele>980.00000</ele>
        <time>2024-02-16T13:21:31Z</time>
      </trkpt>
      <trkpt lat="42.76518110" lon="13.47664981">
        <ele>979.00000</ele>
        <time>2024-02-16T13:21:32Z</time>
      </trkpt>
      <trkpt lat="42.76526341" lon="13.47666322">
        <ele>978.00000</ele>
        <time>2024-02-16T13:21:33Z</time>
      </trkpt>
      <trkpt lat="42.76533189" lon="13.47667386">
        <ele>977.00000</ele>
        <time>2024-02-16T13:21:34Z</time>
      </trkpt>
      <trkpt lat="42.76538779" lon="13.47668057">
        <ele>976.00000</ele>
        <time>2024-02-16T13:21:35Z</time>
      </trkpt>
      <trkpt lat="42.76545946" lon="13.47668786">
        <ele>975.00000</ele>
        <time>2024-02-16T13:21:36Z</time>
      </trkpt>
      <trkpt lat="42.76554730" lon="13.47669498">
        <ele>973.00000</ele>
        <time>2024-02-16T13:21:37Z</time>
      </trkpt>
      <trkpt lat="42.76562307" lon="13.47669515">
        <ele>972.00000</ele>
        <time>2024-02-16T13:21:38Z</time>
      </trkpt>
      <trkpt lat="42.76570195" lon="13.47669239">
        <ele>971.00000</ele>
        <time>2024-02-16T13:21:39Z</time>
      </trkpt>
      <trkpt lat="42.76576758" lon="13.47668828">
        <ele>970.00000</ele>
        <time>2024-02-16T13:21:40Z</time>
      </trkpt>
      <trkpt lat="42.76584788" lon="13.47666766">
        <ele>969.00000</ele>
        <time>2024-02-16T13:21:41Z</time>
      </trkpt>
      <trkpt lat="42.76591904" lon="13.47662709">
        <ele>968.00000</ele>
        <time>2024-02-16T13:21:42Z</time>
      </trkpt>
      <trkpt lat="42.76596774" lon="13.47656607">
        <ele>968.00000</ele>
        <time>2024-02-16T13:21:43Z</time>
      </trkpt>
      <trkpt lat="42.76600345" lon="13.47646473">
        <ele>968.00000</ele>
        <time>2024-02-16T13:21:44Z</time>
      </trkpt>
      <trkpt lat="42.76599867" lon="13.47636323">
        <ele>970.00000</ele>
        <time>2024-02-16T13:21:45Z</time>
      </trkpt>
      <trkpt lat="42.76597763" lon="13.47628838">
        <ele>970.00000</ele>
        <time>2024-02-16T13:21:46Z</time>
      </trkpt>
      <trkpt lat="42.76592566" lon="13.47620313">
        <ele>971.00000</ele>
        <time>2024-02-16T13:21:47Z</time>
      </trkpt>
      <trkpt lat="42.76584863" lon="13.47611580">
        <ele>974.00000</ele>
        <time>2024-02-16T13:21:48Z</time>
      </trkpt>
      <trkpt lat="42.76576716" lon="13.47605327">
        <ele>973.00000</ele>
        <time>2024-02-16T13:21:49Z</time>
      </trkpt>
      <trkpt lat="42.76568233" lon="13.47599107">
        <ele>973.00000</ele>
        <time>2024-02-16T13:21:50Z</time>
      </trkpt>
      <trkpt lat="42.76558930" lon="13.47592670">
        <ele>973.00000</ele>
        <time>2024-02-16T13:21:51Z</time>
      </trkpt>
      <trkpt lat="42.76551721" lon="13.47587456">
        <ele>972.00000</ele>
        <time>2024-02-16T13:21:52Z</time>
      </trkpt>
      <trkpt lat="42.76542711" lon="13.47580860">
        <ele>971.00000</ele>
        <time>2024-02-16T13:21:53Z</time>
      </trkpt>
      <trkpt lat="42.76533415" lon="13.47574255">
        <ele>969.00000</ele>
        <time>2024-02-16T13:21:54Z</time>
      </trkpt>
      <trkpt lat="42.76524354" lon="13.47567583">
        <ele>968.00000</ele>
        <time>2024-02-16T13:21:55Z</time>
      </trkpt>
      <trkpt lat="42.76515444" lon="13.47560928">
        <ele>969.00000</ele>
        <time>2024-02-16T13:21:56Z</time>
      </trkpt>
      <trkpt lat="42.76506953" lon="13.47554851">
        <ele>969.00000</ele>
        <time>2024-02-16T13:21:57Z</time>
      </trkpt>
      <trkpt lat="42.76498747" lon="13.47549327">
        <ele>970.00000</ele>
        <time>2024-02-16T13:21:58Z</time>
      </trkpt>
      <trkpt lat="42.76491204" lon="13.47544549">
        <ele>973.00000</ele>
        <time>2024-02-16T13:21:59Z</time>
      </trkpt>
      <trkpt lat="42.76484783" lon="13.47538623">
        <ele>974.00000</ele>
        <time>2024-02-16T13:22:00Z</time>
      </trkpt>
      <trkpt lat="42.76480215" lon="13.47531868">
        <ele>975.00000</ele>
        <time>2024-02-16T13:22:01Z</time>
      </trkpt>
      <trkpt lat="42.76477516" lon="13.47522857">
        <ele>973.00000</ele>
        <time>2024-02-16T13:22:02Z</time>
      </trkpt>
      <trkpt lat="42.76477483" lon="13.47516453">
        <ele>972.00000</ele>
        <time>2024-02-16T13:22:03Z</time>
      </trkpt>
      <trkpt lat="42.76479821" lon="13.47507954">
        <ele>969.00000</ele>
        <time>2024-02-16T13:22:04Z</time>
      </trkpt>
      <trkpt lat="42.76484792" lon="13.47503730">
        <ele>966.00000</ele>
        <time>2024-02-16T13:22:05Z</time>
      </trkpt>
      <trkpt lat="42.76491103" lon="13.47501961">
        <ele>964.00000</ele>
        <time>2024-02-16T13:22:06Z</time>
      </trkpt>
      <trkpt lat="42.76498161" lon="13.47503713">
        <ele>963.00000</ele>
        <time>2024-02-16T13:22:07Z</time>
      </trkpt>
      <trkpt lat="42.76504020" lon="13.47507971">
        <ele>962.00000</ele>
        <time>2024-02-16T13:22:08Z</time>
      </trkpt>
      <trkpt lat="42.76512796" lon="13.47515070">
        <ele>961.00000</ele>
        <time>2024-02-16T13:22:09Z</time>
      </trkpt>
      <trkpt lat="42.76521144" lon="13.47520485">
        <ele>960.00000</ele>
        <time>2024-02-16T13:22:10Z</time>
      </trkpt>
      <trkpt lat="42.76530213" lon="13.47525045">
        <ele>960.00000</ele>
        <time>2024-02-16T13:22:12Z</time>
      </trkpt>
      <trkpt lat="42.76539710" lon="13.47528817">
        <ele>960.00000</ele>
        <time>2024-02-16T13:22:13Z</time>
      </trkpt>
      <trkpt lat="42.76547782" lon="13.47531247">
        <ele>961.00000</ele>
        <time>2024-02-16T13:22:14Z</time>
      </trkpt>
      <trkpt lat="42.76558360" lon="13.47533988">
        <ele>960.00000</ele>
        <time>2024-02-16T13:22:15Z</time>
      </trkpt>
      <trkpt lat="42.76571821" lon="13.47536142">
        <ele>958.00000</ele>
        <time>2024-02-16T13:22:16Z</time>
      </trkpt>
      <trkpt lat="42.76583857" lon="13.47537157">
        <ele>956.00000</ele>
        <time>2024-02-16T13:22:17Z</time>
      </trkpt>
      <trkpt lat="42.76596070" lon="13.47538087">
        <ele>954.00000</ele>
        <time>2024-02-16T13:22:18Z</time>
      </trkpt>
      <trkpt lat="42.76608475" lon="13.47539721">
        <ele>953.00000</ele>
        <time>2024-02-16T13:22:19Z</time>
      </trkpt>
      <trkpt lat="42.76618508" lon="13.47541297">
        <ele>953.00000</ele>
        <time>2024-02-16T13:22:20Z</time>
      </trkpt>
      <trkpt lat="42.76633763" lon="13.47543728">
        <ele>951.00000</ele>
        <time>2024-02-16T13:22:21Z</time>
      </trkpt>
      <trkpt lat="42.76646596" lon="13.47546444">
        <ele>950.00000</ele>
        <time>2024-02-16T13:22:22Z</time>
      </trkpt>
      <trkpt lat="42.76659529" lon="13.47550828">
        <ele>949.00000</ele>
        <time>2024-02-16T13:22:23Z</time>
      </trkpt>
      <trkpt lat="42.76669403" lon="13.47555672">
        <ele>948.00000</ele>
        <time>2024-02-16T13:22:24Z</time>
      </trkpt>
      <trkpt lat="42.76684197" lon="13.47563769">
        <ele>946.00000</ele>
        <time>2024-02-16T13:22:25Z</time>
      </trkpt>
      <trkpt lat="42.76694700" lon="13.47569595">
        <ele>944.00000</ele>
        <time>2024-02-16T13:22:26Z</time>
      </trkpt>
      <trkpt lat="42.76711505" lon="13.47576602">
        <ele>941.00000</ele>
        <time>2024-02-16T13:22:27Z</time>
      </trkpt>
      <trkpt lat="42.76727020" lon="13.47580977">
        <ele>938.00000</ele>
        <time>2024-02-16T13:22:28Z</time>
      </trkpt>
      <trkpt lat="42.76742510" lon="13.47585009">
        <ele>936.00000</ele>
        <time>2024-02-16T13:22:29Z</time>
      </trkpt>
      <trkpt lat="42.76754739" lon="13.47588010">
        <ele>934.00000</ele>
        <time>2024-02-16T13:22:30Z</time>
      </trkpt>
      <trkpt lat="42.76770330" lon="13.47591438">
        <ele>934.00000</ele>
        <time>2024-02-16T13:22:31Z</time>
      </trkpt>
      <trkpt lat="42.76786163" lon="13.47594589">
        <ele>932.00000</ele>
        <time>2024-02-16T13:22:32Z</time>
      </trkpt>
      <trkpt lat="42.76801636" lon="13.47597104">
        <ele>930.00000</ele>
        <time>2024-02-16T13:22:33Z</time>
      </trkpt>
      <trkpt lat="42.76816841" lon="13.47598613">
        <ele>930.00000</ele>
        <time>2024-02-16T13:22:34Z</time>
      </trkpt>
      <trkpt lat="42.76831777" lon="13.47598512">
        <ele>931.00000</ele>
        <time>2024-02-16T13:22:35Z</time>
      </trkpt>
      <trkpt lat="42.76846622" lon="13.47597758">
        <ele>934.00000</ele>
        <time>2024-02-16T13:22:36Z</time>
      </trkpt>
      <trkpt lat="42.76861332" lon="13.47596878">
        <ele>936.00000</ele>
        <time>2024-02-16T13:22:37Z</time>
      </trkpt>
      <trkpt lat="42.76875221" lon="13.47595344">
        <ele>937.00000</ele>
        <time>2024-02-16T13:22:38Z</time>
      </trkpt>
      <trkpt lat="42.76888389" lon="13.47594531">
        <ele>938.00000</ele>
        <time>2024-02-16T13:22:39Z</time>
      </trkpt>
      <trkpt lat="42.76901800" lon="13.47595361">
        <ele>938.00000</ele>
        <time>2024-02-16T13:22:40Z</time>
      </trkpt>
      <trkpt lat="42.76914616" lon="13.47598252">
        <ele>938.00000</ele>
        <time>2024-02-16T13:22:41Z</time>
      </trkpt>
      <trkpt lat="42.76926568" lon="13.47603818">
        <ele>938.00000</ele>
        <time>2024-02-16T13:22:42Z</time>
      </trkpt>
      <trkpt lat="42.76938320" lon="13.47610641">
        <ele>937.00000</ele>
        <time>2024-02-16T13:22:43Z</time>
      </trkpt>
      <trkpt lat="42.76950574" lon="13.47617187">
        <ele>936.00000</ele>
        <time>2024-02-16T13:22:44Z</time>
      </trkpt>
      <trkpt lat="42.76963876" lon="13.47622484">
        <ele>934.00000</ele>
        <time>2024-02-16T13:22:45Z</time>
      </trkpt>
      <trkpt lat="42.76977455" lon="13.47625317">
        <ele>932.00000</ele>
        <time>2024-02-16T13:22:46Z</time>
      </trkpt>
      <trkpt lat="42.76991469" lon="13.47626080">
        <ele>931.00000</ele>
        <time>2024-02-16T13:22:47Z</time>
      </trkpt>
      <trkpt lat="42.77005827" lon="13.47625552">
        <ele>929.00000</ele>
        <time>2024-02-16T13:22:48Z</time>
      </trkpt>
      <trkpt lat="42.77020412" lon="13.47624924">
        <ele>926.00000</ele>
        <time>2024-02-16T13:22:49Z</time>
      </trkpt>
      <trkpt lat="42.77038475" lon="13.47624295">
        <ele>924.00000</ele>
        <time>2024-02-16T13:22:50Z</time>
      </trkpt>
      <trkpt lat="42.77050470" lon="13.47624437">
        <ele>922.00000</ele>
        <time>2024-02-16T13:22:51Z</time>
      </trkpt>
      <trkpt lat="42.77065088" lon="13.47625778">
        <ele>921.00000</ele>
        <time>2024-02-16T13:22:52Z</time>
      </trkpt>
      <trkpt lat="42.77079337" lon="13.47628084">
        <ele>921.00000</ele>
        <time>2024-02-16T13:22:53Z</time>
      </trkpt>
      <trkpt lat="42.77093159" lon="13.47632249">
        <ele>921.00000</ele>
        <time>2024-02-16T13:22:54Z</time>
      </trkpt>
      <trkpt lat="42.77106444" lon="13.47639751">
        <ele>921.00000</ele>
        <time>2024-02-16T13:22:55Z</time>
      </trkpt>
      <trkpt lat="42.77118740" lon="13.47649306">
        <ele>920.00000</ele>
        <time>2024-02-16T13:22:56Z</time>
      </trkpt>
      <trkpt lat="42.77130483" lon="13.47659558">
        <ele>921.00000</ele>
        <time>2024-02-16T13:22:57Z</time>
      </trkpt>
      <trkpt lat="42.77142008" lon="13.47670161">
        <ele>921.00000</ele>
        <time>2024-02-16T13:22:58Z</time>
      </trkpt>
      <trkpt lat="42.77155897" lon="13.47682717">
        <ele>920.00000</ele>
        <time>2024-02-16T13:22:59Z</time>
      </trkpt>
      <trkpt lat="42.77167238" lon="13.47692976">
        <ele>921.00000</ele>
        <time>2024-02-16T13:23:00Z</time>
      </trkpt>
      <trkpt lat="42.77178562" lon="13.47702850">
        <ele>919.00000</ele>
        <time>2024-02-16T13:23:01Z</time>
      </trkpt>
      <trkpt lat="42.77189291" lon="13.47713185">
        <ele>919.00000</ele>
        <time>2024-02-16T13:23:02Z</time>
      </trkpt>
      <trkpt lat="42.77198829" lon="13.47724509">
        <ele>918.00000</ele>
        <time>2024-02-16T13:23:03Z</time>
      </trkpt>
      <trkpt lat="42.77206926" lon="13.47736001">
        <ele>916.00000</ele>
        <time>2024-02-16T13:23:04Z</time>
      </trkpt>
      <trkpt lat="42.77213405" lon="13.47746193">
        <ele>915.00000</ele>
        <time>2024-02-16T13:23:05Z</time>
      </trkpt>
      <trkpt lat="42.77218795" lon="13.47755279">
        <ele>914.00000</ele>
        <time>2024-02-16T13:23:06Z</time>
      </trkpt>
      <trkpt lat="42.77223933" lon="13.47763996">
        <ele>912.00000</ele>
        <time>2024-02-16T13:23:07Z</time>
      </trkpt>
      <trkpt lat="42.77229071" lon="13.47772680">
        <ele>911.00000</ele>
        <time>2024-02-16T13:23:08Z</time>
      </trkpt>
      <trkpt lat="42.77234427" lon="13.47781506">
        <ele>910.00000</ele>
        <time>2024-02-16T13:23:09Z</time>
      </trkpt>
      <trkpt lat="42.77239917" lon="13.47790332">
        <ele>909.00000</ele>
        <time>2024-02-16T13:23:10Z</time>
      </trkpt>
      <trkpt lat="42.77245977" lon="13.47798672">
        <ele>909.00000</ele>
        <time>2024-02-16T13:23:11Z</time>
      </trkpt>
      <trkpt lat="42.77252767" lon="13.47805604">
        <ele>909.00000</ele>
        <time>2024-02-16T13:23:12Z</time>
      </trkpt>
      <trkpt lat="42.77260302" lon="13.47810759">
        <ele>909.00000</ele>
        <time>2024-02-16T13:23:13Z</time>
      </trkpt>
      <trkpt lat="42.77268022" lon="13.47813458">
        <ele>909.00000</ele>
        <time>2024-02-16T13:23:14Z</time>
      </trkpt>
      <trkpt lat="42.77275473" lon="13.47813122">
        <ele>909.00000</ele>
        <time>2024-02-16T13:23:15Z</time>
      </trkpt>
      <trkpt lat="42.77282321" lon="13.47809770">
        <ele>907.00000</ele>
        <time>2024-02-16T13:23:16Z</time>
      </trkpt>
      <trkpt lat="42.77287962" lon="13.47803173">
        <ele>906.00000</ele>
        <time>2024-02-16T13:23:17Z</time>
      </trkpt>
      <trkpt lat="42.77291868" lon="13.47794204">
        <ele>905.00000</ele>
        <time>2024-02-16T13:23:18Z</time>
      </trkpt>
      <trkpt lat="42.77294215" lon="13.47785932">
        <ele>904.00000</ele>
        <time>2024-02-16T13:23:19Z</time>
      </trkpt>
      <trkpt lat="42.77297602" lon="13.47773719">
        <ele>903.00000</ele>
        <time>2024-02-16T13:23:20Z</time>
      </trkpt>
      <trkpt lat="42.77299856" lon="13.47763535">
        <ele>902.00000</ele>
        <time>2024-02-16T13:23:21Z</time>
      </trkpt>
      <trkpt lat="42.77300166" lon="13.47752999">
        <ele>902.00000</ele>
        <time>2024-02-16T13:23:22Z</time>
      </trkpt>
      <trkpt lat="42.77298507" lon="13.47743050">
        <ele>902.00000</ele>
        <time>2024-02-16T13:23:23Z</time>
      </trkpt>
      <trkpt lat="42.77295724" lon="13.47736059">
        <ele>902.00000</ele>
        <time>2024-02-16T13:23:24Z</time>
      </trkpt>
      <trkpt lat="42.77291977" lon="13.47725414">
        <ele>903.00000</ele>
        <time>2024-02-16T13:23:25Z</time>
      </trkpt>
      <trkpt lat="42.77288759" lon="13.47715607">
        <ele>902.00000</ele>
        <time>2024-02-16T13:23:26Z</time>
      </trkpt>
      <trkpt lat="42.77285850" lon="13.47705046">
        <ele>901.00000</ele>
        <time>2024-02-16T13:23:27Z</time>
      </trkpt>
      <trkpt lat="42.77282405" lon="13.47693236">
        <ele>900.00000</ele>
        <time>2024-02-16T13:23:28Z</time>
      </trkpt>
      <trkpt lat="42.77278818" lon="13.47680185">
        <ele>899.00000</ele>
        <time>2024-02-16T13:23:29Z</time>
      </trkpt>
      <trkpt lat="42.77276462" lon="13.47669339">
        <ele>898.00000</ele>
        <time>2024-02-16T13:23:30Z</time>
      </trkpt>
      <trkpt lat="42.77272699" lon="13.47653154">
        <ele>898.00000</ele>
        <time>2024-02-16T13:23:31Z</time>
      </trkpt>
      <trkpt lat="42.77269321" lon="13.47639324">
        <ele>898.00000</ele>
        <time>2024-02-16T13:23:32Z</time>
      </trkpt>
      <trkpt lat="42.77265834" lon="13.47625519">
        <ele>898.00000</ele>
        <time>2024-02-16T13:23:33Z</time>
      </trkpt>
      <trkpt lat="42.77262456" lon="13.47614228">
        <ele>898.00000</ele>
        <time>2024-02-16T13:23:34Z</time>
      </trkpt>
      <trkpt lat="42.77258307" lon="13.47600918">
        <ele>897.00000</ele>
        <time>2024-02-16T13:23:35Z</time>
      </trkpt>
      <trkpt lat="42.77254502" lon="13.47584984">
        <ele>896.00000</ele>
        <time>2024-02-16T13:23:36Z</time>
      </trkpt>
      <trkpt lat="42.77251400" lon="13.47572746">
        <ele>894.00000</ele>
        <time>2024-02-16T13:23:37Z</time>
      </trkpt>
      <trkpt lat="42.77248534" lon="13.47561305">
        <ele>892.00000</ele>
        <time>2024-02-16T13:23:38Z</time>
      </trkpt>
      <trkpt lat="42.77245994" lon="13.47553694">
        <ele>890.00000</ele>
        <time>2024-02-16T13:23:39Z</time>
      </trkpt>
      <trkpt lat="42.77242113" lon="13.47544005">
        <ele>888.00000</ele>
        <time>2024-02-16T13:23:40Z</time>
      </trkpt>
      <trkpt lat="42.77237788" lon="13.47535396">
        <ele>886.00000</ele>
        <time>2024-02-16T13:23:41Z</time>
      </trkpt>
      <trkpt lat="42.77231208" lon="13.47526193">
        <ele>884.00000</ele>
        <time>2024-02-16T13:23:42Z</time>
      </trkpt>
      <trkpt lat="42.77225039" lon="13.47521206">
        <ele>883.00000</ele>
        <time>2024-02-16T13:23:43Z</time>
      </trkpt>
      <trkpt lat="42.77217160" lon="13.47517048">
        <ele>882.00000</ele>
        <time>2024-02-16T13:23:44Z</time>
      </trkpt>
      <trkpt lat="42.77209583" lon="13.47515054">
        <ele>881.00000</ele>
        <time>2024-02-16T13:23:45Z</time>
      </trkpt>
      <trkpt lat="42.77202039" lon="13.47514232">
        <ele>881.00000</ele>
        <time>2024-02-16T13:23:46Z</time>
      </trkpt>
      <trkpt lat="42.77194395" lon="13.47513872">
        <ele>881.00000</ele>
        <time>2024-02-16T13:23:47Z</time>
      </trkpt>
      <trkpt lat="42.77186650" lon="13.47513888">
        <ele>882.00000</ele>
        <time>2024-02-16T13:23:48Z</time>
      </trkpt>
      <trkpt lat="42.77179056" lon="13.47513075">
        <ele>883.00000</ele>
        <time>2024-02-16T13:23:49Z</time>
      </trkpt>
      <trkpt lat="42.77171982" lon="13.47511919">
        <ele>883.00000</ele>
        <time>2024-02-16T13:23:50Z</time>
      </trkpt>
      <trkpt lat="42.77165067" lon="13.47511206">
        <ele>884.00000</ele>
        <time>2024-02-16T13:23:51Z</time>
      </trkpt>
      <trkpt lat="42.77158546" lon="13.47510997">
        <ele>884.00000</ele>
        <time>2024-02-16T13:23:52Z</time>
      </trkpt>
      <trkpt lat="42.77151589" lon="13.47511550">
        <ele>884.00000</ele>
        <time>2024-02-16T13:23:53Z</time>
      </trkpt>
      <trkpt lat="42.77147490" lon="13.47511148">
        <ele>884.00000</ele>
        <time>2024-02-16T13:23:54Z</time>
      </trkpt>
      <trkpt lat="42.77145688" lon="13.47510301">
        <ele>884.00000</ele>
        <time>2024-02-16T13:23:55Z</time>
      </trkpt>
      <trkpt lat="42.77144012" lon="13.47508273">
        <ele>883.00000</ele>
        <time>2024-02-16T13:23:56Z</time>
      </trkpt>
      <trkpt lat="42.77143852" lon="13.47505155">
        <ele>881.00000</ele>
        <time>2024-02-16T13:23:57Z</time>
      </trkpt>
      <trkpt lat="42.77146711" lon="13.47502514">
        <ele>880.00000</ele>
        <time>2024-02-16T13:23:58Z</time>
      </trkpt>
      <trkpt lat="42.77150818" lon="13.47501450">
        <ele>879.00000</ele>
        <time>2024-02-16T13:23:59Z</time>
      </trkpt>
      <trkpt lat="42.77156065" lon="13.47501550">
        <ele>879.00000</ele>
        <time>2024-02-16T13:24:00Z</time>
      </trkpt>
      <trkpt lat="42.77162401" lon="13.47501366">
        <ele>878.00000</ele>
        <time>2024-02-16T13:24:01Z</time>
      </trkpt>
      <trkpt lat="42.77169442" lon="13.47500394">
        <ele>877.00000</ele>
        <time>2024-02-16T13:24:02Z</time>
      </trkpt>
      <trkpt lat="42.77177087" lon="13.47498650">
        <ele>876.00000</ele>
        <time>2024-02-16T13:24:03Z</time>
      </trkpt>
      <trkpt lat="42.77185712" lon="13.47495851">
        <ele>874.00000</ele>
        <time>2024-02-16T13:24:04Z</time>
      </trkpt>
      <trkpt lat="42.77196289" lon="13.47492204">
        <ele>871.00000</ele>
        <time>2024-02-16T13:24:05Z</time>
      </trkpt>
      <trkpt lat="42.77205283" lon="13.47489673">
        <ele>869.00000</ele>
        <time>2024-02-16T13:24:06Z</time>
      </trkpt>
      <trkpt lat="42.77214252" lon="13.47486438">
        <ele>868.00000</ele>
        <time>2024-02-16T13:24:07Z</time>
      </trkpt>
      <trkpt lat="42.77223120" lon="13.47482515">
        <ele>865.00000</ele>
        <time>2024-02-16T13:24:08Z</time>
      </trkpt>
      <trkpt lat="42.77232047" lon="13.47478249">
        <ele>864.00000</ele>
        <time>2024-02-16T13:24:09Z</time>
      </trkpt>
      <trkpt lat="42.77241426" lon="13.47475701">
        <ele>863.00000</ele>
        <time>2024-02-16T13:24:10Z</time>
      </trkpt>
      <trkpt lat="42.77250998" lon="13.47475659">
        <ele>863.00000</ele>
        <time>2024-02-16T13:24:11Z</time>
      </trkpt>
      <trkpt lat="42.77259875" lon="13.47479112">
        <ele>860.00000</ele>
        <time>2024-02-16T13:24:12Z</time>
      </trkpt>
      <trkpt lat="42.77266840" lon="13.47485214">
        <ele>859.00000</ele>
        <time>2024-02-16T13:24:13Z</time>
      </trkpt>
      <trkpt lat="42.77271752" lon="13.47493797">
        <ele>860.00000</ele>
        <time>2024-02-16T13:24:14Z</time>
      </trkpt>
      <trkpt lat="42.77276085" lon="13.47503076">
        <ele>860.00000</ele>
        <time>2024-02-16T13:24:15Z</time>
      </trkpt>
      <trkpt lat="42.77279270" lon="13.47509739">
        <ele>860.00000</ele>
        <time>2024-02-16T13:24:16Z</time>
      </trkpt>
      <trkpt lat="42.77282690" lon="13.47517040">
        <ele>859.00000</ele>
        <time>2024-02-16T13:24:17Z</time>
      </trkpt>
      <trkpt lat="42.77286420" lon="13.47524735">
        <ele>858.00000</ele>
        <time>2024-02-16T13:24:18Z</time>
      </trkpt>
      <trkpt lat="42.77288599" lon="13.47532086">
        <ele>858.00000</ele>
        <time>2024-02-16T13:24:19Z</time>
      </trkpt>
      <trkpt lat="42.77290561" lon="13.47536603">
        <ele>858.00000</ele>
        <time>2024-02-16T13:24:20Z</time>
      </trkpt>
      <trkpt lat="42.77292530" lon="13.47538179">
        <ele>857.00000</ele>
        <time>2024-02-16T13:24:21Z</time>
      </trkpt>
      <trkpt lat="42.77295992" lon="13.47540836">
        <ele>855.00000</ele>
        <time>2024-02-16T13:24:22Z</time>
      </trkpt>
      <trkpt lat="42.77298800" lon="13.47543770">
        <ele>854.00000</ele>
        <time>2024-02-16T13:24:23Z</time>
      </trkpt>
      <trkpt lat="42.77299848" lon="13.47546352">
        <ele>854.00000</ele>
        <time>2024-02-16T13:24:24Z</time>
      </trkpt>
      <trkpt lat="42.77303687" lon="13.47550978">
        <ele>852.00000</ele>
        <time>2024-02-16T13:24:25Z</time>
      </trkpt>
      <trkpt lat="42.77305833" lon="13.47554465">
        <ele>851.00000</ele>
        <time>2024-02-16T13:24:26Z</time>
      </trkpt>
      <trkpt lat="42.77308230" lon="13.47558396">
        <ele>851.00000</ele>
        <time>2024-02-16T13:24:27Z</time>
      </trkpt>
      <trkpt lat="42.77310610" lon="13.47562956">
        <ele>852.00000</ele>
        <time>2024-02-16T13:24:28Z</time>
      </trkpt>
      <trkpt lat="42.77313116" lon="13.47567985">
        <ele>852.00000</ele>
        <time>2024-02-16T13:24:29Z</time>
      </trkpt>
      <trkpt lat="42.77316813" lon="13.47574096">
        <ele>852.00000</ele>
        <time>2024-02-16T13:24:30Z</time>
      </trkpt>
      <trkpt lat="42.77321054" lon="13.47580307">
        <ele>852.00000</ele>
        <time>2024-02-16T13:24:31Z</time>
      </trkpt>
      <trkpt lat="42.77326486" lon="13.47587909">
        <ele>852.00000</ele>
        <time>2024-02-16T13:24:32Z</time>
      </trkpt>
      <trkpt lat="42.77331121" lon="13.47593634">
        <ele>851.00000</ele>
        <time>2024-02-16T13:24:33Z</time>
      </trkpt>
      <trkpt lat="42.77337131" lon="13.47598713">
        <ele>851.00000</ele>
        <time>2024-02-16T13:24:34Z</time>
      </trkpt>
      <trkpt lat="42.77342646" lon="13.47601815">
        <ele>850.00000</ele>
        <time>2024-02-16T13:24:35Z</time>
      </trkpt>
      <trkpt lat="42.77350408" lon="13.47604438">
        <ele>849.00000</ele>
        <time>2024-02-16T13:24:36Z</time>
      </trkpt>
      <trkpt lat="42.77355990" lon="13.47606601">
        <ele>848.00000</ele>
        <time>2024-02-16T13:24:37Z</time>
      </trkpt>
      <trkpt lat="42.77362444" lon="13.47609518">
        <ele>847.00000</ele>
        <time>2024-02-16T13:24:38Z</time>
      </trkpt>
      <trkpt lat="42.77368160" lon="13.47612686">
        <ele>847.00000</ele>
        <time>2024-02-16T13:24:39Z</time>
      </trkpt>
      <trkpt lat="42.77373625" lon="13.47615620">
        <ele>847.00000</ele>
        <time>2024-02-16T13:24:40Z</time>
      </trkpt>
      <trkpt lat="42.77380172" lon="13.47618134">
        <ele>846.00000</ele>
        <time>2024-02-16T13:24:41Z</time>
      </trkpt>
      <trkpt lat="42.77385687" lon="13.47617858">
        <ele>845.00000</ele>
        <time>2024-02-16T13:24:42Z</time>
      </trkpt>
      <trkpt lat="42.77389593" lon="13.47614228">
        <ele>844.00000</ele>
        <time>2024-02-16T13:24:43Z</time>
      </trkpt>
      <trkpt lat="42.77394203" lon="13.47609392">
        <ele>844.00000</ele>
        <time>2024-02-16T13:24:44Z</time>
      </trkpt>
      <trkpt lat="42.77399148" lon="13.47603273">
        <ele>843.00000</ele>
        <time>2024-02-16T13:24:45Z</time>
      </trkpt>
      <trkpt lat="42.77404035" lon="13.47596266">
        <ele>841.00000</ele>
        <time>2024-02-16T13:24:46Z</time>
      </trkpt>
      <trkpt lat="42.77409550" lon="13.47588680">
        <ele>839.00000</ele>
        <time>2024-02-16T13:24:47Z</time>
      </trkpt>
      <trkpt lat="42.77416398" lon="13.47581396">
        <ele>837.00000</ele>
        <time>2024-02-16T13:24:48Z</time>
      </trkpt>
      <trkpt lat="42.77424587" lon="13.47575395">
        <ele>835.00000</ele>
        <time>2024-02-16T13:24:49Z</time>
      </trkpt>
      <trkpt lat="42.77433858" lon="13.47571631">
        <ele>834.00000</ele>
        <time>2024-02-16T13:24:50Z</time>
      </trkpt>
      <trkpt lat="42.77443447" lon="13.47569670">
        <ele>833.00000</ele>
        <time>2024-02-16T13:24:51Z</time>
      </trkpt>
      <trkpt lat="42.77453882" lon="13.47568019">
        <ele>832.00000</ele>
        <time>2024-02-16T13:24:52Z</time>
      </trkpt>
      <trkpt lat="42.77465759" lon="13.47565747">
        <ele>831.00000</ele>
        <time>2024-02-16T13:24:53Z</time>
      </trkpt>
      <trkpt lat="42.77478190" lon="13.47564272">
        <ele>830.00000</ele>
        <time>2024-02-16T13:24:54Z</time>
      </trkpt>
      <trkpt lat="42.77490997" lon="13.47563099">
        <ele>829.00000</ele>
        <time>2024-02-16T13:24:55Z</time>
      </trkpt>
      <trkpt lat="42.77504609" lon="13.47562562">
        <ele>827.00000</ele>
        <time>2024-02-16T13:24:56Z</time>
      </trkpt>
      <trkpt lat="42.77518708" lon="13.47562755">
        <ele>824.00000</ele>
        <time>2024-02-16T13:24:57Z</time>
      </trkpt>
      <trkpt lat="42.77532530" lon="13.47564649">
        <ele>822.00000</ele>
        <time>2024-02-16T13:24:58Z</time>
      </trkpt>
      <trkpt lat="42.77545304" lon="13.47566736">
        <ele>821.00000</ele>
        <time>2024-02-16T13:24:59Z</time>
      </trkpt>
      <trkpt lat="42.77557139" lon="13.47570290">
        <ele>820.00000</ele>
        <time>2024-02-16T13:25:00Z</time>
      </trkpt>
      <trkpt lat="42.77567826" lon="13.47576870">
        <ele>820.00000</ele>
        <time>2024-02-16T13:25:01Z</time>
      </trkpt>
      <trkpt lat="42.77577607" lon="13.47586543">
        <ele>820.00000</ele>
        <time>2024-02-16T13:25:02Z</time>
      </trkpt>
      <trkpt lat="42.77586643" lon="13.47598294">
        <ele>819.00000</ele>
        <time>2024-02-16T13:25:03Z</time>
      </trkpt>
      <trkpt lat="42.77594849" lon="13.47610062">
        <ele>819.00000</ele>
        <time>2024-02-16T13:25:04Z</time>
      </trkpt>
      <trkpt lat="42.77602787" lon="13.47621051">
        <ele>816.00000</ele>
        <time>2024-02-16T13:25:05Z</time>
      </trkpt>
      <trkpt lat="42.77610490" lon="13.47629710">
        <ele>813.00000</ele>
        <time>2024-02-16T13:25:06Z</time>
      </trkpt>
      <trkpt lat="42.77618670" lon="13.47634295">
        <ele>810.00000</ele>
        <time>2024-02-16T13:25:07Z</time>
      </trkpt>
      <trkpt lat="42.77628025" lon="13.47633590">
        <ele>809.00000</ele>
        <time>2024-02-16T13:25:08Z</time>
      </trkpt>
      <trkpt lat="42.77636222" lon="13.47627639">
        <ele>808.00000</ele>
        <time>2024-02-16T13:25:09Z</time>
      </trkpt>
      <trkpt lat="42.77642676" lon="13.47618168">
        <ele>810.00000</ele>
        <time>2024-02-16T13:25:10Z</time>
      </trkpt>
      <trkpt lat="42.77647152" lon="13.47606609">
        <ele>811.00000</ele>
        <time>2024-02-16T13:25:11Z</time>
      </trkpt>
      <trkpt lat="42.77649440" lon="13.47593944">
        <ele>813.00000</ele>
        <time>2024-02-16T13:25:12Z</time>
      </trkpt>
      <trkpt lat="42.77651259" lon="13.47581220">
        <ele>814.00000</ele>
        <time>2024-02-16T13:25:13Z</time>
      </trkpt>
      <trkpt lat="42.77653179" lon="13.47568497">
        <ele>814.00000</ele>
        <time>2024-02-16T13:25:14Z</time>
      </trkpt>
      <trkpt lat="42.77654897" lon="13.47555672">
        <ele>814.00000</ele>
        <time>2024-02-16T13:25:15Z</time>
      </trkpt>
      <trkpt lat="42.77656238" lon="13.47542613">
        <ele>814.00000</ele>
        <time>2024-02-16T13:25:16Z</time>
      </trkpt>
      <trkpt lat="42.77658166" lon="13.47529068">
        <ele>813.00000</ele>
        <time>2024-02-16T13:25:17Z</time>
      </trkpt>
      <trkpt lat="42.77660731" lon="13.47514970">
        <ele>812.00000</ele>
        <time>2024-02-16T13:25:18Z</time>
      </trkpt>
      <trkpt lat="42.77664176" lon="13.47500603">
        <ele>810.00000</ele>
        <time>2024-02-16T13:25:19Z</time>
      </trkpt>
      <trkpt lat="42.77668543" lon="13.47486287">
        <ele>808.00000</ele>
        <time>2024-02-16T13:25:20Z</time>
      </trkpt>
      <trkpt lat="42.77673647" lon="13.47472993">
        <ele>806.00000</ele>
        <time>2024-02-16T13:25:21Z</time>
      </trkpt>
      <trkpt lat="42.77679037" lon="13.47460806">
        <ele>804.00000</ele>
        <time>2024-02-16T13:25:22Z</time>
      </trkpt>
      <trkpt lat="42.77685189" lon="13.47449314">
        <ele>803.00000</ele>
        <time>2024-02-16T13:25:23Z</time>
      </trkpt>
      <trkpt lat="42.77692121" lon="13.47438837">
        <ele>801.00000</ele>
        <time>2024-02-16T13:25:24Z</time>
      </trkpt>
      <trkpt lat="42.77700293" lon="13.47431167">
        <ele>799.00000</ele>
        <time>2024-02-16T13:25:25Z</time>
      </trkpt>
      <trkpt lat="42.77709413" lon="13.47427471">
        <ele>798.00000</ele>
        <time>2024-02-16T13:25:26Z</time>
      </trkpt>
      <trkpt lat="42.77718281" lon="13.47426306">
        <ele>798.00000</ele>
        <time>2024-02-16T13:25:27Z</time>
      </trkpt>
      <trkpt lat="42.77725959" lon="13.47426826">
        <ele>797.00000</ele>
        <time>2024-02-16T13:25:28Z</time>
      </trkpt>
      <trkpt lat="42.77732865" lon="13.47428837">
        <ele>794.00000</ele>
        <time>2024-02-16T13:25:29Z</time>
      </trkpt>
      <trkpt lat="42.77738967" lon="13.47428427">
        <ele>792.00000</ele>
        <time>2024-02-16T13:25:30Z</time>
      </trkpt>
      <trkpt lat="42.77744592" lon="13.47425904">
        <ele>791.00000</ele>
        <time>2024-02-16T13:25:31Z</time>
      </trkpt>
      <trkpt lat="42.77746411" lon="13.47421662">
        <ele>791.00000</ele>
        <time>2024-02-16T13:25:32Z</time>
      </trkpt>
      <trkpt lat="42.77745514" lon="13.47416466">
        <ele>791.00000</ele>
        <time>2024-02-16T13:25:33Z</time>
      </trkpt>
      <trkpt lat="42.77741298" lon="13.47411269">
        <ele>792.00000</ele>
        <time>2024-02-16T13:25:34Z</time>
      </trkpt>
      <trkpt lat="42.77733469" lon="13.47405854">
        <ele>793.00000</ele>
        <time>2024-02-16T13:25:35Z</time>
      </trkpt>
      <trkpt lat="42.77725531" lon="13.47400339">
        <ele>793.00000</ele>
        <time>2024-02-16T13:25:36Z</time>
      </trkpt>
      <trkpt lat="42.77717174" lon="13.47394689">
        <ele>793.00000</ele>
        <time>2024-02-16T13:25:37Z</time>
      </trkpt>
      <trkpt lat="42.77707803" lon="13.47390498">
        <ele>792.00000</ele>
        <time>2024-02-16T13:25:38Z</time>
      </trkpt>
      <trkpt lat="42.77697796" lon="13.47388462">
        <ele>791.00000</ele>
        <time>2024-02-16T13:25:39Z</time>
      </trkpt>
      <trkpt lat="42.77687628" lon="13.47388520">
        <ele>790.00000</ele>
        <time>2024-02-16T13:25:40Z</time>
      </trkpt>
      <trkpt lat="42.77677729" lon="13.47391890">
        <ele>790.00000</ele>
        <time>2024-02-16T13:25:41Z</time>
      </trkpt>
      <trkpt lat="42.77668786" lon="13.47398696">
        <ele>790.00000</ele>
        <time>2024-02-16T13:25:42Z</time>
      </trkpt>
      <trkpt lat="42.77659515" lon="13.47408050">
        <ele>790.00000</ele>
        <time>2024-02-16T13:25:43Z</time>
      </trkpt>
      <trkpt lat="42.77651125" lon="13.47417329">
        <ele>790.00000</ele>
        <time>2024-02-16T13:25:44Z</time>
      </trkpt>
      <trkpt lat="42.77642341" lon="13.47428343">
        <ele>791.00000</ele>
        <time>2024-02-16T13:25:45Z</time>
      </trkpt>
      <trkpt lat="42.77638192" lon="13.47435828">
        <ele>792.00000</ele>
        <time>2024-02-16T13:25:46Z</time>
      </trkpt>
      <trkpt lat="42.77634252" lon="13.47443874">
        <ele>793.00000</ele>
        <time>2024-02-16T13:25:47Z</time>
      </trkpt>
      <trkpt lat="42.77630690" lon="13.47449432">
        <ele>794.00000</ele>
        <time>2024-02-16T13:25:48Z</time>
      </trkpt>
      <trkpt lat="42.77627153" lon="13.47451871">
        <ele>793.00000</ele>
        <time>2024-02-16T13:25:49Z</time>
      </trkpt>
      <trkpt lat="42.77624714" lon="13.47449507">
        <ele>792.00000</ele>
        <time>2024-02-16T13:25:50Z</time>
      </trkpt>
      <trkpt lat="42.77624630" lon="13.47443673">
        <ele>791.00000</ele>
        <time>2024-02-16T13:25:51Z</time>
      </trkpt>
      <trkpt lat="42.77627647" lon="13.47436884">
        <ele>790.00000</ele>
        <time>2024-02-16T13:25:52Z</time>
      </trkpt>
      <trkpt lat="42.77631671" lon="13.47429432">
        <ele>789.00000</ele>
        <time>2024-02-16T13:25:53Z</time>
      </trkpt>
      <trkpt lat="42.77635761" lon="13.47420975">
        <ele>787.00000</ele>
        <time>2024-02-16T13:25:54Z</time>
      </trkpt>
      <trkpt lat="42.77639198" lon="13.47411453">
        <ele>785.00000</ele>
        <time>2024-02-16T13:25:55Z</time>
      </trkpt>
      <trkpt lat="42.77642743" lon="13.47401403">
        <ele>784.00000</ele>
        <time>2024-02-16T13:25:56Z</time>
      </trkpt>
      <trkpt lat="42.77646565" lon="13.47390582">
        <ele>782.00000</ele>
        <time>2024-02-16T13:25:57Z</time>
      </trkpt>
      <trkpt lat="42.77650379" lon="13.47378973">
        <ele>780.00000</ele>
        <time>2024-02-16T13:25:58Z</time>
      </trkpt>
      <trkpt lat="42.77654285" lon="13.47366970">
        <ele>778.00000</ele>
        <time>2024-02-16T13:25:59Z</time>
      </trkpt>
      <trkpt lat="42.77659339" lon="13.47355269">
        <ele>777.00000</ele>
        <time>2024-02-16T13:26:00Z</time>
      </trkpt>
      <trkpt lat="42.77665223" lon="13.47344390">
        <ele>775.00000</ele>
        <time>2024-02-16T13:26:01Z</time>
      </trkpt>
      <trkpt lat="42.77671049" lon="13.47334424">
        <ele>773.00000</ele>
        <time>2024-02-16T13:26:02Z</time>
      </trkpt>
      <trkpt lat="42.77676782" lon="13.47325329">
        <ele>771.00000</ele>
        <time>2024-02-16T13:26:03Z</time>
      </trkpt>
      <trkpt lat="42.77682909" lon="13.47317333">
        <ele>770.00000</ele>
        <time>2024-02-16T13:26:04Z</time>
      </trkpt>
      <trkpt lat="42.77689464" lon="13.47310795">
        <ele>768.00000</ele>
        <time>2024-02-16T13:26:05Z</time>
      </trkpt>
      <trkpt lat="42.77697041" lon="13.47304307">
        <ele>767.00000</ele>
        <time>2024-02-16T13:26:06Z</time>
      </trkpt>
      <trkpt lat="42.77702364" lon="13.47302790">
        <ele>766.00000</ele>
        <time>2024-02-16T13:26:07Z</time>
      </trkpt>
      <trkpt lat="42.77709312" lon="13.47305154">
        <ele>767.00000</ele>
        <time>2024-02-16T13:26:08Z</time>
      </trkpt>
      <trkpt lat="42.77716772" lon="13.47309370">
        <ele>769.00000</ele>
        <time>2024-02-16T13:26:09Z</time>
      </trkpt>
      <trkpt lat="42.77723344" lon="13.47313377">
        <ele>770.00000</ele>
        <time>2024-02-16T13:26:10Z</time>
      </trkpt>
      <trkpt lat="42.77731021" lon="13.47317995">
        <ele>772.00000</ele>
        <time>2024-02-16T13:26:11Z</time>
      </trkpt>
      <trkpt lat="42.77738062" lon="13.47322236">
        <ele>773.00000</ele>
        <time>2024-02-16T13:26:12Z</time>
      </trkpt>
      <trkpt lat="42.77745313" lon="13.47324038">
        <ele>773.00000</ele>
        <time>2024-02-16T13:26:13Z</time>
      </trkpt>
      <trkpt lat="42.77751473" lon="13.47324030">
        <ele>773.00000</ele>
        <time>2024-02-16T13:26:14Z</time>
      </trkpt>
      <trkpt lat="42.77761079" lon="13.47322563">
        <ele>771.00000</ele>
        <time>2024-02-16T13:26:15Z</time>
      </trkpt>
      <trkpt lat="42.77770207" lon="13.47320325">
        <ele>769.00000</ele>
        <time>2024-02-16T13:26:16Z</time>
      </trkpt>
      <trkpt lat="42.77779410" lon="13.47317526">
        <ele>767.00000</ele>
        <time>2024-02-16T13:26:17Z</time>
      </trkpt>
      <trkpt lat="42.77788974" lon="13.47315992">
        <ele>768.00000</ele>
        <time>2024-02-16T13:26:18Z</time>
      </trkpt>
      <trkpt lat="42.77798244" lon="13.47316570">
        <ele>769.00000</ele>
        <time>2024-02-16T13:26:19Z</time>
      </trkpt>
      <trkpt lat="42.77807037" lon="13.47319210">
        <ele>770.00000</ele>
        <time>2024-02-16T13:26:20Z</time>
      </trkpt>
      <trkpt lat="42.77815075" lon="13.47324105">
        <ele>773.00000</ele>
        <time>2024-02-16T13:26:21Z</time>
      </trkpt>
      <trkpt lat="42.77822870" lon="13.47331188">
        <ele>777.00000</ele>
        <time>2024-02-16T13:26:22Z</time>
      </trkpt>
      <trkpt lat="42.77829157" lon="13.47337743">
        <ele>778.00000</ele>
        <time>2024-02-16T13:26:23Z</time>
      </trkpt>
      <trkpt lat="42.77837036" lon="13.47345706">
        <ele>779.00000</ele>
        <time>2024-02-16T13:26:24Z</time>
      </trkpt>
      <trkpt lat="42.77845082" lon="13.47353358">
        <ele>780.00000</ele>
        <time>2024-02-16T13:26:25Z</time>
      </trkpt>
      <trkpt lat="42.77852869" lon="13.47360131">
        <ele>780.00000</ele>
        <time>2024-02-16T13:26:26Z</time>
      </trkpt>
      <trkpt lat="42.77862181" lon="13.47367951">
        <ele>779.00000</ele>
        <time>2024-02-16T13:26:27Z</time>
      </trkpt>
      <trkpt lat="42.77868753" lon="13.47372813">
        <ele>779.00000</ele>
        <time>2024-02-16T13:26:28Z</time>
      </trkpt>
      <trkpt lat="42.77877688" lon="13.47377657">
        <ele>779.00000</ele>
        <time>2024-02-16T13:26:29Z</time>
      </trkpt>
      <trkpt lat="42.77887168" lon="13.47380734">
        <ele>779.00000</ele>
        <time>2024-02-16T13:26:30Z</time>
      </trkpt>
      <trkpt lat="42.77896472" lon="13.47382846">
        <ele>781.00000</ele>
        <time>2024-02-16T13:26:31Z</time>
      </trkpt>
      <trkpt lat="42.77905591" lon="13.47384966">
        <ele>783.00000</ele>
        <time>2024-02-16T13:26:32Z</time>
      </trkpt>
      <trkpt lat="42.77914853" lon="13.47386157">
        <ele>785.00000</ele>
        <time>2024-02-16T13:26:33Z</time>
      </trkpt>
      <trkpt lat="42.77924124" lon="13.47387556">
        <ele>787.00000</ele>
        <time>2024-02-16T13:26:34Z</time>
      </trkpt>
      <trkpt lat="42.77933235" lon="13.47388344">
        <ele>789.00000</ele>
        <time>2024-02-16T13:26:35Z</time>
      </trkpt>
      <trkpt lat="42.77942136" lon="13.47388814">
        <ele>792.00000</ele>
        <time>2024-02-16T13:26:36Z</time>
      </trkpt>
      <trkpt lat="42.77950669" lon="13.47390029">
        <ele>794.00000</ele>
        <time>2024-02-16T13:26:37Z</time>
      </trkpt>
      <trkpt lat="42.77960216" lon="13.47393130">
        <ele>795.00000</ele>
        <time>2024-02-16T13:26:38Z</time>
      </trkpt>
      <trkpt lat="42.77966595" lon="13.47396374">
        <ele>795.00000</ele>
        <time>2024-02-16T13:26:39Z</time>
      </trkpt>
      <trkpt lat="42.77974088" lon="13.47401236">
        <ele>795.00000</ele>
        <time>2024-02-16T13:26:40Z</time>
      </trkpt>
      <trkpt lat="42.77982504" lon="13.47405259">
        <ele>795.00000</ele>
        <time>2024-02-16T13:26:41Z</time>
      </trkpt>
      <trkpt lat="42.77990810" lon="13.47409014">
        <ele>796.00000</ele>
        <time>2024-02-16T13:26:42Z</time>
      </trkpt>
      <trkpt lat="42.77999016" lon="13.47414404">
        <ele>797.00000</ele>
        <time>2024-02-16T13:26:43Z</time>
      </trkpt>
      <trkpt lat="42.78006568" lon="13.47423733">
        <ele>794.00000</ele>
        <time>2024-02-16T13:26:44Z</time>
      </trkpt>
      <trkpt lat="42.78013659" lon="13.47434369">
        <ele>790.00000</ele>
        <time>2024-02-16T13:26:45Z</time>
      </trkpt>
      <trkpt lat="42.78022770" lon="13.47447252">
        <ele>787.00000</ele>
        <time>2024-02-16T13:26:46Z</time>
      </trkpt>
      <trkpt lat="42.78029560" lon="13.47458635">
        <ele>782.00000</ele>
        <time>2024-02-16T13:26:47Z</time>
      </trkpt>
      <trkpt lat="42.78037053" lon="13.47470311">
        <ele>779.00000</ele>
        <time>2024-02-16T13:26:48Z</time>
      </trkpt>
      <trkpt lat="42.78044069" lon="13.47481903">
        <ele>775.00000</ele>
        <time>2024-02-16T13:26:49Z</time>
      </trkpt>
      <trkpt lat="42.78049902" lon="13.47494300">
        <ele>771.00000</ele>
        <time>2024-02-16T13:26:50Z</time>
      </trkpt>
      <trkpt lat="42.78054186" lon="13.47508373">
        <ele>767.00000</ele>
        <time>2024-02-16T13:26:51Z</time>
      </trkpt>
      <trkpt lat="42.78058410" lon="13.47522891">
        <ele>762.00000</ele>
        <time>2024-02-16T13:26:52Z</time>
      </trkpt>
      <trkpt lat="42.78063339" lon="13.47535849">
        <ele>757.00000</ele>
        <time>2024-02-16T13:26:53Z</time>
      </trkpt>
      <trkpt lat="42.78067119" lon="13.47545715">
        <ele>754.00000</ele>
        <time>2024-02-16T13:26:54Z</time>
      </trkpt>
      <trkpt lat="42.78072366" lon="13.47558329">
        <ele>750.00000</ele>
        <time>2024-02-16T13:26:55Z</time>
      </trkpt>
      <trkpt lat="42.78076264" lon="13.47567155">
        <ele>748.00000</ele>
        <time>2024-02-16T13:26:56Z</time>
      </trkpt>
      <trkpt lat="42.78080840" lon="13.47572788">
        <ele>747.00000</ele>
        <time>2024-02-16T13:26:57Z</time>
      </trkpt>
      <trkpt lat="42.78087353" lon="13.47573501">
        <ele>746.00000</ele>
        <time>2024-02-16T13:26:58Z</time>
      </trkpt>
      <trkpt lat="42.78094218" lon="13.47570424">
        <ele>745.00000</ele>
        <time>2024-02-16T13:26:59Z</time>
      </trkpt>
      <trkpt lat="42.78098140" lon="13.47564171">
        <ele>745.00000</ele>
        <time>2024-02-16T13:27:00Z</time>
      </trkpt>
      <trkpt lat="42.78100973" lon="13.47554977">
        <ele>747.00000</ele>
        <time>2024-02-16T13:27:01Z</time>
      </trkpt>
      <trkpt lat="42.78104444" lon="13.47543099">
        <ele>750.00000</ele>
        <time>2024-02-16T13:27:02Z</time>
      </trkpt>
      <trkpt lat="42.78107411" lon="13.47535128">
        <ele>752.00000</ele>
        <time>2024-02-16T13:27:03Z</time>
      </trkpt>
      <trkpt lat="42.78111769" lon="13.47525715">
        <ele>754.00000</ele>
        <time>2024-02-16T13:27:04Z</time>
      </trkpt>
      <trkpt lat="42.78116874" lon="13.47516361">
        <ele>756.00000</ele>
        <time>2024-02-16T13:27:05Z</time>
      </trkpt>
      <trkpt lat="42.78122657" lon="13.47506638">
        <ele>757.00000</ele>
        <time>2024-02-16T13:27:06Z</time>
      </trkpt>
      <trkpt lat="42.78129095" lon="13.47497049">
        <ele>758.00000</ele>
        <time>2024-02-16T13:27:07Z</time>
      </trkpt>
      <trkpt lat="42.78137032" lon="13.47488441">
        <ele>758.00000</ele>
        <time>2024-02-16T13:27:08Z</time>
      </trkpt>
      <trkpt lat="42.78146227" lon="13.47482046">
        <ele>758.00000</ele>
        <time>2024-02-16T13:27:09Z</time>
      </trkpt>
      <trkpt lat="42.78156302" lon="13.47477444">
        <ele>758.00000</ele>
        <time>2024-02-16T13:27:10Z</time>
      </trkpt>
      <trkpt lat="42.78166964" lon="13.47474326">
        <ele>756.00000</ele>
        <time>2024-02-16T13:27:11Z</time>
      </trkpt>
      <trkpt lat="42.78177592" lon="13.47473387">
        <ele>753.00000</ele>
        <time>2024-02-16T13:27:12Z</time>
      </trkpt>
      <trkpt lat="42.78190098" lon="13.47474175">
        <ele>748.00000</ele>
        <time>2024-02-16T13:27:13Z</time>
      </trkpt>
      <trkpt lat="42.78198597" lon="13.47475172">
        <ele>745.00000</ele>
        <time>2024-02-16T13:27:14Z</time>
      </trkpt>
      <trkpt lat="42.78208941" lon="13.47477159">
        <ele>742.00000</ele>
        <time>2024-02-16T13:27:15Z</time>
      </trkpt>
      <trkpt lat="42.78219661" lon="13.47479808">
        <ele>740.00000</ele>
        <time>2024-02-16T13:27:16Z</time>
      </trkpt>
      <trkpt lat="42.78230826" lon="13.47482741">
        <ele>739.00000</ele>
        <time>2024-02-16T13:27:17Z</time>
      </trkpt>
      <trkpt lat="42.78241764" lon="13.47486387">
        <ele>739.00000</ele>
        <time>2024-02-16T13:27:18Z</time>
      </trkpt>
      <trkpt lat="42.78252636" lon="13.47490780">
        <ele>739.00000</ele>
        <time>2024-02-16T13:27:19Z</time>
      </trkpt>
      <trkpt lat="42.78263113" lon="13.47495834">
        <ele>740.00000</ele>
        <time>2024-02-16T13:27:20Z</time>
      </trkpt>
      <trkpt lat="42.78273481" lon="13.47502179">
        <ele>741.00000</ele>
        <time>2024-02-16T13:27:21Z</time>
      </trkpt>
      <trkpt lat="42.78283967" lon="13.47507845">
        <ele>740.00000</ele>
        <time>2024-02-16T13:27:22Z</time>
      </trkpt>
      <trkpt lat="42.78294654" lon="13.47512874">
        <ele>738.00000</ele>
        <time>2024-02-16T13:27:23Z</time>
      </trkpt>
      <trkpt lat="42.78305324" lon="13.47517199">
        <ele>737.00000</ele>
        <time>2024-02-16T13:27:24Z</time>
      </trkpt>
      <trkpt lat="42.78314653" lon="13.47520099">
        <ele>735.00000</ele>
        <time>2024-02-16T13:27:25Z</time>
      </trkpt>
      <trkpt lat="42.78322717" lon="13.47522228">
        <ele>733.00000</ele>
        <time>2024-02-16T13:27:26Z</time>
      </trkpt>
      <trkpt lat="42.78329062" lon="13.47524617">
        <ele>731.00000</ele>
        <time>2024-02-16T13:27:27Z</time>
      </trkpt>
      <trkpt lat="42.78333295" lon="13.47529018">
        <ele>729.00000</ele>
        <time>2024-02-16T13:27:28Z</time>
      </trkpt>
      <trkpt lat="42.78332389" lon="13.47532605">
        <ele>727.00000</ele>
        <time>2024-02-16T13:27:29Z</time>
      </trkpt>
      <trkpt lat="42.78329037" lon="13.47535212">
        <ele>726.00000</ele>
        <time>2024-02-16T13:27:30Z</time>
      </trkpt>
      <trkpt lat="42.78324058" lon="13.47535002">
        <ele>727.00000</ele>
        <time>2024-02-16T13:27:31Z</time>
      </trkpt>
      <trkpt lat="42.78318542" lon="13.47532840">
        <ele>729.00000</ele>
        <time>2024-02-16T13:27:32Z</time>
      </trkpt>
      <trkpt lat="42.78312080" lon="13.47529973">
        <ele>731.00000</ele>
        <time>2024-02-16T13:27:33Z</time>
      </trkpt>
      <trkpt lat="42.78304989" lon="13.47527316">
        <ele>733.00000</ele>
        <time>2024-02-16T13:27:34Z</time>
      </trkpt>
      <trkpt lat="42.78297470" lon="13.47524986">
        <ele>733.00000</ele>
        <time>2024-02-16T13:27:35Z</time>
      </trkpt>
      <trkpt lat="42.78289264" lon="13.47522765">
        <ele>734.00000</ele>
        <time>2024-02-16T13:27:36Z</time>
      </trkpt>
      <trkpt lat="42.78279089" lon="13.47520577">
        <ele>734.00000</ele>
        <time>2024-02-16T13:27:37Z</time>
      </trkpt>
      <trkpt lat="42.78271880" lon="13.47518985">
        <ele>734.00000</ele>
        <time>2024-02-16T13:27:38Z</time>
      </trkpt>
      <trkpt lat="42.78263222" lon="13.47517325">
        <ele>732.00000</ele>
        <time>2024-02-16T13:27:39Z</time>
      </trkpt>
      <trkpt lat="42.78253809" lon="13.47515800">
        <ele>731.00000</ele>
        <time>2024-02-16T13:27:40Z</time>
      </trkpt>
      <trkpt lat="42.78244413" lon="13.47514375">
        <ele>731.00000</ele>
        <time>2024-02-16T13:27:41Z</time>
      </trkpt>
      <trkpt lat="42.78233366" lon="13.47513453">
        <ele>731.00000</ele>
        <time>2024-02-16T13:27:42Z</time>
      </trkpt>
      <trkpt lat="42.78224422" lon="13.47513210">
        <ele>731.00000</ele>
        <time>2024-02-16T13:27:43Z</time>
      </trkpt>
      <trkpt lat="42.78214255" lon="13.47513084">
        <ele>732.00000</ele>
        <time>2024-02-16T13:27:44Z</time>
      </trkpt>
      <trkpt lat="42.78204591" lon="13.47513536">
        <ele>735.00000</ele>
        <time>2024-02-16T13:27:45Z</time>
      </trkpt>
      <trkpt lat="42.78194583" lon="13.47515028">
        <ele>737.00000</ele>
        <time>2024-02-16T13:27:46Z</time>
      </trkpt>
      <trkpt lat="42.78182898" lon="13.47518473">
        <ele>738.00000</ele>
        <time>2024-02-16T13:27:47Z</time>
      </trkpt>
      <trkpt lat="42.78175505" lon="13.47521767">
        <ele>739.00000</ele>
        <time>2024-02-16T13:27:48Z</time>
      </trkpt>
      <trkpt lat="42.78167249" lon="13.47526847">
        <ele>739.00000</ele>
        <time>2024-02-16T13:27:49Z</time>
      </trkpt>
      <trkpt lat="42.78158700" lon="13.47535924">
        <ele>738.00000</ele>
        <time>2024-02-16T13:27:50Z</time>
      </trkpt>
      <trkpt lat="42.78152405" lon="13.47546452">
        <ele>737.00000</ele>
        <time>2024-02-16T13:27:51Z</time>
      </trkpt>
      <trkpt lat="42.78146781" lon="13.47558589">
        <ele>734.00000</ele>
        <time>2024-02-16T13:27:52Z</time>
      </trkpt>
      <trkpt lat="42.78143109" lon="13.47569678">
        <ele>730.00000</ele>
        <time>2024-02-16T13:27:53Z</time>
      </trkpt>
      <trkpt lat="42.78139522" lon="13.47585286">
        <ele>724.00000</ele>
        <time>2024-02-16T13:27:54Z</time>
      </trkpt>
      <trkpt lat="42.78135348" lon="13.47603265">
        <ele>723.00000</ele>
        <time>2024-02-16T13:27:55Z</time>
      </trkpt>
      <trkpt lat="42.78131945" lon="13.47618788">
        <ele>723.00000</ele>
        <time>2024-02-16T13:27:56Z</time>
      </trkpt>
      <trkpt lat="42.78128776" lon="13.47634923">
        <ele>722.00000</ele>
        <time>2024-02-16T13:27:57Z</time>
      </trkpt>
      <trkpt lat="42.78127024" lon="13.47648435">
        <ele>721.00000</ele>
        <time>2024-02-16T13:27:58Z</time>
      </trkpt>
      <trkpt lat="42.78125490" lon="13.47666070">
        <ele>718.00000</ele>
        <time>2024-02-16T13:27:59Z</time>
      </trkpt>
      <trkpt lat="42.78124141" lon="13.47683354">
        <ele>718.00000</ele>
        <time>2024-02-16T13:28:00Z</time>
      </trkpt>
      <trkpt lat="42.78123672" lon="13.47703252">
        <ele>716.00000</ele>
        <time>2024-02-16T13:28:01Z</time>
      </trkpt>
      <trkpt lat="42.78122699" lon="13.47717971">
        <ele>712.00000</ele>
        <time>2024-02-16T13:28:02Z</time>
      </trkpt>
      <trkpt lat="42.78119271" lon="13.47726847">
        <ele>710.00000</ele>
        <time>2024-02-16T13:28:03Z</time>
      </trkpt>
      <trkpt lat="42.78116513" lon="13.47736361">
        <ele>708.00000</ele>
        <time>2024-02-16T13:28:04Z</time>
      </trkpt>
      <trkpt lat="42.78115139" lon="13.47745271">
        <ele>705.00000</ele>
        <time>2024-02-16T13:28:05Z</time>
      </trkpt>
      <trkpt lat="42.78118534" lon="13.47752312">
        <ele>702.00000</ele>
        <time>2024-02-16T13:28:06Z</time>
      </trkpt>
      <trkpt lat="42.78123906" lon="13.47755933">
        <ele>700.00000</ele>
        <time>2024-02-16T13:28:07Z</time>
      </trkpt>
      <trkpt lat="42.78129941" lon="13.47754231">
        <ele>700.00000</ele>
        <time>2024-02-16T13:28:08Z</time>
      </trkpt>
      <trkpt lat="42.78133328" lon="13.47745791">
        <ele>702.00000</ele>
        <time>2024-02-16T13:28:09Z</time>
      </trkpt>
      <trkpt lat="42.78136613" lon="13.47734333">
        <ele>705.00000</ele>
        <time>2024-02-16T13:28:10Z</time>
      </trkpt>
      <trkpt lat="42.78138876" lon="13.47722631">
        <ele>708.00000</ele>
        <time>2024-02-16T13:28:11Z</time>
      </trkpt>
      <trkpt lat="42.78141601" lon="13.47709732">
        <ele>709.00000</ele>
        <time>2024-02-16T13:28:12Z</time>
      </trkpt>
      <trkpt lat="42.78144400" lon="13.47698793">
        <ele>709.00000</ele>
        <time>2024-02-16T13:28:13Z</time>
      </trkpt>
      <trkpt lat="42.78147610" lon="13.47684846">
        <ele>708.00000</ele>
        <time>2024-02-16T13:28:14Z</time>
      </trkpt>
      <trkpt lat="42.78151097" lon="13.47670312">
        <ele>706.00000</ele>
        <time>2024-02-16T13:28:15Z</time>
      </trkpt>
      <trkpt lat="42.78155171" lon="13.47655719">
        <ele>705.00000</ele>
        <time>2024-02-16T13:28:16Z</time>
      </trkpt>
      <trkpt lat="42.78159504" lon="13.47640329">
        <ele>703.00000</ele>
        <time>2024-02-16T13:28:17Z</time>
      </trkpt>
      <trkpt lat="42.78164902" lon="13.47625778">
        <ele>703.00000</ele>
        <time>2024-02-16T13:28:18Z</time>
      </trkpt>
      <trkpt lat="42.78170954" lon="13.47613600">
        <ele>705.00000</ele>
        <time>2024-02-16T13:28:19Z</time>
      </trkpt>
      <trkpt lat="42.78179411" lon="13.47602066">
        <ele>709.00000</ele>
        <time>2024-02-16T13:28:20Z</time>
      </trkpt>
      <trkpt lat="42.78186930" lon="13.47596785">
        <ele>711.00000</ele>
        <time>2024-02-16T13:28:21Z</time>
      </trkpt>
      <trkpt lat="42.78196929" lon="13.47593818">
        <ele>711.00000</ele>
        <time>2024-02-16T13:28:22Z</time>
      </trkpt>
      <trkpt lat="42.78206929" lon="13.47594816">
        <ele>709.00000</ele>
        <time>2024-02-16T13:28:23Z</time>
      </trkpt>
      <trkpt lat="42.78217297" lon="13.47599593">
        <ele>705.00000</ele>
        <time>2024-02-16T13:28:24Z</time>
      </trkpt>
      <trkpt lat="42.78229041" lon="13.47606291">
        <ele>701.00000</ele>
        <time>2024-02-16T13:28:25Z</time>
      </trkpt>
      <trkpt lat="42.78240222" lon="13.47612334">
        <ele>698.00000</ele>
        <time>2024-02-16T13:28:26Z</time>
      </trkpt>
      <trkpt lat="42.78251487" lon="13.47619006">
        <ele>695.00000</ele>
        <time>2024-02-16T13:28:27Z</time>
      </trkpt>
      <trkpt lat="42.78262736" lon="13.47625385">
        <ele>689.00000</ele>
        <time>2024-02-16T13:28:28Z</time>
      </trkpt>
      <trkpt lat="42.78275116" lon="13.47632568">
        <ele>683.00000</ele>
        <time>2024-02-16T13:28:29Z</time>
      </trkpt>
      <trkpt lat="42.78287982" lon="13.47638972">
        <ele>678.00000</ele>
        <time>2024-02-16T13:28:30Z</time>
      </trkpt>
      <trkpt lat="42.78302374" lon="13.47645292">
        <ele>676.00000</ele>
        <time>2024-02-16T13:28:31Z</time>
      </trkpt>
      <trkpt lat="42.78319775" lon="13.47651863">
        <ele>672.00000</ele>
        <time>2024-02-16T13:28:32Z</time>
      </trkpt>
      <trkpt lat="42.78333881" lon="13.47655694">
        <ele>669.00000</ele>
        <time>2024-02-16T13:28:33Z</time>
      </trkpt>
      <trkpt lat="42.78349170" lon="13.47659985">
        <ele>669.00000</ele>
        <time>2024-02-16T13:28:34Z</time>
      </trkpt>
      <trkpt lat="42.78364534" lon="13.47664947">
        <ele>670.00000</ele>
        <time>2024-02-16T13:28:35Z</time>
      </trkpt>
      <trkpt lat="42.78379512" lon="13.47670697">
        <ele>672.00000</ele>
        <time>2024-02-16T13:28:36Z</time>
      </trkpt>
      <trkpt lat="42.78394650" lon="13.47678140">
        <ele>673.00000</ele>
        <time>2024-02-16T13:28:37Z</time>
      </trkpt>
      <trkpt lat="42.78406762" lon="13.47686841">
        <ele>669.00000</ele>
        <time>2024-02-16T13:28:38Z</time>
      </trkpt>
      <trkpt lat="42.78424238" lon="13.47700721">
        <ele>662.00000</ele>
        <time>2024-02-16T13:28:39Z</time>
      </trkpt>
      <trkpt lat="42.78437976" lon="13.47712162">
        <ele>656.00000</ele>
        <time>2024-02-16T13:28:40Z</time>
      </trkpt>
      <trkpt lat="42.78450490" lon="13.47722137">
        <ele>651.00000</ele>
        <time>2024-02-16T13:28:41Z</time>
      </trkpt>
      <trkpt lat="42.78459811" lon="13.47728901">
        <ele>651.00000</ele>
        <time>2024-02-16T13:28:42Z</time>
      </trkpt>
      <trkpt lat="42.78469920" lon="13.47733788">
        <ele>652.00000</ele>
        <time>2024-02-16T13:28:43Z</time>
      </trkpt>
      <trkpt lat="42.78479148" lon="13.47734525">
        <ele>652.00000</ele>
        <time>2024-02-16T13:28:44Z</time>
      </trkpt>
      <trkpt lat="42.78488108" lon="13.47730133">
        <ele>652.00000</ele>
        <time>2024-02-16T13:28:45Z</time>
      </trkpt>
      <trkpt lat="42.78493221" lon="13.47721466">
        <ele>652.00000</ele>
        <time>2024-02-16T13:28:46Z</time>
      </trkpt>
      <trkpt lat="42.78495099" lon="13.47710788">
        <ele>652.00000</ele>
        <time>2024-02-16T13:28:47Z</time>
      </trkpt>
      <trkpt lat="42.78493976" lon="13.47701274">
        <ele>652.00000</ele>
        <time>2024-02-16T13:28:48Z</time>
      </trkpt>
      <trkpt lat="42.78492853" lon="13.47689473">
        <ele>653.00000</ele>
        <time>2024-02-16T13:28:49Z</time>
      </trkpt>
      <trkpt lat="42.78492123" lon="13.47675274">
        <ele>655.00000</ele>
        <time>2024-02-16T13:28:50Z</time>
      </trkpt>
      <trkpt lat="42.78491629" lon="13.47663204">
        <ele>657.00000</ele>
        <time>2024-02-16T13:28:51Z</time>
      </trkpt>
      <trkpt lat="42.78490497" lon="13.47652927">
        <ele>659.00000</ele>
        <time>2024-02-16T13:28:52Z</time>
      </trkpt>
      <trkpt lat="42.78489558" lon="13.47639969">
        <ele>660.00000</ele>
        <time>2024-02-16T13:28:53Z</time>
      </trkpt>
      <trkpt lat="42.78488997" lon="13.47627036">
        <ele>662.00000</ele>
        <time>2024-02-16T13:28:54Z</time>
      </trkpt>
      <trkpt lat="42.78488821" lon="13.47614974">
        <ele>664.00000</ele>
        <time>2024-02-16T13:28:55Z</time>
      </trkpt>
      <trkpt lat="42.78489701" lon="13.47604304">
        <ele>665.00000</ele>
        <time>2024-02-16T13:28:56Z</time>
      </trkpt>
      <trkpt lat="42.78492819" lon="13.47595662">
        <ele>665.00000</ele>
        <time>2024-02-16T13:28:57Z</time>
      </trkpt>
      <trkpt lat="42.78498091" lon="13.47589066">
        <ele>665.00000</ele>
        <time>2024-02-16T13:28:58Z</time>
      </trkpt>
      <trkpt lat="42.78506171" lon="13.47588278">
        <ele>665.00000</ele>
        <time>2024-02-16T13:28:59Z</time>
      </trkpt>
      <trkpt lat="42.78515509" lon="13.47595872">
        <ele>664.00000</ele>
        <time>2024-02-16T13:29:00Z</time>
      </trkpt>
      <trkpt lat="42.78521284" lon="13.47604732">
        <ele>663.00000</ele>
        <time>2024-02-16T13:29:01Z</time>
      </trkpt>
      <trkpt lat="42.78527579" lon="13.47613566">
        <ele>662.00000</ele>
        <time>2024-02-16T13:29:02Z</time>
      </trkpt>
      <trkpt lat="42.78532801" lon="13.47621420">
        <ele>660.00000</ele>
        <time>2024-02-16T13:29:03Z</time>
      </trkpt>
      <trkpt lat="42.78539397" lon="13.47631755">
        <ele>658.00000</ele>
        <time>2024-02-16T13:29:04Z</time>
      </trkpt>
      <trkpt lat="42.78548743" lon="13.47643548">
        <ele>655.00000</ele>
        <time>2024-02-16T13:29:05Z</time>
      </trkpt>
      <trkpt lat="42.78557016" lon="13.47654336">
        <ele>652.00000</ele>
        <time>2024-02-16T13:29:06Z</time>
      </trkpt>
      <trkpt lat="42.78563638" lon="13.47663774">
        <ele>650.00000</ele>
        <time>2024-02-16T13:29:07Z</time>
      </trkpt>
      <trkpt lat="42.78570980" lon="13.47675626">
        <ele>648.00000</ele>
        <time>2024-02-16T13:29:08Z</time>
      </trkpt>
      <trkpt lat="42.78578449" lon="13.47688341">
        <ele>645.00000</ele>
        <time>2024-02-16T13:29:09Z</time>
      </trkpt>
      <trkpt lat="42.78586093" lon="13.47700243">
        <ele>644.00000</ele>
        <time>2024-02-16T13:29:10Z</time>
      </trkpt>
      <trkpt lat="42.78593318" lon="13.47712657">
        <ele>644.00000</ele>
        <time>2024-02-16T13:29:11Z</time>
      </trkpt>
      <trkpt lat="42.78600376" lon="13.47723905">
        <ele>643.00000</ele>
        <time>2024-02-16T13:29:12Z</time>
      </trkpt>
      <trkpt lat="42.78605975" lon="13.47733276">
        <ele>642.00000</ele>
        <time>2024-02-16T13:29:13Z</time>
      </trkpt>
      <trkpt lat="42.78611398" lon="13.47742094">
        <ele>640.00000</ele>
        <time>2024-02-16T13:29:14Z</time>
      </trkpt>
      <trkpt lat="42.78617701" lon="13.47750987">
        <ele>639.00000</ele>
        <time>2024-02-16T13:29:15Z</time>
      </trkpt>
      <trkpt lat="42.78621205" lon="13.47755220">
        <ele>638.00000</ele>
        <time>2024-02-16T13:29:16Z</time>
      </trkpt>
      <trkpt lat="42.78623610" lon="13.47760090">
        <ele>638.00000</ele>
        <time>2024-02-16T13:29:17Z</time>
      </trkpt>
      <trkpt lat="42.78623635" lon="13.47766452">
        <ele>637.00000</ele>
        <time>2024-02-16T13:29:18Z</time>
      </trkpt>
      <trkpt lat="42.78620492" lon="13.47771288">
        <ele>635.00000</ele>
        <time>2024-02-16T13:29:19Z</time>
      </trkpt>
      <trkpt lat="42.78615471" lon="13.47772479">
        <ele>635.00000</ele>
        <time>2024-02-16T13:29:20Z</time>
      </trkpt>
      <trkpt lat="42.78609889" lon="13.47768254">
        <ele>635.00000</ele>
        <time>2024-02-16T13:29:21Z</time>
      </trkpt>
      <trkpt lat="42.78606126" lon="13.47764709">
        <ele>635.00000</ele>
        <time>2024-02-16T13:29:22Z</time>
      </trkpt>
      <trkpt lat="42.78603720" lon="13.47763502">
        <ele>635.00000</ele>
        <time>2024-02-16T13:29:23Z</time>
      </trkpt>
      <trkpt lat="42.78602220" lon="13.47763158">
        <ele>635.00000</ele>
        <time>2024-02-16T13:29:24Z</time>
      </trkpt>
      <trkpt lat="42.78600803" lon="13.47762462">
        <ele>635.00000</ele>
        <time>2024-02-16T13:29:25Z</time>
      </trkpt>
      <trkpt lat="42.78599211" lon="13.47761674">
        <ele>634.00000</ele>
        <time>2024-02-16T13:29:26Z</time>
      </trkpt>
      <trkpt lat="42.78597777" lon="13.47761322">
        <ele>634.00000</ele>
        <time>2024-02-16T13:29:27Z</time>
      </trkpt>
      <trkpt lat="42.78597266" lon="13.47762127">
        <ele>634.00000</ele>
        <time>2024-02-16T13:29:28Z</time>
      </trkpt>
      <trkpt lat="42.78597383" lon="13.47763845">
        <ele>634.00000</ele>
        <time>2024-02-16T13:29:29Z</time>
      </trkpt>
      <trkpt lat="42.78598247" lon="13.47766469">
        <ele>634.00000</ele>
        <time>2024-02-16T13:29:30Z</time>
      </trkpt>
      <trkpt lat="42.78599780" lon="13.47770123">
        <ele>634.00000</ele>
        <time>2024-02-16T13:29:31Z</time>
      </trkpt>
      <trkpt lat="42.78601641" lon="13.47774113">
        <ele>633.00000</ele>
        <time>2024-02-16T13:29:32Z</time>
      </trkpt>
      <trkpt lat="42.78603527" lon="13.47777013">
        <ele>633.00000</ele>
        <time>2024-02-16T13:29:33Z</time>
      </trkpt>
      <trkpt lat="42.78604005" lon="13.47779000">
        <ele>633.00000</ele>
        <time>2024-02-16T13:29:34Z</time>
      </trkpt>
      <trkpt lat="42.78603100" lon="13.47780944">
        <ele>633.00000</ele>
        <time>2024-02-16T13:29:35Z</time>
      </trkpt>
      <trkpt lat="42.78601893" lon="13.47781456">
        <ele>633.00000</ele>
        <time>2024-02-16T13:29:36Z</time>
      </trkpt>
      <trkpt lat="42.78600585" lon="13.47781313">
        <ele>632.00000</ele>
        <time>2024-02-16T13:29:37Z</time>
      </trkpt>
      <trkpt lat="42.78599252" lon="13.47782646">
        <ele>632.00000</ele>
        <time>2024-02-16T13:29:38Z</time>
      </trkpt>
      <trkpt lat="42.78599445" lon="13.47785797">
        <ele>632.00000</ele>
        <time>2024-02-16T13:29:39Z</time>
      </trkpt>
      <trkpt lat="42.78601717" lon="13.47790215">
        <ele>632.00000</ele>
        <time>2024-02-16T13:29:40Z</time>
      </trkpt>
      <trkpt lat="42.78605304" lon="13.47796585">
        <ele>632.00000</ele>
        <time>2024-02-16T13:29:41Z</time>
      </trkpt>
      <trkpt lat="42.78609244" lon="13.47804439">
        <ele>631.00000</ele>
        <time>2024-02-16T13:29:42Z</time>
      </trkpt>
      <trkpt lat="42.78613636" lon="13.47813315">
        <ele>631.00000</ele>
        <time>2024-02-16T13:29:43Z</time>
      </trkpt>
      <trkpt lat="42.78618589" lon="13.47823072">
        <ele>631.00000</ele>
        <time>2024-02-16T13:29:44Z</time>
      </trkpt>
      <trkpt lat="42.78624004" lon="13.47833038">
        <ele>630.00000</ele>
        <time>2024-02-16T13:29:45Z</time>
      </trkpt>
      <trkpt lat="42.78629964" lon="13.47843121">
        <ele>627.00000</ele>
        <time>2024-02-16T13:29:46Z</time>
      </trkpt>
      <trkpt lat="42.78636535" lon="13.47852802">
        <ele>625.00000</ele>
        <time>2024-02-16T13:29:47Z</time>
      </trkpt>
      <trkpt lat="42.78643517" lon="13.47862341">
        <ele>624.00000</ele>
        <time>2024-02-16T13:29:48Z</time>
      </trkpt>
      <trkpt lat="42.78650910" lon="13.47870949">
        <ele>623.00000</ele>
        <time>2024-02-16T13:29:49Z</time>
      </trkpt>
      <trkpt lat="42.78658672" lon="13.47879155">
        <ele>623.00000</ele>
        <time>2024-02-16T13:29:50Z</time>
      </trkpt>
      <trkpt lat="42.78667288" lon="13.47885869">
        <ele>623.00000</ele>
        <time>2024-02-16T13:29:51Z</time>
      </trkpt>
      <trkpt lat="42.78676718" lon="13.47889875">
        <ele>624.00000</ele>
        <time>2024-02-16T13:29:52Z</time>
      </trkpt>
      <trkpt lat="42.78686324" lon="13.47892466">
        <ele>625.00000</ele>
        <time>2024-02-16T13:29:53Z</time>
      </trkpt>
      <trkpt lat="42.78696382" lon="13.47896078">
        <ele>626.00000</ele>
        <time>2024-02-16T13:29:54Z</time>
      </trkpt>
      <trkpt lat="42.78705627" lon="13.47902574">
        <ele>626.00000</ele>
        <time>2024-02-16T13:29:55Z</time>
      </trkpt>
      <trkpt lat="42.78713095" lon="13.47912968">
        <ele>626.00000</ele>
        <time>2024-02-16T13:29:56Z</time>
      </trkpt>
      <trkpt lat="42.78719030" lon="13.47925742">
        <ele>625.00000</ele>
        <time>2024-02-16T13:29:57Z</time>
      </trkpt>
      <trkpt lat="42.78723481" lon="13.47939387">
        <ele>624.00000</ele>
        <time>2024-02-16T13:29:58Z</time>
      </trkpt>
      <trkpt lat="42.78727789" lon="13.47952170">
        <ele>622.00000</ele>
        <time>2024-02-16T13:29:59Z</time>
      </trkpt>
      <trkpt lat="42.78733681" lon="13.47962438">
        <ele>622.00000</ele>
        <time>2024-02-16T13:30:00Z</time>
      </trkpt>
      <trkpt lat="42.78740596" lon="13.47970166">
        <ele>622.00000</ele>
        <time>2024-02-16T13:30:01Z</time>
      </trkpt>
      <trkpt lat="42.78748517" lon="13.47974415">
        <ele>622.00000</ele>
        <time>2024-02-16T13:30:02Z</time>
      </trkpt>
      <trkpt lat="42.78757075" lon="13.47975949">
        <ele>624.00000</ele>
        <time>2024-02-16T13:30:03Z</time>
      </trkpt>
      <trkpt lat="42.78766144" lon="13.47976888">
        <ele>625.00000</ele>
        <time>2024-02-16T13:30:04Z</time>
      </trkpt>
      <trkpt lat="42.78774845" lon="13.47978791">
        <ele>626.00000</ele>
        <time>2024-02-16T13:30:05Z</time>
      </trkpt>
      <trkpt lat="42.78783537" lon="13.47981372">
        <ele>627.00000</ele>
        <time>2024-02-16T13:30:06Z</time>
      </trkpt>
      <trkpt lat="42.78792187" lon="13.47983786">
        <ele>628.00000</ele>
        <time>2024-02-16T13:30:07Z</time>
      </trkpt>
      <trkpt lat="42.78800879" lon="13.47986293">
        <ele>629.00000</ele>
        <time>2024-02-16T13:30:08Z</time>
      </trkpt>
      <trkpt lat="42.78809135" lon="13.47990090">
        <ele>630.00000</ele>
        <time>2024-02-16T13:30:09Z</time>
      </trkpt>
      <trkpt lat="42.78814818" lon="13.47996845">
        <ele>628.00000</ele>
        <time>2024-02-16T13:30:10Z</time>
      </trkpt>
      <trkpt lat="42.78818221" lon="13.48006107">
        <ele>626.00000</ele>
        <time>2024-02-16T13:30:11Z</time>
      </trkpt>
      <trkpt lat="42.78820099" lon="13.48017138">
        <ele>624.00000</ele>
        <time>2024-02-16T13:30:12Z</time>
      </trkpt>
      <trkpt lat="42.78817802" lon="13.48027775">
        <ele>620.00000</ele>
        <time>2024-02-16T13:30:13Z</time>
      </trkpt>
      <trkpt lat="42.78813586" lon="13.48037757">
        <ele>615.00000</ele>
        <time>2024-02-16T13:30:14Z</time>
      </trkpt>
      <trkpt lat="42.78811348" lon="13.48047254">
        <ele>612.00000</ele>
        <time>2024-02-16T13:30:15Z</time>
      </trkpt>
      <trkpt lat="42.78812312" lon="13.48057036">
        <ele>610.00000</ele>
        <time>2024-02-16T13:30:16Z</time>
      </trkpt>
      <trkpt lat="42.78816193" lon="13.48065577">
        <ele>609.00000</ele>
        <time>2024-02-16T13:30:17Z</time>
      </trkpt>
      <trkpt lat="42.78822236" lon="13.48070782">
        <ele>611.00000</ele>
        <time>2024-02-16T13:30:18Z</time>
      </trkpt>
      <trkpt lat="42.78828875" lon="13.48073858">
        <ele>614.00000</ele>
        <time>2024-02-16T13:30:19Z</time>
      </trkpt>
      <trkpt lat="42.78836217" lon="13.48077563">
        <ele>618.00000</ele>
        <time>2024-02-16T13:30:20Z</time>
      </trkpt>
      <trkpt lat="42.78843132" lon="13.48082609">
        <ele>621.00000</ele>
        <time>2024-02-16T13:30:21Z</time>
      </trkpt>
      <trkpt lat="42.78849788" lon="13.48088761">
        <ele>622.00000</ele>
        <time>2024-02-16T13:30:22Z</time>
      </trkpt>
      <trkpt lat="42.78856133" lon="13.48094880">
        <ele>624.00000</ele>
        <time>2024-02-16T13:30:23Z</time>
      </trkpt>
      <trkpt lat="42.78861690" lon="13.48101912">
        <ele>625.00000</ele>
        <time>2024-02-16T13:30:24Z</time>
      </trkpt>
      <trkpt lat="42.78865914" lon="13.48110605">
        <ele>624.00000</ele>
        <time>2024-02-16T13:30:25Z</time>
      </trkpt>
      <trkpt lat="42.78869099" lon="13.48120638">
        <ele>621.00000</ele>
        <time>2024-02-16T13:30:26Z</time>
      </trkpt>
      <trkpt lat="42.78871539" lon="13.48131710">
        <ele>616.00000</ele>
        <time>2024-02-16T13:30:27Z</time>
      </trkpt>
      <trkpt lat="42.78872922" lon="13.48142481">
        <ele>612.00000</ele>
        <time>2024-02-16T13:30:28Z</time>
      </trkpt>
      <trkpt lat="42.78873047" lon="13.48153461">
        <ele>606.00000</ele>
        <time>2024-02-16T13:30:29Z</time>
      </trkpt>
      <trkpt lat="42.78873542" lon="13.48164098">
        <ele>600.00000</ele>
        <time>2024-02-16T13:30:30Z</time>
      </trkpt>
      <trkpt lat="42.78875830" lon="13.48173838">
        <ele>597.00000</ele>
        <time>2024-02-16T13:30:31Z</time>
      </trkpt>
      <trkpt lat="42.78879778" lon="13.48182236">
        <ele>596.00000</ele>
        <time>2024-02-16T13:30:32Z</time>
      </trkpt>
      <trkpt lat="42.78885142" lon="13.48189805">
        <ele>595.00000</ele>
        <time>2024-02-16T13:30:33Z</time>
      </trkpt>
      <trkpt lat="42.78891211" lon="13.48196670">
        <ele>595.00000</ele>
        <time>2024-02-16T13:30:34Z</time>
      </trkpt>
      <trkpt lat="42.78898151" lon="13.48202194">
        <ele>598.00000</ele>
        <time>2024-02-16T13:30:35Z</time>
      </trkpt>
      <trkpt lat="42.78905712" lon="13.48204297">
        <ele>602.00000</ele>
        <time>2024-02-16T13:30:36Z</time>
      </trkpt>
      <trkpt lat="42.78913415" lon="13.48204038">
        <ele>607.00000</ele>
        <time>2024-02-16T13:30:37Z</time>
      </trkpt>
      <trkpt lat="42.78921201" lon="13.48202336">
        <ele>612.00000</ele>
        <time>2024-02-16T13:30:38Z</time>
      </trkpt>
      <trkpt lat="42.78929399" lon="13.48200115">
        <ele>615.00000</ele>
        <time>2024-02-16T13:30:39Z</time>
      </trkpt>
      <trkpt lat="42.78938015" lon="13.48199134">
        <ele>619.00000</ele>
        <time>2024-02-16T13:30:40Z</time>
      </trkpt>
      <trkpt lat="42.78946808" lon="13.48201045">
        <ele>620.00000</ele>
        <time>2024-02-16T13:30:41Z</time>
      </trkpt>
      <trkpt lat="42.78955391" lon="13.48206527">
        <ele>620.00000</ele>
        <time>2024-02-16T13:30:42Z</time>
      </trkpt>
      <trkpt lat="42.78963404" lon="13.48213149">
        <ele>618.00000</ele>
        <time>2024-02-16T13:30:43Z</time>
      </trkpt>
      <trkpt lat="42.78970101" lon="13.48220751">
        <ele>616.00000</ele>
        <time>2024-02-16T13:30:44Z</time>
      </trkpt>
      <trkpt lat="42.78975985" lon="13.48229896">
        <ele>612.00000</ele>
        <time>2024-02-16T13:30:45Z</time>
      </trkpt>
      <trkpt lat="42.78980235" lon="13.48240323">
        <ele>608.00000</ele>
        <time>2024-02-16T13:30:46Z</time>
      </trkpt>
      <trkpt lat="42.78981501" lon="13.48249702">
        <ele>604.00000</ele>
        <time>2024-02-16T13:30:47Z</time>
      </trkpt>
      <trkpt lat="42.78981945" lon="13.48258612">
        <ele>602.00000</ele>
        <time>2024-02-16T13:30:48Z</time>
      </trkpt>
      <trkpt lat="42.78983814" lon="13.48266198">
        <ele>600.00000</ele>
        <time>2024-02-16T13:30:49Z</time>
      </trkpt>
      <trkpt lat="42.78987653" lon="13.48271537">
        <ele>600.00000</ele>
        <time>2024-02-16T13:30:50Z</time>
      </trkpt>
      <trkpt lat="42.78992372" lon="13.48271906">
        <ele>601.00000</ele>
        <time>2024-02-16T13:30:51Z</time>
      </trkpt>
      <trkpt lat="42.78999606" lon="13.48273624">
        <ele>602.00000</ele>
        <time>2024-02-16T13:30:52Z</time>
      </trkpt>
      <trkpt lat="42.79008289" lon="13.48277346">
        <ele>606.00000</ele>
        <time>2024-02-16T13:30:53Z</time>
      </trkpt>
      <trkpt lat="42.79014794" lon="13.48282853">
        <ele>610.00000</ele>
        <time>2024-02-16T13:30:54Z</time>
      </trkpt>
      <trkpt lat="42.79019270" lon="13.48288930">
        <ele>611.00000</ele>
        <time>2024-02-16T13:30:55Z</time>
      </trkpt>
      <trkpt lat="42.79024617" lon="13.48297270">
        <ele>614.00000</ele>
        <time>2024-02-16T13:30:56Z</time>
      </trkpt>
      <trkpt lat="42.79029387" lon="13.48306850">
        <ele>615.00000</ele>
        <time>2024-02-16T13:30:57Z</time>
      </trkpt>
      <trkpt lat="42.79032999" lon="13.48319842">
        <ele>616.00000</ele>
        <time>2024-02-16T13:30:58Z</time>
      </trkpt>
      <trkpt lat="42.79032815" lon="13.48331325">
        <ele>616.00000</ele>
        <time>2024-02-16T13:30:59Z</time>
      </trkpt>
      <trkpt lat="42.79029211" lon="13.48342163">
        <ele>612.00000</ele>
        <time>2024-02-16T13:31:00Z</time>
      </trkpt>
      <trkpt lat="42.79022027" lon="13.48351073">
        <ele>608.00000</ele>
        <time>2024-02-16T13:31:01Z</time>
      </trkpt>
      <trkpt lat="42.79013193" lon="13.48358826">
        <ele>602.00000</ele>
        <time>2024-02-16T13:31:02Z</time>
      </trkpt>
      <trkpt lat="42.79004367" lon="13.48365599">
        <ele>597.00000</ele>
        <time>2024-02-16T13:31:03Z</time>
      </trkpt>
      <trkpt lat="42.78995582" lon="13.48372606">
        <ele>594.00000</ele>
        <time>2024-02-16T13:31:04Z</time>
      </trkpt>
      <trkpt lat="42.78986605" lon="13.48379513">
        <ele>592.00000</ele>
        <time>2024-02-16T13:31:05Z</time>
      </trkpt>
      <trkpt lat="42.78977796" lon="13.48385967">
        <ele>590.00000</ele>
        <time>2024-02-16T13:31:06Z</time>
      </trkpt>
      <trkpt lat="42.78968987" lon="13.48392530">
        <ele>588.00000</ele>
        <time>2024-02-16T13:31:07Z</time>
      </trkpt>
      <trkpt lat="42.78962248" lon="13.48401079">
        <ele>587.00000</ele>
        <time>2024-02-16T13:31:08Z</time>
      </trkpt>
      <trkpt lat="42.78958274" lon="13.48412521">
        <ele>585.00000</ele>
        <time>2024-02-16T13:31:09Z</time>
      </trkpt>
      <trkpt lat="42.78955517" lon="13.48422344">
        <ele>585.00000</ele>
        <time>2024-02-16T13:31:10Z</time>
      </trkpt>
      <trkpt lat="42.78950898" lon="13.48437423">
        <ele>588.00000</ele>
        <time>2024-02-16T13:31:11Z</time>
      </trkpt>
      <trkpt lat="42.78947663" lon="13.48449435">
        <ele>588.00000</ele>
        <time>2024-02-16T13:31:12Z</time>
      </trkpt>
      <trkpt lat="42.78946003" lon="13.48461018">
        <ele>581.00000</ele>
        <time>2024-02-16T13:31:13Z</time>
      </trkpt>
      <trkpt lat="42.78946632" lon="13.48472158">
        <ele>577.00000</ele>
        <time>2024-02-16T13:31:14Z</time>
      </trkpt>
      <trkpt lat="42.78950655" lon="13.48481864">
        <ele>578.00000</ele>
        <time>2024-02-16T13:31:15Z</time>
      </trkpt>
      <trkpt lat="42.78956682" lon="13.48489500">
        <ele>580.00000</ele>
        <time>2024-02-16T13:31:16Z</time>
      </trkpt>
      <trkpt lat="42.78963672" lon="13.48496356">
        <ele>581.00000</ele>
        <time>2024-02-16T13:31:17Z</time>
      </trkpt>
      <trkpt lat="42.78971543" lon="13.48502098">
        <ele>582.00000</ele>
        <time>2024-02-16T13:31:18Z</time>
      </trkpt>
      <trkpt lat="42.78979925" lon="13.48506088">
        <ele>583.00000</ele>
        <time>2024-02-16T13:31:19Z</time>
      </trkpt>
      <trkpt lat="42.78988466" lon="13.48508158">
        <ele>584.00000</ele>
        <time>2024-02-16T13:31:20Z</time>
      </trkpt>
      <trkpt lat="42.78997426" lon="13.48509390">
        <ele>586.00000</ele>
        <time>2024-02-16T13:31:21Z</time>
      </trkpt>
      <trkpt lat="42.79006412" lon="13.48511511">
        <ele>588.00000</ele>
        <time>2024-02-16T13:31:22Z</time>
      </trkpt>
      <trkpt lat="42.79015020" lon="13.48514948">
        <ele>589.00000</ele>
        <time>2024-02-16T13:31:23Z</time>
      </trkpt>
      <trkpt lat="42.79023377" lon="13.48520052">
        <ele>589.00000</ele>
        <time>2024-02-16T13:31:24Z</time>
      </trkpt>
      <trkpt lat="42.79031583" lon="13.48527613">
        <ele>588.00000</ele>
        <time>2024-02-16T13:31:25Z</time>
      </trkpt>
      <trkpt lat="42.79038506" lon="13.48537872">
        <ele>584.00000</ele>
        <time>2024-02-16T13:31:26Z</time>
      </trkpt>
      <trkpt lat="42.79043694" lon="13.48550545">
        <ele>578.00000</ele>
        <time>2024-02-16T13:31:27Z</time>
      </trkpt>
      <trkpt lat="42.79046167" lon="13.48562708">
        <ele>573.00000</ele>
        <time>2024-02-16T13:31:28Z</time>
      </trkpt>
      <trkpt lat="42.79048388" lon="13.48573445">
        <ele>570.00000</ele>
        <time>2024-02-16T13:31:29Z</time>
      </trkpt>
      <trkpt lat="42.79053384" lon="13.48580477">
        <ele>568.00000</ele>
        <time>2024-02-16T13:31:30Z</time>
      </trkpt>
      <trkpt lat="42.79060056" lon="13.48583746">
        <ele>569.00000</ele>
        <time>2024-02-16T13:31:31Z</time>
      </trkpt>
      <trkpt lat="42.79067801" lon="13.48584878">
        <ele>571.00000</ele>
        <time>2024-02-16T13:31:32Z</time>
      </trkpt>
      <trkpt lat="42.79075814" lon="13.48584760">
        <ele>574.00000</ele>
        <time>2024-02-16T13:31:33Z</time>
      </trkpt>
      <trkpt lat="42.79083433" lon="13.48584618">
        <ele>577.00000</ele>
        <time>2024-02-16T13:31:34Z</time>
      </trkpt>
      <trkpt lat="42.79091253" lon="13.48584886">
        <ele>582.00000</ele>
        <time>2024-02-16T13:31:35Z</time>
      </trkpt>
      <trkpt lat="42.79099526" lon="13.48586630">
        <ele>586.00000</ele>
        <time>2024-02-16T13:31:36Z</time>
      </trkpt>
      <trkpt lat="42.79107590" lon="13.48590812">
        <ele>588.00000</ele>
        <time>2024-02-16T13:31:37Z</time>
      </trkpt>
      <trkpt lat="42.79114832" lon="13.48598490">
        <ele>588.00000</ele>
        <time>2024-02-16T13:31:38Z</time>
      </trkpt>
      <trkpt lat="42.79118260" lon="13.48608800">
        <ele>584.00000</ele>
        <time>2024-02-16T13:31:39Z</time>
      </trkpt>
      <trkpt lat="42.79119693" lon="13.48620794">
        <ele>579.00000</ele>
        <time>2024-02-16T13:31:40Z</time>
      </trkpt>
      <trkpt lat="42.79120741" lon="13.48633107">
        <ele>574.00000</ele>
        <time>2024-02-16T13:31:41Z</time>
      </trkpt>
      <trkpt lat="42.79124085" lon="13.48643082">
        <ele>572.00000</ele>
        <time>2024-02-16T13:31:42Z</time>
      </trkpt>
      <trkpt lat="42.79130489" lon="13.48650810">
        <ele>573.00000</ele>
        <time>2024-02-16T13:31:43Z</time>
      </trkpt>
      <trkpt lat="42.79138368" lon="13.48656669">
        <ele>576.00000</ele>
        <time>2024-02-16T13:31:44Z</time>
      </trkpt>
      <trkpt lat="42.79146926" lon="13.48660600">
        <ele>577.00000</ele>
        <time>2024-02-16T13:31:45Z</time>
      </trkpt>
      <trkpt lat="42.79153707" lon="13.48663190">
        <ele>577.00000</ele>
        <time>2024-02-16T13:31:46Z</time>
      </trkpt>
      <trkpt lat="42.79162634" lon="13.48668554">
        <ele>577.00000</ele>
        <time>2024-02-16T13:31:47Z</time>
      </trkpt>
      <trkpt lat="42.79168216" lon="13.48677464">
        <ele>574.00000</ele>
        <time>2024-02-16T13:31:48Z</time>
      </trkpt>
      <trkpt lat="42.79170127" lon="13.48689157">
        <ele>569.00000</ele>
        <time>2024-02-16T13:31:49Z</time>
      </trkpt>
      <trkpt lat="42.79166095" lon="13.48698377">
        <ele>564.00000</ele>
        <time>2024-02-16T13:31:50Z</time>
      </trkpt>
      <trkpt lat="42.79163019" lon="13.48711352">
        <ele>559.00000</ele>
        <time>2024-02-16T13:31:51Z</time>
      </trkpt>
      <trkpt lat="42.79159524" lon="13.48722090">
        <ele>554.00000</ele>
        <time>2024-02-16T13:31:52Z</time>
      </trkpt>
      <trkpt lat="42.79157001" lon="13.48730798">
        <ele>551.00000</ele>
        <time>2024-02-16T13:31:53Z</time>
      </trkpt>
      <trkpt lat="42.79156121" lon="13.48741988">
        <ele>548.00000</ele>
        <time>2024-02-16T13:31:54Z</time>
      </trkpt>
      <trkpt lat="42.79159759" lon="13.48751233">
        <ele>549.00000</ele>
        <time>2024-02-16T13:31:55Z</time>
      </trkpt>
      <trkpt lat="42.79166992" lon="13.48759875">
        <ele>553.00000</ele>
        <time>2024-02-16T13:31:56Z</time>
      </trkpt>
      <trkpt lat="42.79174544" lon="13.48765977">
        <ele>554.00000</ele>
        <time>2024-02-16T13:31:57Z</time>
      </trkpt>
      <trkpt lat="42.79180646" lon="13.48771635">
        <ele>556.00000</ele>
        <time>2024-02-16T13:31:58Z</time>
      </trkpt>
      <trkpt lat="42.79187662" lon="13.48780101">
        <ele>556.00000</ele>
        <time>2024-02-16T13:31:59Z</time>
      </trkpt>
      <trkpt lat="42.79194166" lon="13.48789681">
        <ele>556.00000</ele>
        <time>2024-02-16T13:32:00Z</time>
      </trkpt>
      <trkpt lat="42.79199397" lon="13.48800896">
        <ele>554.00000</ele>
        <time>2024-02-16T13:32:01Z</time>
      </trkpt>
      <trkpt lat="42.79204501" lon="13.48816277">
        <ele>550.00000</ele>
        <time>2024-02-16T13:32:02Z</time>
      </trkpt>
      <trkpt lat="42.79209061" lon="13.48828364">
        <ele>547.00000</ele>
        <time>2024-02-16T13:32:03Z</time>
      </trkpt>
      <trkpt lat="42.79215079" lon="13.48837693">
        <ele>544.00000</ele>
        <time>2024-02-16T13:32:04Z</time>
      </trkpt>
      <trkpt lat="42.79223143" lon="13.48841842">
        <ele>544.00000</ele>
        <time>2024-02-16T13:32:05Z</time>
      </trkpt>
      <trkpt lat="42.79230150" lon="13.48841850">
        <ele>544.00000</ele>
        <time>2024-02-16T13:32:06Z</time>
      </trkpt>
      <trkpt lat="42.79238850" lon="13.48838523">
        <ele>545.00000</ele>
        <time>2024-02-16T13:32:07Z</time>
      </trkpt>
      <trkpt lat="42.79242446" lon="13.48830828">
        <ele>547.00000</ele>
        <time>2024-02-16T13:32:08Z</time>
      </trkpt>
      <trkpt lat="42.79243418" lon="13.48824257">
        <ele>550.00000</ele>
        <time>2024-02-16T13:32:09Z</time>
      </trkpt>
      <trkpt lat="42.79243947" lon="13.48816537">
        <ele>552.00000</ele>
        <time>2024-02-16T13:32:10Z</time>
      </trkpt>
      <trkpt lat="42.79243477" lon="13.48808733">
        <ele>555.00000</ele>
        <time>2024-02-16T13:32:11Z</time>
      </trkpt>
      <trkpt lat="42.79242983" lon="13.48800435">
        <ele>557.00000</ele>
        <time>2024-02-16T13:32:12Z</time>
      </trkpt>
      <trkpt lat="42.79243092" lon="13.48791617">
        <ele>558.00000</ele>
        <time>2024-02-16T13:32:13Z</time>
      </trkpt>
      <trkpt lat="42.79245656" lon="13.48783453">
        <ele>559.00000</ele>
        <time>2024-02-16T13:32:14Z</time>
      </trkpt>
      <trkpt lat="42.79251272" lon="13.48775382">
        <ele>559.00000</ele>
        <time>2024-02-16T13:32:15Z</time>
      </trkpt>
      <trkpt lat="42.79256084" lon="13.48771342">
        <ele>558.00000</ele>
        <time>2024-02-16T13:32:16Z</time>
      </trkpt>
      <trkpt lat="42.79262873" lon="13.48767545">
        <ele>555.00000</ele>
        <time>2024-02-16T13:32:17Z</time>
      </trkpt>
      <trkpt lat="42.79269654" lon="13.48763270">
        <ele>553.00000</ele>
        <time>2024-02-16T13:32:18Z</time>
      </trkpt>
      <trkpt lat="42.79275261" lon="13.48757084">
        <ele>553.00000</ele>
        <time>2024-02-16T13:32:19Z</time>
      </trkpt>
      <trkpt lat="42.79279637" lon="13.48748995">
        <ele>553.00000</ele>
        <time>2024-02-16T13:32:20Z</time>
      </trkpt>
      <trkpt lat="42.79282755" lon="13.48739339">
        <ele>556.00000</ele>
        <time>2024-02-16T13:32:21Z</time>
      </trkpt>
      <trkpt lat="42.79285512" lon="13.48729357">
        <ele>559.00000</ele>
        <time>2024-02-16T13:32:22Z</time>
      </trkpt>
      <trkpt lat="42.79288312" lon="13.48719072">
        <ele>562.00000</ele>
        <time>2024-02-16T13:32:23Z</time>
      </trkpt>
      <trkpt lat="42.79292352" lon="13.48709416">
        <ele>564.00000</ele>
        <time>2024-02-16T13:32:24Z</time>
      </trkpt>
      <trkpt lat="42.79296778" lon="13.48701847">
        <ele>565.00000</ele>
        <time>2024-02-16T13:32:25Z</time>
      </trkpt>
      <trkpt lat="42.79302394" lon="13.48697824">
        <ele>564.00000</ele>
        <time>2024-02-16T13:32:26Z</time>
      </trkpt>
      <trkpt lat="42.79309744" lon="13.48700154">
        <ele>564.00000</ele>
        <time>2024-02-16T13:32:27Z</time>
      </trkpt>
      <trkpt lat="42.79316517" lon="13.48707639">
        <ele>563.00000</ele>
        <time>2024-02-16T13:32:28Z</time>
      </trkpt>
      <trkpt lat="42.79323466" lon="13.48715342">
        <ele>562.00000</ele>
        <time>2024-02-16T13:32:29Z</time>
      </trkpt>
      <trkpt lat="42.79329819" lon="13.48722903">
        <ele>559.00000</ele>
        <time>2024-02-16T13:32:30Z</time>
      </trkpt>
      <trkpt lat="42.79336558" lon="13.48730061">
        <ele>557.00000</ele>
        <time>2024-02-16T13:32:31Z</time>
      </trkpt>
      <trkpt lat="42.79343607" lon="13.48737403">
        <ele>557.00000</ele>
        <time>2024-02-16T13:32:32Z</time>
      </trkpt>
      <trkpt lat="42.79350204" lon="13.48744897">
        <ele>556.00000</ele>
        <time>2024-02-16T13:32:33Z</time>
      </trkpt>
      <trkpt lat="42.79356457" lon="13.48752474">
        <ele>554.00000</ele>
        <time>2024-02-16T13:32:34Z</time>
      </trkpt>
      <trkpt lat="42.79361561" lon="13.48761091">
        <ele>551.00000</ele>
        <time>2024-02-16T13:32:35Z</time>
      </trkpt>
      <trkpt lat="42.79367697" lon="13.48769707">
        <ele>548.00000</ele>
        <time>2024-02-16T13:32:36Z</time>
      </trkpt>
      <trkpt lat="42.79373816" lon="13.48776312">
        <ele>547.00000</ele>
        <time>2024-02-16T13:32:37Z</time>
      </trkpt>
      <trkpt lat="42.79380672" lon="13.48782758">
        <ele>548.00000</ele>
        <time>2024-02-16T13:32:38Z</time>
      </trkpt>
      <trkpt lat="42.79388526" lon="13.48788248">
        <ele>549.00000</ele>
        <time>2024-02-16T13:32:39Z</time>
      </trkpt>
      <trkpt lat="42.79396682" lon="13.48791626">
        <ele>552.00000</ele>
        <time>2024-02-16T13:32:40Z</time>
      </trkpt>
      <trkpt lat="42.79404653" lon="13.48792967">
        <ele>556.00000</ele>
        <time>2024-02-16T13:32:41Z</time>
      </trkpt>
      <trkpt lat="42.79412641" lon="13.48794945">
        <ele>559.00000</ele>
        <time>2024-02-16T13:32:42Z</time>
      </trkpt>
      <trkpt lat="42.79420914" lon="13.48798449">
        <ele>561.00000</ele>
        <time>2024-02-16T13:32:43Z</time>
      </trkpt>
      <trkpt lat="42.79428407" lon="13.48803109">
        <ele>560.00000</ele>
        <time>2024-02-16T13:32:44Z</time>
      </trkpt>
      <trkpt lat="42.79433998" lon="13.48809152">
        <ele>557.00000</ele>
        <time>2024-02-16T13:32:45Z</time>
      </trkpt>
      <trkpt lat="42.79441458" lon="13.48820082">
        <ele>551.00000</ele>
        <time>2024-02-16T13:32:46Z</time>
      </trkpt>
      <trkpt lat="42.79447509" lon="13.48829830">
        <ele>547.00000</ele>
        <time>2024-02-16T13:32:47Z</time>
      </trkpt>
      <trkpt lat="42.79453787" lon="13.48838900">
        <ele>544.00000</ele>
        <time>2024-02-16T13:32:48Z</time>
      </trkpt>
      <trkpt lat="42.79460677" lon="13.48846988">
        <ele>542.00000</ele>
        <time>2024-02-16T13:32:49Z</time>
      </trkpt>
      <trkpt lat="42.79468188" lon="13.48853216">
        <ele>540.00000</ele>
        <time>2024-02-16T13:32:50Z</time>
      </trkpt>
      <trkpt lat="42.79476603" lon="13.48856912">
        <ele>539.00000</ele>
        <time>2024-02-16T13:32:51Z</time>
      </trkpt>
      <trkpt lat="42.79485169" lon="13.48856116">
        <ele>539.00000</ele>
        <time>2024-02-16T13:32:52Z</time>
      </trkpt>
      <trkpt lat="42.79493400" lon="13.48850601">
        <ele>542.00000</ele>
        <time>2024-02-16T13:32:53Z</time>
      </trkpt>
      <trkpt lat="42.79500793" lon="13.48842948">
        <ele>544.00000</ele>
        <time>2024-02-16T13:32:54Z</time>
      </trkpt>
      <trkpt lat="42.79506468" lon="13.48836377">
        <ele>545.00000</ele>
        <time>2024-02-16T13:32:55Z</time>
      </trkpt>
      <trkpt lat="42.79515503" lon="13.48826939">
        <ele>547.00000</ele>
        <time>2024-02-16T13:32:56Z</time>
      </trkpt>
      <trkpt lat="42.79522083" lon="13.48821214">
        <ele>547.00000</ele>
        <time>2024-02-16T13:32:57Z</time>
      </trkpt>
      <trkpt lat="42.79530901" lon="13.48815103">
        <ele>547.00000</ele>
        <time>2024-02-16T13:32:58Z</time>
      </trkpt>
      <trkpt lat="42.79540205" lon="13.48810686">
        <ele>546.00000</ele>
        <time>2024-02-16T13:32:59Z</time>
      </trkpt>
      <trkpt lat="42.79549710" lon="13.48807878">
        <ele>546.00000</ele>
        <time>2024-02-16T13:33:00Z</time>
      </trkpt>
      <trkpt lat="42.79558595" lon="13.48807174">
        <ele>544.00000</ele>
        <time>2024-02-16T13:33:01Z</time>
      </trkpt>
      <trkpt lat="42.79567253" lon="13.48809630">
        <ele>541.00000</ele>
        <time>2024-02-16T13:33:02Z</time>
      </trkpt>
      <trkpt lat="42.79575333" lon="13.48814827">
        <ele>538.00000</ele>
        <time>2024-02-16T13:33:03Z</time>
      </trkpt>
      <trkpt lat="42.79582818" lon="13.48821943">
        <ele>535.00000</ele>
        <time>2024-02-16T13:33:04Z</time>
      </trkpt>
      <trkpt lat="42.79589675" lon="13.48829487">
        <ele>532.00000</ele>
        <time>2024-02-16T13:33:05Z</time>
      </trkpt>
      <trkpt lat="42.79596271" lon="13.48837492">
        <ele>529.00000</ele>
        <time>2024-02-16T13:33:06Z</time>
      </trkpt>
      <trkpt lat="42.79602491" lon="13.48846318">
        <ele>526.00000</ele>
        <time>2024-02-16T13:33:07Z</time>
      </trkpt>
      <trkpt lat="42.79609716" lon="13.48858086">
        <ele>525.00000</ele>
        <time>2024-02-16T13:33:08Z</time>
      </trkpt>
      <trkpt lat="42.79614645" lon="13.48866770">
        <ele>524.00000</ele>
        <time>2024-02-16T13:33:09Z</time>
      </trkpt>
      <trkpt lat="42.79620747" lon="13.48877850">
        <ele>523.00000</ele>
        <time>2024-02-16T13:33:10Z</time>
      </trkpt>
      <trkpt lat="42.79626329" lon="13.48888780">
        <ele>523.00000</ele>
        <time>2024-02-16T13:33:11Z</time>
      </trkpt>
      <trkpt lat="42.79631484" lon="13.48899417">
        <ele>522.00000</ele>
        <time>2024-02-16T13:33:12Z</time>
      </trkpt>
      <trkpt lat="42.79635901" lon="13.48912744">
        <ele>522.00000</ele>
        <time>2024-02-16T13:33:13Z</time>
      </trkpt>
      <trkpt lat="42.79637762" lon="13.48922241">
        <ele>522.00000</ele>
        <time>2024-02-16T13:33:14Z</time>
      </trkpt>
      <trkpt lat="42.79638575" lon="13.48936758">
        <ele>522.00000</ele>
        <time>2024-02-16T13:33:15Z</time>
      </trkpt>
      <trkpt lat="42.79637695" lon="13.48949080">
        <ele>521.00000</ele>
        <time>2024-02-16T13:33:16Z</time>
      </trkpt>
      <trkpt lat="42.79637678" lon="13.48959205">
        <ele>520.00000</ele>
        <time>2024-02-16T13:33:17Z</time>
      </trkpt>
      <trkpt lat="42.79638810" lon="13.48971627">
        <ele>519.00000</ele>
        <time>2024-02-16T13:33:18Z</time>
      </trkpt>
      <trkpt lat="42.79640737" lon="13.48983588">
        <ele>518.00000</ele>
        <time>2024-02-16T13:33:19Z</time>
      </trkpt>
      <trkpt lat="42.79642598" lon="13.48995231">
        <ele>517.00000</ele>
        <time>2024-02-16T13:33:20Z</time>
      </trkpt>
      <trkpt lat="42.79644576" lon="13.49005859">
        <ele>517.00000</ele>
        <time>2024-02-16T13:33:21Z</time>
      </trkpt>
      <trkpt lat="42.79647787" lon="13.49015733">
        <ele>517.00000</ele>
        <time>2024-02-16T13:33:22Z</time>
      </trkpt>
      <trkpt lat="42.79652170" lon="13.49024106">
        <ele>518.00000</ele>
        <time>2024-02-16T13:33:23Z</time>
      </trkpt>
      <trkpt lat="42.79657669" lon="13.49030996">
        <ele>518.00000</ele>
        <time>2024-02-16T13:33:24Z</time>
      </trkpt>
      <trkpt lat="42.79664517" lon="13.49036210">
        <ele>518.00000</ele>
        <time>2024-02-16T13:33:25Z</time>
      </trkpt>
      <trkpt lat="42.79672203" lon="13.49038716">
        <ele>517.00000</ele>
        <time>2024-02-16T13:33:26Z</time>
      </trkpt>
      <trkpt lat="42.79682530" lon="13.49040233">
        <ele>516.00000</ele>
        <time>2024-02-16T13:33:27Z</time>
      </trkpt>
      <trkpt lat="42.79690157" lon="13.49041289">
        <ele>515.00000</ele>
        <time>2024-02-16T13:33:28Z</time>
      </trkpt>
      <trkpt lat="42.79699889" lon="13.49042907">
        <ele>513.00000</ele>
        <time>2024-02-16T13:33:29Z</time>
      </trkpt>
      <trkpt lat="42.79709645" lon="13.49045455">
        <ele>511.00000</ele>
        <time>2024-02-16T13:33:30Z</time>
      </trkpt>
      <trkpt lat="42.79719511" lon="13.49049001">
        <ele>510.00000</ele>
        <time>2024-02-16T13:33:31Z</time>
      </trkpt>
      <trkpt lat="42.79730801" lon="13.49054298">
        <ele>508.00000</ele>
        <time>2024-02-16T13:33:32Z</time>
      </trkpt>
      <trkpt lat="42.79737750" lon="13.49058447">
        <ele>507.00000</ele>
        <time>2024-02-16T13:33:33Z</time>
      </trkpt>
      <trkpt lat="42.79746106" lon="13.49063853">
        <ele>507.00000</ele>
        <time>2024-02-16T13:33:34Z</time>
      </trkpt>
      <trkpt lat="42.79754321" lon="13.49068329">
        <ele>506.00000</ele>
        <time>2024-02-16T13:33:35Z</time>
      </trkpt>
      <trkpt lat="42.79762200" lon="13.49070182">
        <ele>504.00000</ele>
        <time>2024-02-16T13:33:36Z</time>
      </trkpt>
      <trkpt lat="42.79770129" lon="13.49067181">
        <ele>503.00000</ele>
        <time>2024-02-16T13:33:37Z</time>
      </trkpt>
      <trkpt lat="42.79772912" lon="13.49060651">
        <ele>504.00000</ele>
        <time>2024-02-16T13:33:38Z</time>
      </trkpt>
      <trkpt lat="42.79775837" lon="13.49051901">
        <ele>503.00000</ele>
        <time>2024-02-16T13:33:39Z</time>
      </trkpt>
      <trkpt lat="42.79778947" lon="13.49044223">
        <ele>501.00000</ele>
        <time>2024-02-16T13:33:40Z</time>
      </trkpt>
      <trkpt lat="42.79782794" lon="13.49040853">
        <ele>499.00000</ele>
        <time>2024-02-16T13:33:41Z</time>
      </trkpt>
      <trkpt lat="42.79786272" lon="13.49042932">
        <ele>498.00000</ele>
        <time>2024-02-16T13:33:42Z</time>
      </trkpt>
      <trkpt lat="42.79789022" lon="13.49049101">
        <ele>498.00000</ele>
        <time>2024-02-16T13:33:43Z</time>
      </trkpt>
      <trkpt lat="42.79790681" lon="13.49057852">
        <ele>498.00000</ele>
        <time>2024-02-16T13:33:44Z</time>
      </trkpt>
      <trkpt lat="42.79792215" lon="13.49068346">
        <ele>497.00000</ele>
        <time>2024-02-16T13:33:45Z</time>
      </trkpt>
      <trkpt lat="42.79793355" lon="13.49079293">
        <ele>496.00000</ele>
        <time>2024-02-16T13:33:46Z</time>
      </trkpt>
      <trkpt lat="42.79794453" lon="13.49093911">
        <ele>494.00000</ele>
        <time>2024-02-16T13:33:47Z</time>
      </trkpt>
      <trkpt lat="42.79794939" lon="13.49104765">
        <ele>493.00000</ele>
        <time>2024-02-16T13:33:48Z</time>
      </trkpt>
      <trkpt lat="42.79794964" lon="13.49118009">
        <ele>492.00000</ele>
        <time>2024-02-16T13:33:49Z</time>
      </trkpt>
      <trkpt lat="42.79793439" lon="13.49130447">
        <ele>492.00000</ele>
        <time>2024-02-16T13:33:50Z</time>
      </trkpt>
      <trkpt lat="42.79789499" lon="13.49140288">
        <ele>492.00000</ele>
        <time>2024-02-16T13:33:51Z</time>
      </trkpt>
      <trkpt lat="42.79783364" lon="13.49149340">
        <ele>490.00000</ele>
        <time>2024-02-16T13:33:52Z</time>
      </trkpt>
      <trkpt lat="42.79780045" lon="13.49154772">
        <ele>489.00000</ele>
        <time>2024-02-16T13:33:53Z</time>
      </trkpt>
      <trkpt lat="42.79779391" lon="13.49161595">
        <ele>488.00000</ele>
        <time>2024-02-16T13:33:54Z</time>
      </trkpt>
      <trkpt lat="42.79781763" lon="13.49166607">
        <ele>486.00000</ele>
        <time>2024-02-16T13:33:55Z</time>
      </trkpt>
      <trkpt lat="42.79785811" lon="13.49168929">
        <ele>483.00000</ele>
        <time>2024-02-16T13:33:56Z</time>
      </trkpt>
      <trkpt lat="42.79791151" lon="13.49165802">
        <ele>483.00000</ele>
        <time>2024-02-16T13:33:57Z</time>
      </trkpt>
      <trkpt lat="42.79798049" lon="13.49158133">
        <ele>484.00000</ele>
        <time>2024-02-16T13:33:58Z</time>
      </trkpt>
      <trkpt lat="42.79805467" lon="13.49149684">
        <ele>486.00000</ele>
        <time>2024-02-16T13:33:59Z</time>
      </trkpt>
      <trkpt lat="42.79814796" lon="13.49138637">
        <ele>486.00000</ele>
        <time>2024-02-16T13:34:00Z</time>
      </trkpt>
      <trkpt lat="42.79819725" lon="13.49129131">
        <ele>485.00000</ele>
        <time>2024-02-16T13:34:01Z</time>
      </trkpt>
      <trkpt lat="42.79823161" lon="13.49113541">
        <ele>485.00000</ele>
        <time>2024-02-16T13:34:02Z</time>
      </trkpt>
      <trkpt lat="42.79823463" lon="13.49103231">
        <ele>484.00000</ele>
        <time>2024-02-16T13:34:03Z</time>
      </trkpt>
      <trkpt lat="42.79823362" lon="13.49093249">
        <ele>484.00000</ele>
        <time>2024-02-16T13:34:04Z</time>
      </trkpt>
      <trkpt lat="42.79823580" lon="13.49086157">
        <ele>484.00000</ele>
        <time>2024-02-16T13:34:05Z</time>
      </trkpt>
      <trkpt lat="42.79824586" lon="13.49082117">
        <ele>483.00000</ele>
        <time>2024-02-16T13:34:06Z</time>
      </trkpt>
      <trkpt lat="42.79826154" lon="13.49080567">
        <ele>483.00000</ele>
        <time>2024-02-16T13:34:07Z</time>
      </trkpt>
      <trkpt lat="42.79827914" lon="13.49081313">
        <ele>482.00000</ele>
        <time>2024-02-16T13:34:08Z</time>
      </trkpt>
      <trkpt lat="42.79830588" lon="13.49085529">
        <ele>481.00000</ele>
        <time>2024-02-16T13:34:09Z</time>
      </trkpt>
      <trkpt lat="42.79834066" lon="13.49090759">
        <ele>480.00000</ele>
        <time>2024-02-16T13:34:10Z</time>
      </trkpt>
      <trkpt lat="42.79836949" lon="13.49093810">
        <ele>479.00000</ele>
        <time>2024-02-16T13:34:11Z</time>
      </trkpt>
      <trkpt lat="42.79838969" lon="13.49095428">
        <ele>478.00000</ele>
        <time>2024-02-16T13:34:12Z</time>
      </trkpt>
      <trkpt lat="42.79841769" lon="13.49096266">
        <ele>478.00000</ele>
        <time>2024-02-16T13:34:13Z</time>
      </trkpt>
      <trkpt lat="42.79844166" lon="13.49096962">
        <ele>477.00000</ele>
        <time>2024-02-16T13:34:14Z</time>
      </trkpt>
      <trkpt lat="42.79848164" lon="13.49098177">
        <ele>476.00000</ele>
        <time>2024-02-16T13:34:15Z</time>
      </trkpt>
      <trkpt lat="42.79853353" lon="13.49099200">
        <ele>474.00000</ele>
        <time>2024-02-16T13:34:16Z</time>
      </trkpt>
      <trkpt lat="42.79859798" lon="13.49101387">
        <ele>472.00000</ele>
        <time>2024-02-16T13:34:17Z</time>
      </trkpt>
      <trkpt lat="42.79865222" lon="13.49104648">
        <ele>471.00000</ele>
        <time>2024-02-16T13:34:18Z</time>
      </trkpt>
      <trkpt lat="42.79874358" lon="13.49108696">
        <ele>469.00000</ele>
        <time>2024-02-16T13:34:19Z</time>
      </trkpt>
      <trkpt lat="42.79882756" lon="13.49112770">
        <ele>468.00000</ele>
        <time>2024-02-16T13:34:20Z</time>
      </trkpt>
      <trkpt lat="42.79890644" lon="13.49116466">
        <ele>466.00000</ele>
        <time>2024-02-16T13:34:21Z</time>
      </trkpt>
      <trkpt lat="42.79899269" lon="13.49121445">
        <ele>463.00000</ele>
        <time>2024-02-16T13:34:22Z</time>
      </trkpt>
      <trkpt lat="42.79910350" lon="13.49128813">
        <ele>461.00000</ele>
        <time>2024-02-16T13:34:23Z</time>
      </trkpt>
      <trkpt lat="42.79919059" lon="13.49136608">
        <ele>461.00000</ele>
        <time>2024-02-16T13:34:24Z</time>
      </trkpt>
      <trkpt lat="42.79925731" lon="13.49143565">
        <ele>459.00000</ele>
        <time>2024-02-16T13:34:25Z</time>
      </trkpt>
      <trkpt lat="42.79931983" lon="13.49149558">
        <ele>457.00000</ele>
        <time>2024-02-16T13:34:26Z</time>
      </trkpt>
      <trkpt lat="42.79939091" lon="13.49153883">
        <ele>456.00000</ele>
        <time>2024-02-16T13:34:27Z</time>
      </trkpt>
      <trkpt lat="42.79943617" lon="13.49154168">
        <ele>455.00000</ele>
        <time>2024-02-16T13:34:28Z</time>
      </trkpt>
      <trkpt lat="42.79948320" lon="13.49154084">
        <ele>454.00000</ele>
        <time>2024-02-16T13:34:29Z</time>
      </trkpt>
      <trkpt lat="42.79952284" lon="13.49154277">
        <ele>453.00000</ele>
        <time>2024-02-16T13:34:30Z</time>
      </trkpt>
      <trkpt lat="42.79955956" lon="13.49157890">
        <ele>453.00000</ele>
        <time>2024-02-16T13:34:31Z</time>
      </trkpt>
      <trkpt lat="42.79956433" lon="13.49165291">
        <ele>454.00000</ele>
        <time>2024-02-16T13:34:32Z</time>
      </trkpt>
      <trkpt lat="42.79954732" lon="13.49172885">
        <ele>453.00000</ele>
        <time>2024-02-16T13:34:33Z</time>
      </trkpt>
      <trkpt lat="42.79951555" lon="13.49179415">
        <ele>451.00000</ele>
        <time>2024-02-16T13:34:34Z</time>
      </trkpt>
      <trkpt lat="42.79945344" lon="13.49182038">
        <ele>451.00000</ele>
        <time>2024-02-16T13:34:35Z</time>
      </trkpt>
      <trkpt lat="42.79937943" lon="13.49182449">
        <ele>451.00000</ele>
        <time>2024-02-16T13:34:36Z</time>
      </trkpt>
      <trkpt lat="42.79929938" lon="13.49180311">
        <ele>452.00000</ele>
        <time>2024-02-16T13:34:37Z</time>
      </trkpt>
      <trkpt lat="42.79921255" lon="13.49175735">
        <ele>454.00000</ele>
        <time>2024-02-16T13:34:38Z</time>
      </trkpt>
      <trkpt lat="42.79913996" lon="13.49170798">
        <ele>456.00000</ele>
        <time>2024-02-16T13:34:39Z</time>
      </trkpt>
      <trkpt lat="42.79908196" lon="13.49169096">
        <ele>457.00000</ele>
        <time>2024-02-16T13:34:40Z</time>
      </trkpt>
      <trkpt lat="42.79905916" lon="13.49172583">
        <ele>455.00000</ele>
        <time>2024-02-16T13:34:41Z</time>
      </trkpt>
      <trkpt lat="42.79905924" lon="13.49179012">
        <ele>452.00000</ele>
        <time>2024-02-16T13:34:42Z</time>
      </trkpt>
      <trkpt lat="42.79908455" lon="13.49184477">
        <ele>450.00000</ele>
        <time>2024-02-16T13:34:43Z</time>
      </trkpt>
      <trkpt lat="42.79913837" lon="13.49188484">
        <ele>448.00000</ele>
        <time>2024-02-16T13:34:44Z</time>
      </trkpt>
      <trkpt lat="42.79920492" lon="13.49192666">
        <ele>446.00000</ele>
        <time>2024-02-16T13:34:45Z</time>
      </trkpt>
      <trkpt lat="42.79927667" lon="13.49197494">
        <ele>445.00000</ele>
        <time>2024-02-16T13:34:46Z</time>
      </trkpt>
      <trkpt lat="42.79938546" lon="13.49203068">
        <ele>442.00000</ele>
        <time>2024-02-16T13:34:47Z</time>
      </trkpt>
      <trkpt lat="42.79946425" lon="13.49206513">
        <ele>440.00000</ele>
        <time>2024-02-16T13:34:48Z</time>
      </trkpt>
      <trkpt lat="42.79955210" lon="13.49208978">
        <ele>438.00000</ele>
        <time>2024-02-16T13:34:49Z</time>
      </trkpt>
      <trkpt lat="42.79965075" lon="13.49210092">
        <ele>437.00000</ele>
        <time>2024-02-16T13:34:50Z</time>
      </trkpt>
      <trkpt lat="42.79971211" lon="13.49208097">
        <ele>438.00000</ele>
        <time>2024-02-16T13:34:51Z</time>
      </trkpt>
      <trkpt lat="42.79979743" lon="13.49199498">
        <ele>440.00000</ele>
        <time>2024-02-16T13:34:52Z</time>
      </trkpt>
      <trkpt lat="42.79983566" lon="13.49190915">
        <ele>441.00000</ele>
        <time>2024-02-16T13:34:53Z</time>
      </trkpt>
      <trkpt lat="42.79986516" lon="13.49183237">
        <ele>441.00000</ele>
        <time>2024-02-16T13:34:54Z</time>
      </trkpt>
      <trkpt lat="42.79989492" lon="13.49178719">
        <ele>440.00000</ele>
        <time>2024-02-16T13:34:55Z</time>
      </trkpt>
      <trkpt lat="42.79992300" lon="13.49178224">
        <ele>439.00000</ele>
        <time>2024-02-16T13:34:56Z</time>
      </trkpt>
      <trkpt lat="42.79994990" lon="13.49183036">
        <ele>437.00000</ele>
        <time>2024-02-16T13:34:57Z</time>
      </trkpt>
      <trkpt lat="42.79995501" lon="13.49187327">
        <ele>437.00000</ele>
        <time>2024-02-16T13:34:58Z</time>
      </trkpt>
      <trkpt lat="42.79993708" lon="13.49192834">
        <ele>437.00000</ele>
        <time>2024-02-16T13:34:59Z</time>
      </trkpt>
      <trkpt lat="42.79992090" lon="13.49199548">
        <ele>436.00000</ele>
        <time>2024-02-16T13:35:00Z</time>
      </trkpt>
      <trkpt lat="42.79993255" lon="13.49205424">
        <ele>433.00000</ele>
        <time>2024-02-16T13:35:01Z</time>
      </trkpt>
      <trkpt lat="42.79996608" lon="13.49206740">
        <ele>432.00000</ele>
        <time>2024-02-16T13:35:02Z</time>
      </trkpt>
      <trkpt lat="42.79999533" lon="13.49201534">
        <ele>432.00000</ele>
        <time>2024-02-16T13:35:03Z</time>
      </trkpt>
      <trkpt lat="42.80001813" lon="13.49194410">
        <ele>433.00000</ele>
        <time>2024-02-16T13:35:04Z</time>
      </trkpt>
      <trkpt lat="42.80006046" lon="13.49185600">
        <ele>431.00000</ele>
        <time>2024-02-16T13:35:05Z</time>
      </trkpt>
      <trkpt lat="42.80010228" lon="13.49178979">
        <ele>428.00000</ele>
        <time>2024-02-16T13:35:06Z</time>
      </trkpt>
      <trkpt lat="42.80016926" lon="13.49168753">
        <ele>424.00000</ele>
        <time>2024-02-16T13:35:07Z</time>
      </trkpt>
      <trkpt lat="42.80022776" lon="13.49162475">
        <ele>419.00000</ele>
        <time>2024-02-16T13:35:08Z</time>
      </trkpt>
      <trkpt lat="42.80031259" lon="13.49155769">
        <ele>416.00000</ele>
        <time>2024-02-16T13:35:09Z</time>
      </trkpt>
      <trkpt lat="42.80042264" lon="13.49149114">
        <ele>413.00000</ele>
        <time>2024-02-16T13:35:10Z</time>
      </trkpt>
      <trkpt lat="42.80052448" lon="13.49144789">
        <ele>410.00000</ele>
        <time>2024-02-16T13:35:11Z</time>
      </trkpt>
      <trkpt lat="42.80060302" lon="13.49141445">
        <ele>408.00000</ele>
        <time>2024-02-16T13:35:12Z</time>
      </trkpt>
      <trkpt lat="42.80069388" lon="13.49137513">
        <ele>405.00000</ele>
        <time>2024-02-16T13:35:13Z</time>
      </trkpt>
      <trkpt lat="42.80075406" lon="13.49131923">
        <ele>402.00000</ele>
        <time>2024-02-16T13:35:14Z</time>
      </trkpt>
      <trkpt lat="42.80078189" lon="13.49123281">
        <ele>401.00000</ele>
        <time>2024-02-16T13:35:15Z</time>
      </trkpt>
      <trkpt lat="42.80076580" lon="13.49116047">
        <ele>401.00000</ele>
        <time>2024-02-16T13:35:16Z</time>
      </trkpt>
      <trkpt lat="42.80073872" lon="13.49110105">
        <ele>401.00000</ele>
        <time>2024-02-16T13:35:17Z</time>
      </trkpt>
      <trkpt lat="42.80073453" lon="13.49106718">
        <ele>399.00000</ele>
        <time>2024-02-16T13:35:18Z</time>
      </trkpt>
      <trkpt lat="42.80074342" lon="13.49101706">
        <ele>398.00000</ele>
        <time>2024-02-16T13:35:19Z</time>
      </trkpt>
      <trkpt lat="42.80076630" lon="13.49098864">
        <ele>396.00000</ele>
        <time>2024-02-16T13:35:20Z</time>
      </trkpt>
      <trkpt lat="42.80080301" lon="13.49099183">
        <ele>395.00000</ele>
        <time>2024-02-16T13:35:21Z</time>
      </trkpt>
      <trkpt lat="42.80085154" lon="13.49101974">
        <ele>395.00000</ele>
        <time>2024-02-16T13:35:22Z</time>
      </trkpt>
      <trkpt lat="42.80089840" lon="13.49105386">
        <ele>395.00000</ele>
        <time>2024-02-16T13:35:23Z</time>
      </trkpt>
      <trkpt lat="42.80095581" lon="13.49108680">
        <ele>395.00000</ele>
        <time>2024-02-16T13:35:24Z</time>
      </trkpt>
      <trkpt lat="42.80102346" lon="13.49112510">
        <ele>395.00000</ele>
        <time>2024-02-16T13:35:25Z</time>
      </trkpt>
      <trkpt lat="42.80107735" lon="13.49116735">
        <ele>394.00000</ele>
        <time>2024-02-16T13:35:26Z</time>
      </trkpt>
      <trkpt lat="42.80111356" lon="13.49122636">
        <ele>393.00000</ele>
        <time>2024-02-16T13:35:27Z</time>
      </trkpt>
      <trkpt lat="42.80110619" lon="13.49130590">
        <ele>393.00000</ele>
        <time>2024-02-16T13:35:28Z</time>
      </trkpt>
      <trkpt lat="42.80107953" lon="13.49137782">
        <ele>393.00000</ele>
        <time>2024-02-16T13:35:29Z</time>
      </trkpt>
      <trkpt lat="42.80103268" lon="13.49144093">
        <ele>394.00000</ele>
        <time>2024-02-16T13:35:30Z</time>
      </trkpt>
      <trkpt lat="42.80097031" lon="13.49149717">
        <ele>395.00000</ele>
        <time>2024-02-16T13:35:31Z</time>
      </trkpt>
      <trkpt lat="42.80090443" lon="13.49155266">
        <ele>396.00000</ele>
        <time>2024-02-16T13:35:32Z</time>
      </trkpt>
      <trkpt lat="42.80083394" lon="13.49160773">
        <ele>398.00000</ele>
        <time>2024-02-16T13:35:33Z</time>
      </trkpt>
      <trkpt lat="42.80075767" lon="13.49165936">
        <ele>400.00000</ele>
        <time>2024-02-16T13:35:34Z</time>
      </trkpt>
      <trkpt lat="42.80067854" lon="13.49171519">
        <ele>402.00000</ele>
        <time>2024-02-16T13:35:35Z</time>
      </trkpt>
      <trkpt lat="42.80060738" lon="13.49178048">
        <ele>403.00000</ele>
        <time>2024-02-16T13:35:36Z</time>
      </trkpt>
      <trkpt lat="42.80053135" lon="13.49187344">
        <ele>405.00000</ele>
        <time>2024-02-16T13:35:37Z</time>
      </trkpt>
      <trkpt lat="42.80048852" lon="13.49195541">
        <ele>406.00000</ele>
        <time>2024-02-16T13:35:38Z</time>
      </trkpt>
      <trkpt lat="42.80045122" lon="13.49207100">
        <ele>404.00000</ele>
        <time>2024-02-16T13:35:39Z</time>
      </trkpt>
      <trkpt lat="42.80043287" lon="13.49219455">
        <ele>402.00000</ele>
        <time>2024-02-16T13:35:40Z</time>
      </trkpt>
      <trkpt lat="42.80042759" lon="13.49232405">
        <ele>399.00000</ele>
        <time>2024-02-16T13:35:41Z</time>
      </trkpt>
      <trkpt lat="42.80043354" lon="13.49248180">
        <ele>394.00000</ele>
        <time>2024-02-16T13:35:42Z</time>
      </trkpt>
      <trkpt lat="42.80044552" lon="13.49259277">
        <ele>391.00000</ele>
        <time>2024-02-16T13:35:43Z</time>
      </trkpt>
      <trkpt lat="42.80047813" lon="13.49273510">
        <ele>388.00000</ele>
        <time>2024-02-16T13:35:44Z</time>
      </trkpt>
      <trkpt lat="42.80053144" lon="13.49285110">
        <ele>386.00000</ele>
        <time>2024-02-16T13:35:45Z</time>
      </trkpt>
      <trkpt lat="42.80059849" lon="13.49294548">
        <ele>385.00000</ele>
        <time>2024-02-16T13:35:46Z</time>
      </trkpt>
      <trkpt lat="42.80068038" lon="13.49302402">
        <ele>385.00000</ele>
        <time>2024-02-16T13:35:47Z</time>
      </trkpt>
      <trkpt lat="42.80077937" lon="13.49309376">
        <ele>385.00000</ele>
        <time>2024-02-16T13:35:48Z</time>
      </trkpt>
      <trkpt lat="42.80088867" lon="13.49315486">
        <ele>384.00000</ele>
        <time>2024-02-16T13:35:49Z</time>
      </trkpt>
      <trkpt lat="42.80100803" lon="13.49320675">
        <ele>384.00000</ele>
        <time>2024-02-16T13:35:50Z</time>
      </trkpt>
      <trkpt lat="42.80112991" lon="13.49324405">
        <ele>383.00000</ele>
        <time>2024-02-16T13:35:51Z</time>
      </trkpt>
      <trkpt lat="42.80125312" lon="13.49327079">
        <ele>382.00000</ele>
        <time>2024-02-16T13:35:52Z</time>
      </trkpt>
      <trkpt lat="42.80138572" lon="13.49329819">
        <ele>381.00000</ele>
        <time>2024-02-16T13:35:53Z</time>
      </trkpt>
      <trkpt lat="42.80151028" lon="13.49331990">
        <ele>378.00000</ele>
        <time>2024-02-16T13:35:54Z</time>
      </trkpt>
      <trkpt lat="42.80161455" lon="13.49332569">
        <ele>376.00000</ele>
        <time>2024-02-16T13:35:55Z</time>
      </trkpt>
      <trkpt lat="42.80169962" lon="13.49335226">
        <ele>374.00000</ele>
        <time>2024-02-16T13:35:56Z</time>
      </trkpt>
      <trkpt lat="42.80177406" lon="13.49340314">
        <ele>372.00000</ele>
        <time>2024-02-16T13:35:57Z</time>
      </trkpt>
      <trkpt lat="42.80182560" lon="13.49348000">
        <ele>370.00000</ele>
        <time>2024-02-16T13:35:58Z</time>
      </trkpt>
      <trkpt lat="42.80187238" lon="13.49355703">
        <ele>369.00000</ele>
        <time>2024-02-16T13:35:59Z</time>
      </trkpt>
      <trkpt lat="42.80193306" lon="13.49361235">
        <ele>367.00000</ele>
        <time>2024-02-16T13:36:00Z</time>
      </trkpt>
      <trkpt lat="42.80200959" lon="13.49363858">
        <ele>364.00000</ele>
        <time>2024-02-16T13:36:01Z</time>
      </trkpt>
      <trkpt lat="42.80208880" lon="13.49360254">
        <ele>363.00000</ele>
        <time>2024-02-16T13:36:02Z</time>
      </trkpt>
      <trkpt lat="42.80217739" lon="13.49355150">
        <ele>360.00000</ele>
        <time>2024-02-16T13:36:03Z</time>
      </trkpt>
      <trkpt lat="42.80227873" lon="13.49351436">
        <ele>358.00000</ele>
        <time>2024-02-16T13:36:04Z</time>
      </trkpt>
      <trkpt lat="42.80241820" lon="13.49349559">
        <ele>355.00000</ele>
        <time>2024-02-16T13:36:05Z</time>
      </trkpt>
      <trkpt lat="42.80251669" lon="13.49350204">
        <ele>354.00000</ele>
        <time>2024-02-16T13:36:06Z</time>
      </trkpt>
      <trkpt lat="42.80263756" lon="13.49351000">
        <ele>353.00000</ele>
        <time>2024-02-16T13:36:07Z</time>
      </trkpt>
      <trkpt lat="42.80275373" lon="13.49352928">
        <ele>352.00000</ele>
        <time>2024-02-16T13:36:08Z</time>
      </trkpt>
      <trkpt lat="42.80286052" lon="13.49355082">
        <ele>352.00000</ele>
        <time>2024-02-16T13:36:09Z</time>
      </trkpt>
      <trkpt lat="42.80294375" lon="13.49356717">
        <ele>352.00000</ele>
        <time>2024-02-16T13:36:10Z</time>
      </trkpt>
      <trkpt lat="42.80303184" lon="13.49357773">
        <ele>351.00000</ele>
        <time>2024-02-16T13:36:11Z</time>
      </trkpt>
      <trkpt lat="42.80306093" lon="13.49355351">
        <ele>350.00000</ele>
        <time>2024-02-16T13:36:12Z</time>
      </trkpt>
      <trkpt lat="42.80305582" lon="13.49350523">
        <ele>349.00000</ele>
        <time>2024-02-16T13:36:13Z</time>
      </trkpt>
      <trkpt lat="42.80302346" lon="13.49346986">
        <ele>348.00000</ele>
        <time>2024-02-16T13:36:14Z</time>
      </trkpt>
      <trkpt lat="42.80297359" lon="13.49344689">
        <ele>348.00000</ele>
        <time>2024-02-16T13:36:15Z</time>
      </trkpt>
      <trkpt lat="42.80290846" lon="13.49341076">
        <ele>347.00000</ele>
        <time>2024-02-16T13:36:16Z</time>
      </trkpt>
      <trkpt lat="42.80284459" lon="13.49336307">
        <ele>347.00000</ele>
        <time>2024-02-16T13:36:17Z</time>
      </trkpt>
      <trkpt lat="42.80278575" lon="13.49331345">
        <ele>347.00000</ele>
        <time>2024-02-16T13:36:18Z</time>
      </trkpt>
      <trkpt lat="42.80271350" lon="13.49324732">
        <ele>346.00000</ele>
        <time>2024-02-16T13:36:19Z</time>
      </trkpt>
      <trkpt lat="42.80262976" lon="13.49318940">
        <ele>346.00000</ele>
        <time>2024-02-16T13:36:20Z</time>
      </trkpt>
      <trkpt lat="42.80252792" lon="13.49313349">
        <ele>346.00000</ele>
        <time>2024-02-16T13:36:21Z</time>
      </trkpt>
      <trkpt lat="42.80242776" lon="13.49308110">
        <ele>347.00000</ele>
        <time>2024-02-16T13:36:22Z</time>
      </trkpt>
      <trkpt lat="42.80232734" lon="13.49302679">
        <ele>349.00000</ele>
        <time>2024-02-16T13:36:23Z</time>
      </trkpt>
      <trkpt lat="42.80223255" lon="13.49297314">
        <ele>350.00000</ele>
        <time>2024-02-16T13:36:24Z</time>
      </trkpt>
      <trkpt lat="42.80211788" lon="13.49291414">
        <ele>352.00000</ele>
        <time>2024-02-16T13:36:25Z</time>
      </trkpt>
      <trkpt lat="42.80204135" lon="13.49287357">
        <ele>353.00000</ele>
        <time>2024-02-16T13:36:26Z</time>
      </trkpt>
      <trkpt lat="42.80194790" lon="13.49283828">
        <ele>355.00000</ele>
        <time>2024-02-16T13:36:27Z</time>
      </trkpt>
      <trkpt lat="42.80188084" lon="13.49281171">
        <ele>356.00000</ele>
        <time>2024-02-16T13:36:28Z</time>
      </trkpt>
      <trkpt lat="42.80184203" lon="13.49277726">
        <ele>356.00000</ele>
        <time>2024-02-16T13:36:29Z</time>
      </trkpt>
      <trkpt lat="42.80183105" lon="13.49273418">
        <ele>354.00000</ele>
        <time>2024-02-16T13:36:30Z</time>
      </trkpt>
      <trkpt lat="42.80186299" lon="13.49271163">
        <ele>353.00000</ele>
        <time>2024-02-16T13:36:31Z</time>
      </trkpt>
      <trkpt lat="42.80192786" lon="13.49271406">
        <ele>351.00000</ele>
        <time>2024-02-16T13:36:32Z</time>
      </trkpt>
      <trkpt lat="42.80196768" lon="13.49272764">
        <ele>351.00000</ele>
        <time>2024-02-16T13:36:33Z</time>
      </trkpt>
      <trkpt lat="42.80201856" lon="13.49274784">
        <ele>349.00000</ele>
        <time>2024-02-16T13:36:34Z</time>
      </trkpt>
      <trkpt lat="42.80207966" lon="13.49276754">
        <ele>347.00000</ele>
        <time>2024-02-16T13:36:35Z</time>
      </trkpt>
      <trkpt lat="42.80215007" lon="13.49278883">
        <ele>345.00000</ele>
        <time>2024-02-16T13:36:36Z</time>
      </trkpt>
      <trkpt lat="42.80223657" lon="13.49280014">
        <ele>342.00000</ele>
        <time>2024-02-16T13:36:37Z</time>
      </trkpt>
      <trkpt lat="42.80231704" lon="13.49279193">
        <ele>341.00000</ele>
        <time>2024-02-16T13:36:38Z</time>
      </trkpt>
      <trkpt lat="42.80237948" lon="13.49279235">
        <ele>340.00000</ele>
        <time>2024-02-16T13:36:39Z</time>
      </trkpt>
      <trkpt lat="42.80245525" lon="13.49279318">
        <ele>339.00000</ele>
        <time>2024-02-16T13:36:40Z</time>
      </trkpt>
      <trkpt lat="42.80254594" lon="13.49278866">
        <ele>336.00000</ele>
        <time>2024-02-16T13:36:41Z</time>
      </trkpt>
      <trkpt lat="42.80260277" lon="13.49278522">
        <ele>335.00000</ele>
        <time>2024-02-16T13:36:42Z</time>
      </trkpt>
      <trkpt lat="42.80266790" lon="13.49278673">
        <ele>333.00000</ele>
        <time>2024-02-16T13:36:43Z</time>
      </trkpt>
      <trkpt lat="42.80271953" lon="13.49278740">
        <ele>331.00000</ele>
        <time>2024-02-16T13:36:44Z</time>
      </trkpt>
      <trkpt lat="42.80276144" lon="13.49278371">
        <ele>330.00000</ele>
        <time>2024-02-16T13:36:45Z</time>
      </trkpt>
      <trkpt lat="42.80280671" lon="13.49278279">
        <ele>329.00000</ele>
        <time>2024-02-16T13:36:46Z</time>
      </trkpt>
      <trkpt lat="42.80286102" lon="13.49277868">
        <ele>328.00000</ele>
        <time>2024-02-16T13:36:47Z</time>
      </trkpt>
      <trkpt lat="42.80292606" lon="13.49276972">
        <ele>327.00000</ele>
        <time>2024-02-16T13:36:48Z</time>
      </trkpt>
      <trkpt lat="42.80299915" lon="13.49275756">
        <ele>326.00000</ele>
        <time>2024-02-16T13:36:49Z</time>
      </trkpt>
      <trkpt lat="42.80308163" lon="13.49274474">
        <ele>324.00000</ele>
        <time>2024-02-16T13:36:50Z</time>
      </trkpt>
      <trkpt lat="42.80317291" lon="13.49272772">
        <ele>323.00000</ele>
        <time>2024-02-16T13:36:51Z</time>
      </trkpt>
      <trkpt lat="42.80326545" lon="13.49269503">
        <ele>321.00000</ele>
        <time>2024-02-16T13:36:52Z</time>
      </trkpt>
      <trkpt lat="42.80336058" lon="13.49264281">
        <ele>318.00000</ele>
        <time>2024-02-16T13:36:53Z</time>
      </trkpt>
      <trkpt lat="42.80346485" lon="13.49258196">
        <ele>316.00000</ele>
        <time>2024-02-16T13:36:54Z</time>
      </trkpt>
      <trkpt lat="42.80357868" lon="13.49253016">
        <ele>314.00000</ele>
        <time>2024-02-16T13:36:55Z</time>
      </trkpt>
      <trkpt lat="42.80373073" lon="13.49248624">
        <ele>312.00000</ele>
        <time>2024-02-16T13:36:56Z</time>
      </trkpt>
      <trkpt lat="42.80383910" lon="13.49246428">
        <ele>311.00000</ele>
        <time>2024-02-16T13:36:57Z</time>
      </trkpt>
      <trkpt lat="42.80397313" lon="13.49244634">
        <ele>308.00000</ele>
        <time>2024-02-16T13:36:58Z</time>
      </trkpt>
      <trkpt lat="42.80410800" lon="13.49246612">
        <ele>306.00000</ele>
        <time>2024-02-16T13:36:59Z</time>
      </trkpt>
      <trkpt lat="42.80424789" lon="13.49250032">
        <ele>303.00000</ele>
        <time>2024-02-16T13:37:00Z</time>
      </trkpt>
      <trkpt lat="42.80440153" lon="13.49256268">
        <ele>302.00000</ele>
        <time>2024-02-16T13:37:01Z</time>
      </trkpt>
      <trkpt lat="42.80452852" lon="13.49263963">
        <ele>302.00000</ele>
        <time>2024-02-16T13:37:02Z</time>
      </trkpt>
      <trkpt lat="42.80462625" lon="13.49272554">
        <ele>303.00000</ele>
        <time>2024-02-16T13:37:03Z</time>
      </trkpt>
      <trkpt lat="42.80472407" lon="13.49284071">
        <ele>305.00000</ele>
        <time>2024-02-16T13:37:04Z</time>
      </trkpt>
      <trkpt lat="42.80486237" lon="13.49300340">
        <ele>305.00000</ele>
        <time>2024-02-16T13:37:05Z</time>
      </trkpt>
      <trkpt lat="42.80496060" lon="13.49316408">
        <ele>303.00000</ele>
        <time>2024-02-16T13:37:06Z</time>
      </trkpt>
      <trkpt lat="42.80505574" lon="13.49334907">
        <ele>299.00000</ele>
        <time>2024-02-16T13:37:07Z</time>
      </trkpt>
      <trkpt lat="42.80511843" lon="13.49352853">
        <ele>294.00000</ele>
        <time>2024-02-16T13:37:08Z</time>
      </trkpt>
      <trkpt lat="42.80516948" lon="13.49367915">
        <ele>290.00000</ele>
        <time>2024-02-16T13:37:09Z</time>
      </trkpt>
      <trkpt lat="42.80521810" lon="13.49386498">
        <ele>287.00000</ele>
        <time>2024-02-16T13:37:10Z</time>
      </trkpt>
      <trkpt lat="42.80525640" lon="13.49405994">
        <ele>285.00000</ele>
        <time>2024-02-16T13:37:11Z</time>
      </trkpt>
      <trkpt lat="42.80529328" lon="13.49425993">
        <ele>285.00000</ele>
        <time>2024-02-16T13:37:12Z</time>
      </trkpt>
      <trkpt lat="42.80531541" lon="13.49449119">
        <ele>288.00000</ele>
        <time>2024-02-16T13:37:13Z</time>
      </trkpt>
      <trkpt lat="42.80531767" lon="13.49463838">
        <ele>288.00000</ele>
        <time>2024-02-16T13:37:14Z</time>
      </trkpt>
      <trkpt lat="42.80529479" lon="13.49482362">
        <ele>289.00000</ele>
        <time>2024-02-16T13:37:15Z</time>
      </trkpt>
      <trkpt lat="42.80527442" lon="13.49495228">
        <ele>288.00000</ele>
        <time>2024-02-16T13:37:16Z</time>
      </trkpt>
      <trkpt lat="42.80529337" lon="13.49503970">
        <ele>285.00000</ele>
        <time>2024-02-16T13:37:17Z</time>
      </trkpt>
      <trkpt lat="42.80531717" lon="13.49509402">
        <ele>283.00000</ele>
        <time>2024-02-16T13:37:18Z</time>
      </trkpt>
      <trkpt lat="42.80532446" lon="13.49511648">
        <ele>282.00000</ele>
        <time>2024-02-16T13:37:19Z</time>
      </trkpt>
      <trkpt lat="42.80533569" lon="13.49510500">
        <ele>281.00000</ele>
        <time>2024-02-16T13:37:20Z</time>
      </trkpt>
      <trkpt lat="42.80535187" lon="13.49506728">
        <ele>281.00000</ele>
        <time>2024-02-16T13:37:21Z</time>
      </trkpt>
      <trkpt lat="42.80536897" lon="13.49500752">
        <ele>281.00000</ele>
        <time>2024-02-16T13:37:22Z</time>
      </trkpt>
      <trkpt lat="42.80536822" lon="13.49494432">
        <ele>282.00000</ele>
        <time>2024-02-16T13:37:23Z</time>
      </trkpt>
      <trkpt lat="42.80537601" lon="13.49487064">
        <ele>282.00000</ele>
        <time>2024-02-16T13:37:24Z</time>
      </trkpt>
      <trkpt lat="42.80538951" lon="13.49480886">
        <ele>282.00000</ele>
        <time>2024-02-16T13:37:25Z</time>
      </trkpt>
      <trkpt lat="42.80541080" lon="13.49473527">
        <ele>281.00000</ele>
        <time>2024-02-16T13:37:26Z</time>
      </trkpt>
      <trkpt lat="42.80544131" lon="13.49466193">
        <ele>279.00000</ele>
        <time>2024-02-16T13:37:27Z</time>
      </trkpt>
      <trkpt lat="42.80547274" lon="13.49457836">
        <ele>277.00000</ele>
        <time>2024-02-16T13:37:28Z</time>
      </trkpt>
      <trkpt lat="42.80551012" lon="13.49450142">
        <ele>274.00000</ele>
        <time>2024-02-16T13:37:29Z</time>
      </trkpt>
      <trkpt lat="42.80554994" lon="13.49443755">
        <ele>271.00000</ele>
        <time>2024-02-16T13:37:30Z</time>
      </trkpt>
      <trkpt lat="42.80559553" lon="13.49437552">
        <ele>270.00000</ele>
        <time>2024-02-16T13:37:31Z</time>
      </trkpt>
      <trkpt lat="42.80564884" lon="13.49431375">
        <ele>269.00000</ele>
        <time>2024-02-16T13:37:32Z</time>
      </trkpt>
      <trkpt lat="42.80570626" lon="13.49425130">
        <ele>269.00000</ele>
        <time>2024-02-16T13:37:33Z</time>
      </trkpt>
      <trkpt lat="42.80576359" lon="13.49418894">
        <ele>268.00000</ele>
        <time>2024-02-16T13:37:34Z</time>
      </trkpt>
      <trkpt lat="42.80582478" lon="13.49410864">
        <ele>268.00000</ele>
        <time>2024-02-16T13:37:35Z</time>
      </trkpt>
      <trkpt lat="42.80587591" lon="13.49404276">
        <ele>267.00000</ele>
        <time>2024-02-16T13:37:36Z</time>
      </trkpt>
      <trkpt lat="42.80591907" lon="13.49398811">
        <ele>267.00000</ele>
        <time>2024-02-16T13:37:37Z</time>
      </trkpt>
      <trkpt lat="42.80597507" lon="13.49391443">
        <ele>267.00000</ele>
        <time>2024-02-16T13:37:38Z</time>
      </trkpt>
      <trkpt lat="42.80603139" lon="13.49383933">
        <ele>267.00000</ele>
        <time>2024-02-16T13:37:39Z</time>
      </trkpt>
      <trkpt lat="42.80608722" lon="13.49376012">
        <ele>267.00000</ele>
        <time>2024-02-16T13:37:40Z</time>
      </trkpt>
      <trkpt lat="42.80614614" lon="13.49365158">
        <ele>266.00000</ele>
        <time>2024-02-16T13:37:41Z</time>
      </trkpt>
      <trkpt lat="42.80618445" lon="13.49354638">
        <ele>266.00000</ele>
        <time>2024-02-16T13:37:42Z</time>
      </trkpt>
      <trkpt lat="42.80620381" lon="13.49345334">
        <ele>265.00000</ele>
        <time>2024-02-16T13:37:43Z</time>
      </trkpt>
      <trkpt lat="42.80621143" lon="13.49333222">
        <ele>264.00000</ele>
        <time>2024-02-16T13:37:44Z</time>
      </trkpt>
      <trkpt lat="42.80620682" lon="13.49318227">
        <ele>264.00000</ele>
        <time>2024-02-16T13:37:45Z</time>
      </trkpt>
      <trkpt lat="42.80620138" lon="13.49308119">
        <ele>263.00000</ele>
        <time>2024-02-16T13:37:46Z</time>
      </trkpt>
      <trkpt lat="42.80618227" lon="13.49295588">
        <ele>262.00000</ele>
        <time>2024-02-16T13:37:47Z</time>
      </trkpt>
      <trkpt lat="42.80615410" lon="13.49283518">
        <ele>262.00000</ele>
        <time>2024-02-16T13:37:48Z</time>
      </trkpt>
      <trkpt lat="42.80610566" lon="13.49270434">
        <ele>262.00000</ele>
        <time>2024-02-16T13:37:49Z</time>
      </trkpt>
      <trkpt lat="42.80606039" lon="13.49257525">
        <ele>262.00000</ele>
        <time>2024-02-16T13:37:50Z</time>
      </trkpt>
      <trkpt lat="42.80599761" lon="13.49243838">
        <ele>262.00000</ele>
        <time>2024-02-16T13:37:51Z</time>
      </trkpt>
      <trkpt lat="42.80594590" lon="13.49230410">
        <ele>263.00000</ele>
        <time>2024-02-16T13:37:52Z</time>
      </trkpt>
      <trkpt lat="42.80589695" lon="13.49216613">
        <ele>263.00000</ele>
        <time>2024-02-16T13:37:53Z</time>
      </trkpt>
      <trkpt lat="42.80584422" lon="13.49203093">
        <ele>261.00000</ele>
        <time>2024-02-16T13:37:54Z</time>
      </trkpt>
      <trkpt lat="42.80579108" lon="13.49189657">
        <ele>260.00000</ele>
        <time>2024-02-16T13:37:55Z</time>
      </trkpt>
      <trkpt lat="42.80574079" lon="13.49175844">
        <ele>258.00000</ele>
        <time>2024-02-16T13:37:56Z</time>
      </trkpt>
      <trkpt lat="42.80569192" lon="13.49162751">
        <ele>257.00000</ele>
        <time>2024-02-16T13:37:57Z</time>
      </trkpt>
      <trkpt lat="42.80564591" lon="13.49151251">
        <ele>255.00000</ele>
        <time>2024-02-16T13:37:58Z</time>
      </trkpt>
      <trkpt lat="42.80560743" lon="13.49141478">
        <ele>254.00000</ele>
        <time>2024-02-16T13:37:59Z</time>
      </trkpt>
      <trkpt lat="42.80556829" lon="13.49130422">
        <ele>254.00000</ele>
        <time>2024-02-16T13:38:00Z</time>
      </trkpt>
      <trkpt lat="42.80555019" lon="13.49123365">
        <ele>253.00000</ele>
        <time>2024-02-16T13:38:01Z</time>
      </trkpt>
      <trkpt lat="42.80554449" lon="13.49114983">
        <ele>252.00000</ele>
        <time>2024-02-16T13:38:02Z</time>
      </trkpt>
      <trkpt lat="42.80557760" lon="13.49108168">
        <ele>249.00000</ele>
        <time>2024-02-16T13:38:03Z</time>
      </trkpt>
      <trkpt lat="42.80563275" lon="13.49103659">
        <ele>247.00000</ele>
        <time>2024-02-16T13:38:04Z</time>
      </trkpt>
      <trkpt lat="42.80569561" lon="13.49102485">
        <ele>246.00000</ele>
        <time>2024-02-16T13:38:05Z</time>
      </trkpt>
      <trkpt lat="42.80577692" lon="13.49105084">
        <ele>244.00000</ele>
        <time>2024-02-16T13:38:06Z</time>
      </trkpt>
      <trkpt lat="42.80585361" lon="13.49110968">
        <ele>243.00000</ele>
        <time>2024-02-16T13:38:07Z</time>
      </trkpt>
      <trkpt lat="42.80591589" lon="13.49117975">
        <ele>242.00000</ele>
        <time>2024-02-16T13:38:08Z</time>
      </trkpt>
      <trkpt lat="42.80597263" lon="13.49126433">
        <ele>242.00000</ele>
        <time>2024-02-16T13:38:09Z</time>
      </trkpt>
      <trkpt lat="42.80602653" lon="13.49136156">
        <ele>241.00000</ele>
        <time>2024-02-16T13:38:10Z</time>
      </trkpt>
      <trkpt lat="42.80607598" lon="13.49146775">
        <ele>242.00000</ele>
        <time>2024-02-16T13:38:11Z</time>
      </trkpt>
      <trkpt lat="42.80612225" lon="13.49157135">
        <ele>243.00000</ele>
        <time>2024-02-16T13:38:12Z</time>
      </trkpt>
      <trkpt lat="42.80616693" lon="13.49167739">
        <ele>244.00000</ele>
        <time>2024-02-16T13:38:13Z</time>
      </trkpt>
      <trkpt lat="42.80621060" lon="13.49178551">
        <ele>245.00000</ele>
        <time>2024-02-16T13:38:14Z</time>
      </trkpt>
      <trkpt lat="42.80625762" lon="13.49191258">
        <ele>247.00000</ele>
        <time>2024-02-16T13:38:15Z</time>
      </trkpt>
      <trkpt lat="42.80628595" lon="13.49202356">
        <ele>248.00000</ele>
        <time>2024-02-16T13:38:16Z</time>
      </trkpt>
      <trkpt lat="42.80630556" lon="13.49214443">
        <ele>250.00000</ele>
        <time>2024-02-16T13:38:17Z</time>
      </trkpt>
      <trkpt lat="42.80631411" lon="13.49223813">
        <ele>251.00000</ele>
        <time>2024-02-16T13:38:18Z</time>
      </trkpt>
      <trkpt lat="42.80632426" lon="13.49235146">
        <ele>252.00000</ele>
        <time>2024-02-16T13:38:19Z</time>
      </trkpt>
      <trkpt lat="42.80634186" lon="13.49246319">
        <ele>253.00000</ele>
        <time>2024-02-16T13:38:20Z</time>
      </trkpt>
      <trkpt lat="42.80638268" lon="13.49256595">
        <ele>253.00000</ele>
        <time>2024-02-16T13:38:21Z</time>
      </trkpt>
      <trkpt lat="42.80644076" lon="13.49265505">
        <ele>253.00000</ele>
        <time>2024-02-16T13:38:22Z</time>
      </trkpt>
      <trkpt lat="42.80650313" lon="13.49271222">
        <ele>251.00000</ele>
        <time>2024-02-16T13:38:23Z</time>
      </trkpt>
      <trkpt lat="42.80657018" lon="13.49273468">
        <ele>249.00000</ele>
        <time>2024-02-16T13:38:24Z</time>
      </trkpt>
      <trkpt lat="42.80664101" lon="13.49272940">
        <ele>247.00000</ele>
        <time>2024-02-16T13:38:25Z</time>
      </trkpt>
      <trkpt lat="42.80672114" lon="13.49268824">
        <ele>244.00000</ele>
        <time>2024-02-16T13:38:26Z</time>
      </trkpt>
      <trkpt lat="42.80678803" lon="13.49263829">
        <ele>242.00000</ele>
        <time>2024-02-16T13:38:27Z</time>
      </trkpt>
      <trkpt lat="42.80684016" lon="13.49259210">
        <ele>241.00000</ele>
        <time>2024-02-16T13:38:28Z</time>
      </trkpt>
      <trkpt lat="42.80689900" lon="13.49253351">
        <ele>239.00000</ele>
        <time>2024-02-16T13:38:29Z</time>
      </trkpt>
      <trkpt lat="42.80695851" lon="13.49244693">
        <ele>238.00000</ele>
        <time>2024-02-16T13:38:30Z</time>
      </trkpt>
      <trkpt lat="42.80697553" lon="13.49236722">
        <ele>237.00000</ele>
        <time>2024-02-16T13:38:31Z</time>
      </trkpt>
      <trkpt lat="42.80698215" lon="13.49226026">
        <ele>236.00000</ele>
        <time>2024-02-16T13:38:32Z</time>
      </trkpt>
      <trkpt lat="42.80696773" lon="13.49215398">
        <ele>236.00000</ele>
        <time>2024-02-16T13:38:33Z</time>
      </trkpt>
      <trkpt lat="42.80692817" lon="13.49205164">
        <ele>236.00000</ele>
        <time>2024-02-16T13:38:34Z</time>
      </trkpt>
      <trkpt lat="42.80687352" lon="13.49195491">
        <ele>236.00000</ele>
        <time>2024-02-16T13:38:35Z</time>
      </trkpt>
      <trkpt lat="42.80681535" lon="13.49186589">
        <ele>236.00000</ele>
        <time>2024-02-16T13:38:36Z</time>
      </trkpt>
      <trkpt lat="42.80675224" lon="13.49177487">
        <ele>236.00000</ele>
        <time>2024-02-16T13:38:37Z</time>
      </trkpt>
      <trkpt lat="42.80668828" lon="13.49167596">
        <ele>236.00000</ele>
        <time>2024-02-16T13:38:38Z</time>
      </trkpt>
      <trkpt lat="42.80662860" lon="13.49156398">
        <ele>236.00000</ele>
        <time>2024-02-16T13:38:39Z</time>
      </trkpt>
      <trkpt lat="42.80658284" lon="13.49143817">
        <ele>236.00000</ele>
        <time>2024-02-16T13:38:40Z</time>
      </trkpt>
      <trkpt lat="42.80655560" lon="13.49130481">
        <ele>235.00000</ele>
        <time>2024-02-16T13:38:41Z</time>
      </trkpt>
      <trkpt lat="42.80655845" lon="13.49114723">
        <ele>234.00000</ele>
        <time>2024-02-16T13:38:42Z</time>
      </trkpt>
      <trkpt lat="42.80659189" lon="13.49104355">
        <ele>233.00000</ele>
        <time>2024-02-16T13:38:43Z</time>
      </trkpt>
      <trkpt lat="42.80664855" lon="13.49091815">
        <ele>233.00000</ele>
        <time>2024-02-16T13:38:44Z</time>
      </trkpt>
      <trkpt lat="42.80671192" lon="13.49079854">
        <ele>232.00000</ele>
        <time>2024-02-16T13:38:45Z</time>
      </trkpt>
      <trkpt lat="42.80678736" lon="13.49066083">
        <ele>232.00000</ele>
        <time>2024-02-16T13:38:46Z</time>
      </trkpt>
      <trkpt lat="42.80683538" lon="13.49057466">
        <ele>232.00000</ele>
        <time>2024-02-16T13:38:47Z</time>
      </trkpt>
      <trkpt lat="42.80688995" lon="13.49047224">
        <ele>232.00000</ele>
        <time>2024-02-16T13:38:48Z</time>
      </trkpt>
      <trkpt lat="42.80693865" lon="13.49037978">
        <ele>232.00000</ele>
        <time>2024-02-16T13:38:49Z</time>
      </trkpt>
      <trkpt lat="42.80698592" lon="13.49030594">
        <ele>233.00000</ele>
        <time>2024-02-16T13:38:50Z</time>
      </trkpt>
      <trkpt lat="42.80703085" lon="13.49025456">
        <ele>233.00000</ele>
        <time>2024-02-16T13:38:51Z</time>
      </trkpt>
      <trkpt lat="42.80708223" lon="13.49022036">
        <ele>233.00000</ele>
        <time>2024-02-16T13:38:52Z</time>
      </trkpt>
      <trkpt lat="42.80712255" lon="13.49021533">
        <ele>233.00000</ele>
        <time>2024-02-16T13:38:53Z</time>
      </trkpt>
      <trkpt lat="42.80717418" lon="13.49023260">
        <ele>233.00000</ele>
        <time>2024-02-16T13:38:54Z</time>
      </trkpt>
      <trkpt lat="42.80722925" lon="13.49027551">
        <ele>234.00000</ele>
        <time>2024-02-16T13:38:55Z</time>
      </trkpt>
      <trkpt lat="42.80728130" lon="13.49033419">
        <ele>234.00000</ele>
        <time>2024-02-16T13:38:56Z</time>
      </trkpt>
      <trkpt lat="42.80733536" lon="13.49040057">
        <ele>234.00000</ele>
        <time>2024-02-16T13:38:57Z</time>
      </trkpt>
      <trkpt lat="42.80739638" lon="13.49047056">
        <ele>235.00000</ele>
        <time>2024-02-16T13:38:58Z</time>
      </trkpt>
      <trkpt lat="42.80745942" lon="13.49053870">
        <ele>234.00000</ele>
        <time>2024-02-16T13:38:59Z</time>
      </trkpt>
      <trkpt lat="42.80752312" lon="13.49060408">
        <ele>234.00000</ele>
        <time>2024-02-16T13:39:00Z</time>
      </trkpt>
      <trkpt lat="42.80758758" lon="13.49066594">
        <ele>235.00000</ele>
        <time>2024-02-16T13:39:01Z</time>
      </trkpt>
      <trkpt lat="42.80765279" lon="13.49072453">
        <ele>235.00000</ele>
        <time>2024-02-16T13:39:02Z</time>
      </trkpt>
      <trkpt lat="42.80771909" lon="13.49078102">
        <ele>234.00000</ele>
        <time>2024-02-16T13:39:03Z</time>
      </trkpt>
      <trkpt lat="42.80778589" lon="13.49083936">
        <ele>234.00000</ele>
        <time>2024-02-16T13:39:04Z</time>
      </trkpt>
      <trkpt lat="42.80785337" lon="13.49089988">
        <ele>234.00000</ele>
        <time>2024-02-16T13:39:05Z</time>
      </trkpt>
      <trkpt lat="42.80793056" lon="13.49097255">
        <ele>235.00000</ele>
        <time>2024-02-16T13:39:06Z</time>
      </trkpt>
      <trkpt lat="42.80799720" lon="13.49103793">
        <ele>235.00000</ele>
        <time>2024-02-16T13:39:07Z</time>
      </trkpt>
      <trkpt lat="42.80805059" lon="13.49109023">
        <ele>235.00000</ele>
        <time>2024-02-16T13:39:08Z</time>
      </trkpt>
      <trkpt lat="42.80811999" lon="13.49115452">
        <ele>235.00000</ele>
        <time>2024-02-16T13:39:09Z</time>
      </trkpt>
      <trkpt lat="42.80819124" lon="13.49121890">
        <ele>236.00000</ele>
        <time>2024-02-16T13:39:10Z</time>
      </trkpt>
      <trkpt lat="42.80825913" lon="13.49128930">
        <ele>236.00000</ele>
        <time>2024-02-16T13:39:11Z</time>
      </trkpt>
      <trkpt lat="42.80832778" lon="13.49137061">
        <ele>236.00000</ele>
        <time>2024-02-16T13:39:12Z</time>
      </trkpt>
      <trkpt lat="42.80838629" lon="13.49145610">
        <ele>236.00000</ele>
        <time>2024-02-16T13:39:13Z</time>
      </trkpt>
      <trkpt lat="42.80843633" lon="13.49154839">
        <ele>237.00000</ele>
        <time>2024-02-16T13:39:14Z</time>
      </trkpt>
      <trkpt lat="42.80848402" lon="13.49164780">
        <ele>237.00000</ele>
        <time>2024-02-16T13:39:15Z</time>
      </trkpt>
      <trkpt lat="42.80852166" lon="13.49174654">
        <ele>237.00000</ele>
        <time>2024-02-16T13:39:16Z</time>
      </trkpt>
      <trkpt lat="42.80855753" lon="13.49184737">
        <ele>237.00000</ele>
        <time>2024-02-16T13:39:17Z</time>
      </trkpt>
      <trkpt lat="42.80859122" lon="13.49194770">
        <ele>236.00000</ele>
        <time>2024-02-16T13:39:18Z</time>
      </trkpt>
      <trkpt lat="42.80862115" lon="13.49204535">
        <ele>235.00000</ele>
        <time>2024-02-16T13:39:19Z</time>
      </trkpt>
      <trkpt lat="42.80865225" lon="13.49214174">
        <ele>234.00000</ele>
        <time>2024-02-16T13:39:20Z</time>
      </trkpt>
      <trkpt lat="42.80867664" lon="13.49223629">
        <ele>234.00000</ele>
        <time>2024-02-16T13:39:21Z</time>
      </trkpt>
      <trkpt lat="42.80870497" lon="13.49233319">
        <ele>233.00000</ele>
        <time>2024-02-16T13:39:22Z</time>
      </trkpt>
      <trkpt lat="42.80873363" lon="13.49242966">
        <ele>233.00000</ele>
        <time>2024-02-16T13:39:23Z</time>
      </trkpt>
      <trkpt lat="42.80876331" lon="13.49252848">
        <ele>232.00000</ele>
        <time>2024-02-16T13:39:24Z</time>
      </trkpt>
      <trkpt lat="42.80879599" lon="13.49262706">
        <ele>232.00000</ele>
        <time>2024-02-16T13:39:25Z</time>
      </trkpt>
      <trkpt lat="42.80882902" lon="13.49272454">
        <ele>232.00000</ele>
        <time>2024-02-16T13:39:26Z</time>
      </trkpt>
      <trkpt lat="42.80885894" lon="13.49282093">
        <ele>232.00000</ele>
        <time>2024-02-16T13:39:27Z</time>
      </trkpt>
      <trkpt lat="42.80888685" lon="13.49291883">
        <ele>232.00000</ele>
        <time>2024-02-16T13:39:28Z</time>
      </trkpt>
      <trkpt lat="42.80891661" lon="13.49301497">
        <ele>233.00000</ele>
        <time>2024-02-16T13:39:29Z</time>
      </trkpt>
      <trkpt lat="42.80894603" lon="13.49311270">
        <ele>233.00000</ele>
        <time>2024-02-16T13:39:30Z</time>
      </trkpt>
      <trkpt lat="42.80897285" lon="13.49321077">
        <ele>234.00000</ele>
        <time>2024-02-16T13:39:31Z</time>
      </trkpt>
      <trkpt lat="42.80900152" lon="13.49330850">
        <ele>234.00000</ele>
        <time>2024-02-16T13:39:32Z</time>
      </trkpt>
      <trkpt lat="42.80902951" lon="13.49340666">
        <ele>234.00000</ele>
        <time>2024-02-16T13:39:33Z</time>
      </trkpt>
      <trkpt lat="42.80905860" lon="13.49350548">
        <ele>233.00000</ele>
        <time>2024-02-16T13:39:34Z</time>
      </trkpt>
      <trkpt lat="42.80908827" lon="13.49360514">
        <ele>233.00000</ele>
        <time>2024-02-16T13:39:35Z</time>
      </trkpt>
      <trkpt lat="42.80911736" lon="13.49370840">
        <ele>232.00000</ele>
        <time>2024-02-16T13:39:36Z</time>
      </trkpt>
      <trkpt lat="42.80914745" lon="13.49380915">
        <ele>231.00000</ele>
        <time>2024-02-16T13:39:37Z</time>
      </trkpt>
      <trkpt lat="42.80917972" lon="13.49391016">
        <ele>231.00000</ele>
        <time>2024-02-16T13:39:38Z</time>
      </trkpt>
      <trkpt lat="42.80921023" lon="13.49400823">
        <ele>231.00000</ele>
        <time>2024-02-16T13:39:39Z</time>
      </trkpt>
      <trkpt lat="42.80923797" lon="13.49410562">
        <ele>232.00000</ele>
        <time>2024-02-16T13:39:40Z</time>
      </trkpt>
      <trkpt lat="42.80926764" lon="13.49420512">
        <ele>232.00000</ele>
        <time>2024-02-16T13:39:41Z</time>
      </trkpt>
      <trkpt lat="42.80929782" lon="13.49430419">
        <ele>233.00000</ele>
        <time>2024-02-16T13:39:42Z</time>
      </trkpt>
      <trkpt lat="42.80932850" lon="13.49440385">
        <ele>233.00000</ele>
        <time>2024-02-16T13:39:43Z</time>
      </trkpt>
      <trkpt lat="42.80936085" lon="13.49450376">
        <ele>234.00000</ele>
        <time>2024-02-16T13:39:44Z</time>
      </trkpt>
      <trkpt lat="42.80939220" lon="13.49460594">
        <ele>234.00000</ele>
        <time>2024-02-16T13:39:45Z</time>
      </trkpt>
      <trkpt lat="42.80942313" lon="13.49470702">
        <ele>234.00000</ele>
        <time>2024-02-16T13:39:46Z</time>
      </trkpt>
      <trkpt lat="42.80945347" lon="13.49480819">
        <ele>233.00000</ele>
        <time>2024-02-16T13:39:47Z</time>
      </trkpt>
      <trkpt lat="42.80948331" lon="13.49491146">
        <ele>232.00000</ele>
        <time>2024-02-16T13:39:48Z</time>
      </trkpt>
      <trkpt lat="42.80951474" lon="13.49501481">
        <ele>232.00000</ele>
        <time>2024-02-16T13:39:49Z</time>
      </trkpt>
      <trkpt lat="42.80954626" lon="13.49511841">
        <ele>231.00000</ele>
        <time>2024-02-16T13:39:50Z</time>
      </trkpt>
      <trkpt lat="42.80957895" lon="13.49522511">
        <ele>231.00000</ele>
        <time>2024-02-16T13:39:51Z</time>
      </trkpt>
      <trkpt lat="42.80961290" lon="13.49532846">
        <ele>230.00000</ele>
        <time>2024-02-16T13:39:52Z</time>
      </trkpt>
      <trkpt lat="42.80964726" lon="13.49543223">
        <ele>230.00000</ele>
        <time>2024-02-16T13:39:53Z</time>
      </trkpt>
      <trkpt lat="42.80968121" lon="13.49553834">
        <ele>230.00000</ele>
        <time>2024-02-16T13:39:54Z</time>
      </trkpt>
      <trkpt lat="42.80971650" lon="13.49564571">
        <ele>230.00000</ele>
        <time>2024-02-16T13:39:55Z</time>
      </trkpt>
      <trkpt lat="42.80975229" lon="13.49575334">
        <ele>231.00000</ele>
        <time>2024-02-16T13:39:56Z</time>
      </trkpt>
      <trkpt lat="42.80978682" lon="13.49586314">
        <ele>231.00000</ele>
        <time>2024-02-16T13:39:57Z</time>
      </trkpt>
      <trkpt lat="42.80981632" lon="13.49597613">
        <ele>231.00000</ele>
        <time>2024-02-16T13:39:58Z</time>
      </trkpt>
      <trkpt lat="42.80983669" lon="13.49609532">
        <ele>231.00000</ele>
        <time>2024-02-16T13:39:59Z</time>
      </trkpt>
      <trkpt lat="42.80984080" lon="13.49621476">
        <ele>231.00000</ele>
        <time>2024-02-16T13:40:00Z</time>
      </trkpt>
      <trkpt lat="42.80983845" lon="13.49633865">
        <ele>231.00000</ele>
        <time>2024-02-16T13:40:01Z</time>
      </trkpt>
      <trkpt lat="42.80982621" lon="13.49648667">
        <ele>231.00000</ele>
        <time>2024-02-16T13:40:02Z</time>
      </trkpt>
      <trkpt lat="42.80980928" lon="13.49658373">
        <ele>231.00000</ele>
        <time>2024-02-16T13:40:03Z</time>
      </trkpt>
      <trkpt lat="42.80977743" lon="13.49670200">
        <ele>230.00000</ele>
        <time>2024-02-16T13:40:04Z</time>
      </trkpt>
      <trkpt lat="42.80972094" lon="13.49683192">
        <ele>230.00000</ele>
        <time>2024-02-16T13:40:05Z</time>
      </trkpt>
      <trkpt lat="42.80967216" lon="13.49693452">
        <ele>230.00000</ele>
        <time>2024-02-16T13:40:06Z</time>
      </trkpt>
      <trkpt lat="42.80962295" lon="13.49703568">
        <ele>231.00000</ele>
        <time>2024-02-16T13:40:07Z</time>
      </trkpt>
      <trkpt lat="42.80957828" lon="13.49711271">
        <ele>232.00000</ele>
        <time>2024-02-16T13:40:08Z</time>
      </trkpt>
      <trkpt lat="42.80952380" lon="13.49720416">
        <ele>233.00000</ele>
        <time>2024-02-16T13:40:09Z</time>
      </trkpt>
      <trkpt lat="42.80946847" lon="13.49729184">
        <ele>234.00000</ele>
        <time>2024-02-16T13:40:10Z</time>
      </trkpt>
      <trkpt lat="42.80939295" lon="13.49739669">
        <ele>235.00000</ele>
        <time>2024-02-16T13:40:11Z</time>
      </trkpt>
      <trkpt lat="42.80934132" lon="13.49746593">
        <ele>235.00000</ele>
        <time>2024-02-16T13:40:12Z</time>
      </trkpt>
      <trkpt lat="42.80927259" lon="13.49755536">
        <ele>233.00000</ele>
        <time>2024-02-16T13:40:13Z</time>
      </trkpt>
      <trkpt lat="42.80921082" lon="13.49764681">
        <ele>232.00000</ele>
        <time>2024-02-16T13:40:14Z</time>
      </trkpt>
      <trkpt lat="42.80914141" lon="13.49775712">
        <ele>231.00000</ele>
        <time>2024-02-16T13:40:15Z</time>
      </trkpt>
      <trkpt lat="42.80908760" lon="13.49784772">
        <ele>229.00000</ele>
        <time>2024-02-16T13:40:16Z</time>
      </trkpt>
      <trkpt lat="42.80904234" lon="13.49791905">
        <ele>228.00000</ele>
        <time>2024-02-16T13:40:17Z</time>
      </trkpt>
      <trkpt lat="42.80896900" lon="13.49802743">
        <ele>226.00000</ele>
        <time>2024-02-16T13:40:18Z</time>
      </trkpt>
      <trkpt lat="42.80891745" lon="13.49811871">
        <ele>225.00000</ele>
        <time>2024-02-16T13:40:19Z</time>
      </trkpt>
      <trkpt lat="42.80887512" lon="13.49819247">
        <ele>225.00000</ele>
        <time>2024-02-16T13:40:20Z</time>
      </trkpt>
      <trkpt lat="42.80881678" lon="13.49828559">
        <ele>225.00000</ele>
        <time>2024-02-16T13:40:21Z</time>
      </trkpt>
      <trkpt lat="42.80876364" lon="13.49837603">
        <ele>225.00000</ele>
        <time>2024-02-16T13:40:22Z</time>
      </trkpt>
      <trkpt lat="42.80871419" lon="13.49845977">
        <ele>226.00000</ele>
        <time>2024-02-16T13:40:23Z</time>
      </trkpt>
      <trkpt lat="42.80864596" lon="13.49854895">
        <ele>225.00000</ele>
        <time>2024-02-16T13:40:24Z</time>
      </trkpt>
      <trkpt lat="42.80858351" lon="13.49861517">
        <ele>225.00000</ele>
        <time>2024-02-16T13:40:25Z</time>
      </trkpt>
      <trkpt lat="42.80854688" lon="13.49867619">
        <ele>226.00000</ele>
        <time>2024-02-16T13:40:26Z</time>
      </trkpt>
      <trkpt lat="42.80850179" lon="13.49875674">
        <ele>226.00000</ele>
        <time>2024-02-16T13:40:27Z</time>
      </trkpt>
      <trkpt lat="42.80846013" lon="13.49884425">
        <ele>226.00000</ele>
        <time>2024-02-16T13:40:28Z</time>
      </trkpt>
      <trkpt lat="42.80841738" lon="13.49895229">
        <ele>226.00000</ele>
        <time>2024-02-16T13:40:29Z</time>
      </trkpt>
      <trkpt lat="42.80839584" lon="13.49902957">
        <ele>226.00000</ele>
        <time>2024-02-16T13:40:30Z</time>
      </trkpt>
      <trkpt lat="42.80837128" lon="13.49914616">
        <ele>227.00000</ele>
        <time>2024-02-16T13:40:31Z</time>
      </trkpt>
      <trkpt lat="42.80835771" lon="13.49922655">
        <ele>227.00000</ele>
        <time>2024-02-16T13:40:32Z</time>
      </trkpt>
      <trkpt lat="42.80834144" lon="13.49932403">
        <ele>228.00000</ele>
        <time>2024-02-16T13:40:33Z</time>
      </trkpt>
      <trkpt lat="42.80832912" lon="13.49942243">
        <ele>228.00000</ele>
        <time>2024-02-16T13:40:34Z</time>
      </trkpt>
      <trkpt lat="42.80832208" lon="13.49952335">
        <ele>228.00000</ele>
        <time>2024-02-16T13:40:35Z</time>
      </trkpt>
      <trkpt lat="42.80831630" lon="13.49962620">
        <ele>228.00000</ele>
        <time>2024-02-16T13:40:36Z</time>
      </trkpt>
      <trkpt lat="42.80831546" lon="13.49973315">
        <ele>227.00000</ele>
        <time>2024-02-16T13:40:37Z</time>
      </trkpt>
      <trkpt lat="42.80831512" lon="13.49984027">
        <ele>227.00000</ele>
        <time>2024-02-16T13:40:38Z</time>
      </trkpt>
      <trkpt lat="42.80831915" lon="13.49996826">
        <ele>227.00000</ele>
        <time>2024-02-16T13:40:39Z</time>
      </trkpt>
      <trkpt lat="42.80832543" lon="13.50005242">
        <ele>227.00000</ele>
        <time>2024-02-16T13:40:40Z</time>
      </trkpt>
      <trkpt lat="42.80833709" lon="13.50015736">
        <ele>226.00000</ele>
        <time>2024-02-16T13:40:41Z</time>
      </trkpt>
      <trkpt lat="42.80835041" lon="13.50026213">
        <ele>225.00000</ele>
        <time>2024-02-16T13:40:42Z</time>
      </trkpt>
      <trkpt lat="42.80836693" lon="13.50036665">
        <ele>224.00000</ele>
        <time>2024-02-16T13:40:43Z</time>
      </trkpt>
      <trkpt lat="42.80838654" lon="13.50047201">
        <ele>224.00000</ele>
        <time>2024-02-16T13:40:44Z</time>
      </trkpt>
      <trkpt lat="42.80841059" lon="13.50057712">
        <ele>223.00000</ele>
        <time>2024-02-16T13:40:45Z</time>
      </trkpt>
      <trkpt lat="42.80844136" lon="13.50067754">
        <ele>223.00000</ele>
        <time>2024-02-16T13:40:46Z</time>
      </trkpt>
      <trkpt lat="42.80847924" lon="13.50077862">
        <ele>223.00000</ele>
        <time>2024-02-16T13:40:47Z</time>
      </trkpt>
      <trkpt lat="42.80852467" lon="13.50087652">
        <ele>223.00000</ele>
        <time>2024-02-16T13:40:48Z</time>
      </trkpt>
      <trkpt lat="42.80858385" lon="13.50098893">
        <ele>222.00000</ele>
        <time>2024-02-16T13:40:49Z</time>
      </trkpt>
      <trkpt lat="42.80863707" lon="13.50108129">
        <ele>222.00000</ele>
        <time>2024-02-16T13:40:50Z</time>
      </trkpt>
      <trkpt lat="42.80869105" lon="13.50117224">
        <ele>223.00000</ele>
        <time>2024-02-16T13:40:51Z</time>
      </trkpt>
      <trkpt lat="42.80873472" lon="13.50124600">
        <ele>224.00000</ele>
        <time>2024-02-16T13:40:52Z</time>
      </trkpt>
      <trkpt lat="42.80878887" lon="13.50133929">
        <ele>224.00000</ele>
        <time>2024-02-16T13:40:53Z</time>
      </trkpt>
      <trkpt lat="42.80884411" lon="13.50143350">
        <ele>225.00000</ele>
        <time>2024-02-16T13:40:54Z</time>
      </trkpt>
      <trkpt lat="42.80891292" lon="13.50154582">
        <ele>226.00000</ele>
        <time>2024-02-16T13:40:55Z</time>
      </trkpt>
      <trkpt lat="42.80897034" lon="13.50164028">
        <ele>226.00000</ele>
        <time>2024-02-16T13:40:56Z</time>
      </trkpt>
      <trkpt lat="42.80901485" lon="13.50171589">
        <ele>226.00000</ele>
        <time>2024-02-16T13:40:57Z</time>
      </trkpt>
      <trkpt lat="42.80907017" lon="13.50180918">
        <ele>226.00000</ele>
        <time>2024-02-16T13:40:58Z</time>
      </trkpt>
      <trkpt lat="42.80912423" lon="13.50190473">
        <ele>226.00000</ele>
        <time>2024-02-16T13:40:59Z</time>
      </trkpt>
      <trkpt lat="42.80917528" lon="13.50199609">
        <ele>225.00000</ele>
        <time>2024-02-16T13:41:00Z</time>
      </trkpt>
      <trkpt lat="42.80923085" lon="13.50208905">
        <ele>224.00000</ele>
        <time>2024-02-16T13:41:01Z</time>
      </trkpt>
      <trkpt lat="42.80928642" lon="13.50217672">
        <ele>224.00000</ele>
        <time>2024-02-16T13:41:02Z</time>
      </trkpt>
      <trkpt lat="42.80934325" lon="13.50225954">
        <ele>223.00000</ele>
        <time>2024-02-16T13:41:03Z</time>
      </trkpt>
      <trkpt lat="42.80940486" lon="13.50233967">
        <ele>222.00000</ele>
        <time>2024-02-16T13:41:04Z</time>
      </trkpt>
      <trkpt lat="42.80947166" lon="13.50240857">
        <ele>222.00000</ele>
        <time>2024-02-16T13:41:05Z</time>
      </trkpt>
      <trkpt lat="42.80954391" lon="13.50246598">
        <ele>222.00000</ele>
        <time>2024-02-16T13:41:06Z</time>
      </trkpt>
      <trkpt lat="42.80963293" lon="13.50252751">
        <ele>222.00000</ele>
        <time>2024-02-16T13:41:07Z</time>
      </trkpt>
      <trkpt lat="42.80969462" lon="13.50256456">
        <ele>222.00000</ele>
        <time>2024-02-16T13:41:08Z</time>
      </trkpt>
      <trkpt lat="42.80977106" lon="13.50260647">
        <ele>222.00000</ele>
        <time>2024-02-16T13:41:09Z</time>
      </trkpt>
      <trkpt lat="42.80985010" lon="13.50264452">
        <ele>222.00000</ele>
        <time>2024-02-16T13:41:10Z</time>
      </trkpt>
      <trkpt lat="42.80993074" lon="13.50268165">
        <ele>222.00000</ele>
        <time>2024-02-16T13:41:11Z</time>
      </trkpt>
      <trkpt lat="42.81001254" lon="13.50271518">
        <ele>223.00000</ele>
        <time>2024-02-16T13:41:12Z</time>
      </trkpt>
      <trkpt lat="42.81009729" lon="13.50274200">
        <ele>222.00000</ele>
        <time>2024-02-16T13:41:13Z</time>
      </trkpt>
      <trkpt lat="42.81018077" lon="13.50276371">
        <ele>221.00000</ele>
        <time>2024-02-16T13:41:14Z</time>
      </trkpt>
      <trkpt lat="42.81028060" lon="13.50278542">
        <ele>220.00000</ele>
        <time>2024-02-16T13:41:15Z</time>
      </trkpt>
      <trkpt lat="42.81034824" lon="13.50279958">
        <ele>221.00000</ele>
        <time>2024-02-16T13:41:16Z</time>
      </trkpt>
      <trkpt lat="42.81045226" lon="13.50281258">
        <ele>221.00000</ele>
        <time>2024-02-16T13:41:17Z</time>
      </trkpt>
      <trkpt lat="42.81052610" lon="13.50281065">
        <ele>222.00000</ele>
        <time>2024-02-16T13:41:18Z</time>
      </trkpt>
      <trkpt lat="42.81061730" lon="13.50281685">
        <ele>223.00000</ele>
        <time>2024-02-16T13:41:19Z</time>
      </trkpt>
      <trkpt lat="42.81070522" lon="13.50283236">
        <ele>223.00000</ele>
        <time>2024-02-16T13:41:20Z</time>
      </trkpt>
      <trkpt lat="42.81079365" lon="13.50285365">
        <ele>224.00000</ele>
        <time>2024-02-16T13:41:21Z</time>
      </trkpt>
      <trkpt lat="42.81088124" lon="13.50287184">
        <ele>225.00000</ele>
        <time>2024-02-16T13:41:22Z</time>
      </trkpt>
      <trkpt lat="42.81096632" lon="13.50288877">
        <ele>225.00000</ele>
        <time>2024-02-16T13:41:23Z</time>
      </trkpt>
      <trkpt lat="42.81105031" lon="13.50290779">
        <ele>226.00000</ele>
        <time>2024-02-16T13:41:24Z</time>
      </trkpt>
      <trkpt lat="42.81113220" lon="13.50292523">
        <ele>226.00000</ele>
        <time>2024-02-16T13:41:25Z</time>
      </trkpt>
      <trkpt lat="42.81121267" lon="13.50294333">
        <ele>226.00000</ele>
        <time>2024-02-16T13:41:26Z</time>
      </trkpt>
      <trkpt lat="42.81129439" lon="13.50295951">
        <ele>226.00000</ele>
        <time>2024-02-16T13:41:27Z</time>
      </trkpt>
      <trkpt lat="42.81137502" lon="13.50297611">
        <ele>226.00000</ele>
        <time>2024-02-16T13:41:28Z</time>
      </trkpt>
      <trkpt lat="42.81145306" lon="13.50299270">
        <ele>225.00000</ele>
        <time>2024-02-16T13:41:29Z</time>
      </trkpt>
      <trkpt lat="42.81152975" lon="13.50301031">
        <ele>224.00000</ele>
        <time>2024-02-16T13:41:30Z</time>
      </trkpt>
      <trkpt lat="42.81160444" lon="13.50302187">
        <ele>224.00000</ele>
        <time>2024-02-16T13:41:31Z</time>
      </trkpt>
      <trkpt lat="42.81167853" lon="13.50303771">
        <ele>223.00000</ele>
        <time>2024-02-16T13:41:32Z</time>
      </trkpt>
      <trkpt lat="42.81175388" lon="13.50305884">
        <ele>223.00000</ele>
        <time>2024-02-16T13:41:33Z</time>
      </trkpt>
      <trkpt lat="42.81182605" lon="13.50308348">
        <ele>223.00000</ele>
        <time>2024-02-16T13:41:34Z</time>
      </trkpt>
      <trkpt lat="42.81189286" lon="13.50310829">
        <ele>223.00000</ele>
        <time>2024-02-16T13:41:35Z</time>
      </trkpt>
      <trkpt lat="42.81196159" lon="13.50313453">
        <ele>223.00000</ele>
        <time>2024-02-16T13:41:36Z</time>
      </trkpt>
      <trkpt lat="42.81202789" lon="13.50316420">
        <ele>224.00000</ele>
        <time>2024-02-16T13:41:37Z</time>
      </trkpt>
      <trkpt lat="42.81209126" lon="13.50319370">
        <ele>224.00000</ele>
        <time>2024-02-16T13:41:38Z</time>
      </trkpt>
      <trkpt lat="42.81215337" lon="13.50321969">
        <ele>225.00000</ele>
        <time>2024-02-16T13:41:39Z</time>
      </trkpt>
      <trkpt lat="42.81221757" lon="13.50324743">
        <ele>226.00000</ele>
        <time>2024-02-16T13:41:40Z</time>
      </trkpt>
      <trkpt lat="42.81228337" lon="13.50327366">
        <ele>226.00000</ele>
        <time>2024-02-16T13:41:41Z</time>
      </trkpt>
      <trkpt lat="42.81234716" lon="13.50329931">
        <ele>226.00000</ele>
        <time>2024-02-16T13:41:42Z</time>
      </trkpt>
      <trkpt lat="42.81240792" lon="13.50332714">
        <ele>227.00000</ele>
        <time>2024-02-16T13:41:43Z</time>
      </trkpt>
      <trkpt lat="42.81246886" lon="13.50335438">
        <ele>227.00000</ele>
        <time>2024-02-16T13:41:44Z</time>
      </trkpt>
      <trkpt lat="42.81253156" lon="13.50337852">
        <ele>227.00000</ele>
        <time>2024-02-16T13:41:45Z</time>
      </trkpt>
      <trkpt lat="42.81259610" lon="13.50340291">
        <ele>227.00000</ele>
        <time>2024-02-16T13:41:46Z</time>
      </trkpt>
      <trkpt lat="42.81266106" lon="13.50342060">
        <ele>227.00000</ele>
        <time>2024-02-16T13:41:47Z</time>
      </trkpt>
      <trkpt lat="42.81272577" lon="13.50343720">
        <ele>227.00000</ele>
        <time>2024-02-16T13:41:48Z</time>
      </trkpt>
      <trkpt lat="42.81279643" lon="13.50346184">
        <ele>227.00000</ele>
        <time>2024-02-16T13:41:49Z</time>
      </trkpt>
      <trkpt lat="42.81286776" lon="13.50347818">
        <ele>227.00000</ele>
        <time>2024-02-16T13:41:50Z</time>
      </trkpt>
      <trkpt lat="42.81294018" lon="13.50349050">
        <ele>227.00000</ele>
        <time>2024-02-16T13:41:51Z</time>
      </trkpt>
      <trkpt lat="42.81301243" lon="13.50350140">
        <ele>227.00000</ele>
        <time>2024-02-16T13:41:52Z</time>
      </trkpt>
      <trkpt lat="42.81308418" lon="13.50350953">
        <ele>227.00000</ele>
        <time>2024-02-16T13:41:53Z</time>
      </trkpt>
      <trkpt lat="42.81315777" lon="13.50351506">
        <ele>227.00000</ele>
        <time>2024-02-16T13:41:54Z</time>
      </trkpt>
      <trkpt lat="42.81323614" lon="13.50351775">
        <ele>227.00000</ele>
        <time>2024-02-16T13:41:55Z</time>
      </trkpt>
      <trkpt lat="42.81331510" lon="13.50351967">
        <ele>227.00000</ele>
        <time>2024-02-16T13:41:56Z</time>
      </trkpt>
      <trkpt lat="42.81339665" lon="13.50352236">
        <ele>227.00000</ele>
        <time>2024-02-16T13:41:57Z</time>
      </trkpt>
      <trkpt lat="42.81347854" lon="13.50352604">
        <ele>227.00000</ele>
        <time>2024-02-16T13:41:58Z</time>
      </trkpt>
      <trkpt lat="42.81355985" lon="13.50352956">
        <ele>226.00000</ele>
        <time>2024-02-16T13:41:59Z</time>
      </trkpt>
      <trkpt lat="42.81364224" lon="13.50353392">
        <ele>226.00000</ele>
        <time>2024-02-16T13:42:00Z</time>
      </trkpt>
      <trkpt lat="42.81372757" lon="13.50353753">
        <ele>225.00000</ele>
        <time>2024-02-16T13:42:01Z</time>
      </trkpt>
      <trkpt lat="42.81381323" lon="13.50353912">
        <ele>225.00000</ele>
        <time>2024-02-16T13:42:02Z</time>
      </trkpt>
      <trkpt lat="42.81389948" lon="13.50353878">
        <ele>225.00000</ele>
        <time>2024-02-16T13:42:03Z</time>
      </trkpt>
      <trkpt lat="42.81398548" lon="13.50353862">
        <ele>224.00000</ele>
        <time>2024-02-16T13:42:04Z</time>
      </trkpt>
      <trkpt lat="42.81407148" lon="13.50353945">
        <ele>224.00000</ele>
        <time>2024-02-16T13:42:05Z</time>
      </trkpt>
      <trkpt lat="42.81415773" lon="13.50354239">
        <ele>224.00000</ele>
        <time>2024-02-16T13:42:06Z</time>
      </trkpt>
      <trkpt lat="42.81424524" lon="13.50354499">
        <ele>224.00000</ele>
        <time>2024-02-16T13:42:07Z</time>
      </trkpt>
      <trkpt lat="42.81435043" lon="13.50355077">
        <ele>224.00000</ele>
        <time>2024-02-16T13:42:08Z</time>
      </trkpt>
      <trkpt lat="42.81442201" lon="13.50355253">
        <ele>224.00000</ele>
        <time>2024-02-16T13:42:09Z</time>
      </trkpt>
      <trkpt lat="42.81451036" lon="13.50355421">
        <ele>223.00000</ele>
        <time>2024-02-16T13:42:10Z</time>
      </trkpt>
      <trkpt lat="42.81461806" lon="13.50355597">
        <ele>223.00000</ele>
        <time>2024-02-16T13:42:11Z</time>
      </trkpt>
      <trkpt lat="42.81469048" lon="13.50355831">
        <ele>222.00000</ele>
        <time>2024-02-16T13:42:12Z</time>
      </trkpt>
      <trkpt lat="42.81478210" lon="13.50356393">
        <ele>222.00000</ele>
        <time>2024-02-16T13:42:13Z</time>
      </trkpt>
      <trkpt lat="42.81487438" lon="13.50356971">
        <ele>222.00000</ele>
        <time>2024-02-16T13:42:14Z</time>
      </trkpt>
      <trkpt lat="42.81496834" lon="13.50357474">
        <ele>223.00000</ele>
        <time>2024-02-16T13:42:15Z</time>
      </trkpt>
      <trkpt lat="42.81506247" lon="13.50358120">
        <ele>223.00000</ele>
        <time>2024-02-16T13:42:16Z</time>
      </trkpt>
      <trkpt lat="42.81515308" lon="13.50358723">
        <ele>224.00000</ele>
        <time>2024-02-16T13:42:17Z</time>
      </trkpt>
      <trkpt lat="42.81526263" lon="13.50359821">
        <ele>225.00000</ele>
        <time>2024-02-16T13:42:18Z</time>
      </trkpt>
      <trkpt lat="42.81533522" lon="13.50361171">
        <ele>224.00000</ele>
        <time>2024-02-16T13:42:19Z</time>
      </trkpt>
      <trkpt lat="42.81542516" lon="13.50362964">
        <ele>224.00000</ele>
        <time>2024-02-16T13:42:20Z</time>
      </trkpt>
      <trkpt lat="42.81551451" lon="13.50364859">
        <ele>223.00000</ele>
        <time>2024-02-16T13:42:21Z</time>
      </trkpt>
      <trkpt lat="42.81560151" lon="13.50366602">
        <ele>222.00000</ele>
        <time>2024-02-16T13:42:22Z</time>
      </trkpt>
      <trkpt lat="42.81568776" lon="13.50368522">
        <ele>221.00000</ele>
        <time>2024-02-16T13:42:23Z</time>
      </trkpt>
      <trkpt lat="42.81577292" lon="13.50370676">
        <ele>221.00000</ele>
        <time>2024-02-16T13:42:24Z</time>
      </trkpt>
      <trkpt lat="42.81585825" lon="13.50372679">
        <ele>220.00000</ele>
        <time>2024-02-16T13:42:25Z</time>
      </trkpt>
      <trkpt lat="42.81595749" lon="13.50374288">
        <ele>220.00000</ele>
        <time>2024-02-16T13:42:26Z</time>
      </trkpt>
      <trkpt lat="42.81604458" lon="13.50375638">
        <ele>221.00000</ele>
        <time>2024-02-16T13:42:27Z</time>
      </trkpt>
      <trkpt lat="42.81613217" lon="13.50376878">
        <ele>221.00000</ele>
        <time>2024-02-16T13:42:28Z</time>
      </trkpt>
      <trkpt lat="42.81620199" lon="13.50378152">
        <ele>220.00000</ele>
        <time>2024-02-16T13:42:29Z</time>
      </trkpt>
      <trkpt lat="42.81629025" lon="13.50379879">
        <ele>219.00000</ele>
        <time>2024-02-16T13:42:30Z</time>
      </trkpt>
      <trkpt lat="42.81639637" lon="13.50381916">
        <ele>218.00000</ele>
        <time>2024-02-16T13:42:31Z</time>
      </trkpt>
      <trkpt lat="42.81648606" lon="13.50383768">
        <ele>217.00000</ele>
        <time>2024-02-16T13:42:32Z</time>
      </trkpt>
      <trkpt lat="42.81657658" lon="13.50385202">
        <ele>216.00000</ele>
        <time>2024-02-16T13:42:33Z</time>
      </trkpt>
      <trkpt lat="42.81665009" lon="13.50386308">
        <ele>215.00000</ele>
        <time>2024-02-16T13:42:34Z</time>
      </trkpt>
      <trkpt lat="42.81674346" lon="13.50387549">
        <ele>215.00000</ele>
        <time>2024-02-16T13:42:35Z</time>
      </trkpt>
      <trkpt lat="42.81685628" lon="13.50388714">
        <ele>214.00000</ele>
        <time>2024-02-16T13:42:36Z</time>
      </trkpt>
      <trkpt lat="42.81695159" lon="13.50390465">
        <ele>213.00000</ele>
        <time>2024-02-16T13:42:37Z</time>
      </trkpt>
      <trkpt lat="42.81702677" lon="13.50392133">
        <ele>214.00000</ele>
        <time>2024-02-16T13:42:38Z</time>
      </trkpt>
      <trkpt lat="42.81712015" lon="13.50393952">
        <ele>215.00000</ele>
        <time>2024-02-16T13:42:39Z</time>
      </trkpt>
      <trkpt lat="42.81721235" lon="13.50395813">
        <ele>216.00000</ele>
        <time>2024-02-16T13:42:40Z</time>
      </trkpt>
      <trkpt lat="42.81732450" lon="13.50398059">
        <ele>216.00000</ele>
        <time>2024-02-16T13:42:41Z</time>
      </trkpt>
      <trkpt lat="42.81739734" lon="13.50399686">
        <ele>216.00000</ele>
        <time>2024-02-16T13:42:42Z</time>
      </trkpt>
      <trkpt lat="42.81750496" lon="13.50402284">
        <ele>216.00000</ele>
        <time>2024-02-16T13:42:43Z</time>
      </trkpt>
      <trkpt lat="42.81757436" lon="13.50403969">
        <ele>216.00000</ele>
        <time>2024-02-16T13:42:44Z</time>
      </trkpt>
      <trkpt lat="42.81765885" lon="13.50406156">
        <ele>215.00000</ele>
        <time>2024-02-16T13:42:45Z</time>
      </trkpt>
      <trkpt lat="42.81776069" lon="13.50409107">
        <ele>214.00000</ele>
        <time>2024-02-16T13:42:46Z</time>
      </trkpt>
      <trkpt lat="42.81784426" lon="13.50411621">
        <ele>215.00000</ele>
        <time>2024-02-16T13:42:47Z</time>
      </trkpt>
      <trkpt lat="42.81792489" lon="13.50413683">
        <ele>215.00000</ele>
        <time>2024-02-16T13:42:48Z</time>
      </trkpt>
      <trkpt lat="42.81799027" lon="13.50415309">
        <ele>216.00000</ele>
        <time>2024-02-16T13:42:49Z</time>
      </trkpt>
      <trkpt lat="42.81807334" lon="13.50417262">
        <ele>217.00000</ele>
        <time>2024-02-16T13:42:50Z</time>
      </trkpt>
      <trkpt lat="42.81815481" lon="13.50419073">
        <ele>218.00000</ele>
        <time>2024-02-16T13:42:51Z</time>
      </trkpt>
      <trkpt lat="42.81823343" lon="13.50420900">
        <ele>218.00000</ele>
        <time>2024-02-16T13:42:52Z</time>
      </trkpt>
      <trkpt lat="42.81833033" lon="13.50423121">
        <ele>220.00000</ele>
        <time>2024-02-16T13:42:53Z</time>
      </trkpt>
      <trkpt lat="42.81839394" lon="13.50424479">
        <ele>219.00000</ele>
        <time>2024-02-16T13:42:54Z</time>
      </trkpt>
      <trkpt lat="42.81847659" lon="13.50426038">
        <ele>218.00000</ele>
        <time>2024-02-16T13:42:55Z</time>
      </trkpt>
      <trkpt lat="42.81856167" lon="13.50427849">
        <ele>218.00000</ele>
        <time>2024-02-16T13:42:56Z</time>
      </trkpt>
      <trkpt lat="42.81864699" lon="13.50429793">
        <ele>217.00000</ele>
        <time>2024-02-16T13:42:57Z</time>
      </trkpt>
      <trkpt lat="42.81873341" lon="13.50431897">
        <ele>216.00000</ele>
        <time>2024-02-16T13:42:58Z</time>
      </trkpt>
      <trkpt lat="42.81881941" lon="13.50433808">
        <ele>216.00000</ele>
        <time>2024-02-16T13:42:59Z</time>
      </trkpt>
      <trkpt lat="42.81890214" lon="13.50435744">
        <ele>215.00000</ele>
        <time>2024-02-16T13:43:00Z</time>
      </trkpt>
      <trkpt lat="42.81898529" lon="13.50437480">
        <ele>215.00000</ele>
        <time>2024-02-16T13:43:01Z</time>
      </trkpt>
      <trkpt lat="42.81906860" lon="13.50439324">
        <ele>214.00000</ele>
        <time>2024-02-16T13:43:02Z</time>
      </trkpt>
      <trkpt lat="42.81915150" lon="13.50441461">
        <ele>214.00000</ele>
        <time>2024-02-16T13:43:03Z</time>
      </trkpt>
      <trkpt lat="42.81923021" lon="13.50443732">
        <ele>214.00000</ele>
        <time>2024-02-16T13:43:04Z</time>
      </trkpt>
      <trkpt lat="42.81930983" lon="13.50445928">
        <ele>214.00000</ele>
        <time>2024-02-16T13:43:05Z</time>
      </trkpt>
      <trkpt lat="42.81939089" lon="13.50447873">
        <ele>214.00000</ele>
        <time>2024-02-16T13:43:06Z</time>
      </trkpt>
      <trkpt lat="42.81949206" lon="13.50449793">
        <ele>214.00000</ele>
        <time>2024-02-16T13:43:07Z</time>
      </trkpt>
      <trkpt lat="42.81957294" lon="13.50451570">
        <ele>213.00000</ele>
        <time>2024-02-16T13:43:08Z</time>
      </trkpt>
      <trkpt lat="42.81964134" lon="13.50453187">
        <ele>213.00000</ele>
        <time>2024-02-16T13:43:09Z</time>
      </trkpt>
      <trkpt lat="42.81972499" lon="13.50454738">
        <ele>212.00000</ele>
        <time>2024-02-16T13:43:10Z</time>
      </trkpt>
      <trkpt lat="42.81980973" lon="13.50456448">
        <ele>214.00000</ele>
        <time>2024-02-16T13:43:11Z</time>
      </trkpt>
      <trkpt lat="42.81989338" lon="13.50458895">
        <ele>215.00000</ele>
        <time>2024-02-16T13:43:12Z</time>
      </trkpt>
      <trkpt lat="42.81997594" lon="13.50461586">
        <ele>215.00000</ele>
        <time>2024-02-16T13:43:13Z</time>
      </trkpt>
      <trkpt lat="42.82005817" lon="13.50464981">
        <ele>217.00000</ele>
        <time>2024-02-16T13:43:14Z</time>
      </trkpt>
      <trkpt lat="42.82013822" lon="13.50469473">
        <ele>219.00000</ele>
        <time>2024-02-16T13:43:15Z</time>
      </trkpt>
      <trkpt lat="42.82022975" lon="13.50476455">
        <ele>219.00000</ele>
        <time>2024-02-16T13:43:16Z</time>
      </trkpt>
      <trkpt lat="42.82028616" lon="13.50482239">
        <ele>219.00000</ele>
        <time>2024-02-16T13:43:17Z</time>
      </trkpt>
      <trkpt lat="42.82035430" lon="13.50490235">
        <ele>218.00000</ele>
        <time>2024-02-16T13:43:18Z</time>
      </trkpt>
      <trkpt lat="42.82042320" lon="13.50498869">
        <ele>216.00000</ele>
        <time>2024-02-16T13:43:19Z</time>
      </trkpt>
      <trkpt lat="42.82048699" lon="13.50507594">
        <ele>216.00000</ele>
        <time>2024-02-16T13:43:20Z</time>
      </trkpt>
      <trkpt lat="42.82056159" lon="13.50519195">
        <ele>215.00000</ele>
        <time>2024-02-16T13:43:21Z</time>
      </trkpt>
      <trkpt lat="42.82061900" lon="13.50529454">
        <ele>214.00000</ele>
        <time>2024-02-16T13:43:22Z</time>
      </trkpt>
      <trkpt lat="42.82066980" lon="13.50540183">
        <ele>214.00000</ele>
        <time>2024-02-16T13:43:23Z</time>
      </trkpt>
      <trkpt lat="42.82070945" lon="13.50549093">
        <ele>214.00000</ele>
        <time>2024-02-16T13:43:24Z</time>
      </trkpt>
      <trkpt lat="42.82075915" lon="13.50560761">
        <ele>214.00000</ele>
        <time>2024-02-16T13:43:25Z</time>
      </trkpt>
      <trkpt lat="42.82080198" lon="13.50572504">
        <ele>213.00000</ele>
        <time>2024-02-16T13:43:26Z</time>
      </trkpt>
      <trkpt lat="42.82084875" lon="13.50586476">
        <ele>213.00000</ele>
        <time>2024-02-16T13:43:27Z</time>
      </trkpt>
      <trkpt lat="42.82088228" lon="13.50598194">
        <ele>212.00000</ele>
        <time>2024-02-16T13:43:28Z</time>
      </trkpt>
      <trkpt lat="42.82091187" lon="13.50607607">
        <ele>212.00000</ele>
        <time>2024-02-16T13:43:29Z</time>
      </trkpt>
      <trkpt lat="42.82094405" lon="13.50619149">
        <ele>212.00000</ele>
        <time>2024-02-16T13:43:30Z</time>
      </trkpt>
      <trkpt lat="42.82098295" lon="13.50632711">
        <ele>212.00000</ele>
        <time>2024-02-16T13:43:31Z</time>
      </trkpt>
      <trkpt lat="42.82101019" lon="13.50641428">
        <ele>211.00000</ele>
        <time>2024-02-16T13:43:32Z</time>
      </trkpt>
      <trkpt lat="42.82105394" lon="13.50654814">
        <ele>211.00000</ele>
        <time>2024-02-16T13:43:33Z</time>
      </trkpt>
      <trkpt lat="42.82108311" lon="13.50663665">
        <ele>210.00000</ele>
        <time>2024-02-16T13:43:34Z</time>
      </trkpt>
      <trkpt lat="42.82111940" lon="13.50674319">
        <ele>209.00000</ele>
        <time>2024-02-16T13:43:35Z</time>
      </trkpt>
      <trkpt lat="42.82116341" lon="13.50686967">
        <ele>209.00000</ele>
        <time>2024-02-16T13:43:36Z</time>
      </trkpt>
      <trkpt lat="42.82119752" lon="13.50697964">
        <ele>208.00000</ele>
        <time>2024-02-16T13:43:37Z</time>
      </trkpt>
      <trkpt lat="42.82123407" lon="13.50708458">
        <ele>208.00000</ele>
        <time>2024-02-16T13:43:38Z</time>
      </trkpt>
      <trkpt lat="42.82126366" lon="13.50716622">
        <ele>208.00000</ele>
        <time>2024-02-16T13:43:39Z</time>
      </trkpt>
      <trkpt lat="42.82129970" lon="13.50726580">
        <ele>207.00000</ele>
        <time>2024-02-16T13:43:40Z</time>
      </trkpt>
      <trkpt lat="42.82134488" lon="13.50738063">
        <ele>206.00000</ele>
        <time>2024-02-16T13:43:41Z</time>
      </trkpt>
      <trkpt lat="42.82138335" lon="13.50747182">
        <ele>206.00000</ele>
        <time>2024-02-16T13:43:42Z</time>
      </trkpt>
      <trkpt lat="42.82142803" lon="13.50755715">
        <ele>206.00000</ele>
        <time>2024-02-16T13:43:43Z</time>
      </trkpt>
      <trkpt lat="42.82146767" lon="13.50762228">
        <ele>206.00000</ele>
        <time>2024-02-16T13:43:44Z</time>
      </trkpt>
      <trkpt lat="42.82152039" lon="13.50769906">
        <ele>206.00000</ele>
        <time>2024-02-16T13:43:45Z</time>
      </trkpt>
      <trkpt lat="42.82157840" lon="13.50776762">
        <ele>206.00000</ele>
        <time>2024-02-16T13:43:46Z</time>
      </trkpt>
      <trkpt lat="42.82164126" lon="13.50783040">
        <ele>207.00000</ele>
        <time>2024-02-16T13:43:47Z</time>
      </trkpt>
      <trkpt lat="42.82170505" lon="13.50788648">
        <ele>207.00000</ele>
        <time>2024-02-16T13:43:48Z</time>
      </trkpt>
      <trkpt lat="42.82176942" lon="13.50793702">
        <ele>208.00000</ele>
        <time>2024-02-16T13:43:49Z</time>
      </trkpt>
      <trkpt lat="42.82183388" lon="13.50797784">
        <ele>209.00000</ele>
        <time>2024-02-16T13:43:50Z</time>
      </trkpt>
      <trkpt lat="42.82190320" lon="13.50801514">
        <ele>209.00000</ele>
        <time>2024-02-16T13:43:51Z</time>
      </trkpt>
      <trkpt lat="42.82197142" lon="13.50804842">
        <ele>209.00000</ele>
        <time>2024-02-16T13:43:52Z</time>
      </trkpt>
      <trkpt lat="42.82203664" lon="13.50807842">
        <ele>209.00000</ele>
        <time>2024-02-16T13:43:53Z</time>
      </trkpt>
      <trkpt lat="42.82209841" lon="13.50810692">
        <ele>209.00000</ele>
        <time>2024-02-16T13:43:54Z</time>
      </trkpt>
      <trkpt lat="42.82215893" lon="13.50812620">
        <ele>209.00000</ele>
        <time>2024-02-16T13:43:55Z</time>
      </trkpt>
      <trkpt lat="42.82221877" lon="13.50814254">
        <ele>209.00000</ele>
        <time>2024-02-16T13:43:56Z</time>
      </trkpt>
      <trkpt lat="42.82227946" lon="13.50816425">
        <ele>209.00000</ele>
        <time>2024-02-16T13:43:57Z</time>
      </trkpt>
      <trkpt lat="42.82234174" lon="13.50818856">
        <ele>209.00000</ele>
        <time>2024-02-16T13:43:58Z</time>
      </trkpt>
      <trkpt lat="42.82240318" lon="13.50821354">
        <ele>208.00000</ele>
        <time>2024-02-16T13:43:59Z</time>
      </trkpt>
      <trkpt lat="42.82246906" lon="13.50823944">
        <ele>208.00000</ele>
        <time>2024-02-16T13:44:00Z</time>
      </trkpt>
      <trkpt lat="42.82254206" lon="13.50826727">
        <ele>208.00000</ele>
        <time>2024-02-16T13:44:01Z</time>
      </trkpt>
      <trkpt lat="42.82262027" lon="13.50829233">
        <ele>208.00000</ele>
        <time>2024-02-16T13:44:02Z</time>
      </trkpt>
      <trkpt lat="42.82270350" lon="13.50832267">
        <ele>207.00000</ele>
        <time>2024-02-16T13:44:03Z</time>
      </trkpt>
      <trkpt lat="42.82278648" lon="13.50835486">
        <ele>206.00000</ele>
        <time>2024-02-16T13:44:04Z</time>
      </trkpt>
      <trkpt lat="42.82286980" lon="13.50838654">
        <ele>206.00000</ele>
        <time>2024-02-16T13:44:05Z</time>
      </trkpt>
      <trkpt lat="42.82295580" lon="13.50841789">
        <ele>206.00000</ele>
        <time>2024-02-16T13:44:06Z</time>
      </trkpt>
      <trkpt lat="42.82304330" lon="13.50844999">
        <ele>206.00000</ele>
        <time>2024-02-16T13:44:07Z</time>
      </trkpt>
      <trkpt lat="42.82314715" lon="13.50848922">
        <ele>206.00000</ele>
        <time>2024-02-16T13:44:08Z</time>
      </trkpt>
      <trkpt lat="42.82321547" lon="13.50851403">
        <ele>205.00000</ele>
        <time>2024-02-16T13:44:09Z</time>
      </trkpt>
      <trkpt lat="42.82329836" lon="13.50854471">
        <ele>205.00000</ele>
        <time>2024-02-16T13:44:10Z</time>
      </trkpt>
      <trkpt lat="42.82337799" lon="13.50857807">
        <ele>205.00000</ele>
        <time>2024-02-16T13:44:11Z</time>
      </trkpt>
      <trkpt lat="42.82345779" lon="13.50860866">
        <ele>205.00000</ele>
        <time>2024-02-16T13:44:12Z</time>
      </trkpt>
      <trkpt lat="42.82353566" lon="13.50863942">
        <ele>204.00000</ele>
        <time>2024-02-16T13:44:13Z</time>
      </trkpt>
      <trkpt lat="42.82360975" lon="13.50866700">
        <ele>204.00000</ele>
        <time>2024-02-16T13:44:14Z</time>
      </trkpt>
      <trkpt lat="42.82368393" lon="13.50869491">
        <ele>205.00000</ele>
        <time>2024-02-16T13:44:15Z</time>
      </trkpt>
      <trkpt lat="42.82377077" lon="13.50872316">
        <ele>205.00000</ele>
        <time>2024-02-16T13:44:16Z</time>
      </trkpt>
      <trkpt lat="42.82382852" lon="13.50873464">
        <ele>206.00000</ele>
        <time>2024-02-16T13:44:17Z</time>
      </trkpt>
      <trkpt lat="42.82389960" lon="13.50874135">
        <ele>206.00000</ele>
        <time>2024-02-16T13:44:18Z</time>
      </trkpt>
      <trkpt lat="42.82396313" lon="13.50874646">
        <ele>207.00000</ele>
        <time>2024-02-16T13:44:19Z</time>
      </trkpt>
      <trkpt lat="42.82403689" lon="13.50876599">
        <ele>207.00000</ele>
        <time>2024-02-16T13:44:20Z</time>
      </trkpt>
      <trkpt lat="42.82410688" lon="13.50879633">
        <ele>207.00000</ele>
        <time>2024-02-16T13:44:21Z</time>
      </trkpt>
      <trkpt lat="42.82417444" lon="13.50882919">
        <ele>207.00000</ele>
        <time>2024-02-16T13:44:22Z</time>
      </trkpt>
      <trkpt lat="42.82424510" lon="13.50886054">
        <ele>207.00000</ele>
        <time>2024-02-16T13:44:23Z</time>
      </trkpt>
      <trkpt lat="42.82431710" lon="13.50888736">
        <ele>207.00000</ele>
        <time>2024-02-16T13:44:24Z</time>
      </trkpt>
      <trkpt lat="42.82438893" lon="13.50891427">
        <ele>207.00000</ele>
        <time>2024-02-16T13:44:25Z</time>
      </trkpt>
      <trkpt lat="42.82446211" lon="13.50894352">
        <ele>207.00000</ele>
        <time>2024-02-16T13:44:26Z</time>
      </trkpt>
      <trkpt lat="42.82453813" lon="13.50897017">
        <ele>206.00000</ele>
        <time>2024-02-16T13:44:27Z</time>
      </trkpt>
      <trkpt lat="42.82461591" lon="13.50899633">
        <ele>206.00000</ele>
        <time>2024-02-16T13:44:28Z</time>
      </trkpt>
      <trkpt lat="42.82469395" lon="13.50902390">
        <ele>206.00000</ele>
        <time>2024-02-16T13:44:29Z</time>
      </trkpt>
      <trkpt lat="42.82477106" lon="13.50904938">
        <ele>206.00000</ele>
        <time>2024-02-16T13:44:30Z</time>
      </trkpt>
      <trkpt lat="42.82484482" lon="13.50907654">
        <ele>206.00000</ele>
        <time>2024-02-16T13:44:31Z</time>
      </trkpt>
      <trkpt lat="42.82491968" lon="13.50910521">
        <ele>206.00000</ele>
        <time>2024-02-16T13:44:32Z</time>
      </trkpt>
      <trkpt lat="42.82499897" lon="13.50913370">
        <ele>206.00000</ele>
        <time>2024-02-16T13:44:33Z</time>
      </trkpt>
      <trkpt lat="42.82507793" lon="13.50915868">
        <ele>207.00000</ele>
        <time>2024-02-16T13:44:34Z</time>
      </trkpt>
      <trkpt lat="42.82515613" lon="13.50918584">
        <ele>209.00000</ele>
        <time>2024-02-16T13:44:35Z</time>
      </trkpt>
      <trkpt lat="42.82522897" lon="13.50921166">
        <ele>210.00000</ele>
        <time>2024-02-16T13:44:36Z</time>
      </trkpt>
      <trkpt lat="42.82530524" lon="13.50923772">
        <ele>211.00000</ele>
        <time>2024-02-16T13:44:37Z</time>
      </trkpt>
      <trkpt lat="42.82538420" lon="13.50926673">
        <ele>211.00000</ele>
        <time>2024-02-16T13:44:38Z</time>
      </trkpt>
      <trkpt lat="42.82546316" lon="13.50929724">
        <ele>211.00000</ele>
        <time>2024-02-16T13:44:39Z</time>
      </trkpt>
      <trkpt lat="42.82554069" lon="13.50932464">
        <ele>212.00000</ele>
        <time>2024-02-16T13:44:40Z</time>
      </trkpt>
      <trkpt lat="42.82562141" lon="13.50935147">
        <ele>211.00000</ele>
        <time>2024-02-16T13:44:41Z</time>
      </trkpt>
      <trkpt lat="42.82570456" lon="13.50938005">
        <ele>210.00000</ele>
        <time>2024-02-16T13:44:42Z</time>
      </trkpt>
      <trkpt lat="42.82580422" lon="13.50941450">
        <ele>209.00000</ele>
        <time>2024-02-16T13:44:43Z</time>
      </trkpt>
      <trkpt lat="42.82586951" lon="13.50943864">
        <ele>207.00000</ele>
        <time>2024-02-16T13:44:44Z</time>
      </trkpt>
      <trkpt lat="42.82595166" lon="13.50946647">
        <ele>206.00000</ele>
        <time>2024-02-16T13:44:45Z</time>
      </trkpt>
      <trkpt lat="42.82603489" lon="13.50949270">
        <ele>205.00000</ele>
        <time>2024-02-16T13:44:46Z</time>
      </trkpt>
      <trkpt lat="42.82611795" lon="13.50952112">
        <ele>204.00000</ele>
        <time>2024-02-16T13:44:47Z</time>
      </trkpt>
      <trkpt lat="42.82620085" lon="13.50955045">
        <ele>205.00000</ele>
        <time>2024-02-16T13:44:48Z</time>
      </trkpt>
      <trkpt lat="42.82628308" lon="13.50957811">
        <ele>205.00000</ele>
        <time>2024-02-16T13:44:49Z</time>
      </trkpt>
      <trkpt lat="42.82636723" lon="13.50960519">
        <ele>206.00000</ele>
        <time>2024-02-16T13:44:50Z</time>
      </trkpt>
      <trkpt lat="42.82645180" lon="13.50963075">
        <ele>206.00000</ele>
        <time>2024-02-16T13:44:51Z</time>
      </trkpt>
      <trkpt lat="42.82653755" lon="13.50965959">
        <ele>207.00000</ele>
        <time>2024-02-16T13:44:52Z</time>
      </trkpt>
      <trkpt lat="42.82662246" lon="13.50969211">
        <ele>207.00000</ele>
        <time>2024-02-16T13:44:53Z</time>
      </trkpt>
      <trkpt lat="42.82670837" lon="13.50972698">
        <ele>207.00000</ele>
        <time>2024-02-16T13:44:54Z</time>
      </trkpt>
      <trkpt lat="42.82679094" lon="13.50975899">
        <ele>207.00000</ele>
        <time>2024-02-16T13:44:55Z</time>
      </trkpt>
      <trkpt lat="42.82687861" lon="13.50978733">
        <ele>207.00000</ele>
        <time>2024-02-16T13:44:56Z</time>
      </trkpt>
      <trkpt lat="42.82696737" lon="13.50981918">
        <ele>206.00000</ele>
        <time>2024-02-16T13:44:57Z</time>
      </trkpt>
      <trkpt lat="42.82705689" lon="13.50985296">
        <ele>205.00000</ele>
        <time>2024-02-16T13:44:58Z</time>
      </trkpt>
      <trkpt lat="42.82715345" lon="13.50988799">
        <ele>204.00000</ele>
        <time>2024-02-16T13:44:59Z</time>
      </trkpt>
      <trkpt lat="42.82724238" lon="13.50991926">
        <ele>203.00000</ele>
        <time>2024-02-16T13:45:00Z</time>
      </trkpt>
      <trkpt lat="42.82732930" lon="13.50994700">
        <ele>203.00000</ele>
        <time>2024-02-16T13:45:01Z</time>
      </trkpt>
      <trkpt lat="42.82741195" lon="13.50997743">
        <ele>203.00000</ele>
        <time>2024-02-16T13:45:02Z</time>
      </trkpt>
      <trkpt lat="42.82751245" lon="13.51001456">
        <ele>202.00000</ele>
        <time>2024-02-16T13:45:03Z</time>
      </trkpt>
      <trkpt lat="42.82757808" lon="13.51003794">
        <ele>203.00000</ele>
        <time>2024-02-16T13:45:04Z</time>
      </trkpt>
      <trkpt lat="42.82766064" lon="13.51006418">
        <ele>203.00000</ele>
        <time>2024-02-16T13:45:05Z</time>
      </trkpt>
      <trkpt lat="42.82774186" lon="13.51009109">
        <ele>203.00000</ele>
        <time>2024-02-16T13:45:06Z</time>
      </trkpt>
      <trkpt lat="42.82782174" lon="13.51011942">
        <ele>203.00000</ele>
        <time>2024-02-16T13:45:07Z</time>
      </trkpt>
      <trkpt lat="42.82790011" lon="13.51014808">
        <ele>203.00000</ele>
        <time>2024-02-16T13:45:08Z</time>
      </trkpt>
      <trkpt lat="42.82797857" lon="13.51017650">
        <ele>204.00000</ele>
        <time>2024-02-16T13:45:09Z</time>
      </trkpt>
      <trkpt lat="42.82805769" lon="13.51020399">
        <ele>204.00000</ele>
        <time>2024-02-16T13:45:10Z</time>
      </trkpt>
      <trkpt lat="42.82813698" lon="13.51023157">
        <ele>203.00000</ele>
        <time>2024-02-16T13:45:11Z</time>
      </trkpt>
      <trkpt lat="42.82823313" lon="13.51026677">
        <ele>202.00000</ele>
        <time>2024-02-16T13:45:12Z</time>
      </trkpt>
      <trkpt lat="42.82829624" lon="13.51028940">
        <ele>202.00000</ele>
        <time>2024-02-16T13:45:13Z</time>
      </trkpt>
      <trkpt lat="42.82837587" lon="13.51031731">
        <ele>201.00000</ele>
        <time>2024-02-16T13:45:14Z</time>
      </trkpt>
      <trkpt lat="42.82845499" lon="13.51034321">
        <ele>201.00000</ele>
        <time>2024-02-16T13:45:15Z</time>
      </trkpt>
      <trkpt lat="42.82853521" lon="13.51036777">
        <ele>202.00000</ele>
        <time>2024-02-16T13:45:16Z</time>
      </trkpt>
      <trkpt lat="42.82861601" lon="13.51039116">
        <ele>201.00000</ele>
        <time>2024-02-16T13:45:17Z</time>
      </trkpt>
      <trkpt lat="42.82871684" lon="13.51041982">
        <ele>201.00000</ele>
        <time>2024-02-16T13:45:18Z</time>
      </trkpt>
      <trkpt lat="42.82880150" lon="13.51044430">
        <ele>200.00000</ele>
        <time>2024-02-16T13:45:19Z</time>
      </trkpt>
      <trkpt lat="42.82886847" lon="13.51046592">
        <ele>200.00000</ele>
        <time>2024-02-16T13:45:20Z</time>
      </trkpt>
      <trkpt lat="42.82895221" lon="13.51049509">
        <ele>200.00000</ele>
        <time>2024-02-16T13:45:21Z</time>
      </trkpt>
      <trkpt lat="42.82903351" lon="13.51052309">
        <ele>199.00000</ele>
        <time>2024-02-16T13:45:22Z</time>
      </trkpt>
      <trkpt lat="42.82911884" lon="13.51055150">
        <ele>199.00000</ele>
        <time>2024-02-16T13:45:23Z</time>
      </trkpt>
      <trkpt lat="42.82920576" lon="13.51057950">
        <ele>199.00000</ele>
        <time>2024-02-16T13:45:24Z</time>
      </trkpt>
      <trkpt lat="42.82929134" lon="13.51061219">
        <ele>200.00000</ele>
        <time>2024-02-16T13:45:25Z</time>
      </trkpt>
      <trkpt lat="42.82937449" lon="13.51064329">
        <ele>200.00000</ele>
        <time>2024-02-16T13:45:26Z</time>
      </trkpt>
      <trkpt lat="42.82947775" lon="13.51067748">
        <ele>200.00000</ele>
        <time>2024-02-16T13:45:27Z</time>
      </trkpt>
      <trkpt lat="42.82954858" lon="13.51070296">
        <ele>200.00000</ele>
        <time>2024-02-16T13:45:28Z</time>
      </trkpt>
      <trkpt lat="42.82963676" lon="13.51073632">
        <ele>200.00000</ele>
        <time>2024-02-16T13:45:29Z</time>
      </trkpt>
      <trkpt lat="42.82972703" lon="13.51077639">
        <ele>199.00000</ele>
        <time>2024-02-16T13:45:30Z</time>
      </trkpt>
      <trkpt lat="42.82981479" lon="13.51082559">
        <ele>200.00000</ele>
        <time>2024-02-16T13:45:31Z</time>
      </trkpt>
      <trkpt lat="42.82989836" lon="13.51088544">
        <ele>200.00000</ele>
        <time>2024-02-16T13:45:32Z</time>
      </trkpt>
      <trkpt lat="42.82997841" lon="13.51095333">
        <ele>200.00000</ele>
        <time>2024-02-16T13:45:33Z</time>
      </trkpt>
      <trkpt lat="42.83005074" lon="13.51103824">
        <ele>199.00000</ele>
        <time>2024-02-16T13:45:34Z</time>
      </trkpt>
      <trkpt lat="42.83010757" lon="13.51114058">
        <ele>198.00000</ele>
        <time>2024-02-16T13:45:35Z</time>
      </trkpt>
      <trkpt lat="42.83014512" lon="13.51126397">
        <ele>196.00000</ele>
        <time>2024-02-16T13:45:36Z</time>
      </trkpt>
      <trkpt lat="42.83016490" lon="13.51138911">
        <ele>193.00000</ele>
        <time>2024-02-16T13:45:37Z</time>
      </trkpt>
      <trkpt lat="42.83017496" lon="13.51151291">
        <ele>193.00000</ele>
        <time>2024-02-16T13:45:38Z</time>
      </trkpt>
      <trkpt lat="42.83018435" lon="13.51163763">
        <ele>193.00000</ele>
        <time>2024-02-16T13:45:39Z</time>
      </trkpt>
      <trkpt lat="42.83019374" lon="13.51176168">
        <ele>194.00000</ele>
        <time>2024-02-16T13:45:40Z</time>
      </trkpt>
      <trkpt lat="42.83020396" lon="13.51188263">
        <ele>195.00000</ele>
        <time>2024-02-16T13:45:41Z</time>
      </trkpt>
      <trkpt lat="42.83021394" lon="13.51202504">
        <ele>197.00000</ele>
        <time>2024-02-16T13:45:42Z</time>
      </trkpt>
      <trkpt lat="42.83021938" lon="13.51214147">
        <ele>198.00000</ele>
        <time>2024-02-16T13:45:43Z</time>
      </trkpt>
      <trkpt lat="42.83022701" lon="13.51225630">
        <ele>199.00000</ele>
        <time>2024-02-16T13:45:44Z</time>
      </trkpt>
      <trkpt lat="42.83023498" lon="13.51234582">
        <ele>200.00000</ele>
        <time>2024-02-16T13:45:45Z</time>
      </trkpt>
      <trkpt lat="42.83024788" lon="13.51245646">
        <ele>200.00000</ele>
        <time>2024-02-16T13:45:46Z</time>
      </trkpt>
      <trkpt lat="42.83026264" lon="13.51256559">
        <ele>201.00000</ele>
        <time>2024-02-16T13:45:47Z</time>
      </trkpt>
      <trkpt lat="42.83028233" lon="13.51267514">
        <ele>201.00000</ele>
        <time>2024-02-16T13:45:48Z</time>
      </trkpt>
      <trkpt lat="42.83030044" lon="13.51277740">
        <ele>201.00000</ele>
        <time>2024-02-16T13:45:49Z</time>
      </trkpt>
      <trkpt lat="42.83031787" lon="13.51287740">
        <ele>202.00000</ele>
        <time>2024-02-16T13:45:50Z</time>
      </trkpt>
      <trkpt lat="42.83033137" lon="13.51297077">
        <ele>202.00000</ele>
        <time>2024-02-16T13:45:51Z</time>
      </trkpt>
      <trkpt lat="42.83035140" lon="13.51308259">
        <ele>202.00000</ele>
        <time>2024-02-16T13:45:52Z</time>
      </trkpt>
      <trkpt lat="42.83036942" lon="13.51315978">
        <ele>203.00000</ele>
        <time>2024-02-16T13:45:53Z</time>
      </trkpt>
      <trkpt lat="42.83039641" lon="13.51327151">
        <ele>203.00000</ele>
        <time>2024-02-16T13:45:54Z</time>
      </trkpt>
      <trkpt lat="42.83040823" lon="13.51333916">
        <ele>203.00000</ele>
        <time>2024-02-16T13:45:55Z</time>
      </trkpt>
      <trkpt lat="42.83042885" lon="13.51342373">
        <ele>203.00000</ele>
        <time>2024-02-16T13:45:56Z</time>
      </trkpt>
      <trkpt lat="42.83045056" lon="13.51350914">
        <ele>203.00000</ele>
        <time>2024-02-16T13:45:57Z</time>
      </trkpt>
      <trkpt lat="42.83046757" lon="13.51359296">
        <ele>203.00000</ele>
        <time>2024-02-16T13:45:58Z</time>
      </trkpt>
      <trkpt lat="42.83049129" lon="13.51369271">
        <ele>204.00000</ele>
        <time>2024-02-16T13:45:59Z</time>
      </trkpt>
      <trkpt lat="42.83051493" lon="13.51377259">
        <ele>204.00000</ele>
        <time>2024-02-16T13:46:00Z</time>
      </trkpt>
      <trkpt lat="42.83053605" lon="13.51383553">
        <ele>204.00000</ele>
        <time>2024-02-16T13:46:01Z</time>
      </trkpt>
      <trkpt lat="42.83055407" lon="13.51391172">
        <ele>205.00000</ele>
        <time>2024-02-16T13:46:02Z</time>
      </trkpt>
      <trkpt lat="42.83057620" lon="13.51399982">
        <ele>205.00000</ele>
        <time>2024-02-16T13:46:03Z</time>
      </trkpt>
      <trkpt lat="42.83059976" lon="13.51407794">
        <ele>205.00000</ele>
        <time>2024-02-16T13:46:04Z</time>
      </trkpt>
      <trkpt lat="42.83062163" lon="13.51415371">
        <ele>206.00000</ele>
        <time>2024-02-16T13:46:05Z</time>
      </trkpt>
      <trkpt lat="42.83064066" lon="13.51421440">
        <ele>206.00000</ele>
        <time>2024-02-16T13:46:06Z</time>
      </trkpt>
      <trkpt lat="42.83066581" lon="13.51429151">
        <ele>207.00000</ele>
        <time>2024-02-16T13:46:07Z</time>
      </trkpt>
      <trkpt lat="42.83069305" lon="13.51438027">
        <ele>207.00000</ele>
        <time>2024-02-16T13:46:08Z</time>
      </trkpt>
      <trkpt lat="42.83071635" lon="13.51445177">
        <ele>208.00000</ele>
        <time>2024-02-16T13:46:09Z</time>
      </trkpt>
      <trkpt lat="42.83073990" lon="13.51452427">
        <ele>208.00000</ele>
        <time>2024-02-16T13:46:10Z</time>
      </trkpt>
      <trkpt lat="42.83075843" lon="13.51458278">
        <ele>208.00000</ele>
        <time>2024-02-16T13:46:11Z</time>
      </trkpt>
      <trkpt lat="42.83077930" lon="13.51465369">
        <ele>208.00000</ele>
        <time>2024-02-16T13:46:12Z</time>
      </trkpt>
      <trkpt lat="42.83080587" lon="13.51474137">
        <ele>208.00000</ele>
        <time>2024-02-16T13:46:13Z</time>
      </trkpt>
      <trkpt lat="42.83083101" lon="13.51481580">
        <ele>207.00000</ele>
        <time>2024-02-16T13:46:14Z</time>
      </trkpt>
      <trkpt lat="42.83085524" lon="13.51488880">
        <ele>207.00000</ele>
        <time>2024-02-16T13:46:15Z</time>
      </trkpt>
      <trkpt lat="42.83087611" lon="13.51494706">
        <ele>207.00000</ele>
        <time>2024-02-16T13:46:16Z</time>
      </trkpt>
      <trkpt lat="42.83090377" lon="13.51502962">
        <ele>207.00000</ele>
        <time>2024-02-16T13:46:17Z</time>
      </trkpt>
      <trkpt lat="42.83092573" lon="13.51509978">
        <ele>207.00000</ele>
        <time>2024-02-16T13:46:18Z</time>
      </trkpt>
      <trkpt lat="42.83094861" lon="13.51516901">
        <ele>207.00000</ele>
        <time>2024-02-16T13:46:19Z</time>
      </trkpt>
      <trkpt lat="42.83096454" lon="13.51522534">
        <ele>207.00000</ele>
        <time>2024-02-16T13:46:20Z</time>
      </trkpt>
      <trkpt lat="42.83098415" lon="13.51529482">
        <ele>207.00000</ele>
        <time>2024-02-16T13:46:21Z</time>
      </trkpt>
      <trkpt lat="42.83100770" lon="13.51536473">
        <ele>207.00000</ele>
        <time>2024-02-16T13:46:22Z</time>
      </trkpt>
      <trkpt lat="42.83103235" lon="13.51543421">
        <ele>208.00000</ele>
        <time>2024-02-16T13:46:23Z</time>
      </trkpt>
      <trkpt lat="42.83105959" lon="13.51550135">
        <ele>208.00000</ele>
        <time>2024-02-16T13:46:24Z</time>
      </trkpt>
      <trkpt lat="42.83108884" lon="13.51556464">
        <ele>208.00000</ele>
        <time>2024-02-16T13:46:25Z</time>
      </trkpt>
      <trkpt lat="42.83112253" lon="13.51562675">
        <ele>208.00000</ele>
        <time>2024-02-16T13:46:26Z</time>
      </trkpt>
      <trkpt lat="42.83116620" lon="13.51570185">
        <ele>207.00000</ele>
        <time>2024-02-16T13:46:27Z</time>
      </trkpt>
      <trkpt lat="42.83120040" lon="13.51575021">
        <ele>207.00000</ele>
        <time>2024-02-16T13:46:28Z</time>
      </trkpt>
      <trkpt lat="42.83124223" lon="13.51580486">
        <ele>206.00000</ele>
        <time>2024-02-16T13:46:29Z</time>
      </trkpt>
      <trkpt lat="42.83128162" lon="13.51585574">
        <ele>206.00000</ele>
        <time>2024-02-16T13:46:30Z</time>
      </trkpt>
      <trkpt lat="42.83132663" lon="13.51590561">
        <ele>206.00000</ele>
        <time>2024-02-16T13:46:31Z</time>
      </trkpt>
      <trkpt lat="42.83137441" lon="13.51595414">
        <ele>205.00000</ele>
        <time>2024-02-16T13:46:32Z</time>
      </trkpt>
      <trkpt lat="42.83142252" lon="13.51600192">
        <ele>205.00000</ele>
        <time>2024-02-16T13:46:33Z</time>
      </trkpt>
      <trkpt lat="42.83146770" lon="13.51604752">
        <ele>205.00000</ele>
        <time>2024-02-16T13:46:34Z</time>
      </trkpt>
      <trkpt lat="42.83151322" lon="13.51609253">
        <ele>205.00000</ele>
        <time>2024-02-16T13:46:35Z</time>
      </trkpt>
      <trkpt lat="42.83156150" lon="13.51613645">
        <ele>205.00000</ele>
        <time>2024-02-16T13:46:36Z</time>
      </trkpt>
      <trkpt lat="42.83160952" lon="13.51618154">
        <ele>205.00000</ele>
        <time>2024-02-16T13:46:37Z</time>
      </trkpt>
      <trkpt lat="42.83165805" lon="13.51622764">
        <ele>206.00000</ele>
        <time>2024-02-16T13:46:38Z</time>
      </trkpt>
      <trkpt lat="42.83170801" lon="13.51627358">
        <ele>206.00000</ele>
        <time>2024-02-16T13:46:39Z</time>
      </trkpt>
      <trkpt lat="42.83176903" lon="13.51633183">
        <ele>207.00000</ele>
        <time>2024-02-16T13:46:40Z</time>
      </trkpt>
      <trkpt lat="42.83180876" lon="13.51637374">
        <ele>208.00000</ele>
        <time>2024-02-16T13:46:41Z</time>
      </trkpt>
      <trkpt lat="42.83185595" lon="13.51642102">
        <ele>208.00000</ele>
        <time>2024-02-16T13:46:42Z</time>
      </trkpt>
      <trkpt lat="42.83191295" lon="13.51647533">
        <ele>209.00000</ele>
        <time>2024-02-16T13:46:43Z</time>
      </trkpt>
      <trkpt lat="42.83196098" lon="13.51651732">
        <ele>210.00000</ele>
        <time>2024-02-16T13:46:44Z</time>
      </trkpt>
      <trkpt lat="42.83200758" lon="13.51655856">
        <ele>211.00000</ele>
        <time>2024-02-16T13:46:45Z</time>
      </trkpt>
      <trkpt lat="42.83204521" lon="13.51659444">
        <ele>211.00000</ele>
        <time>2024-02-16T13:46:46Z</time>
      </trkpt>
      <trkpt lat="42.83209274" lon="13.51663844">
        <ele>212.00000</ele>
        <time>2024-02-16T13:46:47Z</time>
      </trkpt>
      <trkpt lat="42.83215200" lon="13.51669234">
        <ele>213.00000</ele>
        <time>2024-02-16T13:46:48Z</time>
      </trkpt>
      <trkpt lat="42.83219877" lon="13.51673693">
        <ele>213.00000</ele>
        <time>2024-02-16T13:46:49Z</time>
      </trkpt>
      <trkpt lat="42.83224672" lon="13.51678236">
        <ele>214.00000</ele>
        <time>2024-02-16T13:46:50Z</time>
      </trkpt>
      <trkpt lat="42.83228477" lon="13.51682301">
        <ele>214.00000</ele>
        <time>2024-02-16T13:46:51Z</time>
      </trkpt>
      <trkpt lat="42.83232484" lon="13.51686744">
        <ele>214.00000</ele>
        <time>2024-02-16T13:46:52Z</time>
      </trkpt>
      <trkpt lat="42.83236515" lon="13.51690934">
        <ele>215.00000</ele>
        <time>2024-02-16T13:46:53Z</time>
      </trkpt>
      <trkpt lat="42.83241100" lon="13.51694958">
        <ele>216.00000</ele>
        <time>2024-02-16T13:46:54Z</time>
      </trkpt>
      <trkpt lat="42.83246976" lon="13.51700062">
        <ele>216.00000</ele>
        <time>2024-02-16T13:46:55Z</time>
      </trkpt>
      <trkpt lat="42.83251896" lon="13.51704337">
        <ele>216.00000</ele>
        <time>2024-02-16T13:46:56Z</time>
      </trkpt>
      <trkpt lat="42.83255819" lon="13.51708017">
        <ele>216.00000</ele>
        <time>2024-02-16T13:46:57Z</time>
      </trkpt>
      <trkpt lat="42.83261728" lon="13.51713515">
        <ele>216.00000</ele>
        <time>2024-02-16T13:46:58Z</time>
      </trkpt>
      <trkpt lat="42.83266749" lon="13.51717798">
        <ele>217.00000</ele>
        <time>2024-02-16T13:46:59Z</time>
      </trkpt>
      <trkpt lat="42.83271786" lon="13.51721461">
        <ele>218.00000</ele>
        <time>2024-02-16T13:47:00Z</time>
      </trkpt>
      <trkpt lat="42.83276665" lon="13.51724194">
        <ele>218.00000</ele>
        <time>2024-02-16T13:47:01Z</time>
      </trkpt>
      <trkpt lat="42.83281719" lon="13.51727513">
        <ele>218.00000</ele>
        <time>2024-02-16T13:47:02Z</time>
      </trkpt>
      <trkpt lat="42.83286991" lon="13.51730966">
        <ele>218.00000</ele>
        <time>2024-02-16T13:47:03Z</time>
      </trkpt>
      <trkpt lat="42.83291961" lon="13.51734168">
        <ele>218.00000</ele>
        <time>2024-02-16T13:47:04Z</time>
      </trkpt>
      <trkpt lat="42.83297142" lon="13.51737555">
        <ele>219.00000</ele>
        <time>2024-02-16T13:47:05Z</time>
      </trkpt>
      <trkpt lat="42.83301609" lon="13.51740413">
        <ele>219.00000</ele>
        <time>2024-02-16T13:47:06Z</time>
      </trkpt>
      <trkpt lat="42.83307912" lon="13.51744344">
        <ele>219.00000</ele>
        <time>2024-02-16T13:47:07Z</time>
      </trkpt>
      <trkpt lat="42.83313218" lon="13.51747521">
        <ele>218.00000</ele>
        <time>2024-02-16T13:47:08Z</time>
      </trkpt>
      <trkpt lat="42.83318809" lon="13.51750706">
        <ele>218.00000</ele>
        <time>2024-02-16T13:47:09Z</time>
      </trkpt>
      <trkpt lat="42.83324517" lon="13.51754109">
        <ele>218.00000</ele>
        <time>2024-02-16T13:47:10Z</time>
      </trkpt>
      <trkpt lat="42.83330191" lon="13.51757302">
        <ele>217.00000</ele>
        <time>2024-02-16T13:47:11Z</time>
      </trkpt>
      <trkpt lat="42.83335933" lon="13.51760605">
        <ele>217.00000</ele>
        <time>2024-02-16T13:47:12Z</time>
      </trkpt>
      <trkpt lat="42.83341440" lon="13.51764025">
        <ele>217.00000</ele>
        <time>2024-02-16T13:47:13Z</time>
      </trkpt>
      <trkpt lat="42.83346955" lon="13.51767193">
        <ele>217.00000</ele>
        <time>2024-02-16T13:47:14Z</time>
      </trkpt>
      <trkpt lat="42.83352806" lon="13.51770462">
        <ele>217.00000</ele>
        <time>2024-02-16T13:47:15Z</time>
      </trkpt>
      <trkpt lat="42.83358547" lon="13.51773572">
        <ele>217.00000</ele>
        <time>2024-02-16T13:47:16Z</time>
      </trkpt>
      <trkpt lat="42.83364054" lon="13.51776732">
        <ele>217.00000</ele>
        <time>2024-02-16T13:47:17Z</time>
      </trkpt>
      <trkpt lat="42.83369637" lon="13.51779531">
        <ele>217.00000</ele>
        <time>2024-02-16T13:47:18Z</time>
      </trkpt>
      <trkpt lat="42.83375219" lon="13.51782406">
        <ele>217.00000</ele>
        <time>2024-02-16T13:47:19Z</time>
      </trkpt>
      <trkpt lat="42.83380391" lon="13.51785474">
        <ele>217.00000</ele>
        <time>2024-02-16T13:47:20Z</time>
      </trkpt>
      <trkpt lat="42.83385789" lon="13.51787662">
        <ele>217.00000</ele>
        <time>2024-02-16T13:47:21Z</time>
      </trkpt>
      <trkpt lat="42.83391145" lon="13.51790545">
        <ele>218.00000</ele>
        <time>2024-02-16T13:47:22Z</time>
      </trkpt>
      <trkpt lat="42.83396040" lon="13.51794191">
        <ele>219.00000</ele>
        <time>2024-02-16T13:47:23Z</time>
      </trkpt>
      <trkpt lat="42.83401069" lon="13.51797955">
        <ele>219.00000</ele>
        <time>2024-02-16T13:47:24Z</time>
      </trkpt>
      <trkpt lat="42.83406215" lon="13.51802045">
        <ele>220.00000</ele>
        <time>2024-02-16T13:47:25Z</time>
      </trkpt>
      <trkpt lat="42.83411085" lon="13.51806278">
        <ele>220.00000</ele>
        <time>2024-02-16T13:47:26Z</time>
      </trkpt>
      <trkpt lat="42.83416969" lon="13.51810393">
        <ele>220.00000</ele>
        <time>2024-02-16T13:47:27Z</time>
      </trkpt>
      <trkpt lat="42.83422325" lon="13.51814517">
        <ele>220.00000</ele>
        <time>2024-02-16T13:47:28Z</time>
      </trkpt>
      <trkpt lat="42.83427690" lon="13.51819060">
        <ele>221.00000</ele>
        <time>2024-02-16T13:47:29Z</time>
      </trkpt>
      <trkpt lat="42.83433297" lon="13.51824651">
        <ele>221.00000</ele>
        <time>2024-02-16T13:47:30Z</time>
      </trkpt>
      <trkpt lat="42.83439014" lon="13.51830292">
        <ele>221.00000</ele>
        <time>2024-02-16T13:47:31Z</time>
      </trkpt>
      <trkpt lat="42.83444629" lon="13.51835564">
        <ele>221.00000</ele>
        <time>2024-02-16T13:47:32Z</time>
      </trkpt>
      <trkpt lat="42.83450170" lon="13.51840912">
        <ele>221.00000</ele>
        <time>2024-02-16T13:47:33Z</time>
      </trkpt>
      <trkpt lat="42.83455627" lon="13.51846930">
        <ele>221.00000</ele>
        <time>2024-02-16T13:47:34Z</time>
      </trkpt>
      <trkpt lat="42.83459801" lon="13.51852169">
        <ele>221.00000</ele>
        <time>2024-02-16T13:47:35Z</time>
      </trkpt>
      <trkpt lat="42.83465903" lon="13.51858254">
        <ele>221.00000</ele>
        <time>2024-02-16T13:47:36Z</time>
      </trkpt>
      <trkpt lat="42.83473421" lon="13.51866988">
        <ele>221.00000</ele>
        <time>2024-02-16T13:47:37Z</time>
      </trkpt>
      <trkpt lat="42.83481460" lon="13.51876518">
        <ele>221.00000</ele>
        <time>2024-02-16T13:47:38Z</time>
      </trkpt>
      <trkpt lat="42.83487972" lon="13.51885495">
        <ele>222.00000</ele>
        <time>2024-02-16T13:47:39Z</time>
      </trkpt>
      <trkpt lat="42.83494007" lon="13.51893165">
        <ele>222.00000</ele>
        <time>2024-02-16T13:47:40Z</time>
      </trkpt>
      <trkpt lat="42.83499103" lon="13.51900557">
        <ele>223.00000</ele>
        <time>2024-02-16T13:47:41Z</time>
      </trkpt>
      <trkpt lat="42.83503839" lon="13.51907841">
        <ele>224.00000</ele>
        <time>2024-02-16T13:47:42Z</time>
      </trkpt>
      <trkpt lat="42.83509531" lon="13.51912267">
        <ele>224.00000</ele>
        <time>2024-02-16T13:47:43Z</time>
      </trkpt>
      <trkpt lat="42.83516077" lon="13.51915502">
        <ele>223.00000</ele>
        <time>2024-02-16T13:47:44Z</time>
      </trkpt>
      <trkpt lat="42.83522606" lon="13.51919727">
        <ele>223.00000</ele>
        <time>2024-02-16T13:47:45Z</time>
      </trkpt>
      <trkpt lat="42.83525448" lon="13.51922149">
        <ele>223.00000</ele>
        <time>2024-02-16T13:47:46Z</time>
      </trkpt>
      <trkpt lat="42.83647664" lon="13.51975559">
        <ele>221.00000</ele>
        <time>2024-02-16T13:48:06Z</time>
      </trkpt>
      <trkpt lat="42.83652844" lon="13.51973438">
        <ele>219.00000</ele>
        <time>2024-02-16T13:48:07Z</time>
      </trkpt>
      <trkpt lat="42.83664780" lon="13.51971678">
        <ele>217.00000</ele>
        <time>2024-02-16T13:48:08Z</time>
      </trkpt>
      <trkpt lat="42.83673305" lon="13.51974830">
        <ele>216.00000</ele>
        <time>2024-02-16T13:48:09Z</time>
      </trkpt>
      <trkpt lat="42.83680689" lon="13.51979909">
        <ele>216.00000</ele>
        <time>2024-02-16T13:48:10Z</time>
      </trkpt>
      <trkpt lat="42.83684008" lon="13.51988794">
        <ele>218.00000</ele>
        <time>2024-02-16T13:48:11Z</time>
      </trkpt>
      <trkpt lat="42.83687680" lon="13.51997687">
        <ele>220.00000</ele>
        <time>2024-02-16T13:48:12Z</time>
      </trkpt>
      <trkpt lat="42.83696925" lon="13.52008164">
        <ele>220.00000</ele>
        <time>2024-02-16T13:48:13Z</time>
      </trkpt>
      <trkpt lat="42.83706815" lon="13.52019421">
        <ele>220.00000</ele>
        <time>2024-02-16T13:48:14Z</time>
      </trkpt>
      <trkpt lat="42.83714518" lon="13.52028968">
        <ele>221.00000</ele>
        <time>2024-02-16T13:48:15Z</time>
      </trkpt>
      <trkpt lat="42.83721911" lon="13.52037711">
        <ele>221.00000</ele>
        <time>2024-02-16T13:48:16Z</time>
      </trkpt>
      <trkpt lat="42.83728608" lon="13.52043243">
        <ele>221.00000</ele>
        <time>2024-02-16T13:48:17Z</time>
      </trkpt>
      <trkpt lat="42.83737435" lon="13.52049646">
        <ele>221.00000</ele>
        <time>2024-02-16T13:48:18Z</time>
      </trkpt>
      <trkpt lat="42.83747929" lon="13.52055246">
        <ele>221.00000</ele>
        <time>2024-02-16T13:48:19Z</time>
      </trkpt>
      <trkpt lat="42.83756269" lon="13.52058229">
        <ele>220.00000</ele>
        <time>2024-02-16T13:48:20Z</time>
      </trkpt>
      <trkpt lat="42.83764726" lon="13.52060778">
        <ele>219.00000</ele>
        <time>2024-02-16T13:48:21Z</time>
      </trkpt>
      <trkpt lat="42.83771742" lon="13.52062437">
        <ele>218.00000</ele>
        <time>2024-02-16T13:48:22Z</time>
      </trkpt>
      <trkpt lat="42.83780761" lon="13.52064868">
        <ele>216.00000</ele>
        <time>2024-02-16T13:48:23Z</time>
      </trkpt>
      <trkpt lat="42.83790878" lon="13.52070308">
        <ele>214.00000</ele>
        <time>2024-02-16T13:48:24Z</time>
      </trkpt>
      <trkpt lat="42.83798513" lon="13.52077223">
        <ele>212.00000</ele>
        <time>2024-02-16T13:48:25Z</time>
      </trkpt>
      <trkpt lat="42.83806032" lon="13.52086493">
        <ele>210.00000</ele>
        <time>2024-02-16T13:48:26Z</time>
      </trkpt>
      <trkpt lat="42.83806233" lon="13.52098722">
        <ele>210.00000</ele>
        <time>2024-02-16T13:48:27Z</time>
      </trkpt>
      <trkpt lat="42.83808890" lon="13.52116366">
        <ele>210.00000</ele>
        <time>2024-02-16T13:48:28Z</time>
      </trkpt>
      <trkpt lat="42.83810810" lon="13.52130917">
        <ele>210.00000</ele>
        <time>2024-02-16T13:48:29Z</time>
      </trkpt>
      <trkpt lat="42.83814003" lon="13.52145234">
        <ele>209.00000</ele>
        <time>2024-02-16T13:48:30Z</time>
      </trkpt>
      <trkpt lat="42.83818404" lon="13.52158552">
        <ele>207.00000</ele>
        <time>2024-02-16T13:48:31Z</time>
      </trkpt>
      <trkpt lat="42.83824070" lon="13.52171008">
        <ele>206.00000</ele>
        <time>2024-02-16T13:48:32Z</time>
      </trkpt>
      <trkpt lat="42.83829434" lon="13.52180446">
        <ele>206.00000</ele>
        <time>2024-02-16T13:48:33Z</time>
      </trkpt>
      <trkpt lat="42.83838344" lon="13.52193899">
        <ele>205.00000</ele>
        <time>2024-02-16T13:48:34Z</time>
      </trkpt>
      <trkpt lat="42.83845787" lon="13.52204494">
        <ele>206.00000</ele>
        <time>2024-02-16T13:48:35Z</time>
      </trkpt>
      <trkpt lat="42.83851730" lon="13.52213018">
        <ele>206.00000</ele>
        <time>2024-02-16T13:48:36Z</time>
      </trkpt>
      <trkpt lat="42.83859316" lon="13.52223671">
        <ele>206.00000</ele>
        <time>2024-02-16T13:48:37Z</time>
      </trkpt>
      <trkpt lat="42.83868142" lon="13.52236043">
        <ele>206.00000</ele>
        <time>2024-02-16T13:48:38Z</time>
      </trkpt>
      <trkpt lat="42.83873875" lon="13.52244324">
        <ele>206.00000</ele>
        <time>2024-02-16T13:48:39Z</time>
      </trkpt>
      <trkpt lat="42.83881243" lon="13.52254617">
        <ele>206.00000</ele>
        <time>2024-02-16T13:48:40Z</time>
      </trkpt>
      <trkpt lat="42.83888082" lon="13.52264827">
        <ele>207.00000</ele>
        <time>2024-02-16T13:48:41Z</time>
      </trkpt>
      <trkpt lat="42.83895920" lon="13.52275145">
        <ele>207.00000</ele>
        <time>2024-02-16T13:48:42Z</time>
      </trkpt>
      <trkpt lat="42.83903765" lon="13.52284600">
        <ele>207.00000</ele>
        <time>2024-02-16T13:48:43Z</time>
      </trkpt>
      <trkpt lat="42.83911929" lon="13.52292839">
        <ele>206.00000</ele>
        <time>2024-02-16T13:48:44Z</time>
      </trkpt>
      <trkpt lat="42.83921283" lon="13.52299327">
        <ele>206.00000</ele>
        <time>2024-02-16T13:48:45Z</time>
      </trkpt>
      <trkpt lat="42.83933336" lon="13.52303945">
        <ele>205.00000</ele>
        <time>2024-02-16T13:48:46Z</time>
      </trkpt>
      <trkpt lat="42.83941718" lon="13.52305202">
        <ele>204.00000</ele>
        <time>2024-02-16T13:48:47Z</time>
      </trkpt>
      <trkpt lat="42.83952296" lon="13.52305940">
        <ele>203.00000</ele>
        <time>2024-02-16T13:48:48Z</time>
      </trkpt>
      <trkpt lat="42.83962438" lon="13.52306074">
        <ele>202.00000</ele>
        <time>2024-02-16T13:48:49Z</time>
      </trkpt>
      <trkpt lat="42.83972941" lon="13.52306166">
        <ele>200.00000</ele>
        <time>2024-02-16T13:48:50Z</time>
      </trkpt>
      <trkpt lat="42.83983628" lon="13.52306409">
        <ele>199.00000</ele>
        <time>2024-02-16T13:48:51Z</time>
      </trkpt>
      <trkpt lat="42.83994390" lon="13.52306602">
        <ele>197.00000</ele>
        <time>2024-02-16T13:48:52Z</time>
      </trkpt>
      <trkpt lat="42.84004750" lon="13.52306795">
        <ele>197.00000</ele>
        <time>2024-02-16T13:48:53Z</time>
      </trkpt>
      <trkpt lat="42.84016753" lon="13.52307138">
        <ele>197.00000</ele>
        <time>2024-02-16T13:48:54Z</time>
      </trkpt>
      <trkpt lat="42.84025043" lon="13.52307239">
        <ele>197.00000</ele>
        <time>2024-02-16T13:48:55Z</time>
      </trkpt>
      <trkpt lat="42.84035252" lon="13.52307423">
        <ele>198.00000</ele>
        <time>2024-02-16T13:48:56Z</time>
      </trkpt>
      <trkpt lat="42.84044690" lon="13.52307457">
        <ele>199.00000</ele>
        <time>2024-02-16T13:48:57Z</time>
      </trkpt>
      <trkpt lat="42.84054229" lon="13.52307717">
        <ele>201.00000</ele>
        <time>2024-02-16T13:48:58Z</time>
      </trkpt>
      <trkpt lat="42.84065544" lon="13.52308169">
        <ele>201.00000</ele>
        <time>2024-02-16T13:48:59Z</time>
      </trkpt>
      <trkpt lat="42.84074488" lon="13.52308572">
        <ele>201.00000</ele>
        <time>2024-02-16T13:49:00Z</time>
      </trkpt>
      <trkpt lat="42.84083113" lon="13.52309226">
        <ele>201.00000</ele>
        <time>2024-02-16T13:49:01Z</time>
      </trkpt>
      <trkpt lat="42.84089969" lon="13.52310089">
        <ele>201.00000</ele>
        <time>2024-02-16T13:49:02Z</time>
      </trkpt>
      <trkpt lat="42.84098083" lon="13.52311732">
        <ele>200.00000</ele>
        <time>2024-02-16T13:49:03Z</time>
      </trkpt>
      <trkpt lat="42.84108074" lon="13.52314716">
        <ele>200.00000</ele>
        <time>2024-02-16T13:49:04Z</time>
      </trkpt>
      <trkpt lat="42.84116255" lon="13.52318521">
        <ele>200.00000</ele>
        <time>2024-02-16T13:49:05Z</time>
      </trkpt>
      <trkpt lat="42.84123312" lon="13.52322972">
        <ele>200.00000</ele>
        <time>2024-02-16T13:49:06Z</time>
      </trkpt>
      <trkpt lat="42.84130328" lon="13.52328864">
        <ele>199.00000</ele>
        <time>2024-02-16T13:49:07Z</time>
      </trkpt>
      <trkpt lat="42.84137620" lon="13.52336215">
        <ele>199.00000</ele>
        <time>2024-02-16T13:49:08Z</time>
      </trkpt>
      <trkpt lat="42.84144250" lon="13.52343801">
        <ele>198.00000</ele>
        <time>2024-02-16T13:49:09Z</time>
      </trkpt>
      <trkpt lat="42.84150729" lon="13.52352275">
        <ele>197.00000</ele>
        <time>2024-02-16T13:49:10Z</time>
      </trkpt>
      <trkpt lat="42.84155063" lon="13.52359785">
        <ele>196.00000</ele>
        <time>2024-02-16T13:49:11Z</time>
      </trkpt>
      <trkpt lat="42.84160075" lon="13.52369827">
        <ele>195.00000</ele>
        <time>2024-02-16T13:49:12Z</time>
      </trkpt>
      <trkpt lat="42.84163705" lon="13.52380111">
        <ele>195.00000</ele>
        <time>2024-02-16T13:49:13Z</time>
      </trkpt>
      <trkpt lat="42.84167175" lon="13.52390899">
        <ele>196.00000</ele>
        <time>2024-02-16T13:49:14Z</time>
      </trkpt>
      <trkpt lat="42.84170561" lon="13.52401552">
        <ele>197.00000</ele>
        <time>2024-02-16T13:49:15Z</time>
      </trkpt>
      <trkpt lat="42.84174903" lon="13.52412574">
        <ele>197.00000</ele>
        <time>2024-02-16T13:49:16Z</time>
      </trkpt>
      <trkpt lat="42.84179412" lon="13.52423127">
        <ele>198.00000</ele>
        <time>2024-02-16T13:49:17Z</time>
      </trkpt>
      <trkpt lat="42.84184274" lon="13.52433202">
        <ele>199.00000</ele>
        <time>2024-02-16T13:49:18Z</time>
      </trkpt>
      <trkpt lat="42.84190560" lon="13.52442565">
        <ele>200.00000</ele>
        <time>2024-02-16T13:49:19Z</time>
      </trkpt>
      <trkpt lat="42.84197551" lon="13.52450444">
        <ele>200.00000</ele>
        <time>2024-02-16T13:49:20Z</time>
      </trkpt>
      <trkpt lat="42.84205329" lon="13.52456999">
        <ele>200.00000</ele>
        <time>2024-02-16T13:49:21Z</time>
      </trkpt>
      <trkpt lat="42.84213786" lon="13.52462598">
        <ele>199.00000</ele>
        <time>2024-02-16T13:49:22Z</time>
      </trkpt>
      <trkpt lat="42.84222579" lon="13.52467518">
        <ele>197.00000</ele>
        <time>2024-02-16T13:49:23Z</time>
      </trkpt>
      <trkpt lat="42.84231598" lon="13.52472228">
        <ele>195.00000</ele>
        <time>2024-02-16T13:49:24Z</time>
      </trkpt>
      <trkpt lat="42.84241019" lon="13.52476771">
        <ele>193.00000</ele>
        <time>2024-02-16T13:49:25Z</time>
      </trkpt>
      <trkpt lat="42.84252310" lon="13.52481851">
        <ele>192.00000</ele>
        <time>2024-02-16T13:49:26Z</time>
      </trkpt>
      <trkpt lat="42.84259107" lon="13.52485455">
        <ele>192.00000</ele>
        <time>2024-02-16T13:49:27Z</time>
      </trkpt>
      <trkpt lat="42.84268202" lon="13.52490803">
        <ele>193.00000</ele>
        <time>2024-02-16T13:49:28Z</time>
      </trkpt>
      <trkpt lat="42.84278620" lon="13.52498305">
        <ele>194.00000</ele>
        <time>2024-02-16T13:49:29Z</time>
      </trkpt>
      <trkpt lat="42.84286407" lon="13.52505370">
        <ele>196.00000</ele>
        <time>2024-02-16T13:49:30Z</time>
      </trkpt>
      <trkpt lat="42.84294085" lon="13.52512713">
        <ele>197.00000</ele>
        <time>2024-02-16T13:49:31Z</time>
      </trkpt>
      <trkpt lat="42.84300120" lon="13.52519033">
        <ele>198.00000</ele>
        <time>2024-02-16T13:49:32Z</time>
      </trkpt>
      <trkpt lat="42.84307731" lon="13.52526920">
        <ele>198.00000</ele>
        <time>2024-02-16T13:49:33Z</time>
      </trkpt>
      <trkpt lat="42.84316951" lon="13.52536325">
        <ele>196.00000</ele>
        <time>2024-02-16T13:49:34Z</time>
      </trkpt>
      <trkpt lat="42.84324612" lon="13.52544564">
        <ele>194.00000</ele>
        <time>2024-02-16T13:49:35Z</time>
      </trkpt>
      <trkpt lat="42.84332441" lon="13.52552577">
        <ele>192.00000</ele>
        <time>2024-02-16T13:49:36Z</time>
      </trkpt>
      <trkpt lat="42.84340085" lon="13.52560264">
        <ele>191.00000</ele>
        <time>2024-02-16T13:49:37Z</time>
      </trkpt>
      <trkpt lat="42.84346212" lon="13.52566299">
        <ele>190.00000</ele>
        <time>2024-02-16T13:49:38Z</time>
      </trkpt>
      <trkpt lat="42.84355675" lon="13.52575058">
        <ele>189.00000</ele>
        <time>2024-02-16T13:49:39Z</time>
      </trkpt>
      <trkpt lat="42.84363479" lon="13.52582367">
        <ele>188.00000</ele>
        <time>2024-02-16T13:49:40Z</time>
      </trkpt>
      <trkpt lat="42.84371408" lon="13.52589567">
        <ele>190.00000</ele>
        <time>2024-02-16T13:49:41Z</time>
      </trkpt>
      <trkpt lat="42.84379052" lon="13.52595954">
        <ele>191.00000</ele>
        <time>2024-02-16T13:49:42Z</time>
      </trkpt>
      <trkpt lat="42.84385071" lon="13.52601352">
        <ele>191.00000</ele>
        <time>2024-02-16T13:49:43Z</time>
      </trkpt>
      <trkpt lat="42.84392363" lon="13.52607822">
        <ele>192.00000</ele>
        <time>2024-02-16T13:49:44Z</time>
      </trkpt>
      <trkpt lat="42.84400703" lon="13.52614788">
        <ele>193.00000</ele>
        <time>2024-02-16T13:49:45Z</time>
      </trkpt>
      <trkpt lat="42.84407651" lon="13.52620027">
        <ele>193.00000</ele>
        <time>2024-02-16T13:49:46Z</time>
      </trkpt>
      <trkpt lat="42.84414240" lon="13.52624720">
        <ele>194.00000</ele>
        <time>2024-02-16T13:49:47Z</time>
      </trkpt>
      <trkpt lat="42.84419378" lon="13.52628442">
        <ele>193.00000</ele>
        <time>2024-02-16T13:49:48Z</time>
      </trkpt>
      <trkpt lat="42.84426058" lon="13.52632918">
        <ele>192.00000</ele>
        <time>2024-02-16T13:49:49Z</time>
      </trkpt>
      <trkpt lat="42.84434348" lon="13.52638148">
        <ele>192.00000</ele>
        <time>2024-02-16T13:49:50Z</time>
      </trkpt>
      <trkpt lat="42.84440919" lon="13.52642515">
        <ele>191.00000</ele>
        <time>2024-02-16T13:49:51Z</time>
      </trkpt>
      <trkpt lat="42.84447139" lon="13.52646916">
        <ele>190.00000</ele>
        <time>2024-02-16T13:49:52Z</time>
      </trkpt>
      <trkpt lat="42.84453601" lon="13.52651643">
        <ele>190.00000</ele>
        <time>2024-02-16T13:49:53Z</time>
      </trkpt>
      <trkpt lat="42.84459913" lon="13.52656664">
        <ele>190.00000</ele>
        <time>2024-02-16T13:49:54Z</time>
      </trkpt>
      <trkpt lat="42.84466275" lon="13.52661961">
        <ele>190.00000</ele>
        <time>2024-02-16T13:49:55Z</time>
      </trkpt>
      <trkpt lat="42.84472871" lon="13.52667745">
        <ele>191.00000</ele>
        <time>2024-02-16T13:49:56Z</time>
      </trkpt>
      <trkpt lat="42.84479593" lon="13.52673218">
        <ele>190.00000</ele>
        <time>2024-02-16T13:49:57Z</time>
      </trkpt>
      <trkpt lat="42.84486986" lon="13.52678901">
        <ele>190.00000</ele>
        <time>2024-02-16T13:49:58Z</time>
      </trkpt>
      <trkpt lat="42.84494379" lon="13.52684668">
        <ele>189.00000</ele>
        <time>2024-02-16T13:49:59Z</time>
      </trkpt>
      <trkpt lat="42.84501831" lon="13.52690359">
        <ele>189.00000</ele>
        <time>2024-02-16T13:50:00Z</time>
      </trkpt>
      <trkpt lat="42.84509500" lon="13.52695933">
        <ele>189.00000</ele>
        <time>2024-02-16T13:50:01Z</time>
      </trkpt>
      <trkpt lat="42.84517387" lon="13.52701792">
        <ele>188.00000</ele>
        <time>2024-02-16T13:50:02Z</time>
      </trkpt>
      <trkpt lat="42.84523439" lon="13.52707014">
        <ele>188.00000</ele>
        <time>2024-02-16T13:50:03Z</time>
      </trkpt>
      <trkpt lat="42.84530824" lon="13.52714197">
        <ele>188.00000</ele>
        <time>2024-02-16T13:50:04Z</time>
      </trkpt>
      <trkpt lat="42.84539130" lon="13.52724113">
        <ele>188.00000</ele>
        <time>2024-02-16T13:50:05Z</time>
      </trkpt>
      <trkpt lat="42.84546121" lon="13.52733886">
        <ele>188.00000</ele>
        <time>2024-02-16T13:50:06Z</time>
      </trkpt>
      <trkpt lat="42.84553404" lon="13.52745110">
        <ele>188.00000</ele>
        <time>2024-02-16T13:50:07Z</time>
      </trkpt>
      <trkpt lat="42.84558249" lon="13.52754623">
        <ele>188.00000</ele>
        <time>2024-02-16T13:50:08Z</time>
      </trkpt>
      <trkpt lat="42.84563731" lon="13.52766551">
        <ele>188.00000</ele>
        <time>2024-02-16T13:50:09Z</time>
      </trkpt>
      <trkpt lat="42.84568886" lon="13.52779534">
        <ele>187.00000</ele>
        <time>2024-02-16T13:50:10Z</time>
      </trkpt>
      <trkpt lat="42.84574393" lon="13.52789718">
        <ele>186.00000</ele>
        <time>2024-02-16T13:50:11Z</time>
      </trkpt>
      <trkpt lat="42.84578902" lon="13.52796734">
        <ele>185.00000</ele>
        <time>2024-02-16T13:50:12Z</time>
      </trkpt>
      <trkpt lat="42.84585859" lon="13.52805007">
        <ele>184.00000</ele>
        <time>2024-02-16T13:50:13Z</time>
      </trkpt>
      <trkpt lat="42.84593654" lon="13.52812441">
        <ele>185.00000</ele>
        <time>2024-02-16T13:50:14Z</time>
      </trkpt>
      <trkpt lat="42.84603268" lon="13.52820597">
        <ele>186.00000</ele>
        <time>2024-02-16T13:50:15Z</time>
      </trkpt>
      <trkpt lat="42.84611164" lon="13.52827277">
        <ele>185.00000</ele>
        <time>2024-02-16T13:50:16Z</time>
      </trkpt>
      <trkpt lat="42.84617534" lon="13.52832793">
        <ele>185.00000</ele>
        <time>2024-02-16T13:50:17Z</time>
      </trkpt>
      <trkpt lat="42.84627090" lon="13.52840898">
        <ele>185.00000</ele>
        <time>2024-02-16T13:50:18Z</time>
      </trkpt>
      <trkpt lat="42.84634952" lon="13.52847553">
        <ele>184.00000</ele>
        <time>2024-02-16T13:50:19Z</time>
      </trkpt>
      <trkpt lat="42.84642831" lon="13.52853848">
        <ele>184.00000</ele>
        <time>2024-02-16T13:50:20Z</time>
      </trkpt>
      <trkpt lat="42.84650769" lon="13.52860193">
        <ele>184.00000</ele>
        <time>2024-02-16T13:50:21Z</time>
      </trkpt>
      <trkpt lat="42.84657072" lon="13.52865390">
        <ele>184.00000</ele>
        <time>2024-02-16T13:50:22Z</time>
      </trkpt>
      <trkpt lat="42.84665026" lon="13.52871551">
        <ele>184.00000</ele>
        <time>2024-02-16T13:50:23Z</time>
      </trkpt>
      <trkpt lat="42.84674481" lon="13.52879270">
        <ele>184.00000</ele>
        <time>2024-02-16T13:50:24Z</time>
      </trkpt>
      <trkpt lat="42.84682335" lon="13.52885414">
        <ele>184.00000</ele>
        <time>2024-02-16T13:50:25Z</time>
      </trkpt>
      <trkpt lat="42.84688713" lon="13.52890402">
        <ele>184.00000</ele>
        <time>2024-02-16T13:50:26Z</time>
      </trkpt>
      <trkpt lat="42.84698093" lon="13.52898012">
        <ele>185.00000</ele>
        <time>2024-02-16T13:50:27Z</time>
      </trkpt>
      <trkpt lat="42.84704212" lon="13.52903125">
        <ele>185.00000</ele>
        <time>2024-02-16T13:50:28Z</time>
      </trkpt>
      <trkpt lat="42.84711571" lon="13.52909320">
        <ele>185.00000</ele>
        <time>2024-02-16T13:50:29Z</time>
      </trkpt>
      <trkpt lat="42.84720498" lon="13.52917056">
        <ele>186.00000</ele>
        <time>2024-02-16T13:50:30Z</time>
      </trkpt>
      <trkpt lat="42.84728016" lon="13.52923611">
        <ele>186.00000</ele>
        <time>2024-02-16T13:50:31Z</time>
      </trkpt>
      <trkpt lat="42.84735191" lon="13.52929721">
        <ele>186.00000</ele>
        <time>2024-02-16T13:50:32Z</time>
      </trkpt>
      <trkpt lat="42.84740975" lon="13.52934348">
        <ele>186.00000</ele>
        <time>2024-02-16T13:50:33Z</time>
      </trkpt>
      <trkpt lat="42.84749583" lon="13.52941523">
        <ele>186.00000</ele>
        <time>2024-02-16T13:50:34Z</time>
      </trkpt>
      <trkpt lat="42.84756573" lon="13.52947248">
        <ele>187.00000</ele>
        <time>2024-02-16T13:50:35Z</time>
      </trkpt>
      <trkpt lat="42.84763128" lon="13.52952419">
        <ele>188.00000</ele>
        <time>2024-02-16T13:50:36Z</time>
      </trkpt>
      <trkpt lat="42.84769205" lon="13.52957515">
        <ele>189.00000</ele>
        <time>2024-02-16T13:50:37Z</time>
      </trkpt>
      <trkpt lat="42.84775852" lon="13.52963198">
        <ele>190.00000</ele>
        <time>2024-02-16T13:50:38Z</time>
      </trkpt>
      <trkpt lat="42.84782448" lon="13.52968487">
        <ele>190.00000</ele>
        <time>2024-02-16T13:50:39Z</time>
      </trkpt>
      <trkpt lat="42.84788793" lon="13.52973290">
        <ele>190.00000</ele>
        <time>2024-02-16T13:50:40Z</time>
      </trkpt>
      <trkpt lat="42.84795423" lon="13.52977900">
        <ele>190.00000</ele>
        <time>2024-02-16T13:50:41Z</time>
      </trkpt>
      <trkpt lat="42.84801467" lon="13.52981748">
        <ele>190.00000</ele>
        <time>2024-02-16T13:50:42Z</time>
      </trkpt>
      <trkpt lat="42.84807468" lon="13.52985142">
        <ele>189.00000</ele>
        <time>2024-02-16T13:50:43Z</time>
      </trkpt>
      <trkpt lat="42.84813486" lon="13.52988176">
        <ele>190.00000</ele>
        <time>2024-02-16T13:50:44Z</time>
      </trkpt>
      <trkpt lat="42.84819002" lon="13.52991336">
        <ele>190.00000</ele>
        <time>2024-02-16T13:50:45Z</time>
      </trkpt>
      <trkpt lat="42.84824735" lon="13.52994538">
        <ele>191.00000</ele>
        <time>2024-02-16T13:50:46Z</time>
      </trkpt>
      <trkpt lat="42.84830426" lon="13.52997438">
        <ele>191.00000</ele>
        <time>2024-02-16T13:50:47Z</time>
      </trkpt>
      <trkpt lat="42.84836201" lon="13.52999936">
        <ele>191.00000</ele>
        <time>2024-02-16T13:50:48Z</time>
      </trkpt>
      <trkpt lat="42.84842102" lon="13.53002199">
        <ele>192.00000</ele>
        <time>2024-02-16T13:50:49Z</time>
      </trkpt>
      <trkpt lat="42.84848204" lon="13.53004555">
        <ele>193.00000</ele>
        <time>2024-02-16T13:50:50Z</time>
      </trkpt>
      <trkpt lat="42.84854013" lon="13.53006893">
        <ele>193.00000</ele>
        <time>2024-02-16T13:50:51Z</time>
      </trkpt>
      <trkpt lat="42.84859696" lon="13.53009014">
        <ele>193.00000</ele>
        <time>2024-02-16T13:50:52Z</time>
      </trkpt>
      <trkpt lat="42.84865756" lon="13.53011202">
        <ele>194.00000</ele>
        <time>2024-02-16T13:50:53Z</time>
      </trkpt>
      <trkpt lat="42.84871380" lon="13.53012870">
        <ele>194.00000</ele>
        <time>2024-02-16T13:50:54Z</time>
      </trkpt>
      <trkpt lat="42.84876979" lon="13.53014429">
        <ele>194.00000</ele>
        <time>2024-02-16T13:50:55Z</time>
      </trkpt>
      <trkpt lat="42.84882922" lon="13.53017136">
        <ele>194.00000</ele>
        <time>2024-02-16T13:50:56Z</time>
      </trkpt>
      <trkpt lat="42.84888664" lon="13.53020061">
        <ele>195.00000</ele>
        <time>2024-02-16T13:50:57Z</time>
      </trkpt>
      <trkpt lat="42.84893567" lon="13.53022919">
        <ele>195.00000</ele>
        <time>2024-02-16T13:50:58Z</time>
      </trkpt>
      <trkpt lat="42.84900390" lon="13.53027295">
        <ele>194.00000</ele>
        <time>2024-02-16T13:50:59Z</time>
      </trkpt>
      <trkpt lat="42.84905696" lon="13.53031670">
        <ele>194.00000</ele>
        <time>2024-02-16T13:51:00Z</time>
      </trkpt>
      <trkpt lat="42.84910792" lon="13.53036381">
        <ele>194.00000</ele>
        <time>2024-02-16T13:51:01Z</time>
      </trkpt>
      <trkpt lat="42.84915704" lon="13.53041284">
        <ele>194.00000</ele>
        <time>2024-02-16T13:51:02Z</time>
      </trkpt>
      <trkpt lat="42.84919769" lon="13.53045903">
        <ele>193.00000</ele>
        <time>2024-02-16T13:51:03Z</time>
      </trkpt>
      <trkpt lat="42.84925955" lon="13.53053111">
        <ele>193.00000</ele>
        <time>2024-02-16T13:51:04Z</time>
      </trkpt>
      <trkpt lat="42.84931495" lon="13.53059624">
        <ele>193.00000</ele>
        <time>2024-02-16T13:51:05Z</time>
      </trkpt>
      <trkpt lat="42.84936080" lon="13.53065952">
        <ele>194.00000</ele>
        <time>2024-02-16T13:51:06Z</time>
      </trkpt>
      <trkpt lat="42.84940179" lon="13.53072448">
        <ele>194.00000</ele>
        <time>2024-02-16T13:51:07Z</time>
      </trkpt>
      <trkpt lat="42.84944429" lon="13.53079657">
        <ele>195.00000</ele>
        <time>2024-02-16T13:51:08Z</time>
      </trkpt>
      <trkpt lat="42.84948351" lon="13.53087460">
        <ele>196.00000</ele>
        <time>2024-02-16T13:51:09Z</time>
      </trkpt>
      <trkpt lat="42.84951897" lon="13.53095599">
        <ele>197.00000</ele>
        <time>2024-02-16T13:51:10Z</time>
      </trkpt>
      <trkpt lat="42.84955761" lon="13.53104190">
        <ele>198.00000</ele>
        <time>2024-02-16T13:51:11Z</time>
      </trkpt>
      <trkpt lat="42.84958862" lon="13.53111349">
        <ele>198.00000</ele>
        <time>2024-02-16T13:51:12Z</time>
      </trkpt>
      <trkpt lat="42.84962223" lon="13.53120250">
        <ele>198.00000</ele>
        <time>2024-02-16T13:51:13Z</time>
      </trkpt>
      <trkpt lat="42.84965601" lon="13.53131155">
        <ele>198.00000</ele>
        <time>2024-02-16T13:51:14Z</time>
      </trkpt>
      <trkpt lat="42.84968283" lon="13.53140484">
        <ele>198.00000</ele>
        <time>2024-02-16T13:51:15Z</time>
      </trkpt>
      <trkpt lat="42.84970999" lon="13.53150207">
        <ele>198.00000</ele>
        <time>2024-02-16T13:51:16Z</time>
      </trkpt>
      <trkpt lat="42.84973497" lon="13.53159980">
        <ele>198.00000</ele>
        <time>2024-02-16T13:51:17Z</time>
      </trkpt>
      <trkpt lat="42.84975433" lon="13.53168379">
        <ele>197.00000</ele>
        <time>2024-02-16T13:51:18Z</time>
      </trkpt>
      <trkpt lat="42.84978535" lon="13.53180969">
        <ele>196.00000</ele>
        <time>2024-02-16T13:51:19Z</time>
      </trkpt>
      <trkpt lat="42.84980664" lon="13.53191320">
        <ele>195.00000</ele>
        <time>2024-02-16T13:51:20Z</time>
      </trkpt>
      <trkpt lat="42.84982700" lon="13.53202058">
        <ele>194.00000</ele>
        <time>2024-02-16T13:51:21Z</time>
      </trkpt>
      <trkpt lat="42.84984041" lon="13.53210926">
        <ele>195.00000</ele>
        <time>2024-02-16T13:51:22Z</time>
      </trkpt>
      <trkpt lat="42.84985366" lon="13.53221671">
        <ele>195.00000</ele>
        <time>2024-02-16T13:51:23Z</time>
      </trkpt>
      <trkpt lat="42.84986883" lon="13.53235166">
        <ele>196.00000</ele>
        <time>2024-02-16T13:51:24Z</time>
      </trkpt>
      <trkpt lat="42.84987822" lon="13.53246373">
        <ele>197.00000</ele>
        <time>2024-02-16T13:51:25Z</time>
      </trkpt>
      <trkpt lat="42.84988677" lon="13.53255643">
        <ele>197.00000</ele>
        <time>2024-02-16T13:51:26Z</time>
      </trkpt>
      <trkpt lat="42.84989054" lon="13.53266967">
        <ele>197.00000</ele>
        <time>2024-02-16T13:51:27Z</time>
      </trkpt>
      <trkpt lat="42.84989356" lon="13.53280906">
        <ele>197.00000</ele>
        <time>2024-02-16T13:51:28Z</time>
      </trkpt>
      <trkpt lat="42.84989733" lon="13.53292800">
        <ele>197.00000</ele>
        <time>2024-02-16T13:51:29Z</time>
      </trkpt>
      <trkpt lat="42.84990102" lon="13.53304987">
        <ele>196.00000</ele>
        <time>2024-02-16T13:51:30Z</time>
      </trkpt>
      <trkpt lat="42.84990571" lon="13.53314761">
        <ele>194.00000</ele>
        <time>2024-02-16T13:51:31Z</time>
      </trkpt>
      <trkpt lat="42.84990948" lon="13.53326923">
        <ele>193.00000</ele>
        <time>2024-02-16T13:51:32Z</time>
      </trkpt>
      <trkpt lat="42.84990806" lon="13.53339085">
        <ele>191.00000</ele>
        <time>2024-02-16T13:51:33Z</time>
      </trkpt>
      <trkpt lat="42.84990487" lon="13.53353586">
        <ele>189.00000</ele>
        <time>2024-02-16T13:51:34Z</time>
      </trkpt>
      <trkpt lat="42.84990102" lon="13.53365689">
        <ele>188.00000</ele>
        <time>2024-02-16T13:51:35Z</time>
      </trkpt>
      <trkpt lat="42.84990202" lon="13.53375454">
        <ele>187.00000</ele>
        <time>2024-02-16T13:51:36Z</time>
      </trkpt>
      <trkpt lat="42.84990462" lon="13.53387851">
        <ele>186.00000</ele>
        <time>2024-02-16T13:51:37Z</time>
      </trkpt>
      <trkpt lat="42.84990319" lon="13.53400281">
        <ele>185.00000</ele>
        <time>2024-02-16T13:51:38Z</time>
      </trkpt>
      <trkpt lat="42.84990185" lon="13.53412678">
        <ele>184.00000</ele>
        <time>2024-02-16T13:51:39Z</time>
      </trkpt>
      <trkpt lat="42.84989926" lon="13.53427522">
        <ele>183.00000</ele>
        <time>2024-02-16T13:51:40Z</time>
      </trkpt>
      <trkpt lat="42.84989582" lon="13.53437438">
        <ele>183.00000</ele>
        <time>2024-02-16T13:51:41Z</time>
      </trkpt>
      <trkpt lat="42.84989205" lon="13.53449810">
        <ele>183.00000</ele>
        <time>2024-02-16T13:51:42Z</time>
      </trkpt>
      <trkpt lat="42.84988408" lon="13.53461762">
        <ele>183.00000</ele>
        <time>2024-02-16T13:51:43Z</time>
      </trkpt>
      <trkpt lat="42.84987252" lon="13.53473673">
        <ele>183.00000</ele>
        <time>2024-02-16T13:51:44Z</time>
      </trkpt>
      <trkpt lat="42.84986078" lon="13.53487956">
        <ele>183.00000</ele>
        <time>2024-02-16T13:51:45Z</time>
      </trkpt>
      <trkpt lat="42.84985324" lon="13.53497109">
        <ele>184.00000</ele>
        <time>2024-02-16T13:51:46Z</time>
      </trkpt>
      <trkpt lat="42.84984402" lon="13.53509053">
        <ele>185.00000</ele>
        <time>2024-02-16T13:51:47Z</time>
      </trkpt>
      <trkpt lat="42.84983430" lon="13.53522866">
        <ele>186.00000</ele>
        <time>2024-02-16T13:51:48Z</time>
      </trkpt>
      <trkpt lat="42.84982290" lon="13.53534450">
        <ele>187.00000</ele>
        <time>2024-02-16T13:51:49Z</time>
      </trkpt>
      <trkpt lat="42.84981133" lon="13.53543670">
        <ele>188.00000</ele>
        <time>2024-02-16T13:51:50Z</time>
      </trkpt>
      <trkpt lat="42.84980186" lon="13.53555128">
        <ele>189.00000</ele>
        <time>2024-02-16T13:51:51Z</time>
      </trkpt>
      <trkpt lat="42.84978853" lon="13.53566846">
        <ele>191.00000</ele>
        <time>2024-02-16T13:51:52Z</time>
      </trkpt>
      <trkpt lat="42.84977152" lon="13.53577977">
        <ele>192.00000</ele>
        <time>2024-02-16T13:51:53Z</time>
      </trkpt>
      <trkpt lat="42.84975182" lon="13.53591280">
        <ele>192.00000</ele>
        <time>2024-02-16T13:51:54Z</time>
      </trkpt>
      <trkpt lat="42.84973690" lon="13.53602235">
        <ele>190.00000</ele>
        <time>2024-02-16T13:51:55Z</time>
      </trkpt>
      <trkpt lat="42.84972282" lon="13.53613073">
        <ele>189.00000</ele>
        <time>2024-02-16T13:51:56Z</time>
      </trkpt>
      <trkpt lat="42.84971402" lon="13.53621848">
        <ele>190.00000</ele>
        <time>2024-02-16T13:51:57Z</time>
      </trkpt>
      <trkpt lat="42.84969893" lon="13.53632912">
        <ele>191.00000</ele>
        <time>2024-02-16T13:51:58Z</time>
      </trkpt>
      <trkpt lat="42.84967931" lon="13.53645988">
        <ele>191.00000</ele>
        <time>2024-02-16T13:51:59Z</time>
      </trkpt>
      <trkpt lat="42.84966716" lon="13.53656952">
        <ele>189.00000</ele>
        <time>2024-02-16T13:52:00Z</time>
      </trkpt>
      <trkpt lat="42.84965476" lon="13.53665811">
        <ele>188.00000</ele>
        <time>2024-02-16T13:52:01Z</time>
      </trkpt>
      <trkpt lat="42.84963749" lon="13.53676674">
        <ele>189.00000</ele>
        <time>2024-02-16T13:52:02Z</time>
      </trkpt>
      <trkpt lat="42.84962140" lon="13.53687747">
        <ele>188.00000</ele>
        <time>2024-02-16T13:52:03Z</time>
      </trkpt>
      <trkpt lat="42.84960262" lon="13.53700974">
        <ele>188.00000</ele>
        <time>2024-02-16T13:52:04Z</time>
      </trkpt>
      <trkpt lat="42.84958485" lon="13.53712147">
        <ele>188.00000</ele>
        <time>2024-02-16T13:52:05Z</time>
      </trkpt>
      <trkpt lat="42.84957194" lon="13.53721082">
        <ele>189.00000</ele>
        <time>2024-02-16T13:52:06Z</time>
      </trkpt>
      <trkpt lat="42.84955736" lon="13.53732381">
        <ele>189.00000</ele>
        <time>2024-02-16T13:52:07Z</time>
      </trkpt>
      <trkpt lat="42.84954395" lon="13.53743386">
        <ele>188.00000</ele>
        <time>2024-02-16T13:52:08Z</time>
      </trkpt>
      <trkpt lat="42.84953297" lon="13.53754743">
        <ele>188.00000</ele>
        <time>2024-02-16T13:52:09Z</time>
      </trkpt>
      <trkpt lat="42.84951377" lon="13.53768666">
        <ele>188.00000</ele>
        <time>2024-02-16T13:52:10Z</time>
      </trkpt>
      <trkpt lat="42.84949164" lon="13.53779822">
        <ele>188.00000</ele>
        <time>2024-02-16T13:52:11Z</time>
      </trkpt>
      <trkpt lat="42.84947572" lon="13.53788724">
        <ele>187.00000</ele>
        <time>2024-02-16T13:52:12Z</time>
      </trkpt>
      <trkpt lat="42.84945745" lon="13.53799704">
        <ele>186.00000</ele>
        <time>2024-02-16T13:52:13Z</time>
      </trkpt>
      <trkpt lat="42.84943624" lon="13.53810374">
        <ele>185.00000</ele>
        <time>2024-02-16T13:52:14Z</time>
      </trkpt>
      <trkpt lat="42.84941847" lon="13.53821086">
        <ele>184.00000</ele>
        <time>2024-02-16T13:52:15Z</time>
      </trkpt>
      <trkpt lat="42.84940229" lon="13.53831916">
        <ele>183.00000</ele>
        <time>2024-02-16T13:52:16Z</time>
      </trkpt>
      <trkpt lat="42.84938561" lon="13.53842854">
        <ele>183.00000</ele>
        <time>2024-02-16T13:52:17Z</time>
      </trkpt>
      <trkpt lat="42.84937044" lon="13.53853683">
        <ele>183.00000</ele>
        <time>2024-02-16T13:52:18Z</time>
      </trkpt>
      <trkpt lat="42.84935384" lon="13.53866608">
        <ele>183.00000</ele>
        <time>2024-02-16T13:52:19Z</time>
      </trkpt>
      <trkpt lat="42.84934018" lon="13.53877278">
        <ele>183.00000</ele>
        <time>2024-02-16T13:52:20Z</time>
      </trkpt>
      <trkpt lat="42.84932971" lon="13.53888309">
        <ele>183.00000</ele>
        <time>2024-02-16T13:52:21Z</time>
      </trkpt>
      <trkpt lat="42.84933046" lon="13.53897336">
        <ele>184.00000</ele>
        <time>2024-02-16T13:52:22Z</time>
      </trkpt>
      <trkpt lat="42.84932392" lon="13.53907931">
        <ele>184.00000</ele>
        <time>2024-02-16T13:52:23Z</time>
      </trkpt>
      <trkpt lat="42.84932124" lon="13.53918350">
        <ele>185.00000</ele>
        <time>2024-02-16T13:52:24Z</time>
      </trkpt>
      <trkpt lat="42.84932317" lon="13.53929204">
        <ele>186.00000</ele>
        <time>2024-02-16T13:52:25Z</time>
      </trkpt>
      <trkpt lat="42.84932644" lon="13.53939782">
        <ele>187.00000</ele>
        <time>2024-02-16T13:52:26Z</time>
      </trkpt>
      <trkpt lat="42.84932744" lon="13.53950344">
        <ele>187.00000</ele>
        <time>2024-02-16T13:52:27Z</time>
      </trkpt>
      <trkpt lat="42.84932719" lon="13.53961232">
        <ele>187.00000</ele>
        <time>2024-02-16T13:52:28Z</time>
      </trkpt>
      <trkpt lat="42.84932509" lon="13.53974416">
        <ele>188.00000</ele>
        <time>2024-02-16T13:52:29Z</time>
      </trkpt>
      <trkpt lat="42.84932686" lon="13.53985397">
        <ele>187.00000</ele>
        <time>2024-02-16T13:52:30Z</time>
      </trkpt>
      <trkpt lat="42.84933281" lon="13.53994407">
        <ele>187.00000</ele>
        <time>2024-02-16T13:52:31Z</time>
      </trkpt>
      <trkpt lat="42.84934177" lon="13.54005647">
        <ele>187.00000</ele>
        <time>2024-02-16T13:52:32Z</time>
      </trkpt>
      <trkpt lat="42.84935116" lon="13.54017239">
        <ele>186.00000</ele>
        <time>2024-02-16T13:52:33Z</time>
      </trkpt>
      <trkpt lat="42.84935737" lon="13.54028639">
        <ele>186.00000</ele>
        <time>2024-02-16T13:52:34Z</time>
      </trkpt>
      <trkpt lat="42.84936793" lon="13.54042318">
        <ele>185.00000</ele>
        <time>2024-02-16T13:52:35Z</time>
      </trkpt>
      <trkpt lat="42.84937203" lon="13.54051874">
        <ele>185.00000</ele>
        <time>2024-02-16T13:52:36Z</time>
      </trkpt>
      <trkpt lat="42.84937555" lon="13.54063851">
        <ele>184.00000</ele>
        <time>2024-02-16T13:52:37Z</time>
      </trkpt>
      <trkpt lat="42.84937136" lon="13.54075804">
        <ele>184.00000</ele>
        <time>2024-02-16T13:52:38Z</time>
      </trkpt>
      <trkpt lat="42.84936198" lon="13.54087631">
        <ele>183.00000</ele>
        <time>2024-02-16T13:52:39Z</time>
      </trkpt>
      <trkpt lat="42.84935049" lon="13.54099726">
        <ele>182.00000</ele>
        <time>2024-02-16T13:52:40Z</time>
      </trkpt>
      <trkpt lat="42.84932971" lon="13.54113765">
        <ele>181.00000</ele>
        <time>2024-02-16T13:52:41Z</time>
      </trkpt>
      <trkpt lat="42.84930875" lon="13.54123036">
        <ele>182.00000</ele>
        <time>2024-02-16T13:52:42Z</time>
      </trkpt>
      <trkpt lat="42.84927665" lon="13.54134117">
        <ele>182.00000</ele>
        <time>2024-02-16T13:52:43Z</time>
      </trkpt>
      <trkpt lat="42.84924144" lon="13.54145499">
        <ele>182.00000</ele>
        <time>2024-02-16T13:52:44Z</time>
      </trkpt>
      <trkpt lat="42.84920205" lon="13.54156840">
        <ele>182.00000</ele>
        <time>2024-02-16T13:52:45Z</time>
      </trkpt>
      <trkpt lat="42.84915712" lon="13.54168072">
        <ele>182.00000</ele>
        <time>2024-02-16T13:52:46Z</time>
      </trkpt>
      <trkpt lat="42.84911127" lon="13.54179496">
        <ele>182.00000</ele>
        <time>2024-02-16T13:52:47Z</time>
      </trkpt>
      <trkpt lat="42.84906668" lon="13.54190636">
        <ele>182.00000</ele>
        <time>2024-02-16T13:52:48Z</time>
      </trkpt>
      <trkpt lat="42.84902075" lon="13.54201834">
        <ele>182.00000</ele>
        <time>2024-02-16T13:52:49Z</time>
      </trkpt>
      <trkpt lat="42.84898093" lon="13.54213829">
        <ele>182.00000</ele>
        <time>2024-02-16T13:52:50Z</time>
      </trkpt>
      <trkpt lat="42.84894665" lon="13.54225949">
        <ele>181.00000</ele>
        <time>2024-02-16T13:52:51Z</time>
      </trkpt>
      <trkpt lat="42.84891086" lon="13.54240827">
        <ele>180.00000</ele>
        <time>2024-02-16T13:52:52Z</time>
      </trkpt>
      <trkpt lat="42.84889628" lon="13.54250793">
        <ele>179.00000</ele>
        <time>2024-02-16T13:52:53Z</time>
      </trkpt>
      <trkpt lat="42.84888513" lon="13.54263517">
        <ele>179.00000</ele>
        <time>2024-02-16T13:52:54Z</time>
      </trkpt>
      <trkpt lat="42.84887658" lon="13.54276559">
        <ele>178.00000</ele>
        <time>2024-02-16T13:52:55Z</time>
      </trkpt>
      <trkpt lat="42.84887398" lon="13.54289274">
        <ele>177.00000</ele>
        <time>2024-02-16T13:52:56Z</time>
      </trkpt>
      <trkpt lat="42.84887708" lon="13.54302065">
        <ele>177.00000</ele>
        <time>2024-02-16T13:52:57Z</time>
      </trkpt>
      <trkpt lat="42.84888714" lon="13.54317253">
        <ele>176.00000</ele>
        <time>2024-02-16T13:52:58Z</time>
      </trkpt>
      <trkpt lat="42.84890038" lon="13.54327370">
        <ele>175.00000</ele>
        <time>2024-02-16T13:52:59Z</time>
      </trkpt>
      <trkpt lat="42.84892310" lon="13.54340127">
        <ele>174.00000</ele>
        <time>2024-02-16T13:53:00Z</time>
      </trkpt>
      <trkpt lat="42.84894950" lon="13.54352767">
        <ele>172.00000</ele>
        <time>2024-02-16T13:53:01Z</time>
      </trkpt>
      <trkpt lat="42.84897691" lon="13.54365558">
        <ele>171.00000</ele>
        <time>2024-02-16T13:53:02Z</time>
      </trkpt>
      <trkpt lat="42.84901144" lon="13.54380629">
        <ele>170.00000</ele>
        <time>2024-02-16T13:53:03Z</time>
      </trkpt>
      <trkpt lat="42.84903961" lon="13.54390947">
        <ele>169.00000</ele>
        <time>2024-02-16T13:53:04Z</time>
      </trkpt>
      <trkpt lat="42.84907062" lon="13.54403620">
        <ele>169.00000</ele>
        <time>2024-02-16T13:53:05Z</time>
      </trkpt>
      <trkpt lat="42.84910767" lon="13.54418724">
        <ele>169.00000</ele>
        <time>2024-02-16T13:53:06Z</time>
      </trkpt>
      <trkpt lat="42.84913231" lon="13.54428607">
        <ele>169.00000</ele>
        <time>2024-02-16T13:53:07Z</time>
      </trkpt>
      <trkpt lat="42.84916349" lon="13.54440769">
        <ele>168.00000</ele>
        <time>2024-02-16T13:53:08Z</time>
      </trkpt>
      <trkpt lat="42.84919492" lon="13.54452981">
        <ele>168.00000</ele>
        <time>2024-02-16T13:53:09Z</time>
      </trkpt>
      <trkpt lat="42.84923004" lon="13.54465143">
        <ele>169.00000</ele>
        <time>2024-02-16T13:53:10Z</time>
      </trkpt>
      <trkpt lat="42.84927631" lon="13.54479677">
        <ele>169.00000</ele>
        <time>2024-02-16T13:53:11Z</time>
      </trkpt>
      <trkpt lat="42.84930976" lon="13.54489233">
        <ele>170.00000</ele>
        <time>2024-02-16T13:53:12Z</time>
      </trkpt>
      <trkpt lat="42.84935963" lon="13.54503440">
        <ele>170.00000</ele>
        <time>2024-02-16T13:53:13Z</time>
      </trkpt>
      <trkpt lat="42.84939483" lon="13.54512996">
        <ele>170.00000</ele>
        <time>2024-02-16T13:53:14Z</time>
      </trkpt>
      <trkpt lat="42.84943959" lon="13.54525174">
        <ele>170.00000</ele>
        <time>2024-02-16T13:53:15Z</time>
      </trkpt>
      <trkpt lat="42.84948435" lon="13.54537387">
        <ele>170.00000</ele>
        <time>2024-02-16T13:53:16Z</time>
      </trkpt>
      <trkpt lat="42.84953531" lon="13.54552047">
        <ele>170.00000</ele>
        <time>2024-02-16T13:53:17Z</time>
      </trkpt>
      <trkpt lat="42.84957387" lon="13.54564486">
        <ele>170.00000</ele>
        <time>2024-02-16T13:53:18Z</time>
      </trkpt>
      <trkpt lat="42.84960296" lon="13.54574812">
        <ele>170.00000</ele>
        <time>2024-02-16T13:53:19Z</time>
      </trkpt>
      <trkpt lat="42.84963347" lon="13.54587812">
        <ele>170.00000</ele>
        <time>2024-02-16T13:53:20Z</time>
      </trkpt>
      <trkpt lat="42.84966255" lon="13.54603570">
        <ele>170.00000</ele>
        <time>2024-02-16T13:53:21Z</time>
      </trkpt>
      <trkpt lat="42.84967512" lon="13.54613721">
        <ele>170.00000</ele>
        <time>2024-02-16T13:53:22Z</time>
      </trkpt>
      <trkpt lat="42.84968887" lon="13.54626009">
        <ele>169.00000</ele>
        <time>2024-02-16T13:53:23Z</time>
      </trkpt>
      <trkpt lat="42.84970127" lon="13.54637836">
        <ele>168.00000</ele>
        <time>2024-02-16T13:53:24Z</time>
      </trkpt>
      <trkpt lat="42.84970974" lon="13.54649310">
        <ele>167.00000</ele>
        <time>2024-02-16T13:53:25Z</time>
      </trkpt>
      <trkpt lat="42.84971921" lon="13.54660542">
        <ele>167.00000</ele>
        <time>2024-02-16T13:53:26Z</time>
      </trkpt>
      <trkpt lat="42.84973070" lon="13.54671715">
        <ele>166.00000</ele>
        <time>2024-02-16T13:53:27Z</time>
      </trkpt>
      <trkpt lat="42.84973656" lon="13.54682763">
        <ele>166.00000</ele>
        <time>2024-02-16T13:53:28Z</time>
      </trkpt>
      <trkpt lat="42.84974637" lon="13.54693701">
        <ele>166.00000</ele>
        <time>2024-02-16T13:53:29Z</time>
      </trkpt>
      <trkpt lat="42.84975584" lon="13.54704388">
        <ele>166.00000</ele>
        <time>2024-02-16T13:53:30Z</time>
      </trkpt>
      <trkpt lat="42.84976556" lon="13.54715142">
        <ele>166.00000</ele>
        <time>2024-02-16T13:53:31Z</time>
      </trkpt>
      <trkpt lat="42.84977621" lon="13.54725737">
        <ele>166.00000</ele>
        <time>2024-02-16T13:53:32Z</time>
      </trkpt>
      <trkpt lat="42.84978761" lon="13.54736440">
        <ele>167.00000</ele>
        <time>2024-02-16T13:53:33Z</time>
      </trkpt>
      <trkpt lat="42.84979825" lon="13.54747362">
        <ele>167.00000</ele>
        <time>2024-02-16T13:53:34Z</time>
      </trkpt>
      <trkpt lat="42.84980873" lon="13.54758300">
        <ele>168.00000</ele>
        <time>2024-02-16T13:53:35Z</time>
      </trkpt>
      <trkpt lat="42.84981879" lon="13.54769314">
        <ele>169.00000</ele>
        <time>2024-02-16T13:53:36Z</time>
      </trkpt>
      <trkpt lat="42.84983111" lon="13.54779984">
        <ele>169.00000</ele>
        <time>2024-02-16T13:53:37Z</time>
      </trkpt>
      <trkpt lat="42.84984544" lon="13.54792666">
        <ele>170.00000</ele>
        <time>2024-02-16T13:53:38Z</time>
      </trkpt>
      <trkpt lat="42.84985248" lon="13.54800788">
        <ele>170.00000</ele>
        <time>2024-02-16T13:53:39Z</time>
      </trkpt>
      <trkpt lat="42.84986229" lon="13.54810863">
        <ele>171.00000</ele>
        <time>2024-02-16T13:53:40Z</time>
      </trkpt>
      <trkpt lat="42.84987327" lon="13.54820712">
        <ele>171.00000</ele>
        <time>2024-02-16T13:53:41Z</time>
      </trkpt>
      <trkpt lat="42.84989154" lon="13.54830443">
        <ele>172.00000</ele>
        <time>2024-02-16T13:53:42Z</time>
      </trkpt>
      <trkpt lat="42.84991761" lon="13.54839462">
        <ele>172.00000</ele>
        <time>2024-02-16T13:53:43Z</time>
      </trkpt>
      <trkpt lat="42.84995508" lon="13.54848154">
        <ele>172.00000</ele>
        <time>2024-02-16T13:53:44Z</time>
      </trkpt>
      <trkpt lat="42.85000126" lon="13.54856201">
        <ele>172.00000</ele>
        <time>2024-02-16T13:53:45Z</time>
      </trkpt>
      <trkpt lat="42.85005558" lon="13.54863812">
        <ele>172.00000</ele>
        <time>2024-02-16T13:53:46Z</time>
      </trkpt>
      <trkpt lat="42.85011392" lon="13.54870534">
        <ele>172.00000</ele>
        <time>2024-02-16T13:53:47Z</time>
      </trkpt>
      <trkpt lat="42.85017737" lon="13.54876804">
        <ele>171.00000</ele>
        <time>2024-02-16T13:53:48Z</time>
      </trkpt>
      <trkpt lat="42.85024476" lon="13.54882872">
        <ele>171.00000</ele>
        <time>2024-02-16T13:53:49Z</time>
      </trkpt>
      <trkpt lat="42.85031064" lon="13.54888874">
        <ele>171.00000</ele>
        <time>2024-02-16T13:53:50Z</time>
      </trkpt>
      <trkpt lat="42.85037736" lon="13.54895177">
        <ele>172.00000</ele>
        <time>2024-02-16T13:53:51Z</time>
      </trkpt>
      <trkpt lat="42.85044458" lon="13.54901438">
        <ele>172.00000</ele>
        <time>2024-02-16T13:53:52Z</time>
      </trkpt>
      <trkpt lat="42.85050728" lon="13.54907590">
        <ele>172.00000</ele>
        <time>2024-02-16T13:53:53Z</time>
      </trkpt>
      <trkpt lat="42.85056721" lon="13.54914405">
        <ele>173.00000</ele>
        <time>2024-02-16T13:53:54Z</time>
      </trkpt>
      <trkpt lat="42.85062136" lon="13.54921630">
        <ele>172.00000</ele>
        <time>2024-02-16T13:53:55Z</time>
      </trkpt>
      <trkpt lat="42.85067282" lon="13.54929425">
        <ele>172.00000</ele>
        <time>2024-02-16T13:53:56Z</time>
      </trkpt>
      <trkpt lat="42.85072538" lon="13.54939978">
        <ele>172.00000</ele>
        <time>2024-02-16T13:53:57Z</time>
      </trkpt>
      <trkpt lat="42.85075287" lon="13.54947287">
        <ele>172.00000</ele>
        <time>2024-02-16T13:53:58Z</time>
      </trkpt>
      <trkpt lat="42.85078061" lon="13.54956683">
        <ele>173.00000</ele>
        <time>2024-02-16T13:53:59Z</time>
      </trkpt>
      <trkpt lat="42.85080417" lon="13.54966666">
        <ele>174.00000</ele>
        <time>2024-02-16T13:54:00Z</time>
      </trkpt>
      <trkpt lat="42.85082261" lon="13.54976414">
        <ele>174.00000</ele>
        <time>2024-02-16T13:54:01Z</time>
      </trkpt>
      <trkpt lat="42.85084029" lon="13.54986213">
        <ele>175.00000</ele>
        <time>2024-02-16T13:54:02Z</time>
      </trkpt>
      <trkpt lat="42.85085731" lon="13.54995944">
        <ele>176.00000</ele>
        <time>2024-02-16T13:54:03Z</time>
      </trkpt>
      <trkpt lat="42.85087793" lon="13.55005466">
        <ele>177.00000</ele>
        <time>2024-02-16T13:54:04Z</time>
      </trkpt>
      <trkpt lat="42.85089930" lon="13.55015130">
        <ele>177.00000</ele>
        <time>2024-02-16T13:54:05Z</time>
      </trkpt>
      <trkpt lat="42.85091673" lon="13.55024778">
        <ele>177.00000</ele>
        <time>2024-02-16T13:54:06Z</time>
      </trkpt>
      <trkpt lat="42.85093358" lon="13.55034484">
        <ele>177.00000</ele>
        <time>2024-02-16T13:54:07Z</time>
      </trkpt>
      <trkpt lat="42.85095278" lon="13.55044241">
        <ele>177.00000</ele>
        <time>2024-02-16T13:54:08Z</time>
      </trkpt>
      <trkpt lat="42.85097407" lon="13.55055925">
        <ele>176.00000</ele>
        <time>2024-02-16T13:54:09Z</time>
      </trkpt>
      <trkpt lat="42.85098806" lon="13.55064072">
        <ele>176.00000</ele>
        <time>2024-02-16T13:54:10Z</time>
      </trkpt>
      <trkpt lat="42.85100776" lon="13.55074399">
        <ele>175.00000</ele>
        <time>2024-02-16T13:54:11Z</time>
      </trkpt>
      <trkpt lat="42.85103056" lon="13.55084574">
        <ele>174.00000</ele>
        <time>2024-02-16T13:54:12Z</time>
      </trkpt>
      <trkpt lat="42.85105286" lon="13.55094725">
        <ele>174.00000</ele>
        <time>2024-02-16T13:54:13Z</time>
      </trkpt>
      <trkpt lat="42.85106895" lon="13.55104791">
        <ele>174.00000</ele>
        <time>2024-02-16T13:54:14Z</time>
      </trkpt>
      <trkpt lat="42.85108940" lon="13.55115244">
        <ele>174.00000</ele>
        <time>2024-02-16T13:54:15Z</time>
      </trkpt>
      <trkpt lat="42.85111312" lon="13.55125562">
        <ele>175.00000</ele>
        <time>2024-02-16T13:54:16Z</time>
      </trkpt>
      <trkpt lat="42.85113693" lon="13.55135704">
        <ele>175.00000</ele>
        <time>2024-02-16T13:54:17Z</time>
      </trkpt>
      <trkpt lat="42.85115964" lon="13.55145720">
        <ele>176.00000</ele>
        <time>2024-02-16T13:54:18Z</time>
      </trkpt>
      <trkpt lat="42.85118504" lon="13.55155443">
        <ele>176.00000</ele>
        <time>2024-02-16T13:54:19Z</time>
      </trkpt>
      <trkpt lat="42.85121060" lon="13.55165242">
        <ele>177.00000</ele>
        <time>2024-02-16T13:54:20Z</time>
      </trkpt>
      <trkpt lat="42.85123500" lon="13.55174906">
        <ele>178.00000</ele>
        <time>2024-02-16T13:54:21Z</time>
      </trkpt>
      <trkpt lat="42.85126039" lon="13.55184621">
        <ele>178.00000</ele>
        <time>2024-02-16T13:54:22Z</time>
      </trkpt>
      <trkpt lat="42.85129149" lon="13.55193832">
        <ele>179.00000</ele>
        <time>2024-02-16T13:54:23Z</time>
      </trkpt>
      <trkpt lat="42.85133105" lon="13.55202424">
        <ele>179.00000</ele>
        <time>2024-02-16T13:54:24Z</time>
      </trkpt>
      <trkpt lat="42.85137740" lon="13.55210764">
        <ele>179.00000</ele>
        <time>2024-02-16T13:54:25Z</time>
      </trkpt>
      <trkpt lat="42.85143147" lon="13.55218752">
        <ele>178.00000</ele>
        <time>2024-02-16T13:54:26Z</time>
      </trkpt>
      <trkpt lat="42.85148528" lon="13.55225818">
        <ele>178.00000</ele>
        <time>2024-02-16T13:54:27Z</time>
      </trkpt>
      <trkpt lat="42.85154144" lon="13.55232540">
        <ele>177.00000</ele>
        <time>2024-02-16T13:54:28Z</time>
      </trkpt>
      <trkpt lat="42.85159843" lon="13.55239422">
        <ele>176.00000</ele>
        <time>2024-02-16T13:54:29Z</time>
      </trkpt>
      <trkpt lat="42.85165350" lon="13.55246529">
        <ele>175.00000</ele>
        <time>2024-02-16T13:54:30Z</time>
      </trkpt>
      <trkpt lat="42.85170204" lon="13.55254325">
        <ele>174.00000</ele>
        <time>2024-02-16T13:54:31Z</time>
      </trkpt>
      <trkpt lat="42.85174545" lon="13.55263285">
        <ele>174.00000</ele>
        <time>2024-02-16T13:54:32Z</time>
      </trkpt>
      <trkpt lat="42.85177420" lon="13.55272974">
        <ele>174.00000</ele>
        <time>2024-02-16T13:54:33Z</time>
      </trkpt>
      <trkpt lat="42.85178921" lon="13.55283125">
        <ele>175.00000</ele>
        <time>2024-02-16T13:54:34Z</time>
      </trkpt>
      <trkpt lat="42.85179482" lon="13.55293837">
        <ele>176.00000</ele>
        <time>2024-02-16T13:54:35Z</time>
      </trkpt>
      <trkpt lat="42.85179063" lon="13.55304230">
        <ele>178.00000</ele>
        <time>2024-02-16T13:54:36Z</time>
      </trkpt>
      <trkpt lat="42.85177990" lon="13.55314574">
        <ele>180.00000</ele>
        <time>2024-02-16T13:54:37Z</time>
      </trkpt>
      <trkpt lat="42.85177613" lon="13.55324959">
        <ele>181.00000</ele>
        <time>2024-02-16T13:54:38Z</time>
      </trkpt>
      <trkpt lat="42.85177554" lon="13.55335763">
        <ele>182.00000</ele>
        <time>2024-02-16T13:54:39Z</time>
      </trkpt>
      <trkpt lat="42.85177068" lon="13.55347733">
        <ele>182.00000</ele>
        <time>2024-02-16T13:54:40Z</time>
      </trkpt>
      <trkpt lat="42.85177102" lon="13.55355704">
        <ele>182.00000</ele>
        <time>2024-02-16T13:54:41Z</time>
      </trkpt>
      <trkpt lat="42.85178191" lon="13.55366064">
        <ele>181.00000</ele>
        <time>2024-02-16T13:54:42Z</time>
      </trkpt>
      <trkpt lat="42.85179901" lon="13.55376424">
        <ele>181.00000</ele>
        <time>2024-02-16T13:54:43Z</time>
      </trkpt>
      <trkpt lat="42.85181871" lon="13.55386189">
        <ele>180.00000</ele>
        <time>2024-02-16T13:54:44Z</time>
      </trkpt>
      <trkpt lat="42.85184495" lon="13.55395711">
        <ele>180.00000</ele>
        <time>2024-02-16T13:54:45Z</time>
      </trkpt>
      <trkpt lat="42.85187948" lon="13.55405081">
        <ele>179.00000</ele>
        <time>2024-02-16T13:54:46Z</time>
      </trkpt>
      <trkpt lat="42.85191904" lon="13.55414193">
        <ele>179.00000</ele>
        <time>2024-02-16T13:54:47Z</time>
      </trkpt>
      <trkpt lat="42.85195902" lon="13.55423220">
        <ele>179.00000</ele>
        <time>2024-02-16T13:54:48Z</time>
      </trkpt>
      <trkpt lat="42.85200211" lon="13.55432306">
        <ele>179.00000</ele>
        <time>2024-02-16T13:54:49Z</time>
      </trkpt>
      <trkpt lat="42.85204611" lon="13.55441149">
        <ele>179.00000</ele>
        <time>2024-02-16T13:54:50Z</time>
      </trkpt>
      <trkpt lat="42.85208886" lon="13.55449816">
        <ele>180.00000</ele>
        <time>2024-02-16T13:54:51Z</time>
      </trkpt>
      <trkpt lat="42.85213404" lon="13.55458533">
        <ele>180.00000</ele>
        <time>2024-02-16T13:54:52Z</time>
      </trkpt>
      <trkpt lat="42.85217930" lon="13.55467342">
        <ele>179.00000</ele>
        <time>2024-02-16T13:54:53Z</time>
      </trkpt>
      <trkpt lat="42.85222180" lon="13.55476303">
        <ele>179.00000</ele>
        <time>2024-02-16T13:54:54Z</time>
      </trkpt>
      <trkpt lat="42.85226547" lon="13.55485749">
        <ele>178.00000</ele>
        <time>2024-02-16T13:54:55Z</time>
      </trkpt>
      <trkpt lat="42.85230897" lon="13.55494868">
        <ele>177.00000</ele>
        <time>2024-02-16T13:54:56Z</time>
      </trkpt>
      <trkpt lat="42.85235524" lon="13.55504399">
        <ele>176.00000</ele>
        <time>2024-02-16T13:54:57Z</time>
      </trkpt>
      <trkpt lat="42.85240335" lon="13.55514164">
        <ele>176.00000</ele>
        <time>2024-02-16T13:54:58Z</time>
      </trkpt>
      <trkpt lat="42.85244719" lon="13.55524063">
        <ele>175.00000</ele>
        <time>2024-02-16T13:54:59Z</time>
      </trkpt>
      <trkpt lat="42.85249044" lon="13.55533987">
        <ele>174.00000</ele>
        <time>2024-02-16T13:55:00Z</time>
      </trkpt>
      <trkpt lat="42.85253670" lon="13.55543995">
        <ele>174.00000</ele>
        <time>2024-02-16T13:55:01Z</time>
      </trkpt>
      <trkpt lat="42.85258398" lon="13.55554036">
        <ele>175.00000</ele>
        <time>2024-02-16T13:55:02Z</time>
      </trkpt>
      <trkpt lat="42.85263092" lon="13.55564019">
        <ele>175.00000</ele>
        <time>2024-02-16T13:55:03Z</time>
      </trkpt>
      <trkpt lat="42.85267710" lon="13.55574161">
        <ele>175.00000</ele>
        <time>2024-02-16T13:55:04Z</time>
      </trkpt>
      <trkpt lat="42.85272119" lon="13.55584194">
        <ele>175.00000</ele>
        <time>2024-02-16T13:55:05Z</time>
      </trkpt>
      <trkpt lat="42.85277735" lon="13.55596365">
        <ele>175.00000</ele>
        <time>2024-02-16T13:55:06Z</time>
      </trkpt>
      <trkpt lat="42.85281498" lon="13.55604319">
        <ele>175.00000</ele>
        <time>2024-02-16T13:55:07Z</time>
      </trkpt>
      <trkpt lat="42.85286209" lon="13.55614101">
        <ele>175.00000</ele>
        <time>2024-02-16T13:55:08Z</time>
      </trkpt>
      <trkpt lat="42.85290853" lon="13.55624109">
        <ele>175.00000</ele>
        <time>2024-02-16T13:55:09Z</time>
      </trkpt>
      <trkpt lat="42.85295345" lon="13.55634100">
        <ele>175.00000</ele>
        <time>2024-02-16T13:55:10Z</time>
      </trkpt>
      <trkpt lat="42.85300903" lon="13.55646011">
        <ele>175.00000</ele>
        <time>2024-02-16T13:55:11Z</time>
      </trkpt>
      <trkpt lat="42.85304867" lon="13.55654259">
        <ele>175.00000</ele>
        <time>2024-02-16T13:55:12Z</time>
      </trkpt>
      <trkpt lat="42.85309578" lon="13.55664828">
        <ele>175.00000</ele>
        <time>2024-02-16T13:55:13Z</time>
      </trkpt>
      <trkpt lat="42.85314381" lon="13.55675364">
        <ele>176.00000</ele>
        <time>2024-02-16T13:55:14Z</time>
      </trkpt>
      <trkpt lat="42.85318974" lon="13.55685766">
        <ele>178.00000</ele>
        <time>2024-02-16T13:55:15Z</time>
      </trkpt>
      <trkpt lat="42.85323492" lon="13.55696554">
        <ele>178.00000</ele>
        <time>2024-02-16T13:55:16Z</time>
      </trkpt>
      <trkpt lat="42.85328010" lon="13.55707777">
        <ele>178.00000</ele>
        <time>2024-02-16T13:55:17Z</time>
      </trkpt>
      <trkpt lat="42.85332511" lon="13.55719244">
        <ele>178.00000</ele>
        <time>2024-02-16T13:55:18Z</time>
      </trkpt>
      <trkpt lat="42.85336375" lon="13.55730576">
        <ele>176.00000</ele>
        <time>2024-02-16T13:55:19Z</time>
      </trkpt>
      <trkpt lat="42.85339736" lon="13.55742311">
        <ele>174.00000</ele>
        <time>2024-02-16T13:55:20Z</time>
      </trkpt>
      <trkpt lat="42.85342636" lon="13.55754506">
        <ele>171.00000</ele>
        <time>2024-02-16T13:55:21Z</time>
      </trkpt>
      <trkpt lat="42.85345327" lon="13.55766727">
        <ele>170.00000</ele>
        <time>2024-02-16T13:55:22Z</time>
      </trkpt>
      <trkpt lat="42.85347598" lon="13.55778990">
        <ele>168.00000</ele>
        <time>2024-02-16T13:55:23Z</time>
      </trkpt>
      <trkpt lat="42.85348822" lon="13.55791286">
        <ele>168.00000</ele>
        <time>2024-02-16T13:55:24Z</time>
      </trkpt>
      <trkpt lat="42.85350155" lon="13.55803733">
        <ele>168.00000</ele>
        <time>2024-02-16T13:55:25Z</time>
      </trkpt>
      <trkpt lat="42.85351789" lon="13.55816381">
        <ele>167.00000</ele>
        <time>2024-02-16T13:55:26Z</time>
      </trkpt>
      <trkpt lat="42.85353608" lon="13.55829223">
        <ele>167.00000</ele>
        <time>2024-02-16T13:55:27Z</time>
      </trkpt>
      <trkpt lat="42.85355410" lon="13.55841963">
        <ele>166.00000</ele>
        <time>2024-02-16T13:55:28Z</time>
      </trkpt>
      <trkpt lat="42.85356994" lon="13.55854352">
        <ele>165.00000</ele>
        <time>2024-02-16T13:55:29Z</time>
      </trkpt>
      <trkpt lat="42.85358654" lon="13.55866690">
        <ele>165.00000</ele>
        <time>2024-02-16T13:55:30Z</time>
      </trkpt>
      <trkpt lat="42.85360573" lon="13.55879430">
        <ele>165.00000</ele>
        <time>2024-02-16T13:55:31Z</time>
      </trkpt>
      <trkpt lat="42.85362753" lon="13.55891928">
        <ele>165.00000</ele>
        <time>2024-02-16T13:55:32Z</time>
      </trkpt>
      <trkpt lat="42.85364496" lon="13.55904140">
        <ele>166.00000</ele>
        <time>2024-02-16T13:55:33Z</time>
      </trkpt>
      <trkpt lat="42.85366441" lon="13.55916109">
        <ele>166.00000</ele>
        <time>2024-02-16T13:55:34Z</time>
      </trkpt>
      <trkpt lat="42.85368377" lon="13.55928062">
        <ele>166.00000</ele>
        <time>2024-02-16T13:55:35Z</time>
      </trkpt>
      <trkpt lat="42.85370028" lon="13.55939880">
        <ele>166.00000</ele>
        <time>2024-02-16T13:55:36Z</time>
      </trkpt>
      <trkpt lat="42.85371495" lon="13.55951607">
        <ele>167.00000</ele>
        <time>2024-02-16T13:55:37Z</time>
      </trkpt>
      <trkpt lat="42.85372601" lon="13.55963006">
        <ele>167.00000</ele>
        <time>2024-02-16T13:55:38Z</time>
      </trkpt>
      <trkpt lat="42.85373875" lon="13.55974540">
        <ele>168.00000</ele>
        <time>2024-02-16T13:55:39Z</time>
      </trkpt>
      <trkpt lat="42.85375074" lon="13.55985964">
        <ele>168.00000</ele>
        <time>2024-02-16T13:55:40Z</time>
      </trkpt>
      <trkpt lat="42.85376725" lon="13.55997556">
        <ele>168.00000</ele>
        <time>2024-02-16T13:55:41Z</time>
      </trkpt>
      <trkpt lat="42.85377882" lon="13.56009065">
        <ele>168.00000</ele>
        <time>2024-02-16T13:55:42Z</time>
      </trkpt>
      <trkpt lat="42.85379055" lon="13.56019936">
        <ele>167.00000</ele>
        <time>2024-02-16T13:55:43Z</time>
      </trkpt>
      <trkpt lat="42.85380304" lon="13.56029600">
        <ele>167.00000</ele>
        <time>2024-02-16T13:55:44Z</time>
      </trkpt>
      <trkpt lat="42.85381629" lon="13.56037463">
        <ele>166.00000</ele>
        <time>2024-02-16T13:55:45Z</time>
      </trkpt>
      <trkpt lat="42.85382945" lon="13.56044126">
        <ele>166.00000</ele>
        <time>2024-02-16T13:55:46Z</time>
      </trkpt>
      <trkpt lat="42.85384118" lon="13.56049071">
        <ele>166.00000</ele>
        <time>2024-02-16T13:55:47Z</time>
      </trkpt>
      <trkpt lat="42.85384965" lon="13.56053221">
        <ele>166.00000</ele>
        <time>2024-02-16T13:55:48Z</time>
      </trkpt>
      <trkpt lat="42.85385828" lon="13.56056028">
        <ele>166.00000</ele>
        <time>2024-02-16T13:55:49Z</time>
      </trkpt>
      <trkpt lat="42.85385853" lon="13.56056707">
        <ele>166.00000</ele>
        <time>2024-02-16T13:55:50Z</time>
      </trkpt>
      <trkpt lat="42.85385250" lon="13.56057738">
        <ele>166.00000</ele>
        <time>2024-02-16T13:55:52Z</time>
      </trkpt>
      <trkpt lat="42.85385568" lon="13.56059440">
        <ele>166.00000</ele>
        <time>2024-02-16T13:55:53Z</time>
      </trkpt>
      <trkpt lat="42.85386180" lon="13.56061586">
        <ele>166.00000</ele>
        <time>2024-02-16T13:55:54Z</time>
      </trkpt>
      <trkpt lat="42.85387077" lon="13.56063639">
        <ele>166.00000</ele>
        <time>2024-02-16T13:55:55Z</time>
      </trkpt>
      <trkpt lat="42.85387923" lon="13.56066028">
        <ele>166.00000</ele>
        <time>2024-02-16T13:55:56Z</time>
      </trkpt>
      <trkpt lat="42.85388200" lon="13.56070202">
        <ele>166.00000</ele>
        <time>2024-02-16T13:55:57Z</time>
      </trkpt>
      <trkpt lat="42.85388242" lon="13.56076195">
        <ele>166.00000</ele>
        <time>2024-02-16T13:55:58Z</time>
      </trkpt>
      <trkpt lat="42.85388510" lon="13.56083798">
        <ele>165.00000</ele>
        <time>2024-02-16T13:55:59Z</time>
      </trkpt>
      <trkpt lat="42.85389005" lon="13.56093261">
        <ele>165.00000</ele>
        <time>2024-02-16T13:56:00Z</time>
      </trkpt>
      <trkpt lat="42.85390513" lon="13.56103353">
        <ele>165.00000</ele>
        <time>2024-02-16T13:56:01Z</time>
      </trkpt>
      <trkpt lat="42.85392031" lon="13.56113461">
        <ele>164.00000</ele>
        <time>2024-02-16T13:56:02Z</time>
      </trkpt>
      <trkpt lat="42.85393497" lon="13.56123813">
        <ele>164.00000</ele>
        <time>2024-02-16T13:56:03Z</time>
      </trkpt>
      <trkpt lat="42.85395300" lon="13.56134559">
        <ele>164.00000</ele>
        <time>2024-02-16T13:56:04Z</time>
      </trkpt>
      <trkpt lat="42.85396833" lon="13.56145656">
        <ele>163.00000</ele>
        <time>2024-02-16T13:56:05Z</time>
      </trkpt>
      <trkpt lat="42.85398158" lon="13.56156754">
        <ele>163.00000</ele>
        <time>2024-02-16T13:56:06Z</time>
      </trkpt>
      <trkpt lat="42.85399759" lon="13.56167734">
        <ele>163.00000</ele>
        <time>2024-02-16T13:56:07Z</time>
      </trkpt>
      <trkpt lat="42.85401636" lon="13.56179025">
        <ele>163.00000</ele>
        <time>2024-02-16T13:56:08Z</time>
      </trkpt>
      <trkpt lat="42.85403472" lon="13.56190164">
        <ele>163.00000</ele>
        <time>2024-02-16T13:56:09Z</time>
      </trkpt>
      <trkpt lat="42.85404955" lon="13.56201035">
        <ele>162.00000</ele>
        <time>2024-02-16T13:56:10Z</time>
      </trkpt>
      <trkpt lat="42.85405844" lon="13.56212326">
        <ele>162.00000</ele>
        <time>2024-02-16T13:56:11Z</time>
      </trkpt>
      <trkpt lat="42.85407487" lon="13.56223457">
        <ele>162.00000</ele>
        <time>2024-02-16T13:56:12Z</time>
      </trkpt>
      <trkpt lat="42.85409297" lon="13.56235343">
        <ele>162.00000</ele>
        <time>2024-02-16T13:56:13Z</time>
      </trkpt>
      <trkpt lat="42.85411351" lon="13.56248879">
        <ele>162.00000</ele>
        <time>2024-02-16T13:56:14Z</time>
      </trkpt>
      <trkpt lat="42.85412298" lon="13.56257873">
        <ele>162.00000</ele>
        <time>2024-02-16T13:56:15Z</time>
      </trkpt>
      <trkpt lat="42.85413203" lon="13.56268987">
        <ele>161.00000</ele>
        <time>2024-02-16T13:56:16Z</time>
      </trkpt>
      <trkpt lat="42.85414838" lon="13.56282608">
        <ele>160.00000</ele>
        <time>2024-02-16T13:56:17Z</time>
      </trkpt>
      <trkpt lat="42.85416673" lon="13.56294385">
        <ele>160.00000</ele>
        <time>2024-02-16T13:56:18Z</time>
      </trkpt>
      <trkpt lat="42.85418375" lon="13.56303337">
        <ele>159.00000</ele>
        <time>2024-02-16T13:56:19Z</time>
      </trkpt>
      <trkpt lat="42.85420345" lon="13.56314241">
        <ele>159.00000</ele>
        <time>2024-02-16T13:56:20Z</time>
      </trkpt>
      <trkpt lat="42.85422323" lon="13.56327334">
        <ele>159.00000</ele>
        <time>2024-02-16T13:56:21Z</time>
      </trkpt>
      <trkpt lat="42.85423010" lon="13.56336277">
        <ele>159.00000</ele>
        <time>2024-02-16T13:56:22Z</time>
      </trkpt>
      <trkpt lat="42.85424896" lon="13.56347886">
        <ele>159.00000</ele>
        <time>2024-02-16T13:56:23Z</time>
      </trkpt>
      <trkpt lat="42.85426765" lon="13.56359554">
        <ele>159.00000</ele>
        <time>2024-02-16T13:56:24Z</time>
      </trkpt>
      <trkpt lat="42.85428903" lon="13.56370962">
        <ele>160.00000</ele>
        <time>2024-02-16T13:56:25Z</time>
      </trkpt>
      <trkpt lat="42.85430168" lon="13.56382604">
        <ele>161.00000</ele>
        <time>2024-02-16T13:56:26Z</time>
      </trkpt>
      <trkpt lat="42.85431669" lon="13.56395093">
        <ele>162.00000</ele>
        <time>2024-02-16T13:56:27Z</time>
      </trkpt>
      <trkpt lat="42.85433127" lon="13.56407239">
        <ele>163.00000</ele>
        <time>2024-02-16T13:56:28Z</time>
      </trkpt>
      <trkpt lat="42.85434208" lon="13.56418881">
        <ele>164.00000</ele>
        <time>2024-02-16T13:56:29Z</time>
      </trkpt>
      <trkpt lat="42.85436203" lon="13.56430909">
        <ele>164.00000</ele>
        <time>2024-02-16T13:56:30Z</time>
      </trkpt>
      <trkpt lat="42.85437854" lon="13.56442954">
        <ele>164.00000</ele>
        <time>2024-02-16T13:56:31Z</time>
      </trkpt>
      <trkpt lat="42.85439522" lon="13.56454923">
        <ele>164.00000</ele>
        <time>2024-02-16T13:56:32Z</time>
      </trkpt>
      <trkpt lat="42.85441492" lon="13.56466792">
        <ele>164.00000</ele>
        <time>2024-02-16T13:56:33Z</time>
      </trkpt>
      <trkpt lat="42.85443403" lon="13.56478485">
        <ele>164.00000</ele>
        <time>2024-02-16T13:56:34Z</time>
      </trkpt>
      <trkpt lat="42.85445507" lon="13.56490203">
        <ele>163.00000</ele>
        <time>2024-02-16T13:56:35Z</time>
      </trkpt>
      <trkpt lat="42.85447737" lon="13.56501292">
        <ele>162.00000</ele>
        <time>2024-02-16T13:56:36Z</time>
      </trkpt>
      <trkpt lat="42.85449782" lon="13.56512448">
        <ele>161.00000</ele>
        <time>2024-02-16T13:56:37Z</time>
      </trkpt>
      <trkpt lat="42.85451794" lon="13.56524107">
        <ele>160.00000</ele>
        <time>2024-02-16T13:56:38Z</time>
      </trkpt>
      <trkpt lat="42.85453855" lon="13.56536060">
        <ele>160.00000</ele>
        <time>2024-02-16T13:56:39Z</time>
      </trkpt>
      <trkpt lat="42.85455666" lon="13.56547879">
        <ele>159.00000</ele>
        <time>2024-02-16T13:56:40Z</time>
      </trkpt>
      <trkpt lat="42.85457711" lon="13.56561793">
        <ele>159.00000</ele>
        <time>2024-02-16T13:56:41Z</time>
      </trkpt>
      <trkpt lat="42.85458876" lon="13.56571130">
        <ele>159.00000</ele>
        <time>2024-02-16T13:56:42Z</time>
      </trkpt>
      <trkpt lat="42.85460452" lon="13.56582982">
        <ele>159.00000</ele>
        <time>2024-02-16T13:56:43Z</time>
      </trkpt>
      <trkpt lat="42.85462019" lon="13.56594666">
        <ele>159.00000</ele>
        <time>2024-02-16T13:56:44Z</time>
      </trkpt>
      <trkpt lat="42.85463755" lon="13.56606535">
        <ele>159.00000</ele>
        <time>2024-02-16T13:56:45Z</time>
      </trkpt>
      <trkpt lat="42.85465548" lon="13.56617976">
        <ele>159.00000</ele>
        <time>2024-02-16T13:56:46Z</time>
      </trkpt>
      <trkpt lat="42.85467325" lon="13.56629317">
        <ele>159.00000</ele>
        <time>2024-02-16T13:56:47Z</time>
      </trkpt>
      <trkpt lat="42.85469580" lon="13.56640800">
        <ele>160.00000</ele>
        <time>2024-02-16T13:56:48Z</time>
      </trkpt>
      <trkpt lat="42.85472061" lon="13.56652418">
        <ele>160.00000</ele>
        <time>2024-02-16T13:56:49Z</time>
      </trkpt>
      <trkpt lat="42.85474089" lon="13.56664228">
        <ele>159.00000</ele>
        <time>2024-02-16T13:56:50Z</time>
      </trkpt>
      <trkpt lat="42.85475741" lon="13.56676608">
        <ele>159.00000</ele>
        <time>2024-02-16T13:56:51Z</time>
      </trkpt>
      <trkpt lat="42.85476889" lon="13.56688812">
        <ele>159.00000</ele>
        <time>2024-02-16T13:56:52Z</time>
      </trkpt>
      <trkpt lat="42.85477367" lon="13.56700899">
        <ele>159.00000</ele>
        <time>2024-02-16T13:56:53Z</time>
      </trkpt>
      <trkpt lat="42.85476914" lon="13.56712851">
        <ele>159.00000</ele>
        <time>2024-02-16T13:56:54Z</time>
      </trkpt>
      <trkpt lat="42.85474861" lon="13.56724116">
        <ele>159.00000</ele>
        <time>2024-02-16T13:56:55Z</time>
      </trkpt>
      <trkpt lat="42.85471013" lon="13.56734384">
        <ele>159.00000</ele>
        <time>2024-02-16T13:56:56Z</time>
      </trkpt>
      <trkpt lat="42.85466772" lon="13.56744174">
        <ele>159.00000</ele>
        <time>2024-02-16T13:56:57Z</time>
      </trkpt>
      <trkpt lat="42.85461802" lon="13.56752950">
        <ele>158.00000</ele>
        <time>2024-02-16T13:56:58Z</time>
      </trkpt>
      <trkpt lat="42.85456026" lon="13.56763905">
        <ele>158.00000</ele>
        <time>2024-02-16T13:56:59Z</time>
      </trkpt>
      <trkpt lat="42.85452246" lon="13.56771047">
        <ele>157.00000</ele>
        <time>2024-02-16T13:57:00Z</time>
      </trkpt>
      <trkpt lat="42.85446178" lon="13.56779278">
        <ele>157.00000</ele>
        <time>2024-02-16T13:57:01Z</time>
      </trkpt>
      <trkpt lat="42.85440193" lon="13.56787232">
        <ele>156.00000</ele>
        <time>2024-02-16T13:57:02Z</time>
      </trkpt>
      <trkpt lat="42.85435223" lon="13.56795589">
        <ele>156.00000</ele>
        <time>2024-02-16T13:57:03Z</time>
      </trkpt>
      <trkpt lat="42.85430889" lon="13.56804273">
        <ele>155.00000</ele>
        <time>2024-02-16T13:57:04Z</time>
      </trkpt>
      <trkpt lat="42.85427452" lon="13.56813065">
        <ele>154.00000</ele>
        <time>2024-02-16T13:57:05Z</time>
      </trkpt>
      <trkpt lat="42.85424334" lon="13.56821875">
        <ele>154.00000</ele>
        <time>2024-02-16T13:57:06Z</time>
      </trkpt>
      <trkpt lat="42.85420957" lon="13.56830382">
        <ele>155.00000</ele>
        <time>2024-02-16T13:57:07Z</time>
      </trkpt>
      <trkpt lat="42.85418283" lon="13.56839074">
        <ele>155.00000</ele>
        <time>2024-02-16T13:57:08Z</time>
      </trkpt>
      <trkpt lat="42.85416212" lon="13.56848261">
        <ele>155.00000</ele>
        <time>2024-02-16T13:57:09Z</time>
      </trkpt>
      <trkpt lat="42.85414083" lon="13.56857540">
        <ele>155.00000</ele>
        <time>2024-02-16T13:57:10Z</time>
      </trkpt>
      <trkpt lat="42.85411845" lon="13.56867372">
        <ele>156.00000</ele>
        <time>2024-02-16T13:57:11Z</time>
      </trkpt>
      <trkpt lat="42.85409750" lon="13.56877371">
        <ele>157.00000</ele>
        <time>2024-02-16T13:57:12Z</time>
      </trkpt>
      <trkpt lat="42.85408090" lon="13.56887346">
        <ele>157.00000</ele>
        <time>2024-02-16T13:57:13Z</time>
      </trkpt>
      <trkpt lat="42.85406691" lon="13.56897320">
        <ele>158.00000</ele>
        <time>2024-02-16T13:57:14Z</time>
      </trkpt>
      <trkpt lat="42.85405140" lon="13.56907303">
        <ele>159.00000</ele>
        <time>2024-02-16T13:57:15Z</time>
      </trkpt>
      <trkpt lat="42.85404344" lon="13.56917336">
        <ele>160.00000</ele>
        <time>2024-02-16T13:57:16Z</time>
      </trkpt>
      <trkpt lat="42.85403723" lon="13.56926992">
        <ele>160.00000</ele>
        <time>2024-02-16T13:57:17Z</time>
      </trkpt>
      <trkpt lat="42.85402516" lon="13.56938752">
        <ele>161.00000</ele>
        <time>2024-02-16T13:57:18Z</time>
      </trkpt>
      <trkpt lat="42.85401770" lon="13.56946815">
        <ele>161.00000</ele>
        <time>2024-02-16T13:57:19Z</time>
      </trkpt>
      <trkpt lat="42.85400664" lon="13.56956966">
        <ele>162.00000</ele>
        <time>2024-02-16T13:57:20Z</time>
      </trkpt>
      <trkpt lat="42.85399884" lon="13.56967208">
        <ele>162.00000</ele>
        <time>2024-02-16T13:57:21Z</time>
      </trkpt>
      <trkpt lat="42.85399356" lon="13.56977644">
        <ele>162.00000</ele>
        <time>2024-02-16T13:57:22Z</time>
      </trkpt>
      <trkpt lat="42.85398501" lon="13.56987828">
        <ele>163.00000</ele>
        <time>2024-02-16T13:57:23Z</time>
      </trkpt>
      <trkpt lat="42.85396875" lon="13.56997551">
        <ele>163.00000</ele>
        <time>2024-02-16T13:57:24Z</time>
      </trkpt>
      <trkpt lat="42.85395735" lon="13.57007224">
        <ele>163.00000</ele>
        <time>2024-02-16T13:57:25Z</time>
      </trkpt>
      <trkpt lat="42.85394503" lon="13.57016997">
        <ele>163.00000</ele>
        <time>2024-02-16T13:57:26Z</time>
      </trkpt>
      <trkpt lat="42.85392751" lon="13.57026485">
        <ele>163.00000</ele>
        <time>2024-02-16T13:57:27Z</time>
      </trkpt>
      <trkpt lat="42.85390983" lon="13.57035697">
        <ele>163.00000</ele>
        <time>2024-02-16T13:57:28Z</time>
      </trkpt>
      <trkpt lat="42.85389449" lon="13.57044951">
        <ele>163.00000</ele>
        <time>2024-02-16T13:57:29Z</time>
      </trkpt>
      <trkpt lat="42.85388468" lon="13.57054263">
        <ele>163.00000</ele>
        <time>2024-02-16T13:57:30Z</time>
      </trkpt>
      <trkpt lat="42.85387454" lon="13.57063651">
        <ele>162.00000</ele>
        <time>2024-02-16T13:57:31Z</time>
      </trkpt>
      <trkpt lat="42.85386499" lon="13.57073315">
        <ele>162.00000</ele>
        <time>2024-02-16T13:57:32Z</time>
      </trkpt>
      <trkpt lat="42.85385543" lon="13.57082828">
        <ele>162.00000</ele>
        <time>2024-02-16T13:57:33Z</time>
      </trkpt>
      <trkpt lat="42.85384780" lon="13.57092501">
        <ele>163.00000</ele>
        <time>2024-02-16T13:57:34Z</time>
      </trkpt>
      <trkpt lat="42.85385325" lon="13.57102635">
        <ele>163.00000</ele>
        <time>2024-02-16T13:57:35Z</time>
      </trkpt>
      <trkpt lat="42.85386490" lon="13.57112727">
        <ele>163.00000</ele>
        <time>2024-02-16T13:57:36Z</time>
      </trkpt>
      <trkpt lat="42.85386532" lon="13.57124369">
        <ele>163.00000</ele>
        <time>2024-02-16T13:57:37Z</time>
      </trkpt>
      <trkpt lat="42.85386247" lon="13.57132022">
        <ele>164.00000</ele>
        <time>2024-02-16T13:57:38Z</time>
      </trkpt>
      <trkpt lat="42.85384411" lon="13.57142340">
        <ele>164.00000</ele>
        <time>2024-02-16T13:57:39Z</time>
      </trkpt>
      <trkpt lat="42.85382157" lon="13.57152666">
        <ele>165.00000</ele>
        <time>2024-02-16T13:57:40Z</time>
      </trkpt>
      <trkpt lat="42.85381126" lon="13.57163353">
        <ele>165.00000</ele>
        <time>2024-02-16T13:57:41Z</time>
      </trkpt>
      <trkpt lat="42.85380321" lon="13.57173906">
        <ele>165.00000</ele>
        <time>2024-02-16T13:57:42Z</time>
      </trkpt>
      <trkpt lat="42.85378653" lon="13.57186982">
        <ele>164.00000</ele>
        <time>2024-02-16T13:57:43Z</time>
      </trkpt>
      <trkpt lat="42.85377773" lon="13.57195850">
        <ele>164.00000</ele>
        <time>2024-02-16T13:57:44Z</time>
      </trkpt>
      <trkpt lat="42.85377890" lon="13.57206738">
        <ele>163.00000</ele>
        <time>2024-02-16T13:57:45Z</time>
      </trkpt>
      <trkpt lat="42.85377345" lon="13.57217056">
        <ele>162.00000</ele>
        <time>2024-02-16T13:57:46Z</time>
      </trkpt>
      <trkpt lat="42.85377027" lon="13.57228120">
        <ele>162.00000</ele>
        <time>2024-02-16T13:57:47Z</time>
      </trkpt>
      <trkpt lat="42.85375619" lon="13.57238891">
        <ele>161.00000</ele>
        <time>2024-02-16T13:57:48Z</time>
      </trkpt>
      <trkpt lat="42.85373934" lon="13.57249243">
        <ele>161.00000</ele>
        <time>2024-02-16T13:57:49Z</time>
      </trkpt>
      <trkpt lat="42.85372132" lon="13.57259578">
        <ele>162.00000</ele>
        <time>2024-02-16T13:57:50Z</time>
      </trkpt>
      <trkpt lat="42.85370732" lon="13.57270382">
        <ele>162.00000</ele>
        <time>2024-02-16T13:57:51Z</time>
      </trkpt>
      <trkpt lat="42.85369676" lon="13.57281027">
        <ele>162.00000</ele>
        <time>2024-02-16T13:57:52Z</time>
      </trkpt>
      <trkpt lat="42.85368536" lon="13.57291697">
        <ele>163.00000</ele>
        <time>2024-02-16T13:57:53Z</time>
      </trkpt>
      <trkpt lat="42.85367765" lon="13.57302468">
        <ele>163.00000</ele>
        <time>2024-02-16T13:57:54Z</time>
      </trkpt>
      <trkpt lat="42.85366063" lon="13.57312912">
        <ele>163.00000</ele>
        <time>2024-02-16T13:57:55Z</time>
      </trkpt>
      <trkpt lat="42.85364152" lon="13.57323599">
        <ele>164.00000</ele>
        <time>2024-02-16T13:57:56Z</time>
      </trkpt>
      <trkpt lat="42.85362610" lon="13.57334051">
        <ele>164.00000</ele>
        <time>2024-02-16T13:57:57Z</time>
      </trkpt>
      <trkpt lat="42.85361655" lon="13.57344889">
        <ele>164.00000</ele>
        <time>2024-02-16T13:57:58Z</time>
      </trkpt>
      <trkpt lat="42.85360355" lon="13.57355643">
        <ele>164.00000</ele>
        <time>2024-02-16T13:57:59Z</time>
      </trkpt>
      <trkpt lat="42.85360129" lon="13.57366489">
        <ele>164.00000</ele>
        <time>2024-02-16T13:58:00Z</time>
      </trkpt>
      <trkpt lat="42.85360070" lon="13.57377544">
        <ele>163.00000</ele>
        <time>2024-02-16T13:58:01Z</time>
      </trkpt>
      <trkpt lat="42.85359316" lon="13.57388290">
        <ele>163.00000</ele>
        <time>2024-02-16T13:58:02Z</time>
      </trkpt>
      <trkpt lat="42.85358461" lon="13.57398952">
        <ele>162.00000</ele>
        <time>2024-02-16T13:58:03Z</time>
      </trkpt>
      <trkpt lat="42.85357824" lon="13.57409052">
        <ele>162.00000</ele>
        <time>2024-02-16T13:58:04Z</time>
      </trkpt>
      <trkpt lat="42.85357430" lon="13.57418993">
        <ele>161.00000</ele>
        <time>2024-02-16T13:58:05Z</time>
      </trkpt>
      <trkpt lat="42.85357715" lon="13.57429152">
        <ele>161.00000</ele>
        <time>2024-02-16T13:58:06Z</time>
      </trkpt>
      <trkpt lat="42.85358570" lon="13.57438732">
        <ele>161.00000</ele>
        <time>2024-02-16T13:58:07Z</time>
      </trkpt>
      <trkpt lat="42.85359174" lon="13.57448573">
        <ele>162.00000</ele>
        <time>2024-02-16T13:58:08Z</time>
      </trkpt>
      <trkpt lat="42.85359593" lon="13.57458874">
        <ele>162.00000</ele>
        <time>2024-02-16T13:58:09Z</time>
      </trkpt>
      <trkpt lat="42.85359970" lon="13.57469100">
        <ele>163.00000</ele>
        <time>2024-02-16T13:58:10Z</time>
      </trkpt>
      <trkpt lat="42.85360665" lon="13.57479007">
        <ele>163.00000</ele>
        <time>2024-02-16T13:58:11Z</time>
      </trkpt>
      <trkpt lat="42.85361252" lon="13.57488831">
        <ele>163.00000</ele>
        <time>2024-02-16T13:58:12Z</time>
      </trkpt>
      <trkpt lat="42.85361378" lon="13.57498361">
        <ele>163.00000</ele>
        <time>2024-02-16T13:58:13Z</time>
      </trkpt>
      <trkpt lat="42.85361931" lon="13.57508210">
        <ele>163.00000</ele>
        <time>2024-02-16T13:58:14Z</time>
      </trkpt>
      <trkpt lat="42.85362342" lon="13.57517648">
        <ele>163.00000</ele>
        <time>2024-02-16T13:58:15Z</time>
      </trkpt>
      <trkpt lat="42.85362325" lon="13.57526491">
        <ele>163.00000</ele>
        <time>2024-02-16T13:58:16Z</time>
      </trkpt>
      <trkpt lat="42.85361755" lon="13.57535040">
        <ele>163.00000</ele>
        <time>2024-02-16T13:58:17Z</time>
      </trkpt>
      <trkpt lat="42.85361286" lon="13.57544185">
        <ele>162.00000</ele>
        <time>2024-02-16T13:58:18Z</time>
      </trkpt>
      <trkpt lat="42.85360934" lon="13.57555492">
        <ele>162.00000</ele>
        <time>2024-02-16T13:58:19Z</time>
      </trkpt>
      <trkpt lat="42.85360942" lon="13.57565031">
        <ele>161.00000</ele>
        <time>2024-02-16T13:58:20Z</time>
      </trkpt>
      <trkpt lat="42.85361034" lon="13.57572843">
        <ele>161.00000</ele>
        <time>2024-02-16T13:58:21Z</time>
      </trkpt>
      <trkpt lat="42.85360967" lon="13.57582205">
        <ele>161.00000</ele>
        <time>2024-02-16T13:58:22Z</time>
      </trkpt>
      <trkpt lat="42.85360540" lon="13.57591333">
        <ele>161.00000</ele>
        <time>2024-02-16T13:58:23Z</time>
      </trkpt>
      <trkpt lat="42.85360498" lon="13.57600344">
        <ele>161.00000</ele>
        <time>2024-02-16T13:58:24Z</time>
      </trkpt>
      <trkpt lat="42.85360565" lon="13.57608743">
        <ele>161.00000</ele>
        <time>2024-02-16T13:58:25Z</time>
      </trkpt>
      <trkpt lat="42.85360699" lon="13.57616504">
        <ele>161.00000</ele>
        <time>2024-02-16T13:58:26Z</time>
      </trkpt>
      <trkpt lat="42.85360381" lon="13.57623687">
        <ele>161.00000</ele>
        <time>2024-02-16T13:58:27Z</time>
      </trkpt>
      <trkpt lat="42.85359274" lon="13.57630586">
        <ele>161.00000</ele>
        <time>2024-02-16T13:58:28Z</time>
      </trkpt>
      <trkpt lat="42.85358268" lon="13.57636830">
        <ele>162.00000</ele>
        <time>2024-02-16T13:58:29Z</time>
      </trkpt>
      <trkpt lat="42.85358008" lon="13.57643360">
        <ele>162.00000</ele>
        <time>2024-02-16T13:58:30Z</time>
      </trkpt>
      <trkpt lat="42.85358252" lon="13.57650929">
        <ele>162.00000</ele>
        <time>2024-02-16T13:58:31Z</time>
      </trkpt>
      <trkpt lat="42.85358880" lon="13.57658254">
        <ele>162.00000</ele>
        <time>2024-02-16T13:58:32Z</time>
      </trkpt>
      <trkpt lat="42.85359827" lon="13.57665446">
        <ele>162.00000</ele>
        <time>2024-02-16T13:58:33Z</time>
      </trkpt>
      <trkpt lat="42.85360355" lon="13.57672378">
        <ele>161.00000</ele>
        <time>2024-02-16T13:58:34Z</time>
      </trkpt>
      <trkpt lat="42.85360381" lon="13.57678513">
        <ele>161.00000</ele>
        <time>2024-02-16T13:58:35Z</time>
      </trkpt>
      <trkpt lat="42.85360121" lon="13.57684121">
        <ele>160.00000</ele>
        <time>2024-02-16T13:58:36Z</time>
      </trkpt>
      <trkpt lat="42.85359660" lon="13.57690047">
        <ele>160.00000</ele>
        <time>2024-02-16T13:58:37Z</time>
      </trkpt>
      <trkpt lat="42.85359743" lon="13.57695872">
        <ele>159.00000</ele>
        <time>2024-02-16T13:58:38Z</time>
      </trkpt>
      <trkpt lat="42.85359961" lon="13.57700005">
        <ele>159.00000</ele>
        <time>2024-02-16T13:58:39Z</time>
      </trkpt>
      <trkpt lat="42.85360489" lon="13.57701656">
        <ele>159.00000</ele>
        <time>2024-02-16T13:58:40Z</time>
      </trkpt>
      <trkpt lat="42.85362082" lon="13.57701824">
        <ele>159.00000</ele>
        <time>2024-02-16T13:58:41Z</time>
      </trkpt>
      <trkpt lat="42.85363415" lon="13.57700658">
        <ele>159.00000</ele>
        <time>2024-02-16T13:58:42Z</time>
      </trkpt>
      <trkpt lat="42.85363666" lon="13.57698990">
        <ele>159.00000</ele>
        <time>2024-02-16T13:58:43Z</time>
      </trkpt>
      <trkpt lat="42.85363524" lon="13.57696954">
        <ele>159.00000</ele>
        <time>2024-02-16T13:58:44Z</time>
      </trkpt>
      <trkpt lat="42.85363297" lon="13.57694858">
        <ele>160.00000</ele>
        <time>2024-02-16T13:58:45Z</time>
      </trkpt>
      <trkpt lat="42.85363289" lon="13.57693282">
        <ele>160.00000</ele>
        <time>2024-02-16T13:58:46Z</time>
      </trkpt>
      <trkpt lat="42.85363432" lon="13.57691748">
        <ele>160.00000</ele>
        <time>2024-02-16T13:58:47Z</time>
      </trkpt>
      <trkpt lat="42.85363499" lon="13.57690550">
        <ele>160.00000</ele>
        <time>2024-02-16T13:58:48Z</time>
      </trkpt>
      <trkpt lat="42.85363230" lon="13.57689452">
        <ele>160.00000</ele>
        <time>2024-02-16T13:58:49Z</time>
      </trkpt>
      <trkpt lat="42.85362426" lon="13.57689184">
        <ele>160.00000</ele>
        <time>2024-02-16T13:58:50Z</time>
      </trkpt>
      <trkpt lat="42.85361839" lon="13.57689234">
        <ele>160.00000</ele>
        <time>2024-02-16T13:58:51Z</time>
      </trkpt>
      <trkpt lat="42.85355938" lon="13.57705897">
        <ele>159.00000</ele>
        <time>2024-02-16T14:03:48Z</time>
      </trkpt>
      <trkpt lat="42.85355938" lon="13.57708244">
        <ele>159.00000</ele>
        <time>2024-02-16T14:03:49Z</time>
      </trkpt>
      <trkpt lat="42.85355477" lon="13.57710415">
        <ele>158.00000</ele>
        <time>2024-02-16T14:03:50Z</time>
      </trkpt>
      <trkpt lat="42.85355460" lon="13.57712712">
        <ele>158.00000</ele>
        <time>2024-02-16T14:03:51Z</time>
      </trkpt>
      <trkpt lat="42.85355703" lon="13.57714748">
        <ele>158.00000</ele>
        <time>2024-02-16T14:03:52Z</time>
      </trkpt>
      <trkpt lat="42.85355846" lon="13.57716743">
        <ele>158.00000</ele>
        <time>2024-02-16T14:03:53Z</time>
      </trkpt>
      <trkpt lat="42.85355938" lon="13.57718487">
        <ele>158.00000</ele>
        <time>2024-02-16T14:03:54Z</time>
      </trkpt>
      <trkpt lat="42.85355888" lon="13.57720172">
        <ele>158.00000</ele>
        <time>2024-02-16T14:03:55Z</time>
      </trkpt>
      <trkpt lat="42.85355661" lon="13.57721739">
        <ele>158.00000</ele>
        <time>2024-02-16T14:03:56Z</time>
      </trkpt>
      <trkpt lat="42.85355477" lon="13.57723155">
        <ele>158.00000</ele>
        <time>2024-02-16T14:03:57Z</time>
      </trkpt>
      <trkpt lat="42.85355200" lon="13.57724346">
        <ele>158.00000</ele>
        <time>2024-02-16T14:03:58Z</time>
      </trkpt>
      <trkpt lat="42.85355041" lon="13.57726114">
        <ele>158.00000</ele>
        <time>2024-02-16T14:03:59Z</time>
      </trkpt>
      <trkpt lat="42.85354798" lon="13.57728495">
        <ele>157.00000</ele>
        <time>2024-02-16T14:04:00Z</time>
      </trkpt>
      <trkpt lat="42.85354605" lon="13.57730817">
        <ele>157.00000</ele>
        <time>2024-02-16T14:04:01Z</time>
      </trkpt>
      <trkpt lat="42.85354069" lon="13.57733323">
        <ele>157.00000</ele>
        <time>2024-02-16T14:04:02Z</time>
      </trkpt>
      <trkpt lat="42.85353784" lon="13.57735762">
        <ele>157.00000</ele>
        <time>2024-02-16T14:04:03Z</time>
      </trkpt>
      <trkpt lat="42.85353667" lon="13.57738276">
        <ele>157.00000</ele>
        <time>2024-02-16T14:04:04Z</time>
      </trkpt>
      <trkpt lat="42.85353876" lon="13.57739903">
        <ele>157.00000</ele>
        <time>2024-02-16T14:04:05Z</time>
      </trkpt>
      <trkpt lat="42.85354706" lon="13.57741856">
        <ele>157.00000</ele>
        <time>2024-02-16T14:04:06Z</time>
      </trkpt>
      <trkpt lat="42.85354572" lon="13.57743356">
        <ele>157.00000</ele>
        <time>2024-02-16T14:04:07Z</time>
      </trkpt>
      <trkpt lat="42.85354555" lon="13.57744613">
        <ele>157.00000</ele>
        <time>2024-02-16T14:04:08Z</time>
      </trkpt>
      <trkpt lat="42.85354907" lon="13.57746365">
        <ele>157.00000</ele>
        <time>2024-02-16T14:04:09Z</time>
      </trkpt>
      <trkpt lat="42.85355259" lon="13.57747505">
        <ele>157.00000</ele>
        <time>2024-02-16T14:04:10Z</time>
      </trkpt>
      <trkpt lat="42.85355603" lon="13.57747840">
        <ele>157.00000</ele>
        <time>2024-02-16T14:04:11Z</time>
      </trkpt>
      <trkpt lat="42.85355142" lon="13.57748025">
        <ele>157.00000</ele>
        <time>2024-02-16T14:04:13Z</time>
      </trkpt>
      <trkpt lat="42.85353952" lon="13.57747840">
        <ele>157.00000</ele>
        <time>2024-02-16T14:04:14Z</time>
      </trkpt>
      <trkpt lat="42.85353709" lon="13.57747170">
        <ele>157.00000</ele>
        <time>2024-02-16T14:04:15Z</time>
      </trkpt>
      <trkpt lat="42.85353063" lon="13.57747756">
        <ele>157.00000</ele>
        <time>2024-02-16T14:04:16Z</time>
      </trkpt>
      <trkpt lat="42.85353013" lon="13.57749617">
        <ele>157.00000</ele>
        <time>2024-02-16T14:04:17Z</time>
      </trkpt>
      <trkpt lat="42.85352921" lon="13.57751939">
        <ele>157.00000</ele>
        <time>2024-02-16T14:04:18Z</time>
      </trkpt>
      <trkpt lat="42.85352971" lon="13.57754571">
        <ele>157.00000</ele>
        <time>2024-02-16T14:04:19Z</time>
      </trkpt>
      <trkpt lat="42.85353055" lon="13.57757731">
        <ele>157.00000</ele>
        <time>2024-02-16T14:04:20Z</time>
      </trkpt>
      <trkpt lat="42.85352895" lon="13.57760480">
        <ele>157.00000</ele>
        <time>2024-02-16T14:04:21Z</time>
      </trkpt>
      <trkpt lat="42.85352736" lon="13.57764068">
        <ele>157.00000</ele>
        <time>2024-02-16T14:04:22Z</time>
      </trkpt>
      <trkpt lat="42.85352476" lon="13.57767278">
        <ele>157.00000</ele>
        <time>2024-02-16T14:04:23Z</time>
      </trkpt>
      <trkpt lat="42.85352200" lon="13.57770647">
        <ele>157.00000</ele>
        <time>2024-02-16T14:04:24Z</time>
      </trkpt>
      <trkpt lat="42.85351915" lon="13.57774511">
        <ele>157.00000</ele>
        <time>2024-02-16T14:04:25Z</time>
      </trkpt>
      <trkpt lat="42.85352116" lon="13.57778577">
        <ele>157.00000</ele>
        <time>2024-02-16T14:04:26Z</time>
      </trkpt>
      <trkpt lat="42.85352502" lon="13.57782265">
        <ele>157.00000</ele>
        <time>2024-02-16T14:04:27Z</time>
      </trkpt>
      <trkpt lat="42.85352761" lon="13.57785668">
        <ele>157.00000</ele>
        <time>2024-02-16T14:04:28Z</time>
      </trkpt>
      <trkpt lat="42.85353130" lon="13.57789624">
        <ele>157.00000</ele>
        <time>2024-02-16T14:04:29Z</time>
      </trkpt>
      <trkpt lat="42.85353457" lon="13.57793756">
        <ele>157.00000</ele>
        <time>2024-02-16T14:04:30Z</time>
      </trkpt>
      <trkpt lat="42.85354077" lon="13.57797914">
        <ele>157.00000</ele>
        <time>2024-02-16T14:04:31Z</time>
      </trkpt>
      <trkpt lat="42.85355050" lon="13.57802004">
        <ele>157.00000</ele>
        <time>2024-02-16T14:04:32Z</time>
      </trkpt>
      <trkpt lat="42.85356483" lon="13.57806723">
        <ele>157.00000</ele>
        <time>2024-02-16T14:04:33Z</time>
      </trkpt>
      <trkpt lat="42.85358143" lon="13.57810411">
        <ele>157.00000</ele>
        <time>2024-02-16T14:04:34Z</time>
      </trkpt>
      <trkpt lat="42.85359450" lon="13.57812959">
        <ele>157.00000</ele>
        <time>2024-02-16T14:04:35Z</time>
      </trkpt>
      <trkpt lat="42.85361101" lon="13.57815918">
        <ele>157.00000</ele>
        <time>2024-02-16T14:04:36Z</time>
      </trkpt>
      <trkpt lat="42.85361738" lon="13.57817125">
        <ele>157.00000</ele>
        <time>2024-02-16T14:04:37Z</time>
      </trkpt>
      <trkpt lat="42.85362794" lon="13.57819078">
        <ele>157.00000</ele>
        <time>2024-02-16T14:04:38Z</time>
      </trkpt>
      <trkpt lat="42.85363339" lon="13.57820637">
        <ele>158.00000</ele>
        <time>2024-02-16T14:04:39Z</time>
      </trkpt>
      <trkpt lat="42.85363842" lon="13.57822523">
        <ele>158.00000</ele>
        <time>2024-02-16T14:04:40Z</time>
      </trkpt>
      <trkpt lat="42.85364077" lon="13.57824828">
        <ele>158.00000</ele>
        <time>2024-02-16T14:04:41Z</time>
      </trkpt>
      <trkpt lat="42.85364354" lon="13.57826580">
        <ele>158.00000</ele>
        <time>2024-02-16T14:04:42Z</time>
      </trkpt>
      <trkpt lat="42.85364345" lon="13.57829069">
        <ele>158.00000</ele>
        <time>2024-02-16T14:04:43Z</time>
      </trkpt>
      <trkpt lat="42.85364345" lon="13.57831927">
        <ele>158.00000</ele>
        <time>2024-02-16T14:04:44Z</time>
      </trkpt>
      <trkpt lat="42.85364462" lon="13.57834408">
        <ele>158.00000</ele>
        <time>2024-02-16T14:04:45Z</time>
      </trkpt>
      <trkpt lat="42.85364630" lon="13.57837166">
        <ele>158.00000</ele>
        <time>2024-02-16T14:04:46Z</time>
      </trkpt>
      <trkpt lat="42.85364848" lon="13.57840829">
        <ele>158.00000</ele>
        <time>2024-02-16T14:04:47Z</time>
      </trkpt>
      <trkpt lat="42.85364739" lon="13.57845305">
        <ele>158.00000</ele>
        <time>2024-02-16T14:04:48Z</time>
      </trkpt>
      <trkpt lat="42.85363767" lon="13.57849999">
        <ele>158.00000</ele>
        <time>2024-02-16T14:04:49Z</time>
      </trkpt>
      <trkpt lat="42.85363172" lon="13.57854416">
        <ele>158.00000</ele>
        <time>2024-02-16T14:04:50Z</time>
      </trkpt>
      <trkpt lat="42.85363649" lon="13.57859428">
        <ele>158.00000</ele>
        <time>2024-02-16T14:04:51Z</time>
      </trkpt>
      <trkpt lat="42.85364303" lon="13.57864483">
        <ele>158.00000</ele>
        <time>2024-02-16T14:04:52Z</time>
      </trkpt>
      <trkpt lat="42.85366432" lon="13.57869965">
        <ele>158.00000</ele>
        <time>2024-02-16T14:04:53Z</time>
      </trkpt>
      <trkpt lat="42.85368653" lon="13.57877131">
        <ele>158.00000</ele>
        <time>2024-02-16T14:04:54Z</time>
      </trkpt>
      <trkpt lat="42.85370011" lon="13.57883350">
        <ele>158.00000</ele>
        <time>2024-02-16T14:04:55Z</time>
      </trkpt>
      <trkpt lat="42.85370162" lon="13.57891053">
        <ele>158.00000</ele>
        <time>2024-02-16T14:04:56Z</time>
      </trkpt>
      <trkpt lat="42.85370715" lon="13.57899586">
        <ele>158.00000</ele>
        <time>2024-02-16T14:04:57Z</time>
      </trkpt>
      <trkpt lat="42.85371227" lon="13.57907339">
        <ele>157.00000</ele>
        <time>2024-02-16T14:04:58Z</time>
      </trkpt>
      <trkpt lat="42.85372643" lon="13.57912754">
        <ele>157.00000</ele>
        <time>2024-02-16T14:04:59Z</time>
      </trkpt>
      <trkpt lat="42.85373917" lon="13.57919217">
        <ele>157.00000</ele>
        <time>2024-02-16T14:05:00Z</time>
      </trkpt>
      <trkpt lat="42.85372677" lon="13.57924816">
        <ele>157.00000</ele>
        <time>2024-02-16T14:05:01Z</time>
      </trkpt>
      <trkpt lat="42.85371713" lon="13.57930582">
        <ele>157.00000</ele>
        <time>2024-02-16T14:05:02Z</time>
      </trkpt>
      <trkpt lat="42.85372367" lon="13.57935469">
        <ele>156.00000</ele>
        <time>2024-02-16T14:05:03Z</time>
      </trkpt>
      <trkpt lat="42.85373624" lon="13.57939585">
        <ele>156.00000</ele>
        <time>2024-02-16T14:05:04Z</time>
      </trkpt>
      <trkpt lat="42.85374839" lon="13.57944706">
        <ele>156.00000</ele>
        <time>2024-02-16T14:05:05Z</time>
      </trkpt>
      <trkpt lat="42.85376088" lon="13.57950959">
        <ele>156.00000</ele>
        <time>2024-02-16T14:05:06Z</time>
      </trkpt>
      <trkpt lat="42.85376138" lon="13.57956659">
        <ele>156.00000</ele>
        <time>2024-02-16T14:05:07Z</time>
      </trkpt>
      <trkpt lat="42.85375610" lon="13.57962744">
        <ele>156.00000</ele>
        <time>2024-02-16T14:05:08Z</time>
      </trkpt>
      <trkpt lat="42.85374445" lon="13.57969927">
        <ele>156.00000</ele>
        <time>2024-02-16T14:05:09Z</time>
      </trkpt>
      <trkpt lat="42.85374739" lon="13.57975845">
        <ele>156.00000</ele>
        <time>2024-02-16T14:05:10Z</time>
      </trkpt>
      <trkpt lat="42.85375376" lon="13.57981704">
        <ele>156.00000</ele>
        <time>2024-02-16T14:05:11Z</time>
      </trkpt>
      <trkpt lat="42.85376348" lon="13.57987982">
        <ele>156.00000</ele>
        <time>2024-02-16T14:05:12Z</time>
      </trkpt>
      <trkpt lat="42.85378242" lon="13.57994930">
        <ele>156.00000</ele>
        <time>2024-02-16T14:05:13Z</time>
      </trkpt>
      <trkpt lat="42.85380505" lon="13.58002281">
        <ele>156.00000</ele>
        <time>2024-02-16T14:05:14Z</time>
      </trkpt>
      <trkpt lat="42.85381117" lon="13.58009314">
        <ele>156.00000</ele>
        <time>2024-02-16T14:05:15Z</time>
      </trkpt>
      <trkpt lat="42.85379827" lon="13.58014116">
        <ele>157.00000</ele>
        <time>2024-02-16T14:05:16Z</time>
      </trkpt>
      <trkpt lat="42.85380153" lon="13.58019690">
        <ele>157.00000</ele>
        <time>2024-02-16T14:05:17Z</time>
      </trkpt>
      <trkpt lat="42.85382316" lon="13.58025633">
        <ele>158.00000</ele>
        <time>2024-02-16T14:05:18Z</time>
      </trkpt>
      <trkpt lat="42.85382987" lon="13.58031291">
        <ele>158.00000</ele>
        <time>2024-02-16T14:05:19Z</time>
      </trkpt>
      <trkpt lat="42.85383665" lon="13.58036932">
        <ele>158.00000</ele>
        <time>2024-02-16T14:05:20Z</time>
      </trkpt>
      <trkpt lat="42.85383892" lon="13.58042271">
        <ele>158.00000</ele>
        <time>2024-02-16T14:05:21Z</time>
      </trkpt>
      <trkpt lat="42.85384085" lon="13.58047468">
        <ele>159.00000</ele>
        <time>2024-02-16T14:05:22Z</time>
      </trkpt>
      <trkpt lat="42.85386423" lon="13.58055850">
        <ele>159.00000</ele>
        <time>2024-02-16T14:05:23Z</time>
      </trkpt>
      <trkpt lat="42.85388007" lon="13.58062857">
        <ele>159.00000</ele>
        <time>2024-02-16T14:05:24Z</time>
      </trkpt>
      <trkpt lat="42.85389130" lon="13.58069135">
        <ele>158.00000</ele>
        <time>2024-02-16T14:05:25Z</time>
      </trkpt>
      <trkpt lat="42.85387379" lon="13.58075497">
        <ele>159.00000</ele>
        <time>2024-02-16T14:05:26Z</time>
      </trkpt>
      <trkpt lat="42.85386993" lon="13.58081809">
        <ele>159.00000</ele>
        <time>2024-02-16T14:05:27Z</time>
      </trkpt>
      <trkpt lat="42.85388602" lon="13.58088254">
        <ele>159.00000</ele>
        <time>2024-02-16T14:05:28Z</time>
      </trkpt>
      <trkpt lat="42.85391955" lon="13.58096636">
        <ele>158.00000</ele>
        <time>2024-02-16T14:05:29Z</time>
      </trkpt>
      <trkpt lat="42.85394294" lon="13.58104540">
        <ele>158.00000</ele>
        <time>2024-02-16T14:05:30Z</time>
      </trkpt>
      <trkpt lat="42.85390949" lon="13.58116275">
        <ele>158.00000</ele>
        <time>2024-02-16T14:05:31Z</time>
      </trkpt>
      <trkpt lat="42.85385769" lon="13.58120810">
        <ele>159.00000</ele>
        <time>2024-02-16T14:05:32Z</time>
      </trkpt>
      <trkpt lat="42.85385937" lon="13.58127993">
        <ele>158.00000</ele>
        <time>2024-02-16T14:05:33Z</time>
      </trkpt>
      <trkpt lat="42.85386800" lon="13.58136316">
        <ele>158.00000</ele>
        <time>2024-02-16T14:05:34Z</time>
      </trkpt>
      <trkpt lat="42.85388016" lon="13.58144363">
        <ele>157.00000</ele>
        <time>2024-02-16T14:05:35Z</time>
      </trkpt>
      <trkpt lat="42.85389013" lon="13.58152502">
        <ele>157.00000</ele>
        <time>2024-02-16T14:05:36Z</time>
      </trkpt>
      <trkpt lat="42.85389658" lon="13.58162744">
        <ele>157.00000</ele>
        <time>2024-02-16T14:05:37Z</time>
      </trkpt>
      <trkpt lat="42.85389994" lon="13.58174580">
        <ele>156.00000</ele>
        <time>2024-02-16T14:05:38Z</time>
      </trkpt>
      <trkpt lat="42.85386708" lon="13.58185996">
        <ele>155.00000</ele>
        <time>2024-02-16T14:05:39Z</time>
      </trkpt>
      <trkpt lat="42.85382634" lon="13.58198686">
        <ele>155.00000</ele>
        <time>2024-02-16T14:05:40Z</time>
      </trkpt>
      <trkpt lat="42.85383263" lon="13.58207470">
        <ele>154.00000</ele>
        <time>2024-02-16T14:05:41Z</time>
      </trkpt>
      <trkpt lat="42.85383246" lon="13.58215400">
        <ele>153.00000</ele>
        <time>2024-02-16T14:05:42Z</time>
      </trkpt>
      <trkpt lat="42.85383095" lon="13.58225014">
        <ele>152.00000</ele>
        <time>2024-02-16T14:05:43Z</time>
      </trkpt>
      <trkpt lat="42.85383473" lon="13.58231979">
        <ele>152.00000</ele>
        <time>2024-02-16T14:05:44Z</time>
      </trkpt>
      <trkpt lat="42.85383473" lon="13.58240419">
        <ele>151.00000</ele>
        <time>2024-02-16T14:05:45Z</time>
      </trkpt>
      <trkpt lat="42.85383858" lon="13.58249086">
        <ele>150.00000</ele>
        <time>2024-02-16T14:05:46Z</time>
      </trkpt>
      <trkpt lat="42.85383649" lon="13.58257468">
        <ele>150.00000</ele>
        <time>2024-02-16T14:05:47Z</time>
      </trkpt>
      <trkpt lat="42.85384370" lon="13.58266051">
        <ele>150.00000</ele>
        <time>2024-02-16T14:05:48Z</time>
      </trkpt>
      <trkpt lat="42.85384613" lon="13.58276336">
        <ele>150.00000</ele>
        <time>2024-02-16T14:05:49Z</time>
      </trkpt>
      <trkpt lat="42.85385191" lon="13.58283838">
        <ele>150.00000</ele>
        <time>2024-02-16T14:05:50Z</time>
      </trkpt>
      <trkpt lat="42.85385711" lon="13.58292479">
        <ele>150.00000</ele>
        <time>2024-02-16T14:05:51Z</time>
      </trkpt>
      <trkpt lat="42.85386230" lon="13.58300652">
        <ele>150.00000</ele>
        <time>2024-02-16T14:05:52Z</time>
      </trkpt>
      <trkpt lat="42.85386834" lon="13.58310601">
        <ele>150.00000</ele>
        <time>2024-02-16T14:05:53Z</time>
      </trkpt>
      <trkpt lat="42.85387110" lon="13.58317307">
        <ele>150.00000</ele>
        <time>2024-02-16T14:05:54Z</time>
      </trkpt>
      <trkpt lat="42.85387488" lon="13.58325680">
        <ele>150.00000</ele>
        <time>2024-02-16T14:05:55Z</time>
      </trkpt>
      <trkpt lat="42.85387823" lon="13.58334121">
        <ele>151.00000</ele>
        <time>2024-02-16T14:05:56Z</time>
      </trkpt>
      <trkpt lat="42.85388217" lon="13.58342184">
        <ele>151.00000</ele>
        <time>2024-02-16T14:05:57Z</time>
      </trkpt>
      <trkpt lat="42.85388527" lon="13.58350021">
        <ele>152.00000</ele>
        <time>2024-02-16T14:05:58Z</time>
      </trkpt>
      <trkpt lat="42.85388971" lon="13.58357951">
        <ele>152.00000</ele>
        <time>2024-02-16T14:05:59Z</time>
      </trkpt>
      <trkpt lat="42.85389172" lon="13.58365922">
        <ele>153.00000</ele>
        <time>2024-02-16T14:06:00Z</time>
      </trkpt>
      <trkpt lat="42.85389491" lon="13.58374119">
        <ele>154.00000</ele>
        <time>2024-02-16T14:06:01Z</time>
      </trkpt>
      <trkpt lat="42.85389759" lon="13.58382644">
        <ele>155.00000</ele>
        <time>2024-02-16T14:06:02Z</time>
      </trkpt>
      <trkpt lat="42.85390052" lon="13.58390908">
        <ele>156.00000</ele>
        <time>2024-02-16T14:06:03Z</time>
      </trkpt>
      <trkpt lat="42.85390245" lon="13.58399039">
        <ele>157.00000</ele>
        <time>2024-02-16T14:06:04Z</time>
      </trkpt>
      <trkpt lat="42.85390488" lon="13.58407177">
        <ele>158.00000</ele>
        <time>2024-02-16T14:06:05Z</time>
      </trkpt>
      <trkpt lat="42.85391083" lon="13.58415341">
        <ele>159.00000</ele>
        <time>2024-02-16T14:06:06Z</time>
      </trkpt>
      <trkpt lat="42.85391712" lon="13.58423966">
        <ele>160.00000</ele>
        <time>2024-02-16T14:06:07Z</time>
      </trkpt>
      <trkpt lat="42.85392282" lon="13.58432885">
        <ele>160.00000</ele>
        <time>2024-02-16T14:06:08Z</time>
      </trkpt>
      <trkpt lat="42.85392567" lon="13.58441728">
        <ele>161.00000</ele>
        <time>2024-02-16T14:06:09Z</time>
      </trkpt>
      <trkpt lat="42.85393103" lon="13.58450361">
        <ele>160.00000</ele>
        <time>2024-02-16T14:06:10Z</time>
      </trkpt>
      <trkpt lat="42.85393925" lon="13.58460579">
        <ele>157.00000</ele>
        <time>2024-02-16T14:06:11Z</time>
      </trkpt>
      <trkpt lat="42.85394554" lon="13.58467862">
        <ele>156.00000</ele>
        <time>2024-02-16T14:06:12Z</time>
      </trkpt>
      <trkpt lat="42.85395065" lon="13.58477644">
        <ele>153.00000</ele>
        <time>2024-02-16T14:06:13Z</time>
      </trkpt>
      <trkpt lat="42.85395383" lon="13.58487275">
        <ele>150.00000</ele>
        <time>2024-02-16T14:06:14Z</time>
      </trkpt>
      <trkpt lat="42.85395903" lon="13.58498456">
        <ele>147.00000</ele>
        <time>2024-02-16T14:06:15Z</time>
      </trkpt>
      <trkpt lat="42.85396322" lon="13.58506176">
        <ele>144.00000</ele>
        <time>2024-02-16T14:06:16Z</time>
      </trkpt>
      <trkpt lat="42.85397018" lon="13.58515547">
        <ele>141.00000</ele>
        <time>2024-02-16T14:06:17Z</time>
      </trkpt>
      <trkpt lat="42.85397588" lon="13.58524641">
        <ele>137.00000</ele>
        <time>2024-02-16T14:06:18Z</time>
      </trkpt>
      <trkpt lat="42.85398057" lon="13.58533786">
        <ele>134.00000</ele>
        <time>2024-02-16T14:06:19Z</time>
      </trkpt>
      <trkpt lat="42.85398434" lon="13.58543115">
        <ele>132.00000</ele>
        <time>2024-02-16T14:06:20Z</time>
      </trkpt>
      <trkpt lat="42.85398803" lon="13.58552075">
        <ele>130.00000</ele>
        <time>2024-02-16T14:06:21Z</time>
      </trkpt>
      <trkpt lat="42.85399155" lon="13.58560935">
        <ele>130.00000</ele>
        <time>2024-02-16T14:06:22Z</time>
      </trkpt>
      <trkpt lat="42.85399574" lon="13.58569627">
        <ele>130.00000</ele>
        <time>2024-02-16T14:06:23Z</time>
      </trkpt>
      <trkpt lat="42.85400262" lon="13.58578101">
        <ele>131.00000</ele>
        <time>2024-02-16T14:06:24Z</time>
      </trkpt>
      <trkpt lat="42.85400748" lon="13.58586198">
        <ele>132.00000</ele>
        <time>2024-02-16T14:06:25Z</time>
      </trkpt>
      <trkpt lat="42.85401066" lon="13.58593993">
        <ele>134.00000</ele>
        <time>2024-02-16T14:06:26Z</time>
      </trkpt>
      <trkpt lat="42.85401351" lon="13.58601663">
        <ele>135.00000</ele>
        <time>2024-02-16T14:06:27Z</time>
      </trkpt>
      <trkpt lat="42.85401603" lon="13.58609014">
        <ele>136.00000</ele>
        <time>2024-02-16T14:06:28Z</time>
      </trkpt>
      <trkpt lat="42.85401795" lon="13.58616407">
        <ele>137.00000</ele>
        <time>2024-02-16T14:06:29Z</time>
      </trkpt>
      <trkpt lat="42.85401561" lon="13.58623841">
        <ele>138.00000</ele>
        <time>2024-02-16T14:06:30Z</time>
      </trkpt>
      <trkpt lat="42.85400714" lon="13.58631033">
        <ele>139.00000</ele>
        <time>2024-02-16T14:06:31Z</time>
      </trkpt>
      <trkpt lat="42.85399742" lon="13.58638317">
        <ele>140.00000</ele>
        <time>2024-02-16T14:06:32Z</time>
      </trkpt>
      <trkpt lat="42.85399340" lon="13.58645793">
        <ele>142.00000</ele>
        <time>2024-02-16T14:06:33Z</time>
      </trkpt>
      <trkpt lat="42.85399314" lon="13.58653237">
        <ele>143.00000</ele>
        <time>2024-02-16T14:06:34Z</time>
      </trkpt>
      <trkpt lat="42.85399775" lon="13.58662624">
        <ele>145.00000</ele>
        <time>2024-02-16T14:06:35Z</time>
      </trkpt>
      <trkpt lat="42.85400069" lon="13.58670671">
        <ele>147.00000</ele>
        <time>2024-02-16T14:06:36Z</time>
      </trkpt>
      <trkpt lat="42.85400320" lon="13.58678500">
        <ele>148.00000</ele>
        <time>2024-02-16T14:06:37Z</time>
      </trkpt>
      <trkpt lat="42.85400572" lon="13.58686571">
        <ele>150.00000</ele>
        <time>2024-02-16T14:06:38Z</time>
      </trkpt>
      <trkpt lat="42.85400748" lon="13.58694308">
        <ele>151.00000</ele>
        <time>2024-02-16T14:06:39Z</time>
      </trkpt>
      <trkpt lat="42.85400857" lon="13.58701910">
        <ele>151.00000</ele>
        <time>2024-02-16T14:06:40Z</time>
      </trkpt>
      <trkpt lat="42.85401024" lon="13.58707794">
        <ele>151.00000</ele>
        <time>2024-02-16T14:06:41Z</time>
      </trkpt>
      <trkpt lat="42.85401427" lon="13.58716805">
        <ele>151.00000</ele>
        <time>2024-02-16T14:06:42Z</time>
      </trkpt>
      <trkpt lat="42.85401720" lon="13.58722731">
        <ele>152.00000</ele>
        <time>2024-02-16T14:06:43Z</time>
      </trkpt>
      <trkpt lat="42.85402030" lon="13.58729939">
        <ele>151.00000</ele>
        <time>2024-02-16T14:06:44Z</time>
      </trkpt>
      <trkpt lat="42.85402080" lon="13.58737123">
        <ele>151.00000</ele>
        <time>2024-02-16T14:06:45Z</time>
      </trkpt>
      <trkpt lat="42.85402500" lon="13.58744138">
        <ele>150.00000</ele>
        <time>2024-02-16T14:06:46Z</time>
      </trkpt>
      <trkpt lat="42.85403371" lon="13.58752135">
        <ele>150.00000</ele>
        <time>2024-02-16T14:06:47Z</time>
      </trkpt>
      <trkpt lat="42.85404033" lon="13.58756829">
        <ele>149.00000</ele>
        <time>2024-02-16T14:06:48Z</time>
      </trkpt>
      <trkpt lat="42.85403589" lon="13.58763509">
        <ele>149.00000</ele>
        <time>2024-02-16T14:06:49Z</time>
      </trkpt>
      <trkpt lat="42.85403128" lon="13.58768119">
        <ele>149.00000</ele>
        <time>2024-02-16T14:06:50Z</time>
      </trkpt>
      <trkpt lat="42.85401108" lon="13.58773282">
        <ele>149.00000</ele>
        <time>2024-02-16T14:06:51Z</time>
      </trkpt>
      <trkpt lat="42.85397906" lon="13.58778110">
        <ele>149.00000</ele>
        <time>2024-02-16T14:06:52Z</time>
      </trkpt>
      <trkpt lat="42.85393665" lon="13.58783684">
        <ele>149.00000</ele>
        <time>2024-02-16T14:06:53Z</time>
      </trkpt>
      <trkpt lat="42.85390530" lon="13.58788261">
        <ele>149.00000</ele>
        <time>2024-02-16T14:06:54Z</time>
      </trkpt>
      <trkpt lat="42.85385660" lon="13.58790130">
        <ele>149.00000</ele>
        <time>2024-02-16T14:06:55Z</time>
      </trkpt>
      <trkpt lat="42.85381805" lon="13.58790205">
        <ele>150.00000</ele>
        <time>2024-02-16T14:06:56Z</time>
      </trkpt>
      <trkpt lat="42.85377320" lon="13.58789635">
        <ele>150.00000</ele>
        <time>2024-02-16T14:06:57Z</time>
      </trkpt>
      <trkpt lat="42.85373859" lon="13.58788923">
        <ele>150.00000</ele>
        <time>2024-02-16T14:06:58Z</time>
      </trkpt>
      <trkpt lat="42.85370288" lon="13.58788906">
        <ele>150.00000</ele>
        <time>2024-02-16T14:06:59Z</time>
      </trkpt>
      <trkpt lat="42.85366700" lon="13.58789334">
        <ele>151.00000</ele>
        <time>2024-02-16T14:07:00Z</time>
      </trkpt>
      <trkpt lat="42.85363465" lon="13.58789191">
        <ele>151.00000</ele>
        <time>2024-02-16T14:07:01Z</time>
      </trkpt>
      <trkpt lat="42.85360624" lon="13.58790339">
        <ele>151.00000</ele>
        <time>2024-02-16T14:07:02Z</time>
      </trkpt>
      <trkpt lat="42.85357112" lon="13.58790616">
        <ele>151.00000</ele>
        <time>2024-02-16T14:07:03Z</time>
      </trkpt>
      <trkpt lat="42.85352661" lon="13.58790976">
        <ele>152.00000</ele>
        <time>2024-02-16T14:07:04Z</time>
      </trkpt>
      <trkpt lat="42.85346760" lon="13.58790524">
        <ele>152.00000</ele>
        <time>2024-02-16T14:07:05Z</time>
      </trkpt>
      <trkpt lat="42.85339845" lon="13.58789526">
        <ele>153.00000</ele>
        <time>2024-02-16T14:07:06Z</time>
      </trkpt>
      <trkpt lat="42.85333005" lon="13.58789057">
        <ele>154.00000</ele>
        <time>2024-02-16T14:07:07Z</time>
      </trkpt>
      <trkpt lat="42.85326031" lon="13.58790415">
        <ele>154.00000</ele>
        <time>2024-02-16T14:07:08Z</time>
      </trkpt>
      <trkpt lat="42.85318748" lon="13.58795762">
        <ele>154.00000</ele>
        <time>2024-02-16T14:07:09Z</time>
      </trkpt>
      <trkpt lat="42.85311749" lon="13.58798990">
        <ele>154.00000</ele>
        <time>2024-02-16T14:07:10Z</time>
      </trkpt>
      <trkpt lat="42.85305219" lon="13.58799719">
        <ele>154.00000</ele>
        <time>2024-02-16T14:07:11Z</time>
      </trkpt>
      <trkpt lat="42.85300022" lon="13.58798461">
        <ele>154.00000</ele>
        <time>2024-02-16T14:07:12Z</time>
      </trkpt>
      <trkpt lat="42.85293065" lon="13.58797757">
        <ele>154.00000</ele>
        <time>2024-02-16T14:07:13Z</time>
      </trkpt>
      <trkpt lat="42.85287148" lon="13.58798730">
        <ele>154.00000</ele>
        <time>2024-02-16T14:07:14Z</time>
      </trkpt>
      <trkpt lat="42.85281230" lon="13.58800624">
        <ele>154.00000</ele>
        <time>2024-02-16T14:07:15Z</time>
      </trkpt>
      <trkpt lat="42.85275807" lon="13.58801387">
        <ele>153.00000</ele>
        <time>2024-02-16T14:07:16Z</time>
      </trkpt>
      <trkpt lat="42.85270635" lon="13.58801563">
        <ele>153.00000</ele>
        <time>2024-02-16T14:07:17Z</time>
      </trkpt>
      <trkpt lat="42.85265774" lon="13.58801747">
        <ele>153.00000</ele>
        <time>2024-02-16T14:07:18Z</time>
      </trkpt>
      <trkpt lat="42.85259236" lon="13.58802560">
        <ele>153.00000</ele>
        <time>2024-02-16T14:07:19Z</time>
      </trkpt>
      <trkpt lat="42.85252916" lon="13.58803935">
        <ele>153.00000</ele>
        <time>2024-02-16T14:07:20Z</time>
      </trkpt>
      <trkpt lat="42.85246588" lon="13.58804840">
        <ele>152.00000</ele>
        <time>2024-02-16T14:07:21Z</time>
      </trkpt>
      <trkpt lat="42.85240067" lon="13.58805603">
        <ele>152.00000</ele>
        <time>2024-02-16T14:07:22Z</time>
      </trkpt>
      <trkpt lat="42.85233017" lon="13.58806324">
        <ele>151.00000</ele>
        <time>2024-02-16T14:07:23Z</time>
      </trkpt>
      <trkpt lat="42.85227226" lon="13.58808486">
        <ele>151.00000</ele>
        <time>2024-02-16T14:07:24Z</time>
      </trkpt>
      <trkpt lat="42.85219154" lon="13.58810666">
        <ele>151.00000</ele>
        <time>2024-02-16T14:07:25Z</time>
      </trkpt>
      <trkpt lat="42.85212750" lon="13.58809894">
        <ele>151.00000</ele>
        <time>2024-02-16T14:07:26Z</time>
      </trkpt>
      <trkpt lat="42.85206614" lon="13.58810272">
        <ele>151.00000</ele>
        <time>2024-02-16T14:07:27Z</time>
      </trkpt>
      <trkpt lat="42.85200756" lon="13.58812912">
        <ele>151.00000</ele>
        <time>2024-02-16T14:07:28Z</time>
      </trkpt>
      <trkpt lat="42.85195659" lon="13.58818771">
        <ele>151.00000</ele>
        <time>2024-02-16T14:07:29Z</time>
      </trkpt>
      <trkpt lat="42.85192281" lon="13.58826541">
        <ele>151.00000</ele>
        <time>2024-02-16T14:07:30Z</time>
      </trkpt>
      <trkpt lat="42.85189373" lon="13.58835426">
        <ele>151.00000</ele>
        <time>2024-02-16T14:07:31Z</time>
      </trkpt>
      <trkpt lat="42.85187127" lon="13.58844176">
        <ele>151.00000</ele>
        <time>2024-02-16T14:07:32Z</time>
      </trkpt>
      <trkpt lat="42.85185148" lon="13.58853480">
        <ele>152.00000</ele>
        <time>2024-02-16T14:07:33Z</time>
      </trkpt>
      <trkpt lat="42.85183321" lon="13.58862524">
        <ele>152.00000</ele>
        <time>2024-02-16T14:07:34Z</time>
      </trkpt>
      <trkpt lat="42.85181393" lon="13.58871594">
        <ele>153.00000</ele>
        <time>2024-02-16T14:07:35Z</time>
      </trkpt>
      <trkpt lat="42.85179164" lon="13.58880864">
        <ele>153.00000</ele>
        <time>2024-02-16T14:07:36Z</time>
      </trkpt>
      <trkpt lat="42.85176917" lon="13.58890042">
        <ele>154.00000</ele>
        <time>2024-02-16T14:07:37Z</time>
      </trkpt>
      <trkpt lat="42.85174864" lon="13.58898793">
        <ele>154.00000</ele>
        <time>2024-02-16T14:07:38Z</time>
      </trkpt>
      <trkpt lat="42.85173045" lon="13.58907770">
        <ele>154.00000</ele>
        <time>2024-02-16T14:07:39Z</time>
      </trkpt>
      <trkpt lat="42.85171444" lon="13.58916386">
        <ele>154.00000</ele>
        <time>2024-02-16T14:07:40Z</time>
      </trkpt>
      <trkpt lat="42.85169768" lon="13.58925246">
        <ele>154.00000</ele>
        <time>2024-02-16T14:07:41Z</time>
      </trkpt>
      <trkpt lat="42.85167991" lon="13.58934617">
        <ele>154.00000</ele>
        <time>2024-02-16T14:07:42Z</time>
      </trkpt>
      <trkpt lat="42.85166574" lon="13.58944030">
        <ele>155.00000</ele>
        <time>2024-02-16T14:07:43Z</time>
      </trkpt>
      <trkpt lat="42.85164789" lon="13.58953518">
        <ele>154.00000</ele>
        <time>2024-02-16T14:07:44Z</time>
      </trkpt>
      <trkpt lat="42.85163842" lon="13.58961188">
        <ele>154.00000</ele>
        <time>2024-02-16T14:07:45Z</time>
      </trkpt>
      <trkpt lat="42.85162375" lon="13.58972679">
        <ele>154.00000</ele>
        <time>2024-02-16T14:07:46Z</time>
      </trkpt>
      <trkpt lat="42.85161201" lon="13.58982444">
        <ele>154.00000</ele>
        <time>2024-02-16T14:07:47Z</time>
      </trkpt>
      <trkpt lat="42.85160229" lon="13.58992679">
        <ele>153.00000</ele>
        <time>2024-02-16T14:07:48Z</time>
      </trkpt>
      <trkpt lat="42.85158989" lon="13.59003013">
        <ele>153.00000</ele>
        <time>2024-02-16T14:07:49Z</time>
      </trkpt>
      <trkpt lat="42.85157421" lon="13.59013382">
        <ele>154.00000</ele>
        <time>2024-02-16T14:07:50Z</time>
      </trkpt>
      <trkpt lat="42.85155384" lon="13.59023599">
        <ele>154.00000</ele>
        <time>2024-02-16T14:07:51Z</time>
      </trkpt>
      <trkpt lat="42.85153247" lon="13.59033758">
        <ele>155.00000</ele>
        <time>2024-02-16T14:07:52Z</time>
      </trkpt>
      <trkpt lat="42.85151797" lon="13.59044328">
        <ele>155.00000</ele>
        <time>2024-02-16T14:07:53Z</time>
      </trkpt>
      <trkpt lat="42.85150464" lon="13.59054923">
        <ele>155.00000</ele>
        <time>2024-02-16T14:07:54Z</time>
      </trkpt>
      <trkpt lat="42.85149165" lon="13.59065702">
        <ele>155.00000</ele>
        <time>2024-02-16T14:07:55Z</time>
      </trkpt>
      <trkpt lat="42.85148528" lon="13.59076456">
        <ele>155.00000</ele>
        <time>2024-02-16T14:07:56Z</time>
      </trkpt>
      <trkpt lat="42.85147463" lon="13.59087352">
        <ele>155.00000</ele>
        <time>2024-02-16T14:07:57Z</time>
      </trkpt>
      <trkpt lat="42.85146650" lon="13.59098123">
        <ele>155.00000</ele>
        <time>2024-02-16T14:07:58Z</time>
      </trkpt>
      <trkpt lat="42.85146315" lon="13.59108885">
        <ele>155.00000</ele>
        <time>2024-02-16T14:07:59Z</time>
      </trkpt>
      <trkpt lat="42.85145653" lon="13.59119514">
        <ele>154.00000</ele>
        <time>2024-02-16T14:08:00Z</time>
      </trkpt>
      <trkpt lat="42.85145167" lon="13.59127719">
        <ele>154.00000</ele>
        <time>2024-02-16T14:08:01Z</time>
      </trkpt>
      <trkpt lat="42.85144387" lon="13.59137727">
        <ele>153.00000</ele>
        <time>2024-02-16T14:08:02Z</time>
      </trkpt>
      <trkpt lat="42.85144027" lon="13.59149303">
        <ele>153.00000</ele>
        <time>2024-02-16T14:08:03Z</time>
      </trkpt>
      <trkpt lat="42.85144370" lon="13.59159143">
        <ele>153.00000</ele>
        <time>2024-02-16T14:08:04Z</time>
      </trkpt>
      <trkpt lat="42.85143918" lon="13.59168430">
        <ele>152.00000</ele>
        <time>2024-02-16T14:08:05Z</time>
      </trkpt>
      <trkpt lat="42.85143256" lon="13.59175102">
        <ele>152.00000</ele>
        <time>2024-02-16T14:08:06Z</time>
      </trkpt>
      <trkpt lat="42.85142879" lon="13.59182177">
        <ele>151.00000</ele>
        <time>2024-02-16T14:08:07Z</time>
      </trkpt>
      <trkpt lat="42.85142887" lon="13.59187734">
        <ele>151.00000</ele>
        <time>2024-02-16T14:08:08Z</time>
      </trkpt>
      <trkpt lat="42.85142535" lon="13.59191824">
        <ele>151.00000</ele>
        <time>2024-02-16T14:08:09Z</time>
      </trkpt>
      <trkpt lat="42.85141588" lon="13.59194171">
        <ele>151.00000</ele>
        <time>2024-02-16T14:08:10Z</time>
      </trkpt>
      <trkpt lat="42.85140205" lon="13.59195546">
        <ele>150.00000</ele>
        <time>2024-02-16T14:08:11Z</time>
      </trkpt>
      <trkpt lat="42.85139769" lon="13.59195847">
        <ele>150.00000</ele>
        <time>2024-02-16T14:08:12Z</time>
      </trkpt>
      <trkpt lat="42.85139559" lon="13.59196116">
        <ele>150.00000</ele>
        <time>2024-02-16T14:08:15Z</time>
      </trkpt>
      <trkpt lat="42.85136357" lon="13.59202494">
        <ele>150.00000</ele>
        <time>2024-02-16T14:08:20Z</time>
      </trkpt>
      <trkpt lat="42.85135670" lon="13.59204967">
        <ele>150.00000</ele>
        <time>2024-02-16T14:08:21Z</time>
      </trkpt>
      <trkpt lat="42.85135209" lon="13.59208429">
        <ele>150.00000</ele>
        <time>2024-02-16T14:08:22Z</time>
      </trkpt>
      <trkpt lat="42.85134924" lon="13.59213793">
        <ele>150.00000</ele>
        <time>2024-02-16T14:08:23Z</time>
      </trkpt>
      <trkpt lat="42.85134639" lon="13.59220197">
        <ele>150.00000</ele>
        <time>2024-02-16T14:08:24Z</time>
      </trkpt>
      <trkpt lat="42.85134044" lon="13.59225721">
        <ele>149.00000</ele>
        <time>2024-02-16T14:08:25Z</time>
      </trkpt>
      <trkpt lat="42.85133818" lon="13.59233080">
        <ele>149.00000</ele>
        <time>2024-02-16T14:08:26Z</time>
      </trkpt>
      <trkpt lat="42.85133642" lon="13.59242543">
        <ele>149.00000</ele>
        <time>2024-02-16T14:08:27Z</time>
      </trkpt>
      <trkpt lat="42.85133575" lon="13.59249014">
        <ele>149.00000</ele>
        <time>2024-02-16T14:08:28Z</time>
      </trkpt>
      <trkpt lat="42.85132954" lon="13.59259064">
        <ele>149.00000</ele>
        <time>2024-02-16T14:08:29Z</time>
      </trkpt>
      <trkpt lat="42.85132644" lon="13.59267328">
        <ele>148.00000</ele>
        <time>2024-02-16T14:08:30Z</time>
      </trkpt>
      <trkpt lat="42.85131932" lon="13.59275777">
        <ele>148.00000</ele>
        <time>2024-02-16T14:08:31Z</time>
      </trkpt>
      <trkpt lat="42.85131328" lon="13.59284360">
        <ele>148.00000</ele>
        <time>2024-02-16T14:08:32Z</time>
      </trkpt>
      <trkpt lat="42.85130289" lon="13.59293170">
        <ele>147.00000</ele>
        <time>2024-02-16T14:08:33Z</time>
      </trkpt>
      <trkpt lat="42.85129241" lon="13.59302080">
        <ele>147.00000</ele>
        <time>2024-02-16T14:08:34Z</time>
      </trkpt>
      <trkpt lat="42.85128805" lon="13.59311476">
        <ele>147.00000</ele>
        <time>2024-02-16T14:08:35Z</time>
      </trkpt>
      <trkpt lat="42.85127925" lon="13.59321308">
        <ele>146.00000</ele>
        <time>2024-02-16T14:08:36Z</time>
      </trkpt>
      <trkpt lat="42.85127146" lon="13.59331240">
        <ele>146.00000</ele>
        <time>2024-02-16T14:08:37Z</time>
      </trkpt>
      <trkpt lat="42.85126743" lon="13.59339329">
        <ele>146.00000</ele>
        <time>2024-02-16T14:08:38Z</time>
      </trkpt>
      <trkpt lat="42.85125939" lon="13.59351508">
        <ele>146.00000</ele>
        <time>2024-02-16T14:08:39Z</time>
      </trkpt>
      <trkpt lat="42.85124924" lon="13.59362136">
        <ele>145.00000</ele>
        <time>2024-02-16T14:08:40Z</time>
      </trkpt>
      <trkpt lat="42.85123860" lon="13.59373066">
        <ele>145.00000</ele>
        <time>2024-02-16T14:08:41Z</time>
      </trkpt>
      <trkpt lat="42.85123432" lon="13.59384264">
        <ele>145.00000</ele>
        <time>2024-02-16T14:08:42Z</time>
      </trkpt>
      <trkpt lat="42.85122695" lon="13.59395823">
        <ele>145.00000</ele>
        <time>2024-02-16T14:08:43Z</time>
      </trkpt>
      <trkpt lat="42.85122334" lon="13.59407474">
        <ele>145.00000</ele>
        <time>2024-02-16T14:08:44Z</time>
      </trkpt>
      <trkpt lat="42.85121521" lon="13.59419167">
        <ele>144.00000</ele>
        <time>2024-02-16T14:08:45Z</time>
      </trkpt>
      <trkpt lat="42.85120113" lon="13.59430893">
        <ele>144.00000</ele>
        <time>2024-02-16T14:08:46Z</time>
      </trkpt>
      <trkpt lat="42.85119191" lon="13.59442971">
        <ele>143.00000</ele>
        <time>2024-02-16T14:08:47Z</time>
      </trkpt>
      <trkpt lat="42.85117951" lon="13.59454832">
        <ele>143.00000</ele>
        <time>2024-02-16T14:08:48Z</time>
      </trkpt>
      <trkpt lat="42.85116308" lon="13.59466809">
        <ele>143.00000</ele>
        <time>2024-02-16T14:08:49Z</time>
      </trkpt>
      <trkpt lat="42.85115302" lon="13.59476465">
        <ele>142.00000</ele>
        <time>2024-02-16T14:08:50Z</time>
      </trkpt>
      <trkpt lat="42.85113701" lon="13.59490698">
        <ele>142.00000</ele>
        <time>2024-02-16T14:08:51Z</time>
      </trkpt>
      <trkpt lat="42.85111580" lon="13.59502390">
        <ele>141.00000</ele>
        <time>2024-02-16T14:08:52Z</time>
      </trkpt>
      <trkpt lat="42.85109158" lon="13.59514217">
        <ele>140.00000</ele>
        <time>2024-02-16T14:08:53Z</time>
      </trkpt>
      <trkpt lat="42.85106518" lon="13.59525935">
        <ele>140.00000</ele>
        <time>2024-02-16T14:08:54Z</time>
      </trkpt>
      <trkpt lat="42.85103936" lon="13.59535004">
        <ele>139.00000</ele>
        <time>2024-02-16T14:08:55Z</time>
      </trkpt>
      <trkpt lat="42.85100969" lon="13.59548960">
        <ele>139.00000</ele>
        <time>2024-02-16T14:08:56Z</time>
      </trkpt>
      <trkpt lat="42.85098421" lon="13.59560511">
        <ele>139.00000</ele>
        <time>2024-02-16T14:08:57Z</time>
      </trkpt>
      <trkpt lat="42.85096040" lon="13.59572212">
        <ele>139.00000</ele>
        <time>2024-02-16T14:08:58Z</time>
      </trkpt>
      <trkpt lat="42.85094096" lon="13.59581666">
        <ele>139.00000</ele>
        <time>2024-02-16T14:08:59Z</time>
      </trkpt>
      <trkpt lat="42.85091581" lon="13.59593208">
        <ele>139.00000</ele>
        <time>2024-02-16T14:09:00Z</time>
      </trkpt>
      <trkpt lat="42.85088539" lon="13.59604767">
        <ele>139.00000</ele>
        <time>2024-02-16T14:09:01Z</time>
      </trkpt>
      <trkpt lat="42.85084540" lon="13.59616217">
        <ele>139.00000</ele>
        <time>2024-02-16T14:09:02Z</time>
      </trkpt>
      <trkpt lat="42.85081431" lon="13.59628119">
        <ele>140.00000</ele>
        <time>2024-02-16T14:09:03Z</time>
      </trkpt>
      <trkpt lat="42.85078514" lon="13.59642695">
        <ele>140.00000</ele>
        <time>2024-02-16T14:09:04Z</time>
      </trkpt>
      <trkpt lat="42.85076209" lon="13.59654715">
        <ele>140.00000</ele>
        <time>2024-02-16T14:09:05Z</time>
      </trkpt>
      <trkpt lat="42.85073921" lon="13.59666483">
        <ele>140.00000</ele>
        <time>2024-02-16T14:09:06Z</time>
      </trkpt>
      <trkpt lat="42.85071146" lon="13.59677405">
        <ele>140.00000</ele>
        <time>2024-02-16T14:09:07Z</time>
      </trkpt>
      <trkpt lat="42.85067567" lon="13.59688226">
        <ele>140.00000</ele>
        <time>2024-02-16T14:09:08Z</time>
      </trkpt>
      <trkpt lat="42.85063946" lon="13.59698980">
        <ele>139.00000</ele>
        <time>2024-02-16T14:09:09Z</time>
      </trkpt>
      <trkpt lat="42.85060501" lon="13.59710119">
        <ele>139.00000</ele>
        <time>2024-02-16T14:09:10Z</time>
      </trkpt>
      <trkpt lat="42.85057065" lon="13.59720965">
        <ele>139.00000</ele>
        <time>2024-02-16T14:09:11Z</time>
      </trkpt>
      <trkpt lat="42.85054005" lon="13.59729129">
        <ele>138.00000</ele>
        <time>2024-02-16T14:09:12Z</time>
      </trkpt>
      <trkpt lat="42.85049512" lon="13.59741509">
        <ele>137.00000</ele>
        <time>2024-02-16T14:09:13Z</time>
      </trkpt>
      <trkpt lat="42.85045850" lon="13.59751610">
        <ele>137.00000</ele>
        <time>2024-02-16T14:09:14Z</time>
      </trkpt>
      <trkpt lat="42.85042111" lon="13.59761576">
        <ele>136.00000</ele>
        <time>2024-02-16T14:09:15Z</time>
      </trkpt>
      <trkpt lat="42.85038423" lon="13.59771852">
        <ele>135.00000</ele>
        <time>2024-02-16T14:09:16Z</time>
      </trkpt>
      <trkpt lat="42.85035012" lon="13.59782212">
        <ele>135.00000</ele>
        <time>2024-02-16T14:09:17Z</time>
      </trkpt>
      <trkpt lat="42.85031835" lon="13.59792589">
        <ele>135.00000</ele>
        <time>2024-02-16T14:09:18Z</time>
      </trkpt>
      <trkpt lat="42.85028683" lon="13.59802982">
        <ele>135.00000</ele>
        <time>2024-02-16T14:09:19Z</time>
      </trkpt>
      <trkpt lat="42.85025356" lon="13.59813141">
        <ele>135.00000</ele>
        <time>2024-02-16T14:09:20Z</time>
      </trkpt>
      <trkpt lat="42.85021316" lon="13.59822914">
        <ele>135.00000</ele>
        <time>2024-02-16T14:09:21Z</time>
      </trkpt>
      <trkpt lat="42.85016320" lon="13.59831414">
        <ele>135.00000</ele>
        <time>2024-02-16T14:09:22Z</time>
      </trkpt>
      <trkpt lat="42.85009916" lon="13.59837558">
        <ele>135.00000</ele>
        <time>2024-02-16T14:09:23Z</time>
      </trkpt>
      <trkpt lat="42.85003378" lon="13.59843274">
        <ele>135.00000</ele>
        <time>2024-02-16T14:09:24Z</time>
      </trkpt>
      <trkpt lat="42.84997243" lon="13.59850625">
        <ele>134.00000</ele>
        <time>2024-02-16T14:09:25Z</time>
      </trkpt>
      <trkpt lat="42.84992038" lon="13.59859309">
        <ele>134.00000</ele>
        <time>2024-02-16T14:09:26Z</time>
      </trkpt>
      <trkpt lat="42.84989163" lon="13.59867439">
        <ele>133.00000</ele>
        <time>2024-02-16T14:09:27Z</time>
      </trkpt>
      <trkpt lat="42.84985207" lon="13.59879953">
        <ele>132.00000</ele>
        <time>2024-02-16T14:09:28Z</time>
      </trkpt>
      <trkpt lat="42.84981569" lon="13.59890230">
        <ele>131.00000</ele>
        <time>2024-02-16T14:09:29Z</time>
      </trkpt>
      <trkpt lat="42.84977789" lon="13.59900665">
        <ele>131.00000</ele>
        <time>2024-02-16T14:09:30Z</time>
      </trkpt>
      <trkpt lat="42.84973690" lon="13.59911226">
        <ele>131.00000</ele>
        <time>2024-02-16T14:09:31Z</time>
      </trkpt>
      <trkpt lat="42.84970387" lon="13.59919759">
        <ele>130.00000</ele>
        <time>2024-02-16T14:09:32Z</time>
      </trkpt>
      <trkpt lat="42.84966180" lon="13.59930479">
        <ele>130.00000</ele>
        <time>2024-02-16T14:09:33Z</time>
      </trkpt>
      <trkpt lat="42.84961209" lon="13.59943396">
        <ele>130.00000</ele>
        <time>2024-02-16T14:09:34Z</time>
      </trkpt>
      <trkpt lat="42.84957161" lon="13.59954535">
        <ele>130.00000</ele>
        <time>2024-02-16T14:09:35Z</time>
      </trkpt>
      <trkpt lat="42.84953246" lon="13.59965616">
        <ele>129.00000</ele>
        <time>2024-02-16T14:09:36Z</time>
      </trkpt>
      <trkpt lat="42.84949885" lon="13.59977058">
        <ele>129.00000</ele>
        <time>2024-02-16T14:09:37Z</time>
      </trkpt>
      <trkpt lat="42.84947010" lon="13.59989287">
        <ele>129.00000</ele>
        <time>2024-02-16T14:09:38Z</time>
      </trkpt>
      <trkpt lat="42.84944236" lon="13.60001566">
        <ele>128.00000</ele>
        <time>2024-02-16T14:09:39Z</time>
      </trkpt>
      <trkpt lat="42.84941478" lon="13.60013904">
        <ele>128.00000</ele>
        <time>2024-02-16T14:09:40Z</time>
      </trkpt>
      <trkpt lat="42.84938662" lon="13.60026301">
        <ele>128.00000</ele>
        <time>2024-02-16T14:09:41Z</time>
      </trkpt>
      <trkpt lat="42.84935711" lon="13.60038774">
        <ele>128.00000</ele>
        <time>2024-02-16T14:09:42Z</time>
      </trkpt>
      <trkpt lat="42.84932853" lon="13.60051564">
        <ele>128.00000</ele>
        <time>2024-02-16T14:09:43Z</time>
      </trkpt>
      <trkpt lat="42.84929509" lon="13.60064137">
        <ele>128.00000</ele>
        <time>2024-02-16T14:09:44Z</time>
      </trkpt>
      <trkpt lat="42.84926131" lon="13.60076702">
        <ele>128.00000</ele>
        <time>2024-02-16T14:09:45Z</time>
      </trkpt>
      <trkpt lat="42.84922803" lon="13.60089283">
        <ele>127.00000</ele>
        <time>2024-02-16T14:09:46Z</time>
      </trkpt>
      <trkpt lat="42.84919610" lon="13.60102074">
        <ele>127.00000</ele>
        <time>2024-02-16T14:09:47Z</time>
      </trkpt>
      <trkpt lat="42.84916601" lon="13.60114764">
        <ele>126.00000</ele>
        <time>2024-02-16T14:09:48Z</time>
      </trkpt>
      <trkpt lat="42.84913759" lon="13.60127286">
        <ele>126.00000</ele>
        <time>2024-02-16T14:09:49Z</time>
      </trkpt>
      <trkpt lat="42.84911102" lon="13.60139516">
        <ele>125.00000</ele>
        <time>2024-02-16T14:09:50Z</time>
      </trkpt>
      <trkpt lat="42.84908604" lon="13.60151334">
        <ele>125.00000</ele>
        <time>2024-02-16T14:09:51Z</time>
      </trkpt>
      <trkpt lat="42.84906065" lon="13.60162826">
        <ele>125.00000</ele>
        <time>2024-02-16T14:09:52Z</time>
      </trkpt>
      <trkpt lat="42.84903919" lon="13.60173940">
        <ele>126.00000</ele>
        <time>2024-02-16T14:09:53Z</time>
      </trkpt>
      <trkpt lat="42.84902066" lon="13.60184216">
        <ele>126.00000</ele>
        <time>2024-02-16T14:09:54Z</time>
      </trkpt>
      <trkpt lat="42.84900457" lon="13.60193638">
        <ele>126.00000</ele>
        <time>2024-02-16T14:09:55Z</time>
      </trkpt>
      <trkpt lat="42.84899091" lon="13.60202095">
        <ele>127.00000</ele>
        <time>2024-02-16T14:09:56Z</time>
      </trkpt>
      <trkpt lat="42.84898035" lon="13.60209354">
        <ele>127.00000</ele>
        <time>2024-02-16T14:09:57Z</time>
      </trkpt>
      <trkpt lat="42.84897029" lon="13.60215665">
        <ele>128.00000</ele>
        <time>2024-02-16T14:09:58Z</time>
      </trkpt>
      <trkpt lat="42.84895495" lon="13.60221072">
        <ele>128.00000</ele>
        <time>2024-02-16T14:09:59Z</time>
      </trkpt>
      <trkpt lat="42.84893358" lon="13.60225564">
        <ele>128.00000</ele>
        <time>2024-02-16T14:10:00Z</time>
      </trkpt>
      <trkpt lat="42.84890516" lon="13.60228850">
        <ele>128.00000</ele>
        <time>2024-02-16T14:10:01Z</time>
      </trkpt>
      <trkpt lat="42.84886954" lon="13.60230451">
        <ele>128.00000</ele>
        <time>2024-02-16T14:10:02Z</time>
      </trkpt>
      <trkpt lat="42.84883324" lon="13.60232303">
        <ele>128.00000</ele>
        <time>2024-02-16T14:10:03Z</time>
      </trkpt>
      <trkpt lat="42.84880307" lon="13.60235899">
        <ele>128.00000</ele>
        <time>2024-02-16T14:10:04Z</time>
      </trkpt>
      <trkpt lat="42.84878429" lon="13.60240945">
        <ele>128.00000</ele>
        <time>2024-02-16T14:10:05Z</time>
      </trkpt>
      <trkpt lat="42.84877709" lon="13.60245865">
        <ele>128.00000</ele>
        <time>2024-02-16T14:10:06Z</time>
      </trkpt>
      <trkpt lat="42.84878882" lon="13.60250970">
        <ele>128.00000</ele>
        <time>2024-02-16T14:10:07Z</time>
      </trkpt>
      <trkpt lat="42.84880785" lon="13.60256586">
        <ele>128.00000</ele>
        <time>2024-02-16T14:10:08Z</time>
      </trkpt>
      <trkpt lat="42.84881824" lon="13.60263274">
        <ele>128.00000</ele>
        <time>2024-02-16T14:10:09Z</time>
      </trkpt>
      <trkpt lat="42.84881212" lon="13.60270156">
        <ele>128.00000</ele>
        <time>2024-02-16T14:10:10Z</time>
      </trkpt>
      <trkpt lat="42.84879687" lon="13.60276996">
        <ele>128.00000</ele>
        <time>2024-02-16T14:10:11Z</time>
      </trkpt>
      <trkpt lat="42.84878463" lon="13.60284171">
        <ele>128.00000</ele>
        <time>2024-02-16T14:10:12Z</time>
      </trkpt>
      <trkpt lat="42.84877306" lon="13.60291957">
        <ele>127.00000</ele>
        <time>2024-02-16T14:10:13Z</time>
      </trkpt>
      <trkpt lat="42.84875873" lon="13.60300163">
        <ele>127.00000</ele>
        <time>2024-02-16T14:10:14Z</time>
      </trkpt>
      <trkpt lat="42.84874247" lon="13.60308755">
        <ele>127.00000</ele>
        <time>2024-02-16T14:10:15Z</time>
      </trkpt>
      <trkpt lat="42.84872445" lon="13.60317640">
        <ele>127.00000</ele>
        <time>2024-02-16T14:10:16Z</time>
      </trkpt>
      <trkpt lat="42.84870525" lon="13.60326742">
        <ele>127.00000</ele>
        <time>2024-02-16T14:10:17Z</time>
      </trkpt>
      <trkpt lat="42.84868891" lon="13.60336281">
        <ele>127.00000</ele>
        <time>2024-02-16T14:10:18Z</time>
      </trkpt>
      <trkpt lat="42.84867516" lon="13.60346088">
        <ele>127.00000</ele>
        <time>2024-02-16T14:10:19Z</time>
      </trkpt>
      <trkpt lat="42.84865890" lon="13.60355467">
        <ele>127.00000</ele>
        <time>2024-02-16T14:10:20Z</time>
      </trkpt>
      <trkpt lat="42.84864499" lon="13.60365064">
        <ele>127.00000</ele>
        <time>2024-02-16T14:10:21Z</time>
      </trkpt>
      <trkpt lat="42.84862747" lon="13.60374972">
        <ele>127.00000</ele>
        <time>2024-02-16T14:10:22Z</time>
      </trkpt>
      <trkpt lat="42.84861205" lon="13.60382725">
        <ele>127.00000</ele>
        <time>2024-02-16T14:10:23Z</time>
      </trkpt>
      <trkpt lat="42.84859101" lon="13.60394284">
        <ele>127.00000</ele>
        <time>2024-02-16T14:10:24Z</time>
      </trkpt>
      <trkpt lat="42.84857173" lon="13.60403822">
        <ele>127.00000</ele>
        <time>2024-02-16T14:10:25Z</time>
      </trkpt>
      <trkpt lat="42.84855488" lon="13.60413654">
        <ele>127.00000</ele>
        <time>2024-02-16T14:10:26Z</time>
      </trkpt>
      <trkpt lat="42.84853351" lon="13.60423235">
        <ele>127.00000</ele>
        <time>2024-02-16T14:10:27Z</time>
      </trkpt>
      <trkpt lat="42.84851750" lon="13.60433067">
        <ele>127.00000</ele>
        <time>2024-02-16T14:10:28Z</time>
      </trkpt>
      <trkpt lat="42.84850032" lon="13.60442723">
        <ele>127.00000</ele>
        <time>2024-02-16T14:10:29Z</time>
      </trkpt>
      <trkpt lat="42.84848338" lon="13.60452479">
        <ele>126.00000</ele>
        <time>2024-02-16T14:10:30Z</time>
      </trkpt>
      <trkpt lat="42.84847006" lon="13.60462311">
        <ele>126.00000</ele>
        <time>2024-02-16T14:10:31Z</time>
      </trkpt>
      <trkpt lat="42.84845765" lon="13.60469947">
        <ele>126.00000</ele>
        <time>2024-02-16T14:10:32Z</time>
      </trkpt>
      <trkpt lat="42.84843686" lon="13.60481447">
        <ele>125.00000</ele>
        <time>2024-02-16T14:10:33Z</time>
      </trkpt>
      <trkpt lat="42.84841700" lon="13.60490986">
        <ele>125.00000</ele>
        <time>2024-02-16T14:10:34Z</time>
      </trkpt>
      <trkpt lat="42.84839864" lon="13.60500734">
        <ele>124.00000</ele>
        <time>2024-02-16T14:10:35Z</time>
      </trkpt>
      <trkpt lat="42.84837450" lon="13.60510499">
        <ele>124.00000</ele>
        <time>2024-02-16T14:10:36Z</time>
      </trkpt>
      <trkpt lat="42.84834676" lon="13.60520213">
        <ele>124.00000</ele>
        <time>2024-02-16T14:10:37Z</time>
      </trkpt>
      <trkpt lat="42.84831977" lon="13.60527724">
        <ele>124.00000</ele>
        <time>2024-02-16T14:10:38Z</time>
      </trkpt>
      <trkpt lat="42.84827518" lon="13.60538612">
        <ele>124.00000</ele>
        <time>2024-02-16T14:10:39Z</time>
      </trkpt>
      <trkpt lat="42.84823520" lon="13.60547228">
        <ele>124.00000</ele>
        <time>2024-02-16T14:10:40Z</time>
      </trkpt>
      <trkpt lat="42.84819505" lon="13.60555971">
        <ele>125.00000</ele>
        <time>2024-02-16T14:10:41Z</time>
      </trkpt>
      <trkpt lat="42.84816336" lon="13.60563187">
        <ele>125.00000</ele>
        <time>2024-02-16T14:10:42Z</time>
      </trkpt>
      <trkpt lat="42.84811651" lon="13.60573866">
        <ele>125.00000</ele>
        <time>2024-02-16T14:10:43Z</time>
      </trkpt>
      <trkpt lat="42.84807695" lon="13.60582742">
        <ele>125.00000</ele>
        <time>2024-02-16T14:10:44Z</time>
      </trkpt>
      <trkpt lat="42.84803705" lon="13.60591619">
        <ele>125.00000</ele>
        <time>2024-02-16T14:10:45Z</time>
      </trkpt>
      <trkpt lat="42.84799774" lon="13.60600537">
        <ele>125.00000</ele>
        <time>2024-02-16T14:10:46Z</time>
      </trkpt>
      <trkpt lat="42.84796010" lon="13.60609623">
        <ele>125.00000</ele>
        <time>2024-02-16T14:10:47Z</time>
      </trkpt>
      <trkpt lat="42.84792322" lon="13.60618634">
        <ele>124.00000</ele>
        <time>2024-02-16T14:10:48Z</time>
      </trkpt>
      <trkpt lat="42.84788215" lon="13.60627661">
        <ele>124.00000</ele>
        <time>2024-02-16T14:10:49Z</time>
      </trkpt>
      <trkpt lat="42.84783974" lon="13.60636353">
        <ele>124.00000</ele>
        <time>2024-02-16T14:10:50Z</time>
      </trkpt>
      <trkpt lat="42.84779992" lon="13.60645288">
        <ele>124.00000</ele>
        <time>2024-02-16T14:10:51Z</time>
      </trkpt>
      <trkpt lat="42.84776095" lon="13.60654148">
        <ele>123.00000</ele>
        <time>2024-02-16T14:10:52Z</time>
      </trkpt>
      <trkpt lat="42.84772356" lon="13.60663217">
        <ele>123.00000</ele>
        <time>2024-02-16T14:10:53Z</time>
      </trkpt>
      <trkpt lat="42.84768769" lon="13.60672571">
        <ele>123.00000</ele>
        <time>2024-02-16T14:10:54Z</time>
      </trkpt>
      <trkpt lat="42.84765006" lon="13.60681691">
        <ele>123.00000</ele>
        <time>2024-02-16T14:10:55Z</time>
      </trkpt>
      <trkpt lat="42.84761091" lon="13.60690785">
        <ele>123.00000</ele>
        <time>2024-02-16T14:10:56Z</time>
      </trkpt>
      <trkpt lat="42.84757227" lon="13.60700089">
        <ele>123.00000</ele>
        <time>2024-02-16T14:10:57Z</time>
      </trkpt>
      <trkpt lat="42.84753799" lon="13.60709661">
        <ele>123.00000</ele>
        <time>2024-02-16T14:10:58Z</time>
      </trkpt>
      <trkpt lat="42.84750429" lon="13.60719284">
        <ele>123.00000</ele>
        <time>2024-02-16T14:10:59Z</time>
      </trkpt>
      <trkpt lat="42.84747186" lon="13.60728965">
        <ele>122.00000</ele>
        <time>2024-02-16T14:11:00Z</time>
      </trkpt>
      <trkpt lat="42.84744193" lon="13.60738495">
        <ele>122.00000</ele>
        <time>2024-02-16T14:11:01Z</time>
      </trkpt>
      <trkpt lat="42.84741360" lon="13.60748436">
        <ele>121.00000</ele>
        <time>2024-02-16T14:11:02Z</time>
      </trkpt>
      <trkpt lat="42.84738460" lon="13.60758427">
        <ele>121.00000</ele>
        <time>2024-02-16T14:11:03Z</time>
      </trkpt>
      <trkpt lat="42.84735610" lon="13.60768695">
        <ele>121.00000</ele>
        <time>2024-02-16T14:11:04Z</time>
      </trkpt>
      <trkpt lat="42.84732920" lon="13.60778996">
        <ele>121.00000</ele>
        <time>2024-02-16T14:11:05Z</time>
      </trkpt>
      <trkpt lat="42.84730346" lon="13.60789423">
        <ele>121.00000</ele>
        <time>2024-02-16T14:11:06Z</time>
      </trkpt>
      <trkpt lat="42.84727748" lon="13.60799976">
        <ele>121.00000</ele>
        <time>2024-02-16T14:11:07Z</time>
      </trkpt>
      <trkpt lat="42.84724957" lon="13.60810772">
        <ele>121.00000</ele>
        <time>2024-02-16T14:11:08Z</time>
      </trkpt>
      <trkpt lat="42.84721671" lon="13.60821207">
        <ele>121.00000</ele>
        <time>2024-02-16T14:11:09Z</time>
      </trkpt>
      <trkpt lat="42.84717463" lon="13.60831609">
        <ele>122.00000</ele>
        <time>2024-02-16T14:11:10Z</time>
      </trkpt>
      <trkpt lat="42.84713516" lon="13.60842062">
        <ele>122.00000</ele>
        <time>2024-02-16T14:11:11Z</time>
      </trkpt>
      <trkpt lat="42.84710020" lon="13.60852866">
        <ele>122.00000</ele>
        <time>2024-02-16T14:11:12Z</time>
      </trkpt>
      <trkpt lat="42.84706667" lon="13.60863578">
        <ele>122.00000</ele>
        <time>2024-02-16T14:11:13Z</time>
      </trkpt>
      <trkpt lat="42.84703415" lon="13.60874114">
        <ele>122.00000</ele>
        <time>2024-02-16T14:11:14Z</time>
      </trkpt>
      <trkpt lat="42.84700599" lon="13.60884952">
        <ele>122.00000</ele>
        <time>2024-02-16T14:11:15Z</time>
      </trkpt>
      <trkpt lat="42.84697665" lon="13.60895723">
        <ele>123.00000</ele>
        <time>2024-02-16T14:11:16Z</time>
      </trkpt>
      <trkpt lat="42.84694707" lon="13.60906351">
        <ele>123.00000</ele>
        <time>2024-02-16T14:11:17Z</time>
      </trkpt>
      <trkpt lat="42.84691957" lon="13.60916929">
        <ele>123.00000</ele>
        <time>2024-02-16T14:11:18Z</time>
      </trkpt>
      <trkpt lat="42.84689200" lon="13.60927633">
        <ele>123.00000</ele>
        <time>2024-02-16T14:11:19Z</time>
      </trkpt>
      <trkpt lat="42.84687272" lon="13.60936484">
        <ele>123.00000</ele>
        <time>2024-02-16T14:11:20Z</time>
      </trkpt>
      <trkpt lat="42.84685210" lon="13.60949861">
        <ele>123.00000</ele>
        <time>2024-02-16T14:11:21Z</time>
      </trkpt>
      <trkpt lat="42.84683760" lon="13.60961160">
        <ele>123.00000</ele>
        <time>2024-02-16T14:11:22Z</time>
      </trkpt>
      <trkpt lat="42.84681723" lon="13.60972375">
        <ele>122.00000</ele>
        <time>2024-02-16T14:11:23Z</time>
      </trkpt>
      <trkpt lat="42.84679812" lon="13.60983464">
        <ele>122.00000</ele>
        <time>2024-02-16T14:11:24Z</time>
      </trkpt>
      <trkpt lat="42.84677758" lon="13.60994352">
        <ele>121.00000</ele>
        <time>2024-02-16T14:11:25Z</time>
      </trkpt>
      <trkpt lat="42.84675747" lon="13.61005299">
        <ele>121.00000</ele>
        <time>2024-02-16T14:11:26Z</time>
      </trkpt>
      <trkpt lat="42.84673945" lon="13.61016539">
        <ele>120.00000</ele>
        <time>2024-02-16T14:11:27Z</time>
      </trkpt>
      <trkpt lat="42.84672260" lon="13.61027671">
        <ele>120.00000</ele>
        <time>2024-02-16T14:11:28Z</time>
      </trkpt>
      <trkpt lat="42.84670424" lon="13.61038709">
        <ele>119.00000</ele>
        <time>2024-02-16T14:11:29Z</time>
      </trkpt>
      <trkpt lat="42.84668521" lon="13.61049732">
        <ele>119.00000</ele>
        <time>2024-02-16T14:11:30Z</time>
      </trkpt>
      <trkpt lat="42.84666728" lon="13.61060578">
        <ele>119.00000</ele>
        <time>2024-02-16T14:11:31Z</time>
      </trkpt>
      <trkpt lat="42.84664867" lon="13.61071474">
        <ele>119.00000</ele>
        <time>2024-02-16T14:11:32Z</time>
      </trkpt>
      <trkpt lat="42.84663090" lon="13.61082622">
        <ele>119.00000</ele>
        <time>2024-02-16T14:11:33Z</time>
      </trkpt>
      <trkpt lat="42.84661447" lon="13.61093133">
        <ele>118.00000</ele>
        <time>2024-02-16T14:11:34Z</time>
      </trkpt>
      <trkpt lat="42.84659779" lon="13.61103937">
        <ele>118.00000</ele>
        <time>2024-02-16T14:11:35Z</time>
      </trkpt>
      <trkpt lat="42.84658195" lon="13.61114750">
        <ele>118.00000</ele>
        <time>2024-02-16T14:11:36Z</time>
      </trkpt>
      <trkpt lat="42.84656669" lon="13.61125571">
        <ele>118.00000</ele>
        <time>2024-02-16T14:11:37Z</time>
      </trkpt>
      <trkpt lat="42.84654767" lon="13.61136551">
        <ele>118.00000</ele>
        <time>2024-02-16T14:11:38Z</time>
      </trkpt>
      <trkpt lat="42.84653023" lon="13.61148026">
        <ele>119.00000</ele>
        <time>2024-02-16T14:11:39Z</time>
      </trkpt>
      <trkpt lat="42.84651280" lon="13.61159174">
        <ele>119.00000</ele>
        <time>2024-02-16T14:11:40Z</time>
      </trkpt>
      <trkpt lat="42.84649578" lon="13.61170356">
        <ele>119.00000</ele>
        <time>2024-02-16T14:11:41Z</time>
      </trkpt>
      <trkpt lat="42.84647877" lon="13.61181579">
        <ele>119.00000</ele>
        <time>2024-02-16T14:11:42Z</time>
      </trkpt>
      <trkpt lat="42.84646133" lon="13.61193020">
        <ele>119.00000</ele>
        <time>2024-02-16T14:11:43Z</time>
      </trkpt>
      <trkpt lat="42.84644273" lon="13.61204378">
        <ele>119.00000</ele>
        <time>2024-02-16T14:11:44Z</time>
      </trkpt>
      <trkpt lat="42.84642663" lon="13.61215626">
        <ele>120.00000</ele>
        <time>2024-02-16T14:11:45Z</time>
      </trkpt>
      <trkpt lat="42.84640819" lon="13.61226707">
        <ele>120.00000</ele>
        <time>2024-02-16T14:11:46Z</time>
      </trkpt>
      <trkpt lat="42.84639185" lon="13.61237855">
        <ele>120.00000</ele>
        <time>2024-02-16T14:11:47Z</time>
      </trkpt>
      <trkpt lat="42.84637441" lon="13.61248970">
        <ele>121.00000</ele>
        <time>2024-02-16T14:11:48Z</time>
      </trkpt>
      <trkpt lat="42.84635690" lon="13.61259933">
        <ele>121.00000</ele>
        <time>2024-02-16T14:11:49Z</time>
      </trkpt>
      <trkpt lat="42.84633938" lon="13.61271064">
        <ele>121.00000</ele>
        <time>2024-02-16T14:11:50Z</time>
      </trkpt>
      <trkpt lat="42.84632069" lon="13.61282380">
        <ele>121.00000</ele>
        <time>2024-02-16T14:11:51Z</time>
      </trkpt>
      <trkpt lat="42.84630551" lon="13.61293687">
        <ele>121.00000</ele>
        <time>2024-02-16T14:11:52Z</time>
      </trkpt>
      <trkpt lat="42.84628850" lon="13.61305212">
        <ele>121.00000</ele>
        <time>2024-02-16T14:11:53Z</time>
      </trkpt>
      <trkpt lat="42.84627241" lon="13.61316486">
        <ele>120.00000</ele>
        <time>2024-02-16T14:11:54Z</time>
      </trkpt>
      <trkpt lat="42.84625380" lon="13.61327642">
        <ele>120.00000</ele>
        <time>2024-02-16T14:11:55Z</time>
      </trkpt>
      <trkpt lat="42.84623527" lon="13.61338924">
        <ele>119.00000</ele>
        <time>2024-02-16T14:11:56Z</time>
      </trkpt>
      <trkpt lat="42.84621935" lon="13.61348010">
        <ele>119.00000</ele>
        <time>2024-02-16T14:11:57Z</time>
      </trkpt>
      <trkpt lat="42.84619269" lon="13.61361346">
        <ele>119.00000</ele>
        <time>2024-02-16T14:11:58Z</time>
      </trkpt>
      <trkpt lat="42.84616738" lon="13.61372309">
        <ele>119.00000</ele>
        <time>2024-02-16T14:11:59Z</time>
      </trkpt>
      <trkpt lat="42.84613746" lon="13.61382988">
        <ele>118.00000</ele>
        <time>2024-02-16T14:12:00Z</time>
      </trkpt>
      <trkpt lat="42.84610108" lon="13.61393499">
        <ele>117.00000</ele>
        <time>2024-02-16T14:12:01Z</time>
      </trkpt>
      <trkpt lat="42.84606621" lon="13.61404127">
        <ele>117.00000</ele>
        <time>2024-02-16T14:12:02Z</time>
      </trkpt>
      <trkpt lat="42.84603134" lon="13.61414479">
        <ele>117.00000</ele>
        <time>2024-02-16T14:12:03Z</time>
      </trkpt>
      <trkpt lat="42.84599170" lon="13.61424730">
        <ele>116.00000</ele>
        <time>2024-02-16T14:12:04Z</time>
      </trkpt>
      <trkpt lat="42.84595222" lon="13.61434671">
        <ele>116.00000</ele>
        <time>2024-02-16T14:12:05Z</time>
      </trkpt>
      <trkpt lat="42.84591039" lon="13.61444327">
        <ele>116.00000</ele>
        <time>2024-02-16T14:12:06Z</time>
      </trkpt>
      <trkpt lat="42.84586655" lon="13.61454125">
        <ele>116.00000</ele>
        <time>2024-02-16T14:12:07Z</time>
      </trkpt>
      <trkpt lat="42.84582473" lon="13.61464049">
        <ele>117.00000</ele>
        <time>2024-02-16T14:12:08Z</time>
      </trkpt>
      <trkpt lat="42.84578282" lon="13.61474057">
        <ele>117.00000</ele>
        <time>2024-02-16T14:12:09Z</time>
      </trkpt>
      <trkpt lat="42.84573965" lon="13.61484032">
        <ele>117.00000</ele>
        <time>2024-02-16T14:12:10Z</time>
      </trkpt>
      <trkpt lat="42.84569573" lon="13.61493813">
        <ele>117.00000</ele>
        <time>2024-02-16T14:12:11Z</time>
      </trkpt>
      <trkpt lat="42.84564963" lon="13.61503369">
        <ele>117.00000</ele>
        <time>2024-02-16T14:12:12Z</time>
      </trkpt>
      <trkpt lat="42.84560026" lon="13.61513125">
        <ele>117.00000</ele>
        <time>2024-02-16T14:12:13Z</time>
      </trkpt>
      <trkpt lat="42.84555198" lon="13.61523125">
        <ele>117.00000</ele>
        <time>2024-02-16T14:12:14Z</time>
      </trkpt>
      <trkpt lat="42.84550504" lon="13.61533124">
        <ele>117.00000</ele>
        <time>2024-02-16T14:12:15Z</time>
      </trkpt>
      <trkpt lat="42.84546179" lon="13.61543032">
        <ele>117.00000</ele>
        <time>2024-02-16T14:12:16Z</time>
      </trkpt>
      <trkpt lat="42.84542106" lon="13.61553099">
        <ele>117.00000</ele>
        <time>2024-02-16T14:12:17Z</time>
      </trkpt>
      <trkpt lat="42.84537663" lon="13.61562930">
        <ele>117.00000</ele>
        <time>2024-02-16T14:12:18Z</time>
      </trkpt>
      <trkpt lat="42.84533045" lon="13.61572553">
        <ele>117.00000</ele>
        <time>2024-02-16T14:12:19Z</time>
      </trkpt>
      <trkpt lat="42.84528443" lon="13.61582083">
        <ele>117.00000</ele>
        <time>2024-02-16T14:12:20Z</time>
      </trkpt>
      <trkpt lat="42.84523791" lon="13.61591714">
        <ele>117.00000</ele>
        <time>2024-02-16T14:12:21Z</time>
      </trkpt>
      <trkpt lat="42.84519248" lon="13.61601362">
        <ele>118.00000</ele>
        <time>2024-02-16T14:12:22Z</time>
      </trkpt>
      <trkpt lat="42.84514688" lon="13.61610900">
        <ele>118.00000</ele>
        <time>2024-02-16T14:12:23Z</time>
      </trkpt>
      <trkpt lat="42.84510062" lon="13.61620640">
        <ele>118.00000</ele>
        <time>2024-02-16T14:12:24Z</time>
      </trkpt>
      <trkpt lat="42.84506273" lon="13.61628175">
        <ele>118.00000</ele>
        <time>2024-02-16T14:12:25Z</time>
      </trkpt>
      <trkpt lat="42.84500741" lon="13.61639172">
        <ele>118.00000</ele>
        <time>2024-02-16T14:12:26Z</time>
      </trkpt>
      <trkpt lat="42.84496190" lon="13.61648686">
        <ele>118.00000</ele>
        <time>2024-02-16T14:12:27Z</time>
      </trkpt>
      <trkpt lat="42.84491571" lon="13.61658291">
        <ele>118.00000</ele>
        <time>2024-02-16T14:12:28Z</time>
      </trkpt>
      <trkpt lat="42.84486886" lon="13.61667570">
        <ele>118.00000</ele>
        <time>2024-02-16T14:12:29Z</time>
      </trkpt>
      <trkpt lat="42.84481848" lon="13.61676472">
        <ele>118.00000</ele>
        <time>2024-02-16T14:12:30Z</time>
      </trkpt>
      <trkpt lat="42.84477389" lon="13.61683244">
        <ele>118.00000</ele>
        <time>2024-02-16T14:12:31Z</time>
      </trkpt>
      <trkpt lat="42.84470382" lon="13.61692850">
        <ele>118.00000</ele>
        <time>2024-02-16T14:12:32Z</time>
      </trkpt>
      <trkpt lat="42.84464053" lon="13.61700075">
        <ele>118.00000</ele>
        <time>2024-02-16T14:12:33Z</time>
      </trkpt>
      <trkpt lat="42.84457599" lon="13.61706563">
        <ele>119.00000</ele>
        <time>2024-02-16T14:12:34Z</time>
      </trkpt>
      <trkpt lat="42.84451221" lon="13.61713059">
        <ele>120.00000</ele>
        <time>2024-02-16T14:12:35Z</time>
      </trkpt>
      <trkpt lat="42.84445462" lon="13.61720460">
        <ele>120.00000</ele>
        <time>2024-02-16T14:12:36Z</time>
      </trkpt>
      <trkpt lat="42.84441011" lon="13.61729286">
        <ele>120.00000</ele>
        <time>2024-02-16T14:12:37Z</time>
      </trkpt>
      <trkpt lat="42.84438061" lon="13.61739479">
        <ele>120.00000</ele>
        <time>2024-02-16T14:12:38Z</time>
      </trkpt>
      <trkpt lat="42.84437910" lon="13.61750333">
        <ele>119.00000</ele>
        <time>2024-02-16T14:12:39Z</time>
      </trkpt>
      <trkpt lat="42.84439452" lon="13.61761456">
        <ele>119.00000</ele>
        <time>2024-02-16T14:12:40Z</time>
      </trkpt>
      <trkpt lat="42.84441179" lon="13.61772897">
        <ele>118.00000</ele>
        <time>2024-02-16T14:12:41Z</time>
      </trkpt>
      <trkpt lat="42.84441682" lon="13.61784649">
        <ele>117.00000</ele>
        <time>2024-02-16T14:12:42Z</time>
      </trkpt>
      <trkpt lat="42.84441523" lon="13.61796685">
        <ele>116.00000</ele>
        <time>2024-02-16T14:12:43Z</time>
      </trkpt>
      <trkpt lat="42.84440911" lon="13.61808696">
        <ele>114.00000</ele>
        <time>2024-02-16T14:12:44Z</time>
      </trkpt>
      <trkpt lat="42.84439905" lon="13.61820506">
        <ele>114.00000</ele>
        <time>2024-02-16T14:12:45Z</time>
      </trkpt>
      <trkpt lat="42.84438639" lon="13.61832040">
        <ele>113.00000</ele>
        <time>2024-02-16T14:12:46Z</time>
      </trkpt>
      <trkpt lat="42.84437080" lon="13.61843448">
        <ele>113.00000</ele>
        <time>2024-02-16T14:12:47Z</time>
      </trkpt>
      <trkpt lat="42.84435463" lon="13.61854931">
        <ele>113.00000</ele>
        <time>2024-02-16T14:12:48Z</time>
      </trkpt>
      <trkpt lat="42.84434080" lon="13.61864151">
        <ele>113.00000</ele>
        <time>2024-02-16T14:12:49Z</time>
      </trkpt>
      <trkpt lat="42.84431967" lon="13.61877772">
        <ele>114.00000</ele>
        <time>2024-02-16T14:12:50Z</time>
      </trkpt>
      <trkpt lat="42.84430174" lon="13.61889154">
        <ele>115.00000</ele>
        <time>2024-02-16T14:12:51Z</time>
      </trkpt>
      <trkpt lat="42.84428564" lon="13.61900428">
        <ele>115.00000</ele>
        <time>2024-02-16T14:12:52Z</time>
      </trkpt>
      <trkpt lat="42.84427173" lon="13.61911517">
        <ele>115.00000</ele>
        <time>2024-02-16T14:12:53Z</time>
      </trkpt>
      <trkpt lat="42.84426016" lon="13.61920335">
        <ele>116.00000</ele>
        <time>2024-02-16T14:12:54Z</time>
      </trkpt>
      <trkpt lat="42.84423921" lon="13.61933109">
        <ele>116.00000</ele>
        <time>2024-02-16T14:12:55Z</time>
      </trkpt>
      <trkpt lat="42.84422211" lon="13.61943184">
        <ele>116.00000</ele>
        <time>2024-02-16T14:12:56Z</time>
      </trkpt>
      <trkpt lat="42.84420367" lon="13.61952974">
        <ele>117.00000</ele>
        <time>2024-02-16T14:12:57Z</time>
      </trkpt>
      <trkpt lat="42.84418766" lon="13.61962689">
        <ele>117.00000</ele>
        <time>2024-02-16T14:12:58Z</time>
      </trkpt>
      <trkpt lat="42.84417157" lon="13.61972412">
        <ele>117.00000</ele>
        <time>2024-02-16T14:12:59Z</time>
      </trkpt>
      <trkpt lat="42.84415371" lon="13.61981716">
        <ele>117.00000</ele>
        <time>2024-02-16T14:13:00Z</time>
      </trkpt>
      <trkpt lat="42.84413443" lon="13.61990751">
        <ele>117.00000</ele>
        <time>2024-02-16T14:13:01Z</time>
      </trkpt>
      <trkpt lat="42.84411390" lon="13.61999586">
        <ele>117.00000</ele>
        <time>2024-02-16T14:13:02Z</time>
      </trkpt>
      <trkpt lat="42.84409294" lon="13.62007942">
        <ele>117.00000</ele>
        <time>2024-02-16T14:13:03Z</time>
      </trkpt>
      <trkpt lat="42.84406998" lon="13.62016400">
        <ele>117.00000</ele>
        <time>2024-02-16T14:13:04Z</time>
      </trkpt>
      <trkpt lat="42.84404634" lon="13.62024656">
        <ele>117.00000</ele>
        <time>2024-02-16T14:13:05Z</time>
      </trkpt>
      <trkpt lat="42.84402186" lon="13.62032937">
        <ele>118.00000</ele>
        <time>2024-02-16T14:13:06Z</time>
      </trkpt>
      <trkpt lat="42.84399471" lon="13.62040850">
        <ele>118.00000</ele>
        <time>2024-02-16T14:13:07Z</time>
      </trkpt>
      <trkpt lat="42.84397157" lon="13.62048871">
        <ele>118.00000</ele>
        <time>2024-02-16T14:13:08Z</time>
      </trkpt>
      <trkpt lat="42.84394660" lon="13.62057077">
        <ele>118.00000</ele>
        <time>2024-02-16T14:13:09Z</time>
      </trkpt>
      <trkpt lat="42.84391919" lon="13.62065459">
        <ele>119.00000</ele>
        <time>2024-02-16T14:13:10Z</time>
      </trkpt>
      <trkpt lat="42.84389295" lon="13.62073740">
        <ele>120.00000</ele>
        <time>2024-02-16T14:13:11Z</time>
      </trkpt>
      <trkpt lat="42.84387066" lon="13.62082064">
        <ele>120.00000</ele>
        <time>2024-02-16T14:13:12Z</time>
      </trkpt>
      <trkpt lat="42.84384811" lon="13.62090261">
        <ele>121.00000</ele>
        <time>2024-02-16T14:13:13Z</time>
      </trkpt>
      <trkpt lat="42.84382338" lon="13.62098568">
        <ele>121.00000</ele>
        <time>2024-02-16T14:13:14Z</time>
      </trkpt>
      <trkpt lat="42.84379933" lon="13.62106673">
        <ele>122.00000</ele>
        <time>2024-02-16T14:13:15Z</time>
      </trkpt>
      <trkpt lat="42.84377619" lon="13.62114879">
        <ele>122.00000</ele>
        <time>2024-02-16T14:13:16Z</time>
      </trkpt>
      <trkpt lat="42.84375281" lon="13.62123110">
        <ele>122.00000</ele>
        <time>2024-02-16T14:13:17Z</time>
      </trkpt>
      <trkpt lat="42.84372934" lon="13.62131383">
        <ele>123.00000</ele>
        <time>2024-02-16T14:13:18Z</time>
      </trkpt>
      <trkpt lat="42.84370612" lon="13.62139773">
        <ele>123.00000</ele>
        <time>2024-02-16T14:13:19Z</time>
      </trkpt>
      <trkpt lat="42.84368231" lon="13.62147920">
        <ele>122.00000</ele>
        <time>2024-02-16T14:13:20Z</time>
      </trkpt>
      <trkpt lat="42.84366002" lon="13.62155866">
        <ele>122.00000</ele>
        <time>2024-02-16T14:13:21Z</time>
      </trkpt>
      <trkpt lat="42.84363755" lon="13.62163854">
        <ele>122.00000</ele>
        <time>2024-02-16T14:13:22Z</time>
      </trkpt>
      <trkpt lat="42.84361266" lon="13.62171649">
        <ele>121.00000</ele>
        <time>2024-02-16T14:13:23Z</time>
      </trkpt>
      <trkpt lat="42.84359020" lon="13.62179696">
        <ele>121.00000</ele>
        <time>2024-02-16T14:13:24Z</time>
      </trkpt>
      <trkpt lat="42.84357100" lon="13.62187642">
        <ele>120.00000</ele>
        <time>2024-02-16T14:13:25Z</time>
      </trkpt>
      <trkpt lat="42.84355206" lon="13.62195395">
        <ele>120.00000</ele>
        <time>2024-02-16T14:13:26Z</time>
      </trkpt>
      <trkpt lat="42.84353831" lon="13.62201212">
        <ele>120.00000</ele>
        <time>2024-02-16T14:13:27Z</time>
      </trkpt>
      <trkpt lat="42.84351853" lon="13.62209603">
        <ele>120.00000</ele>
        <time>2024-02-16T14:13:28Z</time>
      </trkpt>
      <trkpt lat="42.84350487" lon="13.62215135">
        <ele>120.00000</ele>
        <time>2024-02-16T14:13:29Z</time>
      </trkpt>
      <trkpt lat="42.84348852" lon="13.62222050">
        <ele>120.00000</ele>
        <time>2024-02-16T14:13:30Z</time>
      </trkpt>
      <trkpt lat="42.84347612" lon="13.62229283">
        <ele>120.00000</ele>
        <time>2024-02-16T14:13:31Z</time>
      </trkpt>
      <trkpt lat="42.84346740" lon="13.62236458">
        <ele>121.00000</ele>
        <time>2024-02-16T14:13:32Z</time>
      </trkpt>
      <trkpt lat="42.84346019" lon="13.62243650">
        <ele>121.00000</ele>
        <time>2024-02-16T14:13:33Z</time>
      </trkpt>
      <trkpt lat="42.84345131" lon="13.62250909">
        <ele>121.00000</ele>
        <time>2024-02-16T14:13:34Z</time>
      </trkpt>
      <trkpt lat="42.84343329" lon="13.62257807">
        <ele>121.00000</ele>
        <time>2024-02-16T14:13:35Z</time>
      </trkpt>
      <trkpt lat="42.84340764" lon="13.62264295">
        <ele>122.00000</ele>
        <time>2024-02-16T14:13:36Z</time>
      </trkpt>
      <trkpt lat="42.84337612" lon="13.62270397">
        <ele>122.00000</ele>
        <time>2024-02-16T14:13:37Z</time>
      </trkpt>
      <trkpt lat="42.84334301" lon="13.62276582">
        <ele>122.00000</ele>
        <time>2024-02-16T14:13:38Z</time>
      </trkpt>
      <trkpt lat="42.84331720" lon="13.62283506">
        <ele>123.00000</ele>
        <time>2024-02-16T14:13:39Z</time>
      </trkpt>
      <trkpt lat="42.84330739" lon="13.62291033">
        <ele>123.00000</ele>
        <time>2024-02-16T14:13:40Z</time>
      </trkpt>
      <trkpt lat="42.84332097" lon="13.62298878">
        <ele>123.00000</ele>
        <time>2024-02-16T14:13:41Z</time>
      </trkpt>
      <trkpt lat="42.84335399" lon="13.62305643">
        <ele>122.00000</ele>
        <time>2024-02-16T14:13:42Z</time>
      </trkpt>
      <trkpt lat="42.84340169" lon="13.62310387">
        <ele>122.00000</ele>
        <time>2024-02-16T14:13:43Z</time>
      </trkpt>
      <trkpt lat="42.84345634" lon="13.62312306">
        <ele>121.00000</ele>
        <time>2024-02-16T14:13:44Z</time>
      </trkpt>
      <trkpt lat="42.84351493" lon="13.62310814">
        <ele>120.00000</ele>
        <time>2024-02-16T14:13:45Z</time>
      </trkpt>
      <trkpt lat="42.84357008" lon="13.62307679">
        <ele>120.00000</ele>
        <time>2024-02-16T14:13:46Z</time>
      </trkpt>
      <trkpt lat="42.84362582" lon="13.62304125">
        <ele>119.00000</ele>
        <time>2024-02-16T14:13:47Z</time>
      </trkpt>
      <trkpt lat="42.84368759" lon="13.62301778">
        <ele>118.00000</ele>
        <time>2024-02-16T14:13:48Z</time>
      </trkpt>
      <trkpt lat="42.84375205" lon="13.62301108">
        <ele>118.00000</ele>
        <time>2024-02-16T14:13:49Z</time>
      </trkpt>
      <trkpt lat="42.84381634" lon="13.62301762">
        <ele>117.00000</ele>
        <time>2024-02-16T14:13:50Z</time>
      </trkpt>
      <trkpt lat="42.84387895" lon="13.62303706">
        <ele>116.00000</ele>
        <time>2024-02-16T14:13:51Z</time>
      </trkpt>
      <trkpt lat="42.84393939" lon="13.62307118">
        <ele>116.00000</ele>
        <time>2024-02-16T14:13:52Z</time>
      </trkpt>
      <trkpt lat="42.84399068" lon="13.62313211">
        <ele>116.00000</ele>
        <time>2024-02-16T14:13:53Z</time>
      </trkpt>
      <trkpt lat="42.84402614" lon="13.62321459">
        <ele>116.00000</ele>
        <time>2024-02-16T14:13:54Z</time>
      </trkpt>
      <trkpt lat="42.84403142" lon="13.62330118">
        <ele>116.00000</ele>
        <time>2024-02-16T14:13:55Z</time>
      </trkpt>
      <trkpt lat="42.84401692" lon="13.62338919">
        <ele>116.00000</ele>
        <time>2024-02-16T14:13:56Z</time>
      </trkpt>
      <trkpt lat="42.84400485" lon="13.62347879">
        <ele>116.00000</ele>
        <time>2024-02-16T14:13:57Z</time>
      </trkpt>
      <trkpt lat="42.84399144" lon="13.62357535">
        <ele>116.00000</ele>
        <time>2024-02-16T14:13:58Z</time>
      </trkpt>
      <trkpt lat="42.84397987" lon="13.62367300">
        <ele>116.00000</ele>
        <time>2024-02-16T14:13:59Z</time>
      </trkpt>
      <trkpt lat="42.84396830" lon="13.62377174">
        <ele>115.00000</ele>
        <time>2024-02-16T14:14:00Z</time>
      </trkpt>
      <trkpt lat="42.84395665" lon="13.62387400">
        <ele>114.00000</ele>
        <time>2024-02-16T14:14:01Z</time>
      </trkpt>
      <trkpt lat="42.84394760" lon="13.62397860">
        <ele>114.00000</ele>
        <time>2024-02-16T14:14:02Z</time>
      </trkpt>
      <trkpt lat="42.84394165" lon="13.62408396">
        <ele>113.00000</ele>
        <time>2024-02-16T14:14:03Z</time>
      </trkpt>
      <trkpt lat="42.84393880" lon="13.62418974">
        <ele>113.00000</ele>
        <time>2024-02-16T14:14:04Z</time>
      </trkpt>
      <trkpt lat="42.84393453" lon="13.62429619">
        <ele>113.00000</ele>
        <time>2024-02-16T14:14:05Z</time>
      </trkpt>
      <trkpt lat="42.84393344" lon="13.62440424">
        <ele>113.00000</ele>
        <time>2024-02-16T14:14:06Z</time>
      </trkpt>
      <trkpt lat="42.84393394" lon="13.62451530">
        <ele>113.00000</ele>
        <time>2024-02-16T14:14:07Z</time>
      </trkpt>
      <trkpt lat="42.84393494" lon="13.62462979">
        <ele>113.00000</ele>
        <time>2024-02-16T14:14:08Z</time>
      </trkpt>
      <trkpt lat="42.84393771" lon="13.62474672">
        <ele>113.00000</ele>
        <time>2024-02-16T14:14:09Z</time>
      </trkpt>
      <trkpt lat="42.84394182" lon="13.62486666">
        <ele>112.00000</ele>
        <time>2024-02-16T14:14:10Z</time>
      </trkpt>
      <trkpt lat="42.84394752" lon="13.62498954">
        <ele>112.00000</ele>
        <time>2024-02-16T14:14:11Z</time>
      </trkpt>
      <trkpt lat="42.84395255" lon="13.62511343">
        <ele>112.00000</ele>
        <time>2024-02-16T14:14:12Z</time>
      </trkpt>
      <trkpt lat="42.84395917" lon="13.62524092">
        <ele>112.00000</ele>
        <time>2024-02-16T14:14:13Z</time>
      </trkpt>
      <trkpt lat="42.84396562" lon="13.62536698">
        <ele>111.00000</ele>
        <time>2024-02-16T14:14:14Z</time>
      </trkpt>
      <trkpt lat="42.84397308" lon="13.62549279">
        <ele>111.00000</ele>
        <time>2024-02-16T14:14:15Z</time>
      </trkpt>
      <trkpt lat="42.84398071" lon="13.62561810">
        <ele>111.00000</ele>
        <time>2024-02-16T14:14:16Z</time>
      </trkpt>
      <trkpt lat="42.84398918" lon="13.62574526">
        <ele>110.00000</ele>
        <time>2024-02-16T14:14:17Z</time>
      </trkpt>
      <trkpt lat="42.84399772" lon="13.62587291">
        <ele>110.00000</ele>
        <time>2024-02-16T14:14:18Z</time>
      </trkpt>
      <trkpt lat="42.84400619" lon="13.62600149">
        <ele>110.00000</ele>
        <time>2024-02-16T14:14:19Z</time>
      </trkpt>
      <trkpt lat="42.84401591" lon="13.62612839">
        <ele>110.00000</ele>
        <time>2024-02-16T14:14:20Z</time>
      </trkpt>
      <trkpt lat="42.84402404" lon="13.62625479">
        <ele>110.00000</ele>
        <time>2024-02-16T14:14:21Z</time>
      </trkpt>
      <trkpt lat="42.84403134" lon="13.62638362">
        <ele>109.00000</ele>
        <time>2024-02-16T14:14:22Z</time>
      </trkpt>
      <trkpt lat="42.84403787" lon="13.62651119">
        <ele>110.00000</ele>
        <time>2024-02-16T14:14:23Z</time>
      </trkpt>
      <trkpt lat="42.84404517" lon="13.62663768">
        <ele>110.00000</ele>
        <time>2024-02-16T14:14:24Z</time>
      </trkpt>
      <trkpt lat="42.84405179" lon="13.62676508">
        <ele>110.00000</ele>
        <time>2024-02-16T14:14:25Z</time>
      </trkpt>
      <trkpt lat="42.84405766" lon="13.62688930">
        <ele>111.00000</ele>
        <time>2024-02-16T14:14:26Z</time>
      </trkpt>
      <trkpt lat="42.84406746" lon="13.62701419">
        <ele>111.00000</ele>
        <time>2024-02-16T14:14:27Z</time>
      </trkpt>
      <trkpt lat="42.84407559" lon="13.62713615">
        <ele>111.00000</ele>
        <time>2024-02-16T14:14:28Z</time>
      </trkpt>
      <trkpt lat="42.84408356" lon="13.62725702">
        <ele>112.00000</ele>
        <time>2024-02-16T14:14:29Z</time>
      </trkpt>
      <trkpt lat="42.84409185" lon="13.62737663">
        <ele>112.00000</ele>
        <time>2024-02-16T14:14:30Z</time>
      </trkpt>
      <trkpt lat="42.84410057" lon="13.62749624">
        <ele>112.00000</ele>
        <time>2024-02-16T14:14:31Z</time>
      </trkpt>
      <trkpt lat="42.84410954" lon="13.62761392">
        <ele>111.00000</ele>
        <time>2024-02-16T14:14:32Z</time>
      </trkpt>
      <trkpt lat="42.84411683" lon="13.62773135">
        <ele>111.00000</ele>
        <time>2024-02-16T14:14:33Z</time>
      </trkpt>
      <trkpt lat="42.84412471" lon="13.62784626">
        <ele>111.00000</ele>
        <time>2024-02-16T14:14:34Z</time>
      </trkpt>
      <trkpt lat="42.84413150" lon="13.62796068">
        <ele>110.00000</ele>
        <time>2024-02-16T14:14:35Z</time>
      </trkpt>
      <trkpt lat="42.84414055" lon="13.62807459">
        <ele>110.00000</ele>
        <time>2024-02-16T14:14:36Z</time>
      </trkpt>
      <trkpt lat="42.84415011" lon="13.62818758">
        <ele>110.00000</ele>
        <time>2024-02-16T14:14:37Z</time>
      </trkpt>
      <trkpt lat="42.84416000" lon="13.62830014">
        <ele>111.00000</ele>
        <time>2024-02-16T14:14:38Z</time>
      </trkpt>
      <trkpt lat="42.84416989" lon="13.62841347">
        <ele>112.00000</ele>
        <time>2024-02-16T14:14:39Z</time>
      </trkpt>
      <trkpt lat="42.84418095" lon="13.62852646">
        <ele>112.00000</ele>
        <time>2024-02-16T14:14:40Z</time>
      </trkpt>
      <trkpt lat="42.84419227" lon="13.62863886">
        <ele>112.00000</ele>
        <time>2024-02-16T14:14:41Z</time>
      </trkpt>
      <trkpt lat="42.84420426" lon="13.62874933">
        <ele>112.00000</ele>
        <time>2024-02-16T14:14:42Z</time>
      </trkpt>
      <trkpt lat="42.84421725" lon="13.62886022">
        <ele>112.00000</ele>
        <time>2024-02-16T14:14:43Z</time>
      </trkpt>
      <trkpt lat="42.84423284" lon="13.62897371">
        <ele>111.00000</ele>
        <time>2024-02-16T14:14:44Z</time>
      </trkpt>
      <trkpt lat="42.84424935" lon="13.62908511">
        <ele>110.00000</ele>
        <time>2024-02-16T14:14:45Z</time>
      </trkpt>
      <trkpt lat="42.84426687" lon="13.62919617">
        <ele>109.00000</ele>
        <time>2024-02-16T14:14:46Z</time>
      </trkpt>
      <trkpt lat="42.84428304" lon="13.62930715">
        <ele>108.00000</ele>
        <time>2024-02-16T14:14:47Z</time>
      </trkpt>
      <trkpt lat="42.84429972" lon="13.62941921">
        <ele>107.00000</ele>
        <time>2024-02-16T14:14:48Z</time>
      </trkpt>
      <trkpt lat="42.84431791" lon="13.62953186">
        <ele>107.00000</ele>
        <time>2024-02-16T14:14:49Z</time>
      </trkpt>
      <trkpt lat="42.84433635" lon="13.62964376">
        <ele>107.00000</ele>
        <time>2024-02-16T14:14:50Z</time>
      </trkpt>
      <trkpt lat="42.84435396" lon="13.62975449">
        <ele>107.00000</ele>
        <time>2024-02-16T14:14:51Z</time>
      </trkpt>
      <trkpt lat="42.84437240" lon="13.62986463">
        <ele>107.00000</ele>
        <time>2024-02-16T14:14:52Z</time>
      </trkpt>
      <trkpt lat="42.84439134" lon="13.62997535">
        <ele>108.00000</ele>
        <time>2024-02-16T14:14:53Z</time>
      </trkpt>
      <trkpt lat="42.84441154" lon="13.63008884">
        <ele>108.00000</ele>
        <time>2024-02-16T14:14:54Z</time>
      </trkpt>
      <trkpt lat="42.84443291" lon="13.63020057">
        <ele>108.00000</ele>
        <time>2024-02-16T14:14:55Z</time>
      </trkpt>
      <trkpt lat="42.84445823" lon="13.63033887">
        <ele>109.00000</ele>
        <time>2024-02-16T14:14:56Z</time>
      </trkpt>
      <trkpt lat="42.84447851" lon="13.63045312">
        <ele>109.00000</ele>
        <time>2024-02-16T14:14:57Z</time>
      </trkpt>
      <trkpt lat="42.84449771" lon="13.63056703">
        <ele>109.00000</ele>
        <time>2024-02-16T14:14:58Z</time>
      </trkpt>
      <trkpt lat="42.84451212" lon="13.63065588">
        <ele>108.00000</ele>
        <time>2024-02-16T14:14:59Z</time>
      </trkpt>
      <trkpt lat="42.84453056" lon="13.63076945">
        <ele>108.00000</ele>
        <time>2024-02-16T14:15:00Z</time>
      </trkpt>
      <trkpt lat="42.84455185" lon="13.63088286">
        <ele>108.00000</ele>
        <time>2024-02-16T14:15:01Z</time>
      </trkpt>
      <trkpt lat="42.84457423" lon="13.63099434">
        <ele>108.00000</ele>
        <time>2024-02-16T14:15:02Z</time>
      </trkpt>
      <trkpt lat="42.84459745" lon="13.63112770">
        <ele>109.00000</ele>
        <time>2024-02-16T14:15:03Z</time>
      </trkpt>
      <trkpt lat="42.84461748" lon="13.63124077">
        <ele>109.00000</ele>
        <time>2024-02-16T14:15:04Z</time>
      </trkpt>
      <trkpt lat="42.84463852" lon="13.63135233">
        <ele>109.00000</ele>
        <time>2024-02-16T14:15:05Z</time>
      </trkpt>
      <trkpt lat="42.84465830" lon="13.63146373">
        <ele>109.00000</ele>
        <time>2024-02-16T14:15:06Z</time>
      </trkpt>
      <trkpt lat="42.84467959" lon="13.63157646">
        <ele>109.00000</ele>
        <time>2024-02-16T14:15:07Z</time>
      </trkpt>
      <trkpt lat="42.84469921" lon="13.63168777">
        <ele>109.00000</ele>
        <time>2024-02-16T14:15:08Z</time>
      </trkpt>
      <trkpt lat="42.84471991" lon="13.63179867">
        <ele>109.00000</ele>
        <time>2024-02-16T14:15:09Z</time>
      </trkpt>
      <trkpt lat="42.84474086" lon="13.63191065">
        <ele>109.00000</ele>
        <time>2024-02-16T14:15:10Z</time>
      </trkpt>
      <trkpt lat="42.84476249" lon="13.63202355">
        <ele>109.00000</ele>
        <time>2024-02-16T14:15:11Z</time>
      </trkpt>
      <trkpt lat="42.84478269" lon="13.63213470">
        <ele>108.00000</ele>
        <time>2024-02-16T14:15:12Z</time>
      </trkpt>
      <trkpt lat="42.84480281" lon="13.63224769">
        <ele>108.00000</ele>
        <time>2024-02-16T14:15:13Z</time>
      </trkpt>
      <trkpt lat="42.84482284" lon="13.63236168">
        <ele>107.00000</ele>
        <time>2024-02-16T14:15:14Z</time>
      </trkpt>
      <trkpt lat="42.84484178" lon="13.63247391">
        <ele>107.00000</ele>
        <time>2024-02-16T14:15:15Z</time>
      </trkpt>
      <trkpt lat="42.84486123" lon="13.63258774">
        <ele>107.00000</ele>
        <time>2024-02-16T14:15:16Z</time>
      </trkpt>
      <trkpt lat="42.84488168" lon="13.63269964">
        <ele>106.00000</ele>
        <time>2024-02-16T14:15:17Z</time>
      </trkpt>
      <trkpt lat="42.84490155" lon="13.63281246">
        <ele>106.00000</ele>
        <time>2024-02-16T14:15:18Z</time>
      </trkpt>
      <trkpt lat="42.84492099" lon="13.63292377">
        <ele>105.00000</ele>
        <time>2024-02-16T14:15:19Z</time>
      </trkpt>
      <trkpt lat="42.84494086" lon="13.63303265">
        <ele>105.00000</ele>
        <time>2024-02-16T14:15:20Z</time>
      </trkpt>
      <trkpt lat="42.84496282" lon="13.63314338">
        <ele>105.00000</ele>
        <time>2024-02-16T14:15:21Z</time>
      </trkpt>
      <trkpt lat="42.84497950" lon="13.63325435">
        <ele>105.00000</ele>
        <time>2024-02-16T14:15:22Z</time>
      </trkpt>
      <trkpt lat="42.84499324" lon="13.63336466">
        <ele>105.00000</ele>
        <time>2024-02-16T14:15:23Z</time>
      </trkpt>
      <trkpt lat="42.84501059" lon="13.63347521">
        <ele>105.00000</ele>
        <time>2024-02-16T14:15:24Z</time>
      </trkpt>
      <trkpt lat="42.84502878" lon="13.63358611">
        <ele>105.00000</ele>
        <time>2024-02-16T14:15:25Z</time>
      </trkpt>
      <trkpt lat="42.84504312" lon="13.63369641">
        <ele>105.00000</ele>
        <time>2024-02-16T14:15:26Z</time>
      </trkpt>
      <trkpt lat="42.84505812" lon="13.63380781">
        <ele>106.00000</ele>
        <time>2024-02-16T14:15:27Z</time>
      </trkpt>
      <trkpt lat="42.84507438" lon="13.63392055">
        <ele>106.00000</ele>
        <time>2024-02-16T14:15:28Z</time>
      </trkpt>
      <trkpt lat="42.84508905" lon="13.63403387">
        <ele>106.00000</ele>
        <time>2024-02-16T14:15:29Z</time>
      </trkpt>
      <trkpt lat="42.84510187" lon="13.63414719">
        <ele>107.00000</ele>
        <time>2024-02-16T14:15:30Z</time>
      </trkpt>
      <trkpt lat="42.84511160" lon="13.63425917">
        <ele>107.00000</ele>
        <time>2024-02-16T14:15:31Z</time>
      </trkpt>
      <trkpt lat="42.84512056" lon="13.63437107">
        <ele>107.00000</ele>
        <time>2024-02-16T14:15:32Z</time>
      </trkpt>
      <trkpt lat="42.84512744" lon="13.63448389">
        <ele>108.00000</ele>
        <time>2024-02-16T14:15:33Z</time>
      </trkpt>
      <trkpt lat="42.84512995" lon="13.63459579">
        <ele>108.00000</ele>
        <time>2024-02-16T14:15:34Z</time>
      </trkpt>
      <trkpt lat="42.84513280" lon="13.63470937">
        <ele>108.00000</ele>
        <time>2024-02-16T14:15:35Z</time>
      </trkpt>
      <trkpt lat="42.84513574" lon="13.63482235">
        <ele>107.00000</ele>
        <time>2024-02-16T14:15:36Z</time>
      </trkpt>
      <trkpt lat="42.84513674" lon="13.63493635">
        <ele>107.00000</ele>
        <time>2024-02-16T14:15:37Z</time>
      </trkpt>
      <trkpt lat="42.84513389" lon="13.63504976">
        <ele>107.00000</ele>
        <time>2024-02-16T14:15:38Z</time>
      </trkpt>
      <trkpt lat="42.84513247" lon="13.63516408">
        <ele>107.00000</ele>
        <time>2024-02-16T14:15:39Z</time>
      </trkpt>
      <trkpt lat="42.84512945" lon="13.63527741">
        <ele>107.00000</ele>
        <time>2024-02-16T14:15:40Z</time>
      </trkpt>
      <trkpt lat="42.84512601" lon="13.63539056">
        <ele>107.00000</ele>
        <time>2024-02-16T14:15:41Z</time>
      </trkpt>
      <trkpt lat="42.84511956" lon="13.63550196">
        <ele>107.00000</ele>
        <time>2024-02-16T14:15:42Z</time>
      </trkpt>
      <trkpt lat="42.84511436" lon="13.63561268">
        <ele>107.00000</ele>
        <time>2024-02-16T14:15:43Z</time>
      </trkpt>
      <trkpt lat="42.84511000" lon="13.63572215">
        <ele>107.00000</ele>
        <time>2024-02-16T14:15:44Z</time>
      </trkpt>
      <trkpt lat="42.84510481" lon="13.63582927">
        <ele>107.00000</ele>
        <time>2024-02-16T14:15:45Z</time>
      </trkpt>
      <trkpt lat="42.84509844" lon="13.63593421">
        <ele>107.00000</ele>
        <time>2024-02-16T14:15:46Z</time>
      </trkpt>
      <trkpt lat="42.84509450" lon="13.63604209">
        <ele>107.00000</ele>
        <time>2024-02-16T14:15:47Z</time>
      </trkpt>
      <trkpt lat="42.84509131" lon="13.63614854">
        <ele>106.00000</ele>
        <time>2024-02-16T14:15:48Z</time>
      </trkpt>
      <trkpt lat="42.84508788" lon="13.63625650">
        <ele>106.00000</ele>
        <time>2024-02-16T14:15:49Z</time>
      </trkpt>
      <trkpt lat="42.84508461" lon="13.63636370">
        <ele>105.00000</ele>
        <time>2024-02-16T14:15:50Z</time>
      </trkpt>
      <trkpt lat="42.84508092" lon="13.63646965">
        <ele>105.00000</ele>
        <time>2024-02-16T14:15:51Z</time>
      </trkpt>
      <trkpt lat="42.84507547" lon="13.63657434">
        <ele>105.00000</ele>
        <time>2024-02-16T14:15:52Z</time>
      </trkpt>
      <trkpt lat="42.84506860" lon="13.63667861">
        <ele>104.00000</ele>
        <time>2024-02-16T14:15:53Z</time>
      </trkpt>
      <trkpt lat="42.84506357" lon="13.63678288">
        <ele>104.00000</ele>
        <time>2024-02-16T14:15:54Z</time>
      </trkpt>
      <trkpt lat="42.84505845" lon="13.63688665">
        <ele>104.00000</ele>
        <time>2024-02-16T14:15:55Z</time>
      </trkpt>
      <trkpt lat="42.84505217" lon="13.63698983">
        <ele>104.00000</ele>
        <time>2024-02-16T14:15:56Z</time>
      </trkpt>
      <trkpt lat="42.84504471" lon="13.63709402">
        <ele>104.00000</ele>
        <time>2024-02-16T14:15:57Z</time>
      </trkpt>
      <trkpt lat="42.84504035" lon="13.63719921">
        <ele>104.00000</ele>
        <time>2024-02-16T14:15:58Z</time>
      </trkpt>
      <trkpt lat="42.84503658" lon="13.63730382">
        <ele>104.00000</ele>
        <time>2024-02-16T14:15:59Z</time>
      </trkpt>
      <trkpt lat="42.84503163" lon="13.63740733">
        <ele>104.00000</ele>
        <time>2024-02-16T14:16:00Z</time>
      </trkpt>
      <trkpt lat="42.84502652" lon="13.63751253">
        <ele>104.00000</ele>
        <time>2024-02-16T14:16:01Z</time>
      </trkpt>
      <trkpt lat="42.84501931" lon="13.63761655">
        <ele>104.00000</ele>
        <time>2024-02-16T14:16:02Z</time>
      </trkpt>
      <trkpt lat="42.84501093" lon="13.63771989">
        <ele>104.00000</ele>
        <time>2024-02-16T14:16:03Z</time>
      </trkpt>
      <trkpt lat="42.84500305" lon="13.63782366">
        <ele>104.00000</ele>
        <time>2024-02-16T14:16:04Z</time>
      </trkpt>
      <trkpt lat="42.84499743" lon="13.63792810">
        <ele>104.00000</ele>
        <time>2024-02-16T14:16:05Z</time>
      </trkpt>
      <trkpt lat="42.84499299" lon="13.63803363">
        <ele>104.00000</ele>
        <time>2024-02-16T14:16:06Z</time>
      </trkpt>
      <trkpt lat="42.84498536" lon="13.63813907">
        <ele>104.00000</ele>
        <time>2024-02-16T14:16:07Z</time>
      </trkpt>
      <trkpt lat="42.84498017" lon="13.63824418">
        <ele>104.00000</ele>
        <time>2024-02-16T14:16:08Z</time>
      </trkpt>
      <trkpt lat="42.84497371" lon="13.63834938">
        <ele>104.00000</ele>
        <time>2024-02-16T14:16:09Z</time>
      </trkpt>
      <trkpt lat="42.84496743" lon="13.63845331">
        <ele>104.00000</ele>
        <time>2024-02-16T14:16:10Z</time>
      </trkpt>
      <trkpt lat="42.84496081" lon="13.63855733">
        <ele>104.00000</ele>
        <time>2024-02-16T14:16:11Z</time>
      </trkpt>
      <trkpt lat="42.84495527" lon="13.63866101">
        <ele>104.00000</ele>
        <time>2024-02-16T14:16:12Z</time>
      </trkpt>
      <trkpt lat="42.84495142" lon="13.63876621">
        <ele>104.00000</ele>
        <time>2024-02-16T14:16:13Z</time>
      </trkpt>
      <trkpt lat="42.84494647" lon="13.63886972">
        <ele>104.00000</ele>
        <time>2024-02-16T14:16:14Z</time>
      </trkpt>
      <trkpt lat="42.84494119" lon="13.63897182">
        <ele>104.00000</ele>
        <time>2024-02-16T14:16:15Z</time>
      </trkpt>
      <trkpt lat="42.84493524" lon="13.63907299">
        <ele>104.00000</ele>
        <time>2024-02-16T14:16:16Z</time>
      </trkpt>
      <trkpt lat="42.84492971" lon="13.63917499">
        <ele>104.00000</ele>
        <time>2024-02-16T14:16:17Z</time>
      </trkpt>
      <trkpt lat="42.84492510" lon="13.63927641">
        <ele>104.00000</ele>
        <time>2024-02-16T14:16:18Z</time>
      </trkpt>
      <trkpt lat="42.84492175" lon="13.63937817">
        <ele>104.00000</ele>
        <time>2024-02-16T14:16:19Z</time>
      </trkpt>
      <trkpt lat="42.84491135" lon="13.63947607">
        <ele>104.00000</ele>
        <time>2024-02-16T14:16:20Z</time>
      </trkpt>
      <trkpt lat="42.84490331" lon="13.63957548">
        <ele>105.00000</ele>
        <time>2024-02-16T14:16:21Z</time>
      </trkpt>
      <trkpt lat="42.84490104" lon="13.63967732">
        <ele>105.00000</ele>
        <time>2024-02-16T14:16:22Z</time>
      </trkpt>
      <trkpt lat="42.84489559" lon="13.63977639">
        <ele>105.00000</ele>
        <time>2024-02-16T14:16:23Z</time>
      </trkpt>
      <trkpt lat="42.84488646" lon="13.63987463">
        <ele>105.00000</ele>
        <time>2024-02-16T14:16:24Z</time>
      </trkpt>
      <trkpt lat="42.84487782" lon="13.63997194">
        <ele>105.00000</ele>
        <time>2024-02-16T14:16:25Z</time>
      </trkpt>
      <trkpt lat="42.84487154" lon="13.64006993">
        <ele>105.00000</ele>
        <time>2024-02-16T14:16:26Z</time>
      </trkpt>
      <trkpt lat="42.84486752" lon="13.64016934">
        <ele>105.00000</ele>
        <time>2024-02-16T14:16:27Z</time>
      </trkpt>
      <trkpt lat="42.84486726" lon="13.64026791">
        <ele>105.00000</ele>
        <time>2024-02-16T14:16:28Z</time>
      </trkpt>
      <trkpt lat="42.84486819" lon="13.64036573">
        <ele>105.00000</ele>
        <time>2024-02-16T14:16:29Z</time>
      </trkpt>
      <trkpt lat="42.84486877" lon="13.64046371">
        <ele>105.00000</ele>
        <time>2024-02-16T14:16:30Z</time>
      </trkpt>
      <trkpt lat="42.84487213" lon="13.64055826">
        <ele>105.00000</ele>
        <time>2024-02-16T14:16:31Z</time>
      </trkpt>
      <trkpt lat="42.84487556" lon="13.64064778">
        <ele>105.00000</ele>
        <time>2024-02-16T14:16:32Z</time>
      </trkpt>
      <trkpt lat="42.84487833" lon="13.64073579">
        <ele>105.00000</ele>
        <time>2024-02-16T14:16:33Z</time>
      </trkpt>
      <trkpt lat="42.84488428" lon="13.64082095">
        <ele>105.00000</ele>
        <time>2024-02-16T14:16:34Z</time>
      </trkpt>
      <trkpt lat="42.84489266" lon="13.64088700">
        <ele>105.00000</ele>
        <time>2024-02-16T14:16:35Z</time>
      </trkpt>
      <trkpt lat="42.84490129" lon="13.64096545">
        <ele>105.00000</ele>
        <time>2024-02-16T14:16:36Z</time>
      </trkpt>
      <trkpt lat="42.84491353" lon="13.64105966">
        <ele>105.00000</ele>
        <time>2024-02-16T14:16:37Z</time>
      </trkpt>
      <trkpt lat="42.84492275" lon="13.64113518">
        <ele>105.00000</ele>
        <time>2024-02-16T14:16:38Z</time>
      </trkpt>
      <trkpt lat="42.84493499" lon="13.64120811">
        <ele>105.00000</ele>
        <time>2024-02-16T14:16:39Z</time>
      </trkpt>
      <trkpt lat="42.84495050" lon="13.64126544">
        <ele>105.00000</ele>
        <time>2024-02-16T14:16:40Z</time>
      </trkpt>
      <trkpt lat="42.84496810" lon="13.64133576">
        <ele>105.00000</ele>
        <time>2024-02-16T14:16:41Z</time>
      </trkpt>
      <trkpt lat="42.84498704" lon="13.64141858">
        <ele>106.00000</ele>
        <time>2024-02-16T14:16:42Z</time>
      </trkpt>
      <trkpt lat="42.84500221" lon="13.64148739">
        <ele>106.00000</ele>
        <time>2024-02-16T14:16:43Z</time>
      </trkpt>
      <trkpt lat="42.84501579" lon="13.64155554">
        <ele>106.00000</ele>
        <time>2024-02-16T14:16:44Z</time>
      </trkpt>
      <trkpt lat="42.84503188" lon="13.64162209">
        <ele>106.00000</ele>
        <time>2024-02-16T14:16:45Z</time>
      </trkpt>
      <trkpt lat="42.84505041" lon="13.64168663">
        <ele>107.00000</ele>
        <time>2024-02-16T14:16:46Z</time>
      </trkpt>
      <trkpt lat="42.84507103" lon="13.64174338">
        <ele>107.00000</ele>
        <time>2024-02-16T14:16:47Z</time>
      </trkpt>
      <trkpt lat="42.84509777" lon="13.64178721">
        <ele>107.00000</ele>
        <time>2024-02-16T14:16:48Z</time>
      </trkpt>
      <trkpt lat="42.84512090" lon="13.64181219">
        <ele>107.00000</ele>
        <time>2024-02-16T14:16:49Z</time>
      </trkpt>
      <trkpt lat="42.84514462" lon="13.64181948">
        <ele>107.00000</ele>
        <time>2024-02-16T14:16:50Z</time>
      </trkpt>
      <trkpt lat="42.84516591" lon="13.64181823">
        <ele>107.00000</ele>
        <time>2024-02-16T14:16:51Z</time>
      </trkpt>
      <trkpt lat="42.84518460" lon="13.64181504">
        <ele>107.00000</ele>
        <time>2024-02-16T14:16:52Z</time>
      </trkpt>
      <trkpt lat="42.84519030" lon="13.64181160">
        <ele>107.00000</ele>
        <time>2024-02-16T14:16:53Z</time>
      </trkpt>
    </trkseg>
  </trk>
</gpx>

